<?xml version='1.0' encoding='UTF-8'?><gpx version="1.1" creator="JPX - https://github.com/jenetics/jpx" xmlns="http://www.topografix.com/GPX/1/1"><trk><trkseg><trkpt lat="40.9391117" lon="14.30601"><ele>33.0</ele><time>2026-04-25T06:42:27.112Z</time></trkpt><trkpt lat="40.9390183" lon="14.30608"><ele>33.0</ele><time>2026-04-25T06:42:29.112Z</time></trkpt><trkpt lat="40.9389383" lon="14.3061583"><ele>33.0</ele><time>2026-04-25T06:42:31.112Z</time></trkpt><trkpt lat="40.93891" lon="14.3062517"><ele>33.0</ele><time>2026-04-25T06:42:33.112Z</time></trkpt><trkpt lat="40.938945" lon="14.306335"><ele>33.0</ele><time>2026-04-25T06:42:35.112Z</time></trkpt><trkpt lat="40.93901" lon="14.3064517"><ele>33.0</ele><time>2026-04-25T06:42:37.112Z</time></trkpt><trkpt lat="40.9390333" lon="14.3065433"><ele>33.0</ele><time>2026-04-25T06:42:38.112Z</time></trkpt><trkpt lat="40.9390483" lon="14.306645"><ele>33.0</ele><time>2026-04-25T06:42:39.112Z</time></trkpt><trkpt lat="40.9390617" lon="14.30676"><ele>33.0</ele><time>2026-04-25T06:42:40.112Z</time></trkpt><trkpt lat="40.9390717" lon="14.306885"><ele>33.0</ele><time>2026-04-25T06:42:41.113Z</time></trkpt><trkpt lat="40.9390767" lon="14.30702"><ele>33.0</ele><time>2026-04-25T06:42:42.112Z</time></trkpt><trkpt lat="40.93909" lon="14.3071433"><ele>33.199999999999996</ele><time>2026-04-25T06:42:43.112Z</time></trkpt><trkpt lat="40.9391067" lon="14.3072767"><ele>33.4</ele><time>2026-04-25T06:42:44.113Z</time></trkpt><trkpt lat="40.939115" lon="14.3074117"><ele>33.599999999999994</ele><time>2026-04-25T06:42:45.112Z</time></trkpt><trkpt lat="40.9391183" lon="14.30755"><ele>33.8</ele><time>2026-04-25T06:42:46.112Z</time></trkpt><trkpt lat="40.93912" lon="14.3076883"><ele>34.0</ele><time>2026-04-25T06:42:47.112Z</time></trkpt><trkpt lat="40.9391167" lon="14.3078267"><ele>34.0</ele><time>2026-04-25T06:42:48.112Z</time></trkpt><trkpt lat="40.9391067" lon="14.3079733"><ele>34.0</ele><time>2026-04-25T06:42:49.112Z</time></trkpt><trkpt lat="40.939085" lon="14.30811"><ele>34.0</ele><time>2026-04-25T06:42:50.112Z</time></trkpt><trkpt lat="40.939065" lon="14.308235"><ele>34.0</ele><time>2026-04-25T06:42:51.112Z</time></trkpt><trkpt lat="40.9390333" lon="14.3083383"><ele>34.0</ele><time>2026-04-25T06:42:52.112Z</time></trkpt><trkpt lat="40.9389867" lon="14.3084783"><ele>34.0</ele><time>2026-04-25T06:42:53.112Z</time></trkpt><trkpt lat="40.9389367" lon="14.3086167"><ele>34.0</ele><time>2026-04-25T06:42:54.113Z</time></trkpt><trkpt lat="40.938875" lon="14.30876"><ele>34.0</ele><time>2026-04-25T06:42:55.112Z</time></trkpt><trkpt lat="40.93882" lon="14.308895"><ele>34.0</ele><time>2026-04-25T06:42:56.112Z</time></trkpt><trkpt lat="40.93877" lon="14.30903"><ele>34.0</ele><time>2026-04-25T06:42:57.112Z</time></trkpt><trkpt lat="40.9387283" lon="14.3091533"><ele>34.0</ele><time>2026-04-25T06:42:58.112Z</time></trkpt><trkpt lat="40.9386933" lon="14.3092717"><ele>34.0</ele><time>2026-04-25T06:42:59.113Z</time></trkpt><trkpt lat="40.9386583" lon="14.3093933"><ele>34.0</ele><time>2026-04-25T06:43:00.112Z</time></trkpt><trkpt lat="40.9386267" lon="14.3095133"><ele>34.0</ele><time>2026-04-25T06:43:01.113Z</time></trkpt><trkpt lat="40.9385933" lon="14.3096333"><ele>33.6</ele><time>2026-04-25T06:43:02.112Z</time></trkpt><trkpt lat="40.938565" lon="14.309755"><ele>33.2</ele><time>2026-04-25T06:43:03.112Z</time></trkpt><trkpt lat="40.9385483" lon="14.3098817"><ele>32.800000000000004</ele><time>2026-04-25T06:43:04.112Z</time></trkpt><trkpt lat="40.9385417" lon="14.3100067"><ele>32.4</ele><time>2026-04-25T06:43:05.112Z</time></trkpt><trkpt lat="40.9385517" lon="14.31012"><ele>32.0</ele><time>2026-04-25T06:43:06.112Z</time></trkpt><trkpt lat="40.9385767" lon="14.310225"><ele>32.0</ele><time>2026-04-25T06:43:07.112Z</time></trkpt><trkpt lat="40.9386267" lon="14.31033"><ele>32.0</ele><time>2026-04-25T06:43:08.112Z</time></trkpt><trkpt lat="40.93868" lon="14.3104183"><ele>32.0</ele><time>2026-04-25T06:43:09.112Z</time></trkpt><trkpt lat="40.93874" lon="14.3104867"><ele>32.0</ele><time>2026-04-25T06:43:10.112Z</time></trkpt><trkpt lat="40.9388217" lon="14.3105417"><ele>32.0</ele><time>2026-04-25T06:43:11.113Z</time></trkpt><trkpt lat="40.9389167" lon="14.3105867"><ele>32.4</ele><time>2026-04-25T06:43:12.112Z</time></trkpt><trkpt lat="40.939015" lon="14.3106217"><ele>32.800000000000004</ele><time>2026-04-25T06:43:13.112Z</time></trkpt><trkpt lat="40.9391183" lon="14.3106533"><ele>33.2</ele><time>2026-04-25T06:43:14.112Z</time></trkpt><trkpt lat="40.9392233" lon="14.3106783"><ele>33.6</ele><time>2026-04-25T06:43:15.112Z</time></trkpt><trkpt lat="40.939335" lon="14.3107067"><ele>34.0</ele><time>2026-04-25T06:43:16.112Z</time></trkpt><trkpt lat="40.9394333" lon="14.3107567"><ele>33.0</ele><time>2026-04-25T06:43:17.112Z</time></trkpt><trkpt lat="40.9395517" lon="14.310775"><ele>32.0</ele><time>2026-04-25T06:43:18.113Z</time></trkpt><trkpt lat="40.93966" lon="14.3108017"><ele>31.0</ele><time>2026-04-25T06:43:19.112Z</time></trkpt><trkpt lat="40.9397783" lon="14.3108367"><ele>30.0</ele><time>2026-04-25T06:43:20.112Z</time></trkpt><trkpt lat="40.9398917" lon="14.31089"><ele>30.0</ele><time>2026-04-25T06:43:21.112Z</time></trkpt><trkpt lat="40.93999" lon="14.3109617"><ele>30.0</ele><time>2026-04-25T06:43:22.112Z</time></trkpt><trkpt lat="40.9400883" lon="14.3110517"><ele>30.0</ele><time>2026-04-25T06:43:23.112Z</time></trkpt><trkpt lat="40.94017" lon="14.31115"><ele>30.0</ele><time>2026-04-25T06:43:24.112Z</time></trkpt><trkpt lat="40.94024" lon="14.311255"><ele>30.0</ele><time>2026-04-25T06:43:25.112Z</time></trkpt><trkpt lat="40.9403017" lon="14.3113667"><ele>29.8</ele><time>2026-04-25T06:43:26.112Z</time></trkpt><trkpt lat="40.9403567" lon="14.31148"><ele>29.6</ele><time>2026-04-25T06:43:27.113Z</time></trkpt><trkpt lat="40.940405" lon="14.31161"><ele>29.4</ele><time>2026-04-25T06:43:28.112Z</time></trkpt><trkpt lat="40.940435" lon="14.31174"><ele>29.2</ele><time>2026-04-25T06:43:29.112Z</time></trkpt><trkpt lat="40.9404433" lon="14.3118717"><ele>29.0</ele><time>2026-04-25T06:43:30.112Z</time></trkpt><trkpt lat="40.9404333" lon="14.312"><ele>29.0</ele><time>2026-04-25T06:43:31.112Z</time></trkpt><trkpt lat="40.9404017" lon="14.312125"><ele>29.0</ele><time>2026-04-25T06:43:32.112Z</time></trkpt><trkpt lat="40.9403567" lon="14.312235"><ele>29.0</ele><time>2026-04-25T06:43:33.112Z</time></trkpt><trkpt lat="40.9402967" lon="14.3123433"><ele>29.0</ele><time>2026-04-25T06:43:34.112Z</time></trkpt><trkpt lat="40.9402233" lon="14.3124383"><ele>29.0</ele><time>2026-04-25T06:43:35.112Z</time></trkpt><trkpt lat="40.9401433" lon="14.3125033"><ele>29.2</ele><time>2026-04-25T06:43:36.113Z</time></trkpt><trkpt lat="40.9400517" lon="14.3125467"><ele>29.4</ele><time>2026-04-25T06:43:37.112Z</time></trkpt><trkpt lat="40.9399567" lon="14.31256"><ele>29.6</ele><time>2026-04-25T06:43:38.112Z</time></trkpt><trkpt lat="40.9398533" lon="14.312555"><ele>29.8</ele><time>2026-04-25T06:43:39.112Z</time></trkpt><trkpt lat="40.9397533" lon="14.3125183"><ele>30.0</ele><time>2026-04-25T06:43:40.112Z</time></trkpt><trkpt lat="40.939665" lon="14.3124533"><ele>30.2</ele><time>2026-04-25T06:43:41.112Z</time></trkpt><trkpt lat="40.9395883" lon="14.3123667"><ele>30.4</ele><time>2026-04-25T06:43:42.112Z</time></trkpt><trkpt lat="40.939525" lon="14.3122683"><ele>30.6</ele><time>2026-04-25T06:43:43.112Z</time></trkpt><trkpt lat="40.9394767" lon="14.3121583"><ele>30.8</ele><time>2026-04-25T06:43:44.112Z</time></trkpt><trkpt lat="40.939445" lon="14.3120433"><ele>31.0</ele><time>2026-04-25T06:43:45.113Z</time></trkpt><trkpt lat="40.9394333" lon="14.31193"><ele>31.0</ele><time>2026-04-25T06:43:46.112Z</time></trkpt><trkpt lat="40.9394317" lon="14.3118067"><ele>31.0</ele><time>2026-04-25T06:43:47.112Z</time></trkpt><trkpt lat="40.9394283" lon="14.3116817"><ele>31.0</ele><time>2026-04-25T06:43:48.112Z</time></trkpt><trkpt lat="40.9394267" lon="14.3115517"><ele>31.0</ele><time>2026-04-25T06:43:49.112Z</time></trkpt><trkpt lat="40.9394217" lon="14.3114233"><ele>31.0</ele><time>2026-04-25T06:43:50.112Z</time></trkpt><trkpt lat="40.9394167" lon="14.31129"><ele>30.75</ele><time>2026-04-25T06:43:51.112Z</time></trkpt><trkpt lat="40.9394183" lon="14.3111483"><ele>30.5</ele><time>2026-04-25T06:43:52.112Z</time></trkpt><trkpt lat="40.9394183" lon="14.3110017"><ele>30.25</ele><time>2026-04-25T06:43:53.112Z</time></trkpt><trkpt lat="40.9394117" lon="14.3108467"><ele>30.0</ele><time>2026-04-25T06:43:54.113Z</time></trkpt><trkpt lat="40.9393967" lon="14.3106767"><ele>30.0</ele><time>2026-04-25T06:43:55.112Z</time></trkpt><trkpt lat="40.939385" lon="14.3104833"><ele>30.0</ele><time>2026-04-25T06:43:56.112Z</time></trkpt><trkpt lat="40.9393783" lon="14.31027"><ele>30.0</ele><time>2026-04-25T06:43:57.112Z</time></trkpt><trkpt lat="40.93937" lon="14.3100333"><ele>30.0</ele><time>2026-04-25T06:43:58.112Z</time></trkpt><trkpt lat="40.9393567" lon="14.3097967"><ele>30.0</ele><time>2026-04-25T06:43:59.112Z</time></trkpt><trkpt lat="40.939345" lon="14.3095567"><ele>30.0</ele><time>2026-04-25T06:44:00.112Z</time></trkpt><trkpt lat="40.9393283" lon="14.3093067"><ele>30.333333333333336</ele><time>2026-04-25T06:44:01.112Z</time></trkpt><trkpt lat="40.9393" lon="14.30905"><ele>30.666666666666668</ele><time>2026-04-25T06:44:02.112Z</time></trkpt><trkpt lat="40.9392617" lon="14.3088017"><ele>31.0</ele><time>2026-04-25T06:44:03.112Z</time></trkpt><trkpt lat="40.9392067" lon="14.3085467"><ele>32.0</ele><time>2026-04-25T06:44:04.112Z</time></trkpt><trkpt lat="40.9391367" lon="14.3082917"><ele>33.0</ele><time>2026-04-25T06:44:05.112Z</time></trkpt><trkpt lat="40.9390417" lon="14.30804"><ele>34.0</ele><time>2026-04-25T06:44:06.112Z</time></trkpt><trkpt lat="40.938935" lon="14.307795"><ele>34.0</ele><time>2026-04-25T06:44:07.112Z</time></trkpt><trkpt lat="40.938815" lon="14.3075633"><ele>34.0</ele><time>2026-04-25T06:44:08.112Z</time></trkpt><trkpt lat="40.938685" lon="14.3073383"><ele>34.0</ele><time>2026-04-25T06:44:09.112Z</time></trkpt><trkpt lat="40.938535" lon="14.3071217"><ele>35.0</ele><time>2026-04-25T06:44:10.112Z</time></trkpt><trkpt lat="40.938375" lon="14.3069233"><ele>36.0</ele><time>2026-04-25T06:44:11.112Z</time></trkpt><trkpt lat="40.938205" lon="14.3067383"><ele>37.0</ele><time>2026-04-25T06:44:12.112Z</time></trkpt><trkpt lat="40.9380267" lon="14.3065717"><ele>37.0</ele><time>2026-04-25T06:44:13.113Z</time></trkpt><trkpt lat="40.9378417" lon="14.3064183"><ele>37.0</ele><time>2026-04-25T06:44:14.112Z</time></trkpt><trkpt lat="40.9376467" lon="14.30629"><ele>37.0</ele><time>2026-04-25T06:44:15.112Z</time></trkpt><trkpt lat="40.937445" lon="14.3061717"><ele>36.0</ele><time>2026-04-25T06:44:16.113Z</time></trkpt><trkpt lat="40.9372333" lon="14.3060667"><ele>35.0</ele><time>2026-04-25T06:44:17.112Z</time></trkpt><trkpt lat="40.93702" lon="14.3059567"><ele>35.0</ele><time>2026-04-25T06:44:18.112Z</time></trkpt><trkpt lat="40.9368117" lon="14.3058633"><ele>35.0</ele><time>2026-04-25T06:44:19.112Z</time></trkpt><trkpt lat="40.9366033" lon="14.3057683"><ele>35.0</ele><time>2026-04-25T06:44:20.112Z</time></trkpt><trkpt lat="40.9363983" lon="14.3056667"><ele>35.33333333333333</ele><time>2026-04-25T06:44:21.112Z</time></trkpt><trkpt lat="40.936195" lon="14.3055567"><ele>35.666666666666664</ele><time>2026-04-25T06:44:22.112Z</time></trkpt><trkpt lat="40.9360067" lon="14.3054417"><ele>36.0</ele><time>2026-04-25T06:44:23.112Z</time></trkpt><trkpt lat="40.9358233" lon="14.3053167"><ele>36.666666666666664</ele><time>2026-04-25T06:44:24.112Z</time></trkpt><trkpt lat="40.93564" lon="14.3051767"><ele>37.33333333333333</ele><time>2026-04-25T06:44:25.112Z</time></trkpt><trkpt lat="40.9354667" lon="14.3050233"><ele>38.0</ele><time>2026-04-25T06:44:26.112Z</time></trkpt><trkpt lat="40.9353033" lon="14.3048533"><ele>38.0</ele><time>2026-04-25T06:44:27.112Z</time></trkpt><trkpt lat="40.9351517" lon="14.3046633"><ele>38.0</ele><time>2026-04-25T06:44:28.112Z</time></trkpt><trkpt lat="40.9350067" lon="14.30446"><ele>38.0</ele><time>2026-04-25T06:44:29.112Z</time></trkpt><trkpt lat="40.934875" lon="14.3042467"><ele>37.666666666666664</ele><time>2026-04-25T06:44:30.112Z</time></trkpt><trkpt lat="40.93476" lon="14.3040217"><ele>37.333333333333336</ele><time>2026-04-25T06:44:31.112Z</time></trkpt><trkpt lat="40.9346633" lon="14.3037817"><ele>37.0</ele><time>2026-04-25T06:44:32.112Z</time></trkpt><trkpt lat="40.934575" lon="14.30353"><ele>37.0</ele><time>2026-04-25T06:44:33.112Z</time></trkpt><trkpt lat="40.9344967" lon="14.3032783"><ele>37.0</ele><time>2026-04-25T06:44:34.112Z</time></trkpt><trkpt lat="40.9344383" lon="14.3030183"><ele>37.0</ele><time>2026-04-25T06:44:35.112Z</time></trkpt><trkpt lat="40.9343917" lon="14.30275"><ele>37.333333333333336</ele><time>2026-04-25T06:44:36.112Z</time></trkpt><trkpt lat="40.9343567" lon="14.3024817"><ele>37.666666666666664</ele><time>2026-04-25T06:44:37.112Z</time></trkpt><trkpt lat="40.9343317" lon="14.3022283"><ele>38.0</ele><time>2026-04-25T06:44:38.113Z</time></trkpt><trkpt lat="40.93431" lon="14.30196"><ele>38.0</ele><time>2026-04-25T06:44:39.112Z</time></trkpt><trkpt lat="40.9342983" lon="14.3016883"><ele>38.0</ele><time>2026-04-25T06:44:40.112Z</time></trkpt><trkpt lat="40.934285" lon="14.301415"><ele>38.0</ele><time>2026-04-25T06:44:41.112Z</time></trkpt><trkpt lat="40.9342733" lon="14.3011367"><ele>38.33333333333333</ele><time>2026-04-25T06:44:42.112Z</time></trkpt><trkpt lat="40.93427" lon="14.3008483"><ele>38.666666666666664</ele><time>2026-04-25T06:44:43.112Z</time></trkpt><trkpt lat="40.9342617" lon="14.30056"><ele>39.0</ele><time>2026-04-25T06:44:44.112Z</time></trkpt><trkpt lat="40.934265" lon="14.300265"><ele>39.0</ele><time>2026-04-25T06:44:45.112Z</time></trkpt><trkpt lat="40.934275" lon="14.2999683"><ele>39.0</ele><time>2026-04-25T06:44:46.113Z</time></trkpt><trkpt lat="40.9342917" lon="14.2996767"><ele>39.0</ele><time>2026-04-25T06:44:47.113Z</time></trkpt><trkpt lat="40.934315" lon="14.2993783"><ele>39.5</ele><time>2026-04-25T06:44:48.113Z</time></trkpt><trkpt lat="40.934355" lon="14.299085"><ele>40.0</ele><time>2026-04-25T06:44:49.113Z</time></trkpt><trkpt lat="40.9344083" lon="14.298795"><ele>40.0</ele><time>2026-04-25T06:44:50.113Z</time></trkpt><trkpt lat="40.9344783" lon="14.2985117"><ele>40.0</ele><time>2026-04-25T06:44:51.113Z</time></trkpt><trkpt lat="40.93457" lon="14.2982433"><ele>40.0</ele><time>2026-04-25T06:44:52.113Z</time></trkpt><trkpt lat="40.9346767" lon="14.2979783"><ele>41.5</ele><time>2026-04-25T06:44:53.113Z</time></trkpt><trkpt lat="40.9347917" lon="14.2977217"><ele>43.0</ele><time>2026-04-25T06:44:54.113Z</time></trkpt><trkpt lat="40.93492" lon="14.2974767"><ele>42.0</ele><time>2026-04-25T06:44:55.114Z</time></trkpt><trkpt lat="40.9350567" lon="14.2972417"><ele>41.0</ele><time>2026-04-25T06:44:56.113Z</time></trkpt><trkpt lat="40.9351933" lon="14.297005"><ele>40.0</ele><time>2026-04-25T06:44:57.113Z</time></trkpt><trkpt lat="40.9353283" lon="14.2967783"><ele>40.0</ele><time>2026-04-25T06:44:58.113Z</time></trkpt><trkpt lat="40.935465" lon="14.2965483"><ele>40.0</ele><time>2026-04-25T06:44:59.113Z</time></trkpt><trkpt lat="40.9355933" lon="14.29632"><ele>40.0</ele><time>2026-04-25T06:45:00.113Z</time></trkpt><trkpt lat="40.9357217" lon="14.2960883"><ele>40.0</ele><time>2026-04-25T06:45:01.113Z</time></trkpt><trkpt lat="40.9358417" lon="14.2958517"><ele>40.0</ele><time>2026-04-25T06:45:02.113Z</time></trkpt><trkpt lat="40.93595" lon="14.2956017"><ele>40.0</ele><time>2026-04-25T06:45:03.113Z</time></trkpt><trkpt lat="40.9360367" lon="14.2953467"><ele>40.0</ele><time>2026-04-25T06:45:04.113Z</time></trkpt><trkpt lat="40.936115" lon="14.2950833"><ele>40.0</ele><time>2026-04-25T06:45:05.113Z</time></trkpt><trkpt lat="40.93618" lon="14.2948117"><ele>40.0</ele><time>2026-04-25T06:45:06.113Z</time></trkpt><trkpt lat="40.9362283" lon="14.294535"><ele>40.333333333333336</ele><time>2026-04-25T06:45:07.113Z</time></trkpt><trkpt lat="40.93626" lon="14.2942583"><ele>40.666666666666664</ele><time>2026-04-25T06:45:08.113Z</time></trkpt><trkpt lat="40.93627" lon="14.293975"><ele>41.0</ele><time>2026-04-25T06:45:09.113Z</time></trkpt><trkpt lat="40.9362633" lon="14.2936967"><ele>41.33333333333333</ele><time>2026-04-25T06:45:10.113Z</time></trkpt><trkpt lat="40.9362367" lon="14.29342"><ele>41.666666666666664</ele><time>2026-04-25T06:45:11.113Z</time></trkpt><trkpt lat="40.9361967" lon="14.2931567"><ele>42.0</ele><time>2026-04-25T06:45:12.113Z</time></trkpt><trkpt lat="40.9361433" lon="14.2929033"><ele>42.333333333333336</ele><time>2026-04-25T06:45:13.113Z</time></trkpt><trkpt lat="40.9360717" lon="14.29266"><ele>42.66666666666667</ele><time>2026-04-25T06:45:14.113Z</time></trkpt><trkpt lat="40.9359817" lon="14.2924233"><ele>43.0</ele><time>2026-04-25T06:45:15.113Z</time></trkpt><trkpt lat="40.935885" lon="14.2921917"><ele>43.0</ele><time>2026-04-25T06:45:16.113Z</time></trkpt><trkpt lat="40.9357783" lon="14.29197"><ele>43.0</ele><time>2026-04-25T06:45:17.113Z</time></trkpt><trkpt lat="40.9356583" lon="14.2917583"><ele>43.0</ele><time>2026-04-25T06:45:18.113Z</time></trkpt><trkpt lat="40.9355267" lon="14.2915583"><ele>42.66666666666667</ele><time>2026-04-25T06:45:19.113Z</time></trkpt><trkpt lat="40.935385" lon="14.2913633"><ele>42.333333333333336</ele><time>2026-04-25T06:45:20.113Z</time></trkpt><trkpt lat="40.935235" lon="14.2911717"><ele>42.0</ele><time>2026-04-25T06:45:21.113Z</time></trkpt><trkpt lat="40.9350783" lon="14.2909933"><ele>42.666666666666664</ele><time>2026-04-25T06:45:22.113Z</time></trkpt><trkpt lat="40.93492" lon="14.2908083"><ele>43.33333333333333</ele><time>2026-04-25T06:45:23.113Z</time></trkpt><trkpt lat="40.934755" lon="14.2906317"><ele>44.0</ele><time>2026-04-25T06:45:24.113Z</time></trkpt><trkpt lat="40.9345883" lon="14.2904483"><ele>44.0</ele><time>2026-04-25T06:45:25.113Z</time></trkpt><trkpt lat="40.9344133" lon="14.290265"><ele>44.0</ele><time>2026-04-25T06:45:26.113Z</time></trkpt><trkpt lat="40.93424" lon="14.29008"><ele>44.0</ele><time>2026-04-25T06:45:27.113Z</time></trkpt><trkpt lat="40.934065" lon="14.28989"><ele>44.5</ele><time>2026-04-25T06:45:28.113Z</time></trkpt><trkpt lat="40.9338917" lon="14.2897067"><ele>45.0</ele><time>2026-04-25T06:45:29.113Z</time></trkpt><trkpt lat="40.9337133" lon="14.2895183"><ele>45.0</ele><time>2026-04-25T06:45:30.113Z</time></trkpt><trkpt lat="40.9335367" lon="14.28933"><ele>45.0</ele><time>2026-04-25T06:45:31.113Z</time></trkpt><trkpt lat="40.9333583" lon="14.2891417"><ele>45.0</ele><time>2026-04-25T06:45:32.113Z</time></trkpt><trkpt lat="40.9331867" lon="14.2889433"><ele>45.0</ele><time>2026-04-25T06:45:33.113Z</time></trkpt><trkpt lat="40.93301" lon="14.2887467"><ele>45.0</ele><time>2026-04-25T06:45:34.113Z</time></trkpt><trkpt lat="40.932845" lon="14.28854"><ele>45.0</ele><time>2026-04-25T06:45:35.114Z</time></trkpt><trkpt lat="40.9326817" lon="14.2883233"><ele>46.0</ele><time>2026-04-25T06:45:36.113Z</time></trkpt><trkpt lat="40.93252" lon="14.2881083"><ele>47.0</ele><time>2026-04-25T06:45:37.113Z</time></trkpt><trkpt lat="40.9323633" lon="14.2878867"><ele>47.5</ele><time>2026-04-25T06:45:38.113Z</time></trkpt><trkpt lat="40.932215" lon="14.2876467"><ele>48.0</ele><time>2026-04-25T06:45:39.113Z</time></trkpt><trkpt lat="40.9320817" lon="14.2873967"><ele>47.333333333333336</ele><time>2026-04-25T06:45:40.113Z</time></trkpt><trkpt lat="40.9319533" lon="14.2871483"><ele>46.66666666666667</ele><time>2026-04-25T06:45:41.114Z</time></trkpt><trkpt lat="40.931835" lon="14.2869"><ele>46.0</ele><time>2026-04-25T06:45:42.113Z</time></trkpt><trkpt lat="40.931735" lon="14.2866383"><ele>46.333333333333336</ele><time>2026-04-25T06:45:43.113Z</time></trkpt><trkpt lat="40.93165" lon="14.28637"><ele>46.666666666666664</ele><time>2026-04-25T06:45:44.113Z</time></trkpt><trkpt lat="40.93157" lon="14.286105"><ele>47.0</ele><time>2026-04-25T06:45:45.113Z</time></trkpt><trkpt lat="40.9315083" lon="14.2858567"><ele>47.0</ele><time>2026-04-25T06:45:46.113Z</time></trkpt><trkpt lat="40.9314533" lon="14.285635"><ele>47.0</ele><time>2026-04-25T06:45:47.113Z</time></trkpt><trkpt lat="40.9314083" lon="14.2854317"><ele>47.0</ele><time>2026-04-25T06:45:48.113Z</time></trkpt><trkpt lat="40.93137" lon="14.2852517"><ele>47.400000000000006</ele><time>2026-04-25T06:45:49.113Z</time></trkpt><trkpt lat="40.931335" lon="14.2850833"><ele>47.800000000000004</ele><time>2026-04-25T06:45:50.113Z</time></trkpt><trkpt lat="40.931305" lon="14.2849317"><ele>48.2</ele><time>2026-04-25T06:45:51.113Z</time></trkpt><trkpt lat="40.9312933" lon="14.2848017"><ele>48.6</ele><time>2026-04-25T06:45:52.113Z</time></trkpt><trkpt lat="40.9312933" lon="14.28468"><ele>49.0</ele><time>2026-04-25T06:45:53.113Z</time></trkpt><trkpt lat="40.9313133" lon="14.2845667"><ele>49.6</ele><time>2026-04-25T06:45:54.113Z</time></trkpt><trkpt lat="40.9313533" lon="14.28446"><ele>50.2</ele><time>2026-04-25T06:45:55.113Z</time></trkpt><trkpt lat="40.9314183" lon="14.2843567"><ele>50.800000000000004</ele><time>2026-04-25T06:45:56.113Z</time></trkpt><trkpt lat="40.9315033" lon="14.2842567"><ele>51.400000000000006</ele><time>2026-04-25T06:45:57.113Z</time></trkpt><trkpt lat="40.9315933" lon="14.28415"><ele>52.0</ele><time>2026-04-25T06:45:58.113Z</time></trkpt><trkpt lat="40.93169" lon="14.2840433"><ele>50.5</ele><time>2026-04-25T06:45:59.113Z</time></trkpt><trkpt lat="40.93178" lon="14.2839283"><ele>49.0</ele><time>2026-04-25T06:46:00.113Z</time></trkpt><trkpt lat="40.9318533" lon="14.2838083"><ele>47.5</ele><time>2026-04-25T06:46:01.113Z</time></trkpt><trkpt lat="40.9319183" lon="14.283685"><ele>46.0</ele><time>2026-04-25T06:46:02.113Z</time></trkpt><trkpt lat="40.93198" lon="14.28355"><ele>46.0</ele><time>2026-04-25T06:46:03.113Z</time></trkpt><trkpt lat="40.9320283" lon="14.28339"><ele>46.0</ele><time>2026-04-25T06:46:04.113Z</time></trkpt><trkpt lat="40.9320567" lon="14.2832233"><ele>46.0</ele><time>2026-04-25T06:46:05.113Z</time></trkpt><trkpt lat="40.93207" lon="14.283045"><ele>46.0</ele><time>2026-04-25T06:46:06.113Z</time></trkpt><trkpt lat="40.932075" lon="14.2828633"><ele>45.75</ele><time>2026-04-25T06:46:07.113Z</time></trkpt><trkpt lat="40.932075" lon="14.2826917"><ele>45.5</ele><time>2026-04-25T06:46:08.114Z</time></trkpt><trkpt lat="40.9320917" lon="14.2825417"><ele>45.25</ele><time>2026-04-25T06:46:09.113Z</time></trkpt><trkpt lat="40.9321333" lon="14.2824083"><ele>45.0</ele><time>2026-04-25T06:46:10.113Z</time></trkpt><trkpt lat="40.9321917" lon="14.2822983"><ele>45.5</ele><time>2026-04-25T06:46:11.113Z</time></trkpt><trkpt lat="40.9322667" lon="14.28221"><ele>46.0</ele><time>2026-04-25T06:46:12.113Z</time></trkpt><trkpt lat="40.932365" lon="14.282135"><ele>46.5</ele><time>2026-04-25T06:46:13.113Z</time></trkpt><trkpt lat="40.93247" lon="14.2820617"><ele>47.0</ele><time>2026-04-25T06:46:14.113Z</time></trkpt><trkpt lat="40.9325883" lon="14.281985"><ele>47.0</ele><time>2026-04-25T06:46:15.113Z</time></trkpt><trkpt lat="40.9327217" lon="14.2818983"><ele>47.0</ele><time>2026-04-25T06:46:16.113Z</time></trkpt><trkpt lat="40.9328617" lon="14.2818033"><ele>47.0</ele><time>2026-04-25T06:46:17.113Z</time></trkpt><trkpt lat="40.9330067" lon="14.2817117"><ele>47.0</ele><time>2026-04-25T06:46:18.113Z</time></trkpt><trkpt lat="40.93316" lon="14.2816267"><ele>47.0</ele><time>2026-04-25T06:46:19.113Z</time></trkpt><trkpt lat="40.9333117" lon="14.281545"><ele>47.0</ele><time>2026-04-25T06:46:20.113Z</time></trkpt><trkpt lat="40.933475" lon="14.2814617"><ele>48.0</ele><time>2026-04-25T06:46:21.113Z</time></trkpt><trkpt lat="40.933635" lon="14.281395"><ele>49.0</ele><time>2026-04-25T06:46:22.113Z</time></trkpt><trkpt lat="40.933795" lon="14.2813333"><ele>50.0</ele><time>2026-04-25T06:46:23.113Z</time></trkpt><trkpt lat="40.93396" lon="14.2812917"><ele>50.0</ele><time>2026-04-25T06:46:24.113Z</time></trkpt><trkpt lat="40.93413" lon="14.2812617"><ele>50.0</ele><time>2026-04-25T06:46:25.113Z</time></trkpt><trkpt lat="40.9343033" lon="14.2812467"><ele>50.0</ele><time>2026-04-25T06:46:26.113Z</time></trkpt><trkpt lat="40.9344717" lon="14.281245"><ele>50.25</ele><time>2026-04-25T06:46:27.113Z</time></trkpt><trkpt lat="40.9346267" lon="14.28125"><ele>50.5</ele><time>2026-04-25T06:46:28.113Z</time></trkpt><trkpt lat="40.93477" lon="14.2812467"><ele>50.75</ele><time>2026-04-25T06:46:29.113Z</time></trkpt><trkpt lat="40.9349017" lon="14.28124"><ele>51.0</ele><time>2026-04-25T06:46:30.113Z</time></trkpt><trkpt lat="40.935015" lon="14.2812167"><ele>50.199999999999996</ele><time>2026-04-25T06:46:31.113Z</time></trkpt><trkpt lat="40.9351167" lon="14.2811717"><ele>49.4</ele><time>2026-04-25T06:46:32.114Z</time></trkpt><trkpt lat="40.9352033" lon="14.281105"><ele>48.6</ele><time>2026-04-25T06:46:33.113Z</time></trkpt><trkpt lat="40.9352733" lon="14.2810183"><ele>47.8</ele><time>2026-04-25T06:46:34.113Z</time></trkpt><trkpt lat="40.9353283" lon="14.28091"><ele>47.0</ele><time>2026-04-25T06:46:35.113Z</time></trkpt><trkpt lat="40.935365" lon="14.2807733"><ele>47.0</ele><time>2026-04-25T06:46:36.113Z</time></trkpt><trkpt lat="40.9353867" lon="14.2806283"><ele>47.0</ele><time>2026-04-25T06:46:37.113Z</time></trkpt><trkpt lat="40.9354033" lon="14.2804817"><ele>47.0</ele><time>2026-04-25T06:46:38.113Z</time></trkpt><trkpt lat="40.93541" lon="14.2803283"><ele>47.0</ele><time>2026-04-25T06:46:39.113Z</time></trkpt><trkpt lat="40.9354167" lon="14.280205"><ele>47.0</ele><time>2026-04-25T06:46:40.113Z</time></trkpt><trkpt lat="40.935435" lon="14.280085"><ele>47.6</ele><time>2026-04-25T06:46:41.113Z</time></trkpt><trkpt lat="40.9354717" lon="14.2799767"><ele>48.2</ele><time>2026-04-25T06:46:42.113Z</time></trkpt><trkpt lat="40.9355283" lon="14.2798783"><ele>48.8</ele><time>2026-04-25T06:46:43.113Z</time></trkpt><trkpt lat="40.9356" lon="14.2797917"><ele>49.4</ele><time>2026-04-25T06:46:44.113Z</time></trkpt><trkpt lat="40.9356767" lon="14.2797083"><ele>50.0</ele><time>2026-04-25T06:46:45.113Z</time></trkpt><trkpt lat="40.9357683" lon="14.279635"><ele>50.0</ele><time>2026-04-25T06:46:46.113Z</time></trkpt><trkpt lat="40.93587" lon="14.2795633"><ele>50.0</ele><time>2026-04-25T06:46:47.113Z</time></trkpt><trkpt lat="40.9359783" lon="14.279505"><ele>50.0</ele><time>2026-04-25T06:46:48.113Z</time></trkpt><trkpt lat="40.9360917" lon="14.2794567"><ele>50.0</ele><time>2026-04-25T06:46:49.113Z</time></trkpt><trkpt lat="40.9362067" lon="14.2794"><ele>49.6</ele><time>2026-04-25T06:46:50.113Z</time></trkpt><trkpt lat="40.9363017" lon="14.27935"><ele>49.2</ele><time>2026-04-25T06:46:51.113Z</time></trkpt><trkpt lat="40.936395" lon="14.2793083"><ele>48.8</ele><time>2026-04-25T06:46:52.113Z</time></trkpt><trkpt lat="40.936465" lon="14.2792833"><ele>48.4</ele><time>2026-04-25T06:46:53.113Z</time></trkpt><trkpt lat="40.9365283" lon="14.2792783"><ele>48.0</ele><time>2026-04-25T06:46:54.113Z</time></trkpt><trkpt lat="40.9366467" lon="14.2793267"><ele>48.599999999999994</ele><time>2026-04-25T06:46:56.113Z</time></trkpt><trkpt lat="40.9367283" lon="14.2793833"><ele>49.199999999999996</ele><time>2026-04-25T06:46:58.113Z</time></trkpt><trkpt lat="40.9367983" lon="14.27946"><ele>49.8</ele><time>2026-04-25T06:47:01.113Z</time></trkpt><trkpt lat="40.9368483" lon="14.279545"><ele>50.4</ele><time>2026-04-25T06:47:03.113Z</time></trkpt><trkpt lat="40.9369117" lon="14.2796783"><ele>51.0</ele><time>2026-04-25T06:47:05.113Z</time></trkpt><trkpt lat="40.9369517" lon="14.279755"><ele>50.8</ele><time>2026-04-25T06:47:06.113Z</time></trkpt><trkpt lat="40.9370133" lon="14.2798733"><ele>50.599999999999994</ele><time>2026-04-25T06:47:08.113Z</time></trkpt><trkpt lat="40.9370667" lon="14.2799683"><ele>50.4</ele><time>2026-04-25T06:47:10.113Z</time></trkpt><trkpt lat="40.93712" lon="14.28007"><ele>50.2</ele><time>2026-04-25T06:47:12.113Z</time></trkpt><trkpt lat="40.93716" lon="14.2802367"><ele>50.0</ele><time>2026-04-25T06:47:14.113Z</time></trkpt><trkpt lat="40.9371683" lon="14.2803483"><ele>50.0</ele><time>2026-04-25T06:47:15.113Z</time></trkpt><trkpt lat="40.9371667" lon="14.2804667"><ele>50.0</ele><time>2026-04-25T06:47:16.113Z</time></trkpt><trkpt lat="40.9371617" lon="14.2806"><ele>50.0</ele><time>2026-04-25T06:47:17.113Z</time></trkpt><trkpt lat="40.9371483" lon="14.280735"><ele>50.0</ele><time>2026-04-25T06:47:18.113Z</time></trkpt><trkpt lat="40.937125" lon="14.28088"><ele>50.0</ele><time>2026-04-25T06:47:19.113Z</time></trkpt><trkpt lat="40.9370967" lon="14.2810167"><ele>49.6</ele><time>2026-04-25T06:47:20.113Z</time></trkpt><trkpt lat="40.9370583" lon="14.281145"><ele>49.2</ele><time>2026-04-25T06:47:21.113Z</time></trkpt><trkpt lat="40.937015" lon="14.2812683"><ele>48.8</ele><time>2026-04-25T06:47:22.113Z</time></trkpt><trkpt lat="40.9369617" lon="14.2813867"><ele>48.4</ele><time>2026-04-25T06:47:23.113Z</time></trkpt><trkpt lat="40.9369033" lon="14.2814983"><ele>48.0</ele><time>2026-04-25T06:47:24.113Z</time></trkpt><trkpt lat="40.93684" lon="14.281605"><ele>47.5</ele><time>2026-04-25T06:47:25.113Z</time></trkpt><trkpt lat="40.93678" lon="14.2817033"><ele>47.0</ele><time>2026-04-25T06:47:26.113Z</time></trkpt><trkpt lat="40.9367217" lon="14.2817933"><ele>46.5</ele><time>2026-04-25T06:47:27.113Z</time></trkpt><trkpt lat="40.936675" lon="14.2818633"><ele>46.0</ele><time>2026-04-25T06:47:28.113Z</time></trkpt><trkpt lat="40.9366317" lon="14.2819283"><ele>45.5</ele><time>2026-04-25T06:47:29.113Z</time></trkpt><trkpt lat="40.936565" lon="14.2820133"><ele>45.0</ele><time>2026-04-25T06:47:31.113Z</time></trkpt><trkpt lat="40.9365267" lon="14.2820883"><ele>45.0</ele><time>2026-04-25T06:47:33.113Z</time></trkpt><trkpt lat="40.93646" lon="14.282175"><ele>45.0</ele><time>2026-04-25T06:47:37.113Z</time></trkpt><trkpt lat="40.936385" lon="14.2823333"><ele>45.0</ele><time>2026-04-25T06:47:39.113Z</time></trkpt><trkpt lat="40.936335" lon="14.28243"><ele>45.0</ele><time>2026-04-25T06:47:40.113Z</time></trkpt><trkpt lat="40.9362833" lon="14.2825217"><ele>45.0</ele><time>2026-04-25T06:47:41.113Z</time></trkpt><trkpt lat="40.9362317" lon="14.2826067"><ele>45.0</ele><time>2026-04-25T06:47:42.113Z</time></trkpt><trkpt lat="40.9361767" lon="14.2826733"><ele>45.0</ele><time>2026-04-25T06:47:43.113Z</time></trkpt><trkpt lat="40.9361083" lon="14.2827917"><ele>45.0</ele><time>2026-04-25T06:47:45.113Z</time></trkpt><trkpt lat="40.9361033" lon="14.2829183"><ele>45.0</ele><time>2026-04-25T06:47:47.113Z</time></trkpt><trkpt lat="40.936155" lon="14.2830717"><ele>45.0</ele><time>2026-04-25T06:47:49.113Z</time></trkpt><trkpt lat="40.9361883" lon="14.283175"><ele>45.4</ele><time>2026-04-25T06:47:50.114Z</time></trkpt><trkpt lat="40.9362183" lon="14.2832817"><ele>45.8</ele><time>2026-04-25T06:47:51.113Z</time></trkpt><trkpt lat="40.93625" lon="14.2833967"><ele>46.2</ele><time>2026-04-25T06:47:52.113Z</time></trkpt><trkpt lat="40.936285" lon="14.2835167"><ele>46.6</ele><time>2026-04-25T06:47:53.113Z</time></trkpt><trkpt lat="40.9363233" lon="14.28364"><ele>47.0</ele><time>2026-04-25T06:47:54.113Z</time></trkpt><trkpt lat="40.9363633" lon="14.283765"><ele>47.0</ele><time>2026-04-25T06:47:55.113Z</time></trkpt><trkpt lat="40.936395" lon="14.2838783"><ele>47.0</ele><time>2026-04-25T06:47:56.113Z</time></trkpt><trkpt lat="40.936425" lon="14.283975"><ele>47.0</ele><time>2026-04-25T06:47:57.113Z</time></trkpt><trkpt lat="40.93647" lon="14.284105"><ele>47.0</ele><time>2026-04-25T06:47:59.113Z</time></trkpt><trkpt lat="40.9364467" lon="14.28421"><ele>47.0</ele><time>2026-04-25T06:48:03.113Z</time></trkpt><trkpt lat="40.9364433" lon="14.2843233"><ele>47.0</ele><time>2026-04-25T06:48:05.113Z</time></trkpt><trkpt lat="40.93647" lon="14.2844133"><ele>46.83333333333333</ele><time>2026-04-25T06:48:06.113Z</time></trkpt><trkpt lat="40.9364867" lon="14.2845233"><ele>46.666666666666664</ele><time>2026-04-25T06:48:07.113Z</time></trkpt><trkpt lat="40.9365133" lon="14.2846333"><ele>46.5</ele><time>2026-04-25T06:48:08.113Z</time></trkpt><trkpt lat="40.9365333" lon="14.2847467"><ele>46.333333333333336</ele><time>2026-04-25T06:48:09.113Z</time></trkpt><trkpt lat="40.93656" lon="14.2848717"><ele>46.16666666666667</ele><time>2026-04-25T06:48:10.113Z</time></trkpt><trkpt lat="40.9365783" lon="14.2849867"><ele>46.0</ele><time>2026-04-25T06:48:11.114Z</time></trkpt><trkpt lat="40.9366033" lon="14.2850933"><ele>45.833333333333336</ele><time>2026-04-25T06:48:12.113Z</time></trkpt><trkpt lat="40.9366233" lon="14.2851867"><ele>45.66666666666667</ele><time>2026-04-25T06:48:13.113Z</time></trkpt><trkpt lat="40.93664" lon="14.2852717"><ele>45.5</ele><time>2026-04-25T06:48:14.113Z</time></trkpt><trkpt lat="40.93666" lon="14.2853567"><ele>45.333333333333336</ele><time>2026-04-25T06:48:15.113Z</time></trkpt><trkpt lat="40.9366733" lon="14.2854383"><ele>45.166666666666664</ele><time>2026-04-25T06:48:16.113Z</time></trkpt><trkpt lat="40.9367" lon="14.28559"><ele>45.0</ele><time>2026-04-25T06:48:18.113Z</time></trkpt><trkpt lat="40.936735" lon="14.2857117"><ele>44.833333333333336</ele><time>2026-04-25T06:48:20.114Z</time></trkpt><trkpt lat="40.936765" lon="14.2858167"><ele>44.666666666666664</ele><time>2026-04-25T06:48:22.114Z</time></trkpt><trkpt lat="40.9367967" lon="14.285935"><ele>44.5</ele><time>2026-04-25T06:48:24.113Z</time></trkpt><trkpt lat="40.9368083" lon="14.2860217"><ele>44.33333333333333</ele><time>2026-04-25T06:48:25.113Z</time></trkpt><trkpt lat="40.93683" lon="14.2861133"><ele>44.166666666666664</ele><time>2026-04-25T06:48:26.113Z</time></trkpt><trkpt lat="40.9368633" lon="14.2862017"><ele>44.0</ele><time>2026-04-25T06:48:27.113Z</time></trkpt><trkpt lat="40.9368983" lon="14.2862967"><ele>44.0</ele><time>2026-04-25T06:48:28.113Z</time></trkpt><trkpt lat="40.9369283" lon="14.286385"><ele>44.0</ele><time>2026-04-25T06:48:29.113Z</time></trkpt><trkpt lat="40.9369633" lon="14.2865017"><ele>44.0</ele><time>2026-04-25T06:48:31.113Z</time></trkpt><trkpt lat="40.9369783" lon="14.2866217"><ele>44.0</ele><time>2026-04-25T06:48:34.113Z</time></trkpt><trkpt lat="40.9369583" lon="14.2867633"><ele>44.0</ele><time>2026-04-25T06:48:36.113Z</time></trkpt><trkpt lat="40.936945" lon="14.2868467"><ele>44.0</ele><time>2026-04-25T06:48:37.113Z</time></trkpt><trkpt lat="40.93695" lon="14.2870067"><ele>43.83333333333333</ele><time>2026-04-25T06:48:39.113Z</time></trkpt><trkpt lat="40.9369833" lon="14.2871033"><ele>43.666666666666664</ele><time>2026-04-25T06:48:40.113Z</time></trkpt><trkpt lat="40.93703" lon="14.287195"><ele>43.5</ele><time>2026-04-25T06:48:41.113Z</time></trkpt><trkpt lat="40.9370883" lon="14.28729"><ele>43.333333333333336</ele><time>2026-04-25T06:48:42.113Z</time></trkpt><trkpt lat="40.9371417" lon="14.287385"><ele>43.16666666666667</ele><time>2026-04-25T06:48:43.113Z</time></trkpt><trkpt lat="40.9372067" lon="14.2874883"><ele>43.0</ele><time>2026-04-25T06:48:44.113Z</time></trkpt><trkpt lat="40.93727" lon="14.2876017"><ele>43.0</ele><time>2026-04-25T06:48:45.113Z</time></trkpt><trkpt lat="40.9373367" lon="14.287715"><ele>43.0</ele><time>2026-04-25T06:48:46.113Z</time></trkpt><trkpt lat="40.9373983" lon="14.2878333"><ele>43.0</ele><time>2026-04-25T06:48:47.113Z</time></trkpt><trkpt lat="40.9374533" lon="14.2879583"><ele>43.0</ele><time>2026-04-25T06:48:48.114Z</time></trkpt><trkpt lat="40.9375167" lon="14.2880933"><ele>43.0</ele><time>2026-04-25T06:48:49.113Z</time></trkpt><trkpt lat="40.9375683" lon="14.2882367"><ele>42.8</ele><time>2026-04-25T06:48:50.113Z</time></trkpt><trkpt lat="40.9376167" lon="14.2883783"><ele>42.599999999999994</ele><time>2026-04-25T06:48:51.113Z</time></trkpt><trkpt lat="40.9376567" lon="14.2884967"><ele>42.400000000000006</ele><time>2026-04-25T06:48:52.114Z</time></trkpt><trkpt lat="40.9376867" lon="14.2886"><ele>42.2</ele><time>2026-04-25T06:48:53.113Z</time></trkpt><trkpt lat="40.9377067" lon="14.2886867"><ele>42.0</ele><time>2026-04-25T06:48:54.113Z</time></trkpt><trkpt lat="40.937745" lon="14.288805"><ele>42.0</ele><time>2026-04-25T06:48:56.113Z</time></trkpt><trkpt lat="40.93781" lon="14.2889283"><ele>42.0</ele><time>2026-04-25T06:48:58.113Z</time></trkpt><trkpt lat="40.9378633" lon="14.2890117"><ele>42.0</ele><time>2026-04-25T06:48:59.113Z</time></trkpt><trkpt lat="40.9379317" lon="14.2891"><ele>42.0</ele><time>2026-04-25T06:49:00.113Z</time></trkpt><trkpt lat="40.93801" lon="14.2891783"><ele>42.0</ele><time>2026-04-25T06:49:01.113Z</time></trkpt><trkpt lat="40.9380933" lon="14.2892383"><ele>42.0</ele><time>2026-04-25T06:49:02.113Z</time></trkpt><trkpt lat="40.9381983" lon="14.2892983"><ele>42.0</ele><time>2026-04-25T06:49:03.113Z</time></trkpt><trkpt lat="40.9383067" lon="14.28936"><ele>42.0</ele><time>2026-04-25T06:49:04.113Z</time></trkpt><trkpt lat="40.9384267" lon="14.2894317"><ele>42.0</ele><time>2026-04-25T06:49:05.114Z</time></trkpt><trkpt lat="40.9385483" lon="14.2895083"><ele>41.75</ele><time>2026-04-25T06:49:06.113Z</time></trkpt><trkpt lat="40.9386683" lon="14.2895867"><ele>41.5</ele><time>2026-04-25T06:49:07.113Z</time></trkpt><trkpt lat="40.9387817" lon="14.2896567"><ele>41.25</ele><time>2026-04-25T06:49:08.113Z</time></trkpt><trkpt lat="40.9388933" lon="14.2897367"><ele>41.0</ele><time>2026-04-25T06:49:09.113Z</time></trkpt><trkpt lat="40.9390067" lon="14.2898267"><ele>40.75</ele><time>2026-04-25T06:49:10.113Z</time></trkpt><trkpt lat="40.9391233" lon="14.28993"><ele>40.5</ele><time>2026-04-25T06:49:11.113Z</time></trkpt><trkpt lat="40.939235" lon="14.2900217"><ele>40.25</ele><time>2026-04-25T06:49:12.113Z</time></trkpt><trkpt lat="40.939355" lon="14.2901517"><ele>40.0</ele><time>2026-04-25T06:49:13.113Z</time></trkpt><trkpt lat="40.9394667" lon="14.290265"><ele>39.5</ele><time>2026-04-25T06:49:14.113Z</time></trkpt><trkpt lat="40.93958" lon="14.2903733"><ele>39.0</ele><time>2026-04-25T06:49:15.113Z</time></trkpt><trkpt lat="40.93968" lon="14.29047"><ele>38.5</ele><time>2026-04-25T06:49:16.114Z</time></trkpt><trkpt lat="40.9397667" lon="14.29056"><ele>38.0</ele><time>2026-04-25T06:49:17.113Z</time></trkpt><trkpt lat="40.9398433" lon="14.290635"><ele>37.83333333333333</ele><time>2026-04-25T06:49:18.113Z</time></trkpt><trkpt lat="40.93991" lon="14.2907"><ele>37.666666666666664</ele><time>2026-04-25T06:49:19.113Z</time></trkpt><trkpt lat="40.9399817" lon="14.290755"><ele>37.5</ele><time>2026-04-25T06:49:20.113Z</time></trkpt><trkpt lat="40.9400367" lon="14.2908183"><ele>37.333333333333336</ele><time>2026-04-25T06:49:21.113Z</time></trkpt><trkpt lat="40.9401033" lon="14.2908883"><ele>37.16666666666667</ele><time>2026-04-25T06:49:22.113Z</time></trkpt><trkpt lat="40.940185" lon="14.2909533"><ele>37.0</ele><time>2026-04-25T06:49:23.113Z</time></trkpt><trkpt lat="40.940275" lon="14.2910267"><ele>37.0</ele><time>2026-04-25T06:49:24.113Z</time></trkpt><trkpt lat="40.94038" lon="14.2911"><ele>37.0</ele><time>2026-04-25T06:49:25.113Z</time></trkpt><trkpt lat="40.9404867" lon="14.2911767"><ele>37.0</ele><time>2026-04-25T06:49:26.113Z</time></trkpt><trkpt lat="40.9405783" lon="14.29125"><ele>37.0</ele><time>2026-04-25T06:49:27.113Z</time></trkpt><trkpt lat="40.9406517" lon="14.2913183"><ele>37.0</ele><time>2026-04-25T06:49:28.113Z</time></trkpt><trkpt lat="40.940715" lon="14.2913833"><ele>36.833333333333336</ele><time>2026-04-25T06:49:29.113Z</time></trkpt><trkpt lat="40.940765" lon="14.2914367"><ele>36.66666666666667</ele><time>2026-04-25T06:49:30.113Z</time></trkpt><trkpt lat="40.9408617" lon="14.29156"><ele>36.5</ele><time>2026-04-25T06:49:32.113Z</time></trkpt><trkpt lat="40.9409183" lon="14.2916317"><ele>36.333333333333336</ele><time>2026-04-25T06:49:33.113Z</time></trkpt><trkpt lat="40.9409783" lon="14.2917067"><ele>36.166666666666664</ele><time>2026-04-25T06:49:34.113Z</time></trkpt><trkpt lat="40.9410417" lon="14.29179"><ele>36.0</ele><time>2026-04-25T06:49:35.113Z</time></trkpt><trkpt lat="40.9411067" lon="14.2918767"><ele>36.0</ele><time>2026-04-25T06:49:36.113Z</time></trkpt><trkpt lat="40.94118" lon="14.2919883"><ele>36.0</ele><time>2026-04-25T06:49:37.113Z</time></trkpt><trkpt lat="40.9412517" lon="14.2921317"><ele>36.0</ele><time>2026-04-25T06:49:38.113Z</time></trkpt><trkpt lat="40.9413233" lon="14.2922883"><ele>36.0</ele><time>2026-04-25T06:49:39.113Z</time></trkpt><trkpt lat="40.9413967" lon="14.29244"><ele>35.75</ele><time>2026-04-25T06:49:40.113Z</time></trkpt><trkpt lat="40.9414667" lon="14.2925933"><ele>35.5</ele><time>2026-04-25T06:49:41.113Z</time></trkpt><trkpt lat="40.94154" lon="14.2927567"><ele>35.25</ele><time>2026-04-25T06:49:42.113Z</time></trkpt><trkpt lat="40.9416083" lon="14.2929117"><ele>35.0</ele><time>2026-04-25T06:49:43.113Z</time></trkpt><trkpt lat="40.9416833" lon="14.2930767"><ele>35.0</ele><time>2026-04-25T06:49:44.113Z</time></trkpt><trkpt lat="40.9417667" lon="14.2932233"><ele>35.0</ele><time>2026-04-25T06:49:45.113Z</time></trkpt><trkpt lat="40.9418517" lon="14.2933467"><ele>35.0</ele><time>2026-04-25T06:49:46.114Z</time></trkpt><trkpt lat="40.9419483" lon="14.29346"><ele>35.0</ele><time>2026-04-25T06:49:47.113Z</time></trkpt><trkpt lat="40.9420483" lon="14.29356"><ele>35.0</ele><time>2026-04-25T06:49:48.113Z</time></trkpt><trkpt lat="40.94215" lon="14.293645"><ele>35.0</ele><time>2026-04-25T06:49:49.113Z</time></trkpt><trkpt lat="40.9422533" lon="14.2937183"><ele>35.0</ele><time>2026-04-25T06:49:50.113Z</time></trkpt><trkpt lat="40.942365" lon="14.2937817"><ele>35.0</ele><time>2026-04-25T06:49:51.113Z</time></trkpt><trkpt lat="40.9424767" lon="14.293835"><ele>35.25</ele><time>2026-04-25T06:49:52.113Z</time></trkpt><trkpt lat="40.9425783" lon="14.2938833"><ele>35.5</ele><time>2026-04-25T06:49:53.113Z</time></trkpt><trkpt lat="40.9426833" lon="14.2939433"><ele>35.75</ele><time>2026-04-25T06:49:54.113Z</time></trkpt><trkpt lat="40.9427867" lon="14.2940283"><ele>36.0</ele><time>2026-04-25T06:49:55.113Z</time></trkpt><trkpt lat="40.9428767" lon="14.294115"><ele>36.5</ele><time>2026-04-25T06:49:56.114Z</time></trkpt><trkpt lat="40.9429717" lon="14.29422"><ele>37.0</ele><time>2026-04-25T06:49:57.113Z</time></trkpt><trkpt lat="40.9430583" lon="14.2943267"><ele>37.5</ele><time>2026-04-25T06:49:58.113Z</time></trkpt><trkpt lat="40.9431383" lon="14.2944467"><ele>38.0</ele><time>2026-04-25T06:49:59.114Z</time></trkpt><trkpt lat="40.9432067" lon="14.29456"><ele>38.0</ele><time>2026-04-25T06:50:00.113Z</time></trkpt><trkpt lat="40.94327" lon="14.2946533"><ele>38.0</ele><time>2026-04-25T06:50:01.113Z</time></trkpt><trkpt lat="40.943315" lon="14.29474"><ele>38.0</ele><time>2026-04-25T06:50:02.113Z</time></trkpt><trkpt lat="40.9433567" lon="14.29482"><ele>38.0</ele><time>2026-04-25T06:50:04.113Z</time></trkpt><trkpt lat="40.9433033" lon="14.29491"><ele>38.0</ele><time>2026-04-25T06:50:07.113Z</time></trkpt><trkpt lat="40.9431967" lon="14.2950067"><ele>38.0</ele><time>2026-04-25T06:50:09.113Z</time></trkpt><trkpt lat="40.9431267" lon="14.2950633"><ele>38.0</ele><time>2026-04-25T06:50:10.114Z</time></trkpt><trkpt lat="40.9430483" lon="14.2951233"><ele>38.0</ele><time>2026-04-25T06:50:11.113Z</time></trkpt><trkpt lat="40.942965" lon="14.2951767"><ele>38.0</ele><time>2026-04-25T06:50:12.113Z</time></trkpt><trkpt lat="40.942885" lon="14.2952167"><ele>38.0</ele><time>2026-04-25T06:50:13.114Z</time></trkpt><trkpt lat="40.9428067" lon="14.295255"><ele>38.0</ele><time>2026-04-25T06:50:14.113Z</time></trkpt><trkpt lat="40.9427233" lon="14.2952933"><ele>38.0</ele><time>2026-04-25T06:50:15.113Z</time></trkpt><trkpt lat="40.94264" lon="14.2953367"><ele>38.0</ele><time>2026-04-25T06:50:16.113Z</time></trkpt><trkpt lat="40.9425433" lon="14.29539"><ele>38.0</ele><time>2026-04-25T06:50:17.113Z</time></trkpt><trkpt lat="40.9424567" lon="14.295455"><ele>38.0</ele><time>2026-04-25T06:50:18.113Z</time></trkpt><trkpt lat="40.942375" lon="14.2955067"><ele>38.0</ele><time>2026-04-25T06:50:19.113Z</time></trkpt><trkpt lat="40.9422883" lon="14.2955567"><ele>38.166666666666664</ele><time>2026-04-25T06:50:20.113Z</time></trkpt><trkpt lat="40.9421933" lon="14.2955983"><ele>38.33333333333333</ele><time>2026-04-25T06:50:21.113Z</time></trkpt><trkpt lat="40.9421183" lon="14.2956433"><ele>38.5</ele><time>2026-04-25T06:50:22.113Z</time></trkpt><trkpt lat="40.9420617" lon="14.29569"><ele>38.666666666666664</ele><time>2026-04-25T06:50:23.113Z</time></trkpt><trkpt lat="40.9420033" lon="14.2957367"><ele>38.833333333333336</ele><time>2026-04-25T06:50:24.113Z</time></trkpt><trkpt lat="40.94194" lon="14.2957833"><ele>39.0</ele><time>2026-04-25T06:50:25.113Z</time></trkpt><trkpt lat="40.9418617" lon="14.2958217"><ele>39.0</ele><time>2026-04-25T06:50:26.113Z</time></trkpt><trkpt lat="40.94178" lon="14.2958733"><ele>39.0</ele><time>2026-04-25T06:50:27.113Z</time></trkpt><trkpt lat="40.9417067" lon="14.29592"><ele>39.0</ele><time>2026-04-25T06:50:28.113Z</time></trkpt><trkpt lat="40.9416317" lon="14.2959783"><ele>39.0</ele><time>2026-04-25T06:50:29.113Z</time></trkpt><trkpt lat="40.9415433" lon="14.29603"><ele>39.0</ele><time>2026-04-25T06:50:30.114Z</time></trkpt><trkpt lat="40.9414567" lon="14.2960767"><ele>39.0</ele><time>2026-04-25T06:50:31.113Z</time></trkpt><trkpt lat="40.9413917" lon="14.2961233"><ele>39.333333333333336</ele><time>2026-04-25T06:50:32.113Z</time></trkpt><trkpt lat="40.94133" lon="14.29615"><ele>39.666666666666664</ele><time>2026-04-25T06:50:33.113Z</time></trkpt><trkpt lat="40.9412633" lon="14.296175"><ele>40.0</ele><time>2026-04-25T06:50:34.113Z</time></trkpt><trkpt lat="40.941195" lon="14.2962133"><ele>40.33333333333333</ele><time>2026-04-25T06:50:35.113Z</time></trkpt><trkpt lat="40.9411233" lon="14.29625"><ele>40.666666666666664</ele><time>2026-04-25T06:50:36.113Z</time></trkpt><trkpt lat="40.94106" lon="14.29629"><ele>41.0</ele><time>2026-04-25T06:50:37.113Z</time></trkpt><trkpt lat="40.94097" lon="14.2963417"><ele>41.0</ele><time>2026-04-25T06:50:39.113Z</time></trkpt><trkpt lat="40.940925" lon="14.2964067"><ele>41.0</ele><time>2026-04-25T06:50:43.113Z</time></trkpt><trkpt lat="40.9409483" lon="14.29655"><ele>41.0</ele><time>2026-04-25T06:50:46.113Z</time></trkpt><trkpt lat="40.94101" lon="14.2966917"><ele>41.0</ele><time>2026-04-25T06:50:48.113Z</time></trkpt><trkpt lat="40.9410367" lon="14.29678"><ele>41.0</ele><time>2026-04-25T06:50:49.113Z</time></trkpt><trkpt lat="40.9410633" lon="14.2968817"><ele>40.8</ele><time>2026-04-25T06:50:50.113Z</time></trkpt><trkpt lat="40.9410917" lon="14.29698"><ele>40.599999999999994</ele><time>2026-04-25T06:50:51.113Z</time></trkpt><trkpt lat="40.9411217" lon="14.2970683"><ele>40.4</ele><time>2026-04-25T06:50:52.113Z</time></trkpt><trkpt lat="40.9411667" lon="14.29721"><ele>40.2</ele><time>2026-04-25T06:50:54.113Z</time></trkpt><trkpt lat="40.941215" lon="14.2973617"><ele>40.0</ele><time>2026-04-25T06:50:56.113Z</time></trkpt><trkpt lat="40.94125" lon="14.297465"><ele>40.0</ele><time>2026-04-25T06:50:57.113Z</time></trkpt><trkpt lat="40.9412833" lon="14.2975817"><ele>40.0</ele><time>2026-04-25T06:50:58.113Z</time></trkpt><trkpt lat="40.9413267" lon="14.2977067"><ele>40.0</ele><time>2026-04-25T06:50:59.113Z</time></trkpt><trkpt lat="40.941355" lon="14.2978383"><ele>40.0</ele><time>2026-04-25T06:51:00.113Z</time></trkpt><trkpt lat="40.9413983" lon="14.2979767"><ele>40.0</ele><time>2026-04-25T06:51:01.113Z</time></trkpt><trkpt lat="40.9414467" lon="14.2981267"><ele>39.8</ele><time>2026-04-25T06:51:02.113Z</time></trkpt><trkpt lat="40.94149" lon="14.2982717"><ele>39.6</ele><time>2026-04-25T06:51:03.113Z</time></trkpt><trkpt lat="40.9415367" lon="14.2984117"><ele>39.4</ele><time>2026-04-25T06:51:04.113Z</time></trkpt><trkpt lat="40.941575" lon="14.298535"><ele>39.2</ele><time>2026-04-25T06:51:05.113Z</time></trkpt><trkpt lat="40.9416117" lon="14.2986367"><ele>39.0</ele><time>2026-04-25T06:51:06.114Z</time></trkpt><trkpt lat="40.9416417" lon="14.29872"><ele>39.0</ele><time>2026-04-25T06:51:07.113Z</time></trkpt><trkpt lat="40.9416667" lon="14.2988283"><ele>39.0</ele><time>2026-04-25T06:51:09.113Z</time></trkpt><trkpt lat="40.9416483" lon="14.29891"><ele>39.0</ele><time>2026-04-25T06:51:11.113Z</time></trkpt><trkpt lat="40.9415833" lon="14.2989817"><ele>39.0</ele><time>2026-04-25T06:51:13.113Z</time></trkpt><trkpt lat="40.94148" lon="14.2990367"><ele>39.0</ele><time>2026-04-25T06:51:15.113Z</time></trkpt><trkpt lat="40.9413967" lon="14.29909"><ele>39.0</ele><time>2026-04-25T06:51:17.113Z</time></trkpt><trkpt lat="40.9413267" lon="14.299145"><ele>38.6</ele><time>2026-04-25T06:51:19.113Z</time></trkpt><trkpt lat="40.94127" lon="14.2992233"><ele>38.2</ele><time>2026-04-25T06:51:21.113Z</time></trkpt><trkpt lat="40.9412883" lon="14.299385"><ele>37.800000000000004</ele><time>2026-04-25T06:51:23.113Z</time></trkpt><trkpt lat="40.9413083" lon="14.2995067"><ele>37.4</ele><time>2026-04-25T06:51:24.114Z</time></trkpt><trkpt lat="40.94133" lon="14.29964"><ele>37.0</ele><time>2026-04-25T06:51:25.113Z</time></trkpt><trkpt lat="40.9413467" lon="14.29978"><ele>36.5</ele><time>2026-04-25T06:51:26.113Z</time></trkpt><trkpt lat="40.9413667" lon="14.2999317"><ele>36.0</ele><time>2026-04-25T06:51:27.113Z</time></trkpt><trkpt lat="40.9413883" lon="14.3000883"><ele>35.5</ele><time>2026-04-25T06:51:28.113Z</time></trkpt><trkpt lat="40.9413983" lon="14.3002417"><ele>35.0</ele><time>2026-04-25T06:51:29.113Z</time></trkpt><trkpt lat="40.9414183" lon="14.3003983"><ele>35.0</ele><time>2026-04-25T06:51:30.113Z</time></trkpt><trkpt lat="40.941415" lon="14.30055"><ele>35.0</ele><time>2026-04-25T06:51:31.113Z</time></trkpt><trkpt lat="40.9414133" lon="14.3006833"><ele>35.0</ele><time>2026-04-25T06:51:32.113Z</time></trkpt><trkpt lat="40.9414067" lon="14.3008133"><ele>35.0</ele><time>2026-04-25T06:51:33.113Z</time></trkpt><trkpt lat="40.94139" lon="14.300955"><ele>35.0</ele><time>2026-04-25T06:51:34.113Z</time></trkpt><trkpt lat="40.941365" lon="14.3011067"><ele>35.0</ele><time>2026-04-25T06:51:35.113Z</time></trkpt><trkpt lat="40.9413233" lon="14.3012583"><ele>35.0</ele><time>2026-04-25T06:51:36.113Z</time></trkpt><trkpt lat="40.94127" lon="14.3014167"><ele>35.0</ele><time>2026-04-25T06:51:37.114Z</time></trkpt><trkpt lat="40.94121" lon="14.301585"><ele>35.0</ele><time>2026-04-25T06:51:38.113Z</time></trkpt><trkpt lat="40.9411583" lon="14.3017533"><ele>35.0</ele><time>2026-04-25T06:51:39.113Z</time></trkpt><trkpt lat="40.941095" lon="14.3019117"><ele>35.0</ele><time>2026-04-25T06:51:40.113Z</time></trkpt><trkpt lat="40.9410367" lon="14.3020717"><ele>35.0</ele><time>2026-04-25T06:51:41.113Z</time></trkpt><trkpt lat="40.9409767" lon="14.3022167"><ele>35.0</ele><time>2026-04-25T06:51:42.113Z</time></trkpt><trkpt lat="40.9409267" lon="14.3023483"><ele>35.0</ele><time>2026-04-25T06:51:43.113Z</time></trkpt><trkpt lat="40.940885" lon="14.3024767"><ele>35.0</ele><time>2026-04-25T06:51:44.113Z</time></trkpt><trkpt lat="40.94084" lon="14.302595"><ele>35.0</ele><time>2026-04-25T06:51:45.113Z</time></trkpt><trkpt lat="40.940795" lon="14.3027133"><ele>35.0</ele><time>2026-04-25T06:51:46.114Z</time></trkpt><trkpt lat="40.9407583" lon="14.3028167"><ele>35.0</ele><time>2026-04-25T06:51:47.113Z</time></trkpt><trkpt lat="40.9407233" lon="14.3029"><ele>35.0</ele><time>2026-04-25T06:51:48.113Z</time></trkpt><trkpt lat="40.9406883" lon="14.302975"><ele>35.0</ele><time>2026-04-25T06:51:49.113Z</time></trkpt><trkpt lat="40.940635" lon="14.3031183"><ele>35.0</ele><time>2026-04-25T06:51:51.113Z</time></trkpt><trkpt lat="40.9405933" lon="14.3032433"><ele>35.0</ele><time>2026-04-25T06:51:53.113Z</time></trkpt><trkpt lat="40.94055" lon="14.3033517"><ele>35.0</ele><time>2026-04-25T06:51:55.113Z</time></trkpt><trkpt lat="40.9405083" lon="14.303455"><ele>35.0</ele><time>2026-04-25T06:51:57.113Z</time></trkpt><trkpt lat="40.9404833" lon="14.3035367"><ele>35.0</ele><time>2026-04-25T06:51:58.113Z</time></trkpt><trkpt lat="40.9404483" lon="14.30364"><ele>35.0</ele><time>2026-04-25T06:51:59.113Z</time></trkpt><trkpt lat="40.9404117" lon="14.3037583"><ele>35.0</ele><time>2026-04-25T06:52:00.113Z</time></trkpt><trkpt lat="40.9403667" lon="14.30388"><ele>35.0</ele><time>2026-04-25T06:52:01.113Z</time></trkpt><trkpt lat="40.9403183" lon="14.3040183"><ele>35.0</ele><time>2026-04-25T06:52:02.113Z</time></trkpt><trkpt lat="40.94027" lon="14.3041633"><ele>35.0</ele><time>2026-04-25T06:52:03.113Z</time></trkpt><trkpt lat="40.9402217" lon="14.3042983"><ele>35.0</ele><time>2026-04-25T06:52:04.113Z</time></trkpt><trkpt lat="40.9401767" lon="14.304425"><ele>35.0</ele><time>2026-04-25T06:52:05.113Z</time></trkpt><trkpt lat="40.940135" lon="14.3045417"><ele>35.0</ele><time>2026-04-25T06:52:06.113Z</time></trkpt><trkpt lat="40.9400967" lon="14.30466"><ele>34.8</ele><time>2026-04-25T06:52:07.113Z</time></trkpt><trkpt lat="40.9400517" lon="14.304765"><ele>34.6</ele><time>2026-04-25T06:52:08.113Z</time></trkpt><trkpt lat="40.9400067" lon="14.3048683"><ele>34.4</ele><time>2026-04-25T06:52:09.113Z</time></trkpt><trkpt lat="40.939955" lon="14.3049767"><ele>34.2</ele><time>2026-04-25T06:52:10.114Z</time></trkpt><trkpt lat="40.9399017" lon="14.3050767"><ele>34.0</ele><time>2026-04-25T06:52:11.113Z</time></trkpt><trkpt lat="40.9398433" lon="14.305175"><ele>34.0</ele><time>2026-04-25T06:52:12.113Z</time></trkpt><trkpt lat="40.9398017" lon="14.305255"><ele>34.0</ele><time>2026-04-25T06:52:13.113Z</time></trkpt><trkpt lat="40.9397333" lon="14.305355"><ele>34.0</ele><time>2026-04-25T06:52:15.113Z</time></trkpt><trkpt lat="40.9396517" lon="14.305475"><ele>34.0</ele><time>2026-04-25T06:52:17.113Z</time></trkpt><trkpt lat="40.9395983" lon="14.3055433"><ele>34.0</ele><time>2026-04-25T06:52:18.114Z</time></trkpt><trkpt lat="40.9395383" lon="14.3056183"><ele>33.833333333333336</ele><time>2026-04-25T06:52:19.113Z</time></trkpt><trkpt lat="40.9394733" lon="14.3056967"><ele>33.66666666666667</ele><time>2026-04-25T06:52:20.114Z</time></trkpt><trkpt lat="40.9394" lon="14.3057717"><ele>33.5</ele><time>2026-04-25T06:52:21.113Z</time></trkpt><trkpt lat="40.9393267" lon="14.3058517"><ele>33.333333333333336</ele><time>2026-04-25T06:52:22.113Z</time></trkpt><trkpt lat="40.93925" lon="14.3059167"><ele>33.166666666666664</ele><time>2026-04-25T06:52:23.113Z</time></trkpt><trkpt lat="40.9391817" lon="14.3059733"><ele>33.0</ele><time>2026-04-25T06:52:24.113Z</time></trkpt><trkpt lat="40.93909" lon="14.3060383"><ele>33.0</ele><time>2026-04-25T06:52:26.114Z</time></trkpt><trkpt lat="40.93903" lon="14.306095"><ele>33.0</ele><time>2026-04-25T06:52:28.113Z</time></trkpt><trkpt lat="40.9389683" lon="14.30616"><ele>33.0</ele><time>2026-04-25T06:52:30.113Z</time></trkpt><trkpt lat="40.9389367" lon="14.3062683"><ele>33.0</ele><time>2026-04-25T06:52:32.113Z</time></trkpt><trkpt lat="40.9389833" lon="14.306375"><ele>33.0</ele><time>2026-04-25T06:52:34.113Z</time></trkpt><trkpt lat="40.939045" lon="14.3065267"><ele>33.0</ele><time>2026-04-25T06:52:36.113Z</time></trkpt><trkpt lat="40.9390633" lon="14.3066267"><ele>33.0</ele><time>2026-04-25T06:52:37.113Z</time></trkpt><trkpt lat="40.939075" lon="14.306745"><ele>33.0</ele><time>2026-04-25T06:52:38.113Z</time></trkpt><trkpt lat="40.9390867" lon="14.3068683"><ele>33.0</ele><time>2026-04-25T06:52:39.113Z</time></trkpt><trkpt lat="40.9390967" lon="14.3069983"><ele>33.0</ele><time>2026-04-25T06:52:40.114Z</time></trkpt><trkpt lat="40.9391083" lon="14.3071333"><ele>33.199999999999996</ele><time>2026-04-25T06:52:41.113Z</time></trkpt><trkpt lat="40.9391167" lon="14.3072717"><ele>33.4</ele><time>2026-04-25T06:52:42.113Z</time></trkpt><trkpt lat="40.9391267" lon="14.3074083"><ele>33.599999999999994</ele><time>2026-04-25T06:52:43.113Z</time></trkpt><trkpt lat="40.9391333" lon="14.3075467"><ele>33.8</ele><time>2026-04-25T06:52:44.113Z</time></trkpt><trkpt lat="40.9391433" lon="14.3076767"><ele>34.0</ele><time>2026-04-25T06:52:45.113Z</time></trkpt><trkpt lat="40.9391433" lon="14.3077917"><ele>34.0</ele><time>2026-04-25T06:52:46.113Z</time></trkpt><trkpt lat="40.9391383" lon="14.3079083"><ele>34.0</ele><time>2026-04-25T06:52:47.113Z</time></trkpt><trkpt lat="40.939125" lon="14.3080283"><ele>34.0</ele><time>2026-04-25T06:52:48.113Z</time></trkpt><trkpt lat="40.939105" lon="14.308145"><ele>34.0</ele><time>2026-04-25T06:52:49.114Z</time></trkpt><trkpt lat="40.9390683" lon="14.3082483"><ele>34.0</ele><time>2026-04-25T06:52:50.114Z</time></trkpt><trkpt lat="40.93903" lon="14.308375"><ele>34.0</ele><time>2026-04-25T06:52:51.113Z</time></trkpt><trkpt lat="40.938965" lon="14.3085067"><ele>34.0</ele><time>2026-04-25T06:52:52.113Z</time></trkpt><trkpt lat="40.9389167" lon="14.3086567"><ele>34.0</ele><time>2026-04-25T06:52:53.113Z</time></trkpt><trkpt lat="40.9388633" lon="14.30881"><ele>34.0</ele><time>2026-04-25T06:52:54.113Z</time></trkpt><trkpt lat="40.9388083" lon="14.3089767"><ele>34.0</ele><time>2026-04-25T06:52:55.113Z</time></trkpt><trkpt lat="40.9387517" lon="14.3091433"><ele>34.0</ele><time>2026-04-25T06:52:56.113Z</time></trkpt><trkpt lat="40.9386967" lon="14.3093067"><ele>34.0</ele><time>2026-04-25T06:52:57.113Z</time></trkpt><trkpt lat="40.9386467" lon="14.3094683"><ele>34.0</ele><time>2026-04-25T06:52:58.113Z</time></trkpt><trkpt lat="40.9385967" lon="14.3096333"><ele>33.5</ele><time>2026-04-25T06:52:59.113Z</time></trkpt><trkpt lat="40.9385433" lon="14.3098033"><ele>33.0</ele><time>2026-04-25T06:53:00.113Z</time></trkpt><trkpt lat="40.938495" lon="14.30997"><ele>32.5</ele><time>2026-04-25T06:53:01.113Z</time></trkpt><trkpt lat="40.9384483" lon="14.3101267"><ele>32.0</ele><time>2026-04-25T06:53:02.113Z</time></trkpt><trkpt lat="40.9383983" lon="14.3102767"><ele>32.0</ele><time>2026-04-25T06:53:03.113Z</time></trkpt><trkpt lat="40.9383517" lon="14.3104283"><ele>32.0</ele><time>2026-04-25T06:53:04.113Z</time></trkpt><trkpt lat="40.9383117" lon="14.3105683"><ele>32.0</ele><time>2026-04-25T06:53:05.113Z</time></trkpt><trkpt lat="40.9382817" lon="14.31069"><ele>32.0</ele><time>2026-04-25T06:53:06.113Z</time></trkpt><trkpt lat="40.9382517" lon="14.3108"><ele>32.0</ele><time>2026-04-25T06:53:07.113Z</time></trkpt><trkpt lat="40.9382217" lon="14.3109117"><ele>31.999999999999996</ele><time>2026-04-25T06:53:08.113Z</time></trkpt><trkpt lat="40.93819" lon="14.3110183"><ele>32.0</ele><time>2026-04-25T06:53:09.113Z</time></trkpt><trkpt lat="40.9381533" lon="14.31112"><ele>32.0</ele><time>2026-04-25T06:53:10.113Z</time></trkpt><trkpt lat="40.93813" lon="14.31121"><ele>32.0</ele><time>2026-04-25T06:53:11.113Z</time></trkpt><trkpt lat="40.938105" lon="14.311295"><ele>31.999999999999996</ele><time>2026-04-25T06:53:12.113Z</time></trkpt><trkpt lat="40.9380833" lon="14.3113783"><ele>32.0</ele><time>2026-04-25T06:53:13.113Z</time></trkpt><trkpt lat="40.9380633" lon="14.3114683"><ele>31.400000000000002</ele><time>2026-04-25T06:53:14.113Z</time></trkpt><trkpt lat="40.938055" lon="14.311575"><ele>30.800000000000004</ele><time>2026-04-25T06:53:15.113Z</time></trkpt><trkpt lat="40.9380583" lon="14.3116917"><ele>30.2</ele><time>2026-04-25T06:53:16.114Z</time></trkpt><trkpt lat="40.9380733" lon="14.311815"><ele>29.6</ele><time>2026-04-25T06:53:17.113Z</time></trkpt><trkpt lat="40.9381033" lon="14.3119417"><ele>29.0</ele><time>2026-04-25T06:53:18.113Z</time></trkpt><trkpt lat="40.9381517" lon="14.312065"><ele>29.0</ele><time>2026-04-25T06:53:19.113Z</time></trkpt><trkpt lat="40.9382183" lon="14.312175"><ele>29.0</ele><time>2026-04-25T06:53:20.113Z</time></trkpt><trkpt lat="40.9383033" lon="14.3122783"><ele>29.0</ele><time>2026-04-25T06:53:21.113Z</time></trkpt><trkpt lat="40.9383933" lon="14.3123583"><ele>29.0</ele><time>2026-04-25T06:53:22.113Z</time></trkpt><trkpt lat="40.93849" lon="14.312425"><ele>29.0</ele><time>2026-04-25T06:53:23.114Z</time></trkpt><trkpt lat="40.9386017" lon="14.312485"><ele>30.0</ele><time>2026-04-25T06:53:24.113Z</time></trkpt><trkpt lat="40.9387117" lon="14.312545"><ele>31.0</ele><time>2026-04-25T06:53:25.113Z</time></trkpt><trkpt lat="40.9388183" lon="14.3126167"><ele>32.0</ele><time>2026-04-25T06:53:26.113Z</time></trkpt><trkpt lat="40.9389167" lon="14.3127117"><ele>33.0</ele><time>2026-04-25T06:53:27.113Z</time></trkpt><trkpt lat="40.939005" lon="14.3128217"><ele>33.0</ele><time>2026-04-25T06:53:28.113Z</time></trkpt><trkpt lat="40.9390817" lon="14.3129433"><ele>33.0</ele><time>2026-04-25T06:53:29.113Z</time></trkpt><trkpt lat="40.9391417" lon="14.3130667"><ele>33.0</ele><time>2026-04-25T06:53:30.113Z</time></trkpt><trkpt lat="40.9391933" lon="14.3131967"><ele>33.0</ele><time>2026-04-25T06:53:31.113Z</time></trkpt><trkpt lat="40.9392233" lon="14.313335"><ele>32.0</ele><time>2026-04-25T06:53:32.113Z</time></trkpt><trkpt lat="40.9392333" lon="14.31348"><ele>31.0</ele><time>2026-04-25T06:53:33.113Z</time></trkpt><trkpt lat="40.9392333" lon="14.3136367"><ele>30.0</ele><time>2026-04-25T06:53:34.113Z</time></trkpt><trkpt lat="40.9392367" lon="14.3138083"><ele>29.0</ele><time>2026-04-25T06:53:35.113Z</time></trkpt><trkpt lat="40.9392317" lon="14.3139933"><ele>28.666666666666664</ele><time>2026-04-25T06:53:36.113Z</time></trkpt><trkpt lat="40.9392283" lon="14.31419"><ele>28.333333333333336</ele><time>2026-04-25T06:53:37.114Z</time></trkpt><trkpt lat="40.9392283" lon="14.3143867"><ele>28.0</ele><time>2026-04-25T06:53:38.113Z</time></trkpt><trkpt lat="40.9392317" lon="14.3145883"><ele>27.666666666666668</ele><time>2026-04-25T06:53:39.114Z</time></trkpt><trkpt lat="40.9392367" lon="14.3148017"><ele>27.333333333333336</ele><time>2026-04-25T06:53:40.113Z</time></trkpt><trkpt lat="40.93924" lon="14.3150167"><ele>27.0</ele><time>2026-04-25T06:53:41.113Z</time></trkpt><trkpt lat="40.9392433" lon="14.3152333"><ele>27.0</ele><time>2026-04-25T06:53:42.114Z</time></trkpt><trkpt lat="40.9392417" lon="14.31546"><ele>27.0</ele><time>2026-04-25T06:53:43.113Z</time></trkpt><trkpt lat="40.9392417" lon="14.31569"><ele>27.0</ele><time>2026-04-25T06:53:44.113Z</time></trkpt><trkpt lat="40.9392367" lon="14.31592"><ele>26.666666666666664</ele><time>2026-04-25T06:53:45.113Z</time></trkpt><trkpt lat="40.939235" lon="14.3161617"><ele>26.333333333333332</ele><time>2026-04-25T06:53:46.113Z</time></trkpt><trkpt lat="40.939235" lon="14.3164017"><ele>26.0</ele><time>2026-04-25T06:53:47.113Z</time></trkpt><trkpt lat="40.9392383" lon="14.31665"><ele>26.666666666666664</ele><time>2026-04-25T06:53:48.113Z</time></trkpt><trkpt lat="40.93924" lon="14.3169017"><ele>27.333333333333336</ele><time>2026-04-25T06:53:49.113Z</time></trkpt><trkpt lat="40.9392383" lon="14.3171533"><ele>28.0</ele><time>2026-04-25T06:53:50.113Z</time></trkpt><trkpt lat="40.9392383" lon="14.3174117"><ele>28.0</ele><time>2026-04-25T06:53:51.113Z</time></trkpt><trkpt lat="40.93924" lon="14.317665"><ele>28.0</ele><time>2026-04-25T06:53:52.114Z</time></trkpt><trkpt lat="40.9392383" lon="14.3179267"><ele>28.0</ele><time>2026-04-25T06:53:53.113Z</time></trkpt><trkpt lat="40.9392383" lon="14.318195"><ele>27.666666666666668</ele><time>2026-04-25T06:53:54.113Z</time></trkpt><trkpt lat="40.9392367" lon="14.3184717"><ele>27.333333333333336</ele><time>2026-04-25T06:53:55.113Z</time></trkpt><trkpt lat="40.9392433" lon="14.3187533"><ele>27.0</ele><time>2026-04-25T06:53:56.113Z</time></trkpt><trkpt lat="40.93924" lon="14.319035"><ele>26.666666666666664</ele><time>2026-04-25T06:53:57.113Z</time></trkpt><trkpt lat="40.9392317" lon="14.3193183"><ele>26.333333333333332</ele><time>2026-04-25T06:53:58.113Z</time></trkpt><trkpt lat="40.93922" lon="14.3196083"><ele>26.0</ele><time>2026-04-25T06:53:59.113Z</time></trkpt><trkpt lat="40.9392017" lon="14.3199017"><ele>26.666666666666664</ele><time>2026-04-25T06:54:00.113Z</time></trkpt><trkpt lat="40.9391817" lon="14.320195"><ele>27.333333333333336</ele><time>2026-04-25T06:54:01.113Z</time></trkpt><trkpt lat="40.9391567" lon="14.3204883"><ele>28.0</ele><time>2026-04-25T06:54:02.113Z</time></trkpt><trkpt lat="40.93913" lon="14.32077"><ele>28.0</ele><time>2026-04-25T06:54:03.113Z</time></trkpt><trkpt lat="40.9391017" lon="14.3210533"><ele>28.0</ele><time>2026-04-25T06:54:04.113Z</time></trkpt><trkpt lat="40.9390683" lon="14.3213383"><ele>28.0</ele><time>2026-04-25T06:54:05.113Z</time></trkpt><trkpt lat="40.9390383" lon="14.321625"><ele>28.0</ele><time>2026-04-25T06:54:06.113Z</time></trkpt><trkpt lat="40.9390067" lon="14.32191"><ele>28.0</ele><time>2026-04-25T06:54:07.113Z</time></trkpt><trkpt lat="40.938975" lon="14.3221917"><ele>28.0</ele><time>2026-04-25T06:54:08.113Z</time></trkpt><trkpt lat="40.9389383" lon="14.3224817"><ele>28.0</ele><time>2026-04-25T06:54:09.113Z</time></trkpt><trkpt lat="40.9388983" lon="14.3227717"><ele>28.0</ele><time>2026-04-25T06:54:10.113Z</time></trkpt><trkpt lat="40.9388583" lon="14.32306"><ele>28.0</ele><time>2026-04-25T06:54:11.113Z</time></trkpt><trkpt lat="40.9388117" lon="14.3233483"><ele>28.333333333333336</ele><time>2026-04-25T06:54:12.113Z</time></trkpt><trkpt lat="40.9387633" lon="14.3236417"><ele>28.666666666666664</ele><time>2026-04-25T06:54:13.113Z</time></trkpt><trkpt lat="40.9387233" lon="14.323925"><ele>29.0</ele><time>2026-04-25T06:54:14.113Z</time></trkpt><trkpt lat="40.9386783" lon="14.3242167"><ele>29.0</ele><time>2026-04-25T06:54:15.113Z</time></trkpt><trkpt lat="40.938635" lon="14.3245067"><ele>29.0</ele><time>2026-04-25T06:54:16.113Z</time></trkpt><trkpt lat="40.9385917" lon="14.3247867"><ele>29.0</ele><time>2026-04-25T06:54:17.113Z</time></trkpt><trkpt lat="40.9385417" lon="14.3250583"><ele>28.0</ele><time>2026-04-25T06:54:18.114Z</time></trkpt><trkpt lat="40.938495" lon="14.32531"><ele>27.0</ele><time>2026-04-25T06:54:19.113Z</time></trkpt><trkpt lat="40.9384567" lon="14.3255467"><ele>26.0</ele><time>2026-04-25T06:54:20.113Z</time></trkpt><trkpt lat="40.9384217" lon="14.325775"><ele>26.0</ele><time>2026-04-25T06:54:21.113Z</time></trkpt><trkpt lat="40.93839" lon="14.326"><ele>26.0</ele><time>2026-04-25T06:54:22.113Z</time></trkpt><trkpt lat="40.9383567" lon="14.3262283"><ele>26.0</ele><time>2026-04-25T06:54:23.113Z</time></trkpt><trkpt lat="40.93832" lon="14.3264533"><ele>26.25</ele><time>2026-04-25T06:54:24.113Z</time></trkpt><trkpt lat="40.938285" lon="14.32665"><ele>26.5</ele><time>2026-04-25T06:54:25.113Z</time></trkpt><trkpt lat="40.9382517" lon="14.3267983"><ele>26.75</ele><time>2026-04-25T06:54:26.113Z</time></trkpt><trkpt lat="40.9382083" lon="14.32692"><ele>27.0</ele><time>2026-04-25T06:54:27.113Z</time></trkpt><trkpt lat="40.93815" lon="14.3270233"><ele>27.0</ele><time>2026-04-25T06:54:28.113Z</time></trkpt><trkpt lat="40.9380783" lon="14.32713"><ele>27.0</ele><time>2026-04-25T06:54:29.113Z</time></trkpt><trkpt lat="40.9379933" lon="14.3272233"><ele>27.0</ele><time>2026-04-25T06:54:30.114Z</time></trkpt><trkpt lat="40.9378933" lon="14.3273033"><ele>27.0</ele><time>2026-04-25T06:54:31.113Z</time></trkpt><trkpt lat="40.9377833" lon="14.3273717"><ele>27.25</ele><time>2026-04-25T06:54:32.113Z</time></trkpt><trkpt lat="40.9376633" lon="14.3274183"><ele>27.5</ele><time>2026-04-25T06:54:33.113Z</time></trkpt><trkpt lat="40.9375383" lon="14.3274367"><ele>27.75</ele><time>2026-04-25T06:54:34.113Z</time></trkpt><trkpt lat="40.93742" lon="14.3274317"><ele>28.0</ele><time>2026-04-25T06:54:35.113Z</time></trkpt><trkpt lat="40.93731" lon="14.3274033"><ele>27.5</ele><time>2026-04-25T06:54:36.113Z</time></trkpt><trkpt lat="40.9371983" lon="14.3273567"><ele>27.0</ele><time>2026-04-25T06:54:37.114Z</time></trkpt><trkpt lat="40.9371033" lon="14.3272867"><ele>26.5</ele><time>2026-04-25T06:54:38.114Z</time></trkpt><trkpt lat="40.9370117" lon="14.3272017"><ele>26.0</ele><time>2026-04-25T06:54:39.114Z</time></trkpt><trkpt lat="40.936925" lon="14.3271067"><ele>26.0</ele><time>2026-04-25T06:54:40.114Z</time></trkpt><trkpt lat="40.9368483" lon="14.3269933"><ele>26.0</ele><time>2026-04-25T06:54:41.114Z</time></trkpt><trkpt lat="40.9367933" lon="14.32687"><ele>26.0</ele><time>2026-04-25T06:54:42.114Z</time></trkpt><trkpt lat="40.9367467" lon="14.3267417"><ele>26.0</ele><time>2026-04-25T06:54:43.114Z</time></trkpt><trkpt lat="40.93671" lon="14.3266033"><ele>26.0</ele><time>2026-04-25T06:54:44.115Z</time></trkpt><trkpt lat="40.9366933" lon="14.326465"><ele>25.75</ele><time>2026-04-25T06:54:45.115Z</time></trkpt><trkpt lat="40.936695" lon="14.3263167"><ele>25.5</ele><time>2026-04-25T06:54:46.114Z</time></trkpt><trkpt lat="40.936705" lon="14.3261617"><ele>25.25</ele><time>2026-04-25T06:54:47.114Z</time></trkpt><trkpt lat="40.93673" lon="14.3260117"><ele>25.0</ele><time>2026-04-25T06:54:48.114Z</time></trkpt><trkpt lat="40.9367683" lon="14.3258717"><ele>25.0</ele><time>2026-04-25T06:54:49.114Z</time></trkpt><trkpt lat="40.9368233" lon="14.3257417"><ele>25.0</ele><time>2026-04-25T06:54:50.114Z</time></trkpt><trkpt lat="40.9368867" lon="14.3256183"><ele>25.0</ele><time>2026-04-25T06:54:51.114Z</time></trkpt><trkpt lat="40.936955" lon="14.3255183"><ele>25.0</ele><time>2026-04-25T06:54:52.114Z</time></trkpt><trkpt lat="40.9370333" lon="14.3254383"><ele>25.0</ele><time>2026-04-25T06:54:53.114Z</time></trkpt><trkpt lat="40.93711" lon="14.3253767"><ele>25.0</ele><time>2026-04-25T06:54:54.115Z</time></trkpt><trkpt lat="40.937185" lon="14.3253317"><ele>25.0</ele><time>2026-04-25T06:54:55.114Z</time></trkpt><trkpt lat="40.9372683" lon="14.3252867"><ele>25.0</ele><time>2026-04-25T06:54:56.114Z</time></trkpt><trkpt lat="40.937355" lon="14.3252533"><ele>25.0</ele><time>2026-04-25T06:54:57.114Z</time></trkpt><trkpt lat="40.93745" lon="14.3252317"><ele>25.0</ele><time>2026-04-25T06:54:58.114Z</time></trkpt><trkpt lat="40.9375533" lon="14.325225"><ele>25.75</ele><time>2026-04-25T06:54:59.115Z</time></trkpt><trkpt lat="40.9376633" lon="14.325235"><ele>26.5</ele><time>2026-04-25T06:55:00.114Z</time></trkpt><trkpt lat="40.9377817" lon="14.3252483"><ele>27.25</ele><time>2026-04-25T06:55:01.114Z</time></trkpt><trkpt lat="40.9379133" lon="14.3252683"><ele>28.0</ele><time>2026-04-25T06:55:02.114Z</time></trkpt><trkpt lat="40.9380483" lon="14.3252917"><ele>28.0</ele><time>2026-04-25T06:55:03.114Z</time></trkpt><trkpt lat="40.9381917" lon="14.32531"><ele>28.0</ele><time>2026-04-25T06:55:04.114Z</time></trkpt><trkpt lat="40.9383433" lon="14.325335"><ele>28.0</ele><time>2026-04-25T06:55:05.114Z</time></trkpt><trkpt lat="40.9384967" lon="14.325355"><ele>27.333333333333336</ele><time>2026-04-25T06:55:06.115Z</time></trkpt><trkpt lat="40.9386567" lon="14.3253683"><ele>26.666666666666664</ele><time>2026-04-25T06:55:07.114Z</time></trkpt><trkpt lat="40.9388267" lon="14.325395"><ele>26.0</ele><time>2026-04-25T06:55:08.114Z</time></trkpt><trkpt lat="40.9389783" lon="14.3254283"><ele>26.0</ele><time>2026-04-25T06:55:09.114Z</time></trkpt><trkpt lat="40.93913" lon="14.3254567"><ele>26.0</ele><time>2026-04-25T06:55:10.114Z</time></trkpt><trkpt lat="40.9392683" lon="14.3254783"><ele>26.0</ele><time>2026-04-25T06:55:11.115Z</time></trkpt><trkpt lat="40.9394033" lon="14.325505"><ele>26.0</ele><time>2026-04-25T06:55:12.114Z</time></trkpt><trkpt lat="40.9395233" lon="14.3255383"><ele>25.75</ele><time>2026-04-25T06:55:13.114Z</time></trkpt><trkpt lat="40.9396267" lon="14.325595"><ele>25.5</ele><time>2026-04-25T06:55:14.114Z</time></trkpt><trkpt lat="40.93973" lon="14.325675"><ele>25.25</ele><time>2026-04-25T06:55:15.114Z</time></trkpt><trkpt lat="40.939825" lon="14.325775"><ele>25.0</ele><time>2026-04-25T06:55:16.114Z</time></trkpt><trkpt lat="40.93991" lon="14.3258983"><ele>25.0</ele><time>2026-04-25T06:55:17.114Z</time></trkpt><trkpt lat="40.9399767" lon="14.3260367"><ele>25.0</ele><time>2026-04-25T06:55:18.114Z</time></trkpt><trkpt lat="40.94002" lon="14.3261917"><ele>25.0</ele><time>2026-04-25T06:55:19.114Z</time></trkpt><trkpt lat="40.9400367" lon="14.3263567"><ele>25.0</ele><time>2026-04-25T06:55:20.114Z</time></trkpt><trkpt lat="40.940035" lon="14.32653"><ele>25.25</ele><time>2026-04-25T06:55:21.114Z</time></trkpt><trkpt lat="40.94002" lon="14.3267017"><ele>25.5</ele><time>2026-04-25T06:55:22.114Z</time></trkpt><trkpt lat="40.9399817" lon="14.3268667"><ele>25.75</ele><time>2026-04-25T06:55:23.114Z</time></trkpt><trkpt lat="40.9399267" lon="14.3270217"><ele>26.0</ele><time>2026-04-25T06:55:24.114Z</time></trkpt><trkpt lat="40.93985" lon="14.3271717"><ele>25.75</ele><time>2026-04-25T06:55:25.114Z</time></trkpt><trkpt lat="40.93976" lon="14.3273017"><ele>25.5</ele><time>2026-04-25T06:55:26.114Z</time></trkpt><trkpt lat="40.939655" lon="14.3274117"><ele>25.25</ele><time>2026-04-25T06:55:27.114Z</time></trkpt><trkpt lat="40.9395417" lon="14.3274983"><ele>25.0</ele><time>2026-04-25T06:55:28.114Z</time></trkpt><trkpt lat="40.9394233" lon="14.3275533"><ele>25.0</ele><time>2026-04-25T06:55:29.114Z</time></trkpt><trkpt lat="40.9392983" lon="14.3275883"><ele>25.0</ele><time>2026-04-25T06:55:30.114Z</time></trkpt><trkpt lat="40.9391733" lon="14.3275983"><ele>25.0</ele><time>2026-04-25T06:55:31.114Z</time></trkpt><trkpt lat="40.9390483" lon="14.327585"><ele>25.0</ele><time>2026-04-25T06:55:32.114Z</time></trkpt><trkpt lat="40.9389267" lon="14.3275483"><ele>25.0</ele><time>2026-04-25T06:55:33.114Z</time></trkpt><trkpt lat="40.9388083" lon="14.3274883"><ele>25.0</ele><time>2026-04-25T06:55:34.114Z</time></trkpt><trkpt lat="40.9386967" lon="14.3273983"><ele>25.0</ele><time>2026-04-25T06:55:35.114Z</time></trkpt><trkpt lat="40.93861" lon="14.327285"><ele>25.0</ele><time>2026-04-25T06:55:36.114Z</time></trkpt><trkpt lat="40.9385383" lon="14.3271483"><ele>24.75</ele><time>2026-04-25T06:55:37.114Z</time></trkpt><trkpt lat="40.9384917" lon="14.326995"><ele>24.5</ele><time>2026-04-25T06:55:38.114Z</time></trkpt><trkpt lat="40.9384667" lon="14.3268283"><ele>24.25</ele><time>2026-04-25T06:55:39.114Z</time></trkpt><trkpt lat="40.93846" lon="14.32665"><ele>24.0</ele><time>2026-04-25T06:55:40.114Z</time></trkpt><trkpt lat="40.9384733" lon="14.32648"><ele>24.5</ele><time>2026-04-25T06:55:41.114Z</time></trkpt><trkpt lat="40.938505" lon="14.3262983"><ele>25.0</ele><time>2026-04-25T06:55:42.114Z</time></trkpt><trkpt lat="40.9385383" lon="14.3261133"><ele>25.5</ele><time>2026-04-25T06:55:43.115Z</time></trkpt><trkpt lat="40.9385717" lon="14.325915"><ele>26.0</ele><time>2026-04-25T06:55:44.114Z</time></trkpt><trkpt lat="40.9386067" lon="14.3257117"><ele>26.0</ele><time>2026-04-25T06:55:45.114Z</time></trkpt><trkpt lat="40.9386417" lon="14.3255017"><ele>26.0</ele><time>2026-04-25T06:55:46.114Z</time></trkpt><trkpt lat="40.9386783" lon="14.3252883"><ele>26.0</ele><time>2026-04-25T06:55:47.114Z</time></trkpt><trkpt lat="40.9387117" lon="14.32507"><ele>26.0</ele><time>2026-04-25T06:55:48.114Z</time></trkpt><trkpt lat="40.938745" lon="14.3248533"><ele>26.0</ele><time>2026-04-25T06:55:49.114Z</time></trkpt><trkpt lat="40.9387767" lon="14.3246417"><ele>26.0</ele><time>2026-04-25T06:55:50.114Z</time></trkpt><trkpt lat="40.9388033" lon="14.3244433"><ele>26.75</ele><time>2026-04-25T06:55:51.114Z</time></trkpt><trkpt lat="40.9388383" lon="14.32426"><ele>27.5</ele><time>2026-04-25T06:55:52.114Z</time></trkpt><trkpt lat="40.9388683" lon="14.3240883"><ele>28.25</ele><time>2026-04-25T06:55:53.114Z</time></trkpt><trkpt lat="40.938895" lon="14.3239083"><ele>29.0</ele><time>2026-04-25T06:55:54.114Z</time></trkpt><trkpt lat="40.9389267" lon="14.32372"><ele>29.333333333333332</ele><time>2026-04-25T06:55:55.114Z</time></trkpt><trkpt lat="40.93895" lon="14.3235317"><ele>29.666666666666664</ele><time>2026-04-25T06:55:56.114Z</time></trkpt><trkpt lat="40.9389733" lon="14.32333"><ele>30.0</ele><time>2026-04-25T06:55:57.114Z</time></trkpt><trkpt lat="40.9390017" lon="14.323115"><ele>29.333333333333336</ele><time>2026-04-25T06:55:58.114Z</time></trkpt><trkpt lat="40.9390217" lon="14.322905"><ele>28.666666666666668</ele><time>2026-04-25T06:55:59.114Z</time></trkpt><trkpt lat="40.93905" lon="14.3226833"><ele>28.0</ele><time>2026-04-25T06:56:00.114Z</time></trkpt><trkpt lat="40.9390783" lon="14.32245"><ele>27.666666666666668</ele><time>2026-04-25T06:56:01.114Z</time></trkpt><trkpt lat="40.9391117" lon="14.3222083"><ele>27.333333333333336</ele><time>2026-04-25T06:56:02.114Z</time></trkpt><trkpt lat="40.9391417" lon="14.3219717"><ele>27.0</ele><time>2026-04-25T06:56:03.115Z</time></trkpt><trkpt lat="40.9391733" lon="14.3217317"><ele>27.0</ele><time>2026-04-25T06:56:04.115Z</time></trkpt><trkpt lat="40.9392033" lon="14.321485"><ele>27.0</ele><time>2026-04-25T06:56:05.114Z</time></trkpt><trkpt lat="40.9392267" lon="14.3212433"><ele>27.0</ele><time>2026-04-25T06:56:06.114Z</time></trkpt><trkpt lat="40.9392383" lon="14.3209883"><ele>26.666666666666664</ele><time>2026-04-25T06:56:07.115Z</time></trkpt><trkpt lat="40.9392567" lon="14.3207417"><ele>26.333333333333332</ele><time>2026-04-25T06:56:08.114Z</time></trkpt><trkpt lat="40.939275" lon="14.320495"><ele>26.0</ele><time>2026-04-25T06:56:09.114Z</time></trkpt><trkpt lat="40.9392917" lon="14.3202517"><ele>26.0</ele><time>2026-04-25T06:56:10.114Z</time></trkpt><trkpt lat="40.93931" lon="14.3200033"><ele>26.0</ele><time>2026-04-25T06:56:11.114Z</time></trkpt><trkpt lat="40.9393233" lon="14.31976"><ele>26.0</ele><time>2026-04-25T06:56:12.114Z</time></trkpt><trkpt lat="40.9393383" lon="14.31951"><ele>26.0</ele><time>2026-04-25T06:56:13.114Z</time></trkpt><trkpt lat="40.9393483" lon="14.31926"><ele>26.0</ele><time>2026-04-25T06:56:14.114Z</time></trkpt><trkpt lat="40.939355" lon="14.319015"><ele>26.0</ele><time>2026-04-25T06:56:15.114Z</time></trkpt><trkpt lat="40.939355" lon="14.3187717"><ele>26.333333333333332</ele><time>2026-04-25T06:56:16.114Z</time></trkpt><trkpt lat="40.9393533" lon="14.3185217"><ele>26.666666666666664</ele><time>2026-04-25T06:56:17.114Z</time></trkpt><trkpt lat="40.93935" lon="14.3182717"><ele>27.0</ele><time>2026-04-25T06:56:18.114Z</time></trkpt><trkpt lat="40.9393533" lon="14.3180217"><ele>27.333333333333336</ele><time>2026-04-25T06:56:19.114Z</time></trkpt><trkpt lat="40.9393583" lon="14.3177767"><ele>27.666666666666668</ele><time>2026-04-25T06:56:20.114Z</time></trkpt><trkpt lat="40.9393617" lon="14.3175333"><ele>28.0</ele><time>2026-04-25T06:56:21.114Z</time></trkpt><trkpt lat="40.9393617" lon="14.3172833"><ele>28.333333333333336</ele><time>2026-04-25T06:56:22.114Z</time></trkpt><trkpt lat="40.9393567" lon="14.3170233"><ele>28.666666666666664</ele><time>2026-04-25T06:56:23.114Z</time></trkpt><trkpt lat="40.9393567" lon="14.316775"><ele>29.0</ele><time>2026-04-25T06:56:24.115Z</time></trkpt><trkpt lat="40.9393617" lon="14.3165233"><ele>28.0</ele><time>2026-04-25T06:56:25.114Z</time></trkpt><trkpt lat="40.93936" lon="14.3162717"><ele>27.0</ele><time>2026-04-25T06:56:26.114Z</time></trkpt><trkpt lat="40.9393633" lon="14.3160217"><ele>26.0</ele><time>2026-04-25T06:56:27.114Z</time></trkpt><trkpt lat="40.9393667" lon="14.31578"><ele>26.333333333333332</ele><time>2026-04-25T06:56:28.114Z</time></trkpt><trkpt lat="40.93937" lon="14.3155433"><ele>26.666666666666664</ele><time>2026-04-25T06:56:29.114Z</time></trkpt><trkpt lat="40.93938" lon="14.31532"><ele>27.0</ele><time>2026-04-25T06:56:30.114Z</time></trkpt><trkpt lat="40.9393817" lon="14.3151017"><ele>27.0</ele><time>2026-04-25T06:56:31.114Z</time></trkpt><trkpt lat="40.9393883" lon="14.3148933"><ele>27.0</ele><time>2026-04-25T06:56:32.114Z</time></trkpt><trkpt lat="40.939395" lon="14.314695"><ele>27.0</ele><time>2026-04-25T06:56:33.114Z</time></trkpt><trkpt lat="40.939395" lon="14.3145017"><ele>27.25</ele><time>2026-04-25T06:56:34.114Z</time></trkpt><trkpt lat="40.9393933" lon="14.3143067"><ele>27.5</ele><time>2026-04-25T06:56:35.114Z</time></trkpt><trkpt lat="40.939395" lon="14.314125"><ele>27.75</ele><time>2026-04-25T06:56:36.115Z</time></trkpt><trkpt lat="40.9394" lon="14.31396"><ele>28.0</ele><time>2026-04-25T06:56:37.114Z</time></trkpt><trkpt lat="40.9394083" lon="14.3138033"><ele>28.25</ele><time>2026-04-25T06:56:38.114Z</time></trkpt><trkpt lat="40.93943" lon="14.313635"><ele>28.5</ele><time>2026-04-25T06:56:39.115Z</time></trkpt><trkpt lat="40.9394583" lon="14.313475"><ele>28.75</ele><time>2026-04-25T06:56:40.115Z</time></trkpt><trkpt lat="40.9394983" lon="14.31332"><ele>29.0</ele><time>2026-04-25T06:56:41.114Z</time></trkpt><trkpt lat="40.9395517" lon="14.31317"><ele>30.0</ele><time>2026-04-25T06:56:42.114Z</time></trkpt><trkpt lat="40.9396283" lon="14.3130317"><ele>31.0</ele><time>2026-04-25T06:56:43.114Z</time></trkpt><trkpt lat="40.9397233" lon="14.3129183"><ele>32.0</ele><time>2026-04-25T06:56:44.114Z</time></trkpt><trkpt lat="40.9398367" lon="14.312815"><ele>33.0</ele><time>2026-04-25T06:56:45.114Z</time></trkpt><trkpt lat="40.9399483" lon="14.3127317"><ele>32.25</ele><time>2026-04-25T06:56:46.114Z</time></trkpt><trkpt lat="40.94006" lon="14.3126417"><ele>31.5</ele><time>2026-04-25T06:56:47.114Z</time></trkpt><trkpt lat="40.9401767" lon="14.3125533"><ele>30.75</ele><time>2026-04-25T06:56:48.114Z</time></trkpt><trkpt lat="40.9402717" lon="14.3124583"><ele>30.0</ele><time>2026-04-25T06:56:49.114Z</time></trkpt><trkpt lat="40.9403517" lon="14.31235"><ele>29.75</ele><time>2026-04-25T06:56:50.114Z</time></trkpt><trkpt lat="40.9404133" lon="14.3122283"><ele>29.5</ele><time>2026-04-25T06:56:51.114Z</time></trkpt><trkpt lat="40.9404517" lon="14.3121"><ele>29.25</ele><time>2026-04-25T06:56:52.114Z</time></trkpt><trkpt lat="40.9404783" lon="14.311945"><ele>29.0</ele><time>2026-04-25T06:56:53.114Z</time></trkpt><trkpt lat="40.94048" lon="14.3117883"><ele>29.0</ele><time>2026-04-25T06:56:54.114Z</time></trkpt><trkpt lat="40.940455" lon="14.3116333"><ele>29.0</ele><time>2026-04-25T06:56:55.114Z</time></trkpt><trkpt lat="40.9404117" lon="14.3114833"><ele>29.0</ele><time>2026-04-25T06:56:56.114Z</time></trkpt><trkpt lat="40.940355" lon="14.3113183"><ele>29.0</ele><time>2026-04-25T06:56:57.114Z</time></trkpt><trkpt lat="40.9402883" lon="14.31114"><ele>28.666666666666664</ele><time>2026-04-25T06:56:58.114Z</time></trkpt><trkpt lat="40.9402267" lon="14.3109567"><ele>28.333333333333336</ele><time>2026-04-25T06:56:59.114Z</time></trkpt><trkpt lat="40.9401617" lon="14.3107733"><ele>28.0</ele><time>2026-04-25T06:57:00.114Z</time></trkpt><trkpt lat="40.9400967" lon="14.3105867"><ele>28.5</ele><time>2026-04-25T06:57:01.114Z</time></trkpt><trkpt lat="40.9400317" lon="14.3104033"><ele>29.0</ele><time>2026-04-25T06:57:02.114Z</time></trkpt><trkpt lat="40.9399733" lon="14.3102267"><ele>29.5</ele><time>2026-04-25T06:57:03.114Z</time></trkpt><trkpt lat="40.939915" lon="14.3100567"><ele>30.0</ele><time>2026-04-25T06:57:04.114Z</time></trkpt><trkpt lat="40.9398533" lon="14.3098883"><ele>30.5</ele><time>2026-04-25T06:57:05.114Z</time></trkpt><trkpt lat="40.9397917" lon="14.3097317"><ele>31.0</ele><time>2026-04-25T06:57:06.114Z</time></trkpt><trkpt lat="40.93973" lon="14.309575"><ele>31.5</ele><time>2026-04-25T06:57:07.114Z</time></trkpt><trkpt lat="40.9396667" lon="14.3094367"><ele>32.0</ele><time>2026-04-25T06:57:08.114Z</time></trkpt><trkpt lat="40.939595" lon="14.3093217"><ele>32.0</ele><time>2026-04-25T06:57:09.114Z</time></trkpt><trkpt lat="40.93952" lon="14.3092367"><ele>32.0</ele><time>2026-04-25T06:57:10.114Z</time></trkpt><trkpt lat="40.9394283" lon="14.30916"><ele>32.0</ele><time>2026-04-25T06:57:11.114Z</time></trkpt><trkpt lat="40.93934" lon="14.3091033"><ele>32.0</ele><time>2026-04-25T06:57:12.114Z</time></trkpt><trkpt lat="40.93925" lon="14.3090683"><ele>32.0</ele><time>2026-04-25T06:57:13.114Z</time></trkpt><trkpt lat="40.93915" lon="14.3090633"><ele>32.4</ele><time>2026-04-25T06:57:14.114Z</time></trkpt><trkpt lat="40.9390233" lon="14.3090917"><ele>32.800000000000004</ele><time>2026-04-25T06:57:15.114Z</time></trkpt><trkpt lat="40.938925" lon="14.30914"><ele>33.2</ele><time>2026-04-25T06:57:16.115Z</time></trkpt><trkpt lat="40.93884" lon="14.309215"><ele>33.6</ele><time>2026-04-25T06:57:17.114Z</time></trkpt><trkpt lat="40.9387717" lon="14.30932"><ele>34.0</ele><time>2026-04-25T06:57:18.114Z</time></trkpt><trkpt lat="40.9387133" lon="14.3094383"><ele>34.0</ele><time>2026-04-25T06:57:19.114Z</time></trkpt><trkpt lat="40.93867" lon="14.3095617"><ele>34.0</ele><time>2026-04-25T06:57:20.114Z</time></trkpt><trkpt lat="40.9386333" lon="14.309695"><ele>34.0</ele><time>2026-04-25T06:57:21.114Z</time></trkpt><trkpt lat="40.9385883" lon="14.30984"><ele>34.0</ele><time>2026-04-25T06:57:22.114Z</time></trkpt><trkpt lat="40.9385383" lon="14.309995"><ele>33.5</ele><time>2026-04-25T06:57:23.114Z</time></trkpt><trkpt lat="40.9384833" lon="14.31016"><ele>33.0</ele><time>2026-04-25T06:57:24.114Z</time></trkpt><trkpt lat="40.93842" lon="14.3103383"><ele>32.5</ele><time>2026-04-25T06:57:25.114Z</time></trkpt><trkpt lat="40.9383567" lon="14.3105233"><ele>32.0</ele><time>2026-04-25T06:57:26.114Z</time></trkpt><trkpt lat="40.9382983" lon="14.310715"><ele>32.0</ele><time>2026-04-25T06:57:27.114Z</time></trkpt><trkpt lat="40.938245" lon="14.3109117"><ele>32.0</ele><time>2026-04-25T06:57:28.114Z</time></trkpt><trkpt lat="40.938185" lon="14.3111033"><ele>32.0</ele><time>2026-04-25T06:57:29.114Z</time></trkpt><trkpt lat="40.9381333" lon="14.3112817"><ele>31.25</ele><time>2026-04-25T06:57:30.114Z</time></trkpt><trkpt lat="40.93809" lon="14.3114467"><ele>30.5</ele><time>2026-04-25T06:57:31.114Z</time></trkpt><trkpt lat="40.9380717" lon="14.3116"><ele>29.75</ele><time>2026-04-25T06:57:32.114Z</time></trkpt><trkpt lat="40.9380767" lon="14.3117533"><ele>29.0</ele><time>2026-04-25T06:57:33.114Z</time></trkpt><trkpt lat="40.9380983" lon="14.3119133"><ele>29.0</ele><time>2026-04-25T06:57:34.114Z</time></trkpt><trkpt lat="40.9381417" lon="14.3120567"><ele>29.0</ele><time>2026-04-25T06:57:35.114Z</time></trkpt><trkpt lat="40.9382067" lon="14.3121833"><ele>29.0</ele><time>2026-04-25T06:57:36.114Z</time></trkpt><trkpt lat="40.9382917" lon="14.3122917"><ele>29.0</ele><time>2026-04-25T06:57:37.114Z</time></trkpt><trkpt lat="40.9383867" lon="14.3123783"><ele>30.0</ele><time>2026-04-25T06:57:38.114Z</time></trkpt><trkpt lat="40.9384983" lon="14.3124467"><ele>31.0</ele><time>2026-04-25T06:57:39.114Z</time></trkpt><trkpt lat="40.9386133" lon="14.3125017"><ele>32.0</ele><time>2026-04-25T06:57:40.114Z</time></trkpt><trkpt lat="40.9387233" lon="14.3125567"><ele>33.0</ele><time>2026-04-25T06:57:41.114Z</time></trkpt><trkpt lat="40.9388217" lon="14.312625"><ele>33.0</ele><time>2026-04-25T06:57:42.114Z</time></trkpt><trkpt lat="40.9389167" lon="14.3127083"><ele>33.0</ele><time>2026-04-25T06:57:43.114Z</time></trkpt><trkpt lat="40.9389983" lon="14.3128133"><ele>33.0</ele><time>2026-04-25T06:57:44.114Z</time></trkpt><trkpt lat="40.9390717" lon="14.3129283"><ele>33.0</ele><time>2026-04-25T06:57:45.114Z</time></trkpt><trkpt lat="40.9391333" lon="14.3130533"><ele>33.0</ele><time>2026-04-25T06:57:46.114Z</time></trkpt><trkpt lat="40.93918" lon="14.3131833"><ele>33.0</ele><time>2026-04-25T06:57:47.114Z</time></trkpt><trkpt lat="40.9392133" lon="14.313325"><ele>33.0</ele><time>2026-04-25T06:57:48.114Z</time></trkpt><trkpt lat="40.9392283" lon="14.3134683"><ele>33.0</ele><time>2026-04-25T06:57:49.115Z</time></trkpt><trkpt lat="40.9392283" lon="14.3136233"><ele>33.0</ele><time>2026-04-25T06:57:50.114Z</time></trkpt><trkpt lat="40.93923" lon="14.3137867"><ele>31.75</ele><time>2026-04-25T06:57:51.114Z</time></trkpt><trkpt lat="40.9392283" lon="14.3139683"><ele>30.5</ele><time>2026-04-25T06:57:52.114Z</time></trkpt><trkpt lat="40.9392317" lon="14.3141617"><ele>29.25</ele><time>2026-04-25T06:57:53.114Z</time></trkpt><trkpt lat="40.9392333" lon="14.3143617"><ele>28.0</ele><time>2026-04-25T06:57:54.114Z</time></trkpt><trkpt lat="40.9392367" lon="14.3145717"><ele>27.666666666666668</ele><time>2026-04-25T06:57:55.115Z</time></trkpt><trkpt lat="40.93924" lon="14.3147867"><ele>27.333333333333336</ele><time>2026-04-25T06:57:56.114Z</time></trkpt><trkpt lat="40.9392433" lon="14.3150117"><ele>27.0</ele><time>2026-04-25T06:57:57.114Z</time></trkpt><trkpt lat="40.9392417" lon="14.3152367"><ele>27.0</ele><time>2026-04-25T06:57:58.115Z</time></trkpt><trkpt lat="40.939245" lon="14.3154717"><ele>27.0</ele><time>2026-04-25T06:57:59.114Z</time></trkpt><trkpt lat="40.939245" lon="14.3157083"><ele>27.0</ele><time>2026-04-25T06:58:00.114Z</time></trkpt><trkpt lat="40.9392417" lon="14.3159567"><ele>26.666666666666664</ele><time>2026-04-25T06:58:01.114Z</time></trkpt><trkpt lat="40.9392417" lon="14.3161933"><ele>26.333333333333332</ele><time>2026-04-25T06:58:02.114Z</time></trkpt><trkpt lat="40.939235" lon="14.3164333"><ele>26.0</ele><time>2026-04-25T06:58:03.114Z</time></trkpt><trkpt lat="40.9392333" lon="14.3166867"><ele>26.666666666666664</ele><time>2026-04-25T06:58:04.114Z</time></trkpt><trkpt lat="40.9392333" lon="14.3169383"><ele>27.333333333333336</ele><time>2026-04-25T06:58:05.115Z</time></trkpt><trkpt lat="40.9392333" lon="14.3171933"><ele>28.0</ele><time>2026-04-25T06:58:06.114Z</time></trkpt><trkpt lat="40.93923" lon="14.317455"><ele>28.0</ele><time>2026-04-25T06:58:07.114Z</time></trkpt><trkpt lat="40.93923" lon="14.3177167"><ele>28.0</ele><time>2026-04-25T06:58:08.114Z</time></trkpt><trkpt lat="40.9392267" lon="14.3179867"><ele>28.0</ele><time>2026-04-25T06:58:09.115Z</time></trkpt><trkpt lat="40.939225" lon="14.31825"><ele>27.666666666666668</ele><time>2026-04-25T06:58:10.114Z</time></trkpt><trkpt lat="40.93922" lon="14.3185183"><ele>27.333333333333336</ele><time>2026-04-25T06:58:11.114Z</time></trkpt><trkpt lat="40.939215" lon="14.318775"><ele>27.0</ele><time>2026-04-25T06:58:12.114Z</time></trkpt><trkpt lat="40.9392117" lon="14.3190133"><ele>26.666666666666664</ele><time>2026-04-25T06:58:13.114Z</time></trkpt><trkpt lat="40.939205" lon="14.3192367"><ele>26.333333333333332</ele><time>2026-04-25T06:58:14.114Z</time></trkpt><trkpt lat="40.9391983" lon="14.3194483"><ele>26.0</ele><time>2026-04-25T06:58:15.114Z</time></trkpt><trkpt lat="40.9391883" lon="14.31965"><ele>26.5</ele><time>2026-04-25T06:58:16.114Z</time></trkpt><trkpt lat="40.9391783" lon="14.3198333"><ele>27.0</ele><time>2026-04-25T06:58:17.114Z</time></trkpt><trkpt lat="40.9391617" lon="14.3200017"><ele>27.5</ele><time>2026-04-25T06:58:18.114Z</time></trkpt><trkpt lat="40.939135" lon="14.3201533"><ele>28.0</ele><time>2026-04-25T06:58:19.114Z</time></trkpt><trkpt lat="40.9391017" lon="14.32031"><ele>28.0</ele><time>2026-04-25T06:58:20.114Z</time></trkpt><trkpt lat="40.9390667" lon="14.3204633"><ele>28.0</ele><time>2026-04-25T06:58:21.114Z</time></trkpt><trkpt lat="40.9390283" lon="14.3206083"><ele>28.0</ele><time>2026-04-25T06:58:22.115Z</time></trkpt><trkpt lat="40.9389867" lon="14.32074"><ele>28.0</ele><time>2026-04-25T06:58:23.114Z</time></trkpt><trkpt lat="40.9389333" lon="14.320875"><ele>28.0</ele><time>2026-04-25T06:58:24.114Z</time></trkpt><trkpt lat="40.9388767" lon="14.3210017"><ele>27.999999999999996</ele><time>2026-04-25T06:58:25.115Z</time></trkpt><trkpt lat="40.9388183" lon="14.321115"><ele>27.999999999999996</ele><time>2026-04-25T06:58:26.114Z</time></trkpt><trkpt lat="40.9387533" lon="14.3212267"><ele>28.0</ele><time>2026-04-25T06:58:27.114Z</time></trkpt><trkpt lat="40.9386833" lon="14.3213417"><ele>28.0</ele><time>2026-04-25T06:58:28.114Z</time></trkpt><trkpt lat="40.938605" lon="14.3214583"><ele>27.75</ele><time>2026-04-25T06:58:29.114Z</time></trkpt><trkpt lat="40.9385133" lon="14.3215767"><ele>27.5</ele><time>2026-04-25T06:58:30.114Z</time></trkpt><trkpt lat="40.9384117" lon="14.3216917"><ele>27.25</ele><time>2026-04-25T06:58:31.114Z</time></trkpt><trkpt lat="40.938305" lon="14.3218017"><ele>27.0</ele><time>2026-04-25T06:58:32.114Z</time></trkpt><trkpt lat="40.9381883" lon="14.321915"><ele>26.666666666666664</ele><time>2026-04-25T06:58:33.114Z</time></trkpt><trkpt lat="40.9380667" lon="14.322035"><ele>26.333333333333332</ele><time>2026-04-25T06:58:34.114Z</time></trkpt><trkpt lat="40.93794" lon="14.32216"><ele>26.0</ele><time>2026-04-25T06:58:35.114Z</time></trkpt><trkpt lat="40.93781" lon="14.3222867"><ele>26.0</ele><time>2026-04-25T06:58:36.114Z</time></trkpt><trkpt lat="40.9376717" lon="14.3224217"><ele>26.0</ele><time>2026-04-25T06:58:37.115Z</time></trkpt><trkpt lat="40.937535" lon="14.3225633"><ele>26.0</ele><time>2026-04-25T06:58:38.114Z</time></trkpt><trkpt lat="40.9373983" lon="14.3226967"><ele>26.0</ele><time>2026-04-25T06:58:39.114Z</time></trkpt><trkpt lat="40.9372617" lon="14.322835"><ele>26.0</ele><time>2026-04-25T06:58:40.114Z</time></trkpt><trkpt lat="40.9371267" lon="14.3229717"><ele>26.0</ele><time>2026-04-25T06:58:41.114Z</time></trkpt><trkpt lat="40.93699" lon="14.3231117"><ele>26.0</ele><time>2026-04-25T06:58:42.114Z</time></trkpt><trkpt lat="40.9368583" lon="14.3232483"><ele>26.0</ele><time>2026-04-25T06:58:43.114Z</time></trkpt><trkpt lat="40.93672" lon="14.3233733"><ele>26.0</ele><time>2026-04-25T06:58:44.114Z</time></trkpt><trkpt lat="40.9365883" lon="14.3235"><ele>26.0</ele><time>2026-04-25T06:58:45.114Z</time></trkpt><trkpt lat="40.9364583" lon="14.3236217"><ele>26.0</ele><time>2026-04-25T06:58:46.114Z</time></trkpt><trkpt lat="40.936335" lon="14.323745"><ele>26.0</ele><time>2026-04-25T06:58:47.114Z</time></trkpt><trkpt lat="40.936215" lon="14.3238517"><ele>26.0</ele><time>2026-04-25T06:58:48.114Z</time></trkpt><trkpt lat="40.9360883" lon="14.3239417"><ele>26.0</ele><time>2026-04-25T06:58:49.115Z</time></trkpt><trkpt lat="40.9359583" lon="14.3240067"><ele>26.0</ele><time>2026-04-25T06:58:50.114Z</time></trkpt><trkpt lat="40.9358167" lon="14.3240533"><ele>26.0</ele><time>2026-04-25T06:58:51.114Z</time></trkpt><trkpt lat="40.9356667" lon="14.3240867"><ele>25.5</ele><time>2026-04-25T06:58:52.114Z</time></trkpt><trkpt lat="40.9355217" lon="14.324105"><ele>25.0</ele><time>2026-04-25T06:58:53.114Z</time></trkpt><trkpt lat="40.9353717" lon="14.3240983"><ele>24.5</ele><time>2026-04-25T06:58:54.114Z</time></trkpt><trkpt lat="40.9352183" lon="14.324085"><ele>24.0</ele><time>2026-04-25T06:58:55.114Z</time></trkpt><trkpt lat="40.9350617" lon="14.3240867"><ele>24.333333333333336</ele><time>2026-04-25T06:58:56.115Z</time></trkpt><trkpt lat="40.9349" lon="14.324095"><ele>24.666666666666668</ele><time>2026-04-25T06:58:57.114Z</time></trkpt><trkpt lat="40.9347283" lon="14.3240817"><ele>25.0</ele><time>2026-04-25T06:58:58.114Z</time></trkpt><trkpt lat="40.9345533" lon="14.3240783"><ele>25.0</ele><time>2026-04-25T06:58:59.114Z</time></trkpt><trkpt lat="40.9343683" lon="14.3240733"><ele>25.0</ele><time>2026-04-25T06:59:00.114Z</time></trkpt><trkpt lat="40.93418" lon="14.3240767"><ele>25.0</ele><time>2026-04-25T06:59:01.114Z</time></trkpt><trkpt lat="40.9339883" lon="14.3240733"><ele>25.0</ele><time>2026-04-25T06:59:02.114Z</time></trkpt><trkpt lat="40.9337967" lon="14.3240667"><ele>25.0</ele><time>2026-04-25T06:59:03.114Z</time></trkpt><trkpt lat="40.933605" lon="14.324065"><ele>25.0</ele><time>2026-04-25T06:59:04.114Z</time></trkpt><trkpt lat="40.93341" lon="14.3240583"><ele>25.333333333333336</ele><time>2026-04-25T06:59:05.114Z</time></trkpt><trkpt lat="40.93321" lon="14.3240417"><ele>25.666666666666664</ele><time>2026-04-25T06:59:06.114Z</time></trkpt><trkpt lat="40.9330133" lon="14.324025"><ele>26.0</ele><time>2026-04-25T06:59:07.114Z</time></trkpt><trkpt lat="40.93281" lon="14.324"><ele>26.0</ele><time>2026-04-25T06:59:08.114Z</time></trkpt><trkpt lat="40.9326033" lon="14.32397"><ele>26.0</ele><time>2026-04-25T06:59:09.114Z</time></trkpt><trkpt lat="40.9324033" lon="14.32395"><ele>26.0</ele><time>2026-04-25T06:59:10.114Z</time></trkpt><trkpt lat="40.932205" lon="14.32392"><ele>26.333333333333332</ele><time>2026-04-25T06:59:11.114Z</time></trkpt><trkpt lat="40.932005" lon="14.32389"><ele>26.666666666666664</ele><time>2026-04-25T06:59:12.114Z</time></trkpt><trkpt lat="40.9318033" lon="14.3238617"><ele>27.0</ele><time>2026-04-25T06:59:13.115Z</time></trkpt><trkpt lat="40.931605" lon="14.323835"><ele>27.0</ele><time>2026-04-25T06:59:14.114Z</time></trkpt><trkpt lat="40.93141" lon="14.32381"><ele>27.0</ele><time>2026-04-25T06:59:15.114Z</time></trkpt><trkpt lat="40.931215" lon="14.3237867"><ele>27.0</ele><time>2026-04-25T06:59:16.114Z</time></trkpt><trkpt lat="40.9310233" lon="14.3237617"><ele>26.666666666666664</ele><time>2026-04-25T06:59:17.114Z</time></trkpt><trkpt lat="40.9308317" lon="14.3237333"><ele>26.333333333333332</ele><time>2026-04-25T06:59:18.114Z</time></trkpt><trkpt lat="40.9306367" lon="14.3237"><ele>26.0</ele><time>2026-04-25T06:59:19.114Z</time></trkpt><trkpt lat="40.9304383" lon="14.323665"><ele>26.0</ele><time>2026-04-25T06:59:20.114Z</time></trkpt><trkpt lat="40.9302333" lon="14.32363"><ele>26.0</ele><time>2026-04-25T06:59:21.114Z</time></trkpt><trkpt lat="40.9300283" lon="14.3235983"><ele>26.0</ele><time>2026-04-25T06:59:22.114Z</time></trkpt><trkpt lat="40.9298233" lon="14.323565"><ele>25.666666666666664</ele><time>2026-04-25T06:59:23.114Z</time></trkpt><trkpt lat="40.9296183" lon="14.32353"><ele>25.333333333333336</ele><time>2026-04-25T06:59:24.115Z</time></trkpt><trkpt lat="40.92941" lon="14.3234967"><ele>25.0</ele><time>2026-04-25T06:59:25.114Z</time></trkpt><trkpt lat="40.9292017" lon="14.3234683"><ele>25.0</ele><time>2026-04-25T06:59:26.114Z</time></trkpt><trkpt lat="40.9289933" lon="14.3234367"><ele>25.0</ele><time>2026-04-25T06:59:27.114Z</time></trkpt><trkpt lat="40.92878" lon="14.32341"><ele>25.0</ele><time>2026-04-25T06:59:28.114Z</time></trkpt><trkpt lat="40.92857" lon="14.3233767"><ele>25.0</ele><time>2026-04-25T06:59:29.114Z</time></trkpt><trkpt lat="40.92836" lon="14.3233417"><ele>25.0</ele><time>2026-04-25T06:59:30.114Z</time></trkpt><trkpt lat="40.928145" lon="14.3233117"><ele>25.0</ele><time>2026-04-25T06:59:31.114Z</time></trkpt><trkpt lat="40.92793" lon="14.3232817"><ele>25.0</ele><time>2026-04-25T06:59:32.114Z</time></trkpt><trkpt lat="40.9277133" lon="14.3232517"><ele>25.0</ele><time>2026-04-25T06:59:33.114Z</time></trkpt><trkpt lat="40.9275" lon="14.3232217"><ele>25.0</ele><time>2026-04-25T06:59:34.114Z</time></trkpt><trkpt lat="40.9272867" lon="14.32319"><ele>25.333333333333336</ele><time>2026-04-25T06:59:35.114Z</time></trkpt><trkpt lat="40.9270733" lon="14.3231517"><ele>25.666666666666664</ele><time>2026-04-25T06:59:36.114Z</time></trkpt><trkpt lat="40.9268583" lon="14.3231233"><ele>26.0</ele><time>2026-04-25T06:59:37.114Z</time></trkpt><trkpt lat="40.926645" lon="14.32309"><ele>27.333333333333332</ele><time>2026-04-25T06:59:38.114Z</time></trkpt><trkpt lat="40.9264333" lon="14.323055"><ele>28.666666666666664</ele><time>2026-04-25T06:59:39.114Z</time></trkpt><trkpt lat="40.9262217" lon="14.3230233"><ele>30.0</ele><time>2026-04-25T06:59:40.115Z</time></trkpt><trkpt lat="40.9260133" lon="14.3229883"><ele>31.0</ele><time>2026-04-25T06:59:41.115Z</time></trkpt><trkpt lat="40.925805" lon="14.3229567"><ele>32.0</ele><time>2026-04-25T06:59:42.114Z</time></trkpt><trkpt lat="40.9255917" lon="14.32292"><ele>33.0</ele><time>2026-04-25T06:59:43.115Z</time></trkpt><trkpt lat="40.9253767" lon="14.3228883"><ele>33.0</ele><time>2026-04-25T06:59:44.114Z</time></trkpt><trkpt lat="40.925165" lon="14.3228617"><ele>33.0</ele><time>2026-04-25T06:59:45.115Z</time></trkpt><trkpt lat="40.9249583" lon="14.3228317"><ele>33.0</ele><time>2026-04-25T06:59:46.114Z</time></trkpt><trkpt lat="40.924755" lon="14.3227983"><ele>32.666666666666664</ele><time>2026-04-25T06:59:47.114Z</time></trkpt><trkpt lat="40.924545" lon="14.3227617"><ele>32.33333333333333</ele><time>2026-04-25T06:59:48.115Z</time></trkpt><trkpt lat="40.924335" lon="14.322735"><ele>32.0</ele><time>2026-04-25T06:59:49.114Z</time></trkpt><trkpt lat="40.9241317" lon="14.3226983"><ele>31.666666666666664</ele><time>2026-04-25T06:59:50.115Z</time></trkpt><trkpt lat="40.923925" lon="14.3226683"><ele>31.333333333333336</ele><time>2026-04-25T06:59:51.114Z</time></trkpt><trkpt lat="40.92372" lon="14.3226417"><ele>31.0</ele><time>2026-04-25T06:59:52.114Z</time></trkpt><trkpt lat="40.923515" lon="14.3226167"><ele>31.0</ele><time>2026-04-25T06:59:53.114Z</time></trkpt><trkpt lat="40.923315" lon="14.3225883"><ele>31.0</ele><time>2026-04-25T06:59:54.114Z</time></trkpt><trkpt lat="40.9231133" lon="14.3225567"><ele>31.0</ele><time>2026-04-25T06:59:55.114Z</time></trkpt><trkpt lat="40.9229233" lon="14.3225233"><ele>31.0</ele><time>2026-04-25T06:59:56.114Z</time></trkpt><trkpt lat="40.922725" lon="14.3224867"><ele>31.0</ele><time>2026-04-25T06:59:57.114Z</time></trkpt><trkpt lat="40.9225317" lon="14.322455"><ele>31.0</ele><time>2026-04-25T06:59:58.114Z</time></trkpt><trkpt lat="40.9223383" lon="14.3224283"><ele>32.333333333333336</ele><time>2026-04-25T06:59:59.115Z</time></trkpt><trkpt lat="40.9221433" lon="14.322395"><ele>33.666666666666664</ele><time>2026-04-25T07:00:00.114Z</time></trkpt><trkpt lat="40.9219517" lon="14.3223633"><ele>35.0</ele><time>2026-04-25T07:00:01.114Z</time></trkpt><trkpt lat="40.9217517" lon="14.32234"><ele>35.666666666666664</ele><time>2026-04-25T07:00:02.114Z</time></trkpt><trkpt lat="40.9215467" lon="14.3223083"><ele>36.333333333333336</ele><time>2026-04-25T07:00:03.114Z</time></trkpt><trkpt lat="40.9213433" lon="14.3222783"><ele>37.0</ele><time>2026-04-25T07:00:04.114Z</time></trkpt><trkpt lat="40.9211417" lon="14.322245"><ele>36.66666666666667</ele><time>2026-04-25T07:00:05.114Z</time></trkpt><trkpt lat="40.9209383" lon="14.3222067"><ele>36.333333333333336</ele><time>2026-04-25T07:00:06.115Z</time></trkpt><trkpt lat="40.9207317" lon="14.3221733"><ele>36.0</ele><time>2026-04-25T07:00:07.114Z</time></trkpt><trkpt lat="40.9205283" lon="14.32215"><ele>36.0</ele><time>2026-04-25T07:00:08.114Z</time></trkpt><trkpt lat="40.9203217" lon="14.3221233"><ele>36.0</ele><time>2026-04-25T07:00:09.114Z</time></trkpt><trkpt lat="40.920115" lon="14.3220933"><ele>36.0</ele><time>2026-04-25T07:00:10.114Z</time></trkpt><trkpt lat="40.9199083" lon="14.3220683"><ele>35.333333333333336</ele><time>2026-04-25T07:00:11.114Z</time></trkpt><trkpt lat="40.9197067" lon="14.3220383"><ele>34.66666666666667</ele><time>2026-04-25T07:00:12.114Z</time></trkpt><trkpt lat="40.919505" lon="14.322005"><ele>34.0</ele><time>2026-04-25T07:00:13.114Z</time></trkpt><trkpt lat="40.9193133" lon="14.3219733"><ele>35.0</ele><time>2026-04-25T07:00:14.114Z</time></trkpt><trkpt lat="40.9191233" lon="14.3219433"><ele>36.0</ele><time>2026-04-25T07:00:15.114Z</time></trkpt><trkpt lat="40.9189317" lon="14.3219117"><ele>37.0</ele><time>2026-04-25T07:00:16.114Z</time></trkpt><trkpt lat="40.918735" lon="14.321885"><ele>37.0</ele><time>2026-04-25T07:00:17.114Z</time></trkpt><trkpt lat="40.9185417" lon="14.3218567"><ele>37.0</ele><time>2026-04-25T07:00:18.114Z</time></trkpt><trkpt lat="40.9183517" lon="14.321825"><ele>37.0</ele><time>2026-04-25T07:00:19.114Z</time></trkpt><trkpt lat="40.9181667" lon="14.3217933"><ele>37.0</ele><time>2026-04-25T07:00:20.114Z</time></trkpt><trkpt lat="40.9179767" lon="14.321765"><ele>37.0</ele><time>2026-04-25T07:00:21.114Z</time></trkpt><trkpt lat="40.9177883" lon="14.32174"><ele>37.0</ele><time>2026-04-25T07:00:22.114Z</time></trkpt><trkpt lat="40.9176033" lon="14.321715"><ele>38.0</ele><time>2026-04-25T07:00:23.114Z</time></trkpt><trkpt lat="40.9174133" lon="14.321685"><ele>39.0</ele><time>2026-04-25T07:00:24.114Z</time></trkpt><trkpt lat="40.917225" lon="14.3216483"><ele>40.0</ele><time>2026-04-25T07:00:25.114Z</time></trkpt><trkpt lat="40.9170333" lon="14.3216167"><ele>40.0</ele><time>2026-04-25T07:00:26.114Z</time></trkpt><trkpt lat="40.9168467" lon="14.3215833"><ele>40.0</ele><time>2026-04-25T07:00:27.114Z</time></trkpt><trkpt lat="40.9166533" lon="14.32156"><ele>40.0</ele><time>2026-04-25T07:00:28.115Z</time></trkpt><trkpt lat="40.9164667" lon="14.3215283"><ele>40.0</ele><time>2026-04-25T07:00:29.114Z</time></trkpt><trkpt lat="40.916275" lon="14.3214983"><ele>40.0</ele><time>2026-04-25T07:00:30.114Z</time></trkpt><trkpt lat="40.9160883" lon="14.3214667"><ele>40.0</ele><time>2026-04-25T07:00:31.114Z</time></trkpt><trkpt lat="40.915895" lon="14.3214367"><ele>40.0</ele><time>2026-04-25T07:00:32.114Z</time></trkpt><trkpt lat="40.9156967" lon="14.3214033"><ele>40.0</ele><time>2026-04-25T07:00:33.114Z</time></trkpt><trkpt lat="40.9154983" lon="14.3213683"><ele>40.0</ele><time>2026-04-25T07:00:34.114Z</time></trkpt><trkpt lat="40.9152983" lon="14.3213317"><ele>40.0</ele><time>2026-04-25T07:00:35.114Z</time></trkpt><trkpt lat="40.915095" lon="14.3212983"><ele>40.0</ele><time>2026-04-25T07:00:36.114Z</time></trkpt><trkpt lat="40.9148883" lon="14.3212633"><ele>40.0</ele><time>2026-04-25T07:00:37.115Z</time></trkpt><trkpt lat="40.9146817" lon="14.3212317"><ele>40.0</ele><time>2026-04-25T07:00:38.115Z</time></trkpt><trkpt lat="40.914475" lon="14.3211983"><ele>40.0</ele><time>2026-04-25T07:00:39.115Z</time></trkpt><trkpt lat="40.9142667" lon="14.3211717"><ele>40.0</ele><time>2026-04-25T07:00:40.114Z</time></trkpt><trkpt lat="40.914065" lon="14.3211417"><ele>40.0</ele><time>2026-04-25T07:00:41.115Z</time></trkpt><trkpt lat="40.9138617" lon="14.3211083"><ele>40.0</ele><time>2026-04-25T07:00:42.114Z</time></trkpt><trkpt lat="40.9136617" lon="14.32108"><ele>40.0</ele><time>2026-04-25T07:00:43.115Z</time></trkpt><trkpt lat="40.9134583" lon="14.32105"><ele>40.66666666666667</ele><time>2026-04-25T07:00:44.114Z</time></trkpt><trkpt lat="40.913255" lon="14.3210183"><ele>41.333333333333336</ele><time>2026-04-25T07:00:45.114Z</time></trkpt><trkpt lat="40.91305" lon="14.32099"><ele>42.0</ele><time>2026-04-25T07:00:46.114Z</time></trkpt><trkpt lat="40.9128467" lon="14.32096"><ele>42.0</ele><time>2026-04-25T07:00:47.114Z</time></trkpt><trkpt lat="40.91264" lon="14.3209333"><ele>42.0</ele><time>2026-04-25T07:00:48.114Z</time></trkpt><trkpt lat="40.9124267" lon="14.320905"><ele>42.0</ele><time>2026-04-25T07:00:49.115Z</time></trkpt><trkpt lat="40.91219" lon="14.3208767"><ele>42.5</ele><time>2026-04-25T07:00:50.114Z</time></trkpt><trkpt lat="40.9119517" lon="14.3208517"><ele>43.0</ele><time>2026-04-25T07:00:51.114Z</time></trkpt><trkpt lat="40.9117017" lon="14.3208283"><ele>44.0</ele><time>2026-04-25T07:00:52.114Z</time></trkpt><trkpt lat="40.9114367" lon="14.3207933"><ele>45.0</ele><time>2026-04-25T07:00:53.114Z</time></trkpt><trkpt lat="40.9111683" lon="14.320755"><ele>43.5</ele><time>2026-04-25T07:00:54.114Z</time></trkpt><trkpt lat="40.9109033" lon="14.3207167"><ele>42.0</ele><time>2026-04-25T07:00:55.114Z</time></trkpt><trkpt lat="40.91064" lon="14.3206783"><ele>42.0</ele><time>2026-04-25T07:00:56.114Z</time></trkpt><trkpt lat="40.910375" lon="14.3206417"><ele>42.0</ele><time>2026-04-25T07:00:57.114Z</time></trkpt><trkpt lat="40.9101183" lon="14.3206083"><ele>43.5</ele><time>2026-04-25T07:00:58.114Z</time></trkpt><trkpt lat="40.90987" lon="14.3205667"><ele>45.0</ele><time>2026-04-25T07:00:59.114Z</time></trkpt><trkpt lat="40.9096367" lon="14.32052"><ele>45.0</ele><time>2026-04-25T07:01:00.114Z</time></trkpt><trkpt lat="40.9094083" lon="14.32049"><ele>45.0</ele><time>2026-04-25T07:01:01.114Z</time></trkpt><trkpt lat="40.9091817" lon="14.32046"><ele>45.0</ele><time>2026-04-25T07:01:02.114Z</time></trkpt><trkpt lat="40.90896" lon="14.3204233"><ele>45.0</ele><time>2026-04-25T07:01:03.114Z</time></trkpt><trkpt lat="40.9087367" lon="14.3203917"><ele>45.0</ele><time>2026-04-25T07:01:04.114Z</time></trkpt><trkpt lat="40.9085067" lon="14.3203533"><ele>46.0</ele><time>2026-04-25T07:01:05.114Z</time></trkpt><trkpt lat="40.9082783" lon="14.32032"><ele>47.0</ele><time>2026-04-25T07:01:06.114Z</time></trkpt><trkpt lat="40.908045" lon="14.32028"><ele>47.0</ele><time>2026-04-25T07:01:07.114Z</time></trkpt><trkpt lat="40.90781" lon="14.3202383"><ele>47.0</ele><time>2026-04-25T07:01:08.114Z</time></trkpt><trkpt lat="40.9075783" lon="14.3202"><ele>48.5</ele><time>2026-04-25T07:01:09.114Z</time></trkpt><trkpt lat="40.907335" lon="14.3201617"><ele>50.0</ele><time>2026-04-25T07:01:10.114Z</time></trkpt><trkpt lat="40.907095" lon="14.32013"><ele>50.0</ele><time>2026-04-25T07:01:11.114Z</time></trkpt><trkpt lat="40.9068533" lon="14.3200883"><ele>50.0</ele><time>2026-04-25T07:01:12.114Z</time></trkpt><trkpt lat="40.90661" lon="14.3200533"><ele>49.5</ele><time>2026-04-25T07:01:13.114Z</time></trkpt><trkpt lat="40.9063633" lon="14.32002"><ele>49.0</ele><time>2026-04-25T07:01:14.114Z</time></trkpt><trkpt lat="40.9061167" lon="14.3199817"><ele>49.5</ele><time>2026-04-25T07:01:15.114Z</time></trkpt><trkpt lat="40.9058733" lon="14.3199467"><ele>50.0</ele><time>2026-04-25T07:01:16.114Z</time></trkpt><trkpt lat="40.905635" lon="14.319905"><ele>50.0</ele><time>2026-04-25T07:01:17.114Z</time></trkpt><trkpt lat="40.905405" lon="14.3198683"><ele>50.0</ele><time>2026-04-25T07:01:18.115Z</time></trkpt><trkpt lat="40.9051683" lon="14.3198283"><ele>50.333333333333336</ele><time>2026-04-25T07:01:19.114Z</time></trkpt><trkpt lat="40.90495" lon="14.3197833"><ele>50.66666666666667</ele><time>2026-04-25T07:01:20.115Z</time></trkpt><trkpt lat="40.9047417" lon="14.3197417"><ele>51.0</ele><time>2026-04-25T07:01:21.114Z</time></trkpt><trkpt lat="40.9045433" lon="14.3197033"><ele>51.0</ele><time>2026-04-25T07:01:22.114Z</time></trkpt><trkpt lat="40.9043533" lon="14.319675"><ele>51.0</ele><time>2026-04-25T07:01:23.114Z</time></trkpt><trkpt lat="40.90417" lon="14.319645"><ele>51.0</ele><time>2026-04-25T07:01:24.114Z</time></trkpt><trkpt lat="40.9039933" lon="14.3196133"><ele>50.0</ele><time>2026-04-25T07:01:25.114Z</time></trkpt><trkpt lat="40.903815" lon="14.319585"><ele>49.0</ele><time>2026-04-25T07:01:26.114Z</time></trkpt><trkpt lat="40.9036383" lon="14.3195533"><ele>48.0</ele><time>2026-04-25T07:01:27.114Z</time></trkpt><trkpt lat="40.903465" lon="14.3195217"><ele>47.666666666666664</ele><time>2026-04-25T07:01:28.114Z</time></trkpt><trkpt lat="40.9033" lon="14.3194917"><ele>47.33333333333333</ele><time>2026-04-25T07:01:29.114Z</time></trkpt><trkpt lat="40.9031367" lon="14.3194667"><ele>47.0</ele><time>2026-04-25T07:01:30.115Z</time></trkpt><trkpt lat="40.902975" lon="14.319435"><ele>47.0</ele><time>2026-04-25T07:01:31.114Z</time></trkpt><trkpt lat="40.9028067" lon="14.319405"><ele>47.0</ele><time>2026-04-25T07:01:32.114Z</time></trkpt><trkpt lat="40.9026433" lon="14.3193767"><ele>47.0</ele><time>2026-04-25T07:01:33.114Z</time></trkpt><trkpt lat="40.9024833" lon="14.319355"><ele>46.0</ele><time>2026-04-25T07:01:34.114Z</time></trkpt><trkpt lat="40.9023267" lon="14.3193267"><ele>45.0</ele><time>2026-04-25T07:01:35.114Z</time></trkpt><trkpt lat="40.9021733" lon="14.3193033"><ele>44.0</ele><time>2026-04-25T07:01:36.114Z</time></trkpt><trkpt lat="40.9020183" lon="14.3192767"><ele>44.0</ele><time>2026-04-25T07:01:37.114Z</time></trkpt><trkpt lat="40.9018583" lon="14.31925"><ele>44.0</ele><time>2026-04-25T07:01:38.114Z</time></trkpt><trkpt lat="40.9017" lon="14.3192267"><ele>44.0</ele><time>2026-04-25T07:01:39.114Z</time></trkpt><trkpt lat="40.901545" lon="14.3192067"><ele>44.666666666666664</ele><time>2026-04-25T07:01:40.114Z</time></trkpt><trkpt lat="40.9013833" lon="14.3191783"><ele>45.333333333333336</ele><time>2026-04-25T07:01:41.114Z</time></trkpt><trkpt lat="40.9012167" lon="14.3191517"><ele>46.0</ele><time>2026-04-25T07:01:42.114Z</time></trkpt><trkpt lat="40.90105" lon="14.3191233"><ele>47.0</ele><time>2026-04-25T07:01:43.114Z</time></trkpt><trkpt lat="40.9008717" lon="14.3191"><ele>48.0</ele><time>2026-04-25T07:01:44.114Z</time></trkpt><trkpt lat="40.9007" lon="14.319075"><ele>49.0</ele><time>2026-04-25T07:01:45.114Z</time></trkpt><trkpt lat="40.9005183" lon="14.3190483"><ele>49.0</ele><time>2026-04-25T07:01:46.114Z</time></trkpt><trkpt lat="40.9003367" lon="14.3190217"><ele>49.0</ele><time>2026-04-25T07:01:47.114Z</time></trkpt><trkpt lat="40.9001533" lon="14.31899"><ele>49.0</ele><time>2026-04-25T07:01:48.114Z</time></trkpt><trkpt lat="40.8999617" lon="14.31896"><ele>49.33333333333333</ele><time>2026-04-25T07:01:49.114Z</time></trkpt><trkpt lat="40.8997683" lon="14.31893"><ele>49.66666666666667</ele><time>2026-04-25T07:01:50.114Z</time></trkpt><trkpt lat="40.899575" lon="14.318905"><ele>50.0</ele><time>2026-04-25T07:01:51.114Z</time></trkpt><trkpt lat="40.89938" lon="14.31888"><ele>50.333333333333336</ele><time>2026-04-25T07:01:52.114Z</time></trkpt><trkpt lat="40.8991867" lon="14.3188533"><ele>50.66666666666667</ele><time>2026-04-25T07:01:53.114Z</time></trkpt><trkpt lat="40.8990017" lon="14.3188167"><ele>51.0</ele><time>2026-04-25T07:01:54.114Z</time></trkpt><trkpt lat="40.8988133" lon="14.3187683"><ele>51.0</ele><time>2026-04-25T07:01:55.114Z</time></trkpt><trkpt lat="40.898625" lon="14.3187233"><ele>51.0</ele><time>2026-04-25T07:01:56.114Z</time></trkpt><trkpt lat="40.8984367" lon="14.3186783"><ele>51.0</ele><time>2026-04-25T07:01:57.114Z</time></trkpt><trkpt lat="40.8982517" lon="14.31864"><ele>50.0</ele><time>2026-04-25T07:01:58.114Z</time></trkpt><trkpt lat="40.8980617" lon="14.3186017"><ele>49.0</ele><time>2026-04-25T07:01:59.115Z</time></trkpt><trkpt lat="40.8978783" lon="14.3185633"><ele>48.0</ele><time>2026-04-25T07:02:00.114Z</time></trkpt><trkpt lat="40.8976933" lon="14.3185233"><ele>46.333333333333336</ele><time>2026-04-25T07:02:01.114Z</time></trkpt><trkpt lat="40.8975117" lon="14.3184917"><ele>44.66666666666667</ele><time>2026-04-25T07:02:02.114Z</time></trkpt><trkpt lat="40.89734" lon="14.3184633"><ele>43.0</ele><time>2026-04-25T07:02:03.114Z</time></trkpt><trkpt lat="40.89718" lon="14.31844"><ele>43.0</ele><time>2026-04-25T07:02:04.114Z</time></trkpt><trkpt lat="40.8970267" lon="14.31842"><ele>43.0</ele><time>2026-04-25T07:02:05.114Z</time></trkpt><trkpt lat="40.896885" lon="14.3183967"><ele>43.0</ele><time>2026-04-25T07:02:06.114Z</time></trkpt><trkpt lat="40.896745" lon="14.31837"><ele>43.0</ele><time>2026-04-25T07:02:07.114Z</time></trkpt><trkpt lat="40.8966033" lon="14.3183533"><ele>42.75</ele><time>2026-04-25T07:02:08.114Z</time></trkpt><trkpt lat="40.8964717" lon="14.3183367"><ele>42.5</ele><time>2026-04-25T07:02:09.114Z</time></trkpt><trkpt lat="40.896345" lon="14.31832"><ele>42.25</ele><time>2026-04-25T07:02:10.114Z</time></trkpt><trkpt lat="40.8962233" lon="14.318295"><ele>42.0</ele><time>2026-04-25T07:02:11.114Z</time></trkpt><trkpt lat="40.8961083" lon="14.318265"><ele>42.0</ele><time>2026-04-25T07:02:12.114Z</time></trkpt><trkpt lat="40.8959967" lon="14.3182267"><ele>42.0</ele><time>2026-04-25T07:02:13.114Z</time></trkpt><trkpt lat="40.8958883" lon="14.31818"><ele>42.0</ele><time>2026-04-25T07:02:14.114Z</time></trkpt><trkpt lat="40.895785" lon="14.31812"><ele>42.0</ele><time>2026-04-25T07:02:15.115Z</time></trkpt><trkpt lat="40.8956933" lon="14.318065"><ele>42.0</ele><time>2026-04-25T07:02:16.114Z</time></trkpt><trkpt lat="40.8956083" lon="14.3180033"><ele>42.333333333333336</ele><time>2026-04-25T07:02:17.114Z</time></trkpt><trkpt lat="40.895545" lon="14.3179233"><ele>42.666666666666664</ele><time>2026-04-25T07:02:18.114Z</time></trkpt><trkpt lat="40.8954967" lon="14.3178233"><ele>43.0</ele><time>2026-04-25T07:02:19.114Z</time></trkpt><trkpt lat="40.895475" lon="14.3177083"><ele>43.33333333333333</ele><time>2026-04-25T07:02:20.114Z</time></trkpt><trkpt lat="40.8954683" lon="14.3175967"><ele>43.666666666666664</ele><time>2026-04-25T07:02:21.114Z</time></trkpt><trkpt lat="40.895485" lon="14.3174767"><ele>44.0</ele><time>2026-04-25T07:02:22.115Z</time></trkpt><trkpt lat="40.8955217" lon="14.3173633"><ele>44.0</ele><time>2026-04-25T07:02:23.114Z</time></trkpt><trkpt lat="40.895585" lon="14.3172633"><ele>44.0</ele><time>2026-04-25T07:02:24.114Z</time></trkpt><trkpt lat="40.8956667" lon="14.31719"><ele>44.0</ele><time>2026-04-25T07:02:25.114Z</time></trkpt><trkpt lat="40.895765" lon="14.3171483"><ele>44.0</ele><time>2026-04-25T07:02:26.114Z</time></trkpt><trkpt lat="40.8958633" lon="14.3171217"><ele>44.0</ele><time>2026-04-25T07:02:27.114Z</time></trkpt><trkpt lat="40.895975" lon="14.3171367"><ele>44.5</ele><time>2026-04-25T07:02:28.114Z</time></trkpt><trkpt lat="40.89609" lon="14.31718"><ele>45.0</ele><time>2026-04-25T07:02:29.114Z</time></trkpt><trkpt lat="40.8962" lon="14.31724"><ele>45.5</ele><time>2026-04-25T07:02:30.114Z</time></trkpt><trkpt lat="40.8963133" lon="14.317305"><ele>46.0</ele><time>2026-04-25T07:02:31.114Z</time></trkpt><trkpt lat="40.8964167" lon="14.31737"><ele>46.0</ele><time>2026-04-25T07:02:32.115Z</time></trkpt><trkpt lat="40.8965017" lon="14.3174367"><ele>46.0</ele><time>2026-04-25T07:02:33.114Z</time></trkpt><trkpt lat="40.8965667" lon="14.31751"><ele>46.0</ele><time>2026-04-25T07:02:34.114Z</time></trkpt><trkpt lat="40.8966283" lon="14.317595"><ele>46.0</ele><time>2026-04-25T07:02:35.114Z</time></trkpt><trkpt lat="40.89669" lon="14.317695"><ele>46.0</ele><time>2026-04-25T07:02:36.114Z</time></trkpt><trkpt lat="40.8967533" lon="14.3178233"><ele>46.5</ele><time>2026-04-25T07:02:37.115Z</time></trkpt><trkpt lat="40.89681" lon="14.3179567"><ele>47.0</ele><time>2026-04-25T07:02:38.114Z</time></trkpt><trkpt lat="40.8968717" lon="14.318115"><ele>47.5</ele><time>2026-04-25T07:02:39.114Z</time></trkpt><trkpt lat="40.8969317" lon="14.3182883"><ele>48.0</ele><time>2026-04-25T07:02:40.114Z</time></trkpt><trkpt lat="40.8969917" lon="14.3184633"><ele>46.75</ele><time>2026-04-25T07:02:41.114Z</time></trkpt><trkpt lat="40.8970483" lon="14.318645"><ele>45.5</ele><time>2026-04-25T07:02:42.114Z</time></trkpt><trkpt lat="40.897085" lon="14.3188267"><ele>44.25</ele><time>2026-04-25T07:02:43.114Z</time></trkpt><trkpt lat="40.8971383" lon="14.3189983"><ele>43.0</ele><time>2026-04-25T07:02:44.114Z</time></trkpt><trkpt lat="40.897215" lon="14.3192033"><ele>42.66666666666667</ele><time>2026-04-25T07:02:45.114Z</time></trkpt><trkpt lat="40.8972717" lon="14.3194017"><ele>42.333333333333336</ele><time>2026-04-25T07:02:46.114Z</time></trkpt><trkpt lat="40.8973017" lon="14.3196"><ele>42.0</ele><time>2026-04-25T07:02:47.114Z</time></trkpt><trkpt lat="40.89732" lon="14.3198033"><ele>41.5</ele><time>2026-04-25T07:02:48.115Z</time></trkpt><trkpt lat="40.8973167" lon="14.319995"><ele>41.0</ele><time>2026-04-25T07:02:49.114Z</time></trkpt><trkpt lat="40.897295" lon="14.3201917"><ele>40.5</ele><time>2026-04-25T07:02:50.114Z</time></trkpt><trkpt lat="40.8972633" lon="14.3203883"><ele>40.0</ele><time>2026-04-25T07:02:51.114Z</time></trkpt><trkpt lat="40.8972183" lon="14.3205833"><ele>39.333333333333336</ele><time>2026-04-25T07:02:52.115Z</time></trkpt><trkpt lat="40.89716" lon="14.3207767"><ele>38.666666666666664</ele><time>2026-04-25T07:02:53.114Z</time></trkpt><trkpt lat="40.89709" lon="14.3209683"><ele>38.0</ele><time>2026-04-25T07:02:54.114Z</time></trkpt><trkpt lat="40.8970133" lon="14.321165"><ele>38.0</ele><time>2026-04-25T07:02:55.114Z</time></trkpt><trkpt lat="40.8969367" lon="14.3213583"><ele>38.0</ele><time>2026-04-25T07:02:56.114Z</time></trkpt><trkpt lat="40.896855" lon="14.321555"><ele>38.0</ele><time>2026-04-25T07:02:57.114Z</time></trkpt><trkpt lat="40.8967717" lon="14.3217417"><ele>38.0</ele><time>2026-04-25T07:02:58.114Z</time></trkpt><trkpt lat="40.896685" lon="14.3219183"><ele>38.0</ele><time>2026-04-25T07:02:59.115Z</time></trkpt><trkpt lat="40.8965917" lon="14.3220783"><ele>38.0</ele><time>2026-04-25T07:03:00.114Z</time></trkpt><trkpt lat="40.896495" lon="14.32224"><ele>36.33333333333333</ele><time>2026-04-25T07:03:01.114Z</time></trkpt><trkpt lat="40.89639" lon="14.322385"><ele>34.666666666666664</ele><time>2026-04-25T07:03:02.114Z</time></trkpt><trkpt lat="40.896285" lon="14.3225283"><ele>33.0</ele><time>2026-04-25T07:03:03.114Z</time></trkpt><trkpt lat="40.89618" lon="14.322675"><ele>33.0</ele><time>2026-04-25T07:03:04.114Z</time></trkpt><trkpt lat="40.8960683" lon="14.3228117"><ele>33.0</ele><time>2026-04-25T07:03:05.114Z</time></trkpt><trkpt lat="40.895945" lon="14.3229433"><ele>33.0</ele><time>2026-04-25T07:03:06.114Z</time></trkpt><trkpt lat="40.89581" lon="14.32307"><ele>32.333333333333336</ele><time>2026-04-25T07:03:07.115Z</time></trkpt><trkpt lat="40.8956667" lon="14.3231933"><ele>31.666666666666668</ele><time>2026-04-25T07:03:08.115Z</time></trkpt><trkpt lat="40.895515" lon="14.32331"><ele>31.0</ele><time>2026-04-25T07:03:09.115Z</time></trkpt><trkpt lat="40.89536" lon="14.3234267"><ele>31.0</ele><time>2026-04-25T07:03:10.114Z</time></trkpt><trkpt lat="40.8951917" lon="14.3235383"><ele>31.0</ele><time>2026-04-25T07:03:11.114Z</time></trkpt><trkpt lat="40.8950133" lon="14.323655"><ele>31.0</ele><time>2026-04-25T07:03:12.114Z</time></trkpt><trkpt lat="40.894835" lon="14.3237717"><ele>31.333333333333336</ele><time>2026-04-25T07:03:13.115Z</time></trkpt><trkpt lat="40.89465" lon="14.3238833"><ele>31.666666666666664</ele><time>2026-04-25T07:03:14.114Z</time></trkpt><trkpt lat="40.894455" lon="14.323985"><ele>32.0</ele><time>2026-04-25T07:03:15.115Z</time></trkpt><trkpt lat="40.8942533" lon="14.3240667"><ele>31.0</ele><time>2026-04-25T07:03:16.114Z</time></trkpt><trkpt lat="40.89405" lon="14.3241433"><ele>30.0</ele><time>2026-04-25T07:03:17.114Z</time></trkpt><trkpt lat="40.8938417" lon="14.32423"><ele>29.0</ele><time>2026-04-25T07:03:18.114Z</time></trkpt><trkpt lat="40.8936367" lon="14.3243183"><ele>29.0</ele><time>2026-04-25T07:03:19.114Z</time></trkpt><trkpt lat="40.8934333" lon="14.32441"><ele>29.0</ele><time>2026-04-25T07:03:20.114Z</time></trkpt><trkpt lat="40.893225" lon="14.3245083"><ele>29.0</ele><time>2026-04-25T07:03:21.114Z</time></trkpt><trkpt lat="40.89302" lon="14.3246117"><ele>28.333333333333332</ele><time>2026-04-25T07:03:22.114Z</time></trkpt><trkpt lat="40.8928167" lon="14.324725"><ele>27.666666666666664</ele><time>2026-04-25T07:03:23.114Z</time></trkpt><trkpt lat="40.8926233" lon="14.3248583"><ele>27.0</ele><time>2026-04-25T07:03:24.114Z</time></trkpt><trkpt lat="40.89243" lon="14.3249983"><ele>26.333333333333336</ele><time>2026-04-25T07:03:25.114Z</time></trkpt><trkpt lat="40.8922467" lon="14.3251567"><ele>25.666666666666668</ele><time>2026-04-25T07:03:26.115Z</time></trkpt><trkpt lat="40.8920717" lon="14.3253233"><ele>25.0</ele><time>2026-04-25T07:03:27.114Z</time></trkpt><trkpt lat="40.89191" lon="14.3255083"><ele>25.333333333333336</ele><time>2026-04-25T07:03:28.114Z</time></trkpt><trkpt lat="40.89175" lon="14.325705"><ele>25.666666666666664</ele><time>2026-04-25T07:03:29.114Z</time></trkpt><trkpt lat="40.8916033" lon="14.3259133"><ele>26.0</ele><time>2026-04-25T07:03:30.114Z</time></trkpt><trkpt lat="40.8914667" lon="14.32613"><ele>26.0</ele><time>2026-04-25T07:03:31.114Z</time></trkpt><trkpt lat="40.8913433" lon="14.3263567"><ele>26.0</ele><time>2026-04-25T07:03:32.114Z</time></trkpt><trkpt lat="40.8912317" lon="14.3265817"><ele>26.0</ele><time>2026-04-25T07:03:33.115Z</time></trkpt><trkpt lat="40.8911283" lon="14.3268083"><ele>26.0</ele><time>2026-04-25T07:03:34.115Z</time></trkpt><trkpt lat="40.8910367" lon="14.3270383"><ele>26.0</ele><time>2026-04-25T07:03:35.116Z</time></trkpt><trkpt lat="40.8909567" lon="14.3272783"><ele>26.0</ele><time>2026-04-25T07:03:36.115Z</time></trkpt><trkpt lat="40.8908817" lon="14.3275317"><ele>25.333333333333332</ele><time>2026-04-25T07:03:37.115Z</time></trkpt><trkpt lat="40.8908167" lon="14.3277917"><ele>24.666666666666664</ele><time>2026-04-25T07:03:38.115Z</time></trkpt><trkpt lat="40.8907567" lon="14.3280567"><ele>24.0</ele><time>2026-04-25T07:03:39.115Z</time></trkpt><trkpt lat="40.8907117" lon="14.3283317"><ele>23.0</ele><time>2026-04-25T07:03:40.115Z</time></trkpt><trkpt lat="40.8906767" lon="14.3286117"><ele>22.0</ele><time>2026-04-25T07:03:41.115Z</time></trkpt><trkpt lat="40.8906517" lon="14.3288967"><ele>21.0</ele><time>2026-04-25T07:03:42.115Z</time></trkpt><trkpt lat="40.8906383" lon="14.3291833"><ele>19.666666666666668</ele><time>2026-04-25T07:03:43.115Z</time></trkpt><trkpt lat="40.8906267" lon="14.3294667"><ele>18.333333333333336</ele><time>2026-04-25T07:03:44.116Z</time></trkpt><trkpt lat="40.89062" lon="14.3297633"><ele>17.0</ele><time>2026-04-25T07:03:45.115Z</time></trkpt><trkpt lat="40.8906267" lon="14.3300567"><ele>15.666666666666668</ele><time>2026-04-25T07:03:46.116Z</time></trkpt><trkpt lat="40.8906383" lon="14.3303533"><ele>14.333333333333332</ele><time>2026-04-25T07:03:47.115Z</time></trkpt><trkpt lat="40.890655" lon="14.3306483"><ele>13.0</ele><time>2026-04-25T07:03:48.115Z</time></trkpt><trkpt lat="40.890675" lon="14.3309467"><ele>12.5</ele><time>2026-04-25T07:03:49.115Z</time></trkpt><trkpt lat="40.8907033" lon="14.3312467"><ele>12.0</ele><time>2026-04-25T07:03:50.115Z</time></trkpt><trkpt lat="40.890735" lon="14.3315467"><ele>12.0</ele><time>2026-04-25T07:03:51.115Z</time></trkpt><trkpt lat="40.8907633" lon="14.3318483"><ele>12.0</ele><time>2026-04-25T07:03:52.115Z</time></trkpt><trkpt lat="40.8907967" lon="14.33215"><ele>12.5</ele><time>2026-04-25T07:03:53.115Z</time></trkpt><trkpt lat="40.890845" lon="14.33245"><ele>13.0</ele><time>2026-04-25T07:03:54.115Z</time></trkpt><trkpt lat="40.8908867" lon="14.3327533"><ele>12.5</ele><time>2026-04-25T07:03:55.115Z</time></trkpt><trkpt lat="40.8909267" lon="14.3330483"><ele>12.0</ele><time>2026-04-25T07:03:56.115Z</time></trkpt><trkpt lat="40.890965" lon="14.3333517"><ele>13.0</ele><time>2026-04-25T07:03:57.115Z</time></trkpt><trkpt lat="40.8910083" lon="14.3336567"><ele>14.0</ele><time>2026-04-25T07:03:58.115Z</time></trkpt><trkpt lat="40.8910533" lon="14.3339633"><ele>15.5</ele><time>2026-04-25T07:03:59.115Z</time></trkpt><trkpt lat="40.8910933" lon="14.3342683"><ele>17.0</ele><time>2026-04-25T07:04:00.115Z</time></trkpt><trkpt lat="40.891135" lon="14.3345617"><ele>15.0</ele><time>2026-04-25T07:04:01.115Z</time></trkpt><trkpt lat="40.8911783" lon="14.3348617"><ele>13.0</ele><time>2026-04-25T07:04:02.115Z</time></trkpt><trkpt lat="40.8912183" lon="14.3351633"><ele>13.0</ele><time>2026-04-25T07:04:03.115Z</time></trkpt><trkpt lat="40.8912567" lon="14.335455"><ele>13.0</ele><time>2026-04-25T07:04:04.115Z</time></trkpt><trkpt lat="40.8913017" lon="14.33575"><ele>12.5</ele><time>2026-04-25T07:04:05.115Z</time></trkpt><trkpt lat="40.89134" lon="14.33605"><ele>12.0</ele><time>2026-04-25T07:04:06.115Z</time></trkpt><trkpt lat="40.891375" lon="14.3363417"><ele>13.0</ele><time>2026-04-25T07:04:07.115Z</time></trkpt><trkpt lat="40.8914217" lon="14.3366483"><ele>14.0</ele><time>2026-04-25T07:04:08.115Z</time></trkpt><trkpt lat="40.8914617" lon="14.3369417"><ele>13.5</ele><time>2026-04-25T07:04:09.115Z</time></trkpt><trkpt lat="40.891495" lon="14.3372383"><ele>13.0</ele><time>2026-04-25T07:04:10.115Z</time></trkpt><trkpt lat="40.8915233" lon="14.3375333"><ele>13.0</ele><time>2026-04-25T07:04:11.115Z</time></trkpt><trkpt lat="40.8915517" lon="14.3378267"><ele>13.0</ele><time>2026-04-25T07:04:12.115Z</time></trkpt><trkpt lat="40.8915833" lon="14.3381217"><ele>13.0</ele><time>2026-04-25T07:04:13.115Z</time></trkpt><trkpt lat="40.8916067" lon="14.3384183"><ele>13.0</ele><time>2026-04-25T07:04:14.115Z</time></trkpt><trkpt lat="40.8916267" lon="14.338715"><ele>13.0</ele><time>2026-04-25T07:04:15.115Z</time></trkpt><trkpt lat="40.8916383" lon="14.3390117"><ele>13.666666666666666</ele><time>2026-04-25T07:04:16.115Z</time></trkpt><trkpt lat="40.8916483" lon="14.3393017"><ele>14.333333333333332</ele><time>2026-04-25T07:04:17.115Z</time></trkpt><trkpt lat="40.8916533" lon="14.3395983"><ele>15.0</ele><time>2026-04-25T07:04:18.116Z</time></trkpt><trkpt lat="40.8916567" lon="14.3398933"><ele>15.0</ele><time>2026-04-25T07:04:19.115Z</time></trkpt><trkpt lat="40.8916517" lon="14.3401783"><ele>15.0</ele><time>2026-04-25T07:04:20.115Z</time></trkpt><trkpt lat="40.8916383" lon="14.34046"><ele>15.0</ele><time>2026-04-25T07:04:21.115Z</time></trkpt><trkpt lat="40.8916283" lon="14.340745"><ele>15.333333333333332</ele><time>2026-04-25T07:04:22.115Z</time></trkpt><trkpt lat="40.8916133" lon="14.3410333"><ele>15.666666666666666</ele><time>2026-04-25T07:04:23.115Z</time></trkpt><trkpt lat="40.8915917" lon="14.341325"><ele>16.0</ele><time>2026-04-25T07:04:24.115Z</time></trkpt><trkpt lat="40.8915683" lon="14.3416117"><ele>16.0</ele><time>2026-04-25T07:04:25.115Z</time></trkpt><trkpt lat="40.89154" lon="14.3419033"><ele>16.0</ele><time>2026-04-25T07:04:26.115Z</time></trkpt><trkpt lat="40.8915117" lon="14.3421983"><ele>16.0</ele><time>2026-04-25T07:04:27.115Z</time></trkpt><trkpt lat="40.89148" lon="14.3424867"><ele>16.0</ele><time>2026-04-25T07:04:28.115Z</time></trkpt><trkpt lat="40.8914467" lon="14.3427767"><ele>16.0</ele><time>2026-04-25T07:04:29.115Z</time></trkpt><trkpt lat="40.891415" lon="14.343065"><ele>16.0</ele><time>2026-04-25T07:04:30.115Z</time></trkpt><trkpt lat="40.8913783" lon="14.3433567"><ele>16.0</ele><time>2026-04-25T07:04:31.115Z</time></trkpt><trkpt lat="40.8913433" lon="14.3436417"><ele>16.0</ele><time>2026-04-25T07:04:32.115Z</time></trkpt><trkpt lat="40.891305" lon="14.343925"><ele>16.0</ele><time>2026-04-25T07:04:33.115Z</time></trkpt><trkpt lat="40.8912717" lon="14.3442117"><ele>16.333333333333332</ele><time>2026-04-25T07:04:34.115Z</time></trkpt><trkpt lat="40.89124" lon="14.344495"><ele>16.666666666666668</ele><time>2026-04-25T07:04:35.115Z</time></trkpt><trkpt lat="40.89121" lon="14.34477"><ele>17.0</ele><time>2026-04-25T07:04:36.115Z</time></trkpt><trkpt lat="40.8911767" lon="14.3450533"><ele>17.333333333333336</ele><time>2026-04-25T07:04:37.115Z</time></trkpt><trkpt lat="40.8911517" lon="14.3453333"><ele>17.666666666666668</ele><time>2026-04-25T07:04:38.115Z</time></trkpt><trkpt lat="40.8911183" lon="14.3456067"><ele>18.0</ele><time>2026-04-25T07:04:39.115Z</time></trkpt><trkpt lat="40.8910867" lon="14.3458817"><ele>18.0</ele><time>2026-04-25T07:04:40.115Z</time></trkpt><trkpt lat="40.8910467" lon="14.3461517"><ele>18.0</ele><time>2026-04-25T07:04:41.115Z</time></trkpt><trkpt lat="40.8910117" lon="14.3464167"><ele>18.0</ele><time>2026-04-25T07:04:42.116Z</time></trkpt><trkpt lat="40.890985" lon="14.3466833"><ele>18.0</ele><time>2026-04-25T07:04:43.115Z</time></trkpt><trkpt lat="40.8909567" lon="14.3469517"><ele>18.0</ele><time>2026-04-25T07:04:44.115Z</time></trkpt><trkpt lat="40.8909217" lon="14.34722"><ele>18.0</ele><time>2026-04-25T07:04:45.115Z</time></trkpt><trkpt lat="40.89089" lon="14.34749"><ele>18.0</ele><time>2026-04-25T07:04:46.115Z</time></trkpt><trkpt lat="40.8908567" lon="14.3477583"><ele>18.0</ele><time>2026-04-25T07:04:47.115Z</time></trkpt><trkpt lat="40.89083" lon="14.3480233"><ele>18.0</ele><time>2026-04-25T07:04:48.115Z</time></trkpt><trkpt lat="40.8907983" lon="14.3482967"><ele>19.0</ele><time>2026-04-25T07:04:49.115Z</time></trkpt><trkpt lat="40.890765" lon="14.3485617"><ele>20.0</ele><time>2026-04-25T07:04:50.115Z</time></trkpt><trkpt lat="40.8907367" lon="14.3488317"><ele>21.0</ele><time>2026-04-25T07:04:51.115Z</time></trkpt><trkpt lat="40.89071" lon="14.3490983"><ele>21.333333333333332</ele><time>2026-04-25T07:04:52.115Z</time></trkpt><trkpt lat="40.890675" lon="14.3493667"><ele>21.666666666666664</ele><time>2026-04-25T07:04:53.115Z</time></trkpt><trkpt lat="40.89064" lon="14.349625"><ele>22.0</ele><time>2026-04-25T07:04:54.115Z</time></trkpt><trkpt lat="40.890605" lon="14.349895"><ele>21.333333333333332</ele><time>2026-04-25T07:04:55.115Z</time></trkpt><trkpt lat="40.8905683" lon="14.3501617"><ele>20.666666666666668</ele><time>2026-04-25T07:04:56.116Z</time></trkpt><trkpt lat="40.8905283" lon="14.3504267"><ele>20.0</ele><time>2026-04-25T07:04:57.115Z</time></trkpt><trkpt lat="40.8904833" lon="14.3506933"><ele>19.666666666666668</ele><time>2026-04-25T07:04:58.115Z</time></trkpt><trkpt lat="40.890445" lon="14.3509617"><ele>19.333333333333332</ele><time>2026-04-25T07:04:59.115Z</time></trkpt><trkpt lat="40.8903983" lon="14.3512217"><ele>19.0</ele><time>2026-04-25T07:05:00.115Z</time></trkpt><trkpt lat="40.890355" lon="14.3514817"><ele>19.0</ele><time>2026-04-25T07:05:01.116Z</time></trkpt><trkpt lat="40.8903017" lon="14.3517467"><ele>19.0</ele><time>2026-04-25T07:05:02.115Z</time></trkpt><trkpt lat="40.8902433" lon="14.3520067"><ele>19.0</ele><time>2026-04-25T07:05:03.115Z</time></trkpt><trkpt lat="40.8901783" lon="14.3522567"><ele>19.0</ele><time>2026-04-25T07:05:04.115Z</time></trkpt><trkpt lat="40.890105" lon="14.352505"><ele>19.0</ele><time>2026-04-25T07:05:05.115Z</time></trkpt><trkpt lat="40.8900267" lon="14.35276"><ele>19.0</ele><time>2026-04-25T07:05:06.115Z</time></trkpt><trkpt lat="40.889945" lon="14.3530033"><ele>20.333333333333332</ele><time>2026-04-25T07:05:07.115Z</time></trkpt><trkpt lat="40.8898583" lon="14.35324"><ele>21.666666666666668</ele><time>2026-04-25T07:05:08.115Z</time></trkpt><trkpt lat="40.88976" lon="14.3534667"><ele>23.0</ele><time>2026-04-25T07:05:09.115Z</time></trkpt><trkpt lat="40.8896633" lon="14.3536867"><ele>23.0</ele><time>2026-04-25T07:05:10.115Z</time></trkpt><trkpt lat="40.88956" lon="14.353905"><ele>23.0</ele><time>2026-04-25T07:05:11.115Z</time></trkpt><trkpt lat="40.8894483" lon="14.3541117"><ele>23.0</ele><time>2026-04-25T07:05:12.115Z</time></trkpt><trkpt lat="40.889335" lon="14.3543217"><ele>23.666666666666668</ele><time>2026-04-25T07:05:13.115Z</time></trkpt><trkpt lat="40.88921" lon="14.354525"><ele>24.333333333333336</ele><time>2026-04-25T07:05:14.115Z</time></trkpt><trkpt lat="40.889085" lon="14.3547167"><ele>25.0</ele><time>2026-04-25T07:05:15.115Z</time></trkpt><trkpt lat="40.888955" lon="14.3549033"><ele>25.666666666666668</ele><time>2026-04-25T07:05:16.115Z</time></trkpt><trkpt lat="40.8888217" lon="14.3550783"><ele>26.333333333333336</ele><time>2026-04-25T07:05:17.115Z</time></trkpt><trkpt lat="40.8886933" lon="14.3552333"><ele>27.0</ele><time>2026-04-25T07:05:18.115Z</time></trkpt><trkpt lat="40.888565" lon="14.3553717"><ele>27.0</ele><time>2026-04-25T07:05:19.115Z</time></trkpt><trkpt lat="40.888445" lon="14.3554983"><ele>27.0</ele><time>2026-04-25T07:05:20.115Z</time></trkpt><trkpt lat="40.8883167" lon="14.35562"><ele>27.0</ele><time>2026-04-25T07:05:21.115Z</time></trkpt><trkpt lat="40.888195" lon="14.3557317"><ele>27.0</ele><time>2026-04-25T07:05:22.115Z</time></trkpt><trkpt lat="40.8880733" lon="14.3558383"><ele>27.0</ele><time>2026-04-25T07:05:23.115Z</time></trkpt><trkpt lat="40.8879483" lon="14.35594"><ele>27.0</ele><time>2026-04-25T07:05:24.116Z</time></trkpt><trkpt lat="40.8878283" lon="14.35604"><ele>27.0</ele><time>2026-04-25T07:05:25.115Z</time></trkpt><trkpt lat="40.8877067" lon="14.3561333"><ele>26.75</ele><time>2026-04-25T07:05:26.115Z</time></trkpt><trkpt lat="40.8875833" lon="14.3562267"><ele>26.5</ele><time>2026-04-25T07:05:27.115Z</time></trkpt><trkpt lat="40.8874617" lon="14.356315"><ele>26.25</ele><time>2026-04-25T07:05:28.115Z</time></trkpt><trkpt lat="40.8873517" lon="14.356395"><ele>26.0</ele><time>2026-04-25T07:05:29.115Z</time></trkpt><trkpt lat="40.88725" lon="14.3564467"><ele>25.999999999999996</ele><time>2026-04-25T07:05:30.115Z</time></trkpt><trkpt lat="40.8871617" lon="14.3564733"><ele>26.0</ele><time>2026-04-25T07:05:31.115Z</time></trkpt><trkpt lat="40.8870817" lon="14.35648"><ele>26.0</ele><time>2026-04-25T07:05:32.116Z</time></trkpt><trkpt lat="40.8870083" lon="14.3564633"><ele>26.0</ele><time>2026-04-25T07:05:33.115Z</time></trkpt><trkpt lat="40.8869317" lon="14.3564433"><ele>25.999999999999996</ele><time>2026-04-25T07:05:34.115Z</time></trkpt><trkpt lat="40.8868533" lon="14.3564117"><ele>26.0</ele><time>2026-04-25T07:05:35.115Z</time></trkpt><trkpt lat="40.88678" lon="14.356345"><ele>26.4</ele><time>2026-04-25T07:05:36.115Z</time></trkpt><trkpt lat="40.886725" lon="14.3562567"><ele>26.8</ele><time>2026-04-25T07:05:37.115Z</time></trkpt><trkpt lat="40.8866817" lon="14.3561433"><ele>27.199999999999996</ele><time>2026-04-25T07:05:38.115Z</time></trkpt><trkpt lat="40.8866617" lon="14.35602"><ele>27.599999999999998</ele><time>2026-04-25T07:05:39.115Z</time></trkpt><trkpt lat="40.886665" lon="14.3558883"><ele>28.0</ele><time>2026-04-25T07:05:40.115Z</time></trkpt><trkpt lat="40.8866867" lon="14.35576"><ele>28.0</ele><time>2026-04-25T07:05:41.115Z</time></trkpt><trkpt lat="40.8867433" lon="14.35564"><ele>27.999999999999996</ele><time>2026-04-25T07:05:42.115Z</time></trkpt><trkpt lat="40.886825" lon="14.3555467"><ele>27.999999999999996</ele><time>2026-04-25T07:05:43.115Z</time></trkpt><trkpt lat="40.88692" lon="14.355485"><ele>28.0</ele><time>2026-04-25T07:05:44.115Z</time></trkpt><trkpt lat="40.8870267" lon="14.355435"><ele>28.0</ele><time>2026-04-25T07:05:45.115Z</time></trkpt><trkpt lat="40.8871517" lon="14.3553883"><ele>27.599999999999998</ele><time>2026-04-25T07:05:46.115Z</time></trkpt><trkpt lat="40.8872733" lon="14.3553367"><ele>27.199999999999996</ele><time>2026-04-25T07:05:47.115Z</time></trkpt><trkpt lat="40.8873867" lon="14.35529"><ele>26.8</ele><time>2026-04-25T07:05:48.115Z</time></trkpt><trkpt lat="40.88748" lon="14.355245"><ele>26.4</ele><time>2026-04-25T07:05:49.115Z</time></trkpt><trkpt lat="40.887555" lon="14.3552067"><ele>26.0</ele><time>2026-04-25T07:05:50.115Z</time></trkpt><trkpt lat="40.8876433" lon="14.355125"><ele>26.0</ele><time>2026-04-25T07:05:52.116Z</time></trkpt><trkpt lat="40.8876633" lon="14.3550367"><ele>26.0</ele><time>2026-04-25T07:05:55.115Z</time></trkpt><trkpt lat="40.8876533" lon="14.3549233"><ele>26.0</ele><time>2026-04-25T07:05:59.115Z</time></trkpt><trkpt lat="40.88758" lon="14.354795"><ele>26.0</ele><time>2026-04-25T07:06:01.115Z</time></trkpt><trkpt lat="40.88752" lon="14.3547217"><ele>26.0</ele><time>2026-04-25T07:06:02.115Z</time></trkpt><trkpt lat="40.887455" lon="14.3546383"><ele>26.0</ele><time>2026-04-25T07:06:03.115Z</time></trkpt><trkpt lat="40.88739" lon="14.3545483"><ele>26.0</ele><time>2026-04-25T07:06:04.115Z</time></trkpt><trkpt lat="40.8873167" lon="14.3544517"><ele>26.0</ele><time>2026-04-25T07:06:05.115Z</time></trkpt><trkpt lat="40.88723" lon="14.3543517"><ele>26.0</ele><time>2026-04-25T07:06:06.116Z</time></trkpt><trkpt lat="40.8871367" lon="14.3542567"><ele>26.0</ele><time>2026-04-25T07:06:07.115Z</time></trkpt><trkpt lat="40.8870333" lon="14.3541517"><ele>26.0</ele><time>2026-04-25T07:06:08.115Z</time></trkpt><trkpt lat="40.8869417" lon="14.35404"><ele>26.0</ele><time>2026-04-25T07:06:09.115Z</time></trkpt><trkpt lat="40.8868517" lon="14.3539317"><ele>26.0</ele><time>2026-04-25T07:06:10.115Z</time></trkpt><trkpt lat="40.886765" lon="14.3538233"><ele>26.0</ele><time>2026-04-25T07:06:11.115Z</time></trkpt><trkpt lat="40.8866833" lon="14.3537283"><ele>25.8</ele><time>2026-04-25T07:06:12.115Z</time></trkpt><trkpt lat="40.88661" lon="14.353635"><ele>25.6</ele><time>2026-04-25T07:06:13.115Z</time></trkpt><trkpt lat="40.8865317" lon="14.3535467"><ele>25.4</ele><time>2026-04-25T07:06:14.115Z</time></trkpt><trkpt lat="40.8864467" lon="14.353455"><ele>25.2</ele><time>2026-04-25T07:06:15.115Z</time></trkpt><trkpt lat="40.8863617" lon="14.3533633"><ele>25.0</ele><time>2026-04-25T07:06:16.115Z</time></trkpt><trkpt lat="40.8862783" lon="14.3532667"><ele>25.000000000000004</ele><time>2026-04-25T07:06:17.115Z</time></trkpt><trkpt lat="40.8862" lon="14.353175"><ele>25.0</ele><time>2026-04-25T07:06:18.115Z</time></trkpt><trkpt lat="40.8861367" lon="14.3531"><ele>25.0</ele><time>2026-04-25T07:06:19.115Z</time></trkpt><trkpt lat="40.8860867" lon="14.3530433"><ele>25.0</ele><time>2026-04-25T07:06:20.115Z</time></trkpt><trkpt lat="40.8860317" lon="14.3529733"><ele>25.000000000000004</ele><time>2026-04-25T07:06:22.115Z</time></trkpt><trkpt lat="40.8859833" lon="14.3528883"><ele>25.0</ele><time>2026-04-25T07:06:25.115Z</time></trkpt><trkpt lat="40.885945" lon="14.35282"><ele>25.2</ele><time>2026-04-25T07:06:26.116Z</time></trkpt><trkpt lat="40.8859067" lon="14.3527283"><ele>25.4</ele><time>2026-04-25T07:06:27.115Z</time></trkpt><trkpt lat="40.8858783" lon="14.352625"><ele>25.6</ele><time>2026-04-25T07:06:28.115Z</time></trkpt><trkpt lat="40.885855" lon="14.3525317"><ele>25.8</ele><time>2026-04-25T07:06:29.115Z</time></trkpt><trkpt lat="40.8858133" lon="14.352385"><ele>26.0</ele><time>2026-04-25T07:06:31.115Z</time></trkpt><trkpt lat="40.8857833" lon="14.352215"><ele>25.8</ele><time>2026-04-25T07:06:33.115Z</time></trkpt><trkpt lat="40.8857667" lon="14.3521033"><ele>25.6</ele><time>2026-04-25T07:06:34.115Z</time></trkpt><trkpt lat="40.88574" lon="14.3519683"><ele>25.4</ele><time>2026-04-25T07:06:35.115Z</time></trkpt><trkpt lat="40.885705" lon="14.35184"><ele>25.2</ele><time>2026-04-25T07:06:36.115Z</time></trkpt><trkpt lat="40.88567" lon="14.3517"><ele>25.0</ele><time>2026-04-25T07:06:37.115Z</time></trkpt><trkpt lat="40.8856167" lon="14.351555"><ele>25.0</ele><time>2026-04-25T07:06:38.115Z</time></trkpt><trkpt lat="40.8855633" lon="14.3514117"><ele>25.0</ele><time>2026-04-25T07:06:39.115Z</time></trkpt><trkpt lat="40.8855033" lon="14.35127"><ele>25.0</ele><time>2026-04-25T07:06:40.115Z</time></trkpt><trkpt lat="40.8854383" lon="14.3511417"><ele>25.0</ele><time>2026-04-25T07:06:41.115Z</time></trkpt><trkpt lat="40.885375" lon="14.351025"><ele>25.0</ele><time>2026-04-25T07:06:42.115Z</time></trkpt><trkpt lat="40.88531" lon="14.350925"><ele>25.0</ele><time>2026-04-25T07:06:43.115Z</time></trkpt><trkpt lat="40.8852417" lon="14.35083"><ele>25.0</ele><time>2026-04-25T07:06:44.115Z</time></trkpt><trkpt lat="40.88517" lon="14.3507367"><ele>25.0</ele><time>2026-04-25T07:06:45.115Z</time></trkpt><trkpt lat="40.885095" lon="14.3506483"><ele>25.0</ele><time>2026-04-25T07:06:46.115Z</time></trkpt><trkpt lat="40.88502" lon="14.3505567"><ele>24.8</ele><time>2026-04-25T07:06:47.115Z</time></trkpt><trkpt lat="40.88494" lon="14.3504583"><ele>24.6</ele><time>2026-04-25T07:06:48.115Z</time></trkpt><trkpt lat="40.88486" lon="14.350375"><ele>24.4</ele><time>2026-04-25T07:06:49.115Z</time></trkpt><trkpt lat="40.8847867" lon="14.3503"><ele>24.2</ele><time>2026-04-25T07:06:50.115Z</time></trkpt><trkpt lat="40.8847233" lon="14.3502317"><ele>24.0</ele><time>2026-04-25T07:06:51.115Z</time></trkpt><trkpt lat="40.88467" lon="14.3501767"><ele>24.0</ele><time>2026-04-25T07:06:52.115Z</time></trkpt><trkpt lat="40.884565" lon="14.3500833"><ele>24.0</ele><time>2026-04-25T07:06:54.115Z</time></trkpt><trkpt lat="40.8845067" lon="14.350035"><ele>24.0</ele><time>2026-04-25T07:06:55.115Z</time></trkpt><trkpt lat="40.8844433" lon="14.3499767"><ele>24.0</ele><time>2026-04-25T07:06:56.115Z</time></trkpt><trkpt lat="40.884385" lon="14.3499217"><ele>24.0</ele><time>2026-04-25T07:06:57.115Z</time></trkpt><trkpt lat="40.88433" lon="14.3498633"><ele>24.0</ele><time>2026-04-25T07:06:58.115Z</time></trkpt><trkpt lat="40.8842767" lon="14.3498067"><ele>24.0</ele><time>2026-04-25T07:06:59.115Z</time></trkpt><trkpt lat="40.8841867" lon="14.3497133"><ele>24.0</ele><time>2026-04-25T07:07:01.115Z</time></trkpt><trkpt lat="40.8841083" lon="14.3496383"><ele>24.0</ele><time>2026-04-25T07:07:03.115Z</time></trkpt><trkpt lat="40.8840617" lon="14.3495767"><ele>24.0</ele><time>2026-04-25T07:07:05.115Z</time></trkpt><trkpt lat="40.8840067" lon="14.3495033"><ele>24.0</ele><time>2026-04-25T07:07:08.115Z</time></trkpt><trkpt lat="40.8839517" lon="14.34942"><ele>24.0</ele><time>2026-04-25T07:07:11.115Z</time></trkpt><trkpt lat="40.8838967" lon="14.3493383"><ele>23.833333333333332</ele><time>2026-04-25T07:07:14.115Z</time></trkpt><trkpt lat="40.883845" lon="14.3492383"><ele>23.666666666666668</ele><time>2026-04-25T07:07:17.115Z</time></trkpt><trkpt lat="40.8837717" lon="14.3491367"><ele>23.5</ele><time>2026-04-25T07:07:19.115Z</time></trkpt><trkpt lat="40.883725" lon="14.349065"><ele>23.333333333333336</ele><time>2026-04-25T07:07:20.115Z</time></trkpt><trkpt lat="40.8836667" lon="14.3489883"><ele>23.166666666666668</ele><time>2026-04-25T07:07:21.115Z</time></trkpt><trkpt lat="40.883605" lon="14.3489117"><ele>23.0</ele><time>2026-04-25T07:07:22.115Z</time></trkpt><trkpt lat="40.8835367" lon="14.348825"><ele>23.0</ele><time>2026-04-25T07:07:23.115Z</time></trkpt><trkpt lat="40.88346" lon="14.3487167"><ele>23.0</ele><time>2026-04-25T07:07:24.115Z</time></trkpt><trkpt lat="40.8833767" lon="14.3486217"><ele>23.0</ele><time>2026-04-25T07:07:25.115Z</time></trkpt><trkpt lat="40.8832817" lon="14.3485283"><ele>23.0</ele><time>2026-04-25T07:07:26.115Z</time></trkpt><trkpt lat="40.8831967" lon="14.34845"><ele>23.0</ele><time>2026-04-25T07:07:27.116Z</time></trkpt><trkpt lat="40.88312" lon="14.34838"><ele>23.0</ele><time>2026-04-25T07:07:28.115Z</time></trkpt><trkpt lat="40.88305" lon="14.3483167"><ele>23.0</ele><time>2026-04-25T07:07:29.115Z</time></trkpt><trkpt lat="40.8829867" lon="14.3482633"><ele>23.0</ele><time>2026-04-25T07:07:30.115Z</time></trkpt><trkpt lat="40.88293" lon="14.3482183"><ele>23.0</ele><time>2026-04-25T07:07:31.115Z</time></trkpt><trkpt lat="40.8828733" lon="14.3481717"><ele>23.0</ele><time>2026-04-25T07:07:32.115Z</time></trkpt><trkpt lat="40.8828167" lon="14.34812"><ele>23.0</ele><time>2026-04-25T07:07:33.115Z</time></trkpt><trkpt lat="40.882755" lon="14.3480733"><ele>23.0</ele><time>2026-04-25T07:07:34.115Z</time></trkpt><trkpt lat="40.8826967" lon="14.3480233"><ele>23.0</ele><time>2026-04-25T07:07:35.115Z</time></trkpt><trkpt lat="40.8826383" lon="14.347975"><ele>23.0</ele><time>2026-04-25T07:07:36.116Z</time></trkpt><trkpt lat="40.8825833" lon="14.34793"><ele>23.0</ele><time>2026-04-25T07:07:37.115Z</time></trkpt><trkpt lat="40.8824817" lon="14.3478533"><ele>23.0</ele><time>2026-04-25T07:07:39.115Z</time></trkpt><trkpt lat="40.8823783" lon="14.34777"><ele>23.0</ele><time>2026-04-25T07:07:41.115Z</time></trkpt><trkpt lat="40.882325" lon="14.3477183"><ele>23.0</ele><time>2026-04-25T07:07:42.115Z</time></trkpt><trkpt lat="40.8822717" lon="14.34766"><ele>22.833333333333336</ele><time>2026-04-25T07:07:43.115Z</time></trkpt><trkpt lat="40.8822133" lon="14.3476"><ele>22.666666666666668</ele><time>2026-04-25T07:07:44.116Z</time></trkpt><trkpt lat="40.8821533" lon="14.347535"><ele>22.5</ele><time>2026-04-25T07:07:45.115Z</time></trkpt><trkpt lat="40.8821" lon="14.34746"><ele>22.333333333333332</ele><time>2026-04-25T07:07:46.115Z</time></trkpt><trkpt lat="40.882045" lon="14.3473833"><ele>22.166666666666664</ele><time>2026-04-25T07:07:47.116Z</time></trkpt><trkpt lat="40.8819983" lon="14.347295"><ele>22.0</ele><time>2026-04-25T07:07:48.115Z</time></trkpt><trkpt lat="40.8819483" lon="14.3471933"><ele>21.8</ele><time>2026-04-25T07:07:49.115Z</time></trkpt><trkpt lat="40.8819117" lon="14.3470967"><ele>21.6</ele><time>2026-04-25T07:07:50.115Z</time></trkpt><trkpt lat="40.8818683" lon="14.3469883"><ele>21.400000000000002</ele><time>2026-04-25T07:07:51.115Z</time></trkpt><trkpt lat="40.881825" lon="14.3468683"><ele>21.200000000000003</ele><time>2026-04-25T07:07:52.115Z</time></trkpt><trkpt lat="40.8817783" lon="14.3467483"><ele>21.0</ele><time>2026-04-25T07:07:53.115Z</time></trkpt><trkpt lat="40.8817333" lon="14.3466317"><ele>21.0</ele><time>2026-04-25T07:07:54.115Z</time></trkpt><trkpt lat="40.8816883" lon="14.3465233"><ele>21.0</ele><time>2026-04-25T07:07:55.115Z</time></trkpt><trkpt lat="40.8816417" lon="14.3464"><ele>21.0</ele><time>2026-04-25T07:07:56.115Z</time></trkpt><trkpt lat="40.8815983" lon="14.3462783"><ele>21.0</ele><time>2026-04-25T07:07:57.115Z</time></trkpt><trkpt lat="40.8815683" lon="14.3461583"><ele>21.0</ele><time>2026-04-25T07:07:58.115Z</time></trkpt><trkpt lat="40.8815283" lon="14.34604"><ele>21.0</ele><time>2026-04-25T07:07:59.115Z</time></trkpt><trkpt lat="40.8814917" lon="14.34592"><ele>21.0</ele><time>2026-04-25T07:08:00.115Z</time></trkpt><trkpt lat="40.88145" lon="14.3458067"><ele>21.0</ele><time>2026-04-25T07:08:01.116Z</time></trkpt><trkpt lat="40.8814117" lon="14.34569"><ele>21.0</ele><time>2026-04-25T07:08:02.115Z</time></trkpt><trkpt lat="40.8813767" lon="14.3455783"><ele>21.0</ele><time>2026-04-25T07:08:03.115Z</time></trkpt><trkpt lat="40.8813367" lon="14.34547"><ele>21.0</ele><time>2026-04-25T07:08:04.115Z</time></trkpt><trkpt lat="40.8812883" lon="14.3453667"><ele>21.0</ele><time>2026-04-25T07:08:05.115Z</time></trkpt><trkpt lat="40.88124" lon="14.3452667"><ele>21.0</ele><time>2026-04-25T07:08:06.115Z</time></trkpt><trkpt lat="40.8811933" lon="14.345165"><ele>21.0</ele><time>2026-04-25T07:08:07.115Z</time></trkpt><trkpt lat="40.8811483" lon="14.3450717"><ele>21.0</ele><time>2026-04-25T07:08:08.116Z</time></trkpt><trkpt lat="40.8811033" lon="14.3449767"><ele>21.0</ele><time>2026-04-25T07:08:09.115Z</time></trkpt><trkpt lat="40.8810517" lon="14.344885"><ele>21.0</ele><time>2026-04-25T07:08:10.115Z</time></trkpt><trkpt lat="40.8809983" lon="14.3447933"><ele>21.0</ele><time>2026-04-25T07:08:11.115Z</time></trkpt><trkpt lat="40.8809433" lon="14.3446983"><ele>21.0</ele><time>2026-04-25T07:08:12.115Z</time></trkpt><trkpt lat="40.880885" lon="14.3446083"><ele>21.0</ele><time>2026-04-25T07:08:13.116Z</time></trkpt><trkpt lat="40.880825" lon="14.3445133"><ele>21.0</ele><time>2026-04-25T07:08:14.115Z</time></trkpt><trkpt lat="40.88077" lon="14.34443"><ele>21.0</ele><time>2026-04-25T07:08:15.115Z</time></trkpt><trkpt lat="40.8807167" lon="14.3443467"><ele>21.0</ele><time>2026-04-25T07:08:16.115Z</time></trkpt><trkpt lat="40.88066" lon="14.3442633"><ele>21.0</ele><time>2026-04-25T07:08:17.116Z</time></trkpt><trkpt lat="40.8806" lon="14.3441783"><ele>21.0</ele><time>2026-04-25T07:08:18.115Z</time></trkpt><trkpt lat="40.88054" lon="14.344095"><ele>21.0</ele><time>2026-04-25T07:08:19.115Z</time></trkpt><trkpt lat="40.880475" lon="14.3440183"><ele>21.0</ele><time>2026-04-25T07:08:20.115Z</time></trkpt><trkpt lat="40.88041" lon="14.3439333"><ele>21.0</ele><time>2026-04-25T07:08:21.115Z</time></trkpt><trkpt lat="40.88034" lon="14.3438583"><ele>21.0</ele><time>2026-04-25T07:08:22.115Z</time></trkpt><trkpt lat="40.88029" lon="14.3437817"><ele>21.0</ele><time>2026-04-25T07:08:23.115Z</time></trkpt><trkpt lat="40.88024" lon="14.3437183"><ele>21.0</ele><time>2026-04-25T07:08:24.115Z</time></trkpt><trkpt lat="40.8801617" lon="14.3436167"><ele>21.0</ele><time>2026-04-25T07:08:26.115Z</time></trkpt><trkpt lat="40.8800983" lon="14.3435333"><ele>21.0</ele><time>2026-04-25T07:08:28.115Z</time></trkpt><trkpt lat="40.88001" lon="14.3434467"><ele>21.166666666666668</ele><time>2026-04-25T07:08:33.115Z</time></trkpt><trkpt lat="40.8799633" lon="14.343345"><ele>21.333333333333332</ele><time>2026-04-25T07:08:43.115Z</time></trkpt><trkpt lat="40.8798633" lon="14.3433067"><ele>21.5</ele><time>2026-04-25T07:08:45.115Z</time></trkpt><trkpt lat="40.879785" lon="14.34329"><ele>21.666666666666664</ele><time>2026-04-25T07:08:46.115Z</time></trkpt><trkpt lat="40.8797083" lon="14.3432767"><ele>21.833333333333332</ele><time>2026-04-25T07:08:47.115Z</time></trkpt><trkpt lat="40.8796183" lon="14.3432517"><ele>22.0</ele><time>2026-04-25T07:08:48.115Z</time></trkpt><trkpt lat="40.879525" lon="14.3432333"><ele>22.0</ele><time>2026-04-25T07:08:49.115Z</time></trkpt><trkpt lat="40.8794333" lon="14.343215"><ele>22.0</ele><time>2026-04-25T07:08:50.115Z</time></trkpt><trkpt lat="40.8793367" lon="14.3431967"><ele>22.0</ele><time>2026-04-25T07:08:51.115Z</time></trkpt><trkpt lat="40.8792317" lon="14.3431783"><ele>22.0</ele><time>2026-04-25T07:08:52.115Z</time></trkpt><trkpt lat="40.8791367" lon="14.3431583"><ele>22.0</ele><time>2026-04-25T07:08:53.115Z</time></trkpt><trkpt lat="40.879055" lon="14.343135"><ele>22.166666666666664</ele><time>2026-04-25T07:08:54.115Z</time></trkpt><trkpt lat="40.8789733" lon="14.3431033"><ele>22.333333333333332</ele><time>2026-04-25T07:08:55.115Z</time></trkpt><trkpt lat="40.8788917" lon="14.3430883"><ele>22.5</ele><time>2026-04-25T07:08:56.115Z</time></trkpt><trkpt lat="40.87882" lon="14.3430683"><ele>22.666666666666668</ele><time>2026-04-25T07:08:57.115Z</time></trkpt><trkpt lat="40.8787483" lon="14.34305"><ele>22.833333333333336</ele><time>2026-04-25T07:08:58.115Z</time></trkpt><trkpt lat="40.8786717" lon="14.3430283"><ele>23.0</ele><time>2026-04-25T07:08:59.115Z</time></trkpt><trkpt lat="40.8785883" lon="14.342995"><ele>23.0</ele><time>2026-04-25T07:09:00.115Z</time></trkpt><trkpt lat="40.878495" lon="14.3429583"><ele>23.0</ele><time>2026-04-25T07:09:01.115Z</time></trkpt><trkpt lat="40.87841" lon="14.3429167"><ele>23.0</ele><time>2026-04-25T07:09:02.115Z</time></trkpt><trkpt lat="40.8783483" lon="14.3428767"><ele>23.0</ele><time>2026-04-25T07:09:03.115Z</time></trkpt><trkpt lat="40.8782533" lon="14.34281"><ele>23.0</ele><time>2026-04-25T07:09:05.115Z</time></trkpt><trkpt lat="40.878155" lon="14.34272"><ele>23.28571428571429</ele><time>2026-04-25T07:09:07.116Z</time></trkpt><trkpt lat="40.8781" lon="14.3426783"><ele>23.57142857142857</ele><time>2026-04-25T07:09:08.115Z</time></trkpt><trkpt lat="40.87804" lon="14.342625"><ele>23.857142857142858</ele><time>2026-04-25T07:09:09.115Z</time></trkpt><trkpt lat="40.8779817" lon="14.3425617"><ele>24.142857142857146</ele><time>2026-04-25T07:09:10.115Z</time></trkpt><trkpt lat="40.8779217" lon="14.342515"><ele>24.42857142857143</ele><time>2026-04-25T07:09:11.115Z</time></trkpt><trkpt lat="40.877865" lon="14.342465"><ele>24.714285714285715</ele><time>2026-04-25T07:09:12.115Z</time></trkpt><trkpt lat="40.8778117" lon="14.3424067"><ele>25.0</ele><time>2026-04-25T07:09:13.115Z</time></trkpt><trkpt lat="40.8777583" lon="14.342345"><ele>25.000000000000004</ele><time>2026-04-25T07:09:14.115Z</time></trkpt><trkpt lat="40.8777033" lon="14.3422917"><ele>25.0</ele><time>2026-04-25T07:09:15.115Z</time></trkpt><trkpt lat="40.8776533" lon="14.342235"><ele>25.0</ele><time>2026-04-25T07:09:16.115Z</time></trkpt><trkpt lat="40.877605" lon="14.3421767"><ele>25.0</ele><time>2026-04-25T07:09:17.116Z</time></trkpt><trkpt lat="40.8775533" lon="14.3421083"><ele>25.0</ele><time>2026-04-25T07:09:18.115Z</time></trkpt><trkpt lat="40.8775033" lon="14.3420383"><ele>25.000000000000004</ele><time>2026-04-25T07:09:19.115Z</time></trkpt><trkpt lat="40.8774533" lon="14.34198"><ele>25.0</ele><time>2026-04-25T07:09:20.115Z</time></trkpt><trkpt lat="40.8773633" lon="14.3418583"><ele>25.000000000000004</ele><time>2026-04-25T07:09:22.115Z</time></trkpt><trkpt lat="40.87731" lon="14.341795"><ele>25.0</ele><time>2026-04-25T07:09:23.115Z</time></trkpt><trkpt lat="40.87725" lon="14.341735"><ele>25.0</ele><time>2026-04-25T07:09:24.115Z</time></trkpt><trkpt lat="40.8771883" lon="14.3416767"><ele>25.0</ele><time>2026-04-25T07:09:25.115Z</time></trkpt><trkpt lat="40.8771283" lon="14.3416267"><ele>25.0</ele><time>2026-04-25T07:09:26.116Z</time></trkpt><trkpt lat="40.8770683" lon="14.3415817"><ele>25.000000000000004</ele><time>2026-04-25T07:09:27.115Z</time></trkpt><trkpt lat="40.8770067" lon="14.3415283"><ele>25.0</ele><time>2026-04-25T07:09:28.115Z</time></trkpt><trkpt lat="40.8769417" lon="14.3414717"><ele>25.000000000000004</ele><time>2026-04-25T07:09:29.115Z</time></trkpt><trkpt lat="40.87688" lon="14.341415"><ele>25.0</ele><time>2026-04-25T07:09:30.115Z</time></trkpt><trkpt lat="40.8768217" lon="14.3413617"><ele>25.0</ele><time>2026-04-25T07:09:31.115Z</time></trkpt><trkpt lat="40.8767717" lon="14.3413033"><ele>25.0</ele><time>2026-04-25T07:09:32.115Z</time></trkpt><trkpt lat="40.87672" lon="14.3412533"><ele>25.0</ele><time>2026-04-25T07:09:33.115Z</time></trkpt><trkpt lat="40.8766683" lon="14.341205"><ele>25.000000000000004</ele><time>2026-04-25T07:09:34.115Z</time></trkpt><trkpt lat="40.8766083" lon="14.341145"><ele>25.0</ele><time>2026-04-25T07:09:35.115Z</time></trkpt><trkpt lat="40.8765533" lon="14.34108"><ele>25.000000000000004</ele><time>2026-04-25T07:09:36.115Z</time></trkpt><trkpt lat="40.8765133" lon="14.341"><ele>25.0</ele><time>2026-04-25T07:09:37.115Z</time></trkpt><trkpt lat="40.87649" lon="14.3409183"><ele>25.0</ele><time>2026-04-25T07:09:38.116Z</time></trkpt><trkpt lat="40.8764517" lon="14.3408317"><ele>25.0</ele><time>2026-04-25T07:09:39.116Z</time></trkpt><trkpt lat="40.8764083" lon="14.3407267"><ele>25.000000000000004</ele><time>2026-04-25T07:09:40.115Z</time></trkpt><trkpt lat="40.8763633" lon="14.34061"><ele>25.0</ele><time>2026-04-25T07:09:41.115Z</time></trkpt><trkpt lat="40.8763183" lon="14.3404917"><ele>24.2</ele><time>2026-04-25T07:09:42.115Z</time></trkpt><trkpt lat="40.87628" lon="14.340365"><ele>23.4</ele><time>2026-04-25T07:09:43.115Z</time></trkpt><trkpt lat="40.8762383" lon="14.3402417"><ele>22.6</ele><time>2026-04-25T07:09:44.115Z</time></trkpt><trkpt lat="40.8762017" lon="14.3401183"><ele>21.8</ele><time>2026-04-25T07:09:45.115Z</time></trkpt><trkpt lat="40.8761717" lon="14.3400117"><ele>21.0</ele><time>2026-04-25T07:09:46.115Z</time></trkpt><trkpt lat="40.876135" lon="14.33992"><ele>21.0</ele><time>2026-04-25T07:09:47.115Z</time></trkpt><trkpt lat="40.8761033" lon="14.3398283"><ele>21.0</ele><time>2026-04-25T07:09:48.115Z</time></trkpt><trkpt lat="40.8760733" lon="14.3397383"><ele>21.0</ele><time>2026-04-25T07:09:49.115Z</time></trkpt><trkpt lat="40.87604" lon="14.3396417"><ele>21.0</ele><time>2026-04-25T07:09:50.115Z</time></trkpt><trkpt lat="40.87601" lon="14.33954"><ele>21.0</ele><time>2026-04-25T07:09:51.115Z</time></trkpt><trkpt lat="40.8759867" lon="14.3394317"><ele>21.0</ele><time>2026-04-25T07:09:52.115Z</time></trkpt><trkpt lat="40.8759517" lon="14.3393167"><ele>21.200000000000003</ele><time>2026-04-25T07:09:53.115Z</time></trkpt><trkpt lat="40.8759117" lon="14.3391917"><ele>21.400000000000002</ele><time>2026-04-25T07:09:54.115Z</time></trkpt><trkpt lat="40.8758583" lon="14.339065"><ele>21.6</ele><time>2026-04-25T07:09:55.115Z</time></trkpt><trkpt lat="40.8757983" lon="14.3389367"><ele>21.8</ele><time>2026-04-25T07:09:56.115Z</time></trkpt><trkpt lat="40.8757383" lon="14.3388083"><ele>22.0</ele><time>2026-04-25T07:09:57.115Z</time></trkpt><trkpt lat="40.87568" lon="14.33868"><ele>22.0</ele><time>2026-04-25T07:09:58.115Z</time></trkpt><trkpt lat="40.8756167" lon="14.3385617"><ele>22.0</ele><time>2026-04-25T07:09:59.115Z</time></trkpt><trkpt lat="40.8755567" lon="14.338455"><ele>22.0</ele><time>2026-04-25T07:10:00.115Z</time></trkpt><trkpt lat="40.87549" lon="14.33835"><ele>22.0</ele><time>2026-04-25T07:10:01.115Z</time></trkpt><trkpt lat="40.875435" lon="14.338245"><ele>22.0</ele><time>2026-04-25T07:10:02.115Z</time></trkpt><trkpt lat="40.8753683" lon="14.3381467"><ele>22.0</ele><time>2026-04-25T07:10:03.115Z</time></trkpt><trkpt lat="40.8752983" lon="14.3380517"><ele>22.0</ele><time>2026-04-25T07:10:04.115Z</time></trkpt><trkpt lat="40.8752383" lon="14.33795"><ele>22.0</ele><time>2026-04-25T07:10:05.115Z</time></trkpt><trkpt lat="40.8751767" lon="14.3378517"><ele>22.0</ele><time>2026-04-25T07:10:06.115Z</time></trkpt><trkpt lat="40.8751167" lon="14.3377467"><ele>22.0</ele><time>2026-04-25T07:10:07.115Z</time></trkpt><trkpt lat="40.8750633" lon="14.3376417"><ele>22.166666666666664</ele><time>2026-04-25T07:10:08.115Z</time></trkpt><trkpt lat="40.875005" lon="14.3375467"><ele>22.333333333333332</ele><time>2026-04-25T07:10:09.115Z</time></trkpt><trkpt lat="40.8749533" lon="14.337455"><ele>22.5</ele><time>2026-04-25T07:10:10.115Z</time></trkpt><trkpt lat="40.8749117" lon="14.337365"><ele>22.666666666666668</ele><time>2026-04-25T07:10:11.115Z</time></trkpt><trkpt lat="40.87487" lon="14.3372817"><ele>22.833333333333336</ele><time>2026-04-25T07:10:12.116Z</time></trkpt><trkpt lat="40.874825" lon="14.3372067"><ele>23.0</ele><time>2026-04-25T07:10:13.115Z</time></trkpt><trkpt lat="40.8747783" lon="14.337145"><ele>23.0</ele><time>2026-04-25T07:10:14.115Z</time></trkpt><trkpt lat="40.8747233" lon="14.3370233"><ele>23.0</ele><time>2026-04-25T07:10:16.115Z</time></trkpt><trkpt lat="40.8746817" lon="14.3369267"><ele>23.0</ele><time>2026-04-25T07:10:18.115Z</time></trkpt><trkpt lat="40.8746117" lon="14.3368683"><ele>23.0</ele><time>2026-04-25T07:10:21.115Z</time></trkpt><trkpt lat="40.8745467" lon="14.33691"><ele>23.0</ele><time>2026-04-25T07:10:27.116Z</time></trkpt><trkpt lat="40.8744367" lon="14.3370217"><ele>23.0</ele><time>2026-04-25T07:10:29.115Z</time></trkpt><trkpt lat="40.8743733" lon="14.337095"><ele>23.0</ele><time>2026-04-25T07:10:30.115Z</time></trkpt><trkpt lat="40.874315" lon="14.3371583"><ele>23.0</ele><time>2026-04-25T07:10:31.116Z</time></trkpt><trkpt lat="40.87426" lon="14.3372033"><ele>23.0</ele><time>2026-04-25T07:10:32.115Z</time></trkpt><trkpt lat="40.8741867" lon="14.33725"><ele>23.0</ele><time>2026-04-25T07:10:33.115Z</time></trkpt><trkpt lat="40.87411" lon="14.337305"><ele>23.0</ele><time>2026-04-25T07:10:34.115Z</time></trkpt><trkpt lat="40.8740267" lon="14.3373633"><ele>23.599999999999998</ele><time>2026-04-25T07:10:35.115Z</time></trkpt><trkpt lat="40.8739483" lon="14.3374283"><ele>24.2</ele><time>2026-04-25T07:10:36.115Z</time></trkpt><trkpt lat="40.8738617" lon="14.3375067"><ele>24.8</ele><time>2026-04-25T07:10:37.115Z</time></trkpt><trkpt lat="40.8737767" lon="14.3375783"><ele>25.4</ele><time>2026-04-25T07:10:38.115Z</time></trkpt><trkpt lat="40.8736867" lon="14.3376517"><ele>26.0</ele><time>2026-04-25T07:10:39.115Z</time></trkpt><trkpt lat="40.8736" lon="14.3377167"><ele>25.999999999999996</ele><time>2026-04-25T07:10:40.115Z</time></trkpt><trkpt lat="40.8735183" lon="14.3377817"><ele>26.0</ele><time>2026-04-25T07:10:41.115Z</time></trkpt><trkpt lat="40.87345" lon="14.33784"><ele>26.0</ele><time>2026-04-25T07:10:42.115Z</time></trkpt><trkpt lat="40.8733933" lon="14.33788"><ele>26.0</ele><time>2026-04-25T07:10:43.115Z</time></trkpt><trkpt lat="40.8733367" lon="14.3379217"><ele>25.999999999999996</ele><time>2026-04-25T07:10:44.115Z</time></trkpt><trkpt lat="40.8732733" lon="14.33797"><ele>26.0</ele><time>2026-04-25T07:10:45.115Z</time></trkpt><trkpt lat="40.8732017" lon="14.3380267"><ele>25.8</ele><time>2026-04-25T07:10:46.115Z</time></trkpt><trkpt lat="40.8731183" lon="14.338095"><ele>25.6</ele><time>2026-04-25T07:10:47.115Z</time></trkpt><trkpt lat="40.87303" lon="14.338165"><ele>25.4</ele><time>2026-04-25T07:10:48.115Z</time></trkpt><trkpt lat="40.872935" lon="14.33825"><ele>25.2</ele><time>2026-04-25T07:10:49.115Z</time></trkpt><trkpt lat="40.8728417" lon="14.33834"><ele>25.0</ele><time>2026-04-25T07:10:50.115Z</time></trkpt><trkpt lat="40.8727483" lon="14.3384267"><ele>25.0</ele><time>2026-04-25T07:10:51.115Z</time></trkpt><trkpt lat="40.8726517" lon="14.3385117"><ele>25.0</ele><time>2026-04-25T07:10:52.115Z</time></trkpt><trkpt lat="40.872555" lon="14.3386"><ele>25.0</ele><time>2026-04-25T07:10:53.115Z</time></trkpt><trkpt lat="40.872465" lon="14.3386883"><ele>25.0</ele><time>2026-04-25T07:10:54.115Z</time></trkpt><trkpt lat="40.8723767" lon="14.338775"><ele>25.0</ele><time>2026-04-25T07:10:55.115Z</time></trkpt><trkpt lat="40.8722867" lon="14.33886"><ele>25.0</ele><time>2026-04-25T07:10:56.115Z</time></trkpt><trkpt lat="40.8721967" lon="14.3389517"><ele>25.0</ele><time>2026-04-25T07:10:57.115Z</time></trkpt><trkpt lat="40.8721133" lon="14.3390417"><ele>25.0</ele><time>2026-04-25T07:10:58.115Z</time></trkpt><trkpt lat="40.8720283" lon="14.3391317"><ele>25.0</ele><time>2026-04-25T07:10:59.115Z</time></trkpt><trkpt lat="40.871945" lon="14.3392117"><ele>25.000000000000004</ele><time>2026-04-25T07:11:00.115Z</time></trkpt><trkpt lat="40.8718683" lon="14.3392933"><ele>25.0</ele><time>2026-04-25T07:11:01.115Z</time></trkpt><trkpt lat="40.8717917" lon="14.339365"><ele>25.0</ele><time>2026-04-25T07:11:02.115Z</time></trkpt><trkpt lat="40.87172" lon="14.33943"><ele>25.0</ele><time>2026-04-25T07:11:03.115Z</time></trkpt><trkpt lat="40.8716517" lon="14.339495"><ele>25.000000000000004</ele><time>2026-04-25T07:11:04.115Z</time></trkpt><trkpt lat="40.8715867" lon="14.33956"><ele>25.0</ele><time>2026-04-25T07:11:05.115Z</time></trkpt><trkpt lat="40.8715283" lon="14.3396183"><ele>25.166666666666668</ele><time>2026-04-25T07:11:06.115Z</time></trkpt><trkpt lat="40.8714367" lon="14.3397067"><ele>25.333333333333336</ele><time>2026-04-25T07:11:08.115Z</time></trkpt><trkpt lat="40.8713633" lon="14.339725"><ele>25.5</ele><time>2026-04-25T07:11:10.116Z</time></trkpt><trkpt lat="40.8712817" lon="14.3396333"><ele>25.666666666666664</ele><time>2026-04-25T07:11:12.115Z</time></trkpt><trkpt lat="40.8712367" lon="14.3395533"><ele>25.833333333333332</ele><time>2026-04-25T07:11:13.115Z</time></trkpt><trkpt lat="40.8711917" lon="14.3394683"><ele>26.0</ele><time>2026-04-25T07:11:14.115Z</time></trkpt><trkpt lat="40.8711483" lon="14.33938"><ele>26.0</ele><time>2026-04-25T07:11:15.115Z</time></trkpt><trkpt lat="40.8711033" lon="14.3392917"><ele>26.0</ele><time>2026-04-25T07:11:16.115Z</time></trkpt><trkpt lat="40.87106" lon="14.3392167"><ele>26.0</ele><time>2026-04-25T07:11:17.115Z</time></trkpt><trkpt lat="40.8710067" lon="14.3390983"><ele>26.0</ele><time>2026-04-25T07:11:19.115Z</time></trkpt><trkpt lat="40.8709817" lon="14.3389867"><ele>26.0</ele><time>2026-04-25T07:11:21.115Z</time></trkpt><trkpt lat="40.8709517" lon="14.3388367"><ele>25.8</ele><time>2026-04-25T07:11:23.115Z</time></trkpt><trkpt lat="40.870895" lon="14.338745"><ele>25.6</ele><time>2026-04-25T07:11:25.115Z</time></trkpt><trkpt lat="40.8708017" lon="14.3387267"><ele>25.4</ele><time>2026-04-25T07:11:27.115Z</time></trkpt><trkpt lat="40.8707267" lon="14.3387867"><ele>25.2</ele><time>2026-04-25T07:11:29.115Z</time></trkpt><trkpt lat="40.8706867" lon="14.3388783"><ele>25.0</ele><time>2026-04-25T07:11:31.115Z</time></trkpt><trkpt lat="40.8706317" lon="14.3390067"><ele>25.4</ele><time>2026-04-25T07:11:33.115Z</time></trkpt><trkpt lat="40.8705783" lon="14.3390883"><ele>25.8</ele><time>2026-04-25T07:11:34.115Z</time></trkpt><trkpt lat="40.8705017" lon="14.33918"><ele>26.200000000000003</ele><time>2026-04-25T07:11:35.115Z</time></trkpt><trkpt lat="40.8704067" lon="14.33927"><ele>26.6</ele><time>2026-04-25T07:11:36.115Z</time></trkpt><trkpt lat="40.8703033" lon="14.3393683"><ele>27.0</ele><time>2026-04-25T07:11:37.115Z</time></trkpt><trkpt lat="40.8701883" lon="14.3394833"><ele>26.666666666666664</ele><time>2026-04-25T07:11:38.115Z</time></trkpt><trkpt lat="40.8700633" lon="14.3396017"><ele>26.333333333333332</ele><time>2026-04-25T07:11:39.115Z</time></trkpt><trkpt lat="40.86993" lon="14.339725"><ele>26.0</ele><time>2026-04-25T07:11:40.115Z</time></trkpt><trkpt lat="40.8697933" lon="14.33985"><ele>27.0</ele><time>2026-04-25T07:11:41.115Z</time></trkpt><trkpt lat="40.8696567" lon="14.3399833"><ele>28.0</ele><time>2026-04-25T07:11:42.115Z</time></trkpt><trkpt lat="40.8695283" lon="14.3401067"><ele>29.0</ele><time>2026-04-25T07:11:43.115Z</time></trkpt><trkpt lat="40.8693933" lon="14.3402367"><ele>28.666666666666664</ele><time>2026-04-25T07:11:44.115Z</time></trkpt><trkpt lat="40.86926" lon="14.3403683"><ele>28.333333333333336</ele><time>2026-04-25T07:11:45.115Z</time></trkpt><trkpt lat="40.869125" lon="14.3405"><ele>28.0</ele><time>2026-04-25T07:11:46.115Z</time></trkpt><trkpt lat="40.8689917" lon="14.340635"><ele>29.666666666666668</ele><time>2026-04-25T07:11:47.115Z</time></trkpt><trkpt lat="40.868865" lon="14.340755"><ele>31.333333333333336</ele><time>2026-04-25T07:11:48.115Z</time></trkpt><trkpt lat="40.86874" lon="14.3408733"><ele>33.0</ele><time>2026-04-25T07:11:49.115Z</time></trkpt><trkpt lat="40.8686167" lon="14.3409933"><ele>33.0</ele><time>2026-04-25T07:11:50.115Z</time></trkpt><trkpt lat="40.868495" lon="14.34111"><ele>33.0</ele><time>2026-04-25T07:11:51.115Z</time></trkpt><trkpt lat="40.86837" lon="14.3412267"><ele>33.0</ele><time>2026-04-25T07:11:52.116Z</time></trkpt><trkpt lat="40.868245" lon="14.3413417"><ele>33.666666666666664</ele><time>2026-04-25T07:11:53.115Z</time></trkpt><trkpt lat="40.8681217" lon="14.3414567"><ele>34.33333333333333</ele><time>2026-04-25T07:11:54.116Z</time></trkpt><trkpt lat="40.8679967" lon="14.34157"><ele>35.0</ele><time>2026-04-25T07:11:55.115Z</time></trkpt><trkpt lat="40.8678733" lon="14.341695"><ele>35.0</ele><time>2026-04-25T07:11:56.115Z</time></trkpt><trkpt lat="40.8677483" lon="14.3418117"><ele>35.0</ele><time>2026-04-25T07:11:57.115Z</time></trkpt><trkpt lat="40.8676267" lon="14.3419267"><ele>35.0</ele><time>2026-04-25T07:11:58.115Z</time></trkpt><trkpt lat="40.8675" lon="14.34204"><ele>34.0</ele><time>2026-04-25T07:11:59.115Z</time></trkpt><trkpt lat="40.8673767" lon="14.3421583"><ele>33.0</ele><time>2026-04-25T07:12:00.115Z</time></trkpt><trkpt lat="40.867255" lon="14.3422783"><ele>32.0</ele><time>2026-04-25T07:12:01.115Z</time></trkpt><trkpt lat="40.8671283" lon="14.3423883"><ele>32.0</ele><time>2026-04-25T07:12:02.115Z</time></trkpt><trkpt lat="40.867" lon="14.3424933"><ele>32.0</ele><time>2026-04-25T07:12:03.115Z</time></trkpt><trkpt lat="40.8668717" lon="14.3425967"><ele>32.0</ele><time>2026-04-25T07:12:04.115Z</time></trkpt><trkpt lat="40.86674" lon="14.3427"><ele>32.0</ele><time>2026-04-25T07:12:05.115Z</time></trkpt><trkpt lat="40.8666083" lon="14.3428067"><ele>32.0</ele><time>2026-04-25T07:12:06.115Z</time></trkpt><trkpt lat="40.8664817" lon="14.342895"><ele>32.0</ele><time>2026-04-25T07:12:07.115Z</time></trkpt><trkpt lat="40.8663767" lon="14.3429767"><ele>32.0</ele><time>2026-04-25T07:12:08.115Z</time></trkpt><trkpt lat="40.8662833" lon="14.3430533"><ele>32.4</ele><time>2026-04-25T07:12:09.115Z</time></trkpt><trkpt lat="40.86619" lon="14.3431217"><ele>32.800000000000004</ele><time>2026-04-25T07:12:10.115Z</time></trkpt><trkpt lat="40.8660967" lon="14.3431983"><ele>33.2</ele><time>2026-04-25T07:12:11.115Z</time></trkpt><trkpt lat="40.866005" lon="14.343275"><ele>33.6</ele><time>2026-04-25T07:12:12.115Z</time></trkpt><trkpt lat="40.8659133" lon="14.34334"><ele>34.0</ele><time>2026-04-25T07:12:13.115Z</time></trkpt><trkpt lat="40.865825" lon="14.3434083"><ele>34.0</ele><time>2026-04-25T07:12:14.116Z</time></trkpt><trkpt lat="40.865735" lon="14.343475"><ele>34.0</ele><time>2026-04-25T07:12:15.115Z</time></trkpt><trkpt lat="40.86564" lon="14.3435317"><ele>34.0</ele><time>2026-04-25T07:12:16.115Z</time></trkpt><trkpt lat="40.86556" lon="14.343585"><ele>34.0</ele><time>2026-04-25T07:12:17.115Z</time></trkpt><trkpt lat="40.8654967" lon="14.3436217"><ele>34.0</ele><time>2026-04-25T07:12:18.115Z</time></trkpt><trkpt lat="40.8654133" lon="14.34368"><ele>34.0</ele><time>2026-04-25T07:12:20.115Z</time></trkpt><trkpt lat="40.8653317" lon="14.3436933"><ele>34.0</ele><time>2026-04-25T07:12:23.116Z</time></trkpt><trkpt lat="40.865265" lon="14.3436333"><ele>34.0</ele><time>2026-04-25T07:12:27.115Z</time></trkpt><trkpt lat="40.8652017" lon="14.3434817"><ele>34.0</ele><time>2026-04-25T07:12:29.115Z</time></trkpt><trkpt lat="40.8651567" lon="14.34337"><ele>34.0</ele><time>2026-04-25T07:12:30.116Z</time></trkpt><trkpt lat="40.8651117" lon="14.3432533"><ele>34.5</ele><time>2026-04-25T07:12:31.115Z</time></trkpt><trkpt lat="40.8650633" lon="14.3431283"><ele>35.0</ele><time>2026-04-25T07:12:32.115Z</time></trkpt><trkpt lat="40.8650167" lon="14.3430233"><ele>35.5</ele><time>2026-04-25T07:12:33.116Z</time></trkpt><trkpt lat="40.8649717" lon="14.3429217"><ele>36.0</ele><time>2026-04-25T07:12:34.115Z</time></trkpt><trkpt lat="40.86493" lon="14.3428417"><ele>36.5</ele><time>2026-04-25T07:12:35.115Z</time></trkpt><trkpt lat="40.8648667" lon="14.3427667"><ele>37.0</ele><time>2026-04-25T07:12:36.115Z</time></trkpt><trkpt lat="40.864785" lon="14.342695"><ele>37.0</ele><time>2026-04-25T07:12:38.115Z</time></trkpt><trkpt lat="40.8647" lon="14.342615"><ele>37.0</ele><time>2026-04-25T07:12:40.115Z</time></trkpt><trkpt lat="40.86465" lon="14.3425033"><ele>37.0</ele><time>2026-04-25T07:12:42.115Z</time></trkpt><trkpt lat="40.8646567" lon="14.342375"><ele>37.0</ele><time>2026-04-25T07:12:44.115Z</time></trkpt><trkpt lat="40.8647183" lon="14.3422633"><ele>37.0</ele><time>2026-04-25T07:12:46.115Z</time></trkpt><trkpt lat="40.864825" lon="14.3421383"><ele>36.800000000000004</ele><time>2026-04-25T07:12:48.115Z</time></trkpt><trkpt lat="40.8648983" lon="14.3420483"><ele>36.6</ele><time>2026-04-25T07:12:49.115Z</time></trkpt><trkpt lat="40.86497" lon="14.3419417"><ele>36.400000000000006</ele><time>2026-04-25T07:12:50.115Z</time></trkpt><trkpt lat="40.8650233" lon="14.34183"><ele>36.2</ele><time>2026-04-25T07:12:51.115Z</time></trkpt><trkpt lat="40.865055" lon="14.3417067"><ele>36.0</ele><time>2026-04-25T07:12:52.115Z</time></trkpt><trkpt lat="40.86507" lon="14.34158"><ele>36.0</ele><time>2026-04-25T07:12:53.115Z</time></trkpt><trkpt lat="40.8650683" lon="14.3414417"><ele>36.0</ele><time>2026-04-25T07:12:54.115Z</time></trkpt><trkpt lat="40.8650417" lon="14.3412983"><ele>36.0</ele><time>2026-04-25T07:12:55.115Z</time></trkpt><trkpt lat="40.865" lon="14.3411467"><ele>36.0</ele><time>2026-04-25T07:12:56.115Z</time></trkpt><trkpt lat="40.8649483" lon="14.3409883"><ele>35.5</ele><time>2026-04-25T07:12:57.115Z</time></trkpt><trkpt lat="40.8648867" lon="14.34083"><ele>35.0</ele><time>2026-04-25T07:12:58.116Z</time></trkpt><trkpt lat="40.8648233" lon="14.3406767"><ele>34.5</ele><time>2026-04-25T07:12:59.115Z</time></trkpt><trkpt lat="40.8647567" lon="14.3405167"><ele>34.0</ele><time>2026-04-25T07:13:00.115Z</time></trkpt><trkpt lat="40.8646933" lon="14.3403583"><ele>33.25</ele><time>2026-04-25T07:13:01.115Z</time></trkpt><trkpt lat="40.8646317" lon="14.34021"><ele>32.5</ele><time>2026-04-25T07:13:02.115Z</time></trkpt><trkpt lat="40.8645717" lon="14.3400667"><ele>31.75</ele><time>2026-04-25T07:13:03.115Z</time></trkpt><trkpt lat="40.864525" lon="14.3399283"><ele>31.0</ele><time>2026-04-25T07:13:04.116Z</time></trkpt><trkpt lat="40.8645" lon="14.3398"><ele>30.8</ele><time>2026-04-25T07:13:05.115Z</time></trkpt><trkpt lat="40.86449" lon="14.3396817"><ele>30.6</ele><time>2026-04-25T07:13:06.115Z</time></trkpt><trkpt lat="40.8644867" lon="14.3395717"><ele>30.4</ele><time>2026-04-25T07:13:07.115Z</time></trkpt><trkpt lat="40.86449" lon="14.3394383"><ele>30.2</ele><time>2026-04-25T07:13:08.115Z</time></trkpt><trkpt lat="40.86449" lon="14.339295"><ele>30.0</ele><time>2026-04-25T07:13:09.115Z</time></trkpt><trkpt lat="40.86449" lon="14.3391417"><ele>30.0</ele><time>2026-04-25T07:13:10.115Z</time></trkpt><trkpt lat="40.8644917" lon="14.338985"><ele>30.0</ele><time>2026-04-25T07:13:11.115Z</time></trkpt><trkpt lat="40.8645017" lon="14.3388433"><ele>30.0</ele><time>2026-04-25T07:13:12.115Z</time></trkpt><trkpt lat="40.8645117" lon="14.33871"><ele>30.0</ele><time>2026-04-25T07:13:13.115Z</time></trkpt><trkpt lat="40.8645217" lon="14.3385983"><ele>30.0</ele><time>2026-04-25T07:13:14.115Z</time></trkpt><trkpt lat="40.8645383" lon="14.3384983"><ele>29.833333333333332</ele><time>2026-04-25T07:13:15.115Z</time></trkpt><trkpt lat="40.864555" lon="14.3384067"><ele>29.666666666666664</ele><time>2026-04-25T07:13:16.115Z</time></trkpt><trkpt lat="40.8645733" lon="14.3383217"><ele>29.5</ele><time>2026-04-25T07:13:17.115Z</time></trkpt><trkpt lat="40.8646017" lon="14.33824"><ele>29.333333333333332</ele><time>2026-04-25T07:13:18.115Z</time></trkpt><trkpt lat="40.8646383" lon="14.33816"><ele>29.166666666666664</ele><time>2026-04-25T07:13:19.115Z</time></trkpt><trkpt lat="40.8646867" lon="14.33806"><ele>29.0</ele><time>2026-04-25T07:13:20.115Z</time></trkpt><trkpt lat="40.86473" lon="14.33795"><ele>29.0</ele><time>2026-04-25T07:13:21.115Z</time></trkpt><trkpt lat="40.8647717" lon="14.3378233"><ele>29.0</ele><time>2026-04-25T07:13:22.115Z</time></trkpt><trkpt lat="40.8648167" lon="14.33769"><ele>29.0</ele><time>2026-04-25T07:13:23.115Z</time></trkpt><trkpt lat="40.8648633" lon="14.337535"><ele>29.0</ele><time>2026-04-25T07:13:24.115Z</time></trkpt><trkpt lat="40.8649133" lon="14.3373717"><ele>29.25</ele><time>2026-04-25T07:13:25.115Z</time></trkpt><trkpt lat="40.8649617" lon="14.337195"><ele>29.5</ele><time>2026-04-25T07:13:26.115Z</time></trkpt><trkpt lat="40.8650083" lon="14.3370167"><ele>29.75</ele><time>2026-04-25T07:13:27.115Z</time></trkpt><trkpt lat="40.8650567" lon="14.3368467"><ele>30.0</ele><time>2026-04-25T07:13:28.115Z</time></trkpt><trkpt lat="40.86511" lon="14.3366767"><ele>29.0</ele><time>2026-04-25T07:13:29.115Z</time></trkpt><trkpt lat="40.8651667" lon="14.3365017"><ele>28.0</ele><time>2026-04-25T07:13:30.115Z</time></trkpt><trkpt lat="40.8652217" lon="14.336325"><ele>27.0</ele><time>2026-04-25T07:13:31.115Z</time></trkpt><trkpt lat="40.8652833" lon="14.3361317"><ele>26.0</ele><time>2026-04-25T07:13:32.115Z</time></trkpt><trkpt lat="40.86535" lon="14.3359383"><ele>26.0</ele><time>2026-04-25T07:13:33.115Z</time></trkpt><trkpt lat="40.865415" lon="14.335745"><ele>26.0</ele><time>2026-04-25T07:13:34.115Z</time></trkpt><trkpt lat="40.8654783" lon="14.3355467"><ele>26.0</ele><time>2026-04-25T07:13:35.115Z</time></trkpt><trkpt lat="40.865545" lon="14.3353417"><ele>26.0</ele><time>2026-04-25T07:13:36.115Z</time></trkpt><trkpt lat="40.8656167" lon="14.3351367"><ele>26.0</ele><time>2026-04-25T07:13:37.115Z</time></trkpt><trkpt lat="40.8656833" lon="14.3349367"><ele>26.0</ele><time>2026-04-25T07:13:38.115Z</time></trkpt><trkpt lat="40.86575" lon="14.3347367"><ele>25.666666666666664</ele><time>2026-04-25T07:13:39.115Z</time></trkpt><trkpt lat="40.8658217" lon="14.3345367"><ele>25.333333333333336</ele><time>2026-04-25T07:13:40.115Z</time></trkpt><trkpt lat="40.8659" lon="14.3343233"><ele>25.0</ele><time>2026-04-25T07:13:41.115Z</time></trkpt><trkpt lat="40.8659783" lon="14.334095"><ele>24.0</ele><time>2026-04-25T07:13:42.115Z</time></trkpt><trkpt lat="40.8660667" lon="14.3338583"><ele>23.0</ele><time>2026-04-25T07:13:43.116Z</time></trkpt><trkpt lat="40.866155" lon="14.33361"><ele>22.0</ele><time>2026-04-25T07:13:44.115Z</time></trkpt><trkpt lat="40.8662417" lon="14.3333583"><ele>22.0</ele><time>2026-04-25T07:13:45.115Z</time></trkpt><trkpt lat="40.866325" lon="14.3331017"><ele>22.0</ele><time>2026-04-25T07:13:46.115Z</time></trkpt><trkpt lat="40.8664017" lon="14.3328367"><ele>22.0</ele><time>2026-04-25T07:13:47.115Z</time></trkpt><trkpt lat="40.866475" lon="14.3325767"><ele>22.0</ele><time>2026-04-25T07:13:48.115Z</time></trkpt><trkpt lat="40.8665467" lon="14.3323017"><ele>22.0</ele><time>2026-04-25T07:13:49.115Z</time></trkpt><trkpt lat="40.8666167" lon="14.3320217"><ele>22.0</ele><time>2026-04-25T07:13:50.116Z</time></trkpt><trkpt lat="40.86668" lon="14.3317383"><ele>22.333333333333332</ele><time>2026-04-25T07:13:51.115Z</time></trkpt><trkpt lat="40.8667283" lon="14.3314583"><ele>22.666666666666668</ele><time>2026-04-25T07:13:52.115Z</time></trkpt><trkpt lat="40.8667733" lon="14.331175"><ele>23.0</ele><time>2026-04-25T07:13:53.115Z</time></trkpt><trkpt lat="40.86682" lon="14.3308917"><ele>22.0</ele><time>2026-04-25T07:13:54.115Z</time></trkpt><trkpt lat="40.8668617" lon="14.3306017"><ele>21.0</ele><time>2026-04-25T07:13:55.115Z</time></trkpt><trkpt lat="40.8668967" lon="14.3303083"><ele>20.0</ele><time>2026-04-25T07:13:56.115Z</time></trkpt><trkpt lat="40.866925" lon="14.33002"><ele>19.666666666666668</ele><time>2026-04-25T07:13:57.115Z</time></trkpt><trkpt lat="40.86695" lon="14.329735"><ele>19.333333333333332</ele><time>2026-04-25T07:13:58.115Z</time></trkpt><trkpt lat="40.8669733" lon="14.3294467"><ele>19.0</ele><time>2026-04-25T07:13:59.115Z</time></trkpt><trkpt lat="40.8669867" lon="14.3291483"><ele>18.0</ele><time>2026-04-25T07:14:00.115Z</time></trkpt><trkpt lat="40.8669967" lon="14.32886"><ele>17.0</ele><time>2026-04-25T07:14:01.115Z</time></trkpt><trkpt lat="40.867" lon="14.328575"><ele>16.0</ele><time>2026-04-25T07:14:02.115Z</time></trkpt><trkpt lat="40.8669983" lon="14.3282867"><ele>16.0</ele><time>2026-04-25T07:14:03.115Z</time></trkpt><trkpt lat="40.86699" lon="14.328"><ele>16.0</ele><time>2026-04-25T07:14:04.115Z</time></trkpt><trkpt lat="40.866975" lon="14.3277117"><ele>16.0</ele><time>2026-04-25T07:14:05.115Z</time></trkpt><trkpt lat="40.8669567" lon="14.3274267"><ele>15.333333333333332</ele><time>2026-04-25T07:14:06.115Z</time></trkpt><trkpt lat="40.8669333" lon="14.327145"><ele>14.666666666666668</ele><time>2026-04-25T07:14:07.115Z</time></trkpt><trkpt lat="40.8669133" lon="14.326875"><ele>14.0</ele><time>2026-04-25T07:14:08.115Z</time></trkpt><trkpt lat="40.866895" lon="14.3266233"><ele>14.0</ele><time>2026-04-25T07:14:09.115Z</time></trkpt><trkpt lat="40.8668833" lon="14.3263967"><ele>14.0</ele><time>2026-04-25T07:14:10.115Z</time></trkpt><trkpt lat="40.86687" lon="14.3261783"><ele>14.0</ele><time>2026-04-25T07:14:11.115Z</time></trkpt><trkpt lat="40.8668633" lon="14.3259783"><ele>13.75</ele><time>2026-04-25T07:14:12.115Z</time></trkpt><trkpt lat="40.8668533" lon="14.325785"><ele>13.5</ele><time>2026-04-25T07:14:13.115Z</time></trkpt><trkpt lat="40.8668483" lon="14.3256"><ele>13.25</ele><time>2026-04-25T07:14:14.115Z</time></trkpt><trkpt lat="40.8668467" lon="14.32541"><ele>13.0</ele><time>2026-04-25T07:14:15.115Z</time></trkpt><trkpt lat="40.8668483" lon="14.3252233"><ele>13.0</ele><time>2026-04-25T07:14:16.115Z</time></trkpt><trkpt lat="40.8668483" lon="14.3250483"><ele>13.0</ele><time>2026-04-25T07:14:17.115Z</time></trkpt><trkpt lat="40.866845" lon="14.3248817"><ele>13.0</ele><time>2026-04-25T07:14:18.116Z</time></trkpt><trkpt lat="40.8668433" lon="14.3247283"><ele>13.0</ele><time>2026-04-25T07:14:19.115Z</time></trkpt><trkpt lat="40.8668433" lon="14.3245783"><ele>13.5</ele><time>2026-04-25T07:14:20.115Z</time></trkpt><trkpt lat="40.8668433" lon="14.324425"><ele>14.0</ele><time>2026-04-25T07:14:21.115Z</time></trkpt><trkpt lat="40.8668483" lon="14.32427"><ele>14.5</ele><time>2026-04-25T07:14:22.115Z</time></trkpt><trkpt lat="40.866855" lon="14.3241167"><ele>15.0</ele><time>2026-04-25T07:14:23.115Z</time></trkpt><trkpt lat="40.8668633" lon="14.3239667"><ele>14.8</ele><time>2026-04-25T07:14:24.115Z</time></trkpt><trkpt lat="40.8668817" lon="14.3238233"><ele>14.6</ele><time>2026-04-25T07:14:25.115Z</time></trkpt><trkpt lat="40.8669017" lon="14.32368"><ele>14.399999999999999</ele><time>2026-04-25T07:14:26.115Z</time></trkpt><trkpt lat="40.86692" lon="14.3235333"><ele>14.2</ele><time>2026-04-25T07:14:27.115Z</time></trkpt><trkpt lat="40.8669367" lon="14.32339"><ele>14.0</ele><time>2026-04-25T07:14:28.115Z</time></trkpt><trkpt lat="40.8669567" lon="14.323255"><ele>14.0</ele><time>2026-04-25T07:14:29.115Z</time></trkpt><trkpt lat="40.866985" lon="14.323115"><ele>14.0</ele><time>2026-04-25T07:14:30.115Z</time></trkpt><trkpt lat="40.8670283" lon="14.3229783"><ele>14.0</ele><time>2026-04-25T07:14:31.115Z</time></trkpt><trkpt lat="40.86708" lon="14.3228467"><ele>14.0</ele><time>2026-04-25T07:14:32.115Z</time></trkpt><trkpt lat="40.8671517" lon="14.3227217"><ele>14.5</ele><time>2026-04-25T07:14:33.115Z</time></trkpt><trkpt lat="40.8672267" lon="14.3225933"><ele>15.0</ele><time>2026-04-25T07:14:34.115Z</time></trkpt><trkpt lat="40.867315" lon="14.3224733"><ele>15.5</ele><time>2026-04-25T07:14:35.115Z</time></trkpt><trkpt lat="40.8674" lon="14.3223683"><ele>16.0</ele><time>2026-04-25T07:14:36.115Z</time></trkpt><trkpt lat="40.8674867" lon="14.3222633"><ele>16.75</ele><time>2026-04-25T07:14:37.116Z</time></trkpt><trkpt lat="40.8675683" lon="14.3221617"><ele>17.5</ele><time>2026-04-25T07:14:38.115Z</time></trkpt><trkpt lat="40.8676567" lon="14.3220683"><ele>18.25</ele><time>2026-04-25T07:14:39.116Z</time></trkpt><trkpt lat="40.8677533" lon="14.3219867"><ele>19.0</ele><time>2026-04-25T07:14:40.115Z</time></trkpt><trkpt lat="40.867855" lon="14.321915"><ele>17.5</ele><time>2026-04-25T07:14:41.115Z</time></trkpt><trkpt lat="40.8679633" lon="14.321865"><ele>16.0</ele><time>2026-04-25T07:14:42.115Z</time></trkpt><trkpt lat="40.868085" lon="14.3218383"><ele>14.5</ele><time>2026-04-25T07:14:43.115Z</time></trkpt><trkpt lat="40.8682217" lon="14.3218183"><ele>13.0</ele><time>2026-04-25T07:14:44.115Z</time></trkpt><trkpt lat="40.86836" lon="14.3217983"><ele>12.0</ele><time>2026-04-25T07:14:45.115Z</time></trkpt><trkpt lat="40.8685033" lon="14.3217817"><ele>11.0</ele><time>2026-04-25T07:14:46.115Z</time></trkpt><trkpt lat="40.8686417" lon="14.32176"><ele>10.0</ele><time>2026-04-25T07:14:47.115Z</time></trkpt><trkpt lat="40.8687817" lon="14.3217367"><ele>9.0</ele><time>2026-04-25T07:14:48.115Z</time></trkpt><trkpt lat="40.8689217" lon="14.3217083"><ele>9.0</ele><time>2026-04-25T07:14:49.116Z</time></trkpt><trkpt lat="40.8690633" lon="14.321675"><ele>9.0</ele><time>2026-04-25T07:14:50.115Z</time></trkpt><trkpt lat="40.8692017" lon="14.32165"><ele>9.0</ele><time>2026-04-25T07:14:51.115Z</time></trkpt><trkpt lat="40.8693333" lon="14.3216217"><ele>9.0</ele><time>2026-04-25T07:14:52.115Z</time></trkpt><trkpt lat="40.869465" lon="14.3216"><ele>9.5</ele><time>2026-04-25T07:14:53.116Z</time></trkpt><trkpt lat="40.869595" lon="14.3215817"><ele>10.0</ele><time>2026-04-25T07:14:54.115Z</time></trkpt><trkpt lat="40.8697167" lon="14.3215567"><ele>10.5</ele><time>2026-04-25T07:14:55.115Z</time></trkpt><trkpt lat="40.8698533" lon="14.3215383"><ele>11.0</ele><time>2026-04-25T07:14:56.116Z</time></trkpt><trkpt lat="40.8699883" lon="14.3215133"><ele>12.0</ele><time>2026-04-25T07:14:57.115Z</time></trkpt><trkpt lat="40.8701217" lon="14.3214867"><ele>13.0</ele><time>2026-04-25T07:14:58.115Z</time></trkpt><trkpt lat="40.8702517" lon="14.3214583"><ele>14.0</ele><time>2026-04-25T07:14:59.115Z</time></trkpt><trkpt lat="40.8703817" lon="14.321425"><ele>15.0</ele><time>2026-04-25T07:15:00.115Z</time></trkpt><trkpt lat="40.8705117" lon="14.3213983"><ele>15.0</ele><time>2026-04-25T07:15:01.115Z</time></trkpt><trkpt lat="40.8706417" lon="14.32137"><ele>15.0</ele><time>2026-04-25T07:15:02.115Z</time></trkpt><trkpt lat="40.8707733" lon="14.3213383"><ele>15.0</ele><time>2026-04-25T07:15:03.115Z</time></trkpt><trkpt lat="40.8709117" lon="14.3213067"><ele>15.0</ele><time>2026-04-25T07:15:04.115Z</time></trkpt><trkpt lat="40.8710533" lon="14.321275"><ele>15.5</ele><time>2026-04-25T07:15:05.115Z</time></trkpt><trkpt lat="40.8711867" lon="14.3212317"><ele>16.0</ele><time>2026-04-25T07:15:06.115Z</time></trkpt><trkpt lat="40.8713317" lon="14.3212"><ele>16.5</ele><time>2026-04-25T07:15:07.115Z</time></trkpt><trkpt lat="40.87147" lon="14.3211717"><ele>17.0</ele><time>2026-04-25T07:15:08.115Z</time></trkpt><trkpt lat="40.871615" lon="14.32114"><ele>17.0</ele><time>2026-04-25T07:15:09.115Z</time></trkpt><trkpt lat="40.87177" lon="14.3210983"><ele>17.0</ele><time>2026-04-25T07:15:10.115Z</time></trkpt><trkpt lat="40.8719367" lon="14.3210517"><ele>17.0</ele><time>2026-04-25T07:15:11.115Z</time></trkpt><trkpt lat="40.8721267" lon="14.3209983"><ele>16.333333333333336</ele><time>2026-04-25T07:15:12.115Z</time></trkpt><trkpt lat="40.87232" lon="14.3209483"><ele>15.666666666666668</ele><time>2026-04-25T07:15:13.116Z</time></trkpt><trkpt lat="40.8725183" lon="14.3208983"><ele>15.0</ele><time>2026-04-25T07:15:14.115Z</time></trkpt><trkpt lat="40.8727117" lon="14.3208567"><ele>15.0</ele><time>2026-04-25T07:15:15.115Z</time></trkpt><trkpt lat="40.8729183" lon="14.32081"><ele>15.0</ele><time>2026-04-25T07:15:16.115Z</time></trkpt><trkpt lat="40.8731333" lon="14.3207667"><ele>15.0</ele><time>2026-04-25T07:15:17.115Z</time></trkpt><trkpt lat="40.8733517" lon="14.3207233"><ele>16.5</ele><time>2026-04-25T07:15:18.115Z</time></trkpt><trkpt lat="40.873575" lon="14.320675"><ele>18.0</ele><time>2026-04-25T07:15:19.115Z</time></trkpt><trkpt lat="40.8737967" lon="14.3206267"><ele>18.0</ele><time>2026-04-25T07:15:20.115Z</time></trkpt><trkpt lat="40.874015" lon="14.3205767"><ele>18.0</ele><time>2026-04-25T07:15:21.115Z</time></trkpt><trkpt lat="40.8742333" lon="14.32053"><ele>18.0</ele><time>2026-04-25T07:15:22.115Z</time></trkpt><trkpt lat="40.8744483" lon="14.32048"><ele>20.0</ele><time>2026-04-25T07:15:23.115Z</time></trkpt><trkpt lat="40.8746667" lon="14.320435"><ele>22.0</ele><time>2026-04-25T07:15:24.115Z</time></trkpt><trkpt lat="40.87488" lon="14.3203883"><ele>24.0</ele><time>2026-04-25T07:15:25.115Z</time></trkpt><trkpt lat="40.8750933" lon="14.3203467"><ele>23.666666666666668</ele><time>2026-04-25T07:15:26.116Z</time></trkpt><trkpt lat="40.8753117" lon="14.320305"><ele>23.333333333333336</ele><time>2026-04-25T07:15:27.115Z</time></trkpt><trkpt lat="40.875535" lon="14.32026"><ele>23.0</ele><time>2026-04-25T07:15:28.116Z</time></trkpt><trkpt lat="40.8757517" lon="14.3202117"><ele>21.666666666666668</ele><time>2026-04-25T07:15:29.115Z</time></trkpt><trkpt lat="40.8759733" lon="14.3201617"><ele>20.333333333333332</ele><time>2026-04-25T07:15:30.115Z</time></trkpt><trkpt lat="40.8761933" lon="14.3201117"><ele>19.0</ele><time>2026-04-25T07:15:31.115Z</time></trkpt><trkpt lat="40.8764167" lon="14.3200617"><ele>19.0</ele><time>2026-04-25T07:15:32.115Z</time></trkpt><trkpt lat="40.87664" lon="14.3200067"><ele>19.0</ele><time>2026-04-25T07:15:33.115Z</time></trkpt><trkpt lat="40.87686" lon="14.3199533"><ele>18.0</ele><time>2026-04-25T07:15:34.115Z</time></trkpt><trkpt lat="40.8770833" lon="14.319885"><ele>17.0</ele><time>2026-04-25T07:15:35.115Z</time></trkpt><trkpt lat="40.8773083" lon="14.3198217"><ele>17.0</ele><time>2026-04-25T07:15:36.115Z</time></trkpt><trkpt lat="40.8775383" lon="14.3197633"><ele>17.0</ele><time>2026-04-25T07:15:37.115Z</time></trkpt><trkpt lat="40.877775" lon="14.319705"><ele>18.0</ele><time>2026-04-25T07:15:38.115Z</time></trkpt><trkpt lat="40.878015" lon="14.3196433"><ele>19.0</ele><time>2026-04-25T07:15:39.115Z</time></trkpt><trkpt lat="40.8782533" lon="14.3195867"><ele>19.0</ele><time>2026-04-25T07:15:40.115Z</time></trkpt><trkpt lat="40.8784917" lon="14.31953"><ele>19.0</ele><time>2026-04-25T07:15:41.115Z</time></trkpt><trkpt lat="40.8787317" lon="14.3194717"><ele>19.0</ele><time>2026-04-25T07:15:42.115Z</time></trkpt><trkpt lat="40.8789783" lon="14.3194117"><ele>19.0</ele><time>2026-04-25T07:15:43.115Z</time></trkpt><trkpt lat="40.87923" lon="14.3193483"><ele>21.5</ele><time>2026-04-25T07:15:44.115Z</time></trkpt><trkpt lat="40.879475" lon="14.3192883"><ele>24.0</ele><time>2026-04-25T07:15:45.115Z</time></trkpt><trkpt lat="40.8797083" lon="14.3192267"><ele>24.0</ele><time>2026-04-25T07:15:46.115Z</time></trkpt><trkpt lat="40.8799367" lon="14.31917"><ele>24.0</ele><time>2026-04-25T07:15:47.115Z</time></trkpt><trkpt lat="40.880165" lon="14.3191167"><ele>23.5</ele><time>2026-04-25T07:15:48.116Z</time></trkpt><trkpt lat="40.88039" lon="14.31906"><ele>23.0</ele><time>2026-04-25T07:15:49.115Z</time></trkpt><trkpt lat="40.8806167" lon="14.3190067"><ele>23.0</ele><time>2026-04-25T07:15:50.115Z</time></trkpt><trkpt lat="40.8808367" lon="14.31896"><ele>23.0</ele><time>2026-04-25T07:15:51.115Z</time></trkpt><trkpt lat="40.8810567" lon="14.318915"><ele>23.0</ele><time>2026-04-25T07:15:52.115Z</time></trkpt><trkpt lat="40.8812733" lon="14.31887"><ele>24.666666666666668</ele><time>2026-04-25T07:15:53.115Z</time></trkpt><trkpt lat="40.8814917" lon="14.31882"><ele>26.333333333333336</ele><time>2026-04-25T07:15:54.116Z</time></trkpt><trkpt lat="40.8817033" lon="14.3187683"><ele>28.0</ele><time>2026-04-25T07:15:55.115Z</time></trkpt><trkpt lat="40.8819167" lon="14.31872"><ele>28.666666666666668</ele><time>2026-04-25T07:15:56.115Z</time></trkpt><trkpt lat="40.88213" lon="14.3186667"><ele>29.333333333333336</ele><time>2026-04-25T07:15:57.116Z</time></trkpt><trkpt lat="40.8823417" lon="14.3186133"><ele>30.0</ele><time>2026-04-25T07:15:58.115Z</time></trkpt><trkpt lat="40.8825383" lon="14.31856"><ele>30.333333333333336</ele><time>2026-04-25T07:15:59.115Z</time></trkpt><trkpt lat="40.8827533" lon="14.3185067"><ele>30.666666666666668</ele><time>2026-04-25T07:16:00.115Z</time></trkpt><trkpt lat="40.88296" lon="14.3184533"><ele>31.0</ele><time>2026-04-25T07:16:01.115Z</time></trkpt><trkpt lat="40.8831633" lon="14.3183983"><ele>31.0</ele><time>2026-04-25T07:16:02.116Z</time></trkpt><trkpt lat="40.8833583" lon="14.3183433"><ele>31.0</ele><time>2026-04-25T07:16:03.115Z</time></trkpt><trkpt lat="40.8835667" lon="14.3182883"><ele>31.0</ele><time>2026-04-25T07:16:04.115Z</time></trkpt><trkpt lat="40.8837783" lon="14.318235"><ele>31.0</ele><time>2026-04-25T07:16:05.115Z</time></trkpt><trkpt lat="40.8839867" lon="14.3181733"><ele>31.0</ele><time>2026-04-25T07:16:06.115Z</time></trkpt><trkpt lat="40.8841917" lon="14.318125"><ele>31.0</ele><time>2026-04-25T07:16:07.115Z</time></trkpt><trkpt lat="40.8843983" lon="14.318075"><ele>31.0</ele><time>2026-04-25T07:16:08.115Z</time></trkpt><trkpt lat="40.88461" lon="14.3180267"><ele>31.0</ele><time>2026-04-25T07:16:09.116Z</time></trkpt><trkpt lat="40.8848217" lon="14.3179767"><ele>31.0</ele><time>2026-04-25T07:16:10.115Z</time></trkpt><trkpt lat="40.8850383" lon="14.3179267"><ele>30.666666666666668</ele><time>2026-04-25T07:16:11.115Z</time></trkpt><trkpt lat="40.8852517" lon="14.3178783"><ele>30.333333333333336</ele><time>2026-04-25T07:16:12.115Z</time></trkpt><trkpt lat="40.88547" lon="14.3178317"><ele>30.0</ele><time>2026-04-25T07:16:13.115Z</time></trkpt><trkpt lat="40.8856783" lon="14.317785"><ele>30.0</ele><time>2026-04-25T07:16:14.115Z</time></trkpt><trkpt lat="40.8858883" lon="14.3177433"><ele>30.0</ele><time>2026-04-25T07:16:15.115Z</time></trkpt><trkpt lat="40.8860983" lon="14.317705"><ele>30.0</ele><time>2026-04-25T07:16:16.115Z</time></trkpt><trkpt lat="40.88631" lon="14.317665"><ele>30.666666666666664</ele><time>2026-04-25T07:16:17.115Z</time></trkpt><trkpt lat="40.88652" lon="14.3176283"><ele>31.333333333333332</ele><time>2026-04-25T07:16:18.115Z</time></trkpt><trkpt lat="40.8867317" lon="14.317595"><ele>32.0</ele><time>2026-04-25T07:16:19.116Z</time></trkpt><trkpt lat="40.886945" lon="14.3175667"><ele>32.33333333333333</ele><time>2026-04-25T07:16:20.115Z</time></trkpt><trkpt lat="40.8871567" lon="14.3175417"><ele>32.666666666666664</ele><time>2026-04-25T07:16:21.115Z</time></trkpt><trkpt lat="40.8873717" lon="14.3175217"><ele>33.0</ele><time>2026-04-25T07:16:22.115Z</time></trkpt><trkpt lat="40.8875867" lon="14.3175033"><ele>33.0</ele><time>2026-04-25T07:16:23.115Z</time></trkpt><trkpt lat="40.8878033" lon="14.3174867"><ele>33.0</ele><time>2026-04-25T07:16:24.115Z</time></trkpt><trkpt lat="40.8880233" lon="14.3174833"><ele>33.0</ele><time>2026-04-25T07:16:25.115Z</time></trkpt><trkpt lat="40.8882483" lon="14.3174883"><ele>33.333333333333336</ele><time>2026-04-25T07:16:26.115Z</time></trkpt><trkpt lat="40.88847" lon="14.317495"><ele>33.66666666666667</ele><time>2026-04-25T07:16:27.116Z</time></trkpt><trkpt lat="40.8886883" lon="14.3175083"><ele>34.0</ele><time>2026-04-25T07:16:28.115Z</time></trkpt><trkpt lat="40.8889083" lon="14.317525"><ele>34.0</ele><time>2026-04-25T07:16:29.116Z</time></trkpt><trkpt lat="40.88913" lon="14.3175483"><ele>34.0</ele><time>2026-04-25T07:16:30.115Z</time></trkpt><trkpt lat="40.8893583" lon="14.317575"><ele>35.0</ele><time>2026-04-25T07:16:31.115Z</time></trkpt><trkpt lat="40.8895867" lon="14.317605"><ele>36.0</ele><time>2026-04-25T07:16:32.115Z</time></trkpt><trkpt lat="40.889815" lon="14.3176367"><ele>36.0</ele><time>2026-04-25T07:16:33.115Z</time></trkpt><trkpt lat="40.890045" lon="14.3176683"><ele>36.0</ele><time>2026-04-25T07:16:34.115Z</time></trkpt><trkpt lat="40.8902767" lon="14.3177"><ele>36.0</ele><time>2026-04-25T07:16:35.115Z</time></trkpt><trkpt lat="40.89051" lon="14.3177367"><ele>36.0</ele><time>2026-04-25T07:16:36.115Z</time></trkpt><trkpt lat="40.8907417" lon="14.3177667"><ele>35.5</ele><time>2026-04-25T07:16:37.115Z</time></trkpt><trkpt lat="40.890975" lon="14.3178067"><ele>35.0</ele><time>2026-04-25T07:16:38.115Z</time></trkpt><trkpt lat="40.8912067" lon="14.3178483"><ele>35.0</ele><time>2026-04-25T07:16:39.115Z</time></trkpt><trkpt lat="40.8914483" lon="14.3178867"><ele>35.0</ele><time>2026-04-25T07:16:40.116Z</time></trkpt><trkpt lat="40.89168" lon="14.3179233"><ele>39.0</ele><time>2026-04-25T07:16:41.115Z</time></trkpt><trkpt lat="40.8919133" lon="14.3179633"><ele>43.0</ele><time>2026-04-25T07:16:42.115Z</time></trkpt><trkpt lat="40.89215" lon="14.3180033"><ele>43.0</ele><time>2026-04-25T07:16:43.115Z</time></trkpt><trkpt lat="40.89239" lon="14.318045"><ele>43.0</ele><time>2026-04-25T07:16:44.115Z</time></trkpt><trkpt lat="40.8926233" lon="14.318085"><ele>42.0</ele><time>2026-04-25T07:16:45.115Z</time></trkpt><trkpt lat="40.8928583" lon="14.31812"><ele>41.0</ele><time>2026-04-25T07:16:46.115Z</time></trkpt><trkpt lat="40.8930883" lon="14.3181567"><ele>41.0</ele><time>2026-04-25T07:16:47.116Z</time></trkpt><trkpt lat="40.89332" lon="14.3181917"><ele>41.0</ele><time>2026-04-25T07:16:48.115Z</time></trkpt><trkpt lat="40.8935533" lon="14.318225"><ele>41.5</ele><time>2026-04-25T07:16:49.115Z</time></trkpt><trkpt lat="40.8937817" lon="14.3182567"><ele>42.0</ele><time>2026-04-25T07:16:50.115Z</time></trkpt><trkpt lat="40.8940083" lon="14.31829"><ele>42.0</ele><time>2026-04-25T07:16:51.115Z</time></trkpt><trkpt lat="40.8942383" lon="14.3183233"><ele>42.0</ele><time>2026-04-25T07:16:52.115Z</time></trkpt><trkpt lat="40.8944667" lon="14.318355"><ele>44.0</ele><time>2026-04-25T07:16:53.115Z</time></trkpt><trkpt lat="40.8946967" lon="14.3183933"><ele>46.0</ele><time>2026-04-25T07:16:54.115Z</time></trkpt><trkpt lat="40.8949267" lon="14.3184333"><ele>44.5</ele><time>2026-04-25T07:16:55.115Z</time></trkpt><trkpt lat="40.89516" lon="14.318465"><ele>43.0</ele><time>2026-04-25T07:16:56.115Z</time></trkpt><trkpt lat="40.895395" lon="14.3185033"><ele>43.0</ele><time>2026-04-25T07:16:57.115Z</time></trkpt><trkpt lat="40.8956333" lon="14.3185383"><ele>43.0</ele><time>2026-04-25T07:16:58.115Z</time></trkpt><trkpt lat="40.8958717" lon="14.318575"><ele>42.5</ele><time>2026-04-25T07:16:59.115Z</time></trkpt><trkpt lat="40.89611" lon="14.3186117"><ele>42.0</ele><time>2026-04-25T07:17:00.115Z</time></trkpt><trkpt lat="40.8963483" lon="14.3186467"><ele>42.0</ele><time>2026-04-25T07:17:01.115Z</time></trkpt><trkpt lat="40.896585" lon="14.3186833"><ele>42.0</ele><time>2026-04-25T07:17:02.116Z</time></trkpt><trkpt lat="40.8968217" lon="14.3187233"><ele>42.5</ele><time>2026-04-25T07:17:03.115Z</time></trkpt><trkpt lat="40.8970583" lon="14.3187633"><ele>43.0</ele><time>2026-04-25T07:17:04.115Z</time></trkpt><trkpt lat="40.8972967" lon="14.3188033"><ele>43.0</ele><time>2026-04-25T07:17:05.115Z</time></trkpt><trkpt lat="40.8975317" lon="14.31884"><ele>43.0</ele><time>2026-04-25T07:17:06.115Z</time></trkpt><trkpt lat="40.8977717" lon="14.3188783"><ele>43.5</ele><time>2026-04-25T07:17:07.115Z</time></trkpt><trkpt lat="40.8980133" lon="14.318915"><ele>44.0</ele><time>2026-04-25T07:17:08.115Z</time></trkpt><trkpt lat="40.8982483" lon="14.31895"><ele>46.0</ele><time>2026-04-25T07:17:09.116Z</time></trkpt><trkpt lat="40.8984883" lon="14.318985"><ele>48.0</ele><time>2026-04-25T07:17:10.115Z</time></trkpt><trkpt lat="40.898725" lon="14.3190233"><ele>48.0</ele><time>2026-04-25T07:17:11.115Z</time></trkpt><trkpt lat="40.8989667" lon="14.3190633"><ele>48.0</ele><time>2026-04-25T07:17:12.115Z</time></trkpt><trkpt lat="40.8992033" lon="14.3191017"><ele>47.5</ele><time>2026-04-25T07:17:13.115Z</time></trkpt><trkpt lat="40.8994367" lon="14.3191417"><ele>47.0</ele><time>2026-04-25T07:17:14.115Z</time></trkpt><trkpt lat="40.8996717" lon="14.3191767"><ele>47.0</ele><time>2026-04-25T07:17:15.116Z</time></trkpt><trkpt lat="40.899905" lon="14.3192083"><ele>47.0</ele><time>2026-04-25T07:17:16.115Z</time></trkpt><trkpt lat="40.9001433" lon="14.3192417"><ele>48.0</ele><time>2026-04-25T07:17:17.115Z</time></trkpt><trkpt lat="40.9003833" lon="14.3192767"><ele>49.0</ele><time>2026-04-25T07:17:18.115Z</time></trkpt><trkpt lat="40.9006233" lon="14.3193117"><ele>49.0</ele><time>2026-04-25T07:17:19.115Z</time></trkpt><trkpt lat="40.90086" lon="14.319345"><ele>49.0</ele><time>2026-04-25T07:17:20.115Z</time></trkpt><trkpt lat="40.901095" lon="14.31938"><ele>47.5</ele><time>2026-04-25T07:17:21.115Z</time></trkpt><trkpt lat="40.901325" lon="14.3194133"><ele>46.0</ele><time>2026-04-25T07:17:22.115Z</time></trkpt><trkpt lat="40.9015567" lon="14.3194467"><ele>45.0</ele><time>2026-04-25T07:17:23.115Z</time></trkpt><trkpt lat="40.9017867" lon="14.3194833"><ele>44.0</ele><time>2026-04-25T07:17:24.115Z</time></trkpt><trkpt lat="40.90201" lon="14.319515"><ele>44.0</ele><time>2026-04-25T07:17:25.115Z</time></trkpt><trkpt lat="40.9022367" lon="14.319545"><ele>44.0</ele><time>2026-04-25T07:17:26.115Z</time></trkpt><trkpt lat="40.9024667" lon="14.319575"><ele>45.5</ele><time>2026-04-25T07:17:27.115Z</time></trkpt><trkpt lat="40.9026967" lon="14.319605"><ele>47.0</ele><time>2026-04-25T07:17:28.115Z</time></trkpt><trkpt lat="40.9029233" lon="14.31964"><ele>47.0</ele><time>2026-04-25T07:17:29.115Z</time></trkpt><trkpt lat="40.9031517" lon="14.3196783"><ele>47.0</ele><time>2026-04-25T07:17:30.115Z</time></trkpt><trkpt lat="40.9033683" lon="14.3197133"><ele>47.0</ele><time>2026-04-25T07:17:31.115Z</time></trkpt><trkpt lat="40.9035783" lon="14.3197567"><ele>47.33333333333333</ele><time>2026-04-25T07:17:32.116Z</time></trkpt><trkpt lat="40.9037833" lon="14.3198017"><ele>47.666666666666664</ele><time>2026-04-25T07:17:33.115Z</time></trkpt><trkpt lat="40.9039967" lon="14.3198483"><ele>48.0</ele><time>2026-04-25T07:17:34.116Z</time></trkpt><trkpt lat="40.904205" lon="14.319895"><ele>48.0</ele><time>2026-04-25T07:17:35.117Z</time></trkpt><trkpt lat="40.90442" lon="14.3199433"><ele>48.0</ele><time>2026-04-25T07:17:36.116Z</time></trkpt><trkpt lat="40.904635" lon="14.3199933"><ele>48.0</ele><time>2026-04-25T07:17:37.116Z</time></trkpt><trkpt lat="40.9048517" lon="14.3200433"><ele>48.0</ele><time>2026-04-25T07:17:38.116Z</time></trkpt><trkpt lat="40.90507" lon="14.3200917"><ele>48.0</ele><time>2026-04-25T07:17:39.116Z</time></trkpt><trkpt lat="40.9052917" lon="14.3201383"><ele>48.0</ele><time>2026-04-25T07:17:40.116Z</time></trkpt><trkpt lat="40.9055167" lon="14.3201817"><ele>48.33333333333333</ele><time>2026-04-25T07:17:41.116Z</time></trkpt><trkpt lat="40.9057333" lon="14.3202283"><ele>48.666666666666664</ele><time>2026-04-25T07:17:42.116Z</time></trkpt><trkpt lat="40.9059383" lon="14.32027"><ele>49.0</ele><time>2026-04-25T07:17:43.116Z</time></trkpt><trkpt lat="40.90614" lon="14.3203017"><ele>49.0</ele><time>2026-04-25T07:17:44.117Z</time></trkpt><trkpt lat="40.90633" lon="14.3203383"><ele>49.0</ele><time>2026-04-25T07:17:45.116Z</time></trkpt><trkpt lat="40.9065067" lon="14.32037"><ele>49.0</ele><time>2026-04-25T07:17:46.116Z</time></trkpt><trkpt lat="40.906675" lon="14.3203983"><ele>49.33333333333333</ele><time>2026-04-25T07:17:47.116Z</time></trkpt><trkpt lat="40.9068433" lon="14.32043"><ele>49.66666666666667</ele><time>2026-04-25T07:17:48.116Z</time></trkpt><trkpt lat="40.9070033" lon="14.3204617"><ele>50.0</ele><time>2026-04-25T07:17:49.116Z</time></trkpt><trkpt lat="40.9071633" lon="14.3205033"><ele>50.0</ele><time>2026-04-25T07:17:50.116Z</time></trkpt><trkpt lat="40.90732" lon="14.3205533"><ele>50.0</ele><time>2026-04-25T07:17:51.116Z</time></trkpt><trkpt lat="40.9074833" lon="14.3206217"><ele>50.0</ele><time>2026-04-25T07:17:52.116Z</time></trkpt><trkpt lat="40.9076467" lon="14.3207017"><ele>49.66666666666667</ele><time>2026-04-25T07:17:53.116Z</time></trkpt><trkpt lat="40.90781" lon="14.320795"><ele>49.33333333333333</ele><time>2026-04-25T07:17:54.117Z</time></trkpt><trkpt lat="40.907965" lon="14.3209033"><ele>49.0</ele><time>2026-04-25T07:17:55.116Z</time></trkpt><trkpt lat="40.9081167" lon="14.3210267"><ele>49.0</ele><time>2026-04-25T07:17:56.116Z</time></trkpt><trkpt lat="40.9082667" lon="14.32116"><ele>49.0</ele><time>2026-04-25T07:17:57.116Z</time></trkpt><trkpt lat="40.90841" lon="14.3213033"><ele>49.0</ele><time>2026-04-25T07:17:58.116Z</time></trkpt><trkpt lat="40.9085467" lon="14.3214617"><ele>48.666666666666664</ele><time>2026-04-25T07:17:59.116Z</time></trkpt><trkpt lat="40.9086717" lon="14.3216317"><ele>48.33333333333333</ele><time>2026-04-25T07:18:00.116Z</time></trkpt><trkpt lat="40.9087883" lon="14.32181"><ele>48.0</ele><time>2026-04-25T07:18:01.116Z</time></trkpt><trkpt lat="40.9088983" lon="14.3219983"><ele>48.0</ele><time>2026-04-25T07:18:02.116Z</time></trkpt><trkpt lat="40.9089933" lon="14.3222017"><ele>48.0</ele><time>2026-04-25T07:18:03.116Z</time></trkpt><trkpt lat="40.90908" lon="14.3224083"><ele>48.0</ele><time>2026-04-25T07:18:04.116Z</time></trkpt><trkpt lat="40.9091533" lon="14.322625"><ele>47.0</ele><time>2026-04-25T07:18:05.116Z</time></trkpt><trkpt lat="40.9092217" lon="14.3228433"><ele>46.0</ele><time>2026-04-25T07:18:06.116Z</time></trkpt><trkpt lat="40.9092717" lon="14.32307"><ele>45.0</ele><time>2026-04-25T07:18:07.116Z</time></trkpt><trkpt lat="40.909315" lon="14.3232933"><ele>45.0</ele><time>2026-04-25T07:18:08.116Z</time></trkpt><trkpt lat="40.9093483" lon="14.3235167"><ele>45.0</ele><time>2026-04-25T07:18:09.116Z</time></trkpt><trkpt lat="40.90937" lon="14.3237467"><ele>45.0</ele><time>2026-04-25T07:18:10.117Z</time></trkpt><trkpt lat="40.9093817" lon="14.3239783"><ele>44.666666666666664</ele><time>2026-04-25T07:18:11.116Z</time></trkpt><trkpt lat="40.9093833" lon="14.32421"><ele>44.33333333333333</ele><time>2026-04-25T07:18:12.116Z</time></trkpt><trkpt lat="40.909375" lon="14.3244433"><ele>44.0</ele><time>2026-04-25T07:18:13.116Z</time></trkpt><trkpt lat="40.9093617" lon="14.3246767"><ele>44.666666666666664</ele><time>2026-04-25T07:18:14.116Z</time></trkpt><trkpt lat="40.90934" lon="14.32492"><ele>45.333333333333336</ele><time>2026-04-25T07:18:15.116Z</time></trkpt><trkpt lat="40.9093133" lon="14.3251733"><ele>46.0</ele><time>2026-04-25T07:18:16.116Z</time></trkpt><trkpt lat="40.909275" lon="14.3254283"><ele>45.66666666666667</ele><time>2026-04-25T07:18:17.116Z</time></trkpt><trkpt lat="40.9092317" lon="14.3256917"><ele>45.333333333333336</ele><time>2026-04-25T07:18:18.116Z</time></trkpt><trkpt lat="40.9091817" lon="14.3259633"><ele>45.0</ele><time>2026-04-25T07:18:19.116Z</time></trkpt><trkpt lat="40.9091317" lon="14.3262333"><ele>45.0</ele><time>2026-04-25T07:18:20.116Z</time></trkpt><trkpt lat="40.909075" lon="14.32651"><ele>45.0</ele><time>2026-04-25T07:18:21.116Z</time></trkpt><trkpt lat="40.9090133" lon="14.3268"><ele>45.0</ele><time>2026-04-25T07:18:22.117Z</time></trkpt><trkpt lat="40.908945" lon="14.3270817"><ele>44.0</ele><time>2026-04-25T07:18:23.116Z</time></trkpt><trkpt lat="40.9088783" lon="14.3273717"><ele>43.0</ele><time>2026-04-25T07:18:24.116Z</time></trkpt><trkpt lat="40.9088033" lon="14.3276633"><ele>43.0</ele><time>2026-04-25T07:18:25.116Z</time></trkpt><trkpt lat="40.908725" lon="14.3279583"><ele>43.0</ele><time>2026-04-25T07:18:26.116Z</time></trkpt><trkpt lat="40.9086467" lon="14.3282567"><ele>43.0</ele><time>2026-04-25T07:18:27.116Z</time></trkpt><trkpt lat="40.9085733" lon="14.3285567"><ele>43.0</ele><time>2026-04-25T07:18:28.116Z</time></trkpt><trkpt lat="40.9084967" lon="14.32886"><ele>43.0</ele><time>2026-04-25T07:18:29.116Z</time></trkpt><trkpt lat="40.9084217" lon="14.3291617"><ele>43.0</ele><time>2026-04-25T07:18:30.116Z</time></trkpt><trkpt lat="40.9083467" lon="14.3294633"><ele>42.0</ele><time>2026-04-25T07:18:31.116Z</time></trkpt><trkpt lat="40.9082717" lon="14.3297633"><ele>41.0</ele><time>2026-04-25T07:18:32.116Z</time></trkpt><trkpt lat="40.9081983" lon="14.3300683"><ele>41.0</ele><time>2026-04-25T07:18:33.116Z</time></trkpt><trkpt lat="40.9081167" lon="14.3303833"><ele>41.0</ele><time>2026-04-25T07:18:34.117Z</time></trkpt><trkpt lat="40.9080367" lon="14.3306967"><ele>42.0</ele><time>2026-04-25T07:18:35.116Z</time></trkpt><trkpt lat="40.9079583" lon="14.3310083"><ele>43.0</ele><time>2026-04-25T07:18:36.116Z</time></trkpt><trkpt lat="40.90788" lon="14.33132"><ele>42.5</ele><time>2026-04-25T07:18:37.116Z</time></trkpt><trkpt lat="40.9078" lon="14.3316383"><ele>42.0</ele><time>2026-04-25T07:18:38.116Z</time></trkpt><trkpt lat="40.9077217" lon="14.331955"><ele>41.0</ele><time>2026-04-25T07:18:39.116Z</time></trkpt><trkpt lat="40.9076433" lon="14.332275"><ele>40.0</ele><time>2026-04-25T07:18:40.116Z</time></trkpt><trkpt lat="40.90756" lon="14.3325933"><ele>40.0</ele><time>2026-04-25T07:18:41.116Z</time></trkpt><trkpt lat="40.90748" lon="14.3329133"><ele>40.0</ele><time>2026-04-25T07:18:42.116Z</time></trkpt><trkpt lat="40.9074017" lon="14.3332367"><ele>40.0</ele><time>2026-04-25T07:18:43.116Z</time></trkpt><trkpt lat="40.90732" lon="14.3335567"><ele>40.0</ele><time>2026-04-25T07:18:44.116Z</time></trkpt><trkpt lat="40.9072417" lon="14.3338783"><ele>39.5</ele><time>2026-04-25T07:18:45.116Z</time></trkpt><trkpt lat="40.907155" lon="14.334195"><ele>39.0</ele><time>2026-04-25T07:18:46.116Z</time></trkpt><trkpt lat="40.9070733" lon="14.33451"><ele>38.5</ele><time>2026-04-25T07:18:47.116Z</time></trkpt><trkpt lat="40.906995" lon="14.3348267"><ele>38.0</ele><time>2026-04-25T07:18:48.116Z</time></trkpt><trkpt lat="40.9069183" lon="14.33515"><ele>38.0</ele><time>2026-04-25T07:18:49.116Z</time></trkpt><trkpt lat="40.9068333" lon="14.335475"><ele>38.0</ele><time>2026-04-25T07:18:50.116Z</time></trkpt><trkpt lat="40.90675" lon="14.3358"><ele>37.0</ele><time>2026-04-25T07:18:51.116Z</time></trkpt><trkpt lat="40.9066683" lon="14.3361233"><ele>36.0</ele><time>2026-04-25T07:18:52.116Z</time></trkpt><trkpt lat="40.90659" lon="14.336445"><ele>35.5</ele><time>2026-04-25T07:18:53.116Z</time></trkpt><trkpt lat="40.90651" lon="14.3367667"><ele>35.0</ele><time>2026-04-25T07:18:54.116Z</time></trkpt><trkpt lat="40.9064333" lon="14.337095"><ele>38.5</ele><time>2026-04-25T07:18:55.116Z</time></trkpt><trkpt lat="40.90636" lon="14.3374183"><ele>42.0</ele><time>2026-04-25T07:18:56.116Z</time></trkpt><trkpt lat="40.906275" lon="14.337735"><ele>42.5</ele><time>2026-04-25T07:18:57.116Z</time></trkpt><trkpt lat="40.9061917" lon="14.3380583"><ele>43.0</ele><time>2026-04-25T07:18:58.116Z</time></trkpt><trkpt lat="40.9061067" lon="14.3383817"><ele>43.0</ele><time>2026-04-25T07:18:59.116Z</time></trkpt><trkpt lat="40.906025" lon="14.3387"><ele>43.0</ele><time>2026-04-25T07:19:00.116Z</time></trkpt><trkpt lat="40.9059483" lon="14.33902"><ele>40.0</ele><time>2026-04-25T07:19:01.116Z</time></trkpt><trkpt lat="40.905865" lon="14.33934"><ele>37.0</ele><time>2026-04-25T07:19:02.116Z</time></trkpt><trkpt lat="40.9057833" lon="14.3396617"><ele>38.0</ele><time>2026-04-25T07:19:03.116Z</time></trkpt><trkpt lat="40.9057017" lon="14.3399783"><ele>39.0</ele><time>2026-04-25T07:19:04.116Z</time></trkpt><trkpt lat="40.905615" lon="14.3402983"><ele>39.5</ele><time>2026-04-25T07:19:05.116Z</time></trkpt><trkpt lat="40.90554" lon="14.3406167"><ele>40.0</ele><time>2026-04-25T07:19:06.117Z</time></trkpt><trkpt lat="40.9054567" lon="14.3409233"><ele>40.0</ele><time>2026-04-25T07:19:07.117Z</time></trkpt><trkpt lat="40.90538" lon="14.3412283"><ele>40.0</ele><time>2026-04-25T07:19:08.116Z</time></trkpt><trkpt lat="40.9053033" lon="14.341535"><ele>40.0</ele><time>2026-04-25T07:19:09.116Z</time></trkpt><trkpt lat="40.9052267" lon="14.3418333"><ele>40.0</ele><time>2026-04-25T07:19:10.116Z</time></trkpt><trkpt lat="40.9051517" lon="14.3421383"><ele>39.0</ele><time>2026-04-25T07:19:11.116Z</time></trkpt><trkpt lat="40.90508" lon="14.342435"><ele>38.0</ele><time>2026-04-25T07:19:12.116Z</time></trkpt><trkpt lat="40.90501" lon="14.342725"><ele>37.0</ele><time>2026-04-25T07:19:13.116Z</time></trkpt><trkpt lat="40.9049467" lon="14.343015"><ele>36.0</ele><time>2026-04-25T07:19:14.116Z</time></trkpt><trkpt lat="40.90489" lon="14.3432967"><ele>35.0</ele><time>2026-04-25T07:19:15.116Z</time></trkpt><trkpt lat="40.90483" lon="14.3435783"><ele>35.0</ele><time>2026-04-25T07:19:16.116Z</time></trkpt><trkpt lat="40.9047817" lon="14.343865"><ele>35.0</ele><time>2026-04-25T07:19:17.116Z</time></trkpt><trkpt lat="40.9047367" lon="14.3441467"><ele>35.0</ele><time>2026-04-25T07:19:18.116Z</time></trkpt><trkpt lat="40.9047067" lon="14.3444317"><ele>36.33333333333333</ele><time>2026-04-25T07:19:19.116Z</time></trkpt><trkpt lat="40.9046733" lon="14.3447133"><ele>37.666666666666664</ele><time>2026-04-25T07:19:20.116Z</time></trkpt><trkpt lat="40.90465" lon="14.3450033"><ele>39.0</ele><time>2026-04-25T07:19:21.116Z</time></trkpt><trkpt lat="40.9046267" lon="14.3452867"><ele>40.0</ele><time>2026-04-25T07:19:22.116Z</time></trkpt><trkpt lat="40.9046083" lon="14.3455783"><ele>41.0</ele><time>2026-04-25T07:19:23.117Z</time></trkpt><trkpt lat="40.904605" lon="14.3458683"><ele>42.0</ele><time>2026-04-25T07:19:24.116Z</time></trkpt><trkpt lat="40.904605" lon="14.3461667"><ele>42.0</ele><time>2026-04-25T07:19:25.116Z</time></trkpt><trkpt lat="40.9046033" lon="14.3464667"><ele>42.0</ele><time>2026-04-25T07:19:26.116Z</time></trkpt><trkpt lat="40.9046133" lon="14.3467633"><ele>42.0</ele><time>2026-04-25T07:19:27.117Z</time></trkpt><trkpt lat="40.9046217" lon="14.34707"><ele>42.0</ele><time>2026-04-25T07:19:28.116Z</time></trkpt><trkpt lat="40.90463" lon="14.3473783"><ele>38.5</ele><time>2026-04-25T07:19:29.116Z</time></trkpt><trkpt lat="40.9046417" lon="14.34769"><ele>35.0</ele><time>2026-04-25T07:19:30.116Z</time></trkpt><trkpt lat="40.904655" lon="14.3480067"><ele>35.5</ele><time>2026-04-25T07:19:31.116Z</time></trkpt><trkpt lat="40.90467" lon="14.3483217"><ele>36.0</ele><time>2026-04-25T07:19:32.116Z</time></trkpt><trkpt lat="40.9046867" lon="14.3486417"><ele>36.0</ele><time>2026-04-25T07:19:33.116Z</time></trkpt><trkpt lat="40.9047033" lon="14.3489667"><ele>36.0</ele><time>2026-04-25T07:19:34.116Z</time></trkpt><trkpt lat="40.90472" lon="14.3492917"><ele>36.0</ele><time>2026-04-25T07:19:35.116Z</time></trkpt><trkpt lat="40.904735" lon="14.3496233"><ele>36.0</ele><time>2026-04-25T07:19:36.116Z</time></trkpt><trkpt lat="40.90475" lon="14.3499567"><ele>36.0</ele><time>2026-04-25T07:19:37.116Z</time></trkpt><trkpt lat="40.9047717" lon="14.3502917"><ele>36.0</ele><time>2026-04-25T07:19:38.116Z</time></trkpt><trkpt lat="40.9047833" lon="14.3506167"><ele>36.0</ele><time>2026-04-25T07:19:39.116Z</time></trkpt><trkpt lat="40.9048033" lon="14.35097"><ele>36.0</ele><time>2026-04-25T07:19:40.116Z</time></trkpt><trkpt lat="40.9048183" lon="14.3513217"><ele>34.0</ele><time>2026-04-25T07:19:41.116Z</time></trkpt><trkpt lat="40.90484" lon="14.3516617"><ele>32.0</ele><time>2026-04-25T07:19:42.116Z</time></trkpt><trkpt lat="40.9048583" lon="14.3520067"><ele>31.5</ele><time>2026-04-25T07:19:43.116Z</time></trkpt><trkpt lat="40.904875" lon="14.3523467"><ele>31.0</ele><time>2026-04-25T07:19:44.116Z</time></trkpt><trkpt lat="40.9048883" lon="14.35269"><ele>31.0</ele><time>2026-04-25T07:19:45.116Z</time></trkpt><trkpt lat="40.9049033" lon="14.3530367"><ele>31.0</ele><time>2026-04-25T07:19:46.116Z</time></trkpt><trkpt lat="40.904915" lon="14.353375"><ele>31.0</ele><time>2026-04-25T07:19:47.116Z</time></trkpt><trkpt lat="40.90492" lon="14.35371"><ele>31.0</ele><time>2026-04-25T07:19:48.116Z</time></trkpt><trkpt lat="40.9049267" lon="14.3540317"><ele>30.5</ele><time>2026-04-25T07:19:49.116Z</time></trkpt><trkpt lat="40.9049267" lon="14.3543483"><ele>30.0</ele><time>2026-04-25T07:19:50.116Z</time></trkpt><trkpt lat="40.90492" lon="14.3546683"><ele>30.0</ele><time>2026-04-25T07:19:51.117Z</time></trkpt><trkpt lat="40.9049033" lon="14.3549883"><ele>30.0</ele><time>2026-04-25T07:19:52.116Z</time></trkpt><trkpt lat="40.9048783" lon="14.35531"><ele>30.0</ele><time>2026-04-25T07:19:53.117Z</time></trkpt><trkpt lat="40.9048383" lon="14.3556333"><ele>30.0</ele><time>2026-04-25T07:19:54.116Z</time></trkpt><trkpt lat="40.9048" lon="14.3559517"><ele>30.0</ele><time>2026-04-25T07:19:55.116Z</time></trkpt><trkpt lat="40.904755" lon="14.356275"><ele>30.0</ele><time>2026-04-25T07:19:56.116Z</time></trkpt><trkpt lat="40.9046983" lon="14.3565933"><ele>31.5</ele><time>2026-04-25T07:19:57.116Z</time></trkpt><trkpt lat="40.9046383" lon="14.3569117"><ele>33.0</ele><time>2026-04-25T07:19:58.116Z</time></trkpt><trkpt lat="40.90457" lon="14.3572233"><ele>33.0</ele><time>2026-04-25T07:19:59.116Z</time></trkpt><trkpt lat="40.904495" lon="14.3575383"><ele>33.0</ele><time>2026-04-25T07:20:00.116Z</time></trkpt><trkpt lat="40.90442" lon="14.3578483"><ele>33.5</ele><time>2026-04-25T07:20:01.116Z</time></trkpt><trkpt lat="40.9043417" lon="14.35815"><ele>34.0</ele><time>2026-04-25T07:20:02.116Z</time></trkpt><trkpt lat="40.9042483" lon="14.3584517"><ele>33.5</ele><time>2026-04-25T07:20:03.116Z</time></trkpt><trkpt lat="40.904155" lon="14.3587517"><ele>33.0</ele><time>2026-04-25T07:20:04.116Z</time></trkpt><trkpt lat="40.9040517" lon="14.3590433"><ele>34.5</ele><time>2026-04-25T07:20:05.116Z</time></trkpt><trkpt lat="40.9039417" lon="14.3593317"><ele>36.0</ele><time>2026-04-25T07:20:06.117Z</time></trkpt><trkpt lat="40.90383" lon="14.3596183"><ele>36.0</ele><time>2026-04-25T07:20:07.116Z</time></trkpt><trkpt lat="40.903715" lon="14.359905"><ele>36.0</ele><time>2026-04-25T07:20:08.116Z</time></trkpt><trkpt lat="40.903595" lon="14.3601883"><ele>36.0</ele><time>2026-04-25T07:20:09.116Z</time></trkpt><trkpt lat="40.9034717" lon="14.36048"><ele>36.0</ele><time>2026-04-25T07:20:10.116Z</time></trkpt><trkpt lat="40.9033467" lon="14.3607717"><ele>36.0</ele><time>2026-04-25T07:20:11.116Z</time></trkpt><trkpt lat="40.9032217" lon="14.3610633"><ele>36.0</ele><time>2026-04-25T07:20:12.116Z</time></trkpt><trkpt lat="40.9031" lon="14.3613483"><ele>36.0</ele><time>2026-04-25T07:20:13.116Z</time></trkpt><trkpt lat="40.902975" lon="14.36164"><ele>36.0</ele><time>2026-04-25T07:20:14.116Z</time></trkpt><trkpt lat="40.9028567" lon="14.36193"><ele>35.0</ele><time>2026-04-25T07:20:15.116Z</time></trkpt><trkpt lat="40.9027367" lon="14.3622133"><ele>34.0</ele><time>2026-04-25T07:20:16.116Z</time></trkpt><trkpt lat="40.9026183" lon="14.3625"><ele>35.0</ele><time>2026-04-25T07:20:17.116Z</time></trkpt><trkpt lat="40.9025017" lon="14.3627917"><ele>36.0</ele><time>2026-04-25T07:20:18.116Z</time></trkpt><trkpt lat="40.9023917" lon="14.3630833"><ele>36.0</ele><time>2026-04-25T07:20:19.116Z</time></trkpt><trkpt lat="40.9022883" lon="14.3633733"><ele>36.0</ele><time>2026-04-25T07:20:20.116Z</time></trkpt><trkpt lat="40.9021883" lon="14.3636717"><ele>35.0</ele><time>2026-04-25T07:20:21.117Z</time></trkpt><trkpt lat="40.902095" lon="14.3639717"><ele>34.0</ele><time>2026-04-25T07:20:22.116Z</time></trkpt><trkpt lat="40.90201" lon="14.3642717"><ele>34.0</ele><time>2026-04-25T07:20:23.116Z</time></trkpt><trkpt lat="40.9019333" lon="14.364575"><ele>34.0</ele><time>2026-04-25T07:20:24.116Z</time></trkpt><trkpt lat="40.90186" lon="14.3648767"><ele>32.5</ele><time>2026-04-25T07:20:25.116Z</time></trkpt><trkpt lat="40.901795" lon="14.365185"><ele>31.0</ele><time>2026-04-25T07:20:26.116Z</time></trkpt><trkpt lat="40.9017383" lon="14.3654883"><ele>30.5</ele><time>2026-04-25T07:20:27.116Z</time></trkpt><trkpt lat="40.9016883" lon="14.36579"><ele>30.0</ele><time>2026-04-25T07:20:28.116Z</time></trkpt><trkpt lat="40.9016383" lon="14.3660883"><ele>30.5</ele><time>2026-04-25T07:20:29.116Z</time></trkpt><trkpt lat="40.901595" lon="14.36639"><ele>31.0</ele><time>2026-04-25T07:20:30.116Z</time></trkpt><trkpt lat="40.90156" lon="14.3666833"><ele>31.0</ele><time>2026-04-25T07:20:31.116Z</time></trkpt><trkpt lat="40.90153" lon="14.3669717"><ele>31.0</ele><time>2026-04-25T07:20:32.116Z</time></trkpt><trkpt lat="40.9015083" lon="14.3672633"><ele>31.0</ele><time>2026-04-25T07:20:33.116Z</time></trkpt><trkpt lat="40.9014883" lon="14.3675583"><ele>30.5</ele><time>2026-04-25T07:20:34.116Z</time></trkpt><trkpt lat="40.9014767" lon="14.36786"><ele>30.0</ele><time>2026-04-25T07:20:35.116Z</time></trkpt><trkpt lat="40.901465" lon="14.3681567"><ele>30.0</ele><time>2026-04-25T07:20:36.116Z</time></trkpt><trkpt lat="40.9014633" lon="14.3684517"><ele>30.0</ele><time>2026-04-25T07:20:37.116Z</time></trkpt><trkpt lat="40.90147" lon="14.3687467"><ele>30.0</ele><time>2026-04-25T07:20:38.116Z</time></trkpt><trkpt lat="40.9014783" lon="14.369045"><ele>30.0</ele><time>2026-04-25T07:20:39.116Z</time></trkpt><trkpt lat="40.9014917" lon="14.3693433"><ele>30.0</ele><time>2026-04-25T07:20:40.116Z</time></trkpt><trkpt lat="40.9015167" lon="14.3696433"><ele>30.5</ele><time>2026-04-25T07:20:41.116Z</time></trkpt><trkpt lat="40.9015417" lon="14.3699467"><ele>31.0</ele><time>2026-04-25T07:20:42.116Z</time></trkpt><trkpt lat="40.901575" lon="14.3702467"><ele>31.5</ele><time>2026-04-25T07:20:43.116Z</time></trkpt><trkpt lat="40.9016117" lon="14.3705517"><ele>32.0</ele><time>2026-04-25T07:20:44.116Z</time></trkpt><trkpt lat="40.901645" lon="14.3708567"><ele>32.0</ele><time>2026-04-25T07:20:45.116Z</time></trkpt><trkpt lat="40.9016833" lon="14.371165"><ele>32.0</ele><time>2026-04-25T07:20:46.116Z</time></trkpt><trkpt lat="40.901725" lon="14.3714717"><ele>31.5</ele><time>2026-04-25T07:20:47.117Z</time></trkpt><trkpt lat="40.9017633" lon="14.37178"><ele>31.0</ele><time>2026-04-25T07:20:48.116Z</time></trkpt><trkpt lat="40.9017983" lon="14.372095"><ele>32.0</ele><time>2026-04-25T07:20:49.116Z</time></trkpt><trkpt lat="40.9018383" lon="14.372405"><ele>33.0</ele><time>2026-04-25T07:20:50.116Z</time></trkpt><trkpt lat="40.9018767" lon="14.3727183"><ele>33.0</ele><time>2026-04-25T07:20:51.116Z</time></trkpt><trkpt lat="40.9019117" lon="14.3730383"><ele>33.0</ele><time>2026-04-25T07:20:52.116Z</time></trkpt><trkpt lat="40.901945" lon="14.3733517"><ele>33.0</ele><time>2026-04-25T07:20:53.116Z</time></trkpt><trkpt lat="40.9019833" lon="14.3736717"><ele>33.0</ele><time>2026-04-25T07:20:54.116Z</time></trkpt><trkpt lat="40.9020233" lon="14.3739883"><ele>32.0</ele><time>2026-04-25T07:20:55.116Z</time></trkpt><trkpt lat="40.9020617" lon="14.374305"><ele>31.0</ele><time>2026-04-25T07:20:56.116Z</time></trkpt><trkpt lat="40.9021" lon="14.374625"><ele>31.0</ele><time>2026-04-25T07:20:57.116Z</time></trkpt><trkpt lat="40.902135" lon="14.3749433"><ele>31.0</ele><time>2026-04-25T07:20:58.116Z</time></trkpt><trkpt lat="40.9021717" lon="14.3752633"><ele>31.0</ele><time>2026-04-25T07:20:59.116Z</time></trkpt><trkpt lat="40.9022117" lon="14.375585"><ele>31.0</ele><time>2026-04-25T07:21:00.116Z</time></trkpt><trkpt lat="40.90225" lon="14.375905"><ele>31.0</ele><time>2026-04-25T07:21:01.116Z</time></trkpt><trkpt lat="40.90229" lon="14.3762267"><ele>31.0</ele><time>2026-04-25T07:21:02.116Z</time></trkpt><trkpt lat="40.9023267" lon="14.3765433"><ele>31.0</ele><time>2026-04-25T07:21:03.116Z</time></trkpt><trkpt lat="40.9023633" lon="14.3768583"><ele>31.0</ele><time>2026-04-25T07:21:04.116Z</time></trkpt><trkpt lat="40.9024033" lon="14.37718"><ele>31.0</ele><time>2026-04-25T07:21:05.116Z</time></trkpt><trkpt lat="40.90244" lon="14.3774883"><ele>31.0</ele><time>2026-04-25T07:21:06.116Z</time></trkpt><trkpt lat="40.9024817" lon="14.3777983"><ele>31.5</ele><time>2026-04-25T07:21:07.116Z</time></trkpt><trkpt lat="40.90252" lon="14.3781017"><ele>32.0</ele><time>2026-04-25T07:21:08.116Z</time></trkpt><trkpt lat="40.902555" lon="14.3784033"><ele>31.666666666666664</ele><time>2026-04-25T07:21:09.116Z</time></trkpt><trkpt lat="40.9025933" lon="14.3786983"><ele>31.333333333333336</ele><time>2026-04-25T07:21:10.116Z</time></trkpt><trkpt lat="40.902625" lon="14.37899"><ele>31.0</ele><time>2026-04-25T07:21:11.116Z</time></trkpt><trkpt lat="40.9026633" lon="14.379285"><ele>31.0</ele><time>2026-04-25T07:21:12.116Z</time></trkpt><trkpt lat="40.9027033" lon="14.3795783"><ele>31.0</ele><time>2026-04-25T07:21:13.116Z</time></trkpt><trkpt lat="40.90274" lon="14.3798733"><ele>31.666666666666668</ele><time>2026-04-25T07:21:14.117Z</time></trkpt><trkpt lat="40.9027733" lon="14.3801617"><ele>32.333333333333336</ele><time>2026-04-25T07:21:15.116Z</time></trkpt><trkpt lat="40.902805" lon="14.3804583"><ele>33.0</ele><time>2026-04-25T07:21:16.116Z</time></trkpt><trkpt lat="40.902835" lon="14.3807567"><ele>33.333333333333336</ele><time>2026-04-25T07:21:17.116Z</time></trkpt><trkpt lat="40.9028667" lon="14.3810483"><ele>33.66666666666667</ele><time>2026-04-25T07:21:18.116Z</time></trkpt><trkpt lat="40.9028967" lon="14.38134"><ele>34.0</ele><time>2026-04-25T07:21:19.117Z</time></trkpt><trkpt lat="40.9029183" lon="14.3816333"><ele>34.0</ele><time>2026-04-25T07:21:20.116Z</time></trkpt><trkpt lat="40.90293" lon="14.3819233"><ele>34.0</ele><time>2026-04-25T07:21:21.116Z</time></trkpt><trkpt lat="40.9029333" lon="14.38221"><ele>34.0</ele><time>2026-04-25T07:21:22.116Z</time></trkpt><trkpt lat="40.9029333" lon="14.3824933"><ele>34.0</ele><time>2026-04-25T07:21:23.116Z</time></trkpt><trkpt lat="40.9029233" lon="14.3827817"><ele>34.0</ele><time>2026-04-25T07:21:24.116Z</time></trkpt><trkpt lat="40.90291" lon="14.3830717"><ele>34.0</ele><time>2026-04-25T07:21:25.116Z</time></trkpt><trkpt lat="40.902885" lon="14.38336"><ele>33.66666666666667</ele><time>2026-04-25T07:21:26.116Z</time></trkpt><trkpt lat="40.9028517" lon="14.3836483"><ele>33.333333333333336</ele><time>2026-04-25T07:21:27.116Z</time></trkpt><trkpt lat="40.9028133" lon="14.38394"><ele>33.0</ele><time>2026-04-25T07:21:28.116Z</time></trkpt><trkpt lat="40.902765" lon="14.38424"><ele>33.0</ele><time>2026-04-25T07:21:29.116Z</time></trkpt><trkpt lat="40.90271" lon="14.3845383"><ele>33.0</ele><time>2026-04-25T07:21:30.117Z</time></trkpt><trkpt lat="40.9026467" lon="14.3848367"><ele>32.5</ele><time>2026-04-25T07:21:31.116Z</time></trkpt><trkpt lat="40.90257" lon="14.385135"><ele>32.0</ele><time>2026-04-25T07:21:32.116Z</time></trkpt><trkpt lat="40.90249" lon="14.385425"><ele>33.0</ele><time>2026-04-25T07:21:33.117Z</time></trkpt><trkpt lat="40.9024" lon="14.3857067"><ele>34.0</ele><time>2026-04-25T07:21:34.116Z</time></trkpt><trkpt lat="40.9023083" lon="14.385995"><ele>34.0</ele><time>2026-04-25T07:21:35.116Z</time></trkpt><trkpt lat="40.90221" lon="14.3862883"><ele>34.0</ele><time>2026-04-25T07:21:36.116Z</time></trkpt><trkpt lat="40.9021117" lon="14.386575"><ele>35.0</ele><time>2026-04-25T07:21:37.116Z</time></trkpt><trkpt lat="40.902015" lon="14.38687"><ele>36.0</ele><time>2026-04-25T07:21:38.116Z</time></trkpt><trkpt lat="40.9019117" lon="14.3871633"><ele>35.5</ele><time>2026-04-25T07:21:39.117Z</time></trkpt><trkpt lat="40.901815" lon="14.3874583"><ele>35.0</ele><time>2026-04-25T07:21:40.116Z</time></trkpt><trkpt lat="40.901715" lon="14.3877483"><ele>36.0</ele><time>2026-04-25T07:21:41.116Z</time></trkpt><trkpt lat="40.9016133" lon="14.3880433"><ele>37.0</ele><time>2026-04-25T07:21:42.116Z</time></trkpt><trkpt lat="40.9015117" lon="14.3883417"><ele>37.0</ele><time>2026-04-25T07:21:43.117Z</time></trkpt><trkpt lat="40.9014083" lon="14.3886467"><ele>37.0</ele><time>2026-04-25T07:21:44.116Z</time></trkpt><trkpt lat="40.9013083" lon="14.388945"><ele>36.5</ele><time>2026-04-25T07:21:45.116Z</time></trkpt><trkpt lat="40.9012083" lon="14.3892517"><ele>36.0</ele><time>2026-04-25T07:21:46.116Z</time></trkpt><trkpt lat="40.9011067" lon="14.38956"><ele>36.5</ele><time>2026-04-25T07:21:47.117Z</time></trkpt><trkpt lat="40.9010017" lon="14.3898633"><ele>37.0</ele><time>2026-04-25T07:21:48.116Z</time></trkpt><trkpt lat="40.9008983" lon="14.3901633"><ele>37.0</ele><time>2026-04-25T07:21:49.117Z</time></trkpt><trkpt lat="40.9008033" lon="14.3904633"><ele>37.0</ele><time>2026-04-25T07:21:50.116Z</time></trkpt><trkpt lat="40.90071" lon="14.3907567"><ele>37.5</ele><time>2026-04-25T07:21:51.117Z</time></trkpt><trkpt lat="40.9006217" lon="14.3910483"><ele>38.0</ele><time>2026-04-25T07:21:52.116Z</time></trkpt><trkpt lat="40.9005417" lon="14.3913417"><ele>38.0</ele><time>2026-04-25T07:21:53.116Z</time></trkpt><trkpt lat="40.90047" lon="14.3916283"><ele>38.0</ele><time>2026-04-25T07:21:54.116Z</time></trkpt><trkpt lat="40.90041" lon="14.3919167"><ele>38.0</ele><time>2026-04-25T07:21:55.116Z</time></trkpt><trkpt lat="40.9003633" lon="14.392205"><ele>38.0</ele><time>2026-04-25T07:21:56.116Z</time></trkpt><trkpt lat="40.900325" lon="14.3924933"><ele>38.0</ele><time>2026-04-25T07:21:57.116Z</time></trkpt><trkpt lat="40.9002983" lon="14.3927817"><ele>38.33333333333333</ele><time>2026-04-25T07:21:58.116Z</time></trkpt><trkpt lat="40.9002733" lon="14.3930683"><ele>38.666666666666664</ele><time>2026-04-25T07:21:59.116Z</time></trkpt><trkpt lat="40.9002583" lon="14.39335"><ele>39.0</ele><time>2026-04-25T07:22:00.116Z</time></trkpt><trkpt lat="40.900255" lon="14.3936433"><ele>39.333333333333336</ele><time>2026-04-25T07:22:01.116Z</time></trkpt><trkpt lat="40.90026" lon="14.39393"><ele>39.66666666666667</ele><time>2026-04-25T07:22:02.116Z</time></trkpt><trkpt lat="40.90027" lon="14.394215"><ele>40.0</ele><time>2026-04-25T07:22:03.116Z</time></trkpt><trkpt lat="40.9002917" lon="14.3945033"><ele>40.0</ele><time>2026-04-25T07:22:04.117Z</time></trkpt><trkpt lat="40.9003233" lon="14.39479"><ele>40.0</ele><time>2026-04-25T07:22:05.116Z</time></trkpt><trkpt lat="40.90036" lon="14.3950717"><ele>40.0</ele><time>2026-04-25T07:22:06.116Z</time></trkpt><trkpt lat="40.900405" lon="14.3953467"><ele>40.66666666666667</ele><time>2026-04-25T07:22:07.117Z</time></trkpt><trkpt lat="40.9004583" lon="14.395625"><ele>41.333333333333336</ele><time>2026-04-25T07:22:08.116Z</time></trkpt><trkpt lat="40.9005233" lon="14.395905"><ele>42.0</ele><time>2026-04-25T07:22:09.117Z</time></trkpt><trkpt lat="40.9005933" lon="14.3961883"><ele>41.5</ele><time>2026-04-25T07:22:10.116Z</time></trkpt><trkpt lat="40.9006733" lon="14.3964683"><ele>41.0</ele><time>2026-04-25T07:22:11.116Z</time></trkpt><trkpt lat="40.90076" lon="14.3967517"><ele>41.0</ele><time>2026-04-25T07:22:12.116Z</time></trkpt><trkpt lat="40.9008467" lon="14.39704"><ele>41.0</ele><time>2026-04-25T07:22:13.116Z</time></trkpt><trkpt lat="40.900935" lon="14.3973317"><ele>41.0</ele><time>2026-04-25T07:22:14.116Z</time></trkpt><trkpt lat="40.9010233" lon="14.3976267"><ele>41.0</ele><time>2026-04-25T07:22:15.116Z</time></trkpt><trkpt lat="40.9011183" lon="14.3979283"><ele>41.5</ele><time>2026-04-25T07:22:16.116Z</time></trkpt><trkpt lat="40.90121" lon="14.398225"><ele>42.0</ele><time>2026-04-25T07:22:17.116Z</time></trkpt><trkpt lat="40.901305" lon="14.3985217"><ele>42.0</ele><time>2026-04-25T07:22:18.116Z</time></trkpt><trkpt lat="40.9013983" lon="14.3988233"><ele>42.0</ele><time>2026-04-25T07:22:19.116Z</time></trkpt><trkpt lat="40.9014883" lon="14.39913"><ele>42.5</ele><time>2026-04-25T07:22:20.116Z</time></trkpt><trkpt lat="40.9015783" lon="14.3994317"><ele>43.0</ele><time>2026-04-25T07:22:21.116Z</time></trkpt><trkpt lat="40.9016667" lon="14.3997433"><ele>42.5</ele><time>2026-04-25T07:22:22.116Z</time></trkpt><trkpt lat="40.9017567" lon="14.400055"><ele>42.0</ele><time>2026-04-25T07:22:23.116Z</time></trkpt><trkpt lat="40.9018483" lon="14.4003667"><ele>42.0</ele><time>2026-04-25T07:22:24.116Z</time></trkpt><trkpt lat="40.901945" lon="14.40068"><ele>42.0</ele><time>2026-04-25T07:22:25.116Z</time></trkpt><trkpt lat="40.9020433" lon="14.4009983"><ele>42.0</ele><time>2026-04-25T07:22:26.116Z</time></trkpt><trkpt lat="40.9021383" lon="14.4013167"><ele>42.0</ele><time>2026-04-25T07:22:27.117Z</time></trkpt><trkpt lat="40.9022383" lon="14.4016333"><ele>42.5</ele><time>2026-04-25T07:22:28.116Z</time></trkpt><trkpt lat="40.9023367" lon="14.4019533"><ele>43.0</ele><time>2026-04-25T07:22:29.116Z</time></trkpt><trkpt lat="40.9024217" lon="14.40227"><ele>44.0</ele><time>2026-04-25T07:22:30.117Z</time></trkpt><trkpt lat="40.90251" lon="14.4025917"><ele>45.0</ele><time>2026-04-25T07:22:31.116Z</time></trkpt><trkpt lat="40.90261" lon="14.40291"><ele>44.5</ele><time>2026-04-25T07:22:32.117Z</time></trkpt><trkpt lat="40.9027067" lon="14.4032283"><ele>44.0</ele><time>2026-04-25T07:22:33.116Z</time></trkpt><trkpt lat="40.9028083" lon="14.403555"><ele>46.0</ele><time>2026-04-25T07:22:34.116Z</time></trkpt><trkpt lat="40.9029133" lon="14.4038783"><ele>48.0</ele><time>2026-04-25T07:22:35.116Z</time></trkpt><trkpt lat="40.9030117" lon="14.4042067"><ele>48.0</ele><time>2026-04-25T07:22:36.116Z</time></trkpt><trkpt lat="40.9031133" lon="14.404525"><ele>48.0</ele><time>2026-04-25T07:22:37.117Z</time></trkpt><trkpt lat="40.9032083" lon="14.4048467"><ele>47.0</ele><time>2026-04-25T07:22:38.116Z</time></trkpt><trkpt lat="40.9033033" lon="14.40517"><ele>46.0</ele><time>2026-04-25T07:22:39.116Z</time></trkpt><trkpt lat="40.903395" lon="14.4054967"><ele>45.0</ele><time>2026-04-25T07:22:40.116Z</time></trkpt><trkpt lat="40.9034933" lon="14.40582"><ele>44.0</ele><time>2026-04-25T07:22:41.116Z</time></trkpt><trkpt lat="40.90359" lon="14.4061417"><ele>44.0</ele><time>2026-04-25T07:22:42.116Z</time></trkpt><trkpt lat="40.903685" lon="14.4064667"><ele>44.0</ele><time>2026-04-25T07:22:43.116Z</time></trkpt><trkpt lat="40.9037783" lon="14.4067917"><ele>44.0</ele><time>2026-04-25T07:22:44.116Z</time></trkpt><trkpt lat="40.9038667" lon="14.4071083"><ele>44.0</ele><time>2026-04-25T07:22:45.116Z</time></trkpt><trkpt lat="40.9039533" lon="14.4074067"><ele>43.0</ele><time>2026-04-25T07:22:46.116Z</time></trkpt><trkpt lat="40.9040333" lon="14.407695"><ele>42.0</ele><time>2026-04-25T07:22:47.117Z</time></trkpt><trkpt lat="40.9041133" lon="14.40799"><ele>42.0</ele><time>2026-04-25T07:22:48.116Z</time></trkpt><trkpt lat="40.90419" lon="14.408285"><ele>42.0</ele><time>2026-04-25T07:22:49.116Z</time></trkpt><trkpt lat="40.9042567" lon="14.4085833"><ele>43.0</ele><time>2026-04-25T07:22:50.117Z</time></trkpt><trkpt lat="40.9043233" lon="14.4088867"><ele>44.0</ele><time>2026-04-25T07:22:51.116Z</time></trkpt><trkpt lat="40.904385" lon="14.40919"><ele>44.0</ele><time>2026-04-25T07:22:52.116Z</time></trkpt><trkpt lat="40.904445" lon="14.4095033"><ele>44.0</ele><time>2026-04-25T07:22:53.116Z</time></trkpt><trkpt lat="40.904505" lon="14.409825"><ele>45.0</ele><time>2026-04-25T07:22:54.116Z</time></trkpt><trkpt lat="40.904565" lon="14.41015"><ele>46.0</ele><time>2026-04-25T07:22:55.116Z</time></trkpt><trkpt lat="40.904615" lon="14.4104783"><ele>46.0</ele><time>2026-04-25T07:22:56.116Z</time></trkpt><trkpt lat="40.9046633" lon="14.4108133"><ele>46.0</ele><time>2026-04-25T07:22:57.116Z</time></trkpt><trkpt lat="40.9047133" lon="14.4111533"><ele>46.0</ele><time>2026-04-25T07:22:58.116Z</time></trkpt><trkpt lat="40.9047567" lon="14.4114933"><ele>46.0</ele><time>2026-04-25T07:22:59.116Z</time></trkpt><trkpt lat="40.9047983" lon="14.4118383"><ele>45.5</ele><time>2026-04-25T07:23:00.116Z</time></trkpt><trkpt lat="40.9048383" lon="14.4121883"><ele>45.0</ele><time>2026-04-25T07:23:01.116Z</time></trkpt><trkpt lat="40.90488" lon="14.4125367"><ele>45.0</ele><time>2026-04-25T07:23:02.116Z</time></trkpt><trkpt lat="40.9049233" lon="14.4128867"><ele>45.0</ele><time>2026-04-25T07:23:03.116Z</time></trkpt><trkpt lat="40.90497" lon="14.4132383"><ele>46.0</ele><time>2026-04-25T07:23:04.116Z</time></trkpt><trkpt lat="40.9050117" lon="14.4135983"><ele>47.0</ele><time>2026-04-25T07:23:05.116Z</time></trkpt><trkpt lat="40.9050567" lon="14.4139583"><ele>46.5</ele><time>2026-04-25T07:23:06.116Z</time></trkpt><trkpt lat="40.9051033" lon="14.41432"><ele>46.0</ele><time>2026-04-25T07:23:07.116Z</time></trkpt><trkpt lat="40.90515" lon="14.414685"><ele>46.0</ele><time>2026-04-25T07:23:08.116Z</time></trkpt><trkpt lat="40.905195" lon="14.41505"><ele>46.0</ele><time>2026-04-25T07:23:09.116Z</time></trkpt><trkpt lat="40.90524" lon="14.415415"><ele>46.5</ele><time>2026-04-25T07:23:10.116Z</time></trkpt><trkpt lat="40.90528" lon="14.4157783"><ele>47.0</ele><time>2026-04-25T07:23:11.116Z</time></trkpt><trkpt lat="40.9053267" lon="14.4161417"><ele>46.5</ele><time>2026-04-25T07:23:12.117Z</time></trkpt><trkpt lat="40.9053717" lon="14.4165117"><ele>46.0</ele><time>2026-04-25T07:23:13.116Z</time></trkpt><trkpt lat="40.9054133" lon="14.4168783"><ele>46.0</ele><time>2026-04-25T07:23:14.116Z</time></trkpt><trkpt lat="40.9054583" lon="14.41724"><ele>46.0</ele><time>2026-04-25T07:23:15.116Z</time></trkpt><trkpt lat="40.905505" lon="14.4176083"><ele>46.0</ele><time>2026-04-25T07:23:16.116Z</time></trkpt><trkpt lat="40.90555" lon="14.4179767"><ele>46.0</ele><time>2026-04-25T07:23:17.116Z</time></trkpt><trkpt lat="40.9055933" lon="14.4183467"><ele>46.5</ele><time>2026-04-25T07:23:18.116Z</time></trkpt><trkpt lat="40.9056433" lon="14.418715"><ele>47.0</ele><time>2026-04-25T07:23:19.116Z</time></trkpt><trkpt lat="40.90569" lon="14.41909"><ele>47.5</ele><time>2026-04-25T07:23:20.116Z</time></trkpt><trkpt lat="40.9057317" lon="14.41946"><ele>48.0</ele><time>2026-04-25T07:23:21.116Z</time></trkpt><trkpt lat="40.9057783" lon="14.4198333"><ele>48.0</ele><time>2026-04-25T07:23:22.116Z</time></trkpt><trkpt lat="40.9058233" lon="14.42021"><ele>48.0</ele><time>2026-04-25T07:23:23.116Z</time></trkpt><trkpt lat="40.9058633" lon="14.4205783"><ele>48.0</ele><time>2026-04-25T07:23:24.116Z</time></trkpt><trkpt lat="40.9059083" lon="14.420945"><ele>48.0</ele><time>2026-04-25T07:23:25.117Z</time></trkpt><trkpt lat="40.905955" lon="14.4213067"><ele>48.0</ele><time>2026-04-25T07:23:26.116Z</time></trkpt><trkpt lat="40.9060017" lon="14.42167"><ele>48.0</ele><time>2026-04-25T07:23:27.116Z</time></trkpt><trkpt lat="40.9060467" lon="14.4220333"><ele>48.5</ele><time>2026-04-25T07:23:28.116Z</time></trkpt><trkpt lat="40.9060933" lon="14.4223917"><ele>49.0</ele><time>2026-04-25T07:23:29.116Z</time></trkpt><trkpt lat="40.906135" lon="14.4227567"><ele>49.5</ele><time>2026-04-25T07:23:30.116Z</time></trkpt><trkpt lat="40.90618" lon="14.4231183"><ele>50.0</ele><time>2026-04-25T07:23:31.116Z</time></trkpt><trkpt lat="40.9062267" lon="14.4234817"><ele>49.5</ele><time>2026-04-25T07:23:32.116Z</time></trkpt><trkpt lat="40.906275" lon="14.4238467"><ele>49.0</ele><time>2026-04-25T07:23:33.116Z</time></trkpt><trkpt lat="40.9063183" lon="14.4242133"><ele>49.0</ele><time>2026-04-25T07:23:34.116Z</time></trkpt><trkpt lat="40.9063633" lon="14.4245817"><ele>49.0</ele><time>2026-04-25T07:23:35.116Z</time></trkpt><trkpt lat="40.9064133" lon="14.4249517"><ele>48.5</ele><time>2026-04-25T07:23:36.116Z</time></trkpt><trkpt lat="40.90646" lon="14.42532"><ele>48.0</ele><time>2026-04-25T07:23:37.116Z</time></trkpt><trkpt lat="40.9065067" lon="14.42569"><ele>47.5</ele><time>2026-04-25T07:23:38.116Z</time></trkpt><trkpt lat="40.9065483" lon="14.42606"><ele>47.0</ele><time>2026-04-25T07:23:39.116Z</time></trkpt><trkpt lat="40.90659" lon="14.4264383"><ele>47.0</ele><time>2026-04-25T07:23:40.116Z</time></trkpt><trkpt lat="40.9066367" lon="14.426815"><ele>47.0</ele><time>2026-04-25T07:23:41.116Z</time></trkpt><trkpt lat="40.9066817" lon="14.4271933"><ele>47.0</ele><time>2026-04-25T07:23:42.116Z</time></trkpt><trkpt lat="40.90673" lon="14.4275767"><ele>47.0</ele><time>2026-04-25T07:23:43.116Z</time></trkpt><trkpt lat="40.9067767" lon="14.427965"><ele>46.5</ele><time>2026-04-25T07:23:44.116Z</time></trkpt><trkpt lat="40.906825" lon="14.4283583"><ele>46.0</ele><time>2026-04-25T07:23:45.116Z</time></trkpt><trkpt lat="40.9068717" lon="14.428745"><ele>46.5</ele><time>2026-04-25T07:23:46.116Z</time></trkpt><trkpt lat="40.9069217" lon="14.4291317"><ele>47.0</ele><time>2026-04-25T07:23:47.116Z</time></trkpt><trkpt lat="40.906965" lon="14.42952"><ele>45.5</ele><time>2026-04-25T07:23:48.116Z</time></trkpt><trkpt lat="40.9070133" lon="14.429915"><ele>44.0</ele><time>2026-04-25T07:23:49.117Z</time></trkpt><trkpt lat="40.9070633" lon="14.4303167"><ele>44.0</ele><time>2026-04-25T07:23:50.116Z</time></trkpt><trkpt lat="40.9071183" lon="14.430735"><ele>44.0</ele><time>2026-04-25T07:23:51.116Z</time></trkpt><trkpt lat="40.9071683" lon="14.4311667"><ele>44.5</ele><time>2026-04-25T07:23:52.116Z</time></trkpt><trkpt lat="40.907225" lon="14.4316117"><ele>45.0</ele><time>2026-04-25T07:23:53.116Z</time></trkpt><trkpt lat="40.907285" lon="14.4320633"><ele>44.5</ele><time>2026-04-25T07:23:54.116Z</time></trkpt><trkpt lat="40.907345" lon="14.432525"><ele>44.0</ele><time>2026-04-25T07:23:55.116Z</time></trkpt><trkpt lat="40.9074033" lon="14.4329883"><ele>44.0</ele><time>2026-04-25T07:23:56.116Z</time></trkpt><trkpt lat="40.9074633" lon="14.433455"><ele>44.0</ele><time>2026-04-25T07:23:57.116Z</time></trkpt><trkpt lat="40.9075217" lon="14.4339317"><ele>43.5</ele><time>2026-04-25T07:23:58.116Z</time></trkpt><trkpt lat="40.90758" lon="14.4344083"><ele>43.0</ele><time>2026-04-25T07:23:59.116Z</time></trkpt><trkpt lat="40.907635" lon="14.4348883"><ele>43.0</ele><time>2026-04-25T07:24:00.116Z</time></trkpt><trkpt lat="40.90769" lon="14.43535"><ele>43.0</ele><time>2026-04-25T07:24:01.116Z</time></trkpt><trkpt lat="40.9077417" lon="14.435785"><ele>42.0</ele><time>2026-04-25T07:24:02.116Z</time></trkpt><trkpt lat="40.9077867" lon="14.4361917"><ele>41.0</ele><time>2026-04-25T07:24:03.116Z</time></trkpt><trkpt lat="40.9078333" lon="14.4365733"><ele>41.0</ele><time>2026-04-25T07:24:04.116Z</time></trkpt><trkpt lat="40.90788" lon="14.4369433"><ele>41.0</ele><time>2026-04-25T07:24:05.116Z</time></trkpt><trkpt lat="40.9079233" lon="14.4373017"><ele>41.0</ele><time>2026-04-25T07:24:06.116Z</time></trkpt><trkpt lat="40.9079633" lon="14.4376483"><ele>41.0</ele><time>2026-04-25T07:24:07.116Z</time></trkpt><trkpt lat="40.9080033" lon="14.437985"><ele>41.0</ele><time>2026-04-25T07:24:08.116Z</time></trkpt><trkpt lat="40.90804" lon="14.438315"><ele>41.0</ele><time>2026-04-25T07:24:09.116Z</time></trkpt><trkpt lat="40.90808" lon="14.4386417"><ele>40.5</ele><time>2026-04-25T07:24:10.116Z</time></trkpt><trkpt lat="40.9081183" lon="14.4389617"><ele>40.0</ele><time>2026-04-25T07:24:11.116Z</time></trkpt><trkpt lat="40.9081583" lon="14.4392783"><ele>40.0</ele><time>2026-04-25T07:24:12.116Z</time></trkpt><trkpt lat="40.9082" lon="14.439595"><ele>40.0</ele><time>2026-04-25T07:24:13.117Z</time></trkpt><trkpt lat="40.9082383" lon="14.4399133"><ele>40.5</ele><time>2026-04-25T07:24:14.116Z</time></trkpt><trkpt lat="40.90828" lon="14.4402283"><ele>41.0</ele><time>2026-04-25T07:24:15.116Z</time></trkpt><trkpt lat="40.90832" lon="14.4405433"><ele>41.5</ele><time>2026-04-25T07:24:16.116Z</time></trkpt><trkpt lat="40.90836" lon="14.44086"><ele>42.0</ele><time>2026-04-25T07:24:17.116Z</time></trkpt><trkpt lat="40.9084" lon="14.4411733"><ele>39.5</ele><time>2026-04-25T07:24:18.116Z</time></trkpt><trkpt lat="40.9084367" lon="14.4414867"><ele>37.0</ele><time>2026-04-25T07:24:19.116Z</time></trkpt><trkpt lat="40.908475" lon="14.4417983"><ele>37.0</ele><time>2026-04-25T07:24:20.116Z</time></trkpt><trkpt lat="40.9085167" lon="14.4421133"><ele>37.0</ele><time>2026-04-25T07:24:21.116Z</time></trkpt><trkpt lat="40.9085533" lon="14.4424317"><ele>37.5</ele><time>2026-04-25T07:24:22.116Z</time></trkpt><trkpt lat="40.9085867" lon="14.442745"><ele>38.0</ele><time>2026-04-25T07:24:23.116Z</time></trkpt><trkpt lat="40.9086233" lon="14.4430667"><ele>39.0</ele><time>2026-04-25T07:24:24.116Z</time></trkpt><trkpt lat="40.9086617" lon="14.4433867"><ele>40.0</ele><time>2026-04-25T07:24:25.116Z</time></trkpt><trkpt lat="40.9086983" lon="14.4437067"><ele>40.5</ele><time>2026-04-25T07:24:26.116Z</time></trkpt><trkpt lat="40.9087417" lon="14.4440283"><ele>41.0</ele><time>2026-04-25T07:24:27.117Z</time></trkpt><trkpt lat="40.9087833" lon="14.4443567"><ele>40.5</ele><time>2026-04-25T07:24:28.116Z</time></trkpt><trkpt lat="40.9088233" lon="14.4446917"><ele>40.0</ele><time>2026-04-25T07:24:29.116Z</time></trkpt><trkpt lat="40.9088617" lon="14.44503"><ele>40.0</ele><time>2026-04-25T07:24:30.116Z</time></trkpt><trkpt lat="40.9089" lon="14.4453683"><ele>40.0</ele><time>2026-04-25T07:24:31.116Z</time></trkpt><trkpt lat="40.9089367" lon="14.445715"><ele>39.5</ele><time>2026-04-25T07:24:32.116Z</time></trkpt><trkpt lat="40.9089783" lon="14.4460667"><ele>39.0</ele><time>2026-04-25T07:24:33.116Z</time></trkpt><trkpt lat="40.909025" lon="14.4464217"><ele>39.0</ele><time>2026-04-25T07:24:34.117Z</time></trkpt><trkpt lat="40.90907" lon="14.4467733"><ele>39.0</ele><time>2026-04-25T07:24:35.116Z</time></trkpt><trkpt lat="40.9091133" lon="14.44713"><ele>39.0</ele><time>2026-04-25T07:24:36.116Z</time></trkpt><trkpt lat="40.9091567" lon="14.44749"><ele>39.0</ele><time>2026-04-25T07:24:37.117Z</time></trkpt><trkpt lat="40.9091983" lon="14.4478467"><ele>38.0</ele><time>2026-04-25T07:24:38.116Z</time></trkpt><trkpt lat="40.9092467" lon="14.4482067"><ele>37.0</ele><time>2026-04-25T07:24:39.116Z</time></trkpt><trkpt lat="40.9092867" lon="14.4485617"><ele>37.5</ele><time>2026-04-25T07:24:40.116Z</time></trkpt><trkpt lat="40.90933" lon="14.448915"><ele>38.0</ele><time>2026-04-25T07:24:41.116Z</time></trkpt><trkpt lat="40.9093733" lon="14.4492733"><ele>38.0</ele><time>2026-04-25T07:24:42.116Z</time></trkpt><trkpt lat="40.9094183" lon="14.44963"><ele>38.0</ele><time>2026-04-25T07:24:43.117Z</time></trkpt><trkpt lat="40.9094617" lon="14.449985"><ele>38.0</ele><time>2026-04-25T07:24:44.116Z</time></trkpt><trkpt lat="40.9095067" lon="14.4503367"><ele>38.0</ele><time>2026-04-25T07:24:45.116Z</time></trkpt><trkpt lat="40.9095533" lon="14.450685"><ele>38.0</ele><time>2026-04-25T07:24:46.116Z</time></trkpt><trkpt lat="40.9095933" lon="14.4510367"><ele>38.0</ele><time>2026-04-25T07:24:47.116Z</time></trkpt><trkpt lat="40.9096367" lon="14.45138"><ele>38.0</ele><time>2026-04-25T07:24:48.116Z</time></trkpt><trkpt lat="40.9096767" lon="14.4517283"><ele>38.0</ele><time>2026-04-25T07:24:49.116Z</time></trkpt><trkpt lat="40.90972" lon="14.4520783"><ele>38.0</ele><time>2026-04-25T07:24:50.116Z</time></trkpt><trkpt lat="40.90976" lon="14.45242"><ele>38.0</ele><time>2026-04-25T07:24:51.116Z</time></trkpt><trkpt lat="40.9098033" lon="14.452765"><ele>38.5</ele><time>2026-04-25T07:24:52.116Z</time></trkpt><trkpt lat="40.90985" lon="14.4531133"><ele>39.0</ele><time>2026-04-25T07:24:53.116Z</time></trkpt><trkpt lat="40.9099" lon="14.453455"><ele>39.0</ele><time>2026-04-25T07:24:54.116Z</time></trkpt><trkpt lat="40.9099517" lon="14.45379"><ele>39.0</ele><time>2026-04-25T07:24:55.116Z</time></trkpt><trkpt lat="40.9100033" lon="14.4541267"><ele>39.0</ele><time>2026-04-25T07:24:56.116Z</time></trkpt><trkpt lat="40.910065" lon="14.454465"><ele>39.0</ele><time>2026-04-25T07:24:57.116Z</time></trkpt><trkpt lat="40.9101267" lon="14.4548017"><ele>37.5</ele><time>2026-04-25T07:24:58.116Z</time></trkpt><trkpt lat="40.9101983" lon="14.455135"><ele>36.0</ele><time>2026-04-25T07:24:59.116Z</time></trkpt><trkpt lat="40.9102683" lon="14.45547"><ele>36.0</ele><time>2026-04-25T07:25:00.116Z</time></trkpt><trkpt lat="40.9103417" lon="14.4557983"><ele>36.0</ele><time>2026-04-25T07:25:01.116Z</time></trkpt><trkpt lat="40.9104217" lon="14.4561267"><ele>37.0</ele><time>2026-04-25T07:25:02.116Z</time></trkpt><trkpt lat="40.9104983" lon="14.456455"><ele>38.0</ele><time>2026-04-25T07:25:03.116Z</time></trkpt><trkpt lat="40.9105783" lon="14.4567817"><ele>38.0</ele><time>2026-04-25T07:25:04.116Z</time></trkpt><trkpt lat="40.910665" lon="14.4571033"><ele>38.0</ele><time>2026-04-25T07:25:05.116Z</time></trkpt><trkpt lat="40.9107583" lon="14.457425"><ele>38.0</ele><time>2026-04-25T07:25:06.116Z</time></trkpt><trkpt lat="40.91085" lon="14.4577367"><ele>38.0</ele><time>2026-04-25T07:25:07.116Z</time></trkpt><trkpt lat="40.91095" lon="14.45805"><ele>38.0</ele><time>2026-04-25T07:25:08.116Z</time></trkpt><trkpt lat="40.911055" lon="14.4583733"><ele>38.0</ele><time>2026-04-25T07:25:09.116Z</time></trkpt><trkpt lat="40.9111683" lon="14.4586833"><ele>37.0</ele><time>2026-04-25T07:25:10.116Z</time></trkpt><trkpt lat="40.911275" lon="14.4589933"><ele>36.0</ele><time>2026-04-25T07:25:11.116Z</time></trkpt><trkpt lat="40.9113833" lon="14.4593"><ele>36.0</ele><time>2026-04-25T07:25:12.116Z</time></trkpt><trkpt lat="40.9114967" lon="14.4596117"><ele>36.0</ele><time>2026-04-25T07:25:13.116Z</time></trkpt><trkpt lat="40.9116167" lon="14.4599167"><ele>35.0</ele><time>2026-04-25T07:25:14.116Z</time></trkpt><trkpt lat="40.9117433" lon="14.4602167"><ele>34.0</ele><time>2026-04-25T07:25:15.116Z</time></trkpt><trkpt lat="40.9118617" lon="14.460515"><ele>34.0</ele><time>2026-04-25T07:25:16.117Z</time></trkpt><trkpt lat="40.91198" lon="14.4608"><ele>34.0</ele><time>2026-04-25T07:25:17.116Z</time></trkpt><trkpt lat="40.9120933" lon="14.4610733"><ele>34.333333333333336</ele><time>2026-04-25T07:25:18.116Z</time></trkpt><trkpt lat="40.9121933" lon="14.461335"><ele>34.666666666666664</ele><time>2026-04-25T07:25:19.116Z</time></trkpt><trkpt lat="40.9122933" lon="14.4615783"><ele>35.0</ele><time>2026-04-25T07:25:20.116Z</time></trkpt><trkpt lat="40.912385" lon="14.4618117"><ele>35.0</ele><time>2026-04-25T07:25:21.117Z</time></trkpt><trkpt lat="40.91248" lon="14.46204"><ele>35.0</ele><time>2026-04-25T07:25:22.116Z</time></trkpt><trkpt lat="40.9125783" lon="14.4622683"><ele>35.0</ele><time>2026-04-25T07:25:23.116Z</time></trkpt><trkpt lat="40.91267" lon="14.4624933"><ele>34.0</ele><time>2026-04-25T07:25:24.116Z</time></trkpt><trkpt lat="40.912765" lon="14.4627233"><ele>33.0</ele><time>2026-04-25T07:25:25.116Z</time></trkpt><trkpt lat="40.9128583" lon="14.4629533"><ele>32.0</ele><time>2026-04-25T07:25:26.116Z</time></trkpt><trkpt lat="40.9129533" lon="14.46318"><ele>32.0</ele><time>2026-04-25T07:25:27.116Z</time></trkpt><trkpt lat="40.913045" lon="14.463415"><ele>32.0</ele><time>2026-04-25T07:25:28.116Z</time></trkpt><trkpt lat="40.9131417" lon="14.4636517"><ele>32.0</ele><time>2026-04-25T07:25:29.116Z</time></trkpt><trkpt lat="40.91324" lon="14.4638983"><ele>32.33333333333333</ele><time>2026-04-25T07:25:30.116Z</time></trkpt><trkpt lat="40.9133367" lon="14.4641483"><ele>32.666666666666664</ele><time>2026-04-25T07:25:31.117Z</time></trkpt><trkpt lat="40.9134417" lon="14.4644033"><ele>33.0</ele><time>2026-04-25T07:25:32.116Z</time></trkpt><trkpt lat="40.913545" lon="14.464655"><ele>32.333333333333336</ele><time>2026-04-25T07:25:33.117Z</time></trkpt><trkpt lat="40.9136517" lon="14.4649183"><ele>31.666666666666668</ele><time>2026-04-25T07:25:34.117Z</time></trkpt><trkpt lat="40.913755" lon="14.46518"><ele>31.0</ele><time>2026-04-25T07:25:35.117Z</time></trkpt><trkpt lat="40.913865" lon="14.4654533"><ele>31.0</ele><time>2026-04-25T07:25:36.118Z</time></trkpt><trkpt lat="40.913975" lon="14.465725"><ele>31.0</ele><time>2026-04-25T07:25:37.118Z</time></trkpt><trkpt lat="40.9140867" lon="14.4659967"><ele>31.0</ele><time>2026-04-25T07:25:38.117Z</time></trkpt><trkpt lat="40.9142" lon="14.4662633"><ele>31.0</ele><time>2026-04-25T07:25:39.117Z</time></trkpt><trkpt lat="40.91431" lon="14.4665317"><ele>32.0</ele><time>2026-04-25T07:25:40.117Z</time></trkpt><trkpt lat="40.9144217" lon="14.4668"><ele>33.0</ele><time>2026-04-25T07:25:41.117Z</time></trkpt><trkpt lat="40.9145283" lon="14.4670667"><ele>32.333333333333336</ele><time>2026-04-25T07:25:42.117Z</time></trkpt><trkpt lat="40.914635" lon="14.4673267"><ele>31.666666666666668</ele><time>2026-04-25T07:25:43.117Z</time></trkpt><trkpt lat="40.9147367" lon="14.46758"><ele>31.0</ele><time>2026-04-25T07:25:44.117Z</time></trkpt><trkpt lat="40.9148383" lon="14.4678267"><ele>31.333333333333336</ele><time>2026-04-25T07:25:45.117Z</time></trkpt><trkpt lat="40.9149333" lon="14.4680767"><ele>31.666666666666664</ele><time>2026-04-25T07:25:46.117Z</time></trkpt><trkpt lat="40.9150233" lon="14.4683"><ele>32.0</ele><time>2026-04-25T07:25:47.117Z</time></trkpt><trkpt lat="40.9151017" lon="14.4685217"><ele>32.0</ele><time>2026-04-25T07:25:48.117Z</time></trkpt><trkpt lat="40.9151817" lon="14.4687367"><ele>32.0</ele><time>2026-04-25T07:25:49.117Z</time></trkpt><trkpt lat="40.9152533" lon="14.468945"><ele>32.0</ele><time>2026-04-25T07:25:50.117Z</time></trkpt><trkpt lat="40.915315" lon="14.4691433"><ele>32.0</ele><time>2026-04-25T07:25:51.117Z</time></trkpt><trkpt lat="40.9153767" lon="14.46933"><ele>32.0</ele><time>2026-04-25T07:25:52.117Z</time></trkpt><trkpt lat="40.91543" lon="14.469505"><ele>32.0</ele><time>2026-04-25T07:25:53.117Z</time></trkpt><trkpt lat="40.9154817" lon="14.469685"><ele>32.0</ele><time>2026-04-25T07:25:54.117Z</time></trkpt><trkpt lat="40.91553" lon="14.4698667"><ele>32.0</ele><time>2026-04-25T07:25:55.118Z</time></trkpt><trkpt lat="40.91558" lon="14.4700367"><ele>32.0</ele><time>2026-04-25T07:25:56.118Z</time></trkpt><trkpt lat="40.9156233" lon="14.4701933"><ele>32.0</ele><time>2026-04-25T07:25:57.118Z</time></trkpt><trkpt lat="40.9156667" lon="14.4703417"><ele>32.0</ele><time>2026-04-25T07:25:58.117Z</time></trkpt><trkpt lat="40.9157117" lon="14.4704683"><ele>31.833333333333332</ele><time>2026-04-25T07:25:59.117Z</time></trkpt><trkpt lat="40.915755" lon="14.4705867"><ele>31.666666666666664</ele><time>2026-04-25T07:26:00.117Z</time></trkpt><trkpt lat="40.9157983" lon="14.4706917"><ele>31.5</ele><time>2026-04-25T07:26:01.117Z</time></trkpt><trkpt lat="40.915835" lon="14.4707783"><ele>31.333333333333336</ele><time>2026-04-25T07:26:02.117Z</time></trkpt><trkpt lat="40.91587" lon="14.470855"><ele>31.166666666666668</ele><time>2026-04-25T07:26:03.117Z</time></trkpt><trkpt lat="40.915925" lon="14.47098"><ele>31.0</ele><time>2026-04-25T07:26:05.117Z</time></trkpt><trkpt lat="40.9159717" lon="14.471115"><ele>31.5</ele><time>2026-04-25T07:26:07.117Z</time></trkpt><trkpt lat="40.9160117" lon="14.47122"><ele>32.0</ele><time>2026-04-25T07:26:08.117Z</time></trkpt><trkpt lat="40.9160667" lon="14.4713483"><ele>32.5</ele><time>2026-04-25T07:26:09.117Z</time></trkpt><trkpt lat="40.91614" lon="14.4715033"><ele>33.0</ele><time>2026-04-25T07:26:10.117Z</time></trkpt><trkpt lat="40.916225" lon="14.4716833"><ele>33.0</ele><time>2026-04-25T07:26:11.117Z</time></trkpt><trkpt lat="40.9163167" lon="14.4718833"><ele>33.0</ele><time>2026-04-25T07:26:12.117Z</time></trkpt><trkpt lat="40.9164133" lon="14.4720883"><ele>33.0</ele><time>2026-04-25T07:26:13.117Z</time></trkpt><trkpt lat="40.9165183" lon="14.472295"><ele>33.0</ele><time>2026-04-25T07:26:14.117Z</time></trkpt><trkpt lat="40.9166333" lon="14.4725133"><ele>33.0</ele><time>2026-04-25T07:26:15.117Z</time></trkpt><trkpt lat="40.91675" lon="14.47274"><ele>33.0</ele><time>2026-04-25T07:26:16.117Z</time></trkpt><trkpt lat="40.9168717" lon="14.472965"><ele>33.0</ele><time>2026-04-25T07:26:17.117Z</time></trkpt><trkpt lat="40.9169933" lon="14.4732017"><ele>33.0</ele><time>2026-04-25T07:26:18.117Z</time></trkpt><trkpt lat="40.9171083" lon="14.4734533"><ele>33.0</ele><time>2026-04-25T07:26:19.117Z</time></trkpt><trkpt lat="40.9172217" lon="14.473705"><ele>33.0</ele><time>2026-04-25T07:26:20.117Z</time></trkpt><trkpt lat="40.9173283" lon="14.4739633"><ele>33.0</ele><time>2026-04-25T07:26:21.117Z</time></trkpt><trkpt lat="40.9174383" lon="14.4742317"><ele>33.0</ele><time>2026-04-25T07:26:22.117Z</time></trkpt><trkpt lat="40.9175517" lon="14.4744933"><ele>33.0</ele><time>2026-04-25T07:26:23.117Z</time></trkpt><trkpt lat="40.917655" lon="14.4747567"><ele>33.0</ele><time>2026-04-25T07:26:24.117Z</time></trkpt><trkpt lat="40.9177567" lon="14.4750267"><ele>33.0</ele><time>2026-04-25T07:26:25.117Z</time></trkpt><trkpt lat="40.917875" lon="14.4753"><ele>32.5</ele><time>2026-04-25T07:26:26.117Z</time></trkpt><trkpt lat="40.9179867" lon="14.4755683"><ele>32.0</ele><time>2026-04-25T07:26:27.117Z</time></trkpt><trkpt lat="40.918095" lon="14.4758417"><ele>32.0</ele><time>2026-04-25T07:26:28.117Z</time></trkpt><trkpt lat="40.9182083" lon="14.47611"><ele>32.0</ele><time>2026-04-25T07:26:29.117Z</time></trkpt><trkpt lat="40.918315" lon="14.4763817"><ele>32.0</ele><time>2026-04-25T07:26:30.117Z</time></trkpt><trkpt lat="40.9184267" lon="14.4766533"><ele>32.0</ele><time>2026-04-25T07:26:31.117Z</time></trkpt><trkpt lat="40.9185383" lon="14.4769283"><ele>32.5</ele><time>2026-04-25T07:26:32.117Z</time></trkpt><trkpt lat="40.9186467" lon="14.4771983"><ele>33.0</ele><time>2026-04-25T07:26:33.117Z</time></trkpt><trkpt lat="40.918755" lon="14.47746"><ele>33.0</ele><time>2026-04-25T07:26:34.117Z</time></trkpt><trkpt lat="40.9188633" lon="14.4777217"><ele>33.0</ele><time>2026-04-25T07:26:35.117Z</time></trkpt><trkpt lat="40.9189767" lon="14.4779917"><ele>32.5</ele><time>2026-04-25T07:26:36.118Z</time></trkpt><trkpt lat="40.9190867" lon="14.4782617"><ele>32.0</ele><time>2026-04-25T07:26:37.118Z</time></trkpt><trkpt lat="40.9191967" lon="14.4785367"><ele>32.5</ele><time>2026-04-25T07:26:38.117Z</time></trkpt><trkpt lat="40.919305" lon="14.478815"><ele>33.0</ele><time>2026-04-25T07:26:39.117Z</time></trkpt><trkpt lat="40.9194167" lon="14.4790983"><ele>33.0</ele><time>2026-04-25T07:26:40.117Z</time></trkpt><trkpt lat="40.919535" lon="14.47937"><ele>33.0</ele><time>2026-04-25T07:26:41.117Z</time></trkpt><trkpt lat="40.9196483" lon="14.479645"><ele>32.5</ele><time>2026-04-25T07:26:42.117Z</time></trkpt><trkpt lat="40.9197633" lon="14.4799217"><ele>32.0</ele><time>2026-04-25T07:26:43.117Z</time></trkpt><trkpt lat="40.9198867" lon="14.4802067"><ele>32.0</ele><time>2026-04-25T07:26:44.118Z</time></trkpt><trkpt lat="40.9200167" lon="14.4805067"><ele>32.0</ele><time>2026-04-25T07:26:45.117Z</time></trkpt><trkpt lat="40.9201517" lon="14.4808183"><ele>32.0</ele><time>2026-04-25T07:26:46.117Z</time></trkpt><trkpt lat="40.9202917" lon="14.4811417"><ele>32.0</ele><time>2026-04-25T07:26:47.118Z</time></trkpt><trkpt lat="40.9204383" lon="14.48148"><ele>32.0</ele><time>2026-04-25T07:26:48.117Z</time></trkpt><trkpt lat="40.9205983" lon="14.4818217"><ele>32.0</ele><time>2026-04-25T07:26:49.118Z</time></trkpt><trkpt lat="40.9207583" lon="14.4821617"><ele>32.5</ele><time>2026-04-25T07:26:50.117Z</time></trkpt><trkpt lat="40.9209117" lon="14.4824933"><ele>33.0</ele><time>2026-04-25T07:26:51.117Z</time></trkpt><trkpt lat="40.9210733" lon="14.4828283"><ele>33.0</ele><time>2026-04-25T07:26:52.117Z</time></trkpt><trkpt lat="40.921235" lon="14.4831633"><ele>33.0</ele><time>2026-04-25T07:26:53.117Z</time></trkpt><trkpt lat="40.9213883" lon="14.48349"><ele>33.0</ele><time>2026-04-25T07:26:54.117Z</time></trkpt><trkpt lat="40.9215433" lon="14.48381"><ele>33.0</ele><time>2026-04-25T07:26:55.117Z</time></trkpt><trkpt lat="40.921695" lon="14.4841267"><ele>33.0</ele><time>2026-04-25T07:26:56.117Z</time></trkpt><trkpt lat="40.9218467" lon="14.4844333"><ele>33.0</ele><time>2026-04-25T07:26:57.117Z</time></trkpt><trkpt lat="40.922" lon="14.4847433"><ele>33.0</ele><time>2026-04-25T07:26:58.117Z</time></trkpt><trkpt lat="40.92215" lon="14.4850567"><ele>33.0</ele><time>2026-04-25T07:26:59.117Z</time></trkpt><trkpt lat="40.9223" lon="14.4853733"><ele>33.0</ele><time>2026-04-25T07:27:00.117Z</time></trkpt><trkpt lat="40.922445" lon="14.4857033"><ele>33.0</ele><time>2026-04-25T07:27:01.117Z</time></trkpt><trkpt lat="40.9225983" lon="14.486035"><ele>32.5</ele><time>2026-04-25T07:27:02.117Z</time></trkpt><trkpt lat="40.9227567" lon="14.4863667"><ele>32.0</ele><time>2026-04-25T07:27:03.117Z</time></trkpt><trkpt lat="40.92291" lon="14.4866933"><ele>32.0</ele><time>2026-04-25T07:27:04.117Z</time></trkpt><trkpt lat="40.9230617" lon="14.4870133"><ele>32.0</ele><time>2026-04-25T07:27:05.117Z</time></trkpt><trkpt lat="40.9232183" lon="14.4873367"><ele>32.0</ele><time>2026-04-25T07:27:06.118Z</time></trkpt><trkpt lat="40.9233783" lon="14.4876617"><ele>32.0</ele><time>2026-04-25T07:27:07.117Z</time></trkpt><trkpt lat="40.923535" lon="14.4879717"><ele>31.5</ele><time>2026-04-25T07:27:08.118Z</time></trkpt><trkpt lat="40.9236933" lon="14.488295"><ele>31.0</ele><time>2026-04-25T07:27:09.117Z</time></trkpt><trkpt lat="40.9238483" lon="14.4886117"><ele>31.0</ele><time>2026-04-25T07:27:10.117Z</time></trkpt><trkpt lat="40.9239967" lon="14.4889283"><ele>31.0</ele><time>2026-04-25T07:27:11.117Z</time></trkpt><trkpt lat="40.92415" lon="14.4892483"><ele>31.5</ele><time>2026-04-25T07:27:12.118Z</time></trkpt><trkpt lat="40.9242983" lon="14.4895583"><ele>32.0</ele><time>2026-04-25T07:27:13.117Z</time></trkpt><trkpt lat="40.92445" lon="14.48987"><ele>31.0</ele><time>2026-04-25T07:27:14.117Z</time></trkpt><trkpt lat="40.9246017" lon="14.490175"><ele>30.0</ele><time>2026-04-25T07:27:15.117Z</time></trkpt><trkpt lat="40.9247533" lon="14.4904867"><ele>29.5</ele><time>2026-04-25T07:27:16.117Z</time></trkpt><trkpt lat="40.9249033" lon="14.490795"><ele>29.0</ele><time>2026-04-25T07:27:17.117Z</time></trkpt><trkpt lat="40.9250517" lon="14.4910933"><ele>30.0</ele><time>2026-04-25T07:27:18.117Z</time></trkpt><trkpt lat="40.9252017" lon="14.4914033"><ele>31.0</ele><time>2026-04-25T07:27:19.117Z</time></trkpt><trkpt lat="40.9253483" lon="14.4917083"><ele>31.0</ele><time>2026-04-25T07:27:20.117Z</time></trkpt><trkpt lat="40.9254967" lon="14.4920083"><ele>31.0</ele><time>2026-04-25T07:27:21.117Z</time></trkpt><trkpt lat="40.9256467" lon="14.4923217"><ele>31.5</ele><time>2026-04-25T07:27:22.117Z</time></trkpt><trkpt lat="40.9257983" lon="14.4926267"><ele>32.0</ele><time>2026-04-25T07:27:23.117Z</time></trkpt><trkpt lat="40.9259517" lon="14.49293"><ele>31.0</ele><time>2026-04-25T07:27:24.117Z</time></trkpt><trkpt lat="40.9261067" lon="14.49324"><ele>30.0</ele><time>2026-04-25T07:27:25.117Z</time></trkpt><trkpt lat="40.92626" lon="14.4935467"><ele>29.5</ele><time>2026-04-25T07:27:26.117Z</time></trkpt><trkpt lat="40.9264083" lon="14.4938583"><ele>29.0</ele><time>2026-04-25T07:27:27.117Z</time></trkpt><trkpt lat="40.9265567" lon="14.49417"><ele>29.0</ele><time>2026-04-25T07:27:28.117Z</time></trkpt><trkpt lat="40.9267083" lon="14.4944867"><ele>29.0</ele><time>2026-04-25T07:27:29.117Z</time></trkpt><trkpt lat="40.9268583" lon="14.4948033"><ele>30.5</ele><time>2026-04-25T07:27:30.117Z</time></trkpt><trkpt lat="40.9270083" lon="14.4951217"><ele>32.0</ele><time>2026-04-25T07:27:31.117Z</time></trkpt><trkpt lat="40.9271583" lon="14.4954267"><ele>33.0</ele><time>2026-04-25T07:27:32.117Z</time></trkpt><trkpt lat="40.9273067" lon="14.4957317"><ele>34.0</ele><time>2026-04-25T07:27:33.118Z</time></trkpt><trkpt lat="40.9274483" lon="14.496035"><ele>35.0</ele><time>2026-04-25T07:27:34.117Z</time></trkpt><trkpt lat="40.92759" lon="14.4963283"><ele>36.0</ele><time>2026-04-25T07:27:35.117Z</time></trkpt><trkpt lat="40.9277383" lon="14.4966333"><ele>36.0</ele><time>2026-04-25T07:27:36.117Z</time></trkpt><trkpt lat="40.9278817" lon="14.4969283"><ele>36.0</ele><time>2026-04-25T07:27:37.117Z</time></trkpt><trkpt lat="40.928035" lon="14.4972233"><ele>34.5</ele><time>2026-04-25T07:27:38.117Z</time></trkpt><trkpt lat="40.928175" lon="14.4975217"><ele>33.0</ele><time>2026-04-25T07:27:39.117Z</time></trkpt><trkpt lat="40.92831" lon="14.4978233"><ele>35.5</ele><time>2026-04-25T07:27:40.117Z</time></trkpt><trkpt lat="40.9284433" lon="14.49813"><ele>38.0</ele><time>2026-04-25T07:27:41.117Z</time></trkpt><trkpt lat="40.9285717" lon="14.4984383"><ele>38.0</ele><time>2026-04-25T07:27:42.117Z</time></trkpt><trkpt lat="40.9286917" lon="14.4987467"><ele>38.0</ele><time>2026-04-25T07:27:43.117Z</time></trkpt><trkpt lat="40.9288217" lon="14.4990533"><ele>37.0</ele><time>2026-04-25T07:27:44.117Z</time></trkpt><trkpt lat="40.928935" lon="14.499375"><ele>36.0</ele><time>2026-04-25T07:27:45.117Z</time></trkpt><trkpt lat="40.92905" lon="14.4996867"><ele>35.0</ele><time>2026-04-25T07:27:46.117Z</time></trkpt><trkpt lat="40.9291617" lon="14.5000083"><ele>34.0</ele><time>2026-04-25T07:27:47.117Z</time></trkpt><trkpt lat="40.9292733" lon="14.5003267"><ele>33.5</ele><time>2026-04-25T07:27:48.117Z</time></trkpt><trkpt lat="40.9293783" lon="14.5006483"><ele>33.0</ele><time>2026-04-25T07:27:49.117Z</time></trkpt><trkpt lat="40.92948" lon="14.5009817"><ele>33.0</ele><time>2026-04-25T07:27:50.117Z</time></trkpt><trkpt lat="40.929575" lon="14.5013117"><ele>33.0</ele><time>2026-04-25T07:27:51.117Z</time></trkpt><trkpt lat="40.9296683" lon="14.5016433"><ele>33.0</ele><time>2026-04-25T07:27:52.117Z</time></trkpt><trkpt lat="40.92976" lon="14.5019717"><ele>33.0</ele><time>2026-04-25T07:27:53.117Z</time></trkpt><trkpt lat="40.92985" lon="14.502305"><ele>33.5</ele><time>2026-04-25T07:27:54.117Z</time></trkpt><trkpt lat="40.9299333" lon="14.50264"><ele>34.0</ele><time>2026-04-25T07:27:55.117Z</time></trkpt><trkpt lat="40.9300133" lon="14.502975"><ele>33.0</ele><time>2026-04-25T07:27:56.117Z</time></trkpt><trkpt lat="40.9300867" lon="14.5033183"><ele>32.0</ele><time>2026-04-25T07:27:57.117Z</time></trkpt><trkpt lat="40.93015" lon="14.5036683"><ele>32.5</ele><time>2026-04-25T07:27:58.117Z</time></trkpt><trkpt lat="40.9302183" lon="14.504015"><ele>33.0</ele><time>2026-04-25T07:27:59.117Z</time></trkpt><trkpt lat="40.9302817" lon="14.5043667"><ele>33.0</ele><time>2026-04-25T07:28:00.117Z</time></trkpt><trkpt lat="40.93035" lon="14.5047117"><ele>33.0</ele><time>2026-04-25T07:28:01.117Z</time></trkpt><trkpt lat="40.9304083" lon="14.5050617"><ele>33.0</ele><time>2026-04-25T07:28:02.117Z</time></trkpt><trkpt lat="40.93046" lon="14.50541"><ele>33.0</ele><time>2026-04-25T07:28:03.117Z</time></trkpt><trkpt lat="40.9305067" lon="14.5057683"><ele>32.5</ele><time>2026-04-25T07:28:04.117Z</time></trkpt><trkpt lat="40.93055" lon="14.5061233"><ele>32.0</ele><time>2026-04-25T07:28:05.117Z</time></trkpt><trkpt lat="40.930585" lon="14.5064717"><ele>32.0</ele><time>2026-04-25T07:28:06.118Z</time></trkpt><trkpt lat="40.9306233" lon="14.5068167"><ele>32.0</ele><time>2026-04-25T07:28:07.117Z</time></trkpt><trkpt lat="40.9306583" lon="14.5071633"><ele>32.0</ele><time>2026-04-25T07:28:08.117Z</time></trkpt><trkpt lat="40.9306883" lon="14.5075133"><ele>32.0</ele><time>2026-04-25T07:28:09.117Z</time></trkpt><trkpt lat="40.9307167" lon="14.5078583"><ele>32.0</ele><time>2026-04-25T07:28:10.117Z</time></trkpt><trkpt lat="40.9307383" lon="14.5082083"><ele>32.0</ele><time>2026-04-25T07:28:11.117Z</time></trkpt><trkpt lat="40.9307583" lon="14.5085533"><ele>31.5</ele><time>2026-04-25T07:28:12.117Z</time></trkpt><trkpt lat="40.9307683" lon="14.5089033"><ele>31.0</ele><time>2026-04-25T07:28:13.118Z</time></trkpt><trkpt lat="40.9307783" lon="14.5092533"><ele>31.0</ele><time>2026-04-25T07:28:14.117Z</time></trkpt><trkpt lat="40.93079" lon="14.5096033"><ele>31.0</ele><time>2026-04-25T07:28:15.117Z</time></trkpt><trkpt lat="40.9307967" lon="14.5099517"><ele>31.0</ele><time>2026-04-25T07:28:16.117Z</time></trkpt><trkpt lat="40.9308067" lon="14.5103033"><ele>31.0</ele><time>2026-04-25T07:28:17.117Z</time></trkpt><trkpt lat="40.9308183" lon="14.51066"><ele>32.0</ele><time>2026-04-25T07:28:18.117Z</time></trkpt><trkpt lat="40.9308283" lon="14.5110117"><ele>33.0</ele><time>2026-04-25T07:28:19.117Z</time></trkpt><trkpt lat="40.9308367" lon="14.511375"><ele>33.5</ele><time>2026-04-25T07:28:20.117Z</time></trkpt><trkpt lat="40.930845" lon="14.5117333"><ele>34.0</ele><time>2026-04-25T07:28:21.117Z</time></trkpt><trkpt lat="40.9308483" lon="14.5120967"><ele>33.0</ele><time>2026-04-25T07:28:22.117Z</time></trkpt><trkpt lat="40.9308567" lon="14.5124533"><ele>32.0</ele><time>2026-04-25T07:28:23.117Z</time></trkpt><trkpt lat="40.93086" lon="14.5128133"><ele>32.5</ele><time>2026-04-25T07:28:24.117Z</time></trkpt><trkpt lat="40.9308683" lon="14.51317"><ele>33.0</ele><time>2026-04-25T07:28:25.117Z</time></trkpt><trkpt lat="40.93087" lon="14.5135283"><ele>33.0</ele><time>2026-04-25T07:28:26.117Z</time></trkpt><trkpt lat="40.9308767" lon="14.5138833"><ele>33.0</ele><time>2026-04-25T07:28:27.117Z</time></trkpt><trkpt lat="40.930885" lon="14.5142533"><ele>33.0</ele><time>2026-04-25T07:28:28.117Z</time></trkpt><trkpt lat="40.9308917" lon="14.51462"><ele>33.0</ele><time>2026-04-25T07:28:29.117Z</time></trkpt><trkpt lat="40.9308983" lon="14.5149867"><ele>33.0</ele><time>2026-04-25T07:28:30.117Z</time></trkpt><trkpt lat="40.930905" lon="14.515355"><ele>33.0</ele><time>2026-04-25T07:28:31.117Z</time></trkpt><trkpt lat="40.9309117" lon="14.51572"><ele>33.5</ele><time>2026-04-25T07:28:32.117Z</time></trkpt><trkpt lat="40.93092" lon="14.5160883"><ele>34.0</ele><time>2026-04-25T07:28:33.117Z</time></trkpt><trkpt lat="40.9309283" lon="14.5164517"><ele>34.0</ele><time>2026-04-25T07:28:34.117Z</time></trkpt><trkpt lat="40.93094" lon="14.5168133"><ele>34.0</ele><time>2026-04-25T07:28:35.117Z</time></trkpt><trkpt lat="40.9309567" lon="14.51718"><ele>34.5</ele><time>2026-04-25T07:28:36.117Z</time></trkpt><trkpt lat="40.93098" lon="14.5175417"><ele>35.0</ele><time>2026-04-25T07:28:37.117Z</time></trkpt><trkpt lat="40.931005" lon="14.5179017"><ele>35.0</ele><time>2026-04-25T07:28:38.117Z</time></trkpt><trkpt lat="40.9310333" lon="14.5182633"><ele>35.0</ele><time>2026-04-25T07:28:39.117Z</time></trkpt><trkpt lat="40.9310667" lon="14.51863"><ele>35.0</ele><time>2026-04-25T07:28:40.117Z</time></trkpt><trkpt lat="40.9311083" lon="14.5189983"><ele>35.0</ele><time>2026-04-25T07:28:41.117Z</time></trkpt><trkpt lat="40.9311517" lon="14.519365"><ele>35.5</ele><time>2026-04-25T07:28:42.117Z</time></trkpt><trkpt lat="40.9311983" lon="14.5197317"><ele>36.0</ele><time>2026-04-25T07:28:43.117Z</time></trkpt><trkpt lat="40.9312533" lon="14.5201033"><ele>35.0</ele><time>2026-04-25T07:28:44.117Z</time></trkpt><trkpt lat="40.931315" lon="14.5204733"><ele>34.0</ele><time>2026-04-25T07:28:45.117Z</time></trkpt><trkpt lat="40.9313733" lon="14.5208417"><ele>34.0</ele><time>2026-04-25T07:28:46.117Z</time></trkpt><trkpt lat="40.93144" lon="14.521215"><ele>34.0</ele><time>2026-04-25T07:28:47.117Z</time></trkpt><trkpt lat="40.9315033" lon="14.5215783"><ele>34.0</ele><time>2026-04-25T07:28:48.117Z</time></trkpt><trkpt lat="40.9315733" lon="14.521955"><ele>34.0</ele><time>2026-04-25T07:28:49.117Z</time></trkpt><trkpt lat="40.9316417" lon="14.5223267"><ele>34.5</ele><time>2026-04-25T07:28:50.117Z</time></trkpt><trkpt lat="40.9317033" lon="14.5227017"><ele>35.0</ele><time>2026-04-25T07:28:51.117Z</time></trkpt><trkpt lat="40.9317667" lon="14.52308"><ele>35.0</ele><time>2026-04-25T07:28:52.118Z</time></trkpt><trkpt lat="40.9318317" lon="14.523455"><ele>35.0</ele><time>2026-04-25T07:28:53.117Z</time></trkpt><trkpt lat="40.931895" lon="14.5238283"><ele>36.0</ele><time>2026-04-25T07:28:54.117Z</time></trkpt><trkpt lat="40.9319583" lon="14.5242067"><ele>37.0</ele><time>2026-04-25T07:28:55.117Z</time></trkpt><trkpt lat="40.932025" lon="14.5245983"><ele>37.0</ele><time>2026-04-25T07:28:56.117Z</time></trkpt><trkpt lat="40.9320917" lon="14.524995"><ele>37.0</ele><time>2026-04-25T07:28:57.117Z</time></trkpt><trkpt lat="40.93216" lon="14.5254033"><ele>38.0</ele><time>2026-04-25T07:28:58.117Z</time></trkpt><trkpt lat="40.9322317" lon="14.5258067"><ele>39.0</ele><time>2026-04-25T07:28:59.118Z</time></trkpt><trkpt lat="40.932305" lon="14.526215"><ele>39.0</ele><time>2026-04-25T07:29:00.117Z</time></trkpt><trkpt lat="40.932375" lon="14.5266283"><ele>39.0</ele><time>2026-04-25T07:29:01.117Z</time></trkpt><trkpt lat="40.93245" lon="14.52704"><ele>39.5</ele><time>2026-04-25T07:29:02.117Z</time></trkpt><trkpt lat="40.9325183" lon="14.52745"><ele>40.0</ele><time>2026-04-25T07:29:03.117Z</time></trkpt><trkpt lat="40.9325917" lon="14.5278633"><ele>40.5</ele><time>2026-04-25T07:29:04.117Z</time></trkpt><trkpt lat="40.9326617" lon="14.52828"><ele>41.0</ele><time>2026-04-25T07:29:05.118Z</time></trkpt><trkpt lat="40.93273" lon="14.5286717"><ele>40.0</ele><time>2026-04-25T07:29:06.117Z</time></trkpt><trkpt lat="40.932795" lon="14.5290717"><ele>39.0</ele><time>2026-04-25T07:29:07.117Z</time></trkpt><trkpt lat="40.9328633" lon="14.5294667"><ele>39.0</ele><time>2026-04-25T07:29:08.117Z</time></trkpt><trkpt lat="40.9329267" lon="14.5298483"><ele>39.0</ele><time>2026-04-25T07:29:09.117Z</time></trkpt><trkpt lat="40.93299" lon="14.5302267"><ele>40.0</ele><time>2026-04-25T07:29:10.117Z</time></trkpt><trkpt lat="40.933055" lon="14.5306067"><ele>41.0</ele><time>2026-04-25T07:29:11.117Z</time></trkpt><trkpt lat="40.9331183" lon="14.5309817"><ele>41.5</ele><time>2026-04-25T07:29:12.117Z</time></trkpt><trkpt lat="40.9331833" lon="14.5313533"><ele>42.0</ele><time>2026-04-25T07:29:13.117Z</time></trkpt><trkpt lat="40.93325" lon="14.5317183"><ele>41.5</ele><time>2026-04-25T07:29:14.117Z</time></trkpt><trkpt lat="40.9333117" lon="14.532085"><ele>41.0</ele><time>2026-04-25T07:29:15.117Z</time></trkpt><trkpt lat="40.933375" lon="14.5324467"><ele>42.0</ele><time>2026-04-25T07:29:16.117Z</time></trkpt><trkpt lat="40.93344" lon="14.532805"><ele>43.0</ele><time>2026-04-25T07:29:17.117Z</time></trkpt><trkpt lat="40.9335033" lon="14.53317"><ele>43.5</ele><time>2026-04-25T07:29:18.117Z</time></trkpt><trkpt lat="40.933565" lon="14.5335283"><ele>44.0</ele><time>2026-04-25T07:29:19.117Z</time></trkpt><trkpt lat="40.933625" lon="14.5338883"><ele>44.0</ele><time>2026-04-25T07:29:20.117Z</time></trkpt><trkpt lat="40.933685" lon="14.5342483"><ele>44.0</ele><time>2026-04-25T07:29:21.117Z</time></trkpt><trkpt lat="40.9337433" lon="14.534605"><ele>44.0</ele><time>2026-04-25T07:29:22.117Z</time></trkpt><trkpt lat="40.9338067" lon="14.5349617"><ele>44.0</ele><time>2026-04-25T07:29:23.117Z</time></trkpt><trkpt lat="40.93387" lon="14.5353217"><ele>44.5</ele><time>2026-04-25T07:29:24.117Z</time></trkpt><trkpt lat="40.93393" lon="14.5356783"><ele>45.0</ele><time>2026-04-25T07:29:25.117Z</time></trkpt><trkpt lat="40.9339917" lon="14.5360367"><ele>45.5</ele><time>2026-04-25T07:29:26.117Z</time></trkpt><trkpt lat="40.93405" lon="14.5363983"><ele>46.0</ele><time>2026-04-25T07:29:27.117Z</time></trkpt><trkpt lat="40.9341117" lon="14.5367533"><ele>46.5</ele><time>2026-04-25T07:29:28.117Z</time></trkpt><trkpt lat="40.9341783" lon="14.5371117"><ele>47.0</ele><time>2026-04-25T07:29:29.117Z</time></trkpt><trkpt lat="40.9342467" lon="14.5374717"><ele>47.0</ele><time>2026-04-25T07:29:30.117Z</time></trkpt><trkpt lat="40.934315" lon="14.53783"><ele>47.0</ele><time>2026-04-25T07:29:31.117Z</time></trkpt><trkpt lat="40.93439" lon="14.5381867"><ele>48.0</ele><time>2026-04-25T07:29:32.117Z</time></trkpt><trkpt lat="40.9344667" lon="14.53855"><ele>49.0</ele><time>2026-04-25T07:29:33.117Z</time></trkpt><trkpt lat="40.9345467" lon="14.5389133"><ele>50.0</ele><time>2026-04-25T07:29:34.117Z</time></trkpt><trkpt lat="40.934635" lon="14.5392833"><ele>51.0</ele><time>2026-04-25T07:29:35.117Z</time></trkpt><trkpt lat="40.93473" lon="14.5396533"><ele>51.5</ele><time>2026-04-25T07:29:36.117Z</time></trkpt><trkpt lat="40.93483" lon="14.5400233"><ele>52.0</ele><time>2026-04-25T07:29:37.117Z</time></trkpt><trkpt lat="40.934935" lon="14.5403967"><ele>52.0</ele><time>2026-04-25T07:29:38.118Z</time></trkpt><trkpt lat="40.9350517" lon="14.5407667"><ele>52.0</ele><time>2026-04-25T07:29:39.117Z</time></trkpt><trkpt lat="40.9351683" lon="14.5411367"><ele>52.5</ele><time>2026-04-25T07:29:40.117Z</time></trkpt><trkpt lat="40.9352917" lon="14.5415083"><ele>53.0</ele><time>2026-04-25T07:29:41.117Z</time></trkpt><trkpt lat="40.93542" lon="14.5418767"><ele>53.5</ele><time>2026-04-25T07:29:42.117Z</time></trkpt><trkpt lat="40.9355517" lon="14.5422417"><ele>54.0</ele><time>2026-04-25T07:29:43.117Z</time></trkpt><trkpt lat="40.9356917" lon="14.5426033"><ele>54.5</ele><time>2026-04-25T07:29:44.118Z</time></trkpt><trkpt lat="40.93583" lon="14.542965"><ele>55.0</ele><time>2026-04-25T07:29:45.117Z</time></trkpt><trkpt lat="40.9359767" lon="14.5433267"><ele>55.5</ele><time>2026-04-25T07:29:46.117Z</time></trkpt><trkpt lat="40.936125" lon="14.5436867"><ele>56.0</ele><time>2026-04-25T07:29:47.117Z</time></trkpt><trkpt lat="40.93628" lon="14.54404"><ele>56.0</ele><time>2026-04-25T07:29:48.117Z</time></trkpt><trkpt lat="40.936445" lon="14.5443867"><ele>56.0</ele><time>2026-04-25T07:29:49.117Z</time></trkpt><trkpt lat="40.9366067" lon="14.5447333"><ele>56.5</ele><time>2026-04-25T07:29:50.117Z</time></trkpt><trkpt lat="40.9367733" lon="14.545075"><ele>57.0</ele><time>2026-04-25T07:29:51.117Z</time></trkpt><trkpt lat="40.9369333" lon="14.5454033"><ele>58.0</ele><time>2026-04-25T07:29:52.117Z</time></trkpt><trkpt lat="40.9371" lon="14.545725"><ele>59.0</ele><time>2026-04-25T07:29:53.117Z</time></trkpt><trkpt lat="40.9372617" lon="14.546045"><ele>60.0</ele><time>2026-04-25T07:29:54.117Z</time></trkpt><trkpt lat="40.9374317" lon="14.54636"><ele>61.0</ele><time>2026-04-25T07:29:55.117Z</time></trkpt><trkpt lat="40.9375917" lon="14.5466733"><ele>62.0</ele><time>2026-04-25T07:29:56.117Z</time></trkpt><trkpt lat="40.9377567" lon="14.5469833"><ele>63.0</ele><time>2026-04-25T07:29:57.117Z</time></trkpt><trkpt lat="40.93792" lon="14.547295"><ele>63.0</ele><time>2026-04-25T07:29:58.117Z</time></trkpt><trkpt lat="40.9380867" lon="14.5476033"><ele>63.0</ele><time>2026-04-25T07:29:59.117Z</time></trkpt><trkpt lat="40.93824" lon="14.5479083"><ele>64.0</ele><time>2026-04-25T07:30:00.117Z</time></trkpt><trkpt lat="40.9384" lon="14.54821"><ele>65.0</ele><time>2026-04-25T07:30:01.117Z</time></trkpt><trkpt lat="40.93856" lon="14.548515"><ele>65.0</ele><time>2026-04-25T07:30:02.117Z</time></trkpt><trkpt lat="40.9387217" lon="14.54882"><ele>65.0</ele><time>2026-04-25T07:30:03.117Z</time></trkpt><trkpt lat="40.9388867" lon="14.549125"><ele>65.0</ele><time>2026-04-25T07:30:04.117Z</time></trkpt><trkpt lat="40.9390533" lon="14.5494317"><ele>65.0</ele><time>2026-04-25T07:30:05.117Z</time></trkpt><trkpt lat="40.9392117" lon="14.5497317"><ele>65.5</ele><time>2026-04-25T07:30:06.118Z</time></trkpt><trkpt lat="40.9393767" lon="14.550035"><ele>66.0</ele><time>2026-04-25T07:30:07.118Z</time></trkpt><trkpt lat="40.9395383" lon="14.5503433"><ele>67.5</ele><time>2026-04-25T07:30:08.117Z</time></trkpt><trkpt lat="40.9397017" lon="14.5506517"><ele>69.0</ele><time>2026-04-25T07:30:09.117Z</time></trkpt><trkpt lat="40.9398633" lon="14.55096"><ele>70.0</ele><time>2026-04-25T07:30:10.117Z</time></trkpt><trkpt lat="40.9400233" lon="14.5512683"><ele>71.0</ele><time>2026-04-25T07:30:11.117Z</time></trkpt><trkpt lat="40.9401817" lon="14.551575"><ele>71.0</ele><time>2026-04-25T07:30:12.117Z</time></trkpt><trkpt lat="40.9403417" lon="14.5518867"><ele>71.0</ele><time>2026-04-25T07:30:13.117Z</time></trkpt><trkpt lat="40.9405" lon="14.5521933"><ele>71.5</ele><time>2026-04-25T07:30:14.117Z</time></trkpt><trkpt lat="40.940665" lon="14.5524933"><ele>72.0</ele><time>2026-04-25T07:30:15.117Z</time></trkpt><trkpt lat="40.9408267" lon="14.552795"><ele>73.0</ele><time>2026-04-25T07:30:16.117Z</time></trkpt><trkpt lat="40.9409817" lon="14.5530967"><ele>74.0</ele><time>2026-04-25T07:30:17.117Z</time></trkpt><trkpt lat="40.9411367" lon="14.5533967"><ele>74.0</ele><time>2026-04-25T07:30:18.117Z</time></trkpt><trkpt lat="40.9412983" lon="14.5536967"><ele>74.0</ele><time>2026-04-25T07:30:19.117Z</time></trkpt><trkpt lat="40.9414533" lon="14.5540033"><ele>74.5</ele><time>2026-04-25T07:30:20.117Z</time></trkpt><trkpt lat="40.9416133" lon="14.5543067"><ele>75.0</ele><time>2026-04-25T07:30:21.117Z</time></trkpt><trkpt lat="40.941775" lon="14.5546067"><ele>76.5</ele><time>2026-04-25T07:30:22.117Z</time></trkpt><trkpt lat="40.9419317" lon="14.5549083"><ele>78.0</ele><time>2026-04-25T07:30:23.117Z</time></trkpt><trkpt lat="40.942095" lon="14.55521"><ele>79.0</ele><time>2026-04-25T07:30:24.117Z</time></trkpt><trkpt lat="40.942255" lon="14.55551"><ele>80.0</ele><time>2026-04-25T07:30:25.117Z</time></trkpt><trkpt lat="40.9424167" lon="14.5558133"><ele>80.0</ele><time>2026-04-25T07:30:26.117Z</time></trkpt><trkpt lat="40.9425733" lon="14.5561133"><ele>80.0</ele><time>2026-04-25T07:30:27.117Z</time></trkpt><trkpt lat="40.942735" lon="14.5564167"><ele>80.5</ele><time>2026-04-25T07:30:28.117Z</time></trkpt><trkpt lat="40.9428917" lon="14.5567183"><ele>81.0</ele><time>2026-04-25T07:30:29.117Z</time></trkpt><trkpt lat="40.943055" lon="14.5570167"><ele>82.5</ele><time>2026-04-25T07:30:30.117Z</time></trkpt><trkpt lat="40.943215" lon="14.55732"><ele>84.0</ele><time>2026-04-25T07:30:31.117Z</time></trkpt><trkpt lat="40.943375" lon="14.5576117"><ele>85.0</ele><time>2026-04-25T07:30:32.117Z</time></trkpt><trkpt lat="40.94353" lon="14.5579067"><ele>86.0</ele><time>2026-04-25T07:30:33.117Z</time></trkpt><trkpt lat="40.943685" lon="14.5581983"><ele>86.0</ele><time>2026-04-25T07:30:34.117Z</time></trkpt><trkpt lat="40.9438367" lon="14.558485"><ele>86.0</ele><time>2026-04-25T07:30:35.117Z</time></trkpt><trkpt lat="40.9439867" lon="14.5587783"><ele>86.5</ele><time>2026-04-25T07:30:36.117Z</time></trkpt><trkpt lat="40.94414" lon="14.5590667"><ele>87.0</ele><time>2026-04-25T07:30:37.117Z</time></trkpt><trkpt lat="40.9442917" lon="14.559355"><ele>87.5</ele><time>2026-04-25T07:30:38.118Z</time></trkpt><trkpt lat="40.9444333" lon="14.55964"><ele>88.0</ele><time>2026-04-25T07:30:39.117Z</time></trkpt><trkpt lat="40.9445683" lon="14.5599333"><ele>88.0</ele><time>2026-04-25T07:30:40.117Z</time></trkpt><trkpt lat="40.94469" lon="14.56023"><ele>88.0</ele><time>2026-04-25T07:30:41.117Z</time></trkpt><trkpt lat="40.9448017" lon="14.5605267"><ele>89.5</ele><time>2026-04-25T07:30:42.118Z</time></trkpt><trkpt lat="40.94491" lon="14.5608217"><ele>91.0</ele><time>2026-04-25T07:30:43.117Z</time></trkpt><trkpt lat="40.9450017" lon="14.5611333"><ele>93.5</ele><time>2026-04-25T07:30:44.117Z</time></trkpt><trkpt lat="40.9450867" lon="14.5614483"><ele>96.0</ele><time>2026-04-25T07:30:45.117Z</time></trkpt><trkpt lat="40.945165" lon="14.5617667"><ele>96.5</ele><time>2026-04-25T07:30:46.117Z</time></trkpt><trkpt lat="40.94524" lon="14.56209"><ele>97.0</ele><time>2026-04-25T07:30:47.117Z</time></trkpt><trkpt lat="40.9453" lon="14.562415"><ele>97.0</ele><time>2026-04-25T07:30:48.117Z</time></trkpt><trkpt lat="40.9453517" lon="14.5627433"><ele>97.0</ele><time>2026-04-25T07:30:49.117Z</time></trkpt><trkpt lat="40.945395" lon="14.5630817"><ele>97.5</ele><time>2026-04-25T07:30:50.117Z</time></trkpt><trkpt lat="40.9454333" lon="14.5634217"><ele>98.0</ele><time>2026-04-25T07:30:51.117Z</time></trkpt><trkpt lat="40.9454667" lon="14.56376"><ele>99.5</ele><time>2026-04-25T07:30:52.117Z</time></trkpt><trkpt lat="40.9454983" lon="14.5641"><ele>101.0</ele><time>2026-04-25T07:30:53.117Z</time></trkpt><trkpt lat="40.9455317" lon="14.5644417"><ele>102.0</ele><time>2026-04-25T07:30:54.117Z</time></trkpt><trkpt lat="40.94556" lon="14.564785"><ele>103.0</ele><time>2026-04-25T07:30:55.117Z</time></trkpt><trkpt lat="40.9455867" lon="14.5651333"><ele>104.0</ele><time>2026-04-25T07:30:56.117Z</time></trkpt><trkpt lat="40.9456117" lon="14.5654817"><ele>105.0</ele><time>2026-04-25T07:30:57.117Z</time></trkpt><trkpt lat="40.9456367" lon="14.5658267"><ele>105.0</ele><time>2026-04-25T07:30:58.117Z</time></trkpt><trkpt lat="40.9456683" lon="14.56617"><ele>105.0</ele><time>2026-04-25T07:30:59.117Z</time></trkpt><trkpt lat="40.9456967" lon="14.5665133"><ele>107.0</ele><time>2026-04-25T07:31:00.117Z</time></trkpt><trkpt lat="40.9457183" lon="14.5668617"><ele>109.0</ele><time>2026-04-25T07:31:01.118Z</time></trkpt><trkpt lat="40.9457433" lon="14.567205"><ele>110.0</ele><time>2026-04-25T07:31:02.117Z</time></trkpt><trkpt lat="40.9457767" lon="14.56754"><ele>111.0</ele><time>2026-04-25T07:31:03.117Z</time></trkpt><trkpt lat="40.9458" lon="14.5678783"><ele>112.5</ele><time>2026-04-25T07:31:04.118Z</time></trkpt><trkpt lat="40.9458283" lon="14.56822"><ele>114.0</ele><time>2026-04-25T07:31:05.117Z</time></trkpt><trkpt lat="40.9458533" lon="14.5685633"><ele>113.0</ele><time>2026-04-25T07:31:06.117Z</time></trkpt><trkpt lat="40.9458883" lon="14.5688983"><ele>112.0</ele><time>2026-04-25T07:31:07.117Z</time></trkpt><trkpt lat="40.9459183" lon="14.5692333"><ele>113.5</ele><time>2026-04-25T07:31:08.117Z</time></trkpt><trkpt lat="40.945945" lon="14.5695767"><ele>115.0</ele><time>2026-04-25T07:31:09.117Z</time></trkpt><trkpt lat="40.9459767" lon="14.5699183"><ele>115.0</ele><time>2026-04-25T07:31:10.118Z</time></trkpt><trkpt lat="40.9460033" lon="14.5702617"><ele>115.0</ele><time>2026-04-25T07:31:11.117Z</time></trkpt><trkpt lat="40.946035" lon="14.570605"><ele>116.0</ele><time>2026-04-25T07:31:12.117Z</time></trkpt><trkpt lat="40.9460667" lon="14.5709417"><ele>117.0</ele><time>2026-04-25T07:31:13.117Z</time></trkpt><trkpt lat="40.9461" lon="14.571275"><ele>118.0</ele><time>2026-04-25T07:31:14.117Z</time></trkpt><trkpt lat="40.9461267" lon="14.57161"><ele>119.0</ele><time>2026-04-25T07:31:15.117Z</time></trkpt><trkpt lat="40.94616" lon="14.5719467"><ele>119.0</ele><time>2026-04-25T07:31:16.117Z</time></trkpt><trkpt lat="40.9461867" lon="14.5722717"><ele>119.0</ele><time>2026-04-25T07:31:17.117Z</time></trkpt><trkpt lat="40.9462117" lon="14.5725917"><ele>119.0</ele><time>2026-04-25T07:31:18.117Z</time></trkpt><trkpt lat="40.9462367" lon="14.5729033"><ele>119.0</ele><time>2026-04-25T07:31:19.117Z</time></trkpt><trkpt lat="40.9462583" lon="14.5732117"><ele>119.0</ele><time>2026-04-25T07:31:20.117Z</time></trkpt><trkpt lat="40.94628" lon="14.5735083"><ele>119.0</ele><time>2026-04-25T07:31:21.117Z</time></trkpt><trkpt lat="40.9463033" lon="14.5737983"><ele>119.0</ele><time>2026-04-25T07:31:22.117Z</time></trkpt><trkpt lat="40.9463267" lon="14.5740933"><ele>119.33333333333333</ele><time>2026-04-25T07:31:23.118Z</time></trkpt><trkpt lat="40.94635" lon="14.5743883"><ele>119.66666666666666</ele><time>2026-04-25T07:31:24.117Z</time></trkpt><trkpt lat="40.9463767" lon="14.5746783"><ele>120.0</ele><time>2026-04-25T07:31:25.117Z</time></trkpt><trkpt lat="40.946405" lon="14.5749733"><ele>120.33333333333334</ele><time>2026-04-25T07:31:26.117Z</time></trkpt><trkpt lat="40.9464267" lon="14.5752583"><ele>120.66666666666667</ele><time>2026-04-25T07:31:27.117Z</time></trkpt><trkpt lat="40.9464467" lon="14.575535"><ele>121.0</ele><time>2026-04-25T07:31:28.117Z</time></trkpt><trkpt lat="40.946465" lon="14.5758083"><ele>121.66666666666667</ele><time>2026-04-25T07:31:29.117Z</time></trkpt><trkpt lat="40.9464833" lon="14.576085"><ele>122.33333333333334</ele><time>2026-04-25T07:31:30.117Z</time></trkpt><trkpt lat="40.9464983" lon="14.5763583"><ele>123.0</ele><time>2026-04-25T07:31:31.117Z</time></trkpt><trkpt lat="40.946515" lon="14.5766267"><ele>123.33333333333334</ele><time>2026-04-25T07:31:32.117Z</time></trkpt><trkpt lat="40.9465317" lon="14.5768917"><ele>123.66666666666667</ele><time>2026-04-25T07:31:33.118Z</time></trkpt><trkpt lat="40.94655" lon="14.57716"><ele>124.0</ele><time>2026-04-25T07:31:34.118Z</time></trkpt><trkpt lat="40.94657" lon="14.5774283"><ele>124.33333333333334</ele><time>2026-04-25T07:31:35.117Z</time></trkpt><trkpt lat="40.9465917" lon="14.5777"><ele>124.66666666666666</ele><time>2026-04-25T07:31:36.117Z</time></trkpt><trkpt lat="40.9466033" lon="14.5779667"><ele>125.0</ele><time>2026-04-25T07:31:37.117Z</time></trkpt><trkpt lat="40.9466183" lon="14.5782167"><ele>125.0</ele><time>2026-04-25T07:31:38.117Z</time></trkpt><trkpt lat="40.9466333" lon="14.5784517"><ele>125.0</ele><time>2026-04-25T07:31:39.117Z</time></trkpt><trkpt lat="40.9466483" lon="14.5786783"><ele>125.0</ele><time>2026-04-25T07:31:40.117Z</time></trkpt><trkpt lat="40.94666" lon="14.5788917"><ele>126.0</ele><time>2026-04-25T07:31:41.117Z</time></trkpt><trkpt lat="40.94667" lon="14.5791033"><ele>127.0</ele><time>2026-04-25T07:31:42.117Z</time></trkpt><trkpt lat="40.94668" lon="14.5793067"><ele>128.0</ele><time>2026-04-25T07:31:43.117Z</time></trkpt><trkpt lat="40.94669" lon="14.5795117"><ele>128.0</ele><time>2026-04-25T07:31:44.117Z</time></trkpt><trkpt lat="40.9467" lon="14.5797267"><ele>128.0</ele><time>2026-04-25T07:31:45.117Z</time></trkpt><trkpt lat="40.9467117" lon="14.5799517"><ele>128.0</ele><time>2026-04-25T07:31:46.117Z</time></trkpt><trkpt lat="40.9467133" lon="14.5801783"><ele>128.33333333333331</ele><time>2026-04-25T07:31:47.118Z</time></trkpt><trkpt lat="40.9467167" lon="14.5804217"><ele>128.66666666666666</ele><time>2026-04-25T07:31:48.117Z</time></trkpt><trkpt lat="40.9467167" lon="14.580655"><ele>129.0</ele><time>2026-04-25T07:31:49.117Z</time></trkpt><trkpt lat="40.94671" lon="14.5808833"><ele>129.66666666666666</ele><time>2026-04-25T07:31:50.117Z</time></trkpt><trkpt lat="40.9466983" lon="14.5811083"><ele>130.33333333333331</ele><time>2026-04-25T07:31:51.117Z</time></trkpt><trkpt lat="40.9466833" lon="14.581325"><ele>131.0</ele><time>2026-04-25T07:31:52.117Z</time></trkpt><trkpt lat="40.9466633" lon="14.5815433"><ele>131.33333333333331</ele><time>2026-04-25T07:31:53.117Z</time></trkpt><trkpt lat="40.94663" lon="14.5817567"><ele>131.66666666666666</ele><time>2026-04-25T07:31:54.117Z</time></trkpt><trkpt lat="40.9465883" lon="14.5819633"><ele>132.0</ele><time>2026-04-25T07:31:55.117Z</time></trkpt><trkpt lat="40.9465317" lon="14.5821583"><ele>132.25</ele><time>2026-04-25T07:31:56.118Z</time></trkpt><trkpt lat="40.9464617" lon="14.5823367"><ele>132.5</ele><time>2026-04-25T07:31:57.118Z</time></trkpt><trkpt lat="40.9463783" lon="14.5824867"><ele>132.75</ele><time>2026-04-25T07:31:58.117Z</time></trkpt><trkpt lat="40.9462833" lon="14.5826017"><ele>133.0</ele><time>2026-04-25T07:31:59.117Z</time></trkpt><trkpt lat="40.9461817" lon="14.5826867"><ele>133.0</ele><time>2026-04-25T07:32:00.117Z</time></trkpt><trkpt lat="40.9460717" lon="14.5827433"><ele>133.0</ele><time>2026-04-25T07:32:01.117Z</time></trkpt><trkpt lat="40.94596" lon="14.58277"><ele>133.0</ele><time>2026-04-25T07:32:02.117Z</time></trkpt><trkpt lat="40.9458333" lon="14.5827683"><ele>133.0</ele><time>2026-04-25T07:32:03.119Z</time></trkpt><trkpt lat="40.9457067" lon="14.5827517"><ele>133.5</ele><time>2026-04-25T07:32:04.118Z</time></trkpt><trkpt lat="40.9455917" lon="14.5826983"><ele>134.0</ele><time>2026-04-25T07:32:05.118Z</time></trkpt><trkpt lat="40.9454883" lon="14.58261"><ele>134.5</ele><time>2026-04-25T07:32:06.118Z</time></trkpt><trkpt lat="40.9453983" lon="14.582505"><ele>135.0</ele><time>2026-04-25T07:32:07.118Z</time></trkpt><trkpt lat="40.9453267" lon="14.58236"><ele>135.0</ele><time>2026-04-25T07:32:08.119Z</time></trkpt><trkpt lat="40.9452767" lon="14.5821967"><ele>135.0</ele><time>2026-04-25T07:32:09.118Z</time></trkpt><trkpt lat="40.9452467" lon="14.5820117"><ele>135.0</ele><time>2026-04-25T07:32:10.118Z</time></trkpt><trkpt lat="40.9452417" lon="14.5818317"><ele>135.0</ele><time>2026-04-25T07:32:11.118Z</time></trkpt><trkpt lat="40.9452717" lon="14.5816467"><ele>134.66666666666666</ele><time>2026-04-25T07:32:12.118Z</time></trkpt><trkpt lat="40.945315" lon="14.5814533"><ele>134.33333333333331</ele><time>2026-04-25T07:32:13.118Z</time></trkpt><trkpt lat="40.94536" lon="14.5812467"><ele>134.0</ele><time>2026-04-25T07:32:14.118Z</time></trkpt><trkpt lat="40.9454017" lon="14.5810333"><ele>133.33333333333331</ele><time>2026-04-25T07:32:15.118Z</time></trkpt><trkpt lat="40.9454383" lon="14.5808183"><ele>132.66666666666666</ele><time>2026-04-25T07:32:16.119Z</time></trkpt><trkpt lat="40.9454783" lon="14.5805867"><ele>132.0</ele><time>2026-04-25T07:32:17.118Z</time></trkpt><trkpt lat="40.9455067" lon="14.5803517"><ele>131.0</ele><time>2026-04-25T07:32:18.118Z</time></trkpt><trkpt lat="40.9455233" lon="14.5801333"><ele>130.0</ele><time>2026-04-25T07:32:19.118Z</time></trkpt><trkpt lat="40.9455433" lon="14.5799217"><ele>129.0</ele><time>2026-04-25T07:32:20.118Z</time></trkpt><trkpt lat="40.94556" lon="14.5797283"><ele>129.0</ele><time>2026-04-25T07:32:21.119Z</time></trkpt><trkpt lat="40.94558" lon="14.57955"><ele>129.0</ele><time>2026-04-25T07:32:22.119Z</time></trkpt><trkpt lat="40.945605" lon="14.57939"><ele>129.0</ele><time>2026-04-25T07:32:23.118Z</time></trkpt><trkpt lat="40.945625" lon="14.5792517"><ele>129.0</ele><time>2026-04-25T07:32:24.118Z</time></trkpt><trkpt lat="40.945645" lon="14.5791383"><ele>128.85714285714283</ele><time>2026-04-25T07:32:25.118Z</time></trkpt><trkpt lat="40.9456583" lon="14.579045"><ele>128.71428571428572</ele><time>2026-04-25T07:32:26.118Z</time></trkpt><trkpt lat="40.9456783" lon="14.57895"><ele>128.57142857142856</ele><time>2026-04-25T07:32:28.118Z</time></trkpt><trkpt lat="40.945645" lon="14.579025"><ele>128.42857142857142</ele><time>2026-04-25T07:33:34.118Z</time></trkpt><trkpt lat="40.9456317" lon="14.5791533"><ele>128.28571428571428</ele><time>2026-04-25T07:33:56.118Z</time></trkpt><trkpt lat="40.9456917" lon="14.5791267"><ele>128.14285714285714</ele><time>2026-04-25T07:34:17.118Z</time></trkpt><trkpt lat="40.945705" lon="14.57904"><ele>128.0</ele><time>2026-04-25T07:34:19.118Z</time></trkpt><trkpt lat="40.9457567" lon="14.5787883"><ele>127.75</ele><time>2026-04-25T07:35:47.118Z</time></trkpt><trkpt lat="40.94578" lon="14.5786633"><ele>127.5</ele><time>2026-04-25T07:35:48.118Z</time></trkpt><trkpt lat="40.9458167" lon="14.5785133"><ele>127.25</ele><time>2026-04-25T07:35:49.118Z</time></trkpt><trkpt lat="40.9458617" lon="14.57835"><ele>127.0</ele><time>2026-04-25T07:35:50.119Z</time></trkpt><trkpt lat="40.945915" lon="14.5781717"><ele>126.33333333333334</ele><time>2026-04-25T07:35:51.118Z</time></trkpt><trkpt lat="40.9459733" lon="14.577985"><ele>125.66666666666666</ele><time>2026-04-25T07:35:52.118Z</time></trkpt><trkpt lat="40.9460283" lon="14.5777833"><ele>125.0</ele><time>2026-04-25T07:35:53.118Z</time></trkpt><trkpt lat="40.9460767" lon="14.5775717"><ele>125.0</ele><time>2026-04-25T07:35:54.118Z</time></trkpt><trkpt lat="40.9461167" lon="14.5773583"><ele>125.0</ele><time>2026-04-25T07:35:55.118Z</time></trkpt><trkpt lat="40.9461517" lon="14.5771417"><ele>125.0</ele><time>2026-04-25T07:35:56.119Z</time></trkpt><trkpt lat="40.9461817" lon="14.576915"><ele>124.66666666666666</ele><time>2026-04-25T07:35:57.118Z</time></trkpt><trkpt lat="40.9462" lon="14.576665"><ele>124.33333333333334</ele><time>2026-04-25T07:35:58.118Z</time></trkpt><trkpt lat="40.94621" lon="14.57642"><ele>124.0</ele><time>2026-04-25T07:35:59.118Z</time></trkpt><trkpt lat="40.9462083" lon="14.576165"><ele>123.66666666666667</ele><time>2026-04-25T07:36:00.118Z</time></trkpt><trkpt lat="40.946205" lon="14.5759067"><ele>123.33333333333334</ele><time>2026-04-25T07:36:01.118Z</time></trkpt><trkpt lat="40.94619" lon="14.5756567"><ele>123.0</ele><time>2026-04-25T07:36:02.118Z</time></trkpt><trkpt lat="40.9461733" lon="14.5754167"><ele>122.33333333333334</ele><time>2026-04-25T07:36:03.119Z</time></trkpt><trkpt lat="40.9461517" lon="14.57519"><ele>121.66666666666667</ele><time>2026-04-25T07:36:04.118Z</time></trkpt><trkpt lat="40.94612" lon="14.5749683"><ele>121.0</ele><time>2026-04-25T07:36:05.118Z</time></trkpt><trkpt lat="40.94608" lon="14.5747567"><ele>121.0</ele><time>2026-04-25T07:36:06.118Z</time></trkpt><trkpt lat="40.9460267" lon="14.5745633"><ele>121.0</ele><time>2026-04-25T07:36:07.118Z</time></trkpt><trkpt lat="40.94596" lon="14.5743817"><ele>121.0</ele><time>2026-04-25T07:36:08.118Z</time></trkpt><trkpt lat="40.9458817" lon="14.5742183"><ele>121.75</ele><time>2026-04-25T07:36:09.118Z</time></trkpt><trkpt lat="40.945795" lon="14.5740717"><ele>122.5</ele><time>2026-04-25T07:36:10.118Z</time></trkpt><trkpt lat="40.9457" lon="14.5739417"><ele>123.25</ele><time>2026-04-25T07:36:11.118Z</time></trkpt><trkpt lat="40.945595" lon="14.5738283"><ele>124.0</ele><time>2026-04-25T07:36:12.118Z</time></trkpt><trkpt lat="40.9454883" lon="14.5737417"><ele>124.4</ele><time>2026-04-25T07:36:13.118Z</time></trkpt><trkpt lat="40.9453783" lon="14.573685"><ele>124.80000000000001</ele><time>2026-04-25T07:36:14.119Z</time></trkpt><trkpt lat="40.94527" lon="14.5736583"><ele>125.19999999999999</ele><time>2026-04-25T07:36:15.118Z</time></trkpt><trkpt lat="40.9451667" lon="14.5736483"><ele>125.6</ele><time>2026-04-25T07:36:16.118Z</time></trkpt><trkpt lat="40.945075" lon="14.57364"><ele>126.0</ele><time>2026-04-25T07:36:17.118Z</time></trkpt><trkpt lat="40.9450067" lon="14.5736317"><ele>126.4</ele><time>2026-04-25T07:36:18.118Z</time></trkpt><trkpt lat="40.9449133" lon="14.5736"><ele>126.8</ele><time>2026-04-25T07:36:20.118Z</time></trkpt><trkpt lat="40.9448283" lon="14.5735333"><ele>127.20000000000002</ele><time>2026-04-25T07:36:22.118Z</time></trkpt><trkpt lat="40.9447767" lon="14.57348"><ele>127.60000000000001</ele><time>2026-04-25T07:36:23.118Z</time></trkpt><trkpt lat="40.9447183" lon="14.5734333"><ele>128.0</ele><time>2026-04-25T07:36:24.118Z</time></trkpt><trkpt lat="40.94459" lon="14.5734267"><ele>128.0</ele><time>2026-04-25T07:36:26.118Z</time></trkpt><trkpt lat="40.9445167" lon="14.5734767"><ele>128.0</ele><time>2026-04-25T07:36:27.118Z</time></trkpt><trkpt lat="40.9444417" lon="14.57356"><ele>128.0</ele><time>2026-04-25T07:36:28.118Z</time></trkpt><trkpt lat="40.9443667" lon="14.5736633"><ele>128.0</ele><time>2026-04-25T07:36:29.118Z</time></trkpt><trkpt lat="40.944285" lon="14.573755"><ele>128.0</ele><time>2026-04-25T07:36:30.118Z</time></trkpt><trkpt lat="40.94419" lon="14.5738333"><ele>129.5</ele><time>2026-04-25T07:36:31.118Z</time></trkpt><trkpt lat="40.9440933" lon="14.5738967"><ele>131.0</ele><time>2026-04-25T07:36:32.118Z</time></trkpt><trkpt lat="40.9439767" lon="14.5739583"><ele>132.5</ele><time>2026-04-25T07:36:33.118Z</time></trkpt><trkpt lat="40.9438633" lon="14.5740467"><ele>134.0</ele><time>2026-04-25T07:36:34.118Z</time></trkpt><trkpt lat="40.9437633" lon="14.5741433"><ele>134.0</ele><time>2026-04-25T07:36:35.118Z</time></trkpt><trkpt lat="40.9436617" lon="14.574275"><ele>134.0</ele><time>2026-04-25T07:36:36.118Z</time></trkpt><trkpt lat="40.9435833" lon="14.5744217"><ele>134.0</ele><time>2026-04-25T07:36:37.118Z</time></trkpt><trkpt lat="40.94352" lon="14.57459"><ele>134.0</ele><time>2026-04-25T07:36:38.118Z</time></trkpt><trkpt lat="40.943475" lon="14.5747717"><ele>134.0</ele><time>2026-04-25T07:36:39.118Z</time></trkpt><trkpt lat="40.9434533" lon="14.5749633"><ele>134.0</ele><time>2026-04-25T07:36:40.118Z</time></trkpt><trkpt lat="40.94344" lon="14.5751617"><ele>134.0</ele><time>2026-04-25T07:36:41.118Z</time></trkpt><trkpt lat="40.9434183" lon="14.5753517"><ele>134.0</ele><time>2026-04-25T07:36:42.118Z</time></trkpt><trkpt lat="40.9434" lon="14.5755433"><ele>135.25</ele><time>2026-04-25T07:36:43.118Z</time></trkpt><trkpt lat="40.943375" lon="14.575735"><ele>136.5</ele><time>2026-04-25T07:36:44.118Z</time></trkpt><trkpt lat="40.943345" lon="14.5759133"><ele>137.75</ele><time>2026-04-25T07:36:45.118Z</time></trkpt><trkpt lat="40.9432967" lon="14.5760867"><ele>139.0</ele><time>2026-04-25T07:36:46.118Z</time></trkpt><trkpt lat="40.9432333" lon="14.5762483"><ele>139.0</ele><time>2026-04-25T07:36:47.119Z</time></trkpt><trkpt lat="40.9431467" lon="14.5764167"><ele>139.0</ele><time>2026-04-25T07:36:48.119Z</time></trkpt><trkpt lat="40.9430433" lon="14.57657"><ele>139.0</ele><time>2026-04-25T07:36:49.119Z</time></trkpt><trkpt lat="40.9429267" lon="14.5767117"><ele>139.0</ele><time>2026-04-25T07:36:50.118Z</time></trkpt><trkpt lat="40.9428033" lon="14.5768367"><ele>139.0</ele><time>2026-04-25T07:36:51.118Z</time></trkpt><trkpt lat="40.9426683" lon="14.5769667"><ele>139.0</ele><time>2026-04-25T07:36:52.118Z</time></trkpt><trkpt lat="40.9425267" lon="14.5770867"><ele>142.0</ele><time>2026-04-25T07:36:53.118Z</time></trkpt><trkpt lat="40.94238" lon="14.57719"><ele>145.0</ele><time>2026-04-25T07:36:54.118Z</time></trkpt><trkpt lat="40.9422267" lon="14.57728"><ele>148.0</ele><time>2026-04-25T07:36:55.118Z</time></trkpt><trkpt lat="40.9420817" lon="14.5773583"><ele>148.0</ele><time>2026-04-25T07:36:56.118Z</time></trkpt><trkpt lat="40.941955" lon="14.5774183"><ele>148.0</ele><time>2026-04-25T07:36:57.118Z</time></trkpt><trkpt lat="40.9418433" lon="14.577455"><ele>148.0</ele><time>2026-04-25T07:36:58.118Z</time></trkpt><trkpt lat="40.941735" lon="14.5774517"><ele>148.0</ele><time>2026-04-25T07:36:59.118Z</time></trkpt><trkpt lat="40.941655" lon="14.5773967"><ele>148.0</ele><time>2026-04-25T07:37:00.118Z</time></trkpt><trkpt lat="40.941585" lon="14.5773083"><ele>149.0</ele><time>2026-04-25T07:37:01.118Z</time></trkpt><trkpt lat="40.9415183" lon="14.577195"><ele>150.0</ele><time>2026-04-25T07:37:02.118Z</time></trkpt><trkpt lat="40.9414533" lon="14.5770583"><ele>151.0</ele><time>2026-04-25T07:37:03.118Z</time></trkpt><trkpt lat="40.9413833" lon="14.576905"><ele>152.0</ele><time>2026-04-25T07:37:04.118Z</time></trkpt><trkpt lat="40.9413133" lon="14.5767383"><ele>152.25</ele><time>2026-04-25T07:37:05.119Z</time></trkpt><trkpt lat="40.9412383" lon="14.5765717"><ele>152.5</ele><time>2026-04-25T07:37:06.118Z</time></trkpt><trkpt lat="40.9411667" lon="14.57641"><ele>152.75</ele><time>2026-04-25T07:37:07.118Z</time></trkpt><trkpt lat="40.9411117" lon="14.57626"><ele>153.0</ele><time>2026-04-25T07:37:08.118Z</time></trkpt><trkpt lat="40.9410667" lon="14.5761083"><ele>153.25</ele><time>2026-04-25T07:37:09.118Z</time></trkpt><trkpt lat="40.9410417" lon="14.57595"><ele>153.5</ele><time>2026-04-25T07:37:10.118Z</time></trkpt><trkpt lat="40.9410233" lon="14.5757767"><ele>153.75</ele><time>2026-04-25T07:37:11.118Z</time></trkpt><trkpt lat="40.9410117" lon="14.575585"><ele>154.0</ele><time>2026-04-25T07:37:12.118Z</time></trkpt><trkpt lat="40.94099" lon="14.5753767"><ele>154.33333333333334</ele><time>2026-04-25T07:37:13.118Z</time></trkpt><trkpt lat="40.9409783" lon="14.57515"><ele>154.66666666666666</ele><time>2026-04-25T07:37:14.118Z</time></trkpt><trkpt lat="40.9409617" lon="14.5749133"><ele>155.0</ele><time>2026-04-25T07:37:15.118Z</time></trkpt><trkpt lat="40.9409467" lon="14.5746667"><ele>155.0</ele><time>2026-04-25T07:37:16.118Z</time></trkpt><trkpt lat="40.9409383" lon="14.57441"><ele>155.0</ele><time>2026-04-25T07:37:17.119Z</time></trkpt><trkpt lat="40.9409267" lon="14.5741567"><ele>155.0</ele><time>2026-04-25T07:37:18.118Z</time></trkpt><trkpt lat="40.9409217" lon="14.57393"><ele>155.0</ele><time>2026-04-25T07:37:19.118Z</time></trkpt><trkpt lat="40.9409133" lon="14.57372"><ele>155.0</ele><time>2026-04-25T07:37:20.118Z</time></trkpt><trkpt lat="40.940905" lon="14.57353"><ele>155.0</ele><time>2026-04-25T07:37:21.118Z</time></trkpt><trkpt lat="40.94091" lon="14.5733433"><ele>155.0</ele><time>2026-04-25T07:37:22.118Z</time></trkpt><trkpt lat="40.9409267" lon="14.5731583"><ele>154.4</ele><time>2026-04-25T07:37:23.118Z</time></trkpt><trkpt lat="40.940955" lon="14.5729717"><ele>153.8</ele><time>2026-04-25T07:37:24.119Z</time></trkpt><trkpt lat="40.9409833" lon="14.57281"><ele>153.2</ele><time>2026-04-25T07:37:25.118Z</time></trkpt><trkpt lat="40.9410083" lon="14.5726783"><ele>152.6</ele><time>2026-04-25T07:37:26.119Z</time></trkpt><trkpt lat="40.9410217" lon="14.5725817"><ele>152.0</ele><time>2026-04-25T07:37:27.118Z</time></trkpt><trkpt lat="40.9409933" lon="14.5724767"><ele>151.0</ele><time>2026-04-25T07:37:29.118Z</time></trkpt><trkpt lat="40.94092" lon="14.5724683"><ele>150.0</ele><time>2026-04-25T07:37:31.118Z</time></trkpt><trkpt lat="40.940865" lon="14.5725333"><ele>149.0</ele><time>2026-04-25T07:37:32.118Z</time></trkpt><trkpt lat="40.9408033" lon="14.5726467"><ele>148.0</ele><time>2026-04-25T07:37:33.118Z</time></trkpt><trkpt lat="40.9407167" lon="14.5727933"><ele>147.0</ele><time>2026-04-25T07:37:34.118Z</time></trkpt><trkpt lat="40.940615" lon="14.57296"><ele>155.0</ele><time>2026-04-25T07:37:35.118Z</time></trkpt><trkpt lat="40.9405167" lon="14.5731217"><ele>163.0</ele><time>2026-04-25T07:37:36.118Z</time></trkpt><trkpt lat="40.9404167" lon="14.573285"><ele>171.0</ele><time>2026-04-25T07:37:37.118Z</time></trkpt><trkpt lat="40.9403183" lon="14.5734617"><ele>171.0</ele><time>2026-04-25T07:37:38.118Z</time></trkpt><trkpt lat="40.94022" lon="14.573645"><ele>171.0</ele><time>2026-04-25T07:37:39.118Z</time></trkpt><trkpt lat="40.940125" lon="14.5738383"><ele>171.0</ele><time>2026-04-25T07:37:40.118Z</time></trkpt><trkpt lat="40.9400267" lon="14.5740267"><ele>173.0</ele><time>2026-04-25T07:37:41.119Z</time></trkpt><trkpt lat="40.9399317" lon="14.57422"><ele>175.0</ele><time>2026-04-25T07:37:42.119Z</time></trkpt><trkpt lat="40.9398333" lon="14.5744067"><ele>177.0</ele><time>2026-04-25T07:37:43.118Z</time></trkpt><trkpt lat="40.9397333" lon="14.5745833"><ele>177.0</ele><time>2026-04-25T07:37:44.118Z</time></trkpt><trkpt lat="40.9396333" lon="14.574755"><ele>177.0</ele><time>2026-04-25T07:37:45.118Z</time></trkpt><trkpt lat="40.93952" lon="14.57492"><ele>177.0</ele><time>2026-04-25T07:37:46.118Z</time></trkpt><trkpt lat="40.9394167" lon="14.5750783"><ele>177.0</ele><time>2026-04-25T07:37:47.118Z</time></trkpt><trkpt lat="40.9393133" lon="14.5752383"><ele>177.0</ele><time>2026-04-25T07:37:48.118Z</time></trkpt><trkpt lat="40.9392183" lon="14.5754067"><ele>177.0</ele><time>2026-04-25T07:37:49.119Z</time></trkpt><trkpt lat="40.9391333" lon="14.5755767"><ele>179.75</ele><time>2026-04-25T07:37:50.118Z</time></trkpt><trkpt lat="40.93905" lon="14.57574"><ele>182.5</ele><time>2026-04-25T07:37:51.118Z</time></trkpt><trkpt lat="40.93897" lon="14.5758867"><ele>185.25</ele><time>2026-04-25T07:37:52.118Z</time></trkpt><trkpt lat="40.9389067" lon="14.5760233"><ele>188.0</ele><time>2026-04-25T07:37:53.118Z</time></trkpt><trkpt lat="40.93885" lon="14.5761483"><ele>188.2</ele><time>2026-04-25T07:37:54.118Z</time></trkpt><trkpt lat="40.9387967" lon="14.57626"><ele>188.4</ele><time>2026-04-25T07:37:55.118Z</time></trkpt><trkpt lat="40.9387483" lon="14.5763783"><ele>188.6</ele><time>2026-04-25T07:37:56.118Z</time></trkpt><trkpt lat="40.9387033" lon="14.576495"><ele>188.79999999999998</ele><time>2026-04-25T07:37:57.118Z</time></trkpt><trkpt lat="40.938655" lon="14.576615"><ele>189.0</ele><time>2026-04-25T07:37:58.118Z</time></trkpt><trkpt lat="40.9386067" lon="14.5767267"><ele>189.0</ele><time>2026-04-25T07:37:59.118Z</time></trkpt><trkpt lat="40.938575" lon="14.5768483"><ele>189.0</ele><time>2026-04-25T07:38:00.118Z</time></trkpt><trkpt lat="40.93855" lon="14.576975"><ele>189.0</ele><time>2026-04-25T07:38:01.118Z</time></trkpt><trkpt lat="40.9385333" lon="14.57711"><ele>189.0</ele><time>2026-04-25T07:38:02.118Z</time></trkpt><trkpt lat="40.9385133" lon="14.5772483"><ele>189.0</ele><time>2026-04-25T07:38:03.118Z</time></trkpt><trkpt lat="40.9384917" lon="14.5773717"><ele>188.83333333333334</ele><time>2026-04-25T07:38:04.118Z</time></trkpt><trkpt lat="40.93847" lon="14.577485"><ele>188.66666666666666</ele><time>2026-04-25T07:38:05.118Z</time></trkpt><trkpt lat="40.938445" lon="14.5775917"><ele>188.5</ele><time>2026-04-25T07:38:06.118Z</time></trkpt><trkpt lat="40.9384217" lon="14.5777"><ele>188.33333333333331</ele><time>2026-04-25T07:38:07.118Z</time></trkpt><trkpt lat="40.9383983" lon="14.5777983"><ele>188.16666666666666</ele><time>2026-04-25T07:38:08.118Z</time></trkpt><trkpt lat="40.9383833" lon="14.57789"><ele>188.0</ele><time>2026-04-25T07:38:09.118Z</time></trkpt><trkpt lat="40.9383633" lon="14.5779933"><ele>190.33333333333331</ele><time>2026-04-25T07:38:10.118Z</time></trkpt><trkpt lat="40.93835" lon="14.5780983"><ele>192.66666666666666</ele><time>2026-04-25T07:38:11.118Z</time></trkpt><trkpt lat="40.938335" lon="14.5781933"><ele>195.0</ele><time>2026-04-25T07:38:12.118Z</time></trkpt><trkpt lat="40.9383217" lon="14.5782833"><ele>197.33333333333331</ele><time>2026-04-25T07:38:13.118Z</time></trkpt><trkpt lat="40.9383067" lon="14.57843"><ele>199.66666666666666</ele><time>2026-04-25T07:38:15.118Z</time></trkpt><trkpt lat="40.9382667" lon="14.57854"><ele>202.0</ele><time>2026-04-25T07:38:17.118Z</time></trkpt><trkpt lat="40.9381883" lon="14.5785367"><ele>201.99999999999997</ele><time>2026-04-25T07:38:19.118Z</time></trkpt><trkpt lat="40.9381217" lon="14.5783967"><ele>202.0</ele><time>2026-04-25T07:38:21.118Z</time></trkpt><trkpt lat="40.9381017" lon="14.578295"><ele>202.0</ele><time>2026-04-25T07:38:22.118Z</time></trkpt><trkpt lat="40.9380783" lon="14.5781933"><ele>202.0</ele><time>2026-04-25T07:38:23.118Z</time></trkpt><trkpt lat="40.938055" lon="14.57809"><ele>201.99999999999997</ele><time>2026-04-25T07:38:24.118Z</time></trkpt><trkpt lat="40.93803" lon="14.57799"><ele>202.0</ele><time>2026-04-25T07:38:25.118Z</time></trkpt><trkpt lat="40.9380167" lon="14.57789"><ele>201.8</ele><time>2026-04-25T07:38:26.118Z</time></trkpt><trkpt lat="40.9380183" lon="14.5777883"><ele>201.6</ele><time>2026-04-25T07:38:27.119Z</time></trkpt><trkpt lat="40.9380267" lon="14.5776433"><ele>201.4</ele><time>2026-04-25T07:38:29.118Z</time></trkpt><trkpt lat="40.9380017" lon="14.5775117"><ele>201.20000000000002</ele><time>2026-04-25T07:38:31.118Z</time></trkpt><trkpt lat="40.9379217" lon="14.577425"><ele>201.0</ele><time>2026-04-25T07:38:33.118Z</time></trkpt><trkpt lat="40.93782" lon="14.5774767"><ele>201.0</ele><time>2026-04-25T07:38:35.118Z</time></trkpt><trkpt lat="40.9377767" lon="14.5775583"><ele>201.0</ele><time>2026-04-25T07:38:36.118Z</time></trkpt><trkpt lat="40.9377433" lon="14.5776783"><ele>201.0</ele><time>2026-04-25T07:38:37.118Z</time></trkpt><trkpt lat="40.937705" lon="14.57782"><ele>201.0</ele><time>2026-04-25T07:38:38.118Z</time></trkpt><trkpt lat="40.9376667" lon="14.577955"><ele>201.0</ele><time>2026-04-25T07:38:39.118Z</time></trkpt><trkpt lat="40.93763" lon="14.578085"><ele>201.20000000000002</ele><time>2026-04-25T07:38:40.118Z</time></trkpt><trkpt lat="40.9375883" lon="14.57823"><ele>201.4</ele><time>2026-04-25T07:38:41.118Z</time></trkpt><trkpt lat="40.9375533" lon="14.578355"><ele>201.6</ele><time>2026-04-25T07:38:42.118Z</time></trkpt><trkpt lat="40.937515" lon="14.5784683"><ele>201.8</ele><time>2026-04-25T07:38:43.118Z</time></trkpt><trkpt lat="40.9374717" lon="14.5785783"><ele>202.0</ele><time>2026-04-25T07:38:44.118Z</time></trkpt><trkpt lat="40.9374367" lon="14.5786867"><ele>204.83333333333331</ele><time>2026-04-25T07:38:45.118Z</time></trkpt><trkpt lat="40.9373917" lon="14.5787917"><ele>207.66666666666666</ele><time>2026-04-25T07:38:46.118Z</time></trkpt><trkpt lat="40.9373383" lon="14.5788917"><ele>210.5</ele><time>2026-04-25T07:38:47.118Z</time></trkpt><trkpt lat="40.9372917" lon="14.578985"><ele>213.33333333333331</ele><time>2026-04-25T07:38:48.118Z</time></trkpt><trkpt lat="40.9372417" lon="14.57908"><ele>216.16666666666666</ele><time>2026-04-25T07:38:49.119Z</time></trkpt><trkpt lat="40.9371917" lon="14.5791683"><ele>219.0</ele><time>2026-04-25T07:38:50.118Z</time></trkpt><trkpt lat="40.9371433" lon="14.5792567"><ele>219.0</ele><time>2026-04-25T07:38:51.118Z</time></trkpt><trkpt lat="40.937095" lon="14.5793367"><ele>219.0</ele><time>2026-04-25T07:38:52.118Z</time></trkpt><trkpt lat="40.9370333" lon="14.5794133"><ele>219.0</ele><time>2026-04-25T07:38:53.118Z</time></trkpt><trkpt lat="40.9369717" lon="14.5794917"><ele>219.0</ele><time>2026-04-25T07:38:54.118Z</time></trkpt><trkpt lat="40.9369067" lon="14.579565"><ele>219.0</ele><time>2026-04-25T07:38:55.118Z</time></trkpt><trkpt lat="40.9368617" lon="14.57963"><ele>219.0</ele><time>2026-04-25T07:38:56.118Z</time></trkpt><trkpt lat="40.9368133" lon="14.5797383"><ele>220.75</ele><time>2026-04-25T07:38:58.118Z</time></trkpt><trkpt lat="40.9368583" lon="14.579855"><ele>222.5</ele><time>2026-04-25T07:39:00.118Z</time></trkpt><trkpt lat="40.9369817" lon="14.5799483"><ele>224.25</ele><time>2026-04-25T07:39:02.118Z</time></trkpt><trkpt lat="40.9370667" lon="14.5800133"><ele>226.0</ele><time>2026-04-25T07:39:03.118Z</time></trkpt><trkpt lat="40.9371667" lon="14.58009"><ele>226.0</ele><time>2026-04-25T07:39:04.118Z</time></trkpt><trkpt lat="40.93727" lon="14.580165"><ele>226.0</ele><time>2026-04-25T07:39:05.118Z</time></trkpt><trkpt lat="40.9373683" lon="14.5802433"><ele>226.0</ele><time>2026-04-25T07:39:06.118Z</time></trkpt><trkpt lat="40.9374667" lon="14.5803317"><ele>226.0</ele><time>2026-04-25T07:39:07.118Z</time></trkpt><trkpt lat="40.93757" lon="14.58043"><ele>228.0</ele><time>2026-04-25T07:39:08.118Z</time></trkpt><trkpt lat="40.9376833" lon="14.580525"><ele>230.0</ele><time>2026-04-25T07:39:09.118Z</time></trkpt><trkpt lat="40.93779" lon="14.5806133"><ele>232.0</ele><time>2026-04-25T07:39:10.118Z</time></trkpt><trkpt lat="40.9378933" lon="14.5807067"><ele>234.0</ele><time>2026-04-25T07:39:11.119Z</time></trkpt><trkpt lat="40.9379933" lon="14.5808017"><ele>234.0</ele><time>2026-04-25T07:39:12.118Z</time></trkpt><trkpt lat="40.9380867" lon="14.580875"><ele>234.0</ele><time>2026-04-25T07:39:13.118Z</time></trkpt><trkpt lat="40.9381733" lon="14.58093"><ele>234.0</ele><time>2026-04-25T07:39:14.118Z</time></trkpt><trkpt lat="40.938255" lon="14.5809833"><ele>234.0</ele><time>2026-04-25T07:39:15.118Z</time></trkpt><trkpt lat="40.9383317" lon="14.5810233"><ele>234.0</ele><time>2026-04-25T07:39:16.118Z</time></trkpt><trkpt lat="40.938395" lon="14.5810583"><ele>234.0</ele><time>2026-04-25T07:39:17.118Z</time></trkpt><trkpt lat="40.9384967" lon="14.5811167"><ele>235.6</ele><time>2026-04-25T07:39:19.118Z</time></trkpt><trkpt lat="40.938605" lon="14.5811833"><ele>237.2</ele><time>2026-04-25T07:39:21.118Z</time></trkpt><trkpt lat="40.938645" lon="14.5812733"><ele>238.79999999999998</ele><time>2026-04-25T07:39:23.119Z</time></trkpt><trkpt lat="40.9385917" lon="14.5813383"><ele>240.39999999999998</ele><time>2026-04-25T07:39:25.118Z</time></trkpt><trkpt lat="40.9384783" lon="14.58129"><ele>242.0</ele><time>2026-04-25T07:39:27.118Z</time></trkpt><trkpt lat="40.9383983" lon="14.5812517"><ele>240.39999999999998</ele><time>2026-04-25T07:39:28.118Z</time></trkpt><trkpt lat="40.9383133" lon="14.581215"><ele>238.79999999999998</ele><time>2026-04-25T07:39:29.118Z</time></trkpt><trkpt lat="40.9382267" lon="14.58118"><ele>237.2</ele><time>2026-04-25T07:39:30.118Z</time></trkpt><trkpt lat="40.9381417" lon="14.5811467"><ele>235.6</ele><time>2026-04-25T07:39:31.118Z</time></trkpt><trkpt lat="40.93805" lon="14.581115"><ele>234.0</ele><time>2026-04-25T07:39:32.118Z</time></trkpt><trkpt lat="40.9379583" lon="14.58108"><ele>234.0</ele><time>2026-04-25T07:39:33.118Z</time></trkpt><trkpt lat="40.9378667" lon="14.5810467"><ele>233.99999999999997</ele><time>2026-04-25T07:39:34.118Z</time></trkpt><trkpt lat="40.9377683" lon="14.5810183"><ele>233.99999999999997</ele><time>2026-04-25T07:39:35.118Z</time></trkpt><trkpt lat="40.9376633" lon="14.580995"><ele>234.0</ele><time>2026-04-25T07:39:36.118Z</time></trkpt><trkpt lat="40.9375433" lon="14.5809867"><ele>234.0</ele><time>2026-04-25T07:39:37.119Z</time></trkpt><trkpt lat="40.93741" lon="14.5809883"><ele>237.33333333333331</ele><time>2026-04-25T07:39:38.118Z</time></trkpt><trkpt lat="40.9372517" lon="14.5809933"><ele>240.66666666666666</ele><time>2026-04-25T07:39:39.118Z</time></trkpt><trkpt lat="40.9370817" lon="14.5809867"><ele>244.0</ele><time>2026-04-25T07:39:40.118Z</time></trkpt><trkpt lat="40.9369167" lon="14.580975"><ele>244.0</ele><time>2026-04-25T07:39:41.119Z</time></trkpt><trkpt lat="40.9367533" lon="14.5809583"><ele>244.0</ele><time>2026-04-25T07:39:42.118Z</time></trkpt><trkpt lat="40.9365867" lon="14.58094"><ele>244.0</ele><time>2026-04-25T07:39:43.118Z</time></trkpt><trkpt lat="40.93642" lon="14.5809317"><ele>246.25</ele><time>2026-04-25T07:39:44.118Z</time></trkpt><trkpt lat="40.9362733" lon="14.58092"><ele>248.5</ele><time>2026-04-25T07:39:45.118Z</time></trkpt><trkpt lat="40.93614" lon="14.580915"><ele>250.75</ele><time>2026-04-25T07:39:46.118Z</time></trkpt><trkpt lat="40.93602" lon="14.5808983"><ele>253.0</ele><time>2026-04-25T07:39:47.118Z</time></trkpt><trkpt lat="40.9359083" lon="14.5808617"><ele>254.4</ele><time>2026-04-25T07:39:48.118Z</time></trkpt><trkpt lat="40.935805" lon="14.58082"><ele>255.8</ele><time>2026-04-25T07:39:49.118Z</time></trkpt><trkpt lat="40.93571" lon="14.5807817"><ele>257.2</ele><time>2026-04-25T07:39:50.118Z</time></trkpt><trkpt lat="40.9356267" lon="14.5807467"><ele>258.6</ele><time>2026-04-25T07:39:51.118Z</time></trkpt><trkpt lat="40.9355583" lon="14.5807267"><ele>260.0</ele><time>2026-04-25T07:39:52.118Z</time></trkpt><trkpt lat="40.9354567" lon="14.5807467"><ele>260.0</ele><time>2026-04-25T07:39:54.118Z</time></trkpt><trkpt lat="40.9353983" lon="14.5809017"><ele>260.0</ele><time>2026-04-25T07:39:56.118Z</time></trkpt><trkpt lat="40.9353917" lon="14.581015"><ele>260.0</ele><time>2026-04-25T07:39:57.118Z</time></trkpt><trkpt lat="40.9353967" lon="14.5811583"><ele>260.0</ele><time>2026-04-25T07:39:58.118Z</time></trkpt><trkpt lat="40.935375" lon="14.581305"><ele>260.0</ele><time>2026-04-25T07:39:59.118Z</time></trkpt><trkpt lat="40.93534" lon="14.5814667"><ele>264.0</ele><time>2026-04-25T07:40:00.118Z</time></trkpt><trkpt lat="40.935305" lon="14.581635"><ele>268.0</ele><time>2026-04-25T07:40:01.118Z</time></trkpt><trkpt lat="40.935265" lon="14.5818033"><ele>272.0</ele><time>2026-04-25T07:40:02.118Z</time></trkpt><trkpt lat="40.9352267" lon="14.5819617"><ele>276.0</ele><time>2026-04-25T07:40:03.119Z</time></trkpt><trkpt lat="40.9351933" lon="14.5821033"><ele>277.2</ele><time>2026-04-25T07:40:04.118Z</time></trkpt><trkpt lat="40.93516" lon="14.58222"><ele>278.40000000000003</ele><time>2026-04-25T07:40:05.118Z</time></trkpt><trkpt lat="40.93513" lon="14.5823267"><ele>279.6</ele><time>2026-04-25T07:40:06.118Z</time></trkpt><trkpt lat="40.9351" lon="14.5824083"><ele>280.8</ele><time>2026-04-25T07:40:07.119Z</time></trkpt><trkpt lat="40.9350283" lon="14.582525"><ele>282.0</ele><time>2026-04-25T07:40:09.118Z</time></trkpt><trkpt lat="40.93491" lon="14.5825483"><ele>282.0</ele><time>2026-04-25T07:40:11.118Z</time></trkpt><trkpt lat="40.9348467" lon="14.582525"><ele>282.0</ele><time>2026-04-25T07:40:12.118Z</time></trkpt><trkpt lat="40.9348017" lon="14.5824667"><ele>282.0</ele><time>2026-04-25T07:40:13.118Z</time></trkpt><trkpt lat="40.93476" lon="14.5823067"><ele>282.0</ele><time>2026-04-25T07:40:15.118Z</time></trkpt><trkpt lat="40.9347383" lon="14.5822117"><ele>282.0</ele><time>2026-04-25T07:40:16.118Z</time></trkpt><trkpt lat="40.9347017" lon="14.5821233"><ele>282.0</ele><time>2026-04-25T07:40:17.118Z</time></trkpt><trkpt lat="40.9346483" lon="14.5820333"><ele>281.0</ele><time>2026-04-25T07:40:18.118Z</time></trkpt><trkpt lat="40.9345817" lon="14.5819667"><ele>280.0</ele><time>2026-04-25T07:40:19.118Z</time></trkpt><trkpt lat="40.9344917" lon="14.5819067"><ele>279.0</ele><time>2026-04-25T07:40:20.119Z</time></trkpt><trkpt lat="40.9343767" lon="14.5818533"><ele>278.0</ele><time>2026-04-25T07:40:21.118Z</time></trkpt><trkpt lat="40.934245" lon="14.5817967"><ele>277.0</ele><time>2026-04-25T07:40:22.118Z</time></trkpt><trkpt lat="40.9341017" lon="14.5817367"><ele>277.0</ele><time>2026-04-25T07:40:23.118Z</time></trkpt><trkpt lat="40.9339617" lon="14.5816817"><ele>277.0</ele><time>2026-04-25T07:40:24.118Z</time></trkpt><trkpt lat="40.9338267" lon="14.5816283"><ele>277.0</ele><time>2026-04-25T07:40:25.118Z</time></trkpt><trkpt lat="40.9336833" lon="14.5815717"><ele>277.0</ele><time>2026-04-25T07:40:26.118Z</time></trkpt><trkpt lat="40.933535" lon="14.581505"><ele>283.3333333333333</ele><time>2026-04-25T07:40:27.118Z</time></trkpt><trkpt lat="40.933385" lon="14.5814383"><ele>289.6666666666667</ele><time>2026-04-25T07:40:28.118Z</time></trkpt><trkpt lat="40.93323" lon="14.5813767"><ele>296.0</ele><time>2026-04-25T07:40:29.118Z</time></trkpt><trkpt lat="40.9330767" lon="14.5813067"><ele>296.0</ele><time>2026-04-25T07:40:30.118Z</time></trkpt><trkpt lat="40.9329233" lon="14.5812433"><ele>296.0</ele><time>2026-04-25T07:40:31.118Z</time></trkpt><trkpt lat="40.9327683" lon="14.5811767"><ele>296.0</ele><time>2026-04-25T07:40:32.118Z</time></trkpt><trkpt lat="40.93261" lon="14.5811017"><ele>292.33333333333337</ele><time>2026-04-25T07:40:33.118Z</time></trkpt><trkpt lat="40.932455" lon="14.5810233"><ele>288.6666666666667</ele><time>2026-04-25T07:40:34.119Z</time></trkpt><trkpt lat="40.9323167" lon="14.58095"><ele>285.0</ele><time>2026-04-25T07:40:35.118Z</time></trkpt><trkpt lat="40.93219" lon="14.5808833"><ele>285.0</ele><time>2026-04-25T07:40:36.118Z</time></trkpt><trkpt lat="40.93208" lon="14.5808233"><ele>285.0</ele><time>2026-04-25T07:40:37.118Z</time></trkpt><trkpt lat="40.9319883" lon="14.5807533"><ele>285.0</ele><time>2026-04-25T07:40:38.118Z</time></trkpt><trkpt lat="40.9319217" lon="14.5806883"><ele>285.0</ele><time>2026-04-25T07:40:39.118Z</time></trkpt><trkpt lat="40.9318683" lon="14.5806417"><ele>285.0</ele><time>2026-04-25T07:40:40.118Z</time></trkpt><trkpt lat="40.9317917" lon="14.5806433"><ele>285.0</ele><time>2026-04-25T07:40:42.119Z</time></trkpt><trkpt lat="40.9317533" lon="14.5807317"><ele>285.0</ele><time>2026-04-25T07:40:44.118Z</time></trkpt><trkpt lat="40.9318183" lon="14.5808433"><ele>285.0</ele><time>2026-04-25T07:40:46.118Z</time></trkpt><trkpt lat="40.9319" lon="14.5809083"><ele>285.0</ele><time>2026-04-25T07:40:47.118Z</time></trkpt><trkpt lat="40.932" lon="14.58099"><ele>285.0</ele><time>2026-04-25T07:40:48.118Z</time></trkpt><trkpt lat="40.9321167" lon="14.5810917"><ele>294.6666666666667</ele><time>2026-04-25T07:40:49.118Z</time></trkpt><trkpt lat="40.9322467" lon="14.5811933"><ele>304.33333333333337</ele><time>2026-04-25T07:40:50.118Z</time></trkpt><trkpt lat="40.93239" lon="14.5813117"><ele>314.0</ele><time>2026-04-25T07:40:51.118Z</time></trkpt><trkpt lat="40.93253" lon="14.5814267"><ele>309.5</ele><time>2026-04-25T07:40:52.118Z</time></trkpt><trkpt lat="40.9326567" lon="14.58153"><ele>305.0</ele><time>2026-04-25T07:40:53.118Z</time></trkpt><trkpt lat="40.9327683" lon="14.5816233"><ele>300.5</ele><time>2026-04-25T07:40:54.118Z</time></trkpt><trkpt lat="40.93287" lon="14.5817033"><ele>296.0</ele><time>2026-04-25T07:40:55.118Z</time></trkpt><trkpt lat="40.932955" lon="14.5817717"><ele>296.0</ele><time>2026-04-25T07:40:56.118Z</time></trkpt><trkpt lat="40.93303" lon="14.5818167"><ele>296.0</ele><time>2026-04-25T07:40:57.118Z</time></trkpt><trkpt lat="40.93309" lon="14.58186"><ele>296.0</ele><time>2026-04-25T07:40:58.118Z</time></trkpt><trkpt lat="40.9331317" lon="14.5819517"><ele>296.0</ele><time>2026-04-25T07:41:00.118Z</time></trkpt><trkpt lat="40.9330767" lon="14.5819983"><ele>296.0</ele><time>2026-04-25T07:41:02.119Z</time></trkpt><trkpt lat="40.9329533" lon="14.5819383"><ele>296.0</ele><time>2026-04-25T07:41:04.119Z</time></trkpt><trkpt lat="40.93286" lon="14.5818767"><ele>296.0</ele><time>2026-04-25T07:41:05.119Z</time></trkpt><trkpt lat="40.9327617" lon="14.5818183"><ele>296.0</ele><time>2026-04-25T07:41:06.119Z</time></trkpt><trkpt lat="40.9326633" lon="14.5817617"><ele>296.0</ele><time>2026-04-25T07:41:07.119Z</time></trkpt><trkpt lat="40.932575" lon="14.581715"><ele>296.0</ele><time>2026-04-25T07:41:08.119Z</time></trkpt><trkpt lat="40.9324917" lon="14.5816683"><ele>296.0</ele><time>2026-04-25T07:41:09.119Z</time></trkpt><trkpt lat="40.932405" lon="14.581625"><ele>300.5</ele><time>2026-04-25T07:41:10.119Z</time></trkpt><trkpt lat="40.93231" lon="14.5815867"><ele>305.0</ele><time>2026-04-25T07:41:11.119Z</time></trkpt><trkpt lat="40.932205" lon="14.581535"><ele>309.5</ele><time>2026-04-25T07:41:12.119Z</time></trkpt><trkpt lat="40.9320983" lon="14.581475"><ele>314.0</ele><time>2026-04-25T07:41:13.119Z</time></trkpt><trkpt lat="40.9319833" lon="14.58142"><ele>314.0</ele><time>2026-04-25T07:41:14.119Z</time></trkpt><trkpt lat="40.9318683" lon="14.5813617"><ele>314.0</ele><time>2026-04-25T07:41:15.119Z</time></trkpt><trkpt lat="40.9317533" lon="14.581285"><ele>314.0</ele><time>2026-04-25T07:41:16.119Z</time></trkpt><trkpt lat="40.9316483" lon="14.58119"><ele>314.0</ele><time>2026-04-25T07:41:17.119Z</time></trkpt><trkpt lat="40.93154" lon="14.5811033"><ele>312.0</ele><time>2026-04-25T07:41:18.119Z</time></trkpt><trkpt lat="40.931435" lon="14.5810117"><ele>310.0</ele><time>2026-04-25T07:41:19.119Z</time></trkpt><trkpt lat="40.9313367" lon="14.5809367"><ele>308.0</ele><time>2026-04-25T07:41:20.119Z</time></trkpt><trkpt lat="40.9312333" lon="14.5808817"><ele>306.0</ele><time>2026-04-25T07:41:21.119Z</time></trkpt><trkpt lat="40.931135" lon="14.5808533"><ele>306.0</ele><time>2026-04-25T07:41:22.119Z</time></trkpt><trkpt lat="40.9310383" lon="14.5808467"><ele>306.0</ele><time>2026-04-25T07:41:23.119Z</time></trkpt><trkpt lat="40.9309417" lon="14.5808667"><ele>306.0</ele><time>2026-04-25T07:41:24.119Z</time></trkpt><trkpt lat="40.9308517" lon="14.580915"><ele>306.0</ele><time>2026-04-25T07:41:25.12Z</time></trkpt><trkpt lat="40.93076" lon="14.5810017"><ele>306.0</ele><time>2026-04-25T07:41:26.119Z</time></trkpt><trkpt lat="40.9306733" lon="14.5811017"><ele>310.8333333333333</ele><time>2026-04-25T07:41:27.119Z</time></trkpt><trkpt lat="40.9305983" lon="14.5812033"><ele>315.6666666666667</ele><time>2026-04-25T07:41:28.119Z</time></trkpt><trkpt lat="40.93054" lon="14.5812867"><ele>320.5</ele><time>2026-04-25T07:41:29.119Z</time></trkpt><trkpt lat="40.9304933" lon="14.5813583"><ele>325.33333333333337</ele><time>2026-04-25T07:41:30.119Z</time></trkpt><trkpt lat="40.9303883" lon="14.58142"><ele>330.1666666666667</ele><time>2026-04-25T07:41:32.119Z</time></trkpt><trkpt lat="40.93032" lon="14.58141"><ele>335.0</ele><time>2026-04-25T07:41:33.119Z</time></trkpt><trkpt lat="40.9302533" lon="14.5813567"><ele>335.0</ele><time>2026-04-25T07:41:34.119Z</time></trkpt><trkpt lat="40.9301783" lon="14.581275"><ele>335.0</ele><time>2026-04-25T07:41:35.12Z</time></trkpt><trkpt lat="40.9300883" lon="14.5812"><ele>335.0</ele><time>2026-04-25T07:41:36.119Z</time></trkpt><trkpt lat="40.9299733" lon="14.5811483"><ele>335.0</ele><time>2026-04-25T07:41:37.119Z</time></trkpt><trkpt lat="40.9298433" lon="14.5811067"><ele>332.25</ele><time>2026-04-25T07:41:38.119Z</time></trkpt><trkpt lat="40.92971" lon="14.581065"><ele>329.5</ele><time>2026-04-25T07:41:39.119Z</time></trkpt><trkpt lat="40.9295733" lon="14.5810417"><ele>326.75</ele><time>2026-04-25T07:41:40.119Z</time></trkpt><trkpt lat="40.9294383" lon="14.58102"><ele>324.0</ele><time>2026-04-25T07:41:41.119Z</time></trkpt><trkpt lat="40.9293183" lon="14.5810083"><ele>325.5</ele><time>2026-04-25T07:41:42.119Z</time></trkpt><trkpt lat="40.9292133" lon="14.58102"><ele>327.0</ele><time>2026-04-25T07:41:43.119Z</time></trkpt><trkpt lat="40.929125" lon="14.58105"><ele>328.5</ele><time>2026-04-25T07:41:44.119Z</time></trkpt><trkpt lat="40.92905" lon="14.5810817"><ele>330.0</ele><time>2026-04-25T07:41:45.119Z</time></trkpt><trkpt lat="40.9289817" lon="14.5811067"><ele>331.5</ele><time>2026-04-25T07:41:46.119Z</time></trkpt><trkpt lat="40.928905" lon="14.5811433"><ele>333.0</ele><time>2026-04-25T07:41:47.119Z</time></trkpt><trkpt lat="40.9288267" lon="14.5811883"><ele>335.4</ele><time>2026-04-25T07:41:48.119Z</time></trkpt><trkpt lat="40.9287433" lon="14.5812233"><ele>337.79999999999995</ele><time>2026-04-25T07:41:49.119Z</time></trkpt><trkpt lat="40.9286567" lon="14.5812683"><ele>340.2</ele><time>2026-04-25T07:41:50.119Z</time></trkpt><trkpt lat="40.9285717" lon="14.5813233"><ele>342.6</ele><time>2026-04-25T07:41:51.119Z</time></trkpt><trkpt lat="40.928485" lon="14.5813817"><ele>345.0</ele><time>2026-04-25T07:41:52.119Z</time></trkpt><trkpt lat="40.9283967" lon="14.5814317"><ele>345.0</ele><time>2026-04-25T07:41:53.119Z</time></trkpt><trkpt lat="40.9282983" lon="14.581475"><ele>345.0</ele><time>2026-04-25T07:41:54.119Z</time></trkpt><trkpt lat="40.9281967" lon="14.581505"><ele>345.0</ele><time>2026-04-25T07:41:55.119Z</time></trkpt><trkpt lat="40.9280867" lon="14.5815283"><ele>345.0</ele><time>2026-04-25T07:41:56.119Z</time></trkpt><trkpt lat="40.9279683" lon="14.5815683"><ele>345.0</ele><time>2026-04-25T07:41:57.119Z</time></trkpt><trkpt lat="40.9278633" lon="14.581605"><ele>345.0</ele><time>2026-04-25T07:41:58.119Z</time></trkpt><trkpt lat="40.92776" lon="14.581635"><ele>345.0</ele><time>2026-04-25T07:41:59.119Z</time></trkpt><trkpt lat="40.9276617" lon="14.5816633"><ele>345.0</ele><time>2026-04-25T07:42:00.119Z</time></trkpt><trkpt lat="40.9275617" lon="14.5816933"><ele>345.0</ele><time>2026-04-25T07:42:01.12Z</time></trkpt><trkpt lat="40.927465" lon="14.5817167"><ele>345.0</ele><time>2026-04-25T07:42:02.119Z</time></trkpt><trkpt lat="40.9273883" lon="14.5817367"><ele>345.3333333333333</ele><time>2026-04-25T07:42:03.119Z</time></trkpt><trkpt lat="40.927325" lon="14.5817567"><ele>345.6666666666667</ele><time>2026-04-25T07:42:04.119Z</time></trkpt><trkpt lat="40.927255" lon="14.58177"><ele>346.0</ele><time>2026-04-25T07:42:05.119Z</time></trkpt><trkpt lat="40.92718" lon="14.5817917"><ele>346.33333333333337</ele><time>2026-04-25T07:42:06.119Z</time></trkpt><trkpt lat="40.9271033" lon="14.58182"><ele>346.6666666666667</ele><time>2026-04-25T07:42:07.119Z</time></trkpt><trkpt lat="40.9270083" lon="14.5818583"><ele>347.0</ele><time>2026-04-25T07:42:08.119Z</time></trkpt><trkpt lat="40.9269017" lon="14.581885"><ele>347.0</ele><time>2026-04-25T07:42:09.119Z</time></trkpt><trkpt lat="40.9268017" lon="14.5819183"><ele>347.0</ele><time>2026-04-25T07:42:10.119Z</time></trkpt><trkpt lat="40.9267117" lon="14.581945"><ele>347.0</ele><time>2026-04-25T07:42:11.119Z</time></trkpt><trkpt lat="40.926625" lon="14.581965"><ele>347.0</ele><time>2026-04-25T07:42:12.119Z</time></trkpt><trkpt lat="40.92655" lon="14.5819883"><ele>347.0</ele><time>2026-04-25T07:42:13.119Z</time></trkpt><trkpt lat="40.9264817" lon="14.5820167"><ele>347.0</ele><time>2026-04-25T07:42:14.119Z</time></trkpt><trkpt lat="40.92642" lon="14.5820383"><ele>347.33333333333337</ele><time>2026-04-25T07:42:15.119Z</time></trkpt><trkpt lat="40.926355" lon="14.582075"><ele>347.6666666666667</ele><time>2026-04-25T07:42:16.119Z</time></trkpt><trkpt lat="40.9262533" lon="14.58213"><ele>348.0</ele><time>2026-04-25T07:42:18.119Z</time></trkpt><trkpt lat="40.9261567" lon="14.58216"><ele>348.3333333333333</ele><time>2026-04-25T07:42:20.119Z</time></trkpt><trkpt lat="40.92607" lon="14.5821917"><ele>348.66666666666663</ele><time>2026-04-25T07:42:22.119Z</time></trkpt><trkpt lat="40.9260083" lon="14.582225"><ele>349.0</ele><time>2026-04-25T07:42:24.119Z</time></trkpt><trkpt lat="40.9259333" lon="14.5822817"><ele>348.79999999999995</ele><time>2026-04-25T07:42:26.119Z</time></trkpt><trkpt lat="40.92585" lon="14.5823267"><ele>348.59999999999997</ele><time>2026-04-25T07:42:28.119Z</time></trkpt><trkpt lat="40.92584" lon="14.5824517"><ele>348.4</ele><time>2026-04-25T07:42:34.119Z</time></trkpt><trkpt lat="40.9258067" lon="14.582585"><ele>348.2</ele><time>2026-04-25T07:42:36.119Z</time></trkpt><trkpt lat="40.9257667" lon="14.58274"><ele>348.0</ele><time>2026-04-25T07:42:38.119Z</time></trkpt><trkpt lat="40.92572" lon="14.5828633"><ele>348.0</ele><time>2026-04-25T07:42:40.12Z</time></trkpt><trkpt lat="40.925695" lon="14.58294"><ele>348.0</ele><time>2026-04-25T07:42:42.119Z</time></trkpt><trkpt lat="40.92569" lon="14.5830233"><ele>348.0</ele><time>2026-04-25T07:42:45.119Z</time></trkpt><trkpt lat="40.925665" lon="14.5831283"><ele>348.0</ele><time>2026-04-25T07:42:48.119Z</time></trkpt><trkpt lat="40.92564" lon="14.5832167"><ele>348.0</ele><time>2026-04-25T07:42:50.119Z</time></trkpt><trkpt lat="40.9255867" lon="14.5833067"><ele>348.0</ele><time>2026-04-25T07:42:53.119Z</time></trkpt><trkpt lat="40.92554" lon="14.58337"><ele>348.0</ele><time>2026-04-25T07:42:55.12Z</time></trkpt><trkpt lat="40.9254983" lon="14.5834433"><ele>348.0</ele><time>2026-04-25T07:42:57.119Z</time></trkpt><trkpt lat="40.9254433" lon="14.58354"><ele>348.0</ele><time>2026-04-25T07:42:59.119Z</time></trkpt><trkpt lat="40.9253767" lon="14.5836467"><ele>348.0</ele><time>2026-04-25T07:43:01.119Z</time></trkpt><trkpt lat="40.9253067" lon="14.5837767"><ele>348.0</ele><time>2026-04-25T07:43:03.119Z</time></trkpt><trkpt lat="40.9252317" lon="14.5839117"><ele>348.0</ele><time>2026-04-25T07:43:05.119Z</time></trkpt><trkpt lat="40.9251833" lon="14.5839933"><ele>347.6666666666667</ele><time>2026-04-25T07:43:06.119Z</time></trkpt><trkpt lat="40.9251333" lon="14.5840567"><ele>347.3333333333333</ele><time>2026-04-25T07:43:07.119Z</time></trkpt><trkpt lat="40.9250867" lon="14.5841217"><ele>347.0</ele><time>2026-04-25T07:43:08.119Z</time></trkpt><trkpt lat="40.9250333" lon="14.584185"><ele>346.66666666666663</ele><time>2026-04-25T07:43:09.119Z</time></trkpt><trkpt lat="40.9249617" lon="14.5842967"><ele>346.3333333333333</ele><time>2026-04-25T07:43:11.119Z</time></trkpt><trkpt lat="40.92491" lon="14.5843667"><ele>346.0</ele><time>2026-04-25T07:43:13.119Z</time></trkpt><trkpt lat="40.924925" lon="14.58447"><ele>346.8</ele><time>2026-04-25T07:43:17.119Z</time></trkpt><trkpt lat="40.924995" lon="14.5845983"><ele>347.6</ele><time>2026-04-25T07:43:19.119Z</time></trkpt><trkpt lat="40.9250383" lon="14.5846733"><ele>348.4</ele><time>2026-04-25T07:43:20.119Z</time></trkpt><trkpt lat="40.92508" lon="14.5847483"><ele>349.2</ele><time>2026-04-25T07:43:21.119Z</time></trkpt><trkpt lat="40.9251567" lon="14.58488"><ele>350.0</ele><time>2026-04-25T07:43:23.119Z</time></trkpt><trkpt lat="40.925235" lon="14.5849767"><ele>350.5</ele><time>2026-04-25T07:43:25.119Z</time></trkpt><trkpt lat="40.9252867" lon="14.58504"><ele>351.0</ele><time>2026-04-25T07:43:26.119Z</time></trkpt><trkpt lat="40.9253333" lon="14.5851083"><ele>351.5</ele><time>2026-04-25T07:43:27.12Z</time></trkpt><trkpt lat="40.9253733" lon="14.5851817"><ele>352.0</ele><time>2026-04-25T07:43:28.119Z</time></trkpt><trkpt lat="40.92542" lon="14.585265"><ele>352.5</ele><time>2026-04-25T07:43:29.119Z</time></trkpt><trkpt lat="40.9254533" lon="14.5853567"><ele>353.0</ele><time>2026-04-25T07:43:30.119Z</time></trkpt><trkpt lat="40.9254833" lon="14.5854633"><ele>353.83333333333337</ele><time>2026-04-25T07:43:31.119Z</time></trkpt><trkpt lat="40.9255183" lon="14.5855683"><ele>354.6666666666667</ele><time>2026-04-25T07:43:32.12Z</time></trkpt><trkpt lat="40.92556" lon="14.5856567"><ele>355.5</ele><time>2026-04-25T07:43:33.119Z</time></trkpt><trkpt lat="40.9255933" lon="14.5857333"><ele>356.3333333333333</ele><time>2026-04-25T07:43:34.119Z</time></trkpt><trkpt lat="40.92563" lon="14.5858317"><ele>357.16666666666663</ele><time>2026-04-25T07:43:36.119Z</time></trkpt><trkpt lat="40.9256533" lon="14.585915"><ele>358.0</ele><time>2026-04-25T07:43:38.119Z</time></trkpt><trkpt lat="40.9257117" lon="14.586005"><ele>358.0</ele><time>2026-04-25T07:43:40.119Z</time></trkpt><trkpt lat="40.9257633" lon="14.586075"><ele>358.0</ele><time>2026-04-25T07:43:42.119Z</time></trkpt><trkpt lat="40.9258217" lon="14.586165"><ele>358.0</ele><time>2026-04-25T07:43:44.12Z</time></trkpt><trkpt lat="40.92593" lon="14.586255"><ele>358.0</ele><time>2026-04-25T07:43:46.119Z</time></trkpt><trkpt lat="40.9259867" lon="14.5863083"><ele>358.0</ele><time>2026-04-25T07:43:47.119Z</time></trkpt><trkpt lat="40.9260467" lon="14.586335"><ele>358.0</ele><time>2026-04-25T07:43:48.119Z</time></trkpt><trkpt lat="40.9261183" lon="14.586395"><ele>358.3333333333333</ele><time>2026-04-25T07:43:50.119Z</time></trkpt><trkpt lat="40.9261183" lon="14.5864817"><ele>358.66666666666663</ele><time>2026-04-25T07:43:53.119Z</time></trkpt><trkpt lat="40.92604" lon="14.5865767"><ele>359.0</ele><time>2026-04-25T07:43:55.119Z</time></trkpt><trkpt lat="40.9259817" lon="14.58665"><ele>359.3333333333333</ele><time>2026-04-25T07:43:56.119Z</time></trkpt><trkpt lat="40.925915" lon="14.5867117"><ele>359.6666666666667</ele><time>2026-04-25T07:43:57.12Z</time></trkpt><trkpt lat="40.9258467" lon="14.5867733"><ele>360.0</ele><time>2026-04-25T07:43:58.119Z</time></trkpt><trkpt lat="40.925775" lon="14.5868283"><ele>360.0</ele><time>2026-04-25T07:43:59.119Z</time></trkpt><trkpt lat="40.9256983" lon="14.5868817"><ele>360.0</ele><time>2026-04-25T07:44:00.119Z</time></trkpt><trkpt lat="40.9256167" lon="14.5869433"><ele>360.0</ele><time>2026-04-25T07:44:01.119Z</time></trkpt><trkpt lat="40.9255333" lon="14.5870017"><ele>360.0</ele><time>2026-04-25T07:44:02.12Z</time></trkpt><trkpt lat="40.9254467" lon="14.5870633"><ele>360.0</ele><time>2026-04-25T07:44:03.119Z</time></trkpt><trkpt lat="40.9253767" lon="14.5871167"><ele>360.6</ele><time>2026-04-25T07:44:04.119Z</time></trkpt><trkpt lat="40.92531" lon="14.587155"><ele>361.2</ele><time>2026-04-25T07:44:05.12Z</time></trkpt><trkpt lat="40.92525" lon="14.5871917"><ele>361.79999999999995</ele><time>2026-04-25T07:44:06.119Z</time></trkpt><trkpt lat="40.92514" lon="14.5872667"><ele>362.4</ele><time>2026-04-25T07:44:08.119Z</time></trkpt><trkpt lat="40.9250417" lon="14.5873383"><ele>363.0</ele><time>2026-04-25T07:44:10.119Z</time></trkpt><trkpt lat="40.9249767" lon="14.5873917"><ele>363.0</ele><time>2026-04-25T07:44:12.119Z</time></trkpt><trkpt lat="40.924915" lon="14.5874833"><ele>363.0</ele><time>2026-04-25T07:44:16.119Z</time></trkpt><trkpt lat="40.9248783" lon="14.5876533"><ele>363.0</ele><time>2026-04-25T07:44:18.119Z</time></trkpt><trkpt lat="40.9248617" lon="14.5877467"><ele>363.0</ele><time>2026-04-25T07:44:19.119Z</time></trkpt><trkpt lat="40.9248383" lon="14.58783"><ele>363.0</ele><time>2026-04-25T07:44:20.119Z</time></trkpt><trkpt lat="40.9247983" lon="14.5879083"><ele>363.0</ele><time>2026-04-25T07:44:21.119Z</time></trkpt><trkpt lat="40.9247467" lon="14.5879883"><ele>363.0</ele><time>2026-04-25T07:44:22.119Z</time></trkpt><trkpt lat="40.92469" lon="14.588075"><ele>363.0</ele><time>2026-04-25T07:44:23.119Z</time></trkpt><trkpt lat="40.9246333" lon="14.5881533"><ele>363.0</ele><time>2026-04-25T07:44:24.119Z</time></trkpt><trkpt lat="40.9245767" lon="14.588215"><ele>363.0</ele><time>2026-04-25T07:44:25.119Z</time></trkpt><trkpt lat="40.92452" lon="14.588255"><ele>363.0</ele><time>2026-04-25T07:44:26.119Z</time></trkpt><trkpt lat="40.9244533" lon="14.5882933"><ele>363.0</ele><time>2026-04-25T07:44:27.119Z</time></trkpt><trkpt lat="40.924375" lon="14.5883183"><ele>363.0</ele><time>2026-04-25T07:44:28.119Z</time></trkpt><trkpt lat="40.9242767" lon="14.5883383"><ele>363.0</ele><time>2026-04-25T07:44:29.119Z</time></trkpt><trkpt lat="40.924185" lon="14.5883683"><ele>363.0</ele><time>2026-04-25T07:44:30.119Z</time></trkpt><trkpt lat="40.9240883" lon="14.5884083"><ele>363.0</ele><time>2026-04-25T07:44:31.119Z</time></trkpt><trkpt lat="40.9239967" lon="14.5884533"><ele>363.0</ele><time>2026-04-25T07:44:32.119Z</time></trkpt><trkpt lat="40.9239083" lon="14.5885067"><ele>362.79999999999995</ele><time>2026-04-25T07:44:33.12Z</time></trkpt><trkpt lat="40.9238283" lon="14.588575"><ele>362.6</ele><time>2026-04-25T07:44:34.119Z</time></trkpt><trkpt lat="40.9237583" lon="14.5886533"><ele>362.4</ele><time>2026-04-25T07:44:35.119Z</time></trkpt><trkpt lat="40.9236917" lon="14.5887483"><ele>362.20000000000005</ele><time>2026-04-25T07:44:36.119Z</time></trkpt><trkpt lat="40.923635" lon="14.5888583"><ele>362.0</ele><time>2026-04-25T07:44:37.119Z</time></trkpt><trkpt lat="40.923595" lon="14.58898"><ele>363.1666666666667</ele><time>2026-04-25T07:44:38.119Z</time></trkpt><trkpt lat="40.9235567" lon="14.5891017"><ele>364.33333333333337</ele><time>2026-04-25T07:44:39.119Z</time></trkpt><trkpt lat="40.9235083" lon="14.589215"><ele>365.5</ele><time>2026-04-25T07:44:40.119Z</time></trkpt><trkpt lat="40.9234567" lon="14.589325"><ele>366.6666666666667</ele><time>2026-04-25T07:44:41.119Z</time></trkpt><trkpt lat="40.9234183" lon="14.5894117"><ele>367.8333333333333</ele><time>2026-04-25T07:44:42.119Z</time></trkpt><trkpt lat="40.9233767" lon="14.5894883"><ele>369.0</ele><time>2026-04-25T07:44:43.119Z</time></trkpt><trkpt lat="40.92329" lon="14.5895933"><ele>371.2</ele><time>2026-04-25T07:44:45.119Z</time></trkpt><trkpt lat="40.9231967" lon="14.5896967"><ele>373.4</ele><time>2026-04-25T07:44:47.119Z</time></trkpt><trkpt lat="40.9231083" lon="14.5897817"><ele>375.6</ele><time>2026-04-25T07:44:49.12Z</time></trkpt><trkpt lat="40.92303" lon="14.5898433"><ele>377.8</ele><time>2026-04-25T07:44:50.119Z</time></trkpt><trkpt lat="40.92295" lon="14.5899083"><ele>380.0</ele><time>2026-04-25T07:44:51.119Z</time></trkpt><trkpt lat="40.9228717" lon="14.5899633"><ele>380.0</ele><time>2026-04-25T07:44:52.119Z</time></trkpt><trkpt lat="40.9227983" lon="14.5900183"><ele>380.0</ele><time>2026-04-25T07:44:53.119Z</time></trkpt><trkpt lat="40.9227267" lon="14.5900683"><ele>380.0</ele><time>2026-04-25T07:44:54.119Z</time></trkpt><trkpt lat="40.9226583" lon="14.590125"><ele>380.0</ele><time>2026-04-25T07:44:55.119Z</time></trkpt><trkpt lat="40.9225933" lon="14.590175"><ele>380.0</ele><time>2026-04-25T07:44:56.119Z</time></trkpt><trkpt lat="40.9225283" lon="14.5902217"><ele>380.0</ele><time>2026-04-25T07:44:57.119Z</time></trkpt><trkpt lat="40.92246" lon="14.59026"><ele>380.2</ele><time>2026-04-25T07:44:58.119Z</time></trkpt><trkpt lat="40.922395" lon="14.5902883"><ele>380.4</ele><time>2026-04-25T07:44:59.119Z</time></trkpt><trkpt lat="40.9223283" lon="14.59032"><ele>380.6</ele><time>2026-04-25T07:45:00.119Z</time></trkpt><trkpt lat="40.9222417" lon="14.5904067"><ele>380.8</ele><time>2026-04-25T07:45:02.119Z</time></trkpt><trkpt lat="40.9222033" lon="14.59057"><ele>381.0</ele><time>2026-04-25T07:45:04.119Z</time></trkpt><trkpt lat="40.9221983" lon="14.5906783"><ele>382.0</ele><time>2026-04-25T07:45:05.119Z</time></trkpt><trkpt lat="40.9222033" lon="14.5907983"><ele>383.0</ele><time>2026-04-25T07:45:06.119Z</time></trkpt><trkpt lat="40.9222167" lon="14.59093"><ele>384.0</ele><time>2026-04-25T07:45:07.119Z</time></trkpt><trkpt lat="40.9222383" lon="14.5910583"><ele>385.0</ele><time>2026-04-25T07:45:08.119Z</time></trkpt><trkpt lat="40.92226" lon="14.5912017"><ele>386.0</ele><time>2026-04-25T07:45:09.119Z</time></trkpt><trkpt lat="40.9222767" lon="14.5913567"><ele>388.0</ele><time>2026-04-25T07:45:10.119Z</time></trkpt><trkpt lat="40.9222833" lon="14.5915233"><ele>390.0</ele><time>2026-04-25T07:45:11.119Z</time></trkpt><trkpt lat="40.9222933" lon="14.591685"><ele>392.0</ele><time>2026-04-25T07:45:12.119Z</time></trkpt><trkpt lat="40.9222983" lon="14.5918467"><ele>394.0</ele><time>2026-04-25T07:45:13.119Z</time></trkpt><trkpt lat="40.9223" lon="14.592005"><ele>395.4</ele><time>2026-04-25T07:45:14.12Z</time></trkpt><trkpt lat="40.9223" lon="14.5921517"><ele>396.79999999999995</ele><time>2026-04-25T07:45:15.119Z</time></trkpt><trkpt lat="40.9223033" lon="14.5922933"><ele>398.20000000000005</ele><time>2026-04-25T07:45:16.119Z</time></trkpt><trkpt lat="40.922305" lon="14.5924383"><ele>399.6</ele><time>2026-04-25T07:45:17.119Z</time></trkpt><trkpt lat="40.922305" lon="14.5925817"><ele>401.0</ele><time>2026-04-25T07:45:18.119Z</time></trkpt><trkpt lat="40.9223083" lon="14.5926967"><ele>400.99999999999994</ele><time>2026-04-25T07:45:19.119Z</time></trkpt><trkpt lat="40.922305" lon="14.5928083"><ele>401.0</ele><time>2026-04-25T07:45:20.119Z</time></trkpt><trkpt lat="40.92231" lon="14.59292"><ele>401.0</ele><time>2026-04-25T07:45:21.119Z</time></trkpt><trkpt lat="40.9223117" lon="14.5930383"><ele>401.0</ele><time>2026-04-25T07:45:22.119Z</time></trkpt><trkpt lat="40.922315" lon="14.593155"><ele>400.99999999999994</ele><time>2026-04-25T07:45:23.119Z</time></trkpt><trkpt lat="40.9223183" lon="14.5932833"><ele>401.0</ele><time>2026-04-25T07:45:24.119Z</time></trkpt><trkpt lat="40.9223067" lon="14.5934117"><ele>401.99999999999994</ele><time>2026-04-25T07:45:25.119Z</time></trkpt><trkpt lat="40.9222967" lon="14.5935317"><ele>403.0</ele><time>2026-04-25T07:45:26.119Z</time></trkpt><trkpt lat="40.9222883" lon="14.59363"><ele>404.0</ele><time>2026-04-25T07:45:27.119Z</time></trkpt><trkpt lat="40.9222767" lon="14.5937283"><ele>405.0</ele><time>2026-04-25T07:45:28.119Z</time></trkpt><trkpt lat="40.9222617" lon="14.593815"><ele>405.99999999999994</ele><time>2026-04-25T07:45:29.119Z</time></trkpt><trkpt lat="40.9222233" lon="14.5939583"><ele>407.0</ele><time>2026-04-25T07:45:31.119Z</time></trkpt><trkpt lat="40.9221267" lon="14.5940733"><ele>407.40000000000003</ele><time>2026-04-25T07:45:33.119Z</time></trkpt><trkpt lat="40.9220483" lon="14.5941217"><ele>407.8</ele><time>2026-04-25T07:45:34.119Z</time></trkpt><trkpt lat="40.9219567" lon="14.5941667"><ele>408.2</ele><time>2026-04-25T07:45:35.12Z</time></trkpt><trkpt lat="40.9218467" lon="14.5942183"><ele>408.6</ele><time>2026-04-25T07:45:36.119Z</time></trkpt><trkpt lat="40.9217267" lon="14.5942617"><ele>409.0</ele><time>2026-04-25T07:45:37.119Z</time></trkpt><trkpt lat="40.9215983" lon="14.5943083"><ele>409.0</ele><time>2026-04-25T07:45:38.119Z</time></trkpt><trkpt lat="40.9214767" lon="14.5943567"><ele>409.0</ele><time>2026-04-25T07:45:39.119Z</time></trkpt><trkpt lat="40.9213733" lon="14.5944083"><ele>409.0</ele><time>2026-04-25T07:45:40.119Z</time></trkpt><trkpt lat="40.921285" lon="14.5944683"><ele>409.0</ele><time>2026-04-25T07:45:41.119Z</time></trkpt><trkpt lat="40.9212" lon="14.5945533"><ele>409.0</ele><time>2026-04-25T07:45:42.119Z</time></trkpt><trkpt lat="40.92113" lon="14.5946767"><ele>410.25</ele><time>2026-04-25T07:45:43.119Z</time></trkpt><trkpt lat="40.92106" lon="14.5948367"><ele>411.5</ele><time>2026-04-25T07:45:44.119Z</time></trkpt><trkpt lat="40.921" lon="14.59501"><ele>412.75</ele><time>2026-04-25T07:45:45.119Z</time></trkpt><trkpt lat="40.9209467" lon="14.5952017"><ele>414.0</ele><time>2026-04-25T07:45:46.119Z</time></trkpt><trkpt lat="40.9208983" lon="14.5953917"><ele>414.0</ele><time>2026-04-25T07:45:47.119Z</time></trkpt><trkpt lat="40.9208483" lon="14.5955633"><ele>414.0</ele><time>2026-04-25T07:45:48.119Z</time></trkpt><trkpt lat="40.92081" lon="14.5957333"><ele>414.0</ele><time>2026-04-25T07:45:49.12Z</time></trkpt><trkpt lat="40.9207817" lon="14.5958867"><ele>414.0</ele><time>2026-04-25T07:45:50.119Z</time></trkpt><trkpt lat="40.92076" lon="14.5960317"><ele>414.0</ele><time>2026-04-25T07:45:51.119Z</time></trkpt><trkpt lat="40.9207433" lon="14.59615"><ele>414.0</ele><time>2026-04-25T07:45:52.119Z</time></trkpt><trkpt lat="40.9207083" lon="14.5962733"><ele>414.0</ele><time>2026-04-25T07:45:53.119Z</time></trkpt><trkpt lat="40.9206633" lon="14.59641"><ele>414.0</ele><time>2026-04-25T07:45:54.119Z</time></trkpt><trkpt lat="40.9206" lon="14.5965533"><ele>414.0</ele><time>2026-04-25T07:45:55.119Z</time></trkpt><trkpt lat="40.9205183" lon="14.596695"><ele>415.0</ele><time>2026-04-25T07:45:56.119Z</time></trkpt><trkpt lat="40.9204283" lon="14.59683"><ele>416.0</ele><time>2026-04-25T07:45:57.119Z</time></trkpt><trkpt lat="40.92033" lon="14.5969833"><ele>417.0</ele><time>2026-04-25T07:45:58.119Z</time></trkpt><trkpt lat="40.920235" lon="14.5971467"><ele>418.0</ele><time>2026-04-25T07:45:59.119Z</time></trkpt><trkpt lat="40.92013" lon="14.5973133"><ele>418.25</ele><time>2026-04-25T07:46:00.119Z</time></trkpt><trkpt lat="40.9200367" lon="14.597485"><ele>418.5</ele><time>2026-04-25T07:46:01.119Z</time></trkpt><trkpt lat="40.9199483" lon="14.5976367"><ele>418.75</ele><time>2026-04-25T07:46:02.119Z</time></trkpt><trkpt lat="40.9198667" lon="14.5977783"><ele>419.0</ele><time>2026-04-25T07:46:03.119Z</time></trkpt><trkpt lat="40.9197917" lon="14.5979233"><ele>420.5</ele><time>2026-04-25T07:46:04.119Z</time></trkpt><trkpt lat="40.9197267" lon="14.598065"><ele>422.0</ele><time>2026-04-25T07:46:05.119Z</time></trkpt><trkpt lat="40.91967" lon="14.5981967"><ele>423.5</ele><time>2026-04-25T07:46:06.119Z</time></trkpt><trkpt lat="40.9196267" lon="14.59835"><ele>425.0</ele><time>2026-04-25T07:46:07.119Z</time></trkpt><trkpt lat="40.9195883" lon="14.5984983"><ele>425.0</ele><time>2026-04-25T07:46:08.119Z</time></trkpt><trkpt lat="40.9195367" lon="14.5986517"><ele>425.0</ele><time>2026-04-25T07:46:09.119Z</time></trkpt><trkpt lat="40.9194817" lon="14.5988117"><ele>425.0</ele><time>2026-04-25T07:46:10.119Z</time></trkpt><trkpt lat="40.9194283" lon="14.5989683"><ele>425.0</ele><time>2026-04-25T07:46:11.119Z</time></trkpt><trkpt lat="40.91938" lon="14.5991233"><ele>426.5</ele><time>2026-04-25T07:46:12.119Z</time></trkpt><trkpt lat="40.9193333" lon="14.59928"><ele>428.0</ele><time>2026-04-25T07:46:13.119Z</time></trkpt><trkpt lat="40.9192833" lon="14.5994433"><ele>429.5</ele><time>2026-04-25T07:46:14.12Z</time></trkpt><trkpt lat="40.9192317" lon="14.5996117"><ele>431.0</ele><time>2026-04-25T07:46:15.119Z</time></trkpt><trkpt lat="40.91917" lon="14.59979"><ele>431.0</ele><time>2026-04-25T07:46:16.119Z</time></trkpt><trkpt lat="40.9191033" lon="14.5999867"><ele>431.0</ele><time>2026-04-25T07:46:17.119Z</time></trkpt><trkpt lat="40.9190317" lon="14.6001933"><ele>431.0</ele><time>2026-04-25T07:46:18.119Z</time></trkpt><trkpt lat="40.9189633" lon="14.6003933"><ele>432.3333333333333</ele><time>2026-04-25T07:46:19.119Z</time></trkpt><trkpt lat="40.9188967" lon="14.6005933"><ele>433.66666666666663</ele><time>2026-04-25T07:46:20.119Z</time></trkpt><trkpt lat="40.91883" lon="14.600785"><ele>435.0</ele><time>2026-04-25T07:46:21.119Z</time></trkpt><trkpt lat="40.9187617" lon="14.6009717"><ele>435.0</ele><time>2026-04-25T07:46:22.119Z</time></trkpt><trkpt lat="40.9186917" lon="14.6011483"><ele>435.0</ele><time>2026-04-25T07:46:23.119Z</time></trkpt><trkpt lat="40.9186233" lon="14.601315"><ele>435.0</ele><time>2026-04-25T07:46:24.119Z</time></trkpt><trkpt lat="40.91856" lon="14.601455"><ele>435.0</ele><time>2026-04-25T07:46:25.119Z</time></trkpt><trkpt lat="40.9185083" lon="14.601575"><ele>435.0</ele><time>2026-04-25T07:46:26.119Z</time></trkpt><trkpt lat="40.918455" lon="14.601695"><ele>435.0</ele><time>2026-04-25T07:46:27.119Z</time></trkpt><trkpt lat="40.9183917" lon="14.6018167"><ele>435.0</ele><time>2026-04-25T07:46:28.119Z</time></trkpt><trkpt lat="40.9183233" lon="14.6019517"><ele>435.0</ele><time>2026-04-25T07:46:29.119Z</time></trkpt><trkpt lat="40.9182583" lon="14.6021017"><ele>436.66666666666663</ele><time>2026-04-25T07:46:30.119Z</time></trkpt><trkpt lat="40.9181833" lon="14.6022783"><ele>438.3333333333333</ele><time>2026-04-25T07:46:31.119Z</time></trkpt><trkpt lat="40.918095" lon="14.602465"><ele>440.0</ele><time>2026-04-25T07:46:32.119Z</time></trkpt><trkpt lat="40.9180033" lon="14.60266"><ele>441.3333333333333</ele><time>2026-04-25T07:46:33.119Z</time></trkpt><trkpt lat="40.9179117" lon="14.60286"><ele>442.66666666666663</ele><time>2026-04-25T07:46:34.119Z</time></trkpt><trkpt lat="40.917825" lon="14.6030617"><ele>444.0</ele><time>2026-04-25T07:46:35.119Z</time></trkpt><trkpt lat="40.9177467" lon="14.6032467"><ele>444.0</ele><time>2026-04-25T07:46:36.119Z</time></trkpt><trkpt lat="40.9176783" lon="14.60343"><ele>444.0</ele><time>2026-04-25T07:46:37.119Z</time></trkpt><trkpt lat="40.9176083" lon="14.6036033"><ele>444.0</ele><time>2026-04-25T07:46:38.119Z</time></trkpt><trkpt lat="40.9175367" lon="14.6037567"><ele>444.0</ele><time>2026-04-25T07:46:39.119Z</time></trkpt><trkpt lat="40.9174717" lon="14.6038967"><ele>441.5</ele><time>2026-04-25T07:46:40.119Z</time></trkpt><trkpt lat="40.9174117" lon="14.6040367"><ele>439.0</ele><time>2026-04-25T07:46:41.12Z</time></trkpt><trkpt lat="40.917345" lon="14.6041883"><ele>436.5</ele><time>2026-04-25T07:46:42.119Z</time></trkpt><trkpt lat="40.917275" lon="14.60434"><ele>434.0</ele><time>2026-04-25T07:46:43.119Z</time></trkpt><trkpt lat="40.9172033" lon="14.60448"><ele>433.5</ele><time>2026-04-25T07:46:44.119Z</time></trkpt><trkpt lat="40.9171317" lon="14.6046267"><ele>433.0</ele><time>2026-04-25T07:46:45.119Z</time></trkpt><trkpt lat="40.9170667" lon="14.604765"><ele>432.5</ele><time>2026-04-25T07:46:46.119Z</time></trkpt><trkpt lat="40.9170017" lon="14.604895"><ele>432.0</ele><time>2026-04-25T07:46:47.119Z</time></trkpt><trkpt lat="40.9169367" lon="14.60502"><ele>432.0</ele><time>2026-04-25T07:46:48.119Z</time></trkpt><trkpt lat="40.916875" lon="14.60514"><ele>432.00000000000006</ele><time>2026-04-25T07:46:49.119Z</time></trkpt><trkpt lat="40.916815" lon="14.605255"><ele>432.00000000000006</ele><time>2026-04-25T07:46:50.119Z</time></trkpt><trkpt lat="40.916745" lon="14.6053567"><ele>432.0</ele><time>2026-04-25T07:46:51.119Z</time></trkpt><trkpt lat="40.9166617" lon="14.6054667"><ele>432.0</ele><time>2026-04-25T07:46:52.119Z</time></trkpt><trkpt lat="40.9165683" lon="14.6055683"><ele>429.40000000000003</ele><time>2026-04-25T07:46:53.119Z</time></trkpt><trkpt lat="40.916465" lon="14.6056617"><ele>426.80000000000007</ele><time>2026-04-25T07:46:54.119Z</time></trkpt><trkpt lat="40.91637" lon="14.60574"><ele>424.2</ele><time>2026-04-25T07:46:55.119Z</time></trkpt><trkpt lat="40.9162833" lon="14.6058067"><ele>421.6</ele><time>2026-04-25T07:46:56.119Z</time></trkpt><trkpt lat="40.9162183" lon="14.6058667"><ele>419.0</ele><time>2026-04-25T07:46:57.119Z</time></trkpt><trkpt lat="40.9161767" lon="14.6059333"><ele>419.0</ele><time>2026-04-25T07:46:58.119Z</time></trkpt><trkpt lat="40.9161483" lon="14.606115"><ele>419.0</ele><time>2026-04-25T07:47:00.119Z</time></trkpt><trkpt lat="40.91615" lon="14.6062383"><ele>419.0</ele><time>2026-04-25T07:47:01.119Z</time></trkpt><trkpt lat="40.916165" lon="14.6063917"><ele>419.0</ele><time>2026-04-25T07:47:02.119Z</time></trkpt><trkpt lat="40.9161783" lon="14.6065667"><ele>417.25</ele><time>2026-04-25T07:47:03.119Z</time></trkpt><trkpt lat="40.916185" lon="14.60675"><ele>415.5</ele><time>2026-04-25T07:47:04.119Z</time></trkpt><trkpt lat="40.9161817" lon="14.6069233"><ele>413.75</ele><time>2026-04-25T07:47:05.119Z</time></trkpt><trkpt lat="40.9161783" lon="14.6070883"><ele>412.0</ele><time>2026-04-25T07:47:06.119Z</time></trkpt><trkpt lat="40.916175" lon="14.607255"><ele>410.75</ele><time>2026-04-25T07:47:07.119Z</time></trkpt><trkpt lat="40.9161683" lon="14.6074267"><ele>409.5</ele><time>2026-04-25T07:47:08.119Z</time></trkpt><trkpt lat="40.9161533" lon="14.6076067"><ele>408.25</ele><time>2026-04-25T07:47:09.119Z</time></trkpt><trkpt lat="40.916135" lon="14.6077917"><ele>407.0</ele><time>2026-04-25T07:47:10.119Z</time></trkpt><trkpt lat="40.916115" lon="14.6079733"><ele>406.0</ele><time>2026-04-25T07:47:11.119Z</time></trkpt><trkpt lat="40.916085" lon="14.6081617"><ele>405.0</ele><time>2026-04-25T07:47:12.119Z</time></trkpt><trkpt lat="40.9160567" lon="14.6083433"><ele>404.0</ele><time>2026-04-25T07:47:13.119Z</time></trkpt><trkpt lat="40.9160383" lon="14.6085267"><ele>403.0</ele><time>2026-04-25T07:47:14.119Z</time></trkpt><trkpt lat="40.9160267" lon="14.60872"><ele>402.25</ele><time>2026-04-25T07:47:15.119Z</time></trkpt><trkpt lat="40.9160117" lon="14.6089117"><ele>401.5</ele><time>2026-04-25T07:47:16.12Z</time></trkpt><trkpt lat="40.9159967" lon="14.609095"><ele>400.75</ele><time>2026-04-25T07:47:17.119Z</time></trkpt><trkpt lat="40.9159733" lon="14.609285"><ele>400.0</ele><time>2026-04-25T07:47:18.119Z</time></trkpt><trkpt lat="40.9159483" lon="14.6094717"><ele>398.6666666666667</ele><time>2026-04-25T07:47:19.119Z</time></trkpt><trkpt lat="40.9159167" lon="14.6096733"><ele>397.33333333333337</ele><time>2026-04-25T07:47:20.119Z</time></trkpt><trkpt lat="40.9158867" lon="14.60987"><ele>396.0</ele><time>2026-04-25T07:47:21.12Z</time></trkpt><trkpt lat="40.9158567" lon="14.6100767"><ele>398.33333333333337</ele><time>2026-04-25T07:47:22.119Z</time></trkpt><trkpt lat="40.9158183" lon="14.6102833"><ele>400.6666666666667</ele><time>2026-04-25T07:47:23.119Z</time></trkpt><trkpt lat="40.9157883" lon="14.6104833"><ele>403.0</ele><time>2026-04-25T07:47:24.119Z</time></trkpt><trkpt lat="40.915765" lon="14.6106783"><ele>403.0</ele><time>2026-04-25T07:47:25.119Z</time></trkpt><trkpt lat="40.9157367" lon="14.61086"><ele>403.0</ele><time>2026-04-25T07:47:26.119Z</time></trkpt><trkpt lat="40.9157033" lon="14.6110333"><ele>403.0</ele><time>2026-04-25T07:47:27.119Z</time></trkpt><trkpt lat="40.9156683" lon="14.6111967"><ele>403.0</ele><time>2026-04-25T07:47:28.119Z</time></trkpt><trkpt lat="40.915625" lon="14.6113583"><ele>400.6666666666667</ele><time>2026-04-25T07:47:29.119Z</time></trkpt><trkpt lat="40.9155683" lon="14.6115317"><ele>398.33333333333337</ele><time>2026-04-25T07:47:30.119Z</time></trkpt><trkpt lat="40.9155183" lon="14.6117217"><ele>396.0</ele><time>2026-04-25T07:47:31.119Z</time></trkpt><trkpt lat="40.91547" lon="14.6119167"><ele>393.66666666666663</ele><time>2026-04-25T07:47:32.119Z</time></trkpt><trkpt lat="40.915415" lon="14.6121233"><ele>391.3333333333333</ele><time>2026-04-25T07:47:33.119Z</time></trkpt><trkpt lat="40.9153633" lon="14.6123417"><ele>389.0</ele><time>2026-04-25T07:47:34.119Z</time></trkpt><trkpt lat="40.91531" lon="14.6125583"><ele>389.0</ele><time>2026-04-25T07:47:35.119Z</time></trkpt><trkpt lat="40.9152617" lon="14.6127667"><ele>389.0</ele><time>2026-04-25T07:47:36.119Z</time></trkpt><trkpt lat="40.9152" lon="14.6129767"><ele>389.0</ele><time>2026-04-25T07:47:37.119Z</time></trkpt><trkpt lat="40.9151417" lon="14.6131767"><ele>386.66666666666663</ele><time>2026-04-25T07:47:38.119Z</time></trkpt><trkpt lat="40.9150817" lon="14.6133783"><ele>384.3333333333333</ele><time>2026-04-25T07:47:39.119Z</time></trkpt><trkpt lat="40.9150217" lon="14.61358"><ele>382.0</ele><time>2026-04-25T07:47:40.119Z</time></trkpt><trkpt lat="40.9149583" lon="14.6137767"><ele>387.0</ele><time>2026-04-25T07:47:41.119Z</time></trkpt><trkpt lat="40.914895" lon="14.613975"><ele>392.0</ele><time>2026-04-25T07:47:42.119Z</time></trkpt><trkpt lat="40.91482" lon="14.6141733"><ele>397.0</ele><time>2026-04-25T07:47:43.12Z</time></trkpt><trkpt lat="40.9147517" lon="14.6143717"><ele>395.33333333333337</ele><time>2026-04-25T07:47:44.119Z</time></trkpt><trkpt lat="40.9146817" lon="14.61456"><ele>393.66666666666663</ele><time>2026-04-25T07:47:45.119Z</time></trkpt><trkpt lat="40.91461" lon="14.61475"><ele>392.0</ele><time>2026-04-25T07:47:46.119Z</time></trkpt><trkpt lat="40.91454" lon="14.6149367"><ele>392.0</ele><time>2026-04-25T07:47:47.119Z</time></trkpt><trkpt lat="40.914475" lon="14.6151133"><ele>392.0</ele><time>2026-04-25T07:47:48.119Z</time></trkpt><trkpt lat="40.9144183" lon="14.6152783"><ele>392.0</ele><time>2026-04-25T07:47:49.119Z</time></trkpt><trkpt lat="40.9143633" lon="14.6154433"><ele>392.0</ele><time>2026-04-25T07:47:50.119Z</time></trkpt><trkpt lat="40.9143133" lon="14.6155983"><ele>390.75</ele><time>2026-04-25T07:47:51.119Z</time></trkpt><trkpt lat="40.9142767" lon="14.61575"><ele>389.5</ele><time>2026-04-25T07:47:52.119Z</time></trkpt><trkpt lat="40.9142467" lon="14.6159"><ele>388.25</ele><time>2026-04-25T07:47:53.119Z</time></trkpt><trkpt lat="40.914215" lon="14.616055"><ele>387.0</ele><time>2026-04-25T07:47:54.119Z</time></trkpt><trkpt lat="40.9141783" lon="14.6161917"><ele>389.3333333333333</ele><time>2026-04-25T07:47:55.119Z</time></trkpt><trkpt lat="40.9141383" lon="14.6163083"><ele>391.66666666666663</ele><time>2026-04-25T07:47:56.119Z</time></trkpt><trkpt lat="40.9140883" lon="14.6164083"><ele>394.0</ele><time>2026-04-25T07:47:57.119Z</time></trkpt><trkpt lat="40.9140317" lon="14.6164833"><ele>396.3333333333333</ele><time>2026-04-25T07:47:58.119Z</time></trkpt><trkpt lat="40.913975" lon="14.61654"><ele>398.66666666666663</ele><time>2026-04-25T07:47:59.119Z</time></trkpt><trkpt lat="40.9139233" lon="14.6165933"><ele>401.0</ele><time>2026-04-25T07:48:00.119Z</time></trkpt><trkpt lat="40.91389" lon="14.6166767"><ele>401.0</ele><time>2026-04-25T07:48:01.119Z</time></trkpt><trkpt lat="40.91388" lon="14.6167917"><ele>401.0</ele><time>2026-04-25T07:48:02.119Z</time></trkpt><trkpt lat="40.91387" lon="14.6169283"><ele>401.0</ele><time>2026-04-25T07:48:03.119Z</time></trkpt><trkpt lat="40.9138533" lon="14.6170633"><ele>401.0</ele><time>2026-04-25T07:48:04.119Z</time></trkpt><trkpt lat="40.913825" lon="14.6172217"><ele>401.0</ele><time>2026-04-25T07:48:05.119Z</time></trkpt><trkpt lat="40.913775" lon="14.61738"><ele>401.25</ele><time>2026-04-25T07:48:06.119Z</time></trkpt><trkpt lat="40.9137167" lon="14.6175367"><ele>401.5</ele><time>2026-04-25T07:48:07.119Z</time></trkpt><trkpt lat="40.9136433" lon="14.617695"><ele>401.75</ele><time>2026-04-25T07:48:08.119Z</time></trkpt><trkpt lat="40.9135667" lon="14.6178483"><ele>402.0</ele><time>2026-04-25T07:48:09.119Z</time></trkpt><trkpt lat="40.913485" lon="14.617995"><ele>407.33333333333337</ele><time>2026-04-25T07:48:10.119Z</time></trkpt><trkpt lat="40.9133933" lon="14.6181433"><ele>412.6666666666667</ele><time>2026-04-25T07:48:11.12Z</time></trkpt><trkpt lat="40.9132917" lon="14.618295"><ele>418.0</ele><time>2026-04-25T07:48:12.119Z</time></trkpt><trkpt lat="40.9131817" lon="14.6184567"><ele>418.0</ele><time>2026-04-25T07:48:13.119Z</time></trkpt><trkpt lat="40.9130667" lon="14.6186233"><ele>418.0</ele><time>2026-04-25T07:48:14.119Z</time></trkpt><trkpt lat="40.9129583" lon="14.618775"><ele>418.0</ele><time>2026-04-25T07:48:15.119Z</time></trkpt><trkpt lat="40.912865" lon="14.618915"><ele>417.59999999999997</ele><time>2026-04-25T07:48:16.119Z</time></trkpt><trkpt lat="40.9127933" lon="14.6190383"><ele>417.2</ele><time>2026-04-25T07:48:17.119Z</time></trkpt><trkpt lat="40.91274" lon="14.6191433"><ele>416.8</ele><time>2026-04-25T07:48:18.119Z</time></trkpt><trkpt lat="40.9126767" lon="14.6192367"><ele>416.4</ele><time>2026-04-25T07:48:19.119Z</time></trkpt><trkpt lat="40.9126033" lon="14.6193233"><ele>416.0</ele><time>2026-04-25T07:48:20.119Z</time></trkpt><trkpt lat="40.9125033" lon="14.6193967"><ele>418.5</ele><time>2026-04-25T07:48:21.119Z</time></trkpt><trkpt lat="40.9123833" lon="14.6194867"><ele>421.0</ele><time>2026-04-25T07:48:22.119Z</time></trkpt><trkpt lat="40.9122717" lon="14.6195733"><ele>423.5</ele><time>2026-04-25T07:48:23.119Z</time></trkpt><trkpt lat="40.9121717" lon="14.6196433"><ele>426.0</ele><time>2026-04-25T07:48:24.119Z</time></trkpt><trkpt lat="40.91208" lon="14.6196833"><ele>426.0</ele><time>2026-04-25T07:48:25.119Z</time></trkpt><trkpt lat="40.9119867" lon="14.6197017"><ele>426.0</ele><time>2026-04-25T07:48:26.12Z</time></trkpt><trkpt lat="40.9118833" lon="14.6196983"><ele>426.0</ele><time>2026-04-25T07:48:27.119Z</time></trkpt><trkpt lat="40.9117833" lon="14.6196833"><ele>426.0</ele><time>2026-04-25T07:48:28.119Z</time></trkpt><trkpt lat="40.9116883" lon="14.61967"><ele>426.0</ele><time>2026-04-25T07:48:29.119Z</time></trkpt><trkpt lat="40.911615" lon="14.6196733"><ele>428.75</ele><time>2026-04-25T07:48:30.119Z</time></trkpt><trkpt lat="40.9115117" lon="14.6197667"><ele>431.5</ele><time>2026-04-25T07:48:32.119Z</time></trkpt><trkpt lat="40.9114633" lon="14.619875"><ele>434.25</ele><time>2026-04-25T07:48:33.119Z</time></trkpt><trkpt lat="40.9113983" lon="14.62001"><ele>437.0</ele><time>2026-04-25T07:48:34.119Z</time></trkpt><trkpt lat="40.9113267" lon="14.6201517"><ele>437.0</ele><time>2026-04-25T07:48:35.119Z</time></trkpt><trkpt lat="40.9112467" lon="14.6202967"><ele>437.0</ele><time>2026-04-25T07:48:36.119Z</time></trkpt><trkpt lat="40.9111683" lon="14.6204317"><ele>437.0</ele><time>2026-04-25T07:48:37.119Z</time></trkpt><trkpt lat="40.9111" lon="14.6205433"><ele>437.0</ele><time>2026-04-25T07:48:38.119Z</time></trkpt><trkpt lat="40.9110467" lon="14.6206317"><ele>437.8333333333333</ele><time>2026-04-25T07:48:39.119Z</time></trkpt><trkpt lat="40.9110033" lon="14.620705"><ele>438.66666666666663</ele><time>2026-04-25T07:48:40.12Z</time></trkpt><trkpt lat="40.91099" lon="14.6207917"><ele>439.5</ele><time>2026-04-25T07:48:41.119Z</time></trkpt><trkpt lat="40.9109933" lon="14.620875"><ele>440.33333333333337</ele><time>2026-04-25T07:48:42.119Z</time></trkpt><trkpt lat="40.9110333" lon="14.6209733"><ele>441.1666666666667</ele><time>2026-04-25T07:48:43.119Z</time></trkpt><trkpt lat="40.91109" lon="14.6210917"><ele>442.0</ele><time>2026-04-25T07:48:44.119Z</time></trkpt><trkpt lat="40.9111417" lon="14.621225"><ele>443.8</ele><time>2026-04-25T07:48:45.119Z</time></trkpt><trkpt lat="40.9111783" lon="14.62137"><ele>445.6</ele><time>2026-04-25T07:48:46.119Z</time></trkpt><trkpt lat="40.9111983" lon="14.62152"><ele>447.40000000000003</ele><time>2026-04-25T07:48:47.119Z</time></trkpt><trkpt lat="40.9111967" lon="14.6216667"><ele>449.20000000000005</ele><time>2026-04-25T07:48:48.119Z</time></trkpt><trkpt lat="40.9111833" lon="14.621805"><ele>451.0</ele><time>2026-04-25T07:48:49.119Z</time></trkpt><trkpt lat="40.911165" lon="14.6219567"><ele>450.75</ele><time>2026-04-25T07:48:50.119Z</time></trkpt><trkpt lat="40.9111433" lon="14.6221233"><ele>450.5</ele><time>2026-04-25T07:48:51.119Z</time></trkpt><trkpt lat="40.911115" lon="14.6223117"><ele>450.25</ele><time>2026-04-25T07:48:52.12Z</time></trkpt><trkpt lat="40.911075" lon="14.6225183"><ele>450.0</ele><time>2026-04-25T07:48:53.121Z</time></trkpt><trkpt lat="40.9110267" lon="14.622725"><ele>448.0</ele><time>2026-04-25T07:48:54.12Z</time></trkpt><trkpt lat="40.91098" lon="14.622925"><ele>446.0</ele><time>2026-04-25T07:48:55.12Z</time></trkpt><trkpt lat="40.9109283" lon="14.6231167"><ele>444.0</ele><time>2026-04-25T07:48:56.12Z</time></trkpt><trkpt lat="40.9108833" lon="14.6233"><ele>443.5</ele><time>2026-04-25T07:48:57.12Z</time></trkpt><trkpt lat="40.9108333" lon="14.623475"><ele>443.0</ele><time>2026-04-25T07:48:58.12Z</time></trkpt><trkpt lat="40.9107867" lon="14.6236467"><ele>442.5</ele><time>2026-04-25T07:48:59.12Z</time></trkpt><trkpt lat="40.91074" lon="14.6237917"><ele>442.0</ele><time>2026-04-25T07:49:00.12Z</time></trkpt><trkpt lat="40.9106933" lon="14.6239167"><ele>439.5</ele><time>2026-04-25T07:49:01.12Z</time></trkpt><trkpt lat="40.9106283" lon="14.624015"><ele>437.0</ele><time>2026-04-25T07:49:02.12Z</time></trkpt><trkpt lat="40.91054" lon="14.624115"><ele>434.5</ele><time>2026-04-25T07:49:03.12Z</time></trkpt><trkpt lat="40.91043" lon="14.62421"><ele>432.0</ele><time>2026-04-25T07:49:04.12Z</time></trkpt><trkpt lat="40.9103117" lon="14.6243083"><ele>432.0</ele><time>2026-04-25T07:49:05.12Z</time></trkpt><trkpt lat="40.9101867" lon="14.6244217"><ele>432.0</ele><time>2026-04-25T07:49:06.121Z</time></trkpt><trkpt lat="40.9100617" lon="14.6245483"><ele>432.0</ele><time>2026-04-25T07:49:07.12Z</time></trkpt><trkpt lat="40.90994" lon="14.6246867"><ele>432.66666666666663</ele><time>2026-04-25T07:49:08.12Z</time></trkpt><trkpt lat="40.9098267" lon="14.6248417"><ele>433.3333333333333</ele><time>2026-04-25T07:49:09.12Z</time></trkpt><trkpt lat="40.9097133" lon="14.6250067"><ele>434.0</ele><time>2026-04-25T07:49:10.12Z</time></trkpt><trkpt lat="40.9096083" lon="14.6251717"><ele>429.3333333333333</ele><time>2026-04-25T07:49:11.12Z</time></trkpt><trkpt lat="40.9095" lon="14.6253333"><ele>424.66666666666663</ele><time>2026-04-25T07:49:12.121Z</time></trkpt><trkpt lat="40.909385" lon="14.625485"><ele>420.0</ele><time>2026-04-25T07:49:13.12Z</time></trkpt><trkpt lat="40.90929" lon="14.6256383"><ele>425.5</ele><time>2026-04-25T07:49:14.12Z</time></trkpt><trkpt lat="40.909205" lon="14.6257667"><ele>431.0</ele><time>2026-04-25T07:49:15.12Z</time></trkpt><trkpt lat="40.9091133" lon="14.6258933"><ele>436.5</ele><time>2026-04-25T07:49:16.12Z</time></trkpt><trkpt lat="40.909005" lon="14.6260017"><ele>442.0</ele><time>2026-04-25T07:49:17.12Z</time></trkpt><trkpt lat="40.9088883" lon="14.6261033"><ele>436.5</ele><time>2026-04-25T07:49:18.12Z</time></trkpt><trkpt lat="40.9087683" lon="14.62622"><ele>431.0</ele><time>2026-04-25T07:49:19.121Z</time></trkpt><trkpt lat="40.9086567" lon="14.626335"><ele>425.5</ele><time>2026-04-25T07:49:20.12Z</time></trkpt><trkpt lat="40.908555" lon="14.626455"><ele>420.0</ele><time>2026-04-25T07:49:21.12Z</time></trkpt><trkpt lat="40.908455" lon="14.62657"><ele>427.25</ele><time>2026-04-25T07:49:22.12Z</time></trkpt><trkpt lat="40.9083467" lon="14.62667"><ele>434.5</ele><time>2026-04-25T07:49:23.12Z</time></trkpt><trkpt lat="40.9082417" lon="14.6267467"><ele>441.75</ele><time>2026-04-25T07:49:24.12Z</time></trkpt><trkpt lat="40.9081483" lon="14.6268083"><ele>449.0</ele><time>2026-04-25T07:49:25.12Z</time></trkpt><trkpt lat="40.908055" lon="14.6268567"><ele>449.0</ele><time>2026-04-25T07:49:26.12Z</time></trkpt><trkpt lat="40.9079567" lon="14.6268917"><ele>449.0</ele><time>2026-04-25T07:49:27.12Z</time></trkpt><trkpt lat="40.90785" lon="14.6269117"><ele>449.0</ele><time>2026-04-25T07:49:28.12Z</time></trkpt><trkpt lat="40.9077367" lon="14.626925"><ele>449.0</ele><time>2026-04-25T07:49:29.12Z</time></trkpt><trkpt lat="40.9076017" lon="14.626935"><ele>454.5</ele><time>2026-04-25T07:49:30.12Z</time></trkpt><trkpt lat="40.907465" lon="14.626945"><ele>460.0</ele><time>2026-04-25T07:49:31.12Z</time></trkpt><trkpt lat="40.9073333" lon="14.6269617"><ele>465.5</ele><time>2026-04-25T07:49:32.12Z</time></trkpt><trkpt lat="40.9072017" lon="14.6269733"><ele>471.0</ele><time>2026-04-25T07:49:33.12Z</time></trkpt><trkpt lat="40.9070633" lon="14.626965"><ele>471.0</ele><time>2026-04-25T07:49:34.12Z</time></trkpt><trkpt lat="40.90692" lon="14.6269667"><ele>471.0</ele><time>2026-04-25T07:49:35.12Z</time></trkpt><trkpt lat="40.9067733" lon="14.6269617"><ele>471.0</ele><time>2026-04-25T07:49:36.12Z</time></trkpt><trkpt lat="40.90663" lon="14.626965"><ele>471.0</ele><time>2026-04-25T07:49:37.12Z</time></trkpt><trkpt lat="40.90651" lon="14.626965"><ele>472.25</ele><time>2026-04-25T07:49:38.12Z</time></trkpt><trkpt lat="40.9064" lon="14.626965"><ele>473.5</ele><time>2026-04-25T07:49:39.12Z</time></trkpt><trkpt lat="40.906285" lon="14.626965"><ele>474.75</ele><time>2026-04-25T07:49:40.12Z</time></trkpt><trkpt lat="40.9061667" lon="14.6269933"><ele>476.0</ele><time>2026-04-25T07:49:41.12Z</time></trkpt><trkpt lat="40.90605" lon="14.6270317"><ele>472.4</ele><time>2026-04-25T07:49:42.12Z</time></trkpt><trkpt lat="40.90593" lon="14.6270533"><ele>468.8</ele><time>2026-04-25T07:49:43.12Z</time></trkpt><trkpt lat="40.9058083" lon="14.6270533"><ele>465.19999999999993</ele><time>2026-04-25T07:49:44.12Z</time></trkpt><trkpt lat="40.905695" lon="14.627045"><ele>461.59999999999997</ele><time>2026-04-25T07:49:45.12Z</time></trkpt><trkpt lat="40.9056033" lon="14.627055"><ele>458.0</ele><time>2026-04-25T07:49:46.12Z</time></trkpt><trkpt lat="40.9055183" lon="14.62708"><ele>458.0</ele><time>2026-04-25T07:49:47.12Z</time></trkpt><trkpt lat="40.90544" lon="14.6271467"><ele>457.99999999999994</ele><time>2026-04-25T07:49:48.12Z</time></trkpt><trkpt lat="40.9053633" lon="14.62724"><ele>457.99999999999994</ele><time>2026-04-25T07:49:49.12Z</time></trkpt><trkpt lat="40.9052717" lon="14.627325"><ele>458.0</ele><time>2026-04-25T07:49:50.12Z</time></trkpt><trkpt lat="40.9051667" lon="14.6273867"><ele>458.0</ele><time>2026-04-25T07:49:51.12Z</time></trkpt><trkpt lat="40.90505" lon="14.62745"><ele>464.25</ele><time>2026-04-25T07:49:52.12Z</time></trkpt><trkpt lat="40.904925" lon="14.6275"><ele>470.5</ele><time>2026-04-25T07:49:53.12Z</time></trkpt><trkpt lat="40.9048" lon="14.627545"><ele>476.75</ele><time>2026-04-25T07:49:54.12Z</time></trkpt><trkpt lat="40.904675" lon="14.6275817"><ele>483.0</ele><time>2026-04-25T07:49:55.12Z</time></trkpt><trkpt lat="40.9045633" lon="14.6276217"><ele>483.0</ele><time>2026-04-25T07:49:56.12Z</time></trkpt><trkpt lat="40.9044617" lon="14.6276533"><ele>482.99999999999994</ele><time>2026-04-25T07:49:57.12Z</time></trkpt><trkpt lat="40.90436" lon="14.62768"><ele>482.99999999999994</ele><time>2026-04-25T07:49:58.12Z</time></trkpt><trkpt lat="40.904255" lon="14.6276917"><ele>483.0</ele><time>2026-04-25T07:49:59.12Z</time></trkpt><trkpt lat="40.90414" lon="14.6276867"><ele>483.0</ele><time>2026-04-25T07:50:00.12Z</time></trkpt><trkpt lat="40.9040267" lon="14.62766"><ele>487.0</ele><time>2026-04-25T07:50:01.12Z</time></trkpt><trkpt lat="40.90391" lon="14.6276183"><ele>491.0</ele><time>2026-04-25T07:50:02.12Z</time></trkpt><trkpt lat="40.9037833" lon="14.627555"><ele>495.0</ele><time>2026-04-25T07:50:03.12Z</time></trkpt><trkpt lat="40.903655" lon="14.6274867"><ele>499.0</ele><time>2026-04-25T07:50:04.12Z</time></trkpt><trkpt lat="40.9035383" lon="14.6274117"><ele>499.0</ele><time>2026-04-25T07:50:05.121Z</time></trkpt><trkpt lat="40.9034383" lon="14.62734"><ele>499.0</ele><time>2026-04-25T07:50:06.12Z</time></trkpt><trkpt lat="40.903355" lon="14.627295"><ele>499.0</ele><time>2026-04-25T07:50:07.12Z</time></trkpt><trkpt lat="40.903275" lon="14.6272733"><ele>499.0</ele><time>2026-04-25T07:50:08.12Z</time></trkpt><trkpt lat="40.9031867" lon="14.62729"><ele>499.0</ele><time>2026-04-25T07:50:09.12Z</time></trkpt><trkpt lat="40.903095" lon="14.627335"><ele>499.25</ele><time>2026-04-25T07:50:10.12Z</time></trkpt><trkpt lat="40.9029867" lon="14.6274383"><ele>499.5</ele><time>2026-04-25T07:50:11.12Z</time></trkpt><trkpt lat="40.902865" lon="14.62755"><ele>499.75</ele><time>2026-04-25T07:50:12.121Z</time></trkpt><trkpt lat="40.902745" lon="14.6276567"><ele>500.0</ele><time>2026-04-25T07:50:13.12Z</time></trkpt><trkpt lat="40.902635" lon="14.6277817"><ele>500.0</ele><time>2026-04-25T07:50:14.121Z</time></trkpt><trkpt lat="40.902545" lon="14.6279083"><ele>500.0</ele><time>2026-04-25T07:50:15.12Z</time></trkpt><trkpt lat="40.9024717" lon="14.628015"><ele>500.0</ele><time>2026-04-25T07:50:16.12Z</time></trkpt><trkpt lat="40.9024033" lon="14.62808"><ele>500.0</ele><time>2026-04-25T07:50:17.12Z</time></trkpt><trkpt lat="40.9023417" lon="14.6281083"><ele>500.0</ele><time>2026-04-25T07:50:18.121Z</time></trkpt><trkpt lat="40.9022767" lon="14.6281"><ele>500.0</ele><time>2026-04-25T07:50:19.12Z</time></trkpt><trkpt lat="40.902185" lon="14.6280483"><ele>500.0</ele><time>2026-04-25T07:50:20.12Z</time></trkpt><trkpt lat="40.90207" lon="14.6279633"><ele>500.0</ele><time>2026-04-25T07:50:21.12Z</time></trkpt><trkpt lat="40.9019367" lon="14.6278683"><ele>500.0</ele><time>2026-04-25T07:50:22.121Z</time></trkpt><trkpt lat="40.901795" lon="14.6277733"><ele>501.0</ele><time>2026-04-25T07:50:23.12Z</time></trkpt><trkpt lat="40.9016467" lon="14.6276817"><ele>502.0</ele><time>2026-04-25T07:50:24.12Z</time></trkpt><trkpt lat="40.9015033" lon="14.6275967"><ele>503.0</ele><time>2026-04-25T07:50:25.12Z</time></trkpt><trkpt lat="40.9013633" lon="14.6275183"><ele>503.0</ele><time>2026-04-25T07:50:26.12Z</time></trkpt><trkpt lat="40.9012267" lon="14.6274467"><ele>503.0</ele><time>2026-04-25T07:50:27.12Z</time></trkpt><trkpt lat="40.901095" lon="14.6273967"><ele>503.0</ele><time>2026-04-25T07:50:28.12Z</time></trkpt><trkpt lat="40.900985" lon="14.6273383"><ele>503.0</ele><time>2026-04-25T07:50:29.12Z</time></trkpt><trkpt lat="40.90089" lon="14.6272833"><ele>503.79999999999995</ele><time>2026-04-25T07:50:30.12Z</time></trkpt><trkpt lat="40.9007983" lon="14.6272583"><ele>504.59999999999997</ele><time>2026-04-25T07:50:31.12Z</time></trkpt><trkpt lat="40.9007033" lon="14.62727"><ele>505.40000000000003</ele><time>2026-04-25T07:50:32.12Z</time></trkpt><trkpt lat="40.900615" lon="14.6273083"><ele>506.20000000000005</ele><time>2026-04-25T07:50:33.12Z</time></trkpt><trkpt lat="40.9005333" lon="14.6273533"><ele>507.0</ele><time>2026-04-25T07:50:34.12Z</time></trkpt><trkpt lat="40.9004567" lon="14.6273933"><ele>507.0</ele><time>2026-04-25T07:50:35.12Z</time></trkpt><trkpt lat="40.9003867" lon="14.6274"><ele>507.00000000000006</ele><time>2026-04-25T07:50:36.12Z</time></trkpt><trkpt lat="40.9003017" lon="14.6273867"><ele>507.00000000000006</ele><time>2026-04-25T07:50:37.12Z</time></trkpt><trkpt lat="40.900205" lon="14.62735"><ele>507.0</ele><time>2026-04-25T07:50:38.12Z</time></trkpt><trkpt lat="40.9000917" lon="14.6272883"><ele>507.0</ele><time>2026-04-25T07:50:39.12Z</time></trkpt><trkpt lat="40.8999717" lon="14.627215"><ele>508.0</ele><time>2026-04-25T07:50:40.12Z</time></trkpt><trkpt lat="40.8998533" lon="14.62716"><ele>509.0</ele><time>2026-04-25T07:50:41.121Z</time></trkpt><trkpt lat="40.8997333" lon="14.6271233"><ele>510.0</ele><time>2026-04-25T07:50:42.12Z</time></trkpt><trkpt lat="40.899605" lon="14.6271033"><ele>511.0</ele><time>2026-04-25T07:50:43.12Z</time></trkpt><trkpt lat="40.8994817" lon="14.6270933"><ele>511.0</ele><time>2026-04-25T07:50:44.12Z</time></trkpt><trkpt lat="40.8993533" lon="14.6270817"><ele>511.0</ele><time>2026-04-25T07:50:45.12Z</time></trkpt><trkpt lat="40.8992183" lon="14.6270533"><ele>511.0</ele><time>2026-04-25T07:50:46.12Z</time></trkpt><trkpt lat="40.8990783" lon="14.6270267"><ele>511.0</ele><time>2026-04-25T07:50:47.12Z</time></trkpt><trkpt lat="40.89894" lon="14.6269967"><ele>513.0</ele><time>2026-04-25T07:50:48.121Z</time></trkpt><trkpt lat="40.898795" lon="14.6269633"><ele>515.0</ele><time>2026-04-25T07:50:49.12Z</time></trkpt><trkpt lat="40.8986433" lon="14.6269267"><ele>517.0</ele><time>2026-04-25T07:50:50.12Z</time></trkpt><trkpt lat="40.8984883" lon="14.6268883"><ele>517.6666666666667</ele><time>2026-04-25T07:50:51.12Z</time></trkpt><trkpt lat="40.8983283" lon="14.626855"><ele>518.3333333333334</ele><time>2026-04-25T07:50:52.12Z</time></trkpt><trkpt lat="40.8981733" lon="14.62683"><ele>519.0</ele><time>2026-04-25T07:50:53.12Z</time></trkpt><trkpt lat="40.8980167" lon="14.6268017"><ele>519.0</ele><time>2026-04-25T07:50:54.121Z</time></trkpt><trkpt lat="40.89787" lon="14.626765"><ele>519.0</ele><time>2026-04-25T07:50:55.12Z</time></trkpt><trkpt lat="40.89774" lon="14.6267283"><ele>519.0</ele><time>2026-04-25T07:50:56.12Z</time></trkpt><trkpt lat="40.8976267" lon="14.626695"><ele>519.0</ele><time>2026-04-25T07:50:57.12Z</time></trkpt><trkpt lat="40.8975283" lon="14.6266683"><ele>520.8333333333334</ele><time>2026-04-25T07:50:58.12Z</time></trkpt><trkpt lat="40.8974483" lon="14.6266467"><ele>522.6666666666666</ele><time>2026-04-25T07:50:59.12Z</time></trkpt><trkpt lat="40.897385" lon="14.6266383"><ele>524.5</ele><time>2026-04-25T07:51:00.12Z</time></trkpt><trkpt lat="40.8972917" lon="14.6267117"><ele>526.3333333333333</ele><time>2026-04-25T07:51:02.12Z</time></trkpt><trkpt lat="40.8972533" lon="14.6268033"><ele>528.1666666666666</ele><time>2026-04-25T07:51:03.12Z</time></trkpt><trkpt lat="40.897225" lon="14.6269367"><ele>530.0</ele><time>2026-04-25T07:51:04.12Z</time></trkpt><trkpt lat="40.8971917" lon="14.6271017"><ele>530.4</ele><time>2026-04-25T07:51:05.12Z</time></trkpt><trkpt lat="40.897165" lon="14.6272667"><ele>530.8</ele><time>2026-04-25T07:51:06.12Z</time></trkpt><trkpt lat="40.8971367" lon="14.6274183"><ele>531.2</ele><time>2026-04-25T07:51:07.12Z</time></trkpt><trkpt lat="40.89711" lon="14.6275433"><ele>531.6</ele><time>2026-04-25T07:51:08.12Z</time></trkpt><trkpt lat="40.897075" lon="14.627645"><ele>532.0</ele><time>2026-04-25T07:51:09.12Z</time></trkpt><trkpt lat="40.8970267" lon="14.6277517"><ele>532.4</ele><time>2026-04-25T07:51:10.12Z</time></trkpt><trkpt lat="40.8969633" lon="14.627865"><ele>532.8000000000001</ele><time>2026-04-25T07:51:11.12Z</time></trkpt><trkpt lat="40.8968833" lon="14.6279683"><ele>533.2</ele><time>2026-04-25T07:51:12.12Z</time></trkpt><trkpt lat="40.8968" lon="14.628055"><ele>533.6</ele><time>2026-04-25T07:51:13.12Z</time></trkpt><trkpt lat="40.896715" lon="14.6281283"><ele>534.0</ele><time>2026-04-25T07:51:14.12Z</time></trkpt><trkpt lat="40.89663" lon="14.62819"><ele>533.2</ele><time>2026-04-25T07:51:15.12Z</time></trkpt><trkpt lat="40.8965433" lon="14.62824"><ele>532.4</ele><time>2026-04-25T07:51:16.12Z</time></trkpt><trkpt lat="40.896445" lon="14.6282767"><ele>531.6</ele><time>2026-04-25T07:51:17.12Z</time></trkpt><trkpt lat="40.8963417" lon="14.6283033"><ele>530.8</ele><time>2026-04-25T07:51:18.12Z</time></trkpt><trkpt lat="40.8962383" lon="14.6283317"><ele>530.0</ele><time>2026-04-25T07:51:19.12Z</time></trkpt><trkpt lat="40.896125" lon="14.628355"><ele>530.0</ele><time>2026-04-25T07:51:20.121Z</time></trkpt><trkpt lat="40.8959983" lon="14.6283817"><ele>530.0</ele><time>2026-04-25T07:51:21.12Z</time></trkpt><trkpt lat="40.89587" lon="14.628405"><ele>530.0</ele><time>2026-04-25T07:51:22.12Z</time></trkpt><trkpt lat="40.8957567" lon="14.6284283"><ele>530.0</ele><time>2026-04-25T07:51:23.12Z</time></trkpt><trkpt lat="40.8956533" lon="14.628455"><ele>529.3333333333333</ele><time>2026-04-25T07:51:24.12Z</time></trkpt><trkpt lat="40.8955583" lon="14.6284833"><ele>528.6666666666666</ele><time>2026-04-25T07:51:25.12Z</time></trkpt><trkpt lat="40.8954717" lon="14.62852"><ele>528.0</ele><time>2026-04-25T07:51:26.12Z</time></trkpt><trkpt lat="40.895395" lon="14.628555"><ele>527.3333333333334</ele><time>2026-04-25T07:51:27.12Z</time></trkpt><trkpt lat="40.8953283" lon="14.6285967"><ele>526.6666666666667</ele><time>2026-04-25T07:51:28.12Z</time></trkpt><trkpt lat="40.89527" lon="14.6286367"><ele>526.0</ele><time>2026-04-25T07:51:29.12Z</time></trkpt><trkpt lat="40.895215" lon="14.6286783"><ele>526.2</ele><time>2026-04-25T07:51:30.12Z</time></trkpt><trkpt lat="40.8951183" lon="14.6287117"><ele>526.4000000000001</ele><time>2026-04-25T07:51:32.12Z</time></trkpt><trkpt lat="40.89502" lon="14.6287"><ele>526.6</ele><time>2026-04-25T07:51:34.12Z</time></trkpt><trkpt lat="40.8948983" lon="14.6286633"><ele>526.8000000000001</ele><time>2026-04-25T07:51:36.12Z</time></trkpt><trkpt lat="40.8948167" lon="14.6286417"><ele>527.0</ele><time>2026-04-25T07:51:37.12Z</time></trkpt><trkpt lat="40.8947283" lon="14.628615"><ele>527.0</ele><time>2026-04-25T07:51:38.12Z</time></trkpt><trkpt lat="40.89464" lon="14.6285867"><ele>527.0</ele><time>2026-04-25T07:51:39.12Z</time></trkpt><trkpt lat="40.8945433" lon="14.62859"><ele>527.0</ele><time>2026-04-25T07:51:40.12Z</time></trkpt><trkpt lat="40.8944467" lon="14.6286183"><ele>527.0</ele><time>2026-04-25T07:51:41.12Z</time></trkpt><trkpt lat="40.89434" lon="14.6286683"><ele>527.0</ele><time>2026-04-25T07:51:42.12Z</time></trkpt><trkpt lat="40.894235" lon="14.6287483"><ele>524.5</ele><time>2026-04-25T07:51:43.12Z</time></trkpt><trkpt lat="40.8941283" lon="14.628855"><ele>522.0</ele><time>2026-04-25T07:51:44.12Z</time></trkpt><trkpt lat="40.8940217" lon="14.6289667"><ele>519.5</ele><time>2026-04-25T07:51:45.12Z</time></trkpt><trkpt lat="40.8939133" lon="14.6290917"><ele>517.0</ele><time>2026-04-25T07:51:46.12Z</time></trkpt><trkpt lat="40.8938017" lon="14.6292267"><ele>517.0</ele><time>2026-04-25T07:51:47.12Z</time></trkpt><trkpt lat="40.893695" lon="14.629365"><ele>517.0</ele><time>2026-04-25T07:51:48.12Z</time></trkpt><trkpt lat="40.893585" lon="14.6295"><ele>517.0</ele><time>2026-04-25T07:51:49.12Z</time></trkpt><trkpt lat="40.8934717" lon="14.6296367"><ele>515.6666666666667</ele><time>2026-04-25T07:51:50.12Z</time></trkpt><trkpt lat="40.8933533" lon="14.6297633"><ele>514.3333333333334</ele><time>2026-04-25T07:51:51.121Z</time></trkpt><trkpt lat="40.8932217" lon="14.6298933"><ele>513.0</ele><time>2026-04-25T07:51:52.12Z</time></trkpt><trkpt lat="40.8930933" lon="14.6300167"><ele>513.0</ele><time>2026-04-25T07:51:53.12Z</time></trkpt><trkpt lat="40.892975" lon="14.6301317"><ele>513.0</ele><time>2026-04-25T07:51:54.121Z</time></trkpt><trkpt lat="40.8928633" lon="14.6302533"><ele>513.0</ele><time>2026-04-25T07:51:55.12Z</time></trkpt><trkpt lat="40.8927667" lon="14.6303783"><ele>513.0</ele><time>2026-04-25T07:51:56.12Z</time></trkpt><trkpt lat="40.892675" lon="14.6304983"><ele>508.75</ele><time>2026-04-25T07:51:57.12Z</time></trkpt><trkpt lat="40.8925867" lon="14.6306233"><ele>504.5</ele><time>2026-04-25T07:51:58.12Z</time></trkpt><trkpt lat="40.8924783" lon="14.6307567"><ele>500.25</ele><time>2026-04-25T07:51:59.12Z</time></trkpt><trkpt lat="40.8923767" lon="14.6308783"><ele>496.0</ele><time>2026-04-25T07:52:00.12Z</time></trkpt><trkpt lat="40.892275" lon="14.6309983"><ele>496.0</ele><time>2026-04-25T07:52:01.12Z</time></trkpt><trkpt lat="40.8921783" lon="14.63112"><ele>496.0</ele><time>2026-04-25T07:52:02.12Z</time></trkpt><trkpt lat="40.892085" lon="14.631255"><ele>496.0</ele><time>2026-04-25T07:52:03.12Z</time></trkpt><trkpt lat="40.8919933" lon="14.6314"><ele>496.0</ele><time>2026-04-25T07:52:04.12Z</time></trkpt><trkpt lat="40.8919117" lon="14.6315483"><ele>493.75</ele><time>2026-04-25T07:52:05.12Z</time></trkpt><trkpt lat="40.8918383" lon="14.6317083"><ele>491.5</ele><time>2026-04-25T07:52:06.12Z</time></trkpt><trkpt lat="40.8917683" lon="14.6318817"><ele>489.25</ele><time>2026-04-25T07:52:07.12Z</time></trkpt><trkpt lat="40.8916933" lon="14.6320533"><ele>487.0</ele><time>2026-04-25T07:52:08.12Z</time></trkpt><trkpt lat="40.8916267" lon="14.6322267"><ele>487.0</ele><time>2026-04-25T07:52:09.12Z</time></trkpt><trkpt lat="40.89157" lon="14.6323983"><ele>487.0</ele><time>2026-04-25T07:52:10.12Z</time></trkpt><trkpt lat="40.8915117" lon="14.63257"><ele>487.0</ele><time>2026-04-25T07:52:11.12Z</time></trkpt><trkpt lat="40.891455" lon="14.63274"><ele>487.0</ele><time>2026-04-25T07:52:12.12Z</time></trkpt><trkpt lat="40.8914017" lon="14.6329083"><ele>491.0</ele><time>2026-04-25T07:52:13.12Z</time></trkpt><trkpt lat="40.8913483" lon="14.6330683"><ele>495.0</ele><time>2026-04-25T07:52:14.12Z</time></trkpt><trkpt lat="40.8912883" lon="14.6332283"><ele>499.0</ele><time>2026-04-25T07:52:15.12Z</time></trkpt><trkpt lat="40.8912217" lon="14.6333867"><ele>503.0</ele><time>2026-04-25T07:52:16.12Z</time></trkpt><trkpt lat="40.8911567" lon="14.6335483"><ele>507.25</ele><time>2026-04-25T07:52:17.12Z</time></trkpt><trkpt lat="40.8910933" lon="14.63371"><ele>511.5</ele><time>2026-04-25T07:52:18.12Z</time></trkpt><trkpt lat="40.8910283" lon="14.633875"><ele>515.75</ele><time>2026-04-25T07:52:19.12Z</time></trkpt><trkpt lat="40.8909617" lon="14.6340367"><ele>520.0</ele><time>2026-04-25T07:52:20.12Z</time></trkpt><trkpt lat="40.8908883" lon="14.63419"><ele>510.5</ele><time>2026-04-25T07:52:21.12Z</time></trkpt><trkpt lat="40.8908083" lon="14.634345"><ele>501.0</ele><time>2026-04-25T07:52:22.12Z</time></trkpt><trkpt lat="40.8907267" lon="14.6345"><ele>491.5</ele><time>2026-04-25T07:52:23.12Z</time></trkpt><trkpt lat="40.8906483" lon="14.6346483"><ele>482.0</ele><time>2026-04-25T07:52:24.12Z</time></trkpt><trkpt lat="40.8905683" lon="14.634795"><ele>482.0</ele><time>2026-04-25T07:52:25.12Z</time></trkpt><trkpt lat="40.890495" lon="14.6349417"><ele>482.0</ele><time>2026-04-25T07:52:26.12Z</time></trkpt><trkpt lat="40.89042" lon="14.63509"><ele>482.0</ele><time>2026-04-25T07:52:27.12Z</time></trkpt><trkpt lat="40.8903467" lon="14.6352383"><ele>482.0</ele><time>2026-04-25T07:52:28.121Z</time></trkpt><trkpt lat="40.8902817" lon="14.6353917"><ele>486.5</ele><time>2026-04-25T07:52:29.12Z</time></trkpt><trkpt lat="40.8902267" lon="14.63554"><ele>491.0</ele><time>2026-04-25T07:52:30.12Z</time></trkpt><trkpt lat="40.8901683" lon="14.6356783"><ele>495.5</ele><time>2026-04-25T07:52:31.12Z</time></trkpt><trkpt lat="40.890105" lon="14.6358017"><ele>500.0</ele><time>2026-04-25T07:52:32.12Z</time></trkpt><trkpt lat="40.8900217" lon="14.6359133"><ele>494.75</ele><time>2026-04-25T07:52:33.12Z</time></trkpt><trkpt lat="40.8899217" lon="14.6360133"><ele>489.5</ele><time>2026-04-25T07:52:34.12Z</time></trkpt><trkpt lat="40.8898217" lon="14.6361033"><ele>484.25</ele><time>2026-04-25T07:52:35.121Z</time></trkpt><trkpt lat="40.8897317" lon="14.63619"><ele>479.0</ele><time>2026-04-25T07:52:36.12Z</time></trkpt><trkpt lat="40.8896367" lon="14.6362867"><ele>479.0</ele><time>2026-04-25T07:52:37.12Z</time></trkpt><trkpt lat="40.8895433" lon="14.6363917"><ele>479.0</ele><time>2026-04-25T07:52:38.12Z</time></trkpt><trkpt lat="40.8894517" lon="14.6365067"><ele>479.0</ele><time>2026-04-25T07:52:39.121Z</time></trkpt><trkpt lat="40.8893633" lon="14.63664"><ele>479.0</ele><time>2026-04-25T07:52:40.12Z</time></trkpt><trkpt lat="40.88927" lon="14.6367667"><ele>474.5</ele><time>2026-04-25T07:52:41.12Z</time></trkpt><trkpt lat="40.889175" lon="14.636905"><ele>470.0</ele><time>2026-04-25T07:52:42.12Z</time></trkpt><trkpt lat="40.8890817" lon="14.6370483"><ele>465.5</ele><time>2026-04-25T07:52:43.12Z</time></trkpt><trkpt lat="40.88899" lon="14.6371933"><ele>461.0</ele><time>2026-04-25T07:52:44.12Z</time></trkpt><trkpt lat="40.8889067" lon="14.637325"><ele>461.0</ele><time>2026-04-25T07:52:45.12Z</time></trkpt><trkpt lat="40.8888233" lon="14.6374617"><ele>461.0</ele><time>2026-04-25T07:52:46.12Z</time></trkpt><trkpt lat="40.8887383" lon="14.6376017"><ele>461.0</ele><time>2026-04-25T07:52:47.12Z</time></trkpt><trkpt lat="40.8886633" lon="14.6377517"><ele>461.0</ele><time>2026-04-25T07:52:48.12Z</time></trkpt><trkpt lat="40.888605" lon="14.63791"><ele>464.20000000000005</ele><time>2026-04-25T07:52:49.12Z</time></trkpt><trkpt lat="40.8885583" lon="14.6380567"><ele>467.40000000000003</ele><time>2026-04-25T07:52:50.12Z</time></trkpt><trkpt lat="40.888525" lon="14.6381717"><ele>470.6</ele><time>2026-04-25T07:52:51.12Z</time></trkpt><trkpt lat="40.8884967" lon="14.6382933"><ele>473.8</ele><time>2026-04-25T07:52:53.12Z</time></trkpt><trkpt lat="40.88856" lon="14.6383067"><ele>477.0</ele><time>2026-04-25T07:53:05.12Z</time></trkpt><trkpt lat="40.88859" lon="14.6381883"><ele>477.0</ele><time>2026-04-25T07:53:07.12Z</time></trkpt><trkpt lat="40.8886167" lon="14.6380767"><ele>477.0</ele><time>2026-04-25T07:53:08.12Z</time></trkpt><trkpt lat="40.8886567" lon="14.6379433"><ele>477.0</ele><time>2026-04-25T07:53:09.12Z</time></trkpt><trkpt lat="40.88871" lon="14.6377967"><ele>477.0</ele><time>2026-04-25T07:53:10.12Z</time></trkpt><trkpt lat="40.8887817" lon="14.6376467"><ele>473.0</ele><time>2026-04-25T07:53:11.12Z</time></trkpt><trkpt lat="40.8888633" lon="14.637495"><ele>469.0</ele><time>2026-04-25T07:53:12.12Z</time></trkpt><trkpt lat="40.8889517" lon="14.637335"><ele>465.0</ele><time>2026-04-25T07:53:13.12Z</time></trkpt><trkpt lat="40.889055" lon="14.6371767"><ele>461.0</ele><time>2026-04-25T07:53:14.12Z</time></trkpt><trkpt lat="40.8891617" lon="14.63701"><ele>465.5</ele><time>2026-04-25T07:53:15.12Z</time></trkpt><trkpt lat="40.88927" lon="14.6368417"><ele>470.0</ele><time>2026-04-25T07:53:16.12Z</time></trkpt><trkpt lat="40.8893717" lon="14.6367033"><ele>474.5</ele><time>2026-04-25T07:53:17.12Z</time></trkpt><trkpt lat="40.88947" lon="14.636585"><ele>479.0</ele><time>2026-04-25T07:53:18.12Z</time></trkpt><trkpt lat="40.8895683" lon="14.6364517"><ele>479.0</ele><time>2026-04-25T07:53:19.12Z</time></trkpt><trkpt lat="40.8896683" lon="14.6363267"><ele>479.0</ele><time>2026-04-25T07:53:20.12Z</time></trkpt><trkpt lat="40.8897783" lon="14.6362"><ele>479.0</ele><time>2026-04-25T07:53:21.12Z</time></trkpt><trkpt lat="40.8898867" lon="14.6360867"><ele>479.0</ele><time>2026-04-25T07:53:22.12Z</time></trkpt><trkpt lat="40.8899817" lon="14.6359733"><ele>484.25</ele><time>2026-04-25T07:53:23.12Z</time></trkpt><trkpt lat="40.8900733" lon="14.6358383"><ele>489.5</ele><time>2026-04-25T07:53:24.12Z</time></trkpt><trkpt lat="40.89016" lon="14.6356967"><ele>494.75</ele><time>2026-04-25T07:53:25.12Z</time></trkpt><trkpt lat="40.8902367" lon="14.6355417"><ele>500.0</ele><time>2026-04-25T07:53:26.12Z</time></trkpt><trkpt lat="40.8903167" lon="14.635365"><ele>494.0</ele><time>2026-04-25T07:53:27.12Z</time></trkpt><trkpt lat="40.8903933" lon="14.63519"><ele>488.0</ele><time>2026-04-25T07:53:28.12Z</time></trkpt><trkpt lat="40.8904783" lon="14.635005"><ele>482.0</ele><time>2026-04-25T07:53:29.12Z</time></trkpt><trkpt lat="40.89057" lon="14.6348183"><ele>482.0</ele><time>2026-04-25T07:53:30.12Z</time></trkpt><trkpt lat="40.890655" lon="14.6346467"><ele>482.0</ele><time>2026-04-25T07:53:31.12Z</time></trkpt><trkpt lat="40.8907467" lon="14.6344733"><ele>482.0</ele><time>2026-04-25T07:53:32.12Z</time></trkpt><trkpt lat="40.8908317" lon="14.634305"><ele>476.0</ele><time>2026-04-25T07:53:33.12Z</time></trkpt><trkpt lat="40.890915" lon="14.6341317"><ele>470.0</ele><time>2026-04-25T07:53:34.12Z</time></trkpt><trkpt lat="40.891" lon="14.63396"><ele>464.0</ele><time>2026-04-25T07:53:35.12Z</time></trkpt><trkpt lat="40.8910833" lon="14.633775"><ele>477.0</ele><time>2026-04-25T07:53:36.12Z</time></trkpt><trkpt lat="40.89116" lon="14.633575"><ele>490.0</ele><time>2026-04-25T07:53:37.12Z</time></trkpt><trkpt lat="40.8912433" lon="14.6333667"><ele>503.0</ele><time>2026-04-25T07:53:38.121Z</time></trkpt><trkpt lat="40.8913283" lon="14.6331467"><ele>503.0</ele><time>2026-04-25T07:53:39.12Z</time></trkpt><trkpt lat="40.8914033" lon="14.6329333"><ele>503.0</ele><time>2026-04-25T07:53:40.12Z</time></trkpt><trkpt lat="40.891475" lon="14.632725"><ele>503.0</ele><time>2026-04-25T07:53:41.12Z</time></trkpt><trkpt lat="40.8915383" lon="14.6325283"><ele>497.66666666666663</ele><time>2026-04-25T07:53:42.12Z</time></trkpt><trkpt lat="40.8916033" lon="14.632345"><ele>492.33333333333337</ele><time>2026-04-25T07:53:43.12Z</time></trkpt><trkpt lat="40.8916767" lon="14.6321483"><ele>487.0</ele><time>2026-04-25T07:53:44.12Z</time></trkpt><trkpt lat="40.8917533" lon="14.6319533"><ele>499.6666666666667</ele><time>2026-04-25T07:53:45.12Z</time></trkpt><trkpt lat="40.8918283" lon="14.631765"><ele>512.3333333333334</ele><time>2026-04-25T07:53:46.12Z</time></trkpt><trkpt lat="40.8919133" lon="14.6315733"><ele>525.0</ele><time>2026-04-25T07:53:47.12Z</time></trkpt><trkpt lat="40.892005" lon="14.6314"><ele>525.0</ele><time>2026-04-25T07:53:48.12Z</time></trkpt><trkpt lat="40.8921033" lon="14.63124"><ele>525.0</ele><time>2026-04-25T07:53:49.12Z</time></trkpt><trkpt lat="40.8922233" lon="14.63108"><ele>525.0</ele><time>2026-04-25T07:53:50.121Z</time></trkpt><trkpt lat="40.8923467" lon="14.6309217"><ele>532.3333333333334</ele><time>2026-04-25T07:53:51.12Z</time></trkpt><trkpt lat="40.8924733" lon="14.6307683"><ele>539.6666666666667</ele><time>2026-04-25T07:53:52.121Z</time></trkpt><trkpt lat="40.8926033" lon="14.63061"><ele>547.0</ele><time>2026-04-25T07:53:53.12Z</time></trkpt><trkpt lat="40.8927133" lon="14.6304633"><ele>547.0</ele><time>2026-04-25T07:53:54.12Z</time></trkpt><trkpt lat="40.8928217" lon="14.6303283"><ele>547.0</ele><time>2026-04-25T07:53:55.12Z</time></trkpt><trkpt lat="40.89293" lon="14.63021"><ele>547.0</ele><time>2026-04-25T07:53:56.12Z</time></trkpt><trkpt lat="40.8930467" lon="14.6300917"><ele>547.0</ele><time>2026-04-25T07:53:57.12Z</time></trkpt><trkpt lat="40.893175" lon="14.62996"><ele>544.3333333333334</ele><time>2026-04-25T07:53:58.12Z</time></trkpt><trkpt lat="40.89331" lon="14.6298283"><ele>541.6666666666666</ele><time>2026-04-25T07:53:59.12Z</time></trkpt><trkpt lat="40.8934433" lon="14.629695"><ele>539.0</ele><time>2026-04-25T07:54:00.12Z</time></trkpt><trkpt lat="40.8935567" lon="14.629565"><ele>533.5</ele><time>2026-04-25T07:54:01.12Z</time></trkpt><trkpt lat="40.8936567" lon="14.629435"><ele>528.0</ele><time>2026-04-25T07:54:02.12Z</time></trkpt><trkpt lat="40.8937517" lon="14.6293133"><ele>522.5</ele><time>2026-04-25T07:54:03.12Z</time></trkpt><trkpt lat="40.8938533" lon="14.6291983"><ele>517.0</ele><time>2026-04-25T07:54:04.12Z</time></trkpt><trkpt lat="40.8939567" lon="14.629085"><ele>517.0</ele><time>2026-04-25T07:54:05.12Z</time></trkpt><trkpt lat="40.89405" lon="14.6289767"><ele>517.0</ele><time>2026-04-25T07:54:06.12Z</time></trkpt><trkpt lat="40.8941367" lon="14.6288917"><ele>517.0</ele><time>2026-04-25T07:54:07.12Z</time></trkpt><trkpt lat="40.8942167" lon="14.62882"><ele>517.0</ele><time>2026-04-25T07:54:08.12Z</time></trkpt><trkpt lat="40.89429" lon="14.6287583"><ele>517.0</ele><time>2026-04-25T07:54:09.12Z</time></trkpt><trkpt lat="40.894365" lon="14.6287117"><ele>518.6666666666667</ele><time>2026-04-25T07:54:10.12Z</time></trkpt><trkpt lat="40.894445" lon="14.6286817"><ele>520.3333333333334</ele><time>2026-04-25T07:54:11.12Z</time></trkpt><trkpt lat="40.8945233" lon="14.628655"><ele>522.0</ele><time>2026-04-25T07:54:12.12Z</time></trkpt><trkpt lat="40.8946067" lon="14.6286517"><ele>523.6666666666666</ele><time>2026-04-25T07:54:13.12Z</time></trkpt><trkpt lat="40.89467" lon="14.6286583"><ele>525.3333333333333</ele><time>2026-04-25T07:54:14.12Z</time></trkpt><trkpt lat="40.8947733" lon="14.6286933"><ele>527.0</ele><time>2026-04-25T07:54:16.12Z</time></trkpt><trkpt lat="40.89483" lon="14.62873"><ele>527.0</ele><time>2026-04-25T07:54:18.12Z</time></trkpt><trkpt lat="40.8949083" lon="14.6287567"><ele>527.0</ele><time>2026-04-25T07:54:50.121Z</time></trkpt><trkpt lat="40.8949933" lon="14.62882"><ele>527.0</ele><time>2026-04-25T07:54:52.12Z</time></trkpt><trkpt lat="40.8950783" lon="14.62887"><ele>527.0</ele><time>2026-04-25T07:54:54.121Z</time></trkpt><trkpt lat="40.8951183" lon="14.62878"><ele>527.0</ele><time>2026-04-25T07:54:57.12Z</time></trkpt><trkpt lat="40.8950483" lon="14.6287183"><ele>527.0</ele><time>2026-04-25T07:54:59.12Z</time></trkpt><trkpt lat="40.89495" lon="14.6286767"><ele>525.0</ele><time>2026-04-25T07:55:01.12Z</time></trkpt><trkpt lat="40.8948617" lon="14.6285983"><ele>523.0</ele><time>2026-04-25T07:55:03.12Z</time></trkpt><trkpt lat="40.894765" lon="14.6285183"><ele>521.0</ele><time>2026-04-25T07:55:05.12Z</time></trkpt><trkpt lat="40.8946467" lon="14.628475"><ele>519.0</ele><time>2026-04-25T07:55:07.12Z</time></trkpt><trkpt lat="40.894525" lon="14.6284583"><ele>519.0</ele><time>2026-04-25T07:55:09.12Z</time></trkpt><trkpt lat="40.894405" lon="14.6284983"><ele>519.0</ele><time>2026-04-25T07:55:11.12Z</time></trkpt><trkpt lat="40.8943433" lon="14.6285283"><ele>519.0</ele><time>2026-04-25T07:55:12.12Z</time></trkpt><trkpt lat="40.8942867" lon="14.62857"><ele>519.0</ele><time>2026-04-25T07:55:13.12Z</time></trkpt><trkpt lat="40.89423" lon="14.6286233"><ele>519.0</ele><time>2026-04-25T07:55:14.12Z</time></trkpt><trkpt lat="40.8941733" lon="14.6286717"><ele>519.0</ele><time>2026-04-25T07:55:15.12Z</time></trkpt><trkpt lat="40.8941167" lon="14.6287183"><ele>518.6666666666666</ele><time>2026-04-25T07:55:16.12Z</time></trkpt><trkpt lat="40.894055" lon="14.628765"><ele>518.3333333333334</ele><time>2026-04-25T07:55:17.12Z</time></trkpt><trkpt lat="40.89399" lon="14.628815"><ele>518.0</ele><time>2026-04-25T07:55:18.12Z</time></trkpt><trkpt lat="40.893915" lon="14.62887"><ele>517.6666666666667</ele><time>2026-04-25T07:55:19.12Z</time></trkpt><trkpt lat="40.8938417" lon="14.6289317"><ele>517.3333333333334</ele><time>2026-04-25T07:55:20.12Z</time></trkpt><trkpt lat="40.893765" lon="14.629"><ele>517.0</ele><time>2026-04-25T07:55:21.12Z</time></trkpt><trkpt lat="40.8936883" lon="14.62907"><ele>517.0</ele><time>2026-04-25T07:55:22.12Z</time></trkpt><trkpt lat="40.893605" lon="14.629145"><ele>517.0</ele><time>2026-04-25T07:55:23.12Z</time></trkpt><trkpt lat="40.8935333" lon="14.6292133"><ele>517.0</ele><time>2026-04-25T07:55:24.12Z</time></trkpt><trkpt lat="40.893455" lon="14.6292833"><ele>517.0</ele><time>2026-04-25T07:55:25.121Z</time></trkpt><trkpt lat="40.893375" lon="14.6293567"><ele>517.0</ele><time>2026-04-25T07:55:26.12Z</time></trkpt><trkpt lat="40.8932983" lon="14.6294233"><ele>516.2</ele><time>2026-04-25T07:55:27.12Z</time></trkpt><trkpt lat="40.893215" lon="14.62949"><ele>515.4000000000001</ele><time>2026-04-25T07:55:28.12Z</time></trkpt><trkpt lat="40.8931317" lon="14.6295517"><ele>514.5999999999999</ele><time>2026-04-25T07:55:29.12Z</time></trkpt><trkpt lat="40.89305" lon="14.6296183"><ele>513.8</ele><time>2026-04-25T07:55:30.12Z</time></trkpt><trkpt lat="40.8929683" lon="14.6296817"><ele>513.0</ele><time>2026-04-25T07:55:31.121Z</time></trkpt><trkpt lat="40.8928917" lon="14.62974"><ele>513.0</ele><time>2026-04-25T07:55:32.12Z</time></trkpt><trkpt lat="40.8928183" lon="14.6298"><ele>513.0</ele><time>2026-04-25T07:55:33.12Z</time></trkpt><trkpt lat="40.892745" lon="14.62986"><ele>513.0</ele><time>2026-04-25T07:55:34.12Z</time></trkpt><trkpt lat="40.8926733" lon="14.6299267"><ele>513.0</ele><time>2026-04-25T07:55:35.12Z</time></trkpt><trkpt lat="40.8925967" lon="14.630005"><ele>513.0</ele><time>2026-04-25T07:55:36.12Z</time></trkpt><trkpt lat="40.8925233" lon="14.6300867"><ele>509.59999999999997</ele><time>2026-04-25T07:55:37.12Z</time></trkpt><trkpt lat="40.8924483" lon="14.6301733"><ele>506.19999999999993</ele><time>2026-04-25T07:55:38.12Z</time></trkpt><trkpt lat="40.892375" lon="14.630255"><ele>502.8</ele><time>2026-04-25T07:55:39.121Z</time></trkpt><trkpt lat="40.8923" lon="14.63034"><ele>499.4</ele><time>2026-04-25T07:55:40.12Z</time></trkpt><trkpt lat="40.8922267" lon="14.6304233"><ele>496.0</ele><time>2026-04-25T07:55:41.12Z</time></trkpt><trkpt lat="40.89216" lon="14.63051"><ele>496.0</ele><time>2026-04-25T07:55:42.12Z</time></trkpt><trkpt lat="40.8920817" lon="14.63058"><ele>496.0</ele><time>2026-04-25T07:55:43.12Z</time></trkpt><trkpt lat="40.8920067" lon="14.6306517"><ele>496.0</ele><time>2026-04-25T07:55:44.12Z</time></trkpt><trkpt lat="40.8919333" lon="14.6307333"><ele>496.0</ele><time>2026-04-25T07:55:45.12Z</time></trkpt><trkpt lat="40.89186" lon="14.6308167"><ele>496.0</ele><time>2026-04-25T07:55:46.12Z</time></trkpt><trkpt lat="40.8917867" lon="14.6309"><ele>490.4</ele><time>2026-04-25T07:55:47.12Z</time></trkpt><trkpt lat="40.89172" lon="14.6309933"><ele>484.8</ele><time>2026-04-25T07:55:48.12Z</time></trkpt><trkpt lat="40.8916617" lon="14.631095"><ele>479.19999999999993</ele><time>2026-04-25T07:55:49.12Z</time></trkpt><trkpt lat="40.8916067" lon="14.6311917"><ele>473.59999999999997</ele><time>2026-04-25T07:55:50.12Z</time></trkpt><trkpt lat="40.8915517" lon="14.6312883"><ele>468.0</ele><time>2026-04-25T07:55:51.12Z</time></trkpt><trkpt lat="40.8914967" lon="14.6313933"><ele>468.0</ele><time>2026-04-25T07:55:52.12Z</time></trkpt><trkpt lat="40.8914433" lon="14.6314967"><ele>467.99999999999994</ele><time>2026-04-25T07:55:53.121Z</time></trkpt><trkpt lat="40.8913917" lon="14.6316"><ele>467.99999999999994</ele><time>2026-04-25T07:55:54.12Z</time></trkpt><trkpt lat="40.89134" lon="14.6317017"><ele>468.0</ele><time>2026-04-25T07:55:55.12Z</time></trkpt><trkpt lat="40.8912867" lon="14.6317983"><ele>468.0</ele><time>2026-04-25T07:55:56.121Z</time></trkpt><trkpt lat="40.891225" lon="14.6319083"><ele>471.79999999999995</ele><time>2026-04-25T07:55:57.12Z</time></trkpt><trkpt lat="40.8911667" lon="14.6320233"><ele>475.59999999999997</ele><time>2026-04-25T07:55:58.12Z</time></trkpt><trkpt lat="40.8911017" lon="14.6321383"><ele>479.40000000000003</ele><time>2026-04-25T07:55:59.12Z</time></trkpt><trkpt lat="40.8910367" lon="14.6322567"><ele>483.20000000000005</ele><time>2026-04-25T07:56:00.12Z</time></trkpt><trkpt lat="40.8909733" lon="14.63237"><ele>487.0</ele><time>2026-04-25T07:56:01.12Z</time></trkpt><trkpt lat="40.8909133" lon="14.63248"><ele>478.8</ele><time>2026-04-25T07:56:02.121Z</time></trkpt><trkpt lat="40.8908583" lon="14.6325917"><ele>470.6</ele><time>2026-04-25T07:56:03.121Z</time></trkpt><trkpt lat="40.8908083" lon="14.6326983"><ele>462.40000000000003</ele><time>2026-04-25T07:56:04.121Z</time></trkpt><trkpt lat="40.8907583" lon="14.6328033"><ele>454.20000000000005</ele><time>2026-04-25T07:56:05.121Z</time></trkpt><trkpt lat="40.8907083" lon="14.632915"><ele>446.0</ele><time>2026-04-25T07:56:06.121Z</time></trkpt><trkpt lat="40.8906617" lon="14.6330267"><ele>446.0</ele><time>2026-04-25T07:56:07.121Z</time></trkpt><trkpt lat="40.8906117" lon="14.6331333"><ele>446.0</ele><time>2026-04-25T07:56:08.121Z</time></trkpt><trkpt lat="40.8905533" lon="14.6332383"><ele>446.0</ele><time>2026-04-25T07:56:09.121Z</time></trkpt><trkpt lat="40.8904967" lon="14.6333417"><ele>446.0</ele><time>2026-04-25T07:56:10.121Z</time></trkpt><trkpt lat="40.8904417" lon="14.63345"><ele>446.0</ele><time>2026-04-25T07:56:11.121Z</time></trkpt><trkpt lat="40.8903967" lon="14.6335583"><ele>448.99999999999994</ele><time>2026-04-25T07:56:12.121Z</time></trkpt><trkpt lat="40.89035" lon="14.6336617"><ele>452.0</ele><time>2026-04-25T07:56:13.121Z</time></trkpt><trkpt lat="40.8903033" lon="14.6337533"><ele>455.0</ele><time>2026-04-25T07:56:14.121Z</time></trkpt><trkpt lat="40.8902483" lon="14.633835"><ele>458.0</ele><time>2026-04-25T07:56:15.121Z</time></trkpt><trkpt lat="40.89018" lon="14.6339117"><ele>460.99999999999994</ele><time>2026-04-25T07:56:16.121Z</time></trkpt><trkpt lat="40.8901117" lon="14.6339983"><ele>464.0</ele><time>2026-04-25T07:56:17.121Z</time></trkpt><trkpt lat="40.8900383" lon="14.634085"><ele>457.79999999999995</ele><time>2026-04-25T07:56:18.121Z</time></trkpt><trkpt lat="40.88997" lon="14.634175"><ele>451.59999999999997</ele><time>2026-04-25T07:56:19.122Z</time></trkpt><trkpt lat="40.8899017" lon="14.634265"><ele>445.4</ele><time>2026-04-25T07:56:20.121Z</time></trkpt><trkpt lat="40.88984" lon="14.6343467"><ele>439.2</ele><time>2026-04-25T07:56:21.121Z</time></trkpt><trkpt lat="40.88977" lon="14.63443"><ele>433.0</ele><time>2026-04-25T07:56:22.121Z</time></trkpt><trkpt lat="40.8896983" lon="14.6345133"><ele>433.0</ele><time>2026-04-25T07:56:23.121Z</time></trkpt><trkpt lat="40.8896183" lon="14.6345917"><ele>432.99999999999994</ele><time>2026-04-25T07:56:24.121Z</time></trkpt><trkpt lat="40.8895317" lon="14.634665"><ele>432.99999999999994</ele><time>2026-04-25T07:56:25.122Z</time></trkpt><trkpt lat="40.8894433" lon="14.6347483"><ele>433.0</ele><time>2026-04-25T07:56:26.121Z</time></trkpt><trkpt lat="40.8893467" lon="14.6348367"><ele>433.0</ele><time>2026-04-25T07:56:27.121Z</time></trkpt><trkpt lat="40.8892533" lon="14.63493"><ele>428.0</ele><time>2026-04-25T07:56:28.121Z</time></trkpt><trkpt lat="40.88916" lon="14.6350133"><ele>422.99999999999994</ele><time>2026-04-25T07:56:29.121Z</time></trkpt><trkpt lat="40.8890717" lon="14.6350933"><ele>418.0</ele><time>2026-04-25T07:56:30.121Z</time></trkpt><trkpt lat="40.8889833" lon="14.6351867"><ele>413.0</ele><time>2026-04-25T07:56:31.121Z</time></trkpt><trkpt lat="40.888895" lon="14.6352867"><ele>408.0</ele><time>2026-04-25T07:56:32.121Z</time></trkpt><trkpt lat="40.888815" lon="14.6353717"><ele>408.0</ele><time>2026-04-25T07:56:33.121Z</time></trkpt><trkpt lat="40.8887467" lon="14.63545"><ele>408.0</ele><time>2026-04-25T07:56:34.121Z</time></trkpt><trkpt lat="40.888675" lon="14.635535"><ele>408.0</ele><time>2026-04-25T07:56:35.121Z</time></trkpt><trkpt lat="40.8886117" lon="14.6356133"><ele>408.0</ele><time>2026-04-25T07:56:36.121Z</time></trkpt><trkpt lat="40.8885633" lon="14.6356833"><ele>408.0</ele><time>2026-04-25T07:56:37.121Z</time></trkpt><trkpt lat="40.8884717" lon="14.63577"><ele>402.1666666666667</ele><time>2026-04-25T07:56:39.122Z</time></trkpt><trkpt lat="40.8883767" lon="14.635765"><ele>396.3333333333333</ele><time>2026-04-25T07:56:41.121Z</time></trkpt><trkpt lat="40.8882617" lon="14.635725"><ele>390.5</ele><time>2026-04-25T07:56:43.121Z</time></trkpt><trkpt lat="40.8881917" lon="14.6356967"><ele>384.66666666666663</ele><time>2026-04-25T07:56:44.121Z</time></trkpt><trkpt lat="40.8881217" lon="14.6356633"><ele>378.8333333333333</ele><time>2026-04-25T07:56:45.121Z</time></trkpt><trkpt lat="40.888055" lon="14.6356367"><ele>373.0</ele><time>2026-04-25T07:56:46.121Z</time></trkpt><trkpt lat="40.8879433" lon="14.635635"><ele>373.0</ele><time>2026-04-25T07:56:48.121Z</time></trkpt><trkpt lat="40.8878367" lon="14.635695"><ele>373.0</ele><time>2026-04-25T07:56:50.121Z</time></trkpt><trkpt lat="40.887775" lon="14.6357333"><ele>373.0</ele><time>2026-04-25T07:56:51.121Z</time></trkpt><trkpt lat="40.8877117" lon="14.63575"><ele>373.0</ele><time>2026-04-25T07:56:52.121Z</time></trkpt><trkpt lat="40.887585" lon="14.635775"><ele>373.0</ele><time>2026-04-25T07:56:54.121Z</time></trkpt><trkpt lat="40.8875167" lon="14.6358033"><ele>373.0</ele><time>2026-04-25T07:56:55.121Z</time></trkpt><trkpt lat="40.8874533" lon="14.63584"><ele>370.8333333333333</ele><time>2026-04-25T07:56:56.121Z</time></trkpt><trkpt lat="40.887395" lon="14.63588"><ele>368.66666666666663</ele><time>2026-04-25T07:56:57.121Z</time></trkpt><trkpt lat="40.8873367" lon="14.6359183"><ele>366.5</ele><time>2026-04-25T07:56:58.121Z</time></trkpt><trkpt lat="40.8872267" lon="14.6359483"><ele>364.3333333333333</ele><time>2026-04-25T07:57:00.121Z</time></trkpt><trkpt lat="40.887105" lon="14.6359117"><ele>362.1666666666667</ele><time>2026-04-25T07:57:02.121Z</time></trkpt><trkpt lat="40.8870367" lon="14.6358817"><ele>360.0</ele><time>2026-04-25T07:57:03.121Z</time></trkpt><trkpt lat="40.8869683" lon="14.6358483"><ele>360.0</ele><time>2026-04-25T07:57:04.121Z</time></trkpt><trkpt lat="40.886905" lon="14.63582"><ele>360.0</ele><time>2026-04-25T07:57:05.121Z</time></trkpt><trkpt lat="40.8868417" lon="14.635785"><ele>360.0</ele><time>2026-04-25T07:57:06.121Z</time></trkpt><trkpt lat="40.886775" lon="14.63575"><ele>360.0</ele><time>2026-04-25T07:57:07.121Z</time></trkpt><trkpt lat="40.8867067" lon="14.63571"><ele>360.0</ele><time>2026-04-25T07:57:08.121Z</time></trkpt><trkpt lat="40.8866383" lon="14.635675"><ele>360.0</ele><time>2026-04-25T07:57:09.121Z</time></trkpt><trkpt lat="40.88657" lon="14.6356333"><ele>360.0</ele><time>2026-04-25T07:57:10.121Z</time></trkpt><trkpt lat="40.8864967" lon="14.635595"><ele>356.6666666666667</ele><time>2026-04-25T07:57:11.121Z</time></trkpt><trkpt lat="40.88642" lon="14.6355533"><ele>353.3333333333333</ele><time>2026-04-25T07:57:12.121Z</time></trkpt><trkpt lat="40.886345" lon="14.63551"><ele>350.0</ele><time>2026-04-25T07:57:13.121Z</time></trkpt><trkpt lat="40.88628" lon="14.635465"><ele>346.66666666666663</ele><time>2026-04-25T07:57:14.121Z</time></trkpt><trkpt lat="40.8862133" lon="14.6354133"><ele>343.3333333333333</ele><time>2026-04-25T07:57:15.121Z</time></trkpt><trkpt lat="40.8861517" lon="14.6353533"><ele>340.0</ele><time>2026-04-25T07:57:16.121Z</time></trkpt><trkpt lat="40.8860917" lon="14.63529"><ele>338.5</ele><time>2026-04-25T07:57:17.121Z</time></trkpt><trkpt lat="40.8860267" lon="14.6352233"><ele>337.0</ele><time>2026-04-25T07:57:18.121Z</time></trkpt><trkpt lat="40.8859783" lon="14.635165"><ele>335.5</ele><time>2026-04-25T07:57:19.121Z</time></trkpt><trkpt lat="40.8859033" lon="14.63507"><ele>334.0</ele><time>2026-04-25T07:57:21.121Z</time></trkpt><trkpt lat="40.8858533" lon="14.63501"><ele>332.5</ele><time>2026-04-25T07:57:23.121Z</time></trkpt><trkpt lat="40.885775" lon="14.634975"><ele>331.0</ele><time>2026-04-25T07:57:26.121Z</time></trkpt><trkpt lat="40.8857017" lon="14.635025"><ele>329.6</ele><time>2026-04-25T07:57:28.121Z</time></trkpt><trkpt lat="40.885625" lon="14.6351167"><ele>328.20000000000005</ele><time>2026-04-25T07:57:30.121Z</time></trkpt><trkpt lat="40.8855867" lon="14.6352067"><ele>326.79999999999995</ele><time>2026-04-25T07:57:32.121Z</time></trkpt><trkpt lat="40.8855333" lon="14.6353317"><ele>325.4</ele><time>2026-04-25T07:57:34.121Z</time></trkpt><trkpt lat="40.8855033" lon="14.6354317"><ele>324.0</ele><time>2026-04-25T07:57:35.121Z</time></trkpt><trkpt lat="40.8854617" lon="14.6355433"><ele>324.0</ele><time>2026-04-25T07:57:36.121Z</time></trkpt><trkpt lat="40.8854167" lon="14.6356617"><ele>324.0</ele><time>2026-04-25T07:57:37.121Z</time></trkpt><trkpt lat="40.8853783" lon="14.6357833"><ele>324.0</ele><time>2026-04-25T07:57:38.121Z</time></trkpt><trkpt lat="40.88534" lon="14.635895"><ele>324.0</ele><time>2026-04-25T07:57:39.121Z</time></trkpt><trkpt lat="40.8853083" lon="14.6359917"><ele>324.0</ele><time>2026-04-25T07:57:40.121Z</time></trkpt><trkpt lat="40.8852783" lon="14.6361067"><ele>325.2</ele><time>2026-04-25T07:57:41.121Z</time></trkpt><trkpt lat="40.8852467" lon="14.6362383"><ele>326.4</ele><time>2026-04-25T07:57:42.121Z</time></trkpt><trkpt lat="40.8852133" lon="14.6363733"><ele>327.6</ele><time>2026-04-25T07:57:43.121Z</time></trkpt><trkpt lat="40.8851767" lon="14.636515"><ele>328.8</ele><time>2026-04-25T07:57:44.121Z</time></trkpt><trkpt lat="40.88515" lon="14.6366517"><ele>330.0</ele><time>2026-04-25T07:57:45.121Z</time></trkpt><trkpt lat="40.88513" lon="14.636775"><ele>330.0</ele><time>2026-04-25T07:57:46.121Z</time></trkpt><trkpt lat="40.8851233" lon="14.6368783"><ele>330.0</ele><time>2026-04-25T07:57:47.121Z</time></trkpt><trkpt lat="40.8851167" lon="14.6369717"><ele>330.0</ele><time>2026-04-25T07:57:48.121Z</time></trkpt><trkpt lat="40.8851083" lon="14.6371417"><ele>330.0</ele><time>2026-04-25T07:57:50.121Z</time></trkpt><trkpt lat="40.8850883" lon="14.6372467"><ele>330.0</ele><time>2026-04-25T07:57:51.121Z</time></trkpt><trkpt lat="40.8850617" lon="14.6373667"><ele>328.2</ele><time>2026-04-25T07:57:52.121Z</time></trkpt><trkpt lat="40.8850333" lon="14.6374917"><ele>326.4</ele><time>2026-04-25T07:57:53.121Z</time></trkpt><trkpt lat="40.8850067" lon="14.637625"><ele>324.6</ele><time>2026-04-25T07:57:54.121Z</time></trkpt><trkpt lat="40.8849917" lon="14.637755"><ele>322.8</ele><time>2026-04-25T07:57:55.121Z</time></trkpt><trkpt lat="40.8849817" lon="14.6378833"><ele>321.0</ele><time>2026-04-25T07:57:56.121Z</time></trkpt><trkpt lat="40.8849767" lon="14.6380033"><ele>321.0</ele><time>2026-04-25T07:57:57.121Z</time></trkpt><trkpt lat="40.8849767" lon="14.6381"><ele>321.0</ele><time>2026-04-25T07:57:58.121Z</time></trkpt><trkpt lat="40.8849517" lon="14.6382083"><ele>321.0</ele><time>2026-04-25T07:58:00.121Z</time></trkpt><trkpt lat="40.8848767" lon="14.6382817"><ele>321.0</ele><time>2026-04-25T07:58:02.121Z</time></trkpt><trkpt lat="40.884815" lon="14.638305"><ele>321.0</ele><time>2026-04-25T07:58:03.121Z</time></trkpt><trkpt lat="40.8847417" lon="14.6383233"><ele>321.0</ele><time>2026-04-25T07:58:04.121Z</time></trkpt><trkpt lat="40.884665" lon="14.6383367"><ele>321.0</ele><time>2026-04-25T07:58:05.121Z</time></trkpt><trkpt lat="40.8845833" lon="14.6383433"><ele>321.0</ele><time>2026-04-25T07:58:06.121Z</time></trkpt><trkpt lat="40.8845083" lon="14.6383433"><ele>321.0</ele><time>2026-04-25T07:58:07.121Z</time></trkpt><trkpt lat="40.8844467" lon="14.6383217"><ele>321.0</ele><time>2026-04-25T07:58:08.121Z</time></trkpt><trkpt lat="40.8843833" lon="14.6382867"><ele>321.0</ele><time>2026-04-25T07:58:09.121Z</time></trkpt><trkpt lat="40.8843117" lon="14.6382433"><ele>321.0</ele><time>2026-04-25T07:58:10.121Z</time></trkpt><trkpt lat="40.8842417" lon="14.6381817"><ele>318.8333333333333</ele><time>2026-04-25T07:58:11.121Z</time></trkpt><trkpt lat="40.8841783" lon="14.638115"><ele>316.6666666666667</ele><time>2026-04-25T07:58:12.121Z</time></trkpt><trkpt lat="40.8841233" lon="14.63805"><ele>314.5</ele><time>2026-04-25T07:58:13.121Z</time></trkpt><trkpt lat="40.8840367" lon="14.6379483"><ele>312.33333333333337</ele><time>2026-04-25T07:58:15.121Z</time></trkpt><trkpt lat="40.8839633" lon="14.637865"><ele>310.1666666666667</ele><time>2026-04-25T07:58:17.121Z</time></trkpt><trkpt lat="40.8839183" lon="14.6377783"><ele>308.0</ele><time>2026-04-25T07:58:21.121Z</time></trkpt><trkpt lat="40.883925" lon="14.6376417"><ele>308.0</ele><time>2026-04-25T07:58:23.121Z</time></trkpt><trkpt lat="40.8839433" lon="14.6375417"><ele>308.0</ele><time>2026-04-25T07:58:24.121Z</time></trkpt><trkpt lat="40.883965" lon="14.6374317"><ele>308.0</ele><time>2026-04-25T07:58:25.121Z</time></trkpt><trkpt lat="40.88398" lon="14.6373267"><ele>308.0</ele><time>2026-04-25T07:58:26.122Z</time></trkpt><trkpt lat="40.8839667" lon="14.6372217"><ele>308.0</ele><time>2026-04-25T07:58:27.121Z</time></trkpt><trkpt lat="40.883945" lon="14.6371083"><ele>308.0</ele><time>2026-04-25T07:58:28.121Z</time></trkpt><trkpt lat="40.8839133" lon="14.6369967"><ele>307.0</ele><time>2026-04-25T07:58:29.121Z</time></trkpt><trkpt lat="40.8838767" lon="14.6368783"><ele>306.0</ele><time>2026-04-25T07:58:30.121Z</time></trkpt><trkpt lat="40.8838333" lon="14.63677"><ele>305.0</ele><time>2026-04-25T07:58:31.121Z</time></trkpt><trkpt lat="40.8837917" lon="14.63666"><ele>304.0</ele><time>2026-04-25T07:58:32.121Z</time></trkpt><trkpt lat="40.8837567" lon="14.6365667"><ele>303.0</ele><time>2026-04-25T07:58:33.121Z</time></trkpt><trkpt lat="40.883715" lon="14.6364867"><ele>302.0</ele><time>2026-04-25T07:58:34.121Z</time></trkpt><trkpt lat="40.8836683" lon="14.6364117"><ele>302.0</ele><time>2026-04-25T07:58:35.121Z</time></trkpt><trkpt lat="40.8836217" lon="14.6363517"><ele>302.0</ele><time>2026-04-25T07:58:36.121Z</time></trkpt><trkpt lat="40.88357" lon="14.6362833"><ele>302.0</ele><time>2026-04-25T07:58:37.121Z</time></trkpt><trkpt lat="40.8835183" lon="14.6361833"><ele>302.0</ele><time>2026-04-25T07:58:38.121Z</time></trkpt><trkpt lat="40.8834833" lon="14.63611"><ele>302.0</ele><time>2026-04-25T07:58:39.121Z</time></trkpt><trkpt lat="40.8834617" lon="14.6359983"><ele>302.0</ele><time>2026-04-25T07:58:40.121Z</time></trkpt><trkpt lat="40.8834367" lon="14.63589"><ele>300.33333333333337</ele><time>2026-04-25T07:58:41.121Z</time></trkpt><trkpt lat="40.883415" lon="14.635785"><ele>298.6666666666667</ele><time>2026-04-25T07:58:42.122Z</time></trkpt><trkpt lat="40.8833933" lon="14.6356817"><ele>297.0</ele><time>2026-04-25T07:58:43.121Z</time></trkpt><trkpt lat="40.883375" lon="14.63559"><ele>295.3333333333333</ele><time>2026-04-25T07:58:44.121Z</time></trkpt><trkpt lat="40.8833567" lon="14.6354983"><ele>293.66666666666663</ele><time>2026-04-25T07:58:45.121Z</time></trkpt><trkpt lat="40.8833317" lon="14.6354017"><ele>292.0</ele><time>2026-04-25T07:58:46.121Z</time></trkpt><trkpt lat="40.883305" lon="14.6352917"><ele>290.5</ele><time>2026-04-25T07:58:47.121Z</time></trkpt><trkpt lat="40.883275" lon="14.6351783"><ele>289.0</ele><time>2026-04-25T07:58:48.121Z</time></trkpt><trkpt lat="40.8832517" lon="14.6350633"><ele>287.5</ele><time>2026-04-25T07:58:49.121Z</time></trkpt><trkpt lat="40.883225" lon="14.634955"><ele>286.0</ele><time>2026-04-25T07:58:50.121Z</time></trkpt><trkpt lat="40.883205" lon="14.6348483"><ele>284.5</ele><time>2026-04-25T07:58:51.122Z</time></trkpt><trkpt lat="40.8831883" lon="14.6347483"><ele>283.0</ele><time>2026-04-25T07:58:52.121Z</time></trkpt><trkpt lat="40.8831767" lon="14.634645"><ele>283.0</ele><time>2026-04-25T07:58:53.121Z</time></trkpt><trkpt lat="40.88316" lon="14.63455"><ele>283.0</ele><time>2026-04-25T07:58:54.121Z</time></trkpt><trkpt lat="40.8831467" lon="14.6344583"><ele>283.0</ele><time>2026-04-25T07:58:55.121Z</time></trkpt><trkpt lat="40.88313" lon="14.63437"><ele>283.0</ele><time>2026-04-25T07:58:56.121Z</time></trkpt><trkpt lat="40.8831033" lon="14.63423"><ele>283.0</ele><time>2026-04-25T07:58:58.121Z</time></trkpt><trkpt lat="40.883085" lon="14.634085"><ele>283.0</ele><time>2026-04-25T07:59:00.121Z</time></trkpt><trkpt lat="40.88305" lon="14.6339133"><ele>282.8333333333333</ele><time>2026-04-25T07:59:02.121Z</time></trkpt><trkpt lat="40.8830267" lon="14.6338217"><ele>282.66666666666663</ele><time>2026-04-25T07:59:03.121Z</time></trkpt><trkpt lat="40.883005" lon="14.63371"><ele>282.5</ele><time>2026-04-25T07:59:04.121Z</time></trkpt><trkpt lat="40.88298" lon="14.6335917"><ele>282.3333333333333</ele><time>2026-04-25T07:59:05.121Z</time></trkpt><trkpt lat="40.8829583" lon="14.6334667"><ele>282.1666666666667</ele><time>2026-04-25T07:59:06.121Z</time></trkpt><trkpt lat="40.8829467" lon="14.6333417"><ele>282.0</ele><time>2026-04-25T07:59:07.121Z</time></trkpt><trkpt lat="40.8829433" lon="14.633215"><ele>282.0</ele><time>2026-04-25T07:59:08.121Z</time></trkpt><trkpt lat="40.882945" lon="14.6330883"><ele>282.0</ele><time>2026-04-25T07:59:09.121Z</time></trkpt><trkpt lat="40.882955" lon="14.632965"><ele>282.0</ele><time>2026-04-25T07:59:10.121Z</time></trkpt><trkpt lat="40.8829667" lon="14.63285"><ele>282.0</ele><time>2026-04-25T07:59:11.121Z</time></trkpt><trkpt lat="40.882985" lon="14.6327283"><ele>282.0</ele><time>2026-04-25T07:59:12.121Z</time></trkpt><trkpt lat="40.8830083" lon="14.632615"><ele>281.42857142857144</ele><time>2026-04-25T07:59:13.121Z</time></trkpt><trkpt lat="40.883025" lon="14.632515"><ele>280.85714285714283</ele><time>2026-04-25T07:59:14.121Z</time></trkpt><trkpt lat="40.883045" lon="14.63242"><ele>280.2857142857143</ele><time>2026-04-25T07:59:15.121Z</time></trkpt><trkpt lat="40.8830667" lon="14.632335"><ele>279.7142857142857</ele><time>2026-04-25T07:59:16.121Z</time></trkpt><trkpt lat="40.8830933" lon="14.6322517"><ele>279.14285714285717</ele><time>2026-04-25T07:59:17.121Z</time></trkpt><trkpt lat="40.88313" lon="14.6321617"><ele>278.57142857142856</ele><time>2026-04-25T07:59:18.121Z</time></trkpt><trkpt lat="40.8831617" lon="14.632085"><ele>278.0</ele><time>2026-04-25T07:59:19.121Z</time></trkpt><trkpt lat="40.8831733" lon="14.63197"><ele>278.0</ele><time>2026-04-25T07:59:21.121Z</time></trkpt><trkpt lat="40.8830833" lon="14.6319883"><ele>278.0</ele><time>2026-04-25T07:59:24.121Z</time></trkpt><trkpt lat="40.8830483" lon="14.6320683"><ele>278.0</ele><time>2026-04-25T07:59:25.121Z</time></trkpt><trkpt lat="40.88301" lon="14.6321933"><ele>278.0</ele><time>2026-04-25T07:59:26.121Z</time></trkpt><trkpt lat="40.8829483" lon="14.63233"><ele>278.0</ele><time>2026-04-25T07:59:27.121Z</time></trkpt><trkpt lat="40.8828983" lon="14.6324683"><ele>278.0</ele><time>2026-04-25T07:59:28.121Z</time></trkpt><trkpt lat="40.8828483" lon="14.6326083"><ele>278.0</ele><time>2026-04-25T07:59:29.121Z</time></trkpt><trkpt lat="40.8827917" lon="14.6327517"><ele>278.0</ele><time>2026-04-25T07:59:30.121Z</time></trkpt><trkpt lat="40.88274" lon="14.6328967"><ele>278.0</ele><time>2026-04-25T07:59:31.122Z</time></trkpt><trkpt lat="40.8826933" lon="14.6330283"><ele>278.6666666666667</ele><time>2026-04-25T07:59:32.121Z</time></trkpt><trkpt lat="40.8826517" lon="14.6331567"><ele>279.33333333333337</ele><time>2026-04-25T07:59:33.121Z</time></trkpt><trkpt lat="40.8826283" lon="14.63326"><ele>280.0</ele><time>2026-04-25T07:59:34.121Z</time></trkpt><trkpt lat="40.8826233" lon="14.6333533"><ele>280.6666666666667</ele><time>2026-04-25T07:59:35.121Z</time></trkpt><trkpt lat="40.8826367" lon="14.6334883"><ele>281.3333333333333</ele><time>2026-04-25T07:59:37.121Z</time></trkpt><trkpt lat="40.8825833" lon="14.6335333"><ele>282.0</ele><time>2026-04-25T07:59:39.121Z</time></trkpt><trkpt lat="40.88254" lon="14.63343"><ele>281.2</ele><time>2026-04-25T07:59:41.121Z</time></trkpt><trkpt lat="40.88253" lon="14.6333317"><ele>280.4</ele><time>2026-04-25T07:59:42.121Z</time></trkpt><trkpt lat="40.8825333" lon="14.6332033"><ele>279.6</ele><time>2026-04-25T07:59:43.121Z</time></trkpt><trkpt lat="40.8825567" lon="14.6330583"><ele>278.8</ele><time>2026-04-25T07:59:44.121Z</time></trkpt><trkpt lat="40.8825933" lon="14.6328967"><ele>278.0</ele><time>2026-04-25T07:59:45.121Z</time></trkpt><trkpt lat="40.88263" lon="14.6327333"><ele>278.0</ele><time>2026-04-25T07:59:46.121Z</time></trkpt><trkpt lat="40.8826567" lon="14.6325617"><ele>278.0</ele><time>2026-04-25T07:59:47.121Z</time></trkpt><trkpt lat="40.882675" lon="14.6323817"><ele>278.0</ele><time>2026-04-25T07:59:48.121Z</time></trkpt><trkpt lat="40.8826917" lon="14.6321967"><ele>278.0</ele><time>2026-04-25T07:59:49.121Z</time></trkpt><trkpt lat="40.8827117" lon="14.6320067"><ele>275.75</ele><time>2026-04-25T07:59:50.121Z</time></trkpt><trkpt lat="40.8827383" lon="14.6318283"><ele>273.5</ele><time>2026-04-25T07:59:51.121Z</time></trkpt><trkpt lat="40.8827767" lon="14.6316617"><ele>271.25</ele><time>2026-04-25T07:59:52.121Z</time></trkpt><trkpt lat="40.8828317" lon="14.6314983"><ele>269.0</ele><time>2026-04-25T07:59:53.121Z</time></trkpt><trkpt lat="40.8829033" lon="14.6313317"><ele>269.0</ele><time>2026-04-25T07:59:54.121Z</time></trkpt><trkpt lat="40.8829683" lon="14.63118"><ele>269.0</ele><time>2026-04-25T07:59:55.121Z</time></trkpt><trkpt lat="40.8830217" lon="14.63103"><ele>269.0</ele><time>2026-04-25T07:59:56.121Z</time></trkpt><trkpt lat="40.88307" lon="14.6308817"><ele>269.0</ele><time>2026-04-25T07:59:57.121Z</time></trkpt><trkpt lat="40.883115" lon="14.6307083"><ele>264.0</ele><time>2026-04-25T07:59:58.121Z</time></trkpt><trkpt lat="40.8831683" lon="14.6305383"><ele>259.0</ele><time>2026-04-25T07:59:59.121Z</time></trkpt><trkpt lat="40.88323" lon="14.6303783"><ele>254.0</ele><time>2026-04-25T08:00:00.121Z</time></trkpt><trkpt lat="40.8833" lon="14.63022"><ele>249.0</ele><time>2026-04-25T08:00:01.121Z</time></trkpt><trkpt lat="40.88335" lon="14.6300567"><ele>247.79999999999998</ele><time>2026-04-25T08:00:02.122Z</time></trkpt><trkpt lat="40.88339" lon="14.6299067"><ele>246.59999999999997</ele><time>2026-04-25T08:00:03.121Z</time></trkpt><trkpt lat="40.88342" lon="14.6297717"><ele>245.4</ele><time>2026-04-25T08:00:04.122Z</time></trkpt><trkpt lat="40.88346" lon="14.6296567"><ele>244.2</ele><time>2026-04-25T08:00:05.121Z</time></trkpt><trkpt lat="40.88352" lon="14.6295567"><ele>243.0</ele><time>2026-04-25T08:00:06.121Z</time></trkpt><trkpt lat="40.883595" lon="14.629485"><ele>240.25</ele><time>2026-04-25T08:00:07.121Z</time></trkpt><trkpt lat="40.8836917" lon="14.6293983"><ele>237.5</ele><time>2026-04-25T08:00:08.122Z</time></trkpt><trkpt lat="40.883805" lon="14.629315"><ele>234.75</ele><time>2026-04-25T08:00:09.121Z</time></trkpt><trkpt lat="40.8838817" lon="14.6291933"><ele>232.0</ele><time>2026-04-25T08:00:10.121Z</time></trkpt><trkpt lat="40.8839433" lon="14.629075"><ele>232.00000000000003</ele><time>2026-04-25T08:00:11.121Z</time></trkpt><trkpt lat="40.88398" lon="14.62898"><ele>232.0</ele><time>2026-04-25T08:00:12.121Z</time></trkpt><trkpt lat="40.8839883" lon="14.6288967"><ele>232.00000000000003</ele><time>2026-04-25T08:00:13.121Z</time></trkpt><trkpt lat="40.8839667" lon="14.6288133"><ele>232.00000000000003</ele><time>2026-04-25T08:00:14.121Z</time></trkpt><trkpt lat="40.8839183" lon="14.628745"><ele>232.0</ele><time>2026-04-25T08:00:15.121Z</time></trkpt><trkpt lat="40.8838533" lon="14.6287067"><ele>232.00000000000003</ele><time>2026-04-25T08:00:16.121Z</time></trkpt><trkpt lat="40.8837867" lon="14.62871"><ele>232.00000000000003</ele><time>2026-04-25T08:00:17.121Z</time></trkpt><trkpt lat="40.8837117" lon="14.6287533"><ele>232.0</ele><time>2026-04-25T08:00:18.121Z</time></trkpt><trkpt lat="40.88363" lon="14.62885"><ele>232.0</ele><time>2026-04-25T08:00:19.121Z</time></trkpt><trkpt lat="40.88354" lon="14.6289633"><ele>232.0</ele><time>2026-04-25T08:00:20.121Z</time></trkpt><trkpt lat="40.8834567" lon="14.62908"><ele>232.0</ele><time>2026-04-25T08:00:21.121Z</time></trkpt><trkpt lat="40.88338" lon="14.6292"><ele>232.75</ele><time>2026-04-25T08:00:22.121Z</time></trkpt><trkpt lat="40.8833133" lon="14.6293517"><ele>233.5</ele><time>2026-04-25T08:00:23.121Z</time></trkpt><trkpt lat="40.8832583" lon="14.6295133"><ele>234.25</ele><time>2026-04-25T08:00:24.121Z</time></trkpt><trkpt lat="40.8832" lon="14.6296783"><ele>235.0</ele><time>2026-04-25T08:00:25.121Z</time></trkpt><trkpt lat="40.8831383" lon="14.629835"><ele>235.0</ele><time>2026-04-25T08:00:26.121Z</time></trkpt><trkpt lat="40.8830533" lon="14.6299967"><ele>235.0</ele><time>2026-04-25T08:00:27.121Z</time></trkpt><trkpt lat="40.8829533" lon="14.6301683"><ele>235.0</ele><time>2026-04-25T08:00:28.121Z</time></trkpt><trkpt lat="40.88286" lon="14.6303467"><ele>239.66666666666666</ele><time>2026-04-25T08:00:29.121Z</time></trkpt><trkpt lat="40.88277" lon="14.63054"><ele>244.33333333333331</ele><time>2026-04-25T08:00:30.121Z</time></trkpt><trkpt lat="40.882675" lon="14.6307367"><ele>249.0</ele><time>2026-04-25T08:00:31.121Z</time></trkpt><trkpt lat="40.8825833" lon="14.6309283"><ele>245.0</ele><time>2026-04-25T08:00:32.121Z</time></trkpt><trkpt lat="40.8825033" lon="14.6311067"><ele>241.0</ele><time>2026-04-25T08:00:33.121Z</time></trkpt><trkpt lat="40.8824283" lon="14.6312717"><ele>237.0</ele><time>2026-04-25T08:00:34.121Z</time></trkpt><trkpt lat="40.8823533" lon="14.631425"><ele>233.0</ele><time>2026-04-25T08:00:35.121Z</time></trkpt><trkpt lat="40.8822817" lon="14.6315717"><ele>233.0</ele><time>2026-04-25T08:00:36.121Z</time></trkpt><trkpt lat="40.8822067" lon="14.6317233"><ele>233.0</ele><time>2026-04-25T08:00:37.121Z</time></trkpt><trkpt lat="40.88214" lon="14.6318633"><ele>233.0</ele><time>2026-04-25T08:00:38.121Z</time></trkpt><trkpt lat="40.8820667" lon="14.6320167"><ele>233.0</ele><time>2026-04-25T08:00:39.121Z</time></trkpt><trkpt lat="40.88199" lon="14.63217"><ele>237.0</ele><time>2026-04-25T08:00:40.121Z</time></trkpt><trkpt lat="40.881915" lon="14.6323267"><ele>241.0</ele><time>2026-04-25T08:00:41.121Z</time></trkpt><trkpt lat="40.88184" lon="14.632475"><ele>245.0</ele><time>2026-04-25T08:00:42.121Z</time></trkpt><trkpt lat="40.8817733" lon="14.6326033"><ele>249.0</ele><time>2026-04-25T08:00:43.121Z</time></trkpt><trkpt lat="40.8817133" lon="14.63273"><ele>245.0</ele><time>2026-04-25T08:00:44.121Z</time></trkpt><trkpt lat="40.8816667" lon="14.6328367"><ele>241.0</ele><time>2026-04-25T08:00:45.121Z</time></trkpt><trkpt lat="40.8816133" lon="14.6329267"><ele>237.0</ele><time>2026-04-25T08:00:46.121Z</time></trkpt><trkpt lat="40.8815617" lon="14.63298"><ele>233.0</ele><time>2026-04-25T08:00:47.121Z</time></trkpt><trkpt lat="40.8814617" lon="14.6329617"><ele>229.0</ele><time>2026-04-25T08:00:49.121Z</time></trkpt><trkpt lat="40.88141" lon="14.632905"><ele>225.0</ele><time>2026-04-25T08:00:50.121Z</time></trkpt><trkpt lat="40.8813567" lon="14.6328383"><ele>222.0</ele><time>2026-04-25T08:00:51.121Z</time></trkpt><trkpt lat="40.881295" lon="14.6327633"><ele>219.0</ele><time>2026-04-25T08:00:52.121Z</time></trkpt><trkpt lat="40.8812383" lon="14.632685"><ele>216.0</ele><time>2026-04-25T08:00:53.121Z</time></trkpt><trkpt lat="40.8811817" lon="14.63262"><ele>213.0</ele><time>2026-04-25T08:00:54.121Z</time></trkpt><trkpt lat="40.8811367" lon="14.63256"><ele>210.0</ele><time>2026-04-25T08:00:55.121Z</time></trkpt><trkpt lat="40.8810583" lon="14.63244"><ele>207.0</ele><time>2026-04-25T08:00:57.121Z</time></trkpt><trkpt lat="40.8809917" lon="14.632325"><ele>207.39999999999998</ele><time>2026-04-25T08:00:59.121Z</time></trkpt><trkpt lat="40.8809217" lon="14.63219"><ele>207.79999999999998</ele><time>2026-04-25T08:01:01.122Z</time></trkpt><trkpt lat="40.8808667" lon="14.6320683"><ele>208.2</ele><time>2026-04-25T08:01:03.121Z</time></trkpt><trkpt lat="40.8808167" lon="14.6319467"><ele>208.6</ele><time>2026-04-25T08:01:05.121Z</time></trkpt><trkpt lat="40.88076" lon="14.6318283"><ele>209.0</ele><time>2026-04-25T08:01:07.121Z</time></trkpt><trkpt lat="40.8807017" lon="14.6317067"><ele>206.83333333333334</ele><time>2026-04-25T08:01:09.121Z</time></trkpt><trkpt lat="40.8806367" lon="14.6315833"><ele>204.66666666666669</ele><time>2026-04-25T08:01:11.121Z</time></trkpt><trkpt lat="40.8805983" lon="14.6315017"><ele>202.5</ele><time>2026-04-25T08:01:12.121Z</time></trkpt><trkpt lat="40.880555" lon="14.631405"><ele>200.33333333333331</ele><time>2026-04-25T08:01:13.121Z</time></trkpt><trkpt lat="40.8805083" lon="14.63131"><ele>198.16666666666666</ele><time>2026-04-25T08:01:14.121Z</time></trkpt><trkpt lat="40.880455" lon="14.6312267"><ele>196.0</ele><time>2026-04-25T08:01:15.121Z</time></trkpt><trkpt lat="40.8804033" lon="14.6311667"><ele>194.20000000000002</ele><time>2026-04-25T08:01:16.121Z</time></trkpt><trkpt lat="40.8803483" lon="14.63112"><ele>192.4</ele><time>2026-04-25T08:01:17.121Z</time></trkpt><trkpt lat="40.8802333" lon="14.631055"><ele>190.6</ele><time>2026-04-25T08:01:19.121Z</time></trkpt><trkpt lat="40.88013" lon="14.631015"><ele>188.8</ele><time>2026-04-25T08:01:21.122Z</time></trkpt><trkpt lat="40.8800517" lon="14.6309917"><ele>187.0</ele><time>2026-04-25T08:01:23.122Z</time></trkpt><trkpt lat="40.879965" lon="14.6309783"><ele>187.0</ele><time>2026-04-25T08:01:26.121Z</time></trkpt><trkpt lat="40.8798933" lon="14.6310117"><ele>187.0</ele><time>2026-04-25T08:01:28.121Z</time></trkpt><trkpt lat="40.8798167" lon="14.63107"><ele>187.0</ele><time>2026-04-25T08:01:30.121Z</time></trkpt><trkpt lat="40.8797333" lon="14.6311317"><ele>187.0</ele><time>2026-04-25T08:01:32.121Z</time></trkpt><trkpt lat="40.8796567" lon="14.6311683"><ele>187.0</ele><time>2026-04-25T08:01:34.121Z</time></trkpt><trkpt lat="40.8795933" lon="14.6312217"><ele>187.0</ele><time>2026-04-25T08:01:36.121Z</time></trkpt><trkpt lat="40.8795233" lon="14.6313217"><ele>189.0</ele><time>2026-04-25T08:01:38.121Z</time></trkpt><trkpt lat="40.8794933" lon="14.6313983"><ele>191.0</ele><time>2026-04-25T08:01:39.121Z</time></trkpt><trkpt lat="40.8794633" lon="14.6314833"><ele>193.0</ele><time>2026-04-25T08:01:40.121Z</time></trkpt><trkpt lat="40.8794367" lon="14.6315817"><ele>195.0</ele><time>2026-04-25T08:01:41.121Z</time></trkpt><trkpt lat="40.8794217" lon="14.6316717"><ele>197.0</ele><time>2026-04-25T08:01:42.121Z</time></trkpt><trkpt lat="40.8794083" lon="14.6317667"><ele>199.0</ele><time>2026-04-25T08:01:43.121Z</time></trkpt><trkpt lat="40.8794083" lon="14.631865"><ele>201.0</ele><time>2026-04-25T08:01:44.121Z</time></trkpt><trkpt lat="40.879405" lon="14.63197"><ele>202.5</ele><time>2026-04-25T08:01:45.121Z</time></trkpt><trkpt lat="40.8794017" lon="14.6320783"><ele>204.0</ele><time>2026-04-25T08:01:46.122Z</time></trkpt><trkpt lat="40.8793967" lon="14.6321833"><ele>205.5</ele><time>2026-04-25T08:01:47.121Z</time></trkpt><trkpt lat="40.8793933" lon="14.6322867"><ele>207.0</ele><time>2026-04-25T08:01:48.121Z</time></trkpt><trkpt lat="40.8793917" lon="14.6323833"><ele>208.5</ele><time>2026-04-25T08:01:49.121Z</time></trkpt><trkpt lat="40.87938" lon="14.6325333"><ele>210.0</ele><time>2026-04-25T08:01:51.121Z</time></trkpt><trkpt lat="40.879375" lon="14.632645"><ele>210.0</ele><time>2026-04-25T08:01:53.121Z</time></trkpt><trkpt lat="40.879375" lon="14.632755"><ele>210.0</ele><time>2026-04-25T08:01:55.121Z</time></trkpt><trkpt lat="40.879355" lon="14.6328717"><ele>210.0</ele><time>2026-04-25T08:01:57.121Z</time></trkpt><trkpt lat="40.8793283" lon="14.6329867"><ele>210.0</ele><time>2026-04-25T08:01:59.121Z</time></trkpt><trkpt lat="40.8792917" lon="14.6330917"><ele>210.0</ele><time>2026-04-25T08:02:01.122Z</time></trkpt><trkpt lat="40.8792217" lon="14.6331583"><ele>210.0</ele><time>2026-04-25T08:02:03.121Z</time></trkpt><trkpt lat="40.8791233" lon="14.6332267"><ele>207.85714285714286</ele><time>2026-04-25T08:02:05.121Z</time></trkpt><trkpt lat="40.8790683" lon="14.6332683"><ele>205.71428571428572</ele><time>2026-04-25T08:02:06.121Z</time></trkpt><trkpt lat="40.8790083" lon="14.6333083"><ele>203.57142857142856</ele><time>2026-04-25T08:02:07.121Z</time></trkpt><trkpt lat="40.8789517" lon="14.6333533"><ele>201.42857142857144</ele><time>2026-04-25T08:02:08.121Z</time></trkpt><trkpt lat="40.8788917" lon="14.6334017"><ele>199.28571428571428</ele><time>2026-04-25T08:02:09.121Z</time></trkpt><trkpt lat="40.8788367" lon="14.6334433"><ele>197.14285714285714</ele><time>2026-04-25T08:02:10.121Z</time></trkpt><trkpt lat="40.8787483" lon="14.63351"><ele>195.0</ele><time>2026-04-25T08:02:12.121Z</time></trkpt><trkpt lat="40.8786967" lon="14.6335767"><ele>195.0</ele><time>2026-04-25T08:02:14.122Z</time></trkpt><trkpt lat="40.8786417" lon="14.6336467"><ele>195.0</ele><time>2026-04-25T08:02:18.122Z</time></trkpt><trkpt lat="40.8785867" lon="14.6337067"><ele>195.0</ele><time>2026-04-25T08:02:20.121Z</time></trkpt><trkpt lat="40.8785217" lon="14.6337533"><ele>195.0</ele><time>2026-04-25T08:02:22.121Z</time></trkpt><trkpt lat="40.8784583" lon="14.6337867"><ele>195.0</ele><time>2026-04-25T08:02:24.121Z</time></trkpt><trkpt lat="40.8783617" lon="14.633815"><ele>195.0</ele><time>2026-04-25T08:02:26.121Z</time></trkpt><trkpt lat="40.8782917" lon="14.6338383"><ele>195.0</ele><time>2026-04-25T08:02:27.121Z</time></trkpt><trkpt lat="40.8782117" lon="14.6338633"><ele>195.0</ele><time>2026-04-25T08:02:28.121Z</time></trkpt><trkpt lat="40.8781267" lon="14.6338883"><ele>195.0</ele><time>2026-04-25T08:02:29.121Z</time></trkpt><trkpt lat="40.8780367" lon="14.6339233"><ele>195.0</ele><time>2026-04-25T08:02:30.121Z</time></trkpt><trkpt lat="40.8779483" lon="14.63397"><ele>195.0</ele><time>2026-04-25T08:02:31.121Z</time></trkpt><trkpt lat="40.87787" lon="14.634025"><ele>195.0</ele><time>2026-04-25T08:02:32.121Z</time></trkpt><trkpt lat="40.87781" lon="14.6340733"><ele>195.0</ele><time>2026-04-25T08:02:33.121Z</time></trkpt><trkpt lat="40.8777417" lon="14.6341167"><ele>195.0</ele><time>2026-04-25T08:02:34.121Z</time></trkpt><trkpt lat="40.877675" lon="14.6341483"><ele>195.0</ele><time>2026-04-25T08:02:35.121Z</time></trkpt><trkpt lat="40.8775933" lon="14.634165"><ele>195.0</ele><time>2026-04-25T08:02:36.122Z</time></trkpt><trkpt lat="40.8775017" lon="14.63418"><ele>195.0</ele><time>2026-04-25T08:02:37.121Z</time></trkpt><trkpt lat="40.8774017" lon="14.6341883"><ele>195.0</ele><time>2026-04-25T08:02:38.121Z</time></trkpt><trkpt lat="40.8772933" lon="14.6342067"><ele>194.6</ele><time>2026-04-25T08:02:39.121Z</time></trkpt><trkpt lat="40.8771817" lon="14.63423"><ele>194.2</ele><time>2026-04-25T08:02:40.121Z</time></trkpt><trkpt lat="40.8770683" lon="14.6342583"><ele>193.8</ele><time>2026-04-25T08:02:41.121Z</time></trkpt><trkpt lat="40.87697" lon="14.6342817"><ele>193.4</ele><time>2026-04-25T08:02:42.121Z</time></trkpt><trkpt lat="40.87689" lon="14.6343017"><ele>193.0</ele><time>2026-04-25T08:02:43.121Z</time></trkpt><trkpt lat="40.8768267" lon="14.6343233"><ele>193.0</ele><time>2026-04-25T08:02:44.121Z</time></trkpt><trkpt lat="40.8767467" lon="14.6343467"><ele>193.0</ele><time>2026-04-25T08:02:46.122Z</time></trkpt><trkpt lat="40.8766883" lon="14.6344583"><ele>193.0</ele><time>2026-04-25T08:02:48.121Z</time></trkpt><trkpt lat="40.8766833" lon="14.6345517"><ele>193.0</ele><time>2026-04-25T08:02:49.121Z</time></trkpt><trkpt lat="40.8766633" lon="14.63466"><ele>193.0</ele><time>2026-04-25T08:02:50.121Z</time></trkpt><trkpt lat="40.8766333" lon="14.6348017"><ele>193.0</ele><time>2026-04-25T08:02:51.121Z</time></trkpt><trkpt lat="40.87659" lon="14.6349517"><ele>193.0</ele><time>2026-04-25T08:02:52.121Z</time></trkpt><trkpt lat="40.8765517" lon="14.6350917"><ele>193.0</ele><time>2026-04-25T08:02:53.122Z</time></trkpt><trkpt lat="40.8765217" lon="14.6352217"><ele>193.0</ele><time>2026-04-25T08:02:54.121Z</time></trkpt><trkpt lat="40.8764917" lon="14.63536"><ele>193.0</ele><time>2026-04-25T08:02:55.121Z</time></trkpt><trkpt lat="40.87645" lon="14.63552"><ele>193.75</ele><time>2026-04-25T08:02:56.121Z</time></trkpt><trkpt lat="40.8764" lon="14.63569"><ele>194.5</ele><time>2026-04-25T08:02:57.121Z</time></trkpt><trkpt lat="40.87635" lon="14.6358633"><ele>195.25</ele><time>2026-04-25T08:02:58.121Z</time></trkpt><trkpt lat="40.8763117" lon="14.6360283"><ele>196.0</ele><time>2026-04-25T08:02:59.121Z</time></trkpt><trkpt lat="40.8762817" lon="14.6361817"><ele>197.0</ele><time>2026-04-25T08:03:00.121Z</time></trkpt><trkpt lat="40.8762483" lon="14.63632"><ele>198.0</ele><time>2026-04-25T08:03:01.121Z</time></trkpt><trkpt lat="40.8762117" lon="14.6364517"><ele>199.0</ele><time>2026-04-25T08:03:02.121Z</time></trkpt><trkpt lat="40.8761817" lon="14.6365783"><ele>200.0</ele><time>2026-04-25T08:03:03.121Z</time></trkpt><trkpt lat="40.8761683" lon="14.6366883"><ele>201.0</ele><time>2026-04-25T08:03:04.121Z</time></trkpt><trkpt lat="40.8761683" lon="14.6367867"><ele>201.0</ele><time>2026-04-25T08:03:05.121Z</time></trkpt><trkpt lat="40.8762133" lon="14.636925"><ele>201.0</ele><time>2026-04-25T08:03:07.121Z</time></trkpt><trkpt lat="40.876255" lon="14.6369983"><ele>201.0</ele><time>2026-04-25T08:03:09.121Z</time></trkpt><trkpt lat="40.876245" lon="14.6370917"><ele>201.0</ele><time>2026-04-25T08:03:12.122Z</time></trkpt><trkpt lat="40.8762117" lon="14.6371967"><ele>201.0</ele><time>2026-04-25T08:03:14.121Z</time></trkpt><trkpt lat="40.87616" lon="14.63728"><ele>201.0</ele><time>2026-04-25T08:03:15.122Z</time></trkpt><trkpt lat="40.8760917" lon="14.6374033"><ele>201.5</ele><time>2026-04-25T08:03:16.121Z</time></trkpt><trkpt lat="40.8760167" lon="14.63753"><ele>202.0</ele><time>2026-04-25T08:03:17.121Z</time></trkpt><trkpt lat="40.8759567" lon="14.637655"><ele>202.5</ele><time>2026-04-25T08:03:18.121Z</time></trkpt><trkpt lat="40.8758867" lon="14.6378"><ele>203.0</ele><time>2026-04-25T08:03:19.121Z</time></trkpt><trkpt lat="40.87581" lon="14.6379367"><ele>204.25</ele><time>2026-04-25T08:03:20.121Z</time></trkpt><trkpt lat="40.875745" lon="14.6380683"><ele>205.5</ele><time>2026-04-25T08:03:21.121Z</time></trkpt><trkpt lat="40.875665" lon="14.6382083"><ele>206.75</ele><time>2026-04-25T08:03:22.121Z</time></trkpt><trkpt lat="40.875585" lon="14.6383533"><ele>208.0</ele><time>2026-04-25T08:03:23.121Z</time></trkpt><trkpt lat="40.8755033" lon="14.638505"><ele>210.5</ele><time>2026-04-25T08:03:24.121Z</time></trkpt><trkpt lat="40.875425" lon="14.6386517"><ele>213.0</ele><time>2026-04-25T08:03:25.121Z</time></trkpt><trkpt lat="40.8753483" lon="14.638795"><ele>215.5</ele><time>2026-04-25T08:03:26.121Z</time></trkpt><trkpt lat="40.87526" lon="14.63894"><ele>218.0</ele><time>2026-04-25T08:03:27.122Z</time></trkpt><trkpt lat="40.8751833" lon="14.639095"><ele>217.0</ele><time>2026-04-25T08:03:28.122Z</time></trkpt><trkpt lat="40.8751033" lon="14.6392467"><ele>216.0</ele><time>2026-04-25T08:03:29.121Z</time></trkpt><trkpt lat="40.875035" lon="14.6394067"><ele>215.0</ele><time>2026-04-25T08:03:30.122Z</time></trkpt><trkpt lat="40.87495" lon="14.639555"><ele>214.0</ele><time>2026-04-25T08:03:31.121Z</time></trkpt><trkpt lat="40.8748767" lon="14.639695"><ele>214.0</ele><time>2026-04-25T08:03:32.121Z</time></trkpt><trkpt lat="40.87478" lon="14.6398567"><ele>214.0</ele><time>2026-04-25T08:03:33.121Z</time></trkpt><trkpt lat="40.8746883" lon="14.6400183"><ele>214.0</ele><time>2026-04-25T08:03:34.121Z</time></trkpt><trkpt lat="40.874585" lon="14.6401733"><ele>214.25</ele><time>2026-04-25T08:03:35.122Z</time></trkpt><trkpt lat="40.8744883" lon="14.640315"><ele>214.5</ele><time>2026-04-25T08:03:36.121Z</time></trkpt><trkpt lat="40.8744067" lon="14.6404283"><ele>214.75</ele><time>2026-04-25T08:03:37.121Z</time></trkpt><trkpt lat="40.87432" lon="14.6405267"><ele>215.0</ele><time>2026-04-25T08:03:38.122Z</time></trkpt><trkpt lat="40.8742333" lon="14.6405933"><ele>215.0</ele><time>2026-04-25T08:03:39.121Z</time></trkpt><trkpt lat="40.8741467" lon="14.64063"><ele>215.0</ele><time>2026-04-25T08:03:40.121Z</time></trkpt><trkpt lat="40.8740433" lon="14.6406317"><ele>215.0</ele><time>2026-04-25T08:03:41.121Z</time></trkpt><trkpt lat="40.8739333" lon="14.6406217"><ele>215.0</ele><time>2026-04-25T08:03:42.121Z</time></trkpt><trkpt lat="40.8738167" lon="14.6405967"><ele>215.0</ele><time>2026-04-25T08:03:43.121Z</time></trkpt><trkpt lat="40.8737083" lon="14.6405467"><ele>215.0</ele><time>2026-04-25T08:03:44.121Z</time></trkpt><trkpt lat="40.87362" lon="14.6404533"><ele>215.0</ele><time>2026-04-25T08:03:45.121Z</time></trkpt><trkpt lat="40.8735533" lon="14.6403133"><ele>215.0</ele><time>2026-04-25T08:03:46.121Z</time></trkpt><trkpt lat="40.8735" lon="14.6401717"><ele>215.0</ele><time>2026-04-25T08:03:47.122Z</time></trkpt><trkpt lat="40.873435" lon="14.64005"><ele>215.6</ele><time>2026-04-25T08:03:48.121Z</time></trkpt><trkpt lat="40.8733517" lon="14.6399483"><ele>216.2</ele><time>2026-04-25T08:03:49.121Z</time></trkpt><trkpt lat="40.87327" lon="14.63987"><ele>216.8</ele><time>2026-04-25T08:03:50.121Z</time></trkpt><trkpt lat="40.873185" lon="14.6398217"><ele>217.4</ele><time>2026-04-25T08:03:51.121Z</time></trkpt><trkpt lat="40.8731" lon="14.6398117"><ele>218.0</ele><time>2026-04-25T08:03:52.121Z</time></trkpt><trkpt lat="40.8729983" lon="14.63983"><ele>218.0</ele><time>2026-04-25T08:03:53.121Z</time></trkpt><trkpt lat="40.87289" lon="14.639885"><ele>218.0</ele><time>2026-04-25T08:03:54.121Z</time></trkpt><trkpt lat="40.8727817" lon="14.6399533"><ele>218.0</ele><time>2026-04-25T08:03:55.121Z</time></trkpt><trkpt lat="40.8726717" lon="14.6400417"><ele>218.0</ele><time>2026-04-25T08:03:56.121Z</time></trkpt><trkpt lat="40.8725683" lon="14.640175"><ele>219.75</ele><time>2026-04-25T08:03:57.121Z</time></trkpt><trkpt lat="40.872475" lon="14.6403117"><ele>221.5</ele><time>2026-04-25T08:03:58.121Z</time></trkpt><trkpt lat="40.8723983" lon="14.6404433"><ele>223.25</ele><time>2026-04-25T08:03:59.121Z</time></trkpt><trkpt lat="40.8723433" lon="14.6405983"><ele>225.0</ele><time>2026-04-25T08:04:00.121Z</time></trkpt><trkpt lat="40.8722983" lon="14.6407717"><ele>225.0</ele><time>2026-04-25T08:04:01.121Z</time></trkpt><trkpt lat="40.8722617" lon="14.6409533"><ele>225.0</ele><time>2026-04-25T08:04:02.121Z</time></trkpt><trkpt lat="40.872225" lon="14.6411383"><ele>225.0</ele><time>2026-04-25T08:04:03.121Z</time></trkpt><trkpt lat="40.87219" lon="14.6413117"><ele>225.0</ele><time>2026-04-25T08:04:04.121Z</time></trkpt><trkpt lat="40.87216" lon="14.641475"><ele>227.5</ele><time>2026-04-25T08:04:05.121Z</time></trkpt><trkpt lat="40.87212" lon="14.6416267"><ele>230.0</ele><time>2026-04-25T08:04:06.122Z</time></trkpt><trkpt lat="40.87209" lon="14.6417733"><ele>232.5</ele><time>2026-04-25T08:04:07.121Z</time></trkpt><trkpt lat="40.872065" lon="14.6419167"><ele>235.0</ele><time>2026-04-25T08:04:08.121Z</time></trkpt><trkpt lat="40.87204" lon="14.6420617"><ele>236.0</ele><time>2026-04-25T08:04:09.121Z</time></trkpt><trkpt lat="40.8720167" lon="14.6422017"><ele>237.0</ele><time>2026-04-25T08:04:10.121Z</time></trkpt><trkpt lat="40.8719833" lon="14.6423433"><ele>238.0</ele><time>2026-04-25T08:04:11.122Z</time></trkpt><trkpt lat="40.8719533" lon="14.64249"><ele>239.0</ele><time>2026-04-25T08:04:12.121Z</time></trkpt><trkpt lat="40.871925" lon="14.6426383"><ele>239.0</ele><time>2026-04-25T08:04:13.121Z</time></trkpt><trkpt lat="40.8718917" lon="14.642775"><ele>238.99999999999997</ele><time>2026-04-25T08:04:14.121Z</time></trkpt><trkpt lat="40.8718617" lon="14.642915"><ele>238.99999999999997</ele><time>2026-04-25T08:04:15.122Z</time></trkpt><trkpt lat="40.87183" lon="14.6430567"><ele>239.0</ele><time>2026-04-25T08:04:16.121Z</time></trkpt><trkpt lat="40.8718" lon="14.6432067"><ele>239.0</ele><time>2026-04-25T08:04:17.121Z</time></trkpt><trkpt lat="40.8717667" lon="14.6433567"><ele>237.75</ele><time>2026-04-25T08:04:18.121Z</time></trkpt><trkpt lat="40.8717333" lon="14.64351"><ele>236.5</ele><time>2026-04-25T08:04:19.121Z</time></trkpt><trkpt lat="40.8717117" lon="14.6436633"><ele>235.25</ele><time>2026-04-25T08:04:20.121Z</time></trkpt><trkpt lat="40.871705" lon="14.64381"><ele>234.0</ele><time>2026-04-25T08:04:21.121Z</time></trkpt><trkpt lat="40.8717167" lon="14.6439583"><ele>234.0</ele><time>2026-04-25T08:04:22.121Z</time></trkpt><trkpt lat="40.8717417" lon="14.6441"><ele>233.99999999999997</ele><time>2026-04-25T08:04:23.121Z</time></trkpt><trkpt lat="40.8717883" lon="14.6442267"><ele>233.99999999999997</ele><time>2026-04-25T08:04:24.122Z</time></trkpt><trkpt lat="40.8718533" lon="14.6443417"><ele>234.0</ele><time>2026-04-25T08:04:25.121Z</time></trkpt><trkpt lat="40.87194" lon="14.6444483"><ele>234.0</ele><time>2026-04-25T08:04:26.121Z</time></trkpt><trkpt lat="40.8720433" lon="14.644555"><ele>235.66666666666669</ele><time>2026-04-25T08:04:27.121Z</time></trkpt><trkpt lat="40.872155" lon="14.64468"><ele>237.33333333333334</ele><time>2026-04-25T08:04:28.121Z</time></trkpt><trkpt lat="40.8722667" lon="14.6448167"><ele>239.0</ele><time>2026-04-25T08:04:29.122Z</time></trkpt><trkpt lat="40.87238" lon="14.6449617"><ele>239.0</ele><time>2026-04-25T08:04:30.121Z</time></trkpt><trkpt lat="40.8724917" lon="14.64511"><ele>239.0</ele><time>2026-04-25T08:04:31.121Z</time></trkpt><trkpt lat="40.8725967" lon="14.6452417"><ele>239.0</ele><time>2026-04-25T08:04:32.121Z</time></trkpt><trkpt lat="40.8726933" lon="14.64537"><ele>239.0</ele><time>2026-04-25T08:04:33.121Z</time></trkpt><trkpt lat="40.8727883" lon="14.6454933"><ele>240.5</ele><time>2026-04-25T08:04:34.121Z</time></trkpt><trkpt lat="40.8728867" lon="14.6456217"><ele>242.0</ele><time>2026-04-25T08:04:35.121Z</time></trkpt><trkpt lat="40.872995" lon="14.64576"><ele>243.5</ele><time>2026-04-25T08:04:36.121Z</time></trkpt><trkpt lat="40.873105" lon="14.645905"><ele>245.0</ele><time>2026-04-25T08:04:37.121Z</time></trkpt><trkpt lat="40.87322" lon="14.6460467"><ele>244.5</ele><time>2026-04-25T08:04:38.122Z</time></trkpt><trkpt lat="40.87332" lon="14.646185"><ele>244.0</ele><time>2026-04-25T08:04:39.121Z</time></trkpt><trkpt lat="40.8734217" lon="14.646325"><ele>243.5</ele><time>2026-04-25T08:04:40.121Z</time></trkpt><trkpt lat="40.8735017" lon="14.6464717"><ele>243.0</ele><time>2026-04-25T08:04:41.121Z</time></trkpt><trkpt lat="40.8735683" lon="14.646625"><ele>247.5</ele><time>2026-04-25T08:04:42.121Z</time></trkpt><trkpt lat="40.8736133" lon="14.6467983"><ele>252.0</ele><time>2026-04-25T08:04:43.121Z</time></trkpt><trkpt lat="40.87366" lon="14.6469783"><ele>256.5</ele><time>2026-04-25T08:04:44.121Z</time></trkpt><trkpt lat="40.8737083" lon="14.6471667"><ele>261.0</ele><time>2026-04-25T08:04:45.121Z</time></trkpt><trkpt lat="40.87376" lon="14.6473633"><ele>261.0</ele><time>2026-04-25T08:04:46.121Z</time></trkpt><trkpt lat="40.8738117" lon="14.64756"><ele>261.0</ele><time>2026-04-25T08:04:47.121Z</time></trkpt><trkpt lat="40.8738667" lon="14.647755"><ele>261.0</ele><time>2026-04-25T08:04:48.121Z</time></trkpt><trkpt lat="40.873915" lon="14.6479367"><ele>261.0</ele><time>2026-04-25T08:04:49.121Z</time></trkpt><trkpt lat="40.8739617" lon="14.648115"><ele>261.0</ele><time>2026-04-25T08:04:50.121Z</time></trkpt><trkpt lat="40.8740033" lon="14.6482933"><ele>261.0</ele><time>2026-04-25T08:04:51.121Z</time></trkpt><trkpt lat="40.8740433" lon="14.6484717"><ele>261.0</ele><time>2026-04-25T08:04:52.121Z</time></trkpt><trkpt lat="40.87408" lon="14.6486467"><ele>261.0</ele><time>2026-04-25T08:04:53.121Z</time></trkpt><trkpt lat="40.8741133" lon="14.6488333"><ele>261.0</ele><time>2026-04-25T08:04:54.121Z</time></trkpt><trkpt lat="40.8741433" lon="14.6490233"><ele>261.0</ele><time>2026-04-25T08:04:55.121Z</time></trkpt><trkpt lat="40.8741617" lon="14.64922"><ele>261.0</ele><time>2026-04-25T08:04:56.121Z</time></trkpt><trkpt lat="40.874185" lon="14.6494217"><ele>261.0</ele><time>2026-04-25T08:04:57.121Z</time></trkpt><trkpt lat="40.8742033" lon="14.64962"><ele>261.0</ele><time>2026-04-25T08:04:58.121Z</time></trkpt><trkpt lat="40.8742217" lon="14.649815"><ele>261.0</ele><time>2026-04-25T08:04:59.121Z</time></trkpt><trkpt lat="40.8742467" lon="14.6500133"><ele>261.0</ele><time>2026-04-25T08:05:00.121Z</time></trkpt><trkpt lat="40.8742683" lon="14.65022"><ele>261.0</ele><time>2026-04-25T08:05:01.121Z</time></trkpt><trkpt lat="40.8742917" lon="14.650435"><ele>261.0</ele><time>2026-04-25T08:05:02.121Z</time></trkpt><trkpt lat="40.8743183" lon="14.6506583"><ele>267.3333333333333</ele><time>2026-04-25T08:05:03.121Z</time></trkpt><trkpt lat="40.8743417" lon="14.6508733"><ele>273.66666666666663</ele><time>2026-04-25T08:05:04.122Z</time></trkpt><trkpt lat="40.8743633" lon="14.65107"><ele>280.0</ele><time>2026-04-25T08:05:05.121Z</time></trkpt><trkpt lat="40.8743833" lon="14.6512517"><ele>280.0</ele><time>2026-04-25T08:05:06.121Z</time></trkpt><trkpt lat="40.8744133" lon="14.6514367"><ele>280.0</ele><time>2026-04-25T08:05:07.121Z</time></trkpt><trkpt lat="40.8744317" lon="14.6516083"><ele>280.0</ele><time>2026-04-25T08:05:08.121Z</time></trkpt><trkpt lat="40.8744567" lon="14.6517683"><ele>280.0</ele><time>2026-04-25T08:05:09.121Z</time></trkpt><trkpt lat="40.8744867" lon="14.6519117"><ele>278.0</ele><time>2026-04-25T08:05:10.121Z</time></trkpt><trkpt lat="40.8745217" lon="14.6520383"><ele>276.0</ele><time>2026-04-25T08:05:11.121Z</time></trkpt><trkpt lat="40.8745767" lon="14.6521483"><ele>274.0</ele><time>2026-04-25T08:05:12.121Z</time></trkpt><trkpt lat="40.8746517" lon="14.65225"><ele>272.0</ele><time>2026-04-25T08:05:13.122Z</time></trkpt><trkpt lat="40.8747317" lon="14.65233"><ele>270.0</ele><time>2026-04-25T08:05:14.121Z</time></trkpt><trkpt lat="40.8748283" lon="14.6523883"><ele>270.0</ele><time>2026-04-25T08:05:15.121Z</time></trkpt><trkpt lat="40.8749083" lon="14.6524383"><ele>270.0</ele><time>2026-04-25T08:05:16.121Z</time></trkpt><trkpt lat="40.8749817" lon="14.6524833"><ele>270.0</ele><time>2026-04-25T08:05:17.121Z</time></trkpt><trkpt lat="40.8750333" lon="14.6525467"><ele>270.0</ele><time>2026-04-25T08:05:18.122Z</time></trkpt><trkpt lat="40.8750817" lon="14.6526933"><ele>270.0</ele><time>2026-04-25T08:05:20.121Z</time></trkpt><trkpt lat="40.8740033" lon="14.6482933"><ele>268.0</ele><time>2026-04-25T08:04:51.121Z</time></trkpt><trkpt lat="40.8740433" lon="14.6484717"><ele>266.0</ele><time>2026-04-25T08:04:52.121Z</time></trkpt><trkpt lat="40.87408" lon="14.6486467"><ele>264.0</ele><time>2026-04-25T08:04:53.121Z</time></trkpt><trkpt lat="40.8741133" lon="14.6488333"><ele>262.0</ele><time>2026-04-25T08:04:54.121Z</time></trkpt><trkpt lat="40.8741433" lon="14.6490233"><ele>261.66666666666663</ele><time>2026-04-25T08:04:55.121Z</time></trkpt><trkpt lat="40.8741617" lon="14.64922"><ele>261.3333333333333</ele><time>2026-04-25T08:04:56.121Z</time></trkpt><trkpt lat="40.874185" lon="14.6494217"><ele>261.0</ele><time>2026-04-25T08:04:57.121Z</time></trkpt><trkpt lat="40.8742033" lon="14.64962"><ele>261.0</ele><time>2026-04-25T08:04:58.121Z</time></trkpt><trkpt lat="40.8742217" lon="14.649815"><ele>261.0</ele><time>2026-04-25T08:04:59.121Z</time></trkpt><trkpt lat="40.8742467" lon="14.6500133"><ele>261.0</ele><time>2026-04-25T08:05:00.121Z</time></trkpt><trkpt lat="40.8742683" lon="14.65022"><ele>270.3333333333333</ele><time>2026-04-25T08:05:01.121Z</time></trkpt><trkpt lat="40.8742917" lon="14.650435"><ele>279.66666666666663</ele><time>2026-04-25T08:05:02.121Z</time></trkpt><trkpt lat="40.8743183" lon="14.6506583"><ele>289.0</ele><time>2026-04-25T08:05:03.121Z</time></trkpt><trkpt lat="40.8743417" lon="14.6508733"><ele>289.0</ele><time>2026-04-25T08:05:04.122Z</time></trkpt><trkpt lat="40.8743633" lon="14.65107"><ele>289.0</ele><time>2026-04-25T08:05:05.121Z</time></trkpt><trkpt lat="40.8743833" lon="14.6512517"><ele>289.0</ele><time>2026-04-25T08:05:06.121Z</time></trkpt><trkpt lat="40.8744133" lon="14.6514367"><ele>289.0</ele><time>2026-04-25T08:05:07.121Z</time></trkpt><trkpt lat="40.8744317" lon="14.6516083"><ele>287.2</ele><time>2026-04-25T08:05:08.121Z</time></trkpt><trkpt lat="40.8744567" lon="14.6517683"><ele>285.4</ele><time>2026-04-25T08:05:09.121Z</time></trkpt><trkpt lat="40.8744867" lon="14.6519117"><ele>283.6</ele><time>2026-04-25T08:05:10.121Z</time></trkpt><trkpt lat="40.8745217" lon="14.6520383"><ele>281.8</ele><time>2026-04-25T08:05:11.121Z</time></trkpt><trkpt lat="40.8745767" lon="14.6521483"><ele>280.0</ele><time>2026-04-25T08:05:12.121Z</time></trkpt><trkpt lat="40.8746517" lon="14.65225"><ele>278.3333333333333</ele><time>2026-04-25T08:05:13.122Z</time></trkpt><trkpt lat="40.8747317" lon="14.65233"><ele>276.66666666666663</ele><time>2026-04-25T08:05:14.121Z</time></trkpt><trkpt lat="40.8748283" lon="14.6523883"><ele>275.0</ele><time>2026-04-25T08:05:15.121Z</time></trkpt><trkpt lat="40.8749083" lon="14.6524383"><ele>273.3333333333333</ele><time>2026-04-25T08:05:16.121Z</time></trkpt><trkpt lat="40.8749817" lon="14.6524833"><ele>271.6666666666667</ele><time>2026-04-25T08:05:17.121Z</time></trkpt><trkpt lat="40.8750333" lon="14.6525467"><ele>270.0</ele><time>2026-04-25T08:05:18.122Z</time></trkpt><trkpt lat="40.8750817" lon="14.6526933"><ele>269.6666666666667</ele><time>2026-04-25T08:05:20.121Z</time></trkpt><trkpt lat="40.8750783" lon="14.652815"><ele>269.3333333333333</ele><time>2026-04-25T08:05:22.121Z</time></trkpt><trkpt lat="40.8749967" lon="14.65286"><ele>269.0</ele><time>2026-04-25T08:05:24.121Z</time></trkpt><trkpt lat="40.87487" lon="14.6528433"><ele>268.66666666666663</ele><time>2026-04-25T08:05:26.121Z</time></trkpt><trkpt lat="40.874805" lon="14.65284"><ele>268.3333333333333</ele><time>2026-04-25T08:05:27.121Z</time></trkpt><trkpt lat="40.87474" lon="14.6528383"><ele>268.0</ele><time>2026-04-25T08:05:28.121Z</time></trkpt><trkpt lat="40.8746683" lon="14.6528233"><ele>268.0</ele><time>2026-04-25T08:05:29.121Z</time></trkpt><trkpt lat="40.874585" lon="14.652865"><ele>268.0</ele><time>2026-04-25T08:05:30.121Z</time></trkpt><trkpt lat="40.874495" lon="14.6529183"><ele>268.0</ele><time>2026-04-25T08:05:31.121Z</time></trkpt><trkpt lat="40.8744" lon="14.6529583"><ele>268.0</ele><time>2026-04-25T08:05:32.121Z</time></trkpt><trkpt lat="40.874305" lon="14.653005"><ele>268.0</ele><time>2026-04-25T08:05:33.121Z</time></trkpt><trkpt lat="40.8742217" lon="14.6530433"><ele>267.2</ele><time>2026-04-25T08:05:34.121Z</time></trkpt><trkpt lat="40.874145" lon="14.653075"><ele>266.4</ele><time>2026-04-25T08:05:35.121Z</time></trkpt><trkpt lat="40.8740567" lon="14.65318"><ele>265.59999999999997</ele><time>2026-04-25T08:05:37.122Z</time></trkpt><trkpt lat="40.87404" lon="14.653285"><ele>264.8</ele><time>2026-04-25T08:05:38.121Z</time></trkpt><trkpt lat="40.8740133" lon="14.6534117"><ele>264.0</ele><time>2026-04-25T08:05:39.121Z</time></trkpt><trkpt lat="40.87398" lon="14.6535217"><ele>264.0</ele><time>2026-04-25T08:05:40.121Z</time></trkpt><trkpt lat="40.87394" lon="14.6536117"><ele>264.0</ele><time>2026-04-25T08:05:41.121Z</time></trkpt><trkpt lat="40.873895" lon="14.6536833"><ele>264.0</ele><time>2026-04-25T08:05:42.121Z</time></trkpt><trkpt lat="40.8738333" lon="14.6537617"><ele>264.0</ele><time>2026-04-25T08:05:43.121Z</time></trkpt><trkpt lat="40.873765" lon="14.6538367"><ele>264.0</ele><time>2026-04-25T08:05:44.121Z</time></trkpt><trkpt lat="40.8736983" lon="14.6538867"><ele>264.0</ele><time>2026-04-25T08:05:45.122Z</time></trkpt><trkpt lat="40.87363" lon="14.653945"><ele>263.8333333333333</ele><time>2026-04-25T08:05:46.121Z</time></trkpt><trkpt lat="40.8735567" lon="14.6539867"><ele>263.6666666666667</ele><time>2026-04-25T08:05:47.121Z</time></trkpt><trkpt lat="40.8734683" lon="14.6540167"><ele>263.5</ele><time>2026-04-25T08:05:48.121Z</time></trkpt><trkpt lat="40.8733817" lon="14.654045"><ele>263.33333333333337</ele><time>2026-04-25T08:05:49.121Z</time></trkpt><trkpt lat="40.8733033" lon="14.6540783"><ele>263.1666666666667</ele><time>2026-04-25T08:05:50.121Z</time></trkpt><trkpt lat="40.8732133" lon="14.65411"><ele>263.0</ele><time>2026-04-25T08:05:52.121Z</time></trkpt><trkpt lat="40.8731417" lon="14.65413"><ele>263.0</ele><time>2026-04-25T08:05:56.121Z</time></trkpt><trkpt lat="40.8730733" lon="14.6541467"><ele>263.0</ele><time>2026-04-25T08:05:59.121Z</time></trkpt><trkpt lat="40.8729967" lon="14.6541517"><ele>263.0</ele><time>2026-04-25T08:06:02.122Z</time></trkpt><trkpt lat="40.87293" lon="14.65415"><ele>263.0</ele><time>2026-04-25T08:06:05.121Z</time></trkpt><trkpt lat="40.872855" lon="14.6542583"><ele>263.0</ele><time>2026-04-25T08:06:13.121Z</time></trkpt><trkpt lat="40.8728733" lon="14.65442"><ele>263.0</ele><time>2026-04-25T08:06:15.121Z</time></trkpt><trkpt lat="40.8728983" lon="14.6545417"><ele>263.0</ele><time>2026-04-25T08:06:16.121Z</time></trkpt><trkpt lat="40.8729317" lon="14.6546767"><ele>263.0</ele><time>2026-04-25T08:06:17.121Z</time></trkpt><trkpt lat="40.8729533" lon="14.6548233"><ele>263.0</ele><time>2026-04-25T08:06:18.121Z</time></trkpt><trkpt lat="40.872995" lon="14.654975"><ele>263.0</ele><time>2026-04-25T08:06:19.121Z</time></trkpt><trkpt lat="40.8730233" lon="14.6551367"><ele>263.75</ele><time>2026-04-25T08:06:20.121Z</time></trkpt><trkpt lat="40.873045" lon="14.6553183"><ele>264.5</ele><time>2026-04-25T08:06:21.121Z</time></trkpt><trkpt lat="40.8730583" lon="14.6555017"><ele>265.25</ele><time>2026-04-25T08:06:22.121Z</time></trkpt><trkpt lat="40.8730767" lon="14.6556867"><ele>266.0</ele><time>2026-04-25T08:06:23.121Z</time></trkpt><trkpt lat="40.8731017" lon="14.6558767"><ele>266.0</ele><time>2026-04-25T08:06:24.121Z</time></trkpt><trkpt lat="40.8731183" lon="14.6560667"><ele>266.0</ele><time>2026-04-25T08:06:25.121Z</time></trkpt><trkpt lat="40.873125" lon="14.65625"><ele>266.0</ele><time>2026-04-25T08:06:26.122Z</time></trkpt><trkpt lat="40.8731233" lon="14.656415"><ele>266.0</ele><time>2026-04-25T08:06:27.121Z</time></trkpt><trkpt lat="40.8731133" lon="14.656575"><ele>266.8</ele><time>2026-04-25T08:06:28.121Z</time></trkpt><trkpt lat="40.8730983" lon="14.6567167"><ele>267.6</ele><time>2026-04-25T08:06:29.121Z</time></trkpt><trkpt lat="40.87307" lon="14.6568433"><ele>268.4</ele><time>2026-04-25T08:06:30.121Z</time></trkpt><trkpt lat="40.8730417" lon="14.6569683"><ele>269.2</ele><time>2026-04-25T08:06:31.121Z</time></trkpt><trkpt lat="40.8730083" lon="14.6570883"><ele>270.0</ele><time>2026-04-25T08:06:32.121Z</time></trkpt><trkpt lat="40.872965" lon="14.6572167"><ele>270.75</ele><time>2026-04-25T08:06:33.121Z</time></trkpt><trkpt lat="40.8729133" lon="14.6573633"><ele>271.5</ele><time>2026-04-25T08:06:34.121Z</time></trkpt><trkpt lat="40.872855" lon="14.6575233"><ele>272.25</ele><time>2026-04-25T08:06:35.121Z</time></trkpt><trkpt lat="40.8728083" lon="14.657685"><ele>273.0</ele><time>2026-04-25T08:06:36.121Z</time></trkpt><trkpt lat="40.87276" lon="14.6578633"><ele>273.75</ele><time>2026-04-25T08:06:37.121Z</time></trkpt><trkpt lat="40.872715" lon="14.6580417"><ele>274.5</ele><time>2026-04-25T08:06:38.121Z</time></trkpt><trkpt lat="40.87268" lon="14.6582083"><ele>275.25</ele><time>2026-04-25T08:06:39.121Z</time></trkpt><trkpt lat="40.8726617" lon="14.6583733"><ele>276.0</ele><time>2026-04-25T08:06:40.122Z</time></trkpt><trkpt lat="40.87266" lon="14.65854"><ele>276.75</ele><time>2026-04-25T08:06:41.121Z</time></trkpt><trkpt lat="40.8726667" lon="14.6587233"><ele>277.5</ele><time>2026-04-25T08:06:42.122Z</time></trkpt><trkpt lat="40.872685" lon="14.6589083"><ele>278.25</ele><time>2026-04-25T08:06:43.121Z</time></trkpt><trkpt lat="40.8727117" lon="14.6591133"><ele>279.0</ele><time>2026-04-25T08:06:44.121Z</time></trkpt><trkpt lat="40.872745" lon="14.6593167"><ele>280.3333333333333</ele><time>2026-04-25T08:06:45.121Z</time></trkpt><trkpt lat="40.8727783" lon="14.6595267"><ele>281.66666666666663</ele><time>2026-04-25T08:06:46.121Z</time></trkpt><trkpt lat="40.8728133" lon="14.659725"><ele>283.0</ele><time>2026-04-25T08:06:47.121Z</time></trkpt><trkpt lat="40.872845" lon="14.6599267"><ele>283.0</ele><time>2026-04-25T08:06:48.121Z</time></trkpt><trkpt lat="40.872875" lon="14.6601117"><ele>283.0</ele><time>2026-04-25T08:06:49.121Z</time></trkpt><trkpt lat="40.8728967" lon="14.660285"><ele>283.0</ele><time>2026-04-25T08:06:50.121Z</time></trkpt><trkpt lat="40.8729083" lon="14.6604433"><ele>283.0</ele><time>2026-04-25T08:06:51.121Z</time></trkpt><trkpt lat="40.872925" lon="14.6605883"><ele>283.3333333333333</ele><time>2026-04-25T08:06:52.121Z</time></trkpt><trkpt lat="40.8729333" lon="14.660715"><ele>283.66666666666663</ele><time>2026-04-25T08:06:53.121Z</time></trkpt><trkpt lat="40.8729417" lon="14.6608267"><ele>284.0</ele><time>2026-04-25T08:06:54.121Z</time></trkpt><trkpt lat="40.872945" lon="14.660925"><ele>284.3333333333333</ele><time>2026-04-25T08:06:55.121Z</time></trkpt><trkpt lat="40.8729367" lon="14.66101"><ele>284.6666666666667</ele><time>2026-04-25T08:06:56.121Z</time></trkpt><trkpt lat="40.87294" lon="14.661105"><ele>285.0</ele><time>2026-04-25T08:06:57.121Z</time></trkpt><trkpt lat="40.87295" lon="14.6612017"><ele>285.5</ele><time>2026-04-25T08:06:58.121Z</time></trkpt><trkpt lat="40.8729517" lon="14.6612983"><ele>286.0</ele><time>2026-04-25T08:06:59.121Z</time></trkpt><trkpt lat="40.8729617" lon="14.6614033"><ele>286.5</ele><time>2026-04-25T08:07:00.122Z</time></trkpt><trkpt lat="40.87296" lon="14.661515"><ele>287.0</ele><time>2026-04-25T08:07:01.121Z</time></trkpt><trkpt lat="40.87296" lon="14.66163"><ele>287.5</ele><time>2026-04-25T08:07:02.121Z</time></trkpt><trkpt lat="40.87296" lon="14.661745"><ele>288.0</ele><time>2026-04-25T08:07:03.121Z</time></trkpt><trkpt lat="40.87296" lon="14.6618617"><ele>288.6</ele><time>2026-04-25T08:07:04.121Z</time></trkpt><trkpt lat="40.87296" lon="14.6619867"><ele>289.20000000000005</ele><time>2026-04-25T08:07:05.121Z</time></trkpt><trkpt lat="40.8729567" lon="14.6621183"><ele>289.8</ele><time>2026-04-25T08:07:06.121Z</time></trkpt><trkpt lat="40.87296" lon="14.662255"><ele>290.40000000000003</ele><time>2026-04-25T08:07:07.121Z</time></trkpt><trkpt lat="40.87296" lon="14.6624"><ele>291.0</ele><time>2026-04-25T08:07:08.122Z</time></trkpt><trkpt lat="40.87296" lon="14.6625433"><ele>291.0</ele><time>2026-04-25T08:07:09.121Z</time></trkpt><trkpt lat="40.87296" lon="14.6626967"><ele>291.0</ele><time>2026-04-25T08:07:10.121Z</time></trkpt><trkpt lat="40.8729617" lon="14.6628583"><ele>291.0</ele><time>2026-04-25T08:07:11.121Z</time></trkpt><trkpt lat="40.8729667" lon="14.6630283"><ele>291.0</ele><time>2026-04-25T08:07:12.121Z</time></trkpt><trkpt lat="40.8729683" lon="14.6632"><ele>291.75</ele><time>2026-04-25T08:07:13.121Z</time></trkpt><trkpt lat="40.8729717" lon="14.6633933"><ele>292.5</ele><time>2026-04-25T08:07:14.121Z</time></trkpt><trkpt lat="40.8729733" lon="14.663585"><ele>293.25</ele><time>2026-04-25T08:07:15.121Z</time></trkpt><trkpt lat="40.8729733" lon="14.6637583"><ele>294.0</ele><time>2026-04-25T08:07:16.121Z</time></trkpt><trkpt lat="40.8729867" lon="14.6639067"><ele>294.5</ele><time>2026-04-25T08:07:17.121Z</time></trkpt><trkpt lat="40.8730083" lon="14.66407"><ele>295.0</ele><time>2026-04-25T08:07:18.121Z</time></trkpt><trkpt lat="40.873045" lon="14.6642317"><ele>295.5</ele><time>2026-04-25T08:07:19.121Z</time></trkpt><trkpt lat="40.8730933" lon="14.664385"><ele>296.0</ele><time>2026-04-25T08:07:20.122Z</time></trkpt><trkpt lat="40.8731633" lon="14.664535"><ele>296.8</ele><time>2026-04-25T08:07:21.121Z</time></trkpt><trkpt lat="40.8732417" lon="14.6646633"><ele>297.6</ele><time>2026-04-25T08:07:22.121Z</time></trkpt><trkpt lat="40.87331" lon="14.66476"><ele>298.4</ele><time>2026-04-25T08:07:23.121Z</time></trkpt><trkpt lat="40.8733733" lon="14.66483"><ele>299.2</ele><time>2026-04-25T08:07:24.121Z</time></trkpt><trkpt lat="40.8734467" lon="14.6648783"><ele>300.0</ele><time>2026-04-25T08:07:25.121Z</time></trkpt><trkpt lat="40.8735267" lon="14.6649"><ele>300.4</ele><time>2026-04-25T08:07:26.121Z</time></trkpt><trkpt lat="40.8736117" lon="14.6649"><ele>300.8</ele><time>2026-04-25T08:07:27.121Z</time></trkpt><trkpt lat="40.8737167" lon="14.664895"><ele>301.2</ele><time>2026-04-25T08:07:28.121Z</time></trkpt><trkpt lat="40.8738333" lon="14.6648817"><ele>301.6</ele><time>2026-04-25T08:07:29.121Z</time></trkpt><trkpt lat="40.8739333" lon="14.6648817"><ele>302.0</ele><time>2026-04-25T08:07:30.121Z</time></trkpt><trkpt lat="40.8740117" lon="14.6648983"><ele>302.0</ele><time>2026-04-25T08:07:31.121Z</time></trkpt><trkpt lat="40.8741117" lon="14.6649433"><ele>302.0</ele><time>2026-04-25T08:07:33.121Z</time></trkpt><trkpt lat="40.8741683" lon="14.6650567"><ele>302.0</ele><time>2026-04-25T08:07:35.121Z</time></trkpt><trkpt lat="40.8741767" lon="14.6651533"><ele>302.0</ele><time>2026-04-25T08:07:36.121Z</time></trkpt><trkpt lat="40.8741683" lon="14.665275"><ele>302.0</ele><time>2026-04-25T08:07:37.121Z</time></trkpt><trkpt lat="40.8741583" lon="14.6654017"><ele>302.6</ele><time>2026-04-25T08:07:38.121Z</time></trkpt><trkpt lat="40.8741517" lon="14.6655233"><ele>303.2</ele><time>2026-04-25T08:07:39.121Z</time></trkpt><trkpt lat="40.87417" lon="14.66564"><ele>303.8</ele><time>2026-04-25T08:07:40.121Z</time></trkpt><trkpt lat="40.874195" lon="14.6657567"><ele>304.4</ele><time>2026-04-25T08:07:41.121Z</time></trkpt><trkpt lat="40.87423" lon="14.6658717"><ele>305.0</ele><time>2026-04-25T08:07:42.121Z</time></trkpt><trkpt lat="40.8742583" lon="14.665985"><ele>307.2</ele><time>2026-04-25T08:07:43.121Z</time></trkpt><trkpt lat="40.8742867" lon="14.6661033"><ele>309.4</ele><time>2026-04-25T08:07:44.121Z</time></trkpt><trkpt lat="40.8743017" lon="14.6662283"><ele>311.6</ele><time>2026-04-25T08:07:45.121Z</time></trkpt><trkpt lat="40.874305" lon="14.6663683"><ele>313.8</ele><time>2026-04-25T08:07:46.121Z</time></trkpt><trkpt lat="40.8743" lon="14.6665283"><ele>316.0</ele><time>2026-04-25T08:07:47.121Z</time></trkpt><trkpt lat="40.8742917" lon="14.66669"><ele>318.0</ele><time>2026-04-25T08:07:48.121Z</time></trkpt><trkpt lat="40.8742983" lon="14.6668517"><ele>320.0</ele><time>2026-04-25T08:07:49.121Z</time></trkpt><trkpt lat="40.8743067" lon="14.6670133"><ele>322.0</ele><time>2026-04-25T08:07:50.121Z</time></trkpt><trkpt lat="40.8743183" lon="14.667165"><ele>324.0</ele><time>2026-04-25T08:07:51.121Z</time></trkpt><trkpt lat="40.8743333" lon="14.6673083"><ele>325.25</ele><time>2026-04-25T08:07:52.121Z</time></trkpt><trkpt lat="40.8743467" lon="14.6674517"><ele>326.5</ele><time>2026-04-25T08:07:53.121Z</time></trkpt><trkpt lat="40.8743733" lon="14.6676117"><ele>327.75</ele><time>2026-04-25T08:07:54.121Z</time></trkpt><trkpt lat="40.8744017" lon="14.6677633"><ele>329.0</ele><time>2026-04-25T08:07:55.121Z</time></trkpt><trkpt lat="40.8744217" lon="14.6679233"><ele>331.0</ele><time>2026-04-25T08:07:56.121Z</time></trkpt><trkpt lat="40.8744383" lon="14.6680883"><ele>333.0</ele><time>2026-04-25T08:07:57.121Z</time></trkpt><trkpt lat="40.8744467" lon="14.6682367"><ele>335.0</ele><time>2026-04-25T08:07:58.121Z</time></trkpt><trkpt lat="40.8744433" lon="14.66838"><ele>337.0</ele><time>2026-04-25T08:07:59.121Z</time></trkpt><trkpt lat="40.8744217" lon="14.6685267"><ele>338.25</ele><time>2026-04-25T08:08:00.121Z</time></trkpt><trkpt lat="40.874395" lon="14.668675"><ele>339.5</ele><time>2026-04-25T08:08:01.121Z</time></trkpt><trkpt lat="40.874375" lon="14.6688417"><ele>340.75</ele><time>2026-04-25T08:08:02.121Z</time></trkpt><trkpt lat="40.87438" lon="14.6690167"><ele>342.0</ele><time>2026-04-25T08:08:03.121Z</time></trkpt><trkpt lat="40.8743883" lon="14.6692067"><ele>342.0</ele><time>2026-04-25T08:08:04.121Z</time></trkpt><trkpt lat="40.8743983" lon="14.6694067"><ele>342.0</ele><time>2026-04-25T08:08:05.121Z</time></trkpt><trkpt lat="40.874405" lon="14.6695867"><ele>342.0</ele><time>2026-04-25T08:08:06.121Z</time></trkpt><trkpt lat="40.8744067" lon="14.6697417"><ele>342.0</ele><time>2026-04-25T08:08:07.121Z</time></trkpt><trkpt lat="40.8743967" lon="14.6698783"><ele>343.8</ele><time>2026-04-25T08:08:08.121Z</time></trkpt><trkpt lat="40.87438" lon="14.669995"><ele>345.6</ele><time>2026-04-25T08:08:09.121Z</time></trkpt><trkpt lat="40.8743467" lon="14.6701033"><ele>347.40000000000003</ele><time>2026-04-25T08:08:10.121Z</time></trkpt><trkpt lat="40.8742933" lon="14.6702083"><ele>349.20000000000005</ele><time>2026-04-25T08:08:11.121Z</time></trkpt><trkpt lat="40.8742367" lon="14.670315"><ele>351.0</ele><time>2026-04-25T08:08:12.121Z</time></trkpt><trkpt lat="40.8741833" lon="14.6704283"><ele>346.0</ele><time>2026-04-25T08:08:13.121Z</time></trkpt><trkpt lat="40.8741367" lon="14.6705567"><ele>341.0</ele><time>2026-04-25T08:08:14.121Z</time></trkpt><trkpt lat="40.8741067" lon="14.6707033"><ele>336.0</ele><time>2026-04-25T08:08:15.121Z</time></trkpt><trkpt lat="40.8740817" lon="14.6708567"><ele>331.0</ele><time>2026-04-25T08:08:16.121Z</time></trkpt><trkpt lat="40.87406" lon="14.6710133"><ele>333.25</ele><time>2026-04-25T08:08:17.121Z</time></trkpt><trkpt lat="40.87403" lon="14.6711767"><ele>335.5</ele><time>2026-04-25T08:08:18.121Z</time></trkpt><trkpt lat="40.8740017" lon="14.6713317"><ele>337.75</ele><time>2026-04-25T08:08:19.121Z</time></trkpt><trkpt lat="40.8739667" lon="14.671465"><ele>340.0</ele><time>2026-04-25T08:08:20.121Z</time></trkpt><trkpt lat="40.8739433" lon="14.6715983"><ele>340.0</ele><time>2026-04-25T08:08:21.122Z</time></trkpt><trkpt lat="40.873935" lon="14.6717267"><ele>340.0</ele><time>2026-04-25T08:08:22.122Z</time></trkpt><trkpt lat="40.8739417" lon="14.6718483"><ele>340.0</ele><time>2026-04-25T08:08:23.121Z</time></trkpt><trkpt lat="40.8739633" lon="14.6719783"><ele>340.0</ele><time>2026-04-25T08:08:24.121Z</time></trkpt><trkpt lat="40.8739917" lon="14.6721133"><ele>340.0</ele><time>2026-04-25T08:08:25.121Z</time></trkpt><trkpt lat="40.8739967" lon="14.6722317"><ele>340.0</ele><time>2026-04-25T08:08:26.121Z</time></trkpt><trkpt lat="40.8739817" lon="14.67236"><ele>340.0</ele><time>2026-04-25T08:08:27.121Z</time></trkpt><trkpt lat="40.8739483" lon="14.6724917"><ele>340.0</ele><time>2026-04-25T08:08:28.122Z</time></trkpt><trkpt lat="40.873925" lon="14.6726133"><ele>340.0</ele><time>2026-04-25T08:08:29.122Z</time></trkpt><trkpt lat="40.8739267" lon="14.67271"><ele>340.0</ele><time>2026-04-25T08:08:30.122Z</time></trkpt><trkpt lat="40.87395" lon="14.6727917"><ele>340.0</ele><time>2026-04-25T08:08:31.122Z</time></trkpt><trkpt lat="40.8740017" lon="14.6728783"><ele>340.0</ele><time>2026-04-25T08:08:32.122Z</time></trkpt><trkpt lat="40.8740833" lon="14.6729667"><ele>340.0</ele><time>2026-04-25T08:08:33.122Z</time></trkpt><trkpt lat="40.8741733" lon="14.6730567"><ele>340.0</ele><time>2026-04-25T08:08:34.122Z</time></trkpt><trkpt lat="40.8742783" lon="14.6731517"><ele>340.0</ele><time>2026-04-25T08:08:35.123Z</time></trkpt><trkpt lat="40.8743833" lon="14.67326"><ele>343.75</ele><time>2026-04-25T08:08:36.122Z</time></trkpt><trkpt lat="40.8744783" lon="14.673395"><ele>347.5</ele><time>2026-04-25T08:08:37.123Z</time></trkpt><trkpt lat="40.87457" lon="14.6735383"><ele>351.25</ele><time>2026-04-25T08:08:38.122Z</time></trkpt><trkpt lat="40.87466" lon="14.6736817"><ele>355.0</ele><time>2026-04-25T08:08:39.122Z</time></trkpt><trkpt lat="40.8747517" lon="14.6738067"><ele>355.0</ele><time>2026-04-25T08:08:40.123Z</time></trkpt><trkpt lat="40.874835" lon="14.6739117"><ele>355.0</ele><time>2026-04-25T08:08:41.122Z</time></trkpt><trkpt lat="40.8749183" lon="14.6740017"><ele>355.0</ele><time>2026-04-25T08:08:42.122Z</time></trkpt><trkpt lat="40.8750117" lon="14.67408"><ele>355.0</ele><time>2026-04-25T08:08:43.123Z</time></trkpt><trkpt lat="40.8750967" lon="14.6741483"><ele>355.0</ele><time>2026-04-25T08:08:44.122Z</time></trkpt><trkpt lat="40.8751617" lon="14.6742067"><ele>355.0</ele><time>2026-04-25T08:08:45.122Z</time></trkpt><trkpt lat="40.8752033" lon="14.6743367"><ele>355.0</ele><time>2026-04-25T08:08:47.122Z</time></trkpt><trkpt lat="40.875135" lon="14.67443"><ele>355.0</ele><time>2026-04-25T08:08:49.122Z</time></trkpt><trkpt lat="40.8750667" lon="14.6744383"><ele>355.0</ele><time>2026-04-25T08:08:50.122Z</time></trkpt><trkpt lat="40.87498" lon="14.6744233"><ele>355.0</ele><time>2026-04-25T08:08:51.122Z</time></trkpt><trkpt lat="40.87488" lon="14.67438"><ele>355.0</ele><time>2026-04-25T08:08:52.122Z</time></trkpt><trkpt lat="40.874765" lon="14.6743283"><ele>355.0</ele><time>2026-04-25T08:08:53.122Z</time></trkpt><trkpt lat="40.8746633" lon="14.6742833"><ele>355.0</ele><time>2026-04-25T08:08:54.122Z</time></trkpt><trkpt lat="40.8745867" lon="14.674255"><ele>355.0</ele><time>2026-04-25T08:08:55.122Z</time></trkpt><trkpt lat="40.87452" lon="14.6742583"><ele>355.0</ele><time>2026-04-25T08:08:56.123Z</time></trkpt><trkpt lat="40.8744383" lon="14.674385"><ele>357.4</ele><time>2026-04-25T08:08:58.122Z</time></trkpt><trkpt lat="40.8744317" lon="14.6744817"><ele>359.8</ele><time>2026-04-25T08:08:59.122Z</time></trkpt><trkpt lat="40.8744567" lon="14.6745967"><ele>362.20000000000005</ele><time>2026-04-25T08:09:00.123Z</time></trkpt><trkpt lat="40.8745067" lon="14.6747233"><ele>364.6</ele><time>2026-04-25T08:09:01.122Z</time></trkpt><trkpt lat="40.8745817" lon="14.6748567"><ele>367.0</ele><time>2026-04-25T08:09:02.122Z</time></trkpt><trkpt lat="40.8746467" lon="14.6749817"><ele>367.0</ele><time>2026-04-25T08:09:03.122Z</time></trkpt><trkpt lat="40.874685" lon="14.6750967"><ele>367.0</ele><time>2026-04-25T08:09:04.122Z</time></trkpt><trkpt lat="40.8746967" lon="14.6752183"><ele>367.0</ele><time>2026-04-25T08:09:05.122Z</time></trkpt><trkpt lat="40.8746817" lon="14.6753417"><ele>367.0</ele><time>2026-04-25T08:09:06.122Z</time></trkpt><trkpt lat="40.87464" lon="14.6754633"><ele>367.0</ele><time>2026-04-25T08:09:07.122Z</time></trkpt><trkpt lat="40.8745833" lon="14.6755917"><ele>370.40000000000003</ele><time>2026-04-25T08:09:08.122Z</time></trkpt><trkpt lat="40.87453" lon="14.6757183"><ele>373.8</ele><time>2026-04-25T08:09:09.122Z</time></trkpt><trkpt lat="40.8745" lon="14.675835"><ele>377.2</ele><time>2026-04-25T08:09:10.122Z</time></trkpt><trkpt lat="40.8744767" lon="14.67598"><ele>380.6</ele><time>2026-04-25T08:09:11.123Z</time></trkpt><trkpt lat="40.874465" lon="14.6761433"><ele>384.0</ele><time>2026-04-25T08:09:12.122Z</time></trkpt><trkpt lat="40.874445" lon="14.676325"><ele>387.5</ele><time>2026-04-25T08:09:13.122Z</time></trkpt><trkpt lat="40.874415" lon="14.67651"><ele>391.0</ele><time>2026-04-25T08:09:14.122Z</time></trkpt><trkpt lat="40.8743883" lon="14.6766983"><ele>394.5</ele><time>2026-04-25T08:09:15.122Z</time></trkpt><trkpt lat="40.87436" lon="14.6768983"><ele>398.0</ele><time>2026-04-25T08:09:16.122Z</time></trkpt><trkpt lat="40.8743317" lon="14.6770817"><ele>399.75</ele><time>2026-04-25T08:09:17.122Z</time></trkpt><trkpt lat="40.874315" lon="14.6772633"><ele>401.5</ele><time>2026-04-25T08:09:18.122Z</time></trkpt><trkpt lat="40.874325" lon="14.6774467"><ele>403.25</ele><time>2026-04-25T08:09:19.122Z</time></trkpt><trkpt lat="40.8743417" lon="14.6776433"><ele>405.0</ele><time>2026-04-25T08:09:20.122Z</time></trkpt><trkpt lat="40.874365" lon="14.6778333"><ele>407.5</ele><time>2026-04-25T08:09:21.122Z</time></trkpt><trkpt lat="40.8743783" lon="14.678015"><ele>410.0</ele><time>2026-04-25T08:09:22.122Z</time></trkpt><trkpt lat="40.87438" lon="14.6781833"><ele>412.5</ele><time>2026-04-25T08:09:23.122Z</time></trkpt><trkpt lat="40.8743583" lon="14.6783417"><ele>415.0</ele><time>2026-04-25T08:09:24.122Z</time></trkpt><trkpt lat="40.874315" lon="14.678495"><ele>418.0</ele><time>2026-04-25T08:09:25.122Z</time></trkpt><trkpt lat="40.8742783" lon="14.6786417"><ele>421.0</ele><time>2026-04-25T08:09:26.122Z</time></trkpt><trkpt lat="40.8742567" lon="14.6788067"><ele>424.0</ele><time>2026-04-25T08:09:27.122Z</time></trkpt><trkpt lat="40.8742367" lon="14.678975"><ele>427.0</ele><time>2026-04-25T08:09:28.122Z</time></trkpt><trkpt lat="40.8742017" lon="14.6791383"><ele>419.5</ele><time>2026-04-25T08:09:29.122Z</time></trkpt><trkpt lat="40.8741467" lon="14.6793017"><ele>412.0</ele><time>2026-04-25T08:09:30.122Z</time></trkpt><trkpt lat="40.8740917" lon="14.6794667"><ele>404.5</ele><time>2026-04-25T08:09:31.123Z</time></trkpt><trkpt lat="40.87404" lon="14.679625"><ele>397.0</ele><time>2026-04-25T08:09:32.122Z</time></trkpt><trkpt lat="40.8739833" lon="14.679755"><ele>397.0</ele><time>2026-04-25T08:09:33.122Z</time></trkpt><trkpt lat="40.8739083" lon="14.6798883"><ele>397.0</ele><time>2026-04-25T08:09:34.122Z</time></trkpt><trkpt lat="40.8738283" lon="14.68003"><ele>397.0</ele><time>2026-04-25T08:09:35.122Z</time></trkpt><trkpt lat="40.87376" lon="14.6801983"><ele>397.0</ele><time>2026-04-25T08:09:36.122Z</time></trkpt><trkpt lat="40.8736933" lon="14.6803767"><ele>394.0</ele><time>2026-04-25T08:09:37.122Z</time></trkpt><trkpt lat="40.87363" lon="14.6805583"><ele>391.0</ele><time>2026-04-25T08:09:38.122Z</time></trkpt><trkpt lat="40.873565" lon="14.68072"><ele>388.0</ele><time>2026-04-25T08:09:39.123Z</time></trkpt><trkpt lat="40.8734983" lon="14.6808667"><ele>385.0</ele><time>2026-04-25T08:09:40.122Z</time></trkpt><trkpt lat="40.873435" lon="14.680995"><ele>386.1666666666667</ele><time>2026-04-25T08:09:41.122Z</time></trkpt><trkpt lat="40.8733933" lon="14.6811067"><ele>387.33333333333337</ele><time>2026-04-25T08:09:42.122Z</time></trkpt><trkpt lat="40.8733783" lon="14.6811933"><ele>388.5</ele><time>2026-04-25T08:09:43.122Z</time></trkpt><trkpt lat="40.873415" lon="14.6813167"><ele>389.66666666666663</ele><time>2026-04-25T08:09:45.122Z</time></trkpt><trkpt lat="40.8735233" lon="14.6813317"><ele>390.8333333333333</ele><time>2026-04-25T08:09:47.122Z</time></trkpt><trkpt lat="40.8735883" lon="14.68128"><ele>392.0</ele><time>2026-04-25T08:09:48.122Z</time></trkpt><trkpt lat="40.8736583" lon="14.6812"><ele>397.0</ele><time>2026-04-25T08:09:49.122Z</time></trkpt><trkpt lat="40.87373" lon="14.6811017"><ele>402.0</ele><time>2026-04-25T08:09:50.122Z</time></trkpt><trkpt lat="40.8738117" lon="14.6809833"><ele>407.0</ele><time>2026-04-25T08:09:51.122Z</time></trkpt><trkpt lat="40.8738933" lon="14.6808517"><ele>412.0</ele><time>2026-04-25T08:09:52.122Z</time></trkpt><trkpt lat="40.8739617" lon="14.6807067"><ele>412.0</ele><time>2026-04-25T08:09:53.122Z</time></trkpt><trkpt lat="40.8740183" lon="14.6805433"><ele>412.0</ele><time>2026-04-25T08:09:54.122Z</time></trkpt><trkpt lat="40.87408" lon="14.68037"><ele>412.0</ele><time>2026-04-25T08:09:55.122Z</time></trkpt><trkpt lat="40.8741583" lon="14.6801917"><ele>412.0</ele><time>2026-04-25T08:09:56.122Z</time></trkpt><trkpt lat="40.8742483" lon="14.6799967"><ele>417.0</ele><time>2026-04-25T08:09:57.122Z</time></trkpt><trkpt lat="40.874335" lon="14.6797967"><ele>422.0</ele><time>2026-04-25T08:09:58.122Z</time></trkpt><trkpt lat="40.8744233" lon="14.6796"><ele>427.0</ele><time>2026-04-25T08:09:59.122Z</time></trkpt><trkpt lat="40.8745033" lon="14.6794117"><ele>427.0</ele><time>2026-04-25T08:10:00.122Z</time></trkpt><trkpt lat="40.8745817" lon="14.679225"><ele>427.0</ele><time>2026-04-25T08:10:01.122Z</time></trkpt><trkpt lat="40.87464" lon="14.6790367"><ele>427.0</ele><time>2026-04-25T08:10:02.122Z</time></trkpt><trkpt lat="40.874695" lon="14.6788683"><ele>427.0</ele><time>2026-04-25T08:10:03.122Z</time></trkpt><trkpt lat="40.8747533" lon="14.6786983"><ele>427.0</ele><time>2026-04-25T08:10:04.122Z</time></trkpt><trkpt lat="40.87481" lon="14.67853"><ele>427.0</ele><time>2026-04-25T08:10:05.122Z</time></trkpt><trkpt lat="40.87485" lon="14.678365"><ele>427.0</ele><time>2026-04-25T08:10:06.122Z</time></trkpt><trkpt lat="40.8748767" lon="14.678185"><ele>424.0</ele><time>2026-04-25T08:10:07.122Z</time></trkpt><trkpt lat="40.8748933" lon="14.6779983"><ele>421.0</ele><time>2026-04-25T08:10:08.122Z</time></trkpt><trkpt lat="40.8749" lon="14.6778083"><ele>418.0</ele><time>2026-04-25T08:10:09.122Z</time></trkpt><trkpt lat="40.8749017" lon="14.6776283"><ele>415.0</ele><time>2026-04-25T08:10:10.123Z</time></trkpt><trkpt lat="40.8749217" lon="14.6774733"><ele>412.5</ele><time>2026-04-25T08:10:11.122Z</time></trkpt><trkpt lat="40.8749533" lon="14.6773233"><ele>410.0</ele><time>2026-04-25T08:10:12.123Z</time></trkpt><trkpt lat="40.874995" lon="14.6771767"><ele>407.5</ele><time>2026-04-25T08:10:13.122Z</time></trkpt><trkpt lat="40.8750517" lon="14.6770183"><ele>405.0</ele><time>2026-04-25T08:10:14.122Z</time></trkpt><trkpt lat="40.8751267" lon="14.6768583"><ele>411.6</ele><time>2026-04-25T08:10:15.122Z</time></trkpt><trkpt lat="40.8751967" lon="14.6767083"><ele>418.2</ele><time>2026-04-25T08:10:16.122Z</time></trkpt><trkpt lat="40.8752583" lon="14.67657"><ele>424.79999999999995</ele><time>2026-04-25T08:10:17.122Z</time></trkpt><trkpt lat="40.875315" lon="14.67645"><ele>431.4</ele><time>2026-04-25T08:10:18.122Z</time></trkpt><trkpt lat="40.8753583" lon="14.6763633"><ele>438.0</ele><time>2026-04-25T08:10:19.122Z</time></trkpt><trkpt lat="40.8754383" lon="14.6762967"><ele>438.0</ele><time>2026-04-25T08:10:21.122Z</time></trkpt><trkpt lat="40.87548" lon="14.6763617"><ele>437.99999999999994</ele><time>2026-04-25T08:10:23.122Z</time></trkpt><trkpt lat="40.87543" lon="14.676475"><ele>437.99999999999994</ele><time>2026-04-25T08:10:25.122Z</time></trkpt><trkpt lat="40.875385" lon="14.6765533"><ele>438.0</ele><time>2026-04-25T08:10:26.122Z</time></trkpt><trkpt lat="40.8753283" lon="14.6766767"><ele>438.0</ele><time>2026-04-25T08:10:27.122Z</time></trkpt><trkpt lat="40.8752783" lon="14.6768167"><ele>443.0</ele><time>2026-04-25T08:10:28.122Z</time></trkpt><trkpt lat="40.8752433" lon="14.6769533"><ele>448.0</ele><time>2026-04-25T08:10:29.122Z</time></trkpt><trkpt lat="40.8752167" lon="14.6770983"><ele>453.0</ele><time>2026-04-25T08:10:30.122Z</time></trkpt><trkpt lat="40.8751933" lon="14.67725"><ele>458.0</ele><time>2026-04-25T08:10:31.123Z</time></trkpt><trkpt lat="40.8751767" lon="14.67741"><ele>458.0</ele><time>2026-04-25T08:10:32.122Z</time></trkpt><trkpt lat="40.8751733" lon="14.6775583"><ele>458.0</ele><time>2026-04-25T08:10:33.123Z</time></trkpt><trkpt lat="40.875165" lon="14.6777183"><ele>458.0</ele><time>2026-04-25T08:10:34.123Z</time></trkpt><trkpt lat="40.8751567" lon="14.6778783"><ele>458.0</ele><time>2026-04-25T08:10:35.122Z</time></trkpt><trkpt lat="40.8751383" lon="14.6780483"><ele>461.5</ele><time>2026-04-25T08:10:36.122Z</time></trkpt><trkpt lat="40.875125" lon="14.678225"><ele>465.0</ele><time>2026-04-25T08:10:37.122Z</time></trkpt><trkpt lat="40.8751133" lon="14.67841"><ele>468.5</ele><time>2026-04-25T08:10:38.122Z</time></trkpt><trkpt lat="40.875105" lon="14.6785883"><ele>472.0</ele><time>2026-04-25T08:10:39.122Z</time></trkpt><trkpt lat="40.8750983" lon="14.6787667"><ele>463.0</ele><time>2026-04-25T08:10:40.122Z</time></trkpt><trkpt lat="40.8750933" lon="14.678925"><ele>454.00000000000006</ele><time>2026-04-25T08:10:41.123Z</time></trkpt><trkpt lat="40.8750833" lon="14.6790683"><ele>445.00000000000006</ele><time>2026-04-25T08:10:42.122Z</time></trkpt><trkpt lat="40.8750667" lon="14.6791883"><ele>436.0</ele><time>2026-04-25T08:10:43.123Z</time></trkpt><trkpt lat="40.87504" lon="14.6792917"><ele>427.0</ele><time>2026-04-25T08:10:44.122Z</time></trkpt><trkpt lat="40.8749967" lon="14.6793817"><ele>431.40000000000003</ele><time>2026-04-25T08:10:45.122Z</time></trkpt><trkpt lat="40.8749383" lon="14.6794667"><ele>435.80000000000007</ele><time>2026-04-25T08:10:46.122Z</time></trkpt><trkpt lat="40.8748733" lon="14.679565"><ele>440.2</ele><time>2026-04-25T08:10:47.122Z</time></trkpt><trkpt lat="40.87481" lon="14.6796817"><ele>444.6</ele><time>2026-04-25T08:10:48.123Z</time></trkpt><trkpt lat="40.8747583" lon="14.67981"><ele>449.0</ele><time>2026-04-25T08:10:49.123Z</time></trkpt><trkpt lat="40.8747233" lon="14.679945"><ele>449.0</ele><time>2026-04-25T08:10:50.122Z</time></trkpt><trkpt lat="40.874705" lon="14.6800967"><ele>449.0</ele><time>2026-04-25T08:10:51.122Z</time></trkpt><trkpt lat="40.874685" lon="14.6802567"><ele>449.0</ele><time>2026-04-25T08:10:52.123Z</time></trkpt><trkpt lat="40.8746583" lon="14.680435"><ele>449.0</ele><time>2026-04-25T08:10:53.122Z</time></trkpt><trkpt lat="40.8746183" lon="14.68061"><ele>452.75</ele><time>2026-04-25T08:10:54.122Z</time></trkpt><trkpt lat="40.87459" lon="14.68078"><ele>456.5</ele><time>2026-04-25T08:10:55.122Z</time></trkpt><trkpt lat="40.8745617" lon="14.6809583"><ele>460.25</ele><time>2026-04-25T08:10:56.122Z</time></trkpt><trkpt lat="40.8745267" lon="14.6811533"><ele>464.0</ele><time>2026-04-25T08:10:57.122Z</time></trkpt><trkpt lat="40.874485" lon="14.681345"><ele>466.25</ele><time>2026-04-25T08:10:58.122Z</time></trkpt><trkpt lat="40.8744433" lon="14.6815333"><ele>468.5</ele><time>2026-04-25T08:10:59.122Z</time></trkpt><trkpt lat="40.8744183" lon="14.6817067"><ele>470.75</ele><time>2026-04-25T08:11:00.122Z</time></trkpt><trkpt lat="40.874405" lon="14.6818567"><ele>473.0</ele><time>2026-04-25T08:11:01.122Z</time></trkpt><trkpt lat="40.8744033" lon="14.6820117"><ele>473.75</ele><time>2026-04-25T08:11:02.122Z</time></trkpt><trkpt lat="40.8744133" lon="14.6821683"><ele>474.5</ele><time>2026-04-25T08:11:03.122Z</time></trkpt><trkpt lat="40.8744367" lon="14.682335"><ele>475.25</ele><time>2026-04-25T08:11:04.122Z</time></trkpt><trkpt lat="40.874465" lon="14.68248"><ele>476.0</ele><time>2026-04-25T08:11:05.122Z</time></trkpt><trkpt lat="40.8745" lon="14.6826133"><ele>476.0</ele><time>2026-04-25T08:11:06.122Z</time></trkpt><trkpt lat="40.8745517" lon="14.6827383"><ele>476.0</ele><time>2026-04-25T08:11:07.122Z</time></trkpt><trkpt lat="40.87462" lon="14.682855"><ele>476.0</ele><time>2026-04-25T08:11:08.122Z</time></trkpt><trkpt lat="40.874685" lon="14.6829633"><ele>476.0</ele><time>2026-04-25T08:11:09.122Z</time></trkpt><trkpt lat="40.87472" lon="14.6830533"><ele>476.0</ele><time>2026-04-25T08:11:10.122Z</time></trkpt><trkpt lat="40.8747083" lon="14.683215"><ele>475.66666666666663</ele><time>2026-04-25T08:11:12.122Z</time></trkpt><trkpt lat="40.8746717" lon="14.6832933"><ele>475.3333333333333</ele><time>2026-04-25T08:11:13.122Z</time></trkpt><trkpt lat="40.87461" lon="14.6833317"><ele>475.0</ele><time>2026-04-25T08:11:14.122Z</time></trkpt><trkpt lat="40.8745333" lon="14.68334"><ele>474.66666666666663</ele><time>2026-04-25T08:11:15.122Z</time></trkpt><trkpt lat="40.8744467" lon="14.6833467"><ele>474.3333333333333</ele><time>2026-04-25T08:11:16.122Z</time></trkpt><trkpt lat="40.8743617" lon="14.683375"><ele>474.0</ele><time>2026-04-25T08:11:17.122Z</time></trkpt><trkpt lat="40.8742783" lon="14.6834217"><ele>472.25</ele><time>2026-04-25T08:11:18.122Z</time></trkpt><trkpt lat="40.8742" lon="14.68351"><ele>470.5</ele><time>2026-04-25T08:11:19.122Z</time></trkpt><trkpt lat="40.8741367" lon="14.68363"><ele>468.75</ele><time>2026-04-25T08:11:20.123Z</time></trkpt><trkpt lat="40.8740867" lon="14.68377"><ele>467.0</ele><time>2026-04-25T08:11:21.122Z</time></trkpt><trkpt lat="40.874035" lon="14.6839217"><ele>467.0</ele><time>2026-04-25T08:11:22.122Z</time></trkpt><trkpt lat="40.8739833" lon="14.6840783"><ele>467.0</ele><time>2026-04-25T08:11:23.122Z</time></trkpt><trkpt lat="40.8739333" lon="14.684225"><ele>467.0</ele><time>2026-04-25T08:11:24.122Z</time></trkpt><trkpt lat="40.873895" lon="14.6843733"><ele>467.0</ele><time>2026-04-25T08:11:25.123Z</time></trkpt><trkpt lat="40.87387" lon="14.684495"><ele>472.0</ele><time>2026-04-25T08:11:26.122Z</time></trkpt><trkpt lat="40.8738467" lon="14.6846117"><ele>477.00000000000006</ele><time>2026-04-25T08:11:27.122Z</time></trkpt><trkpt lat="40.8738117" lon="14.68472"><ele>482.00000000000006</ele><time>2026-04-25T08:11:28.122Z</time></trkpt><trkpt lat="40.87376" lon="14.68483"><ele>487.0</ele><time>2026-04-25T08:11:29.122Z</time></trkpt><trkpt lat="40.8737067" lon="14.68495"><ele>492.0</ele><time>2026-04-25T08:11:30.122Z</time></trkpt><trkpt lat="40.87365" lon="14.6850783"><ele>492.0</ele><time>2026-04-25T08:11:31.122Z</time></trkpt><trkpt lat="40.8735917" lon="14.685215"><ele>492.0</ele><time>2026-04-25T08:11:32.122Z</time></trkpt><trkpt lat="40.8735433" lon="14.6853733"><ele>492.0</ele><time>2026-04-25T08:11:33.122Z</time></trkpt><trkpt lat="40.8735017" lon="14.6855333"><ele>492.0</ele><time>2026-04-25T08:11:34.122Z</time></trkpt><trkpt lat="40.8734667" lon="14.6857117"><ele>488.5</ele><time>2026-04-25T08:11:35.122Z</time></trkpt><trkpt lat="40.8734467" lon="14.68589"><ele>485.0</ele><time>2026-04-25T08:11:36.122Z</time></trkpt><trkpt lat="40.87342" lon="14.686065"><ele>481.5</ele><time>2026-04-25T08:11:37.122Z</time></trkpt><trkpt lat="40.8733883" lon="14.6862383"><ele>478.0</ele><time>2026-04-25T08:11:38.122Z</time></trkpt><trkpt lat="40.87335" lon="14.68639"><ele>478.0</ele><time>2026-04-25T08:11:39.123Z</time></trkpt><trkpt lat="40.8733133" lon="14.6865167"><ele>477.99999999999994</ele><time>2026-04-25T08:11:40.122Z</time></trkpt><trkpt lat="40.8732533" lon="14.6866267"><ele>477.99999999999994</ele><time>2026-04-25T08:11:41.122Z</time></trkpt><trkpt lat="40.8731767" lon="14.6867383"><ele>478.0</ele><time>2026-04-25T08:11:42.122Z</time></trkpt><trkpt lat="40.8730867" lon="14.6868367"><ele>478.0</ele><time>2026-04-25T08:11:43.122Z</time></trkpt><trkpt lat="40.8730067" lon="14.686945"><ele>485.0</ele><time>2026-04-25T08:11:44.122Z</time></trkpt><trkpt lat="40.87294" lon="14.68708"><ele>492.0</ele><time>2026-04-25T08:11:45.123Z</time></trkpt><trkpt lat="40.8728833" lon="14.6872317"><ele>499.0</ele><time>2026-04-25T08:11:46.122Z</time></trkpt><trkpt lat="40.87284" lon="14.6873883"><ele>506.0</ele><time>2026-04-25T08:11:47.122Z</time></trkpt><trkpt lat="40.8727983" lon="14.68754"><ele>506.0</ele><time>2026-04-25T08:11:48.122Z</time></trkpt><trkpt lat="40.872755" lon="14.6876833"><ele>506.0</ele><time>2026-04-25T08:11:49.122Z</time></trkpt><trkpt lat="40.8727167" lon="14.68782"><ele>506.0</ele><time>2026-04-25T08:11:50.122Z</time></trkpt><trkpt lat="40.8726867" lon="14.6879433"><ele>506.0</ele><time>2026-04-25T08:11:51.122Z</time></trkpt><trkpt lat="40.8726717" lon="14.6880467"><ele>506.0</ele><time>2026-04-25T08:11:52.122Z</time></trkpt><trkpt lat="40.8727" lon="14.688175"><ele>506.0</ele><time>2026-04-25T08:11:54.122Z</time></trkpt><trkpt lat="40.8727717" lon="14.68822"><ele>506.0</ele><time>2026-04-25T08:11:56.122Z</time></trkpt><trkpt lat="40.872825" lon="14.6881283"><ele>506.0</ele><time>2026-04-25T08:11:58.122Z</time></trkpt><trkpt lat="40.8728467" lon="14.688015"><ele>506.0</ele><time>2026-04-25T08:11:59.122Z</time></trkpt><trkpt lat="40.8728683" lon="14.6878717"><ele>506.0</ele><time>2026-04-25T08:12:00.122Z</time></trkpt><trkpt lat="40.8729" lon="14.6877217"><ele>506.0</ele><time>2026-04-25T08:12:01.122Z</time></trkpt><trkpt lat="40.87295" lon="14.68757"><ele>506.0</ele><time>2026-04-25T08:12:02.123Z</time></trkpt><trkpt lat="40.873" lon="14.6874167"><ele>506.0</ele><time>2026-04-25T08:12:03.122Z</time></trkpt><trkpt lat="40.8730517" lon="14.6872717"><ele>506.0</ele><time>2026-04-25T08:12:04.122Z</time></trkpt><trkpt lat="40.8731117" lon="14.6871433"><ele>506.0</ele><time>2026-04-25T08:12:05.122Z</time></trkpt><trkpt lat="40.8731817" lon="14.687035"><ele>506.0</ele><time>2026-04-25T08:12:06.123Z</time></trkpt><trkpt lat="40.8732683" lon="14.6869367"><ele>506.0</ele><time>2026-04-25T08:12:07.122Z</time></trkpt><trkpt lat="40.8733683" lon="14.686855"><ele>506.0</ele><time>2026-04-25T08:12:08.122Z</time></trkpt><trkpt lat="40.8734683" lon="14.6867733"><ele>513.0</ele><time>2026-04-25T08:12:09.122Z</time></trkpt><trkpt lat="40.8735483" lon="14.6866883"><ele>520.0</ele><time>2026-04-25T08:12:10.122Z</time></trkpt><trkpt lat="40.8736083" lon="14.68657"><ele>527.0</ele><time>2026-04-25T08:12:11.122Z</time></trkpt><trkpt lat="40.8736617" lon="14.68642"><ele>534.0</ele><time>2026-04-25T08:12:12.122Z</time></trkpt><trkpt lat="40.8737217" lon="14.6862467"><ele>526.0</ele><time>2026-04-25T08:12:13.122Z</time></trkpt><trkpt lat="40.873795" lon="14.686065"><ele>518.0</ele><time>2026-04-25T08:12:14.122Z</time></trkpt><trkpt lat="40.8738783" lon="14.6858717"><ele>510.0</ele><time>2026-04-25T08:12:15.122Z</time></trkpt><trkpt lat="40.8739667" lon="14.6856883"><ele>510.0</ele><time>2026-04-25T08:12:16.122Z</time></trkpt><trkpt lat="40.874035" lon="14.6855167"><ele>510.0</ele><time>2026-04-25T08:12:17.123Z</time></trkpt><trkpt lat="40.874095" lon="14.68536"><ele>510.0</ele><time>2026-04-25T08:12:18.122Z</time></trkpt><trkpt lat="40.874165" lon="14.6852067"><ele>510.0</ele><time>2026-04-25T08:12:19.122Z</time></trkpt><trkpt lat="40.87424" lon="14.6850633"><ele>517.0</ele><time>2026-04-25T08:12:20.122Z</time></trkpt><trkpt lat="40.874305" lon="14.6849217"><ele>524.0</ele><time>2026-04-25T08:12:21.122Z</time></trkpt><trkpt lat="40.8743717" lon="14.68479"><ele>531.0</ele><time>2026-04-25T08:12:22.122Z</time></trkpt><trkpt lat="40.8744417" lon="14.6846717"><ele>538.0</ele><time>2026-04-25T08:12:23.122Z</time></trkpt><trkpt lat="40.8745067" lon="14.6845683"><ele>538.0</ele><time>2026-04-25T08:12:24.122Z</time></trkpt><trkpt lat="40.874565" lon="14.68448"><ele>538.0</ele><time>2026-04-25T08:12:25.122Z</time></trkpt><trkpt lat="40.874605" lon="14.6844083"><ele>538.0</ele><time>2026-04-25T08:12:26.122Z</time></trkpt><trkpt lat="40.8746617" lon="14.6843017"><ele>538.0</ele><time>2026-04-25T08:12:28.122Z</time></trkpt><trkpt lat="40.8747283" lon="14.6842817"><ele>538.0</ele><time>2026-04-25T08:12:30.122Z</time></trkpt><trkpt lat="40.874755" lon="14.68437"><ele>538.0</ele><time>2026-04-25T08:12:32.123Z</time></trkpt><trkpt lat="40.8747267" lon="14.684445"><ele>538.0</ele><time>2026-04-25T08:12:33.122Z</time></trkpt><trkpt lat="40.87468" lon="14.6845333"><ele>538.0</ele><time>2026-04-25T08:12:34.122Z</time></trkpt><trkpt lat="40.8746217" lon="14.684655"><ele>538.0</ele><time>2026-04-25T08:12:35.122Z</time></trkpt><trkpt lat="40.8745567" lon="14.6847917"><ele>538.0</ele><time>2026-04-25T08:12:36.122Z</time></trkpt><trkpt lat="40.874485" lon="14.6849383"><ele>538.0</ele><time>2026-04-25T08:12:37.122Z</time></trkpt><trkpt lat="40.8744167" lon="14.6851033"><ele>546.6666666666667</ele><time>2026-04-25T08:12:38.122Z</time></trkpt><trkpt lat="40.874355" lon="14.68528"><ele>555.3333333333334</ele><time>2026-04-25T08:12:39.123Z</time></trkpt><trkpt lat="40.8743017" lon="14.6854733"><ele>564.0</ele><time>2026-04-25T08:12:40.123Z</time></trkpt><trkpt lat="40.8742467" lon="14.6856767"><ele>554.0</ele><time>2026-04-25T08:12:41.122Z</time></trkpt><trkpt lat="40.8741983" lon="14.6858833"><ele>544.0</ele><time>2026-04-25T08:12:42.122Z</time></trkpt><trkpt lat="40.8741367" lon="14.686075"><ele>534.0</ele><time>2026-04-25T08:12:43.122Z</time></trkpt><trkpt lat="40.8740533" lon="14.6862533"><ele>534.0</ele><time>2026-04-25T08:12:44.122Z</time></trkpt><trkpt lat="40.873965" lon="14.686445"><ele>534.0</ele><time>2026-04-25T08:12:45.122Z</time></trkpt><trkpt lat="40.8738733" lon="14.6866283"><ele>534.0</ele><time>2026-04-25T08:12:46.122Z</time></trkpt><trkpt lat="40.87378" lon="14.6868283"><ele>543.0</ele><time>2026-04-25T08:12:47.122Z</time></trkpt><trkpt lat="40.8736833" lon="14.6870167"><ele>552.0</ele><time>2026-04-25T08:12:48.122Z</time></trkpt><trkpt lat="40.8735917" lon="14.6871967"><ele>561.0</ele><time>2026-04-25T08:12:49.122Z</time></trkpt><trkpt lat="40.8735167" lon="14.6873717"><ele>561.0</ele><time>2026-04-25T08:12:50.122Z</time></trkpt><trkpt lat="40.87345" lon="14.6875417"><ele>561.0</ele><time>2026-04-25T08:12:51.122Z</time></trkpt><trkpt lat="40.8733917" lon="14.6877017"><ele>561.0</ele><time>2026-04-25T08:12:52.122Z</time></trkpt><trkpt lat="40.87335" lon="14.687875"><ele>561.0</ele><time>2026-04-25T08:12:53.122Z</time></trkpt><trkpt lat="40.87332" lon="14.6880583"><ele>550.75</ele><time>2026-04-25T08:12:54.122Z</time></trkpt><trkpt lat="40.8733" lon="14.6882583"><ele>540.5</ele><time>2026-04-25T08:12:55.122Z</time></trkpt><trkpt lat="40.8732967" lon="14.6884533"><ele>530.25</ele><time>2026-04-25T08:12:56.122Z</time></trkpt><trkpt lat="40.873305" lon="14.688625"><ele>520.0</ele><time>2026-04-25T08:12:57.122Z</time></trkpt><trkpt lat="40.8733267" lon="14.6887783"><ele>520.0</ele><time>2026-04-25T08:12:58.122Z</time></trkpt><trkpt lat="40.8733583" lon="14.6889167"><ele>520.0</ele><time>2026-04-25T08:12:59.122Z</time></trkpt><trkpt lat="40.8734" lon="14.6890383"><ele>520.0</ele><time>2026-04-25T08:13:00.123Z</time></trkpt><trkpt lat="40.8734567" lon="14.6891433"><ele>520.0</ele><time>2026-04-25T08:13:01.122Z</time></trkpt><trkpt lat="40.8735267" lon="14.6892217"><ele>520.0</ele><time>2026-04-25T08:13:02.122Z</time></trkpt><trkpt lat="40.8735933" lon="14.6892767"><ele>527.1428571428572</ele><time>2026-04-25T08:13:03.122Z</time></trkpt><trkpt lat="40.87366" lon="14.68933"><ele>534.2857142857143</ele><time>2026-04-25T08:13:04.122Z</time></trkpt><trkpt lat="40.873705" lon="14.6894017"><ele>541.4285714285714</ele><time>2026-04-25T08:13:05.122Z</time></trkpt><trkpt lat="40.87373" lon="14.68948"><ele>548.5714285714287</ele><time>2026-04-25T08:13:06.122Z</time></trkpt><trkpt lat="40.8737233" lon="14.68957"><ele>555.7142857142858</ele><time>2026-04-25T08:13:07.122Z</time></trkpt><trkpt lat="40.8737033" lon="14.6896567"><ele>562.8571428571429</ele><time>2026-04-25T08:13:08.123Z</time></trkpt><trkpt lat="40.8736533" lon="14.6897267"><ele>570.0</ele><time>2026-04-25T08:13:09.122Z</time></trkpt><trkpt lat="40.8735767" lon="14.6898083"><ele>572.5</ele><time>2026-04-25T08:13:10.122Z</time></trkpt><trkpt lat="40.8734733" lon="14.6899167"><ele>575.0</ele><time>2026-04-25T08:13:11.122Z</time></trkpt><trkpt lat="40.873375" lon="14.690025"><ele>577.5</ele><time>2026-04-25T08:13:12.122Z</time></trkpt><trkpt lat="40.873285" lon="14.6901267"><ele>580.0</ele><time>2026-04-25T08:13:13.122Z</time></trkpt><trkpt lat="40.8732267" lon="14.6902383"><ele>572.8</ele><time>2026-04-25T08:13:14.122Z</time></trkpt><trkpt lat="40.8731833" lon="14.6903567"><ele>565.6</ele><time>2026-04-25T08:13:15.122Z</time></trkpt><trkpt lat="40.873165" lon="14.6904817"><ele>558.4</ele><time>2026-04-25T08:13:16.122Z</time></trkpt><trkpt lat="40.8731633" lon="14.69062"><ele>551.2</ele><time>2026-04-25T08:13:17.122Z</time></trkpt><trkpt lat="40.873175" lon="14.6907717"><ele>544.0</ele><time>2026-04-25T08:13:18.122Z</time></trkpt><trkpt lat="40.8731917" lon="14.6909283"><ele>544.0</ele><time>2026-04-25T08:13:19.123Z</time></trkpt><trkpt lat="40.8732267" lon="14.6910767"><ele>544.0</ele><time>2026-04-25T08:13:20.122Z</time></trkpt><trkpt lat="40.8732567" lon="14.6912133"><ele>544.0</ele><time>2026-04-25T08:13:21.122Z</time></trkpt><trkpt lat="40.8732767" lon="14.6913233"><ele>544.0</ele><time>2026-04-25T08:13:22.122Z</time></trkpt><trkpt lat="40.87329" lon="14.6914133"><ele>544.0</ele><time>2026-04-25T08:13:23.122Z</time></trkpt><trkpt lat="40.8732517" lon="14.6915417"><ele>547.2</ele><time>2026-04-25T08:13:25.122Z</time></trkpt><trkpt lat="40.8731217" lon="14.69154"><ele>550.4</ele><time>2026-04-25T08:13:27.122Z</time></trkpt><trkpt lat="40.8730233" lon="14.691515"><ele>553.6</ele><time>2026-04-25T08:13:28.122Z</time></trkpt><trkpt lat="40.872915" lon="14.6915017"><ele>556.8</ele><time>2026-04-25T08:13:29.122Z</time></trkpt><trkpt lat="40.8728217" lon="14.6915133"><ele>560.0</ele><time>2026-04-25T08:13:30.122Z</time></trkpt><trkpt lat="40.872745" lon="14.6915433"><ele>560.0</ele><time>2026-04-25T08:13:31.122Z</time></trkpt><trkpt lat="40.8726817" lon="14.6916133"><ele>560.0</ele><time>2026-04-25T08:13:32.122Z</time></trkpt><trkpt lat="40.872625" lon="14.6917217"><ele>560.0</ele><time>2026-04-25T08:13:33.122Z</time></trkpt><trkpt lat="40.8725617" lon="14.6918467"><ele>560.0</ele><time>2026-04-25T08:13:34.122Z</time></trkpt><trkpt lat="40.8724883" lon="14.6919883"><ele>560.0</ele><time>2026-04-25T08:13:35.122Z</time></trkpt><trkpt lat="40.8724017" lon="14.6921317"><ele>561.75</ele><time>2026-04-25T08:13:36.122Z</time></trkpt><trkpt lat="40.872315" lon="14.6922667"><ele>563.5</ele><time>2026-04-25T08:13:37.122Z</time></trkpt><trkpt lat="40.8722183" lon="14.6923883"><ele>565.25</ele><time>2026-04-25T08:13:38.122Z</time></trkpt><trkpt lat="40.8721117" lon="14.6925083"><ele>567.0</ele><time>2026-04-25T08:13:39.122Z</time></trkpt><trkpt lat="40.8720017" lon="14.692635"><ele>567.0</ele><time>2026-04-25T08:13:40.123Z</time></trkpt><trkpt lat="40.8718883" lon="14.6927567"><ele>567.0</ele><time>2026-04-25T08:13:41.122Z</time></trkpt><trkpt lat="40.8717683" lon="14.6928683"><ele>567.0</ele><time>2026-04-25T08:13:42.122Z</time></trkpt><trkpt lat="40.871645" lon="14.6929617"><ele>567.0</ele><time>2026-04-25T08:13:43.122Z</time></trkpt><trkpt lat="40.8715267" lon="14.693035"><ele>567.0</ele><time>2026-04-25T08:13:44.122Z</time></trkpt><trkpt lat="40.8714267" lon="14.6931067"><ele>567.0</ele><time>2026-04-25T08:13:45.122Z</time></trkpt><trkpt lat="40.8713383" lon="14.6931883"><ele>567.0</ele><time>2026-04-25T08:13:46.122Z</time></trkpt><trkpt lat="40.8712617" lon="14.6933033"><ele>567.0</ele><time>2026-04-25T08:13:47.122Z</time></trkpt><trkpt lat="40.8711883" lon="14.69344"><ele>567.0</ele><time>2026-04-25T08:13:48.122Z</time></trkpt><trkpt lat="40.8711267" lon="14.693575"><ele>567.0</ele><time>2026-04-25T08:13:49.122Z</time></trkpt><trkpt lat="40.8710483" lon="14.6937067"><ele>567.0</ele><time>2026-04-25T08:13:50.122Z</time></trkpt><trkpt lat="40.8709567" lon="14.693835"><ele>567.0</ele><time>2026-04-25T08:13:51.122Z</time></trkpt><trkpt lat="40.870855" lon="14.6939717"><ele>565.75</ele><time>2026-04-25T08:13:52.122Z</time></trkpt><trkpt lat="40.8707517" lon="14.6941167"><ele>564.5</ele><time>2026-04-25T08:13:53.122Z</time></trkpt><trkpt lat="40.8706617" lon="14.6942483"><ele>563.25</ele><time>2026-04-25T08:13:54.122Z</time></trkpt><trkpt lat="40.8705817" lon="14.694365"><ele>562.0</ele><time>2026-04-25T08:13:55.122Z</time></trkpt><trkpt lat="40.8705167" lon="14.694475"><ele>566.6</ele><time>2026-04-25T08:13:56.122Z</time></trkpt><trkpt lat="40.870475" lon="14.69459"><ele>571.2</ele><time>2026-04-25T08:13:57.123Z</time></trkpt><trkpt lat="40.8704567" lon="14.6947217"><ele>575.8</ele><time>2026-04-25T08:13:58.122Z</time></trkpt><trkpt lat="40.87046" lon="14.6948683"><ele>580.4</ele><time>2026-04-25T08:13:59.122Z</time></trkpt><trkpt lat="40.8704767" lon="14.69503"><ele>585.0</ele><time>2026-04-25T08:14:00.122Z</time></trkpt><trkpt lat="40.8704967" lon="14.6952017"><ele>587.0</ele><time>2026-04-25T08:14:01.123Z</time></trkpt><trkpt lat="40.8705" lon="14.695375"><ele>589.0</ele><time>2026-04-25T08:14:02.122Z</time></trkpt><trkpt lat="40.8704933" lon="14.6955633"><ele>591.0</ele><time>2026-04-25T08:14:03.122Z</time></trkpt><trkpt lat="40.87047" lon="14.6957317"><ele>593.0</ele><time>2026-04-25T08:14:04.122Z</time></trkpt><trkpt lat="40.8704333" lon="14.6959033"><ele>593.0</ele><time>2026-04-25T08:14:05.122Z</time></trkpt><trkpt lat="40.8704183" lon="14.6960633"><ele>593.0</ele><time>2026-04-25T08:14:06.122Z</time></trkpt><trkpt lat="40.870415" lon="14.69623"><ele>593.0</ele><time>2026-04-25T08:14:07.122Z</time></trkpt><trkpt lat="40.8704283" lon="14.696415"><ele>593.0</ele><time>2026-04-25T08:14:08.122Z</time></trkpt><trkpt lat="40.87046" lon="14.6966133"><ele>593.0</ele><time>2026-04-25T08:14:09.122Z</time></trkpt><trkpt lat="40.8705017" lon="14.69682"><ele>593.0</ele><time>2026-04-25T08:14:10.122Z</time></trkpt><trkpt lat="40.8705417" lon="14.6970317"><ele>593.0</ele><time>2026-04-25T08:14:11.122Z</time></trkpt><trkpt lat="40.8705717" lon="14.697245"><ele>593.0</ele><time>2026-04-25T08:14:12.122Z</time></trkpt><trkpt lat="40.8706" lon="14.6974317"><ele>593.0</ele><time>2026-04-25T08:14:13.122Z</time></trkpt><trkpt lat="40.8706317" lon="14.69761"><ele>593.0</ele><time>2026-04-25T08:14:14.122Z</time></trkpt><trkpt lat="40.870665" lon="14.69779"><ele>593.0</ele><time>2026-04-25T08:14:15.122Z</time></trkpt><trkpt lat="40.8707133" lon="14.6979717"><ele>591.5</ele><time>2026-04-25T08:14:16.122Z</time></trkpt><trkpt lat="40.8707583" lon="14.6981233"><ele>590.0</ele><time>2026-04-25T08:14:17.122Z</time></trkpt><trkpt lat="40.8708217" lon="14.698275"><ele>588.5</ele><time>2026-04-25T08:14:18.122Z</time></trkpt><trkpt lat="40.8708983" lon="14.6984233"><ele>587.0</ele><time>2026-04-25T08:14:19.122Z</time></trkpt><trkpt lat="40.870975" lon="14.698545"><ele>590.2</ele><time>2026-04-25T08:14:20.122Z</time></trkpt><trkpt lat="40.8710383" lon="14.6986383"><ele>593.4000000000001</ele><time>2026-04-25T08:14:21.122Z</time></trkpt><trkpt lat="40.87109" lon="14.69875"><ele>596.5999999999999</ele><time>2026-04-25T08:14:22.122Z</time></trkpt><trkpt lat="40.8711217" lon="14.6988733"><ele>599.8</ele><time>2026-04-25T08:14:23.122Z</time></trkpt><trkpt lat="40.8711367" lon="14.69901"><ele>603.0</ele><time>2026-04-25T08:14:24.122Z</time></trkpt><trkpt lat="40.8711467" lon="14.6991433"><ele>603.0</ele><time>2026-04-25T08:14:25.122Z</time></trkpt><trkpt lat="40.871175" lon="14.6992517"><ele>603.0</ele><time>2026-04-25T08:14:26.122Z</time></trkpt><trkpt lat="40.8712317" lon="14.6993517"><ele>603.0</ele><time>2026-04-25T08:14:27.122Z</time></trkpt><trkpt lat="40.8713083" lon="14.6994383"><ele>603.0</ele><time>2026-04-25T08:14:28.122Z</time></trkpt><trkpt lat="40.8714" lon="14.6995083"><ele>603.0</ele><time>2026-04-25T08:14:29.122Z</time></trkpt><trkpt lat="40.871465" lon="14.6995583"><ele>603.6666666666666</ele><time>2026-04-25T08:14:30.122Z</time></trkpt><trkpt lat="40.8715133" lon="14.6996617"><ele>604.3333333333334</ele><time>2026-04-25T08:14:32.122Z</time></trkpt><trkpt lat="40.8714683" lon="14.6997733"><ele>605.0</ele><time>2026-04-25T08:14:34.123Z</time></trkpt><trkpt lat="40.87141" lon="14.699805"><ele>605.6666666666667</ele><time>2026-04-25T08:14:35.122Z</time></trkpt><trkpt lat="40.87134" lon="14.6998217"><ele>606.3333333333334</ele><time>2026-04-25T08:14:36.122Z</time></trkpt><trkpt lat="40.87126" lon="14.699835"><ele>607.0</ele><time>2026-04-25T08:14:37.123Z</time></trkpt><trkpt lat="40.8711767" lon="14.6998717"><ele>607.0</ele><time>2026-04-25T08:14:38.122Z</time></trkpt><trkpt lat="40.871095" lon="14.69994"><ele>607.0</ele><time>2026-04-25T08:14:39.122Z</time></trkpt><trkpt lat="40.8710133" lon="14.70003"><ele>607.0</ele><time>2026-04-25T08:14:40.122Z</time></trkpt><trkpt lat="40.8709383" lon="14.700135"><ele>607.0</ele><time>2026-04-25T08:14:41.122Z</time></trkpt><trkpt lat="40.87088" lon="14.7002267"><ele>607.0</ele><time>2026-04-25T08:14:42.122Z</time></trkpt><trkpt lat="40.870835" lon="14.7002933"><ele>605.4</ele><time>2026-04-25T08:14:43.122Z</time></trkpt><trkpt lat="40.870745" lon="14.7003067"><ele>603.8000000000001</ele><time>2026-04-25T08:14:45.122Z</time></trkpt><trkpt lat="40.8706933" lon="14.7002067"><ele>602.2</ele><time>2026-04-25T08:14:47.122Z</time></trkpt><trkpt lat="40.870715" lon="14.7000467"><ele>600.6</ele><time>2026-04-25T08:14:49.122Z</time></trkpt><trkpt lat="40.8707367" lon="14.699955"><ele>599.0</ele><time>2026-04-25T08:14:50.122Z</time></trkpt><trkpt lat="40.8707617" lon="14.6998467"><ele>599.0</ele><time>2026-04-25T08:14:51.122Z</time></trkpt><trkpt lat="40.8707783" lon="14.6997317"><ele>599.0</ele><time>2026-04-25T08:14:52.122Z</time></trkpt><trkpt lat="40.870785" lon="14.6995967"><ele>599.0</ele><time>2026-04-25T08:14:53.122Z</time></trkpt><trkpt lat="40.870775" lon="14.6994733"><ele>599.0</ele><time>2026-04-25T08:14:54.122Z</time></trkpt><trkpt lat="40.8707333" lon="14.6993533"><ele>599.0</ele><time>2026-04-25T08:14:55.122Z</time></trkpt><trkpt lat="40.8706683" lon="14.6992517"><ele>596.75</ele><time>2026-04-25T08:14:56.122Z</time></trkpt><trkpt lat="40.8705817" lon="14.6991617"><ele>594.5</ele><time>2026-04-25T08:14:57.122Z</time></trkpt><trkpt lat="40.8704867" lon="14.699075"><ele>592.25</ele><time>2026-04-25T08:14:58.122Z</time></trkpt><trkpt lat="40.8703833" lon="14.6989933"><ele>590.0</ele><time>2026-04-25T08:14:59.122Z</time></trkpt><trkpt lat="40.8702833" lon="14.6989067"><ele>590.0</ele><time>2026-04-25T08:15:00.122Z</time></trkpt><trkpt lat="40.8701917" lon="14.6988"><ele>590.0</ele><time>2026-04-25T08:15:01.122Z</time></trkpt><trkpt lat="40.8701017" lon="14.69866"><ele>590.0</ele><time>2026-04-25T08:15:02.123Z</time></trkpt><trkpt lat="40.87001" lon="14.69852"><ele>590.0</ele><time>2026-04-25T08:15:03.122Z</time></trkpt><trkpt lat="40.8699283" lon="14.69837"><ele>592.5</ele><time>2026-04-25T08:15:04.122Z</time></trkpt><trkpt lat="40.8698267" lon="14.698235"><ele>595.0</ele><time>2026-04-25T08:15:05.122Z</time></trkpt><trkpt lat="40.8697267" lon="14.69809"><ele>597.5</ele><time>2026-04-25T08:15:06.122Z</time></trkpt><trkpt lat="40.8696383" lon="14.697945"><ele>600.0</ele><time>2026-04-25T08:15:07.123Z</time></trkpt><trkpt lat="40.869555" lon="14.6977883"><ele>594.75</ele><time>2026-04-25T08:15:08.122Z</time></trkpt><trkpt lat="40.8694767" lon="14.6976467"><ele>589.5</ele><time>2026-04-25T08:15:09.122Z</time></trkpt><trkpt lat="40.8694067" lon="14.6975117"><ele>584.25</ele><time>2026-04-25T08:15:10.123Z</time></trkpt><trkpt lat="40.8693467" lon="14.69738"><ele>579.0</ele><time>2026-04-25T08:15:11.122Z</time></trkpt><trkpt lat="40.8692883" lon="14.6972433"><ele>583.0</ele><time>2026-04-25T08:15:12.122Z</time></trkpt><trkpt lat="40.869225" lon="14.6971283"><ele>587.0</ele><time>2026-04-25T08:15:13.122Z</time></trkpt><trkpt lat="40.8691617" lon="14.697035"><ele>591.0</ele><time>2026-04-25T08:15:14.122Z</time></trkpt><trkpt lat="40.8690917" lon="14.6969583"><ele>595.0</ele><time>2026-04-25T08:15:15.122Z</time></trkpt><trkpt lat="40.8690117" lon="14.696905"><ele>599.0</ele><time>2026-04-25T08:15:16.122Z</time></trkpt><trkpt lat="40.868925" lon="14.696875"><ele>599.0</ele><time>2026-04-25T08:15:17.122Z</time></trkpt><trkpt lat="40.8688367" lon="14.696865"><ele>599.0</ele><time>2026-04-25T08:15:18.122Z</time></trkpt><trkpt lat="40.8687267" lon="14.696895"><ele>599.0</ele><time>2026-04-25T08:15:19.122Z</time></trkpt><trkpt lat="40.8686017" lon="14.6969533"><ele>599.0</ele><time>2026-04-25T08:15:20.122Z</time></trkpt><trkpt lat="40.868475" lon="14.6970333"><ele>609.0</ele><time>2026-04-25T08:15:21.122Z</time></trkpt><trkpt lat="40.8683417" lon="14.6971367"><ele>619.0</ele><time>2026-04-25T08:15:22.122Z</time></trkpt><trkpt lat="40.8682017" lon="14.69725"><ele>629.0</ele><time>2026-04-25T08:15:23.122Z</time></trkpt><trkpt lat="40.8680583" lon="14.697365"><ele>629.0</ele><time>2026-04-25T08:15:24.122Z</time></trkpt><trkpt lat="40.867915" lon="14.6974717"><ele>629.0</ele><time>2026-04-25T08:15:25.122Z</time></trkpt><trkpt lat="40.8677767" lon="14.6975817"><ele>629.0</ele><time>2026-04-25T08:15:26.122Z</time></trkpt><trkpt lat="40.8676583" lon="14.6976933"><ele>629.75</ele><time>2026-04-25T08:15:27.122Z</time></trkpt><trkpt lat="40.867555" lon="14.6977917"><ele>630.5</ele><time>2026-04-25T08:15:28.122Z</time></trkpt><trkpt lat="40.8674567" lon="14.6978883"><ele>631.25</ele><time>2026-04-25T08:15:29.122Z</time></trkpt><trkpt lat="40.86737" lon="14.69799"><ele>632.0</ele><time>2026-04-25T08:15:30.122Z</time></trkpt><trkpt lat="40.8672983" lon="14.6981033"><ele>632.0</ele><time>2026-04-25T08:15:31.122Z</time></trkpt><trkpt lat="40.8672383" lon="14.698235"><ele>632.0</ele><time>2026-04-25T08:15:32.122Z</time></trkpt><trkpt lat="40.8671783" lon="14.698385"><ele>632.0</ele><time>2026-04-25T08:15:33.122Z</time></trkpt><trkpt lat="40.8671183" lon="14.6985333"><ele>632.0</ele><time>2026-04-25T08:15:34.122Z</time></trkpt><trkpt lat="40.8670533" lon="14.6986833"><ele>635.0</ele><time>2026-04-25T08:15:35.122Z</time></trkpt><trkpt lat="40.8669967" lon="14.6988217"><ele>638.0</ele><time>2026-04-25T08:15:36.122Z</time></trkpt><trkpt lat="40.866945" lon="14.69894"><ele>641.0</ele><time>2026-04-25T08:15:37.122Z</time></trkpt><trkpt lat="40.8669017" lon="14.69905"><ele>644.0</ele><time>2026-04-25T08:15:38.122Z</time></trkpt><trkpt lat="40.8668583" lon="14.6991433"><ele>647.0</ele><time>2026-04-25T08:15:39.122Z</time></trkpt><trkpt lat="40.8668017" lon="14.6992317"><ele>646.1666666666666</ele><time>2026-04-25T08:15:40.122Z</time></trkpt><trkpt lat="40.8667383" lon="14.69931"><ele>645.3333333333333</ele><time>2026-04-25T08:15:41.122Z</time></trkpt><trkpt lat="40.8666733" lon="14.6993817"><ele>644.5</ele><time>2026-04-25T08:15:42.123Z</time></trkpt><trkpt lat="40.86661" lon="14.6994167"><ele>643.6666666666666</ele><time>2026-04-25T08:15:43.122Z</time></trkpt><trkpt lat="40.8665433" lon="14.6994317"><ele>642.8333333333334</ele><time>2026-04-25T08:15:44.122Z</time></trkpt><trkpt lat="40.866465" lon="14.6994183"><ele>642.0</ele><time>2026-04-25T08:15:45.122Z</time></trkpt><trkpt lat="40.8663783" lon="14.6993917"><ele>642.0</ele><time>2026-04-25T08:15:46.122Z</time></trkpt><trkpt lat="40.8662867" lon="14.6993717"><ele>642.0</ele><time>2026-04-25T08:15:47.122Z</time></trkpt><trkpt lat="40.8661933" lon="14.69937"><ele>642.0</ele><time>2026-04-25T08:15:48.122Z</time></trkpt><trkpt lat="40.8661167" lon="14.699405"><ele>642.0</ele><time>2026-04-25T08:15:49.122Z</time></trkpt><trkpt lat="40.8660467" lon="14.6994767"><ele>642.0</ele><time>2026-04-25T08:15:50.123Z</time></trkpt><trkpt lat="40.8659917" lon="14.6995817"><ele>642.0</ele><time>2026-04-25T08:15:51.122Z</time></trkpt><trkpt lat="40.865965" lon="14.6997083"><ele>642.0</ele><time>2026-04-25T08:15:52.122Z</time></trkpt><trkpt lat="40.865945" lon="14.6998417"><ele>642.0</ele><time>2026-04-25T08:15:53.122Z</time></trkpt><trkpt lat="40.8659267" lon="14.6999967"><ele>642.0</ele><time>2026-04-25T08:15:54.122Z</time></trkpt><trkpt lat="40.8659067" lon="14.7001483"><ele>642.0</ele><time>2026-04-25T08:15:55.122Z</time></trkpt><trkpt lat="40.8658833" lon="14.70029"><ele>642.2</ele><time>2026-04-25T08:15:56.122Z</time></trkpt><trkpt lat="40.86585" lon="14.700425"><ele>642.4000000000001</ele><time>2026-04-25T08:15:57.123Z</time></trkpt><trkpt lat="40.86581" lon="14.700555"><ele>642.5999999999999</ele><time>2026-04-25T08:15:58.122Z</time></trkpt><trkpt lat="40.8657667" lon="14.7006667"><ele>642.8</ele><time>2026-04-25T08:15:59.122Z</time></trkpt><trkpt lat="40.8657267" lon="14.7007567"><ele>643.0</ele><time>2026-04-25T08:16:00.122Z</time></trkpt><trkpt lat="40.8656917" lon="14.70084"><ele>643.0</ele><time>2026-04-25T08:16:01.122Z</time></trkpt><trkpt lat="40.865625" lon="14.7009717"><ele>643.0</ele><time>2026-04-25T08:16:03.122Z</time></trkpt><trkpt lat="40.8655317" lon="14.7010567"><ele>643.0</ele><time>2026-04-25T08:16:05.122Z</time></trkpt><trkpt lat="40.8654367" lon="14.70103"><ele>643.0</ele><time>2026-04-25T08:16:07.122Z</time></trkpt><trkpt lat="40.8653833" lon="14.7009567"><ele>643.0</ele><time>2026-04-25T08:16:09.122Z</time></trkpt><trkpt lat="40.865335" lon="14.7008833"><ele>643.0</ele><time>2026-04-25T08:16:12.122Z</time></trkpt><trkpt lat="40.86527" lon="14.70085"><ele>643.0</ele><time>2026-04-25T08:16:15.122Z</time></trkpt><trkpt lat="40.86518" lon="14.7008017"><ele>643.0</ele><time>2026-04-25T08:16:18.122Z</time></trkpt><trkpt lat="40.8650667" lon="14.7007933"><ele>643.0</ele><time>2026-04-25T08:16:20.123Z</time></trkpt><trkpt lat="40.865" lon="14.7008"><ele>643.0</ele><time>2026-04-25T08:16:21.123Z</time></trkpt><trkpt lat="40.864925" lon="14.7008133"><ele>643.0</ele><time>2026-04-25T08:16:22.123Z</time></trkpt><trkpt lat="40.8648583" lon="14.70082"><ele>643.1666666666667</ele><time>2026-04-25T08:16:23.122Z</time></trkpt><trkpt lat="40.864735" lon="14.7007867"><ele>643.3333333333334</ele><time>2026-04-25T08:16:25.122Z</time></trkpt><trkpt lat="40.8646783" lon="14.70075"><ele>643.5</ele><time>2026-04-25T08:16:26.122Z</time></trkpt><trkpt lat="40.8646167" lon="14.7006983"><ele>643.6666666666666</ele><time>2026-04-25T08:16:27.122Z</time></trkpt><trkpt lat="40.8645567" lon="14.7006283"><ele>643.8333333333333</ele><time>2026-04-25T08:16:28.122Z</time></trkpt><trkpt lat="40.8644983" lon="14.700555"><ele>644.0</ele><time>2026-04-25T08:16:29.122Z</time></trkpt><trkpt lat="40.8644383" lon="14.7004817"><ele>644.0</ele><time>2026-04-25T08:16:30.122Z</time></trkpt><trkpt lat="40.864375" lon="14.7004117"><ele>644.0</ele><time>2026-04-25T08:16:31.122Z</time></trkpt><trkpt lat="40.8643083" lon="14.7003417"><ele>644.0</ele><time>2026-04-25T08:16:32.122Z</time></trkpt><trkpt lat="40.8642483" lon="14.7002667"><ele>644.0</ele><time>2026-04-25T08:16:33.122Z</time></trkpt><trkpt lat="40.8641933" lon="14.7001017"><ele>644.0</ele><time>2026-04-25T08:16:35.122Z</time></trkpt><trkpt lat="40.8641883" lon="14.6999933"><ele>645.6666666666666</ele><time>2026-04-25T08:16:36.123Z</time></trkpt><trkpt lat="40.8641917" lon="14.69989"><ele>647.3333333333333</ele><time>2026-04-25T08:16:37.122Z</time></trkpt><trkpt lat="40.8642" lon="14.6997883"><ele>649.0</ele><time>2026-04-25T08:16:38.122Z</time></trkpt><trkpt lat="40.864185" lon="14.699705"><ele>650.6666666666666</ele><time>2026-04-25T08:16:39.122Z</time></trkpt><trkpt lat="40.8641033" lon="14.69962"><ele>652.3333333333334</ele><time>2026-04-25T08:16:41.122Z</time></trkpt><trkpt lat="40.86404" lon="14.6996183"><ele>654.0</ele><time>2026-04-25T08:16:42.123Z</time></trkpt><trkpt lat="40.8639683" lon="14.69964"><ele>654.0</ele><time>2026-04-25T08:16:43.122Z</time></trkpt><trkpt lat="40.8638933" lon="14.699665"><ele>654.0</ele><time>2026-04-25T08:16:44.122Z</time></trkpt><trkpt lat="40.8638083" lon="14.699685"><ele>654.0</ele><time>2026-04-25T08:16:45.122Z</time></trkpt><trkpt lat="40.86372" lon="14.699695"><ele>654.0</ele><time>2026-04-25T08:16:46.122Z</time></trkpt><trkpt lat="40.8636367" lon="14.6996933"><ele>654.0</ele><time>2026-04-25T08:16:47.122Z</time></trkpt><trkpt lat="40.8635567" lon="14.6996717"><ele>654.0</ele><time>2026-04-25T08:16:48.122Z</time></trkpt><trkpt lat="40.86348" lon="14.69963"><ele>654.1666666666666</ele><time>2026-04-25T08:16:49.122Z</time></trkpt><trkpt lat="40.8634217" lon="14.699565"><ele>654.3333333333334</ele><time>2026-04-25T08:16:50.122Z</time></trkpt><trkpt lat="40.8633783" lon="14.6994817"><ele>654.5</ele><time>2026-04-25T08:16:51.122Z</time></trkpt><trkpt lat="40.8633467" lon="14.6993783"><ele>654.6666666666667</ele><time>2026-04-25T08:16:52.122Z</time></trkpt><trkpt lat="40.8633167" lon="14.6992733"><ele>654.8333333333334</ele><time>2026-04-25T08:16:53.122Z</time></trkpt><trkpt lat="40.8632767" lon="14.699175"><ele>655.0</ele><time>2026-04-25T08:16:54.122Z</time></trkpt><trkpt lat="40.86323" lon="14.6990983"><ele>655.0</ele><time>2026-04-25T08:16:55.122Z</time></trkpt><trkpt lat="40.8631667" lon="14.6990483"><ele>655.0</ele><time>2026-04-25T08:16:56.122Z</time></trkpt><trkpt lat="40.863095" lon="14.6990417"><ele>655.0</ele><time>2026-04-25T08:16:57.122Z</time></trkpt><trkpt lat="40.8630133" lon="14.699075"><ele>655.0</ele><time>2026-04-25T08:16:58.122Z</time></trkpt><trkpt lat="40.8629217" lon="14.6991183"><ele>655.0</ele><time>2026-04-25T08:16:59.122Z</time></trkpt><trkpt lat="40.86282" lon="14.6991633"><ele>655.0</ele><time>2026-04-25T08:17:00.122Z</time></trkpt><trkpt lat="40.8627133" lon="14.699195"><ele>656.8</ele><time>2026-04-25T08:17:01.122Z</time></trkpt><trkpt lat="40.8626067" lon="14.6992117"><ele>658.6</ele><time>2026-04-25T08:17:02.122Z</time></trkpt><trkpt lat="40.8625033" lon="14.69924"><ele>660.4000000000001</ele><time>2026-04-25T08:17:03.122Z</time></trkpt><trkpt lat="40.8623983" lon="14.6992617"><ele>662.2</ele><time>2026-04-25T08:17:04.123Z</time></trkpt><trkpt lat="40.862305" lon="14.6992567"><ele>664.0</ele><time>2026-04-25T08:17:05.122Z</time></trkpt><trkpt lat="40.8622317" lon="14.6992217"><ele>664.0</ele><time>2026-04-25T08:17:06.122Z</time></trkpt><trkpt lat="40.8621717" lon="14.6991617"><ele>664.0</ele><time>2026-04-25T08:17:07.122Z</time></trkpt><trkpt lat="40.8621317" lon="14.6990733"><ele>664.0</ele><time>2026-04-25T08:17:08.122Z</time></trkpt><trkpt lat="40.8621117" lon="14.6989667"><ele>664.0</ele><time>2026-04-25T08:17:09.122Z</time></trkpt><trkpt lat="40.8620917" lon="14.6988467"><ele>664.0</ele><time>2026-04-25T08:17:10.122Z</time></trkpt><trkpt lat="40.8620583" lon="14.698745"><ele>664.0</ele><time>2026-04-25T08:17:11.122Z</time></trkpt><trkpt lat="40.8620217" lon="14.6986767"><ele>664.0</ele><time>2026-04-25T08:17:12.122Z</time></trkpt><trkpt lat="40.8619367" lon="14.698665"><ele>664.0</ele><time>2026-04-25T08:17:14.122Z</time></trkpt><trkpt lat="40.8618767" lon="14.698765"><ele>664.0</ele><time>2026-04-25T08:17:16.123Z</time></trkpt><trkpt lat="40.8618633" lon="14.6988467"><ele>664.0</ele><time>2026-04-25T08:17:17.122Z</time></trkpt><trkpt lat="40.8618467" lon="14.69896"><ele>664.0</ele><time>2026-04-25T08:17:18.122Z</time></trkpt><trkpt lat="40.861815" lon="14.6990817"><ele>664.0</ele><time>2026-04-25T08:17:19.122Z</time></trkpt><trkpt lat="40.8617767" lon="14.6992"><ele>665.8333333333334</ele><time>2026-04-25T08:17:20.122Z</time></trkpt><trkpt lat="40.861735" lon="14.699295"><ele>667.6666666666667</ele><time>2026-04-25T08:17:21.122Z</time></trkpt><trkpt lat="40.8616667" lon="14.6993633"><ele>669.5</ele><time>2026-04-25T08:17:22.122Z</time></trkpt><trkpt lat="40.86159" lon="14.6994117"><ele>671.3333333333334</ele><time>2026-04-25T08:17:23.122Z</time></trkpt><trkpt lat="40.8615033" lon="14.6994333"><ele>673.1666666666666</ele><time>2026-04-25T08:17:24.122Z</time></trkpt><trkpt lat="40.86141" lon="14.6994267"><ele>675.0</ele><time>2026-04-25T08:17:25.122Z</time></trkpt><trkpt lat="40.8613017" lon="14.69939"><ele>675.0</ele><time>2026-04-25T08:17:26.122Z</time></trkpt><trkpt lat="40.86118" lon="14.699345"><ele>675.0</ele><time>2026-04-25T08:17:27.122Z</time></trkpt><trkpt lat="40.8610617" lon="14.6992967"><ele>675.0</ele><time>2026-04-25T08:17:28.123Z</time></trkpt><trkpt lat="40.86095" lon="14.699245"><ele>675.0</ele><time>2026-04-25T08:17:29.122Z</time></trkpt><trkpt lat="40.8608433" lon="14.6991917"><ele>675.0</ele><time>2026-04-25T08:17:30.122Z</time></trkpt><trkpt lat="40.8607367" lon="14.6991467"><ele>675.0</ele><time>2026-04-25T08:17:31.122Z</time></trkpt><trkpt lat="40.8606383" lon="14.6990917"><ele>675.0</ele><time>2026-04-25T08:17:32.122Z</time></trkpt><trkpt lat="40.8605367" lon="14.6990383"><ele>675.0</ele><time>2026-04-25T08:17:33.122Z</time></trkpt><trkpt lat="40.8604317" lon="14.698985"><ele>675.0</ele><time>2026-04-25T08:17:34.122Z</time></trkpt><trkpt lat="40.8603233" lon="14.698935"><ele>675.0</ele><time>2026-04-25T08:17:35.122Z</time></trkpt><trkpt lat="40.8602333" lon="14.6988883"><ele>675.0</ele><time>2026-04-25T08:17:36.122Z</time></trkpt><trkpt lat="40.8601533" lon="14.698855"><ele>675.0</ele><time>2026-04-25T08:17:37.122Z</time></trkpt><trkpt lat="40.86007" lon="14.698845"><ele>675.0</ele><time>2026-04-25T08:17:38.122Z</time></trkpt><trkpt lat="40.8600017" lon="14.6988617"><ele>675.0</ele><time>2026-04-25T08:17:39.122Z</time></trkpt><trkpt lat="40.8599467" lon="14.698905"><ele>675.0</ele><time>2026-04-25T08:17:40.122Z</time></trkpt><trkpt lat="40.8599017" lon="14.69898"><ele>673.6</ele><time>2026-04-25T08:17:41.122Z</time></trkpt><trkpt lat="40.8598767" lon="14.699085"><ele>672.2</ele><time>2026-04-25T08:17:42.122Z</time></trkpt><trkpt lat="40.8598817" lon="14.69919"><ele>670.8</ele><time>2026-04-25T08:17:43.122Z</time></trkpt><trkpt lat="40.8599083" lon="14.699305"><ele>669.4</ele><time>2026-04-25T08:17:44.122Z</time></trkpt><trkpt lat="40.8599533" lon="14.699435"><ele>668.0</ele><time>2026-04-25T08:17:45.122Z</time></trkpt><trkpt lat="40.860005" lon="14.6995817"><ele>667.75</ele><time>2026-04-25T08:17:46.122Z</time></trkpt><trkpt lat="40.8600533" lon="14.6997383"><ele>667.5</ele><time>2026-04-25T08:17:47.122Z</time></trkpt><trkpt lat="40.860075" lon="14.6998917"><ele>667.25</ele><time>2026-04-25T08:17:48.123Z</time></trkpt><trkpt lat="40.860085" lon="14.7000367"><ele>667.0</ele><time>2026-04-25T08:17:49.122Z</time></trkpt><trkpt lat="40.8600683" lon="14.7001683"><ele>666.6666666666667</ele><time>2026-04-25T08:17:50.122Z</time></trkpt><trkpt lat="40.86002" lon="14.7002883"><ele>666.3333333333334</ele><time>2026-04-25T08:17:51.123Z</time></trkpt><trkpt lat="40.8599617" lon="14.7003883"><ele>666.0</ele><time>2026-04-25T08:17:52.122Z</time></trkpt><trkpt lat="40.8599117" lon="14.7004883"><ele>665.6666666666666</ele><time>2026-04-25T08:17:53.122Z</time></trkpt><trkpt lat="40.8598867" lon="14.7005867"><ele>665.3333333333333</ele><time>2026-04-25T08:17:54.122Z</time></trkpt><trkpt lat="40.859895" lon="14.7006867"><ele>665.0</ele><time>2026-04-25T08:17:55.122Z</time></trkpt><trkpt lat="40.8599283" lon="14.7007767"><ele>665.0</ele><time>2026-04-25T08:17:56.123Z</time></trkpt><trkpt lat="40.8599917" lon="14.7008617"><ele>665.0</ele><time>2026-04-25T08:17:57.123Z</time></trkpt><trkpt lat="40.860075" lon="14.7009483"><ele>665.0</ele><time>2026-04-25T08:17:58.122Z</time></trkpt><trkpt lat="40.8601583" lon="14.7010383"><ele>665.0</ele><time>2026-04-25T08:17:59.122Z</time></trkpt><trkpt lat="40.8602283" lon="14.7011517"><ele>665.0</ele><time>2026-04-25T08:18:00.122Z</time></trkpt><trkpt lat="40.8602833" lon="14.7012883"><ele>665.5</ele><time>2026-04-25T08:18:01.122Z</time></trkpt><trkpt lat="40.8603283" lon="14.7014483"><ele>666.0</ele><time>2026-04-25T08:18:02.122Z</time></trkpt><trkpt lat="40.86037" lon="14.7016133"><ele>666.5</ele><time>2026-04-25T08:18:03.122Z</time></trkpt><trkpt lat="40.8603967" lon="14.7017717"><ele>667.0</ele><time>2026-04-25T08:18:04.122Z</time></trkpt><trkpt lat="40.8603983" lon="14.7019133"><ele>665.8</ele><time>2026-04-25T08:18:05.122Z</time></trkpt><trkpt lat="40.8603767" lon="14.7020317"><ele>664.6</ele><time>2026-04-25T08:18:06.123Z</time></trkpt><trkpt lat="40.860335" lon="14.7021233"><ele>663.4</ele><time>2026-04-25T08:18:07.122Z</time></trkpt><trkpt lat="40.8602617" lon="14.7022033"><ele>662.1999999999999</ele><time>2026-04-25T08:18:08.123Z</time></trkpt><trkpt lat="40.860175" lon="14.7022867"><ele>661.0</ele><time>2026-04-25T08:18:09.122Z</time></trkpt><trkpt lat="40.8600833" lon="14.7023783"><ele>660.25</ele><time>2026-04-25T08:18:10.122Z</time></trkpt><trkpt lat="40.859985" lon="14.7024883"><ele>659.5</ele><time>2026-04-25T08:18:11.122Z</time></trkpt><trkpt lat="40.8598767" lon="14.7026067"><ele>658.75</ele><time>2026-04-25T08:18:12.122Z</time></trkpt><trkpt lat="40.8597617" lon="14.7027267"><ele>658.0</ele><time>2026-04-25T08:18:13.122Z</time></trkpt><trkpt lat="40.8596483" lon="14.70285"><ele>658.0</ele><time>2026-04-25T08:18:14.122Z</time></trkpt><trkpt lat="40.859545" lon="14.7029583"><ele>658.0</ele><time>2026-04-25T08:18:15.122Z</time></trkpt><trkpt lat="40.859455" lon="14.7030483"><ele>658.0</ele><time>2026-04-25T08:18:16.122Z</time></trkpt><trkpt lat="40.8593617" lon="14.7031133"><ele>658.0</ele><time>2026-04-25T08:18:17.123Z</time></trkpt><trkpt lat="40.8592667" lon="14.7031433"><ele>658.0</ele><time>2026-04-25T08:18:18.122Z</time></trkpt><trkpt lat="40.85917" lon="14.7031483"><ele>655.75</ele><time>2026-04-25T08:18:19.122Z</time></trkpt><trkpt lat="40.8590583" lon="14.7031467"><ele>653.5</ele><time>2026-04-25T08:18:20.122Z</time></trkpt><trkpt lat="40.8589317" lon="14.70315"><ele>651.25</ele><time>2026-04-25T08:18:21.122Z</time></trkpt><trkpt lat="40.8588117" lon="14.703155"><ele>649.0</ele><time>2026-04-25T08:18:22.122Z</time></trkpt><trkpt lat="40.8586933" lon="14.70317"><ele>649.0</ele><time>2026-04-25T08:18:23.122Z</time></trkpt><trkpt lat="40.8585867" lon="14.7031767"><ele>649.0</ele><time>2026-04-25T08:18:24.122Z</time></trkpt><trkpt lat="40.858495" lon="14.7031883"><ele>649.0</ele><time>2026-04-25T08:18:25.122Z</time></trkpt><trkpt lat="40.8584167" lon="14.70322"><ele>649.0</ele><time>2026-04-25T08:18:26.122Z</time></trkpt><trkpt lat="40.8583517" lon="14.70327"><ele>649.0</ele><time>2026-04-25T08:18:27.122Z</time></trkpt><trkpt lat="40.8583017" lon="14.70333"><ele>649.0</ele><time>2026-04-25T08:18:28.122Z</time></trkpt><trkpt lat="40.8582667" lon="14.70341"><ele>647.5</ele><time>2026-04-25T08:18:29.122Z</time></trkpt><trkpt lat="40.8582433" lon="14.703525"><ele>646.0</ele><time>2026-04-25T08:18:30.122Z</time></trkpt><trkpt lat="40.8582183" lon="14.7036667"><ele>644.5</ele><time>2026-04-25T08:18:31.122Z</time></trkpt><trkpt lat="40.85819" lon="14.7038417"><ele>643.0</ele><time>2026-04-25T08:18:32.123Z</time></trkpt><trkpt lat="40.8581617" lon="14.7040083"><ele>643.0</ele><time>2026-04-25T08:18:33.122Z</time></trkpt><trkpt lat="40.85813" lon="14.7041683"><ele>643.0</ele><time>2026-04-25T08:18:34.122Z</time></trkpt><trkpt lat="40.8581133" lon="14.704315"><ele>643.0</ele><time>2026-04-25T08:18:35.122Z</time></trkpt><trkpt lat="40.8581067" lon="14.7044533"><ele>643.0</ele><time>2026-04-25T08:18:36.122Z</time></trkpt><trkpt lat="40.8581067" lon="14.7045917"><ele>643.0</ele><time>2026-04-25T08:18:37.122Z</time></trkpt><trkpt lat="40.858115" lon="14.7047467"><ele>642.8</ele><time>2026-04-25T08:18:38.122Z</time></trkpt><trkpt lat="40.858125" lon="14.7049067"><ele>642.5999999999999</ele><time>2026-04-25T08:18:39.122Z</time></trkpt><trkpt lat="40.85814" lon="14.7050533"><ele>642.4000000000001</ele><time>2026-04-25T08:18:40.123Z</time></trkpt><trkpt lat="40.8581483" lon="14.7051917"><ele>642.2</ele><time>2026-04-25T08:18:41.122Z</time></trkpt><trkpt lat="40.8581433" lon="14.705315"><ele>642.0</ele><time>2026-04-25T08:18:42.122Z</time></trkpt><trkpt lat="40.8581317" lon="14.705435"><ele>642.5</ele><time>2026-04-25T08:18:43.122Z</time></trkpt><trkpt lat="40.8580933" lon="14.7055217"><ele>643.0</ele><time>2026-04-25T08:18:44.122Z</time></trkpt><trkpt lat="40.8580567" lon="14.7056167"><ele>643.5</ele><time>2026-04-25T08:18:45.122Z</time></trkpt><trkpt lat="40.8580233" lon="14.705725"><ele>644.0</ele><time>2026-04-25T08:18:46.122Z</time></trkpt><trkpt lat="40.8580167" lon="14.7058333"><ele>644.5</ele><time>2026-04-25T08:18:47.122Z</time></trkpt><trkpt lat="40.858015" lon="14.7059367"><ele>645.0</ele><time>2026-04-25T08:18:48.122Z</time></trkpt><trkpt lat="40.858005" lon="14.7060567"><ele>647.75</ele><time>2026-04-25T08:18:49.122Z</time></trkpt><trkpt lat="40.8579883" lon="14.706185"><ele>650.5</ele><time>2026-04-25T08:18:50.122Z</time></trkpt><trkpt lat="40.8579533" lon="14.7063217"><ele>653.25</ele><time>2026-04-25T08:18:51.122Z</time></trkpt><trkpt lat="40.8579" lon="14.7064683"><ele>656.0</ele><time>2026-04-25T08:18:52.122Z</time></trkpt><trkpt lat="40.8578367" lon="14.70661"><ele>656.0</ele><time>2026-04-25T08:18:53.122Z</time></trkpt><trkpt lat="40.857775" lon="14.70674"><ele>656.0</ele><time>2026-04-25T08:18:54.122Z</time></trkpt><trkpt lat="40.85771" lon="14.70687"><ele>656.0</ele><time>2026-04-25T08:18:55.122Z</time></trkpt><trkpt lat="40.8576517" lon="14.7069883"><ele>656.0</ele><time>2026-04-25T08:18:56.122Z</time></trkpt><trkpt lat="40.857605" lon="14.7071017"><ele>656.0</ele><time>2026-04-25T08:18:57.122Z</time></trkpt><trkpt lat="40.857575" lon="14.707225"><ele>647.1999999999999</ele><time>2026-04-25T08:18:58.122Z</time></trkpt><trkpt lat="40.8575683" lon="14.7073433"><ele>638.4</ele><time>2026-04-25T08:18:59.122Z</time></trkpt><trkpt lat="40.8575733" lon="14.7074733"><ele>629.6</ele><time>2026-04-25T08:19:00.122Z</time></trkpt><trkpt lat="40.8575883" lon="14.7076067"><ele>620.8</ele><time>2026-04-25T08:19:01.122Z</time></trkpt><trkpt lat="40.857605" lon="14.7077183"><ele>612.0</ele><time>2026-04-25T08:19:02.122Z</time></trkpt><trkpt lat="40.8576117" lon="14.7078217"><ele>612.0</ele><time>2026-04-25T08:19:03.123Z</time></trkpt><trkpt lat="40.857605" lon="14.707915"><ele>612.0</ele><time>2026-04-25T08:19:04.123Z</time></trkpt><trkpt lat="40.8575867" lon="14.7080083"><ele>612.0</ele><time>2026-04-25T08:19:05.123Z</time></trkpt><trkpt lat="40.8575533" lon="14.7081033"><ele>612.0</ele><time>2026-04-25T08:19:06.123Z</time></trkpt><trkpt lat="40.8575133" lon="14.7082033"><ele>612.0</ele><time>2026-04-25T08:19:07.123Z</time></trkpt><trkpt lat="40.8574767" lon="14.7083133"><ele>612.0</ele><time>2026-04-25T08:19:08.124Z</time></trkpt><trkpt lat="40.857445" lon="14.708435"><ele>612.0</ele><time>2026-04-25T08:19:09.123Z</time></trkpt><trkpt lat="40.8574267" lon="14.7085433"><ele>612.0</ele><time>2026-04-25T08:19:10.123Z</time></trkpt><trkpt lat="40.8574283" lon="14.7086433"><ele>612.0</ele><time>2026-04-25T08:19:11.123Z</time></trkpt><trkpt lat="40.85746" lon="14.7087317"><ele>612.0</ele><time>2026-04-25T08:19:12.123Z</time></trkpt><trkpt lat="40.857515" lon="14.7088133"><ele>612.0</ele><time>2026-04-25T08:19:13.123Z</time></trkpt><trkpt lat="40.8575867" lon="14.708875"><ele>612.0</ele><time>2026-04-25T08:19:14.123Z</time></trkpt><trkpt lat="40.8576617" lon="14.708945"><ele>612.2</ele><time>2026-04-25T08:19:15.123Z</time></trkpt><trkpt lat="40.85771" lon="14.7090533"><ele>612.4000000000001</ele><time>2026-04-25T08:19:16.123Z</time></trkpt><trkpt lat="40.8577617" lon="14.7091633"><ele>612.5999999999999</ele><time>2026-04-25T08:19:17.123Z</time></trkpt><trkpt lat="40.8577983" lon="14.7092817"><ele>612.8</ele><time>2026-04-25T08:19:18.123Z</time></trkpt><trkpt lat="40.85783" lon="14.7094033"><ele>613.0</ele><time>2026-04-25T08:19:19.123Z</time></trkpt><trkpt lat="40.8578617" lon="14.7095217"><ele>613.0</ele><time>2026-04-25T08:19:20.123Z</time></trkpt><trkpt lat="40.8578833" lon="14.7096383"><ele>613.0</ele><time>2026-04-25T08:19:21.123Z</time></trkpt><trkpt lat="40.8579133" lon="14.7097417"><ele>613.0</ele><time>2026-04-25T08:19:22.123Z</time></trkpt><trkpt lat="40.8579517" lon="14.7098533"><ele>613.0</ele><time>2026-04-25T08:19:23.123Z</time></trkpt><trkpt lat="40.8580033" lon="14.7099583"><ele>613.0</ele><time>2026-04-25T08:19:24.123Z</time></trkpt><trkpt lat="40.85807" lon="14.710045"><ele>613.0</ele><time>2026-04-25T08:19:25.123Z</time></trkpt><trkpt lat="40.858155" lon="14.7101133"><ele>613.0</ele><time>2026-04-25T08:19:26.123Z</time></trkpt><trkpt lat="40.858245" lon="14.7101667"><ele>613.0</ele><time>2026-04-25T08:19:27.123Z</time></trkpt><trkpt lat="40.8583267" lon="14.7101917"><ele>613.0</ele><time>2026-04-25T08:19:28.123Z</time></trkpt><trkpt lat="40.8584267" lon="14.7101967"><ele>613.0</ele><time>2026-04-25T08:19:29.123Z</time></trkpt><trkpt lat="40.858525" lon="14.7101983"><ele>614.8</ele><time>2026-04-25T08:19:30.123Z</time></trkpt><trkpt lat="40.858625" lon="14.7102"><ele>616.5999999999999</ele><time>2026-04-25T08:19:31.123Z</time></trkpt><trkpt lat="40.858725" lon="14.710205"><ele>618.4000000000001</ele><time>2026-04-25T08:19:32.123Z</time></trkpt><trkpt lat="40.8588283" lon="14.7102017"><ele>620.2</ele><time>2026-04-25T08:19:33.123Z</time></trkpt><trkpt lat="40.8589067" lon="14.71021"><ele>622.0</ele><time>2026-04-25T08:19:34.123Z</time></trkpt><trkpt lat="40.8590133" lon="14.710205"><ele>622.0</ele><time>2026-04-25T08:19:35.124Z</time></trkpt><trkpt lat="40.8591067" lon="14.7101933"><ele>622.0</ele><time>2026-04-25T08:19:36.123Z</time></trkpt><trkpt lat="40.859215" lon="14.71018"><ele>622.0</ele><time>2026-04-25T08:19:38.123Z</time></trkpt><trkpt lat="40.8592933" lon="14.7101617"><ele>622.0</ele><time>2026-04-25T08:19:39.123Z</time></trkpt><trkpt lat="40.85937" lon="14.71016"><ele>622.0</ele><time>2026-04-25T08:19:40.123Z</time></trkpt><trkpt lat="40.8594333" lon="14.710175"><ele>622.0</ele><time>2026-04-25T08:19:41.123Z</time></trkpt><trkpt lat="40.859505" lon="14.7102133"><ele>614.4</ele><time>2026-04-25T08:19:42.124Z</time></trkpt><trkpt lat="40.8595717" lon="14.7102783"><ele>606.8000000000001</ele><time>2026-04-25T08:19:43.123Z</time></trkpt><trkpt lat="40.8596617" lon="14.7103383"><ele>599.2</ele><time>2026-04-25T08:19:44.123Z</time></trkpt><trkpt lat="40.859755" lon="14.7103817"><ele>591.6</ele><time>2026-04-25T08:19:45.123Z</time></trkpt><trkpt lat="40.8598567" lon="14.710415"><ele>584.0</ele><time>2026-04-25T08:19:46.123Z</time></trkpt><trkpt lat="40.859965" lon="14.710445"><ele>584.0</ele><time>2026-04-25T08:19:47.123Z</time></trkpt><trkpt lat="40.8600733" lon="14.7104767"><ele>584.0</ele><time>2026-04-25T08:19:48.123Z</time></trkpt><trkpt lat="40.8601683" lon="14.7105017"><ele>584.0</ele><time>2026-04-25T08:19:49.123Z</time></trkpt><trkpt lat="40.8602683" lon="14.71051"><ele>584.0</ele><time>2026-04-25T08:19:50.123Z</time></trkpt><trkpt lat="40.8603767" lon="14.7105133"><ele>584.0</ele><time>2026-04-25T08:19:51.123Z</time></trkpt><trkpt lat="40.8604967" lon="14.710515"><ele>583.25</ele><time>2026-04-25T08:19:52.123Z</time></trkpt><trkpt lat="40.8606283" lon="14.7105117"><ele>582.5</ele><time>2026-04-25T08:19:53.123Z</time></trkpt><trkpt lat="40.8607583" lon="14.710515"><ele>581.75</ele><time>2026-04-25T08:19:54.123Z</time></trkpt><trkpt lat="40.8608883" lon="14.7105083"><ele>581.0</ele><time>2026-04-25T08:19:55.123Z</time></trkpt><trkpt lat="40.8610267" lon="14.71051"><ele>580.0</ele><time>2026-04-25T08:19:56.123Z</time></trkpt><trkpt lat="40.861165" lon="14.71053"><ele>579.0</ele><time>2026-04-25T08:19:57.123Z</time></trkpt><trkpt lat="40.8612967" lon="14.7105583"><ele>578.0</ele><time>2026-04-25T08:19:58.123Z</time></trkpt><trkpt lat="40.86142" lon="14.7105717"><ele>577.0</ele><time>2026-04-25T08:19:59.123Z</time></trkpt><trkpt lat="40.8615317" lon="14.71058"><ele>577.0</ele><time>2026-04-25T08:20:00.124Z</time></trkpt><trkpt lat="40.8616533" lon="14.7105733"><ele>577.0</ele><time>2026-04-25T08:20:01.123Z</time></trkpt><trkpt lat="40.861775" lon="14.7105483"><ele>577.0</ele><time>2026-04-25T08:20:02.123Z</time></trkpt><trkpt lat="40.8618917" lon="14.7105183"><ele>577.0</ele><time>2026-04-25T08:20:03.123Z</time></trkpt><trkpt lat="40.8620067" lon="14.7105017"><ele>577.25</ele><time>2026-04-25T08:20:04.123Z</time></trkpt><trkpt lat="40.8621133" lon="14.7105133"><ele>577.5</ele><time>2026-04-25T08:20:05.123Z</time></trkpt><trkpt lat="40.8622233" lon="14.7105433"><ele>577.75</ele><time>2026-04-25T08:20:06.123Z</time></trkpt><trkpt lat="40.862345" lon="14.710585"><ele>578.0</ele><time>2026-04-25T08:20:07.123Z</time></trkpt><trkpt lat="40.862475" lon="14.7106333"><ele>578.0</ele><time>2026-04-25T08:20:08.123Z</time></trkpt><trkpt lat="40.8626117" lon="14.7107"><ele>578.0</ele><time>2026-04-25T08:20:09.123Z</time></trkpt><trkpt lat="40.8627417" lon="14.7107633"><ele>578.0</ele><time>2026-04-25T08:20:10.123Z</time></trkpt><trkpt lat="40.862865" lon="14.7108233"><ele>578.0</ele><time>2026-04-25T08:20:11.123Z</time></trkpt><trkpt lat="40.8629733" lon="14.7108683"><ele>579.6666666666666</ele><time>2026-04-25T08:20:12.123Z</time></trkpt><trkpt lat="40.86307" lon="14.710895"><ele>581.3333333333333</ele><time>2026-04-25T08:20:13.123Z</time></trkpt><trkpt lat="40.8631467" lon="14.7109033"><ele>583.0</ele><time>2026-04-25T08:20:14.123Z</time></trkpt><trkpt lat="40.8632333" lon="14.7109367"><ele>584.6666666666666</ele><time>2026-04-25T08:20:16.123Z</time></trkpt><trkpt lat="40.86324" lon="14.711025"><ele>586.3333333333334</ele><time>2026-04-25T08:20:18.123Z</time></trkpt><trkpt lat="40.8631667" lon="14.7110717"><ele>588.0</ele><time>2026-04-25T08:20:20.123Z</time></trkpt><trkpt lat="40.8630517" lon="14.7110717"><ele>588.0</ele><time>2026-04-25T08:20:22.123Z</time></trkpt><trkpt lat="40.8629833" lon="14.7110633"><ele>588.0</ele><time>2026-04-25T08:20:23.124Z</time></trkpt><trkpt lat="40.8628917" lon="14.7110383"><ele>588.0</ele><time>2026-04-25T08:20:24.123Z</time></trkpt><trkpt lat="40.8627933" lon="14.7110033"><ele>588.0</ele><time>2026-04-25T08:20:25.123Z</time></trkpt><trkpt lat="40.86269" lon="14.7109617"><ele>588.0</ele><time>2026-04-25T08:20:26.123Z</time></trkpt><trkpt lat="40.8625917" lon="14.71092"><ele>585.5</ele><time>2026-04-25T08:20:27.123Z</time></trkpt><trkpt lat="40.8624733" lon="14.7108933"><ele>583.0</ele><time>2026-04-25T08:20:28.123Z</time></trkpt><trkpt lat="40.86235" lon="14.710875"><ele>580.5</ele><time>2026-04-25T08:20:29.123Z</time></trkpt><trkpt lat="40.862225" lon="14.7108567"><ele>578.0</ele><time>2026-04-25T08:20:30.123Z</time></trkpt><trkpt lat="40.8621067" lon="14.7108467"><ele>578.0</ele><time>2026-04-25T08:20:31.123Z</time></trkpt><trkpt lat="40.8619833" lon="14.71086"><ele>578.0</ele><time>2026-04-25T08:20:32.123Z</time></trkpt><trkpt lat="40.8618667" lon="14.7108917"><ele>578.0</ele><time>2026-04-25T08:20:33.123Z</time></trkpt><trkpt lat="40.8617583" lon="14.71093"><ele>578.0</ele><time>2026-04-25T08:20:34.123Z</time></trkpt><trkpt lat="40.861655" lon="14.7109633"><ele>577.8333333333333</ele><time>2026-04-25T08:20:35.123Z</time></trkpt><trkpt lat="40.86157" lon="14.7109883"><ele>577.6666666666666</ele><time>2026-04-25T08:20:36.123Z</time></trkpt><trkpt lat="40.8615117" lon="14.7110233"><ele>577.5</ele><time>2026-04-25T08:20:37.123Z</time></trkpt><trkpt lat="40.8614883" lon="14.7111233"><ele>577.3333333333334</ele><time>2026-04-25T08:20:39.123Z</time></trkpt><trkpt lat="40.861575" lon="14.7111867"><ele>577.1666666666667</ele><time>2026-04-25T08:20:41.123Z</time></trkpt><trkpt lat="40.8616383" lon="14.7111883"><ele>577.0</ele><time>2026-04-25T08:20:42.123Z</time></trkpt><trkpt lat="40.8617183" lon="14.7111733"><ele>572.4</ele><time>2026-04-25T08:20:43.123Z</time></trkpt><trkpt lat="40.8618033" lon="14.7111533"><ele>567.8000000000001</ele><time>2026-04-25T08:20:44.123Z</time></trkpt><trkpt lat="40.8618983" lon="14.71115"><ele>563.2</ele><time>2026-04-25T08:20:45.123Z</time></trkpt><trkpt lat="40.8619917" lon="14.7111783"><ele>558.6</ele><time>2026-04-25T08:20:46.124Z</time></trkpt><trkpt lat="40.862095" lon="14.71123"><ele>554.0</ele><time>2026-04-25T08:20:47.124Z</time></trkpt><trkpt lat="40.8621933" lon="14.71128"><ele>554.0</ele><time>2026-04-25T08:20:48.123Z</time></trkpt><trkpt lat="40.8622983" lon="14.7113267"><ele>554.0</ele><time>2026-04-25T08:20:49.123Z</time></trkpt><trkpt lat="40.8624083" lon="14.7113683"><ele>554.0</ele><time>2026-04-25T08:20:50.123Z</time></trkpt><trkpt lat="40.86252" lon="14.7113983"><ele>554.0</ele><time>2026-04-25T08:20:51.124Z</time></trkpt><trkpt lat="40.86263" lon="14.7114267"><ele>554.0</ele><time>2026-04-25T08:20:52.123Z</time></trkpt><trkpt lat="40.8627467" lon="14.711455"><ele>554.0</ele><time>2026-04-25T08:20:53.123Z</time></trkpt><trkpt lat="40.8628667" lon="14.7114833"><ele>554.0</ele><time>2026-04-25T08:20:54.123Z</time></trkpt><trkpt lat="40.8629783" lon="14.7115067"><ele>554.0</ele><time>2026-04-25T08:20:55.124Z</time></trkpt><trkpt lat="40.8630833" lon="14.7115333"><ele>554.0</ele><time>2026-04-25T08:20:56.124Z</time></trkpt><trkpt lat="40.86318" lon="14.71156"><ele>554.0</ele><time>2026-04-25T08:20:57.124Z</time></trkpt><trkpt lat="40.8632683" lon="14.711565"><ele>554.0</ele><time>2026-04-25T08:20:58.123Z</time></trkpt><trkpt lat="40.86334" lon="14.711555"><ele>554.0</ele><time>2026-04-25T08:20:59.123Z</time></trkpt><trkpt lat="40.8634117" lon="14.71152"><ele>554.0</ele><time>2026-04-25T08:21:00.123Z</time></trkpt><trkpt lat="40.8634733" lon="14.7114933"><ele>554.0</ele><time>2026-04-25T08:21:01.123Z</time></trkpt><trkpt lat="40.8635383" lon="14.71149"><ele>555.0</ele><time>2026-04-25T08:21:02.123Z</time></trkpt><trkpt lat="40.863605" lon="14.71152"><ele>556.0</ele><time>2026-04-25T08:21:03.124Z</time></trkpt><trkpt lat="40.8636817" lon="14.71158"><ele>557.0</ele><time>2026-04-25T08:21:04.123Z</time></trkpt><trkpt lat="40.8637617" lon="14.7116583"><ele>558.0</ele><time>2026-04-25T08:21:05.123Z</time></trkpt><trkpt lat="40.8638533" lon="14.7117267"><ele>559.0</ele><time>2026-04-25T08:21:06.123Z</time></trkpt><trkpt lat="40.8639483" lon="14.7117867"><ele>559.0</ele><time>2026-04-25T08:21:07.123Z</time></trkpt><trkpt lat="40.86406" lon="14.7118283"><ele>559.0</ele><time>2026-04-25T08:21:08.123Z</time></trkpt><trkpt lat="40.86417" lon="14.711885"><ele>559.0</ele><time>2026-04-25T08:21:09.123Z</time></trkpt><trkpt lat="40.8642667" lon="14.7119667"><ele>559.0</ele><time>2026-04-25T08:21:10.123Z</time></trkpt><trkpt lat="40.8643517" lon="14.7120667"><ele>555.3333333333334</ele><time>2026-04-25T08:21:11.124Z</time></trkpt><trkpt lat="40.8644217" lon="14.7121633"><ele>551.6666666666667</ele><time>2026-04-25T08:21:12.123Z</time></trkpt><trkpt lat="40.864495" lon="14.7122367"><ele>548.0</ele><time>2026-04-25T08:21:13.123Z</time></trkpt><trkpt lat="40.8645733" lon="14.7122717"><ele>544.3333333333334</ele><time>2026-04-25T08:21:14.123Z</time></trkpt><trkpt lat="40.8646367" lon="14.7122833"><ele>540.6666666666666</ele><time>2026-04-25T08:21:15.123Z</time></trkpt><trkpt lat="40.8647317" lon="14.7122883"><ele>537.0</ele><time>2026-04-25T08:21:17.123Z</time></trkpt><trkpt lat="40.8648067" lon="14.7122967"><ele>537.0</ele><time>2026-04-25T08:21:20.123Z</time></trkpt></trkseg><trkseg><trkpt lat="40.8648" lon="14.7123733"><ele>537.0</ele><time>2026-04-25T08:36:23.113Z</time></trkpt><trkpt lat="40.8648817" lon="14.7122833"><ele>537.0</ele><time>2026-04-25T08:46:14.112Z</time></trkpt><trkpt lat="40.864985" lon="14.7122783"><ele>537.0</ele><time>2026-04-25T08:46:17.113Z</time></trkpt><trkpt lat="40.8650817" lon="14.7122967"><ele>537.0</ele><time>2026-04-25T08:46:19.112Z</time></trkpt><trkpt lat="40.865155" lon="14.7123317"><ele>537.0</ele><time>2026-04-25T08:46:20.112Z</time></trkpt><trkpt lat="40.86524" lon="14.7123933"><ele>537.8000000000001</ele><time>2026-04-25T08:46:21.112Z</time></trkpt><trkpt lat="40.8653333" lon="14.71247"><ele>538.6</ele><time>2026-04-25T08:46:22.112Z</time></trkpt><trkpt lat="40.8654233" lon="14.7125367"><ele>539.4000000000001</ele><time>2026-04-25T08:46:23.112Z</time></trkpt><trkpt lat="40.8655167" lon="14.7125883"><ele>540.2</ele><time>2026-04-25T08:46:24.112Z</time></trkpt><trkpt lat="40.8656183" lon="14.71262"><ele>541.0</ele><time>2026-04-25T08:46:25.112Z</time></trkpt><trkpt lat="40.865735" lon="14.7126483"><ele>541.0</ele><time>2026-04-25T08:46:26.112Z</time></trkpt><trkpt lat="40.8658533" lon="14.7126833"><ele>541.0</ele><time>2026-04-25T08:46:27.112Z</time></trkpt><trkpt lat="40.86596" lon="14.7127417"><ele>541.0</ele><time>2026-04-25T08:46:28.112Z</time></trkpt><trkpt lat="40.86605" lon="14.7128067"><ele>541.0</ele><time>2026-04-25T08:46:29.112Z</time></trkpt><trkpt lat="40.8661267" lon="14.7128967"><ele>541.0</ele><time>2026-04-25T08:46:30.112Z</time></trkpt><trkpt lat="40.8661967" lon="14.7129817"><ele>537.25</ele><time>2026-04-25T08:46:31.112Z</time></trkpt><trkpt lat="40.8662933" lon="14.7130617"><ele>533.5</ele><time>2026-04-25T08:46:32.112Z</time></trkpt><trkpt lat="40.8664067" lon="14.7131333"><ele>529.75</ele><time>2026-04-25T08:46:33.112Z</time></trkpt><trkpt lat="40.8665217" lon="14.7131983"><ele>526.0</ele><time>2026-04-25T08:46:34.112Z</time></trkpt><trkpt lat="40.8666283" lon="14.71325"><ele>526.0</ele><time>2026-04-25T08:46:35.112Z</time></trkpt><trkpt lat="40.8667333" lon="14.7132833"><ele>526.0</ele><time>2026-04-25T08:46:36.112Z</time></trkpt><trkpt lat="40.8668383" lon="14.7133033"><ele>526.0</ele><time>2026-04-25T08:46:37.112Z</time></trkpt><trkpt lat="40.866945" lon="14.71331"><ele>526.0</ele><time>2026-04-25T08:46:38.112Z</time></trkpt><trkpt lat="40.8670633" lon="14.7132883"><ele>526.0</ele><time>2026-04-25T08:46:39.112Z</time></trkpt><trkpt lat="40.8671817" lon="14.7132433"><ele>524.25</ele><time>2026-04-25T08:46:40.112Z</time></trkpt><trkpt lat="40.8672917" lon="14.7131667"><ele>522.5</ele><time>2026-04-25T08:46:41.113Z</time></trkpt><trkpt lat="40.8674033" lon="14.7130867"><ele>520.75</ele><time>2026-04-25T08:46:42.112Z</time></trkpt><trkpt lat="40.867505" lon="14.7130233"><ele>519.0</ele><time>2026-04-25T08:46:43.112Z</time></trkpt><trkpt lat="40.8675933" lon="14.71299"><ele>518.8</ele><time>2026-04-25T08:46:44.112Z</time></trkpt><trkpt lat="40.867675" lon="14.71299"><ele>518.5999999999999</ele><time>2026-04-25T08:46:45.112Z</time></trkpt><trkpt lat="40.86776" lon="14.713025"><ele>518.4</ele><time>2026-04-25T08:46:46.112Z</time></trkpt><trkpt lat="40.8678583" lon="14.713075"><ele>518.1999999999999</ele><time>2026-04-25T08:46:47.112Z</time></trkpt><trkpt lat="40.8679583" lon="14.7131217"><ele>518.0</ele><time>2026-04-25T08:46:48.112Z</time></trkpt><trkpt lat="40.8680533" lon="14.7131667"><ele>518.0</ele><time>2026-04-25T08:46:49.112Z</time></trkpt><trkpt lat="40.8681333" lon="14.7132217"><ele>518.0</ele><time>2026-04-25T08:46:50.112Z</time></trkpt><trkpt lat="40.868195" lon="14.7132967"><ele>518.0</ele><time>2026-04-25T08:46:51.113Z</time></trkpt><trkpt lat="40.8682267" lon="14.713385"><ele>518.0</ele><time>2026-04-25T08:46:52.112Z</time></trkpt><trkpt lat="40.8682267" lon="14.7134933"><ele>518.0</ele><time>2026-04-25T08:46:53.112Z</time></trkpt><trkpt lat="40.8682217" lon="14.7136083"><ele>518.0</ele><time>2026-04-25T08:46:54.112Z</time></trkpt><trkpt lat="40.8682233" lon="14.7137167"><ele>516.0</ele><time>2026-04-25T08:46:55.112Z</time></trkpt><trkpt lat="40.8682533" lon="14.7138067"><ele>514.0</ele><time>2026-04-25T08:46:56.113Z</time></trkpt><trkpt lat="40.8682917" lon="14.7138867"><ele>512.0</ele><time>2026-04-25T08:46:57.112Z</time></trkpt><trkpt lat="40.868385" lon="14.7139967"><ele>510.0</ele><time>2026-04-25T08:46:59.112Z</time></trkpt><trkpt lat="40.8684517" lon="14.7140433"><ele>507.99999999999994</ele><time>2026-04-25T08:47:00.112Z</time></trkpt><trkpt lat="40.8685217" lon="14.7140867"><ele>506.0</ele><time>2026-04-25T08:47:01.112Z</time></trkpt><trkpt lat="40.8686" lon="14.7141283"><ele>506.0</ele><time>2026-04-25T08:47:02.112Z</time></trkpt><trkpt lat="40.8686833" lon="14.7141533"><ele>506.0</ele><time>2026-04-25T08:47:03.112Z</time></trkpt><trkpt lat="40.8687717" lon="14.7141483"><ele>506.0</ele><time>2026-04-25T08:47:04.112Z</time></trkpt><trkpt lat="40.868865" lon="14.7141217"><ele>506.0</ele><time>2026-04-25T08:47:05.112Z</time></trkpt><trkpt lat="40.868955" lon="14.7140883"><ele>506.0</ele><time>2026-04-25T08:47:06.112Z</time></trkpt><trkpt lat="40.869045" lon="14.7140483"><ele>506.0</ele><time>2026-04-25T08:47:07.112Z</time></trkpt><trkpt lat="40.86913" lon="14.714015"><ele>506.0</ele><time>2026-04-25T08:47:08.112Z</time></trkpt><trkpt lat="40.8692033" lon="14.7139833"><ele>506.0</ele><time>2026-04-25T08:47:09.112Z</time></trkpt><trkpt lat="40.8692967" lon="14.7139317"><ele>506.0</ele><time>2026-04-25T08:47:11.112Z</time></trkpt><trkpt lat="40.8693583" lon="14.713815"><ele>506.0</ele><time>2026-04-25T08:48:31.111Z</time></trkpt><trkpt lat="40.8694033" lon="14.7137133"><ele>508.0</ele><time>2026-04-25T08:48:33.111Z</time></trkpt><trkpt lat="40.869485" lon="14.7136133"><ele>510.0</ele><time>2026-04-25T08:48:35.111Z</time></trkpt><trkpt lat="40.8695883" lon="14.713615"><ele>512.0</ele><time>2026-04-25T08:48:37.111Z</time></trkpt><trkpt lat="40.8696683" lon="14.713735"><ele>514.0</ele><time>2026-04-25T08:48:39.111Z</time></trkpt><trkpt lat="40.8696767" lon="14.713825"><ele>516.0</ele><time>2026-04-25T08:48:40.111Z</time></trkpt><trkpt lat="40.8696717" lon="14.7139367"><ele>516.0</ele><time>2026-04-25T08:48:41.111Z</time></trkpt><trkpt lat="40.86966" lon="14.714065"><ele>516.0</ele><time>2026-04-25T08:48:42.111Z</time></trkpt><trkpt lat="40.8696417" lon="14.7142067"><ele>516.0</ele><time>2026-04-25T08:48:43.111Z</time></trkpt><trkpt lat="40.869605" lon="14.7143467"><ele>516.0</ele><time>2026-04-25T08:48:44.111Z</time></trkpt><trkpt lat="40.8695517" lon="14.7144833"><ele>516.0</ele><time>2026-04-25T08:48:45.111Z</time></trkpt><trkpt lat="40.869485" lon="14.7146017"><ele>515.25</ele><time>2026-04-25T08:48:46.111Z</time></trkpt><trkpt lat="40.8693983" lon="14.7146967"><ele>514.5</ele><time>2026-04-25T08:48:47.111Z</time></trkpt><trkpt lat="40.86929" lon="14.7147783"><ele>513.75</ele><time>2026-04-25T08:48:48.111Z</time></trkpt><trkpt lat="40.8691617" lon="14.7148733"><ele>513.0</ele><time>2026-04-25T08:48:49.111Z</time></trkpt><trkpt lat="40.86904" lon="14.7149733"><ele>512.0</ele><time>2026-04-25T08:48:50.111Z</time></trkpt><trkpt lat="40.868915" lon="14.7150833"><ele>511.0</ele><time>2026-04-25T08:48:51.111Z</time></trkpt><trkpt lat="40.8687933" lon="14.7152017"><ele>510.0</ele><time>2026-04-25T08:48:52.111Z</time></trkpt><trkpt lat="40.868675" lon="14.715325"><ele>510.0</ele><time>2026-04-25T08:48:53.111Z</time></trkpt><trkpt lat="40.868555" lon="14.7154367"><ele>510.0</ele><time>2026-04-25T08:48:54.111Z</time></trkpt><trkpt lat="40.8684333" lon="14.71554"><ele>510.0</ele><time>2026-04-25T08:48:55.111Z</time></trkpt><trkpt lat="40.8683167" lon="14.71564"><ele>510.0</ele><time>2026-04-25T08:48:56.111Z</time></trkpt><trkpt lat="40.868205" lon="14.7157367"><ele>508.0</ele><time>2026-04-25T08:48:57.111Z</time></trkpt><trkpt lat="40.8680983" lon="14.7158367"><ele>506.0</ele><time>2026-04-25T08:48:58.111Z</time></trkpt><trkpt lat="40.8679867" lon="14.715935"><ele>504.0</ele><time>2026-04-25T08:48:59.111Z</time></trkpt><trkpt lat="40.8678867" lon="14.716045"><ele>502.0</ele><time>2026-04-25T08:49:00.111Z</time></trkpt><trkpt lat="40.8677917" lon="14.716135"><ele>502.0</ele><time>2026-04-25T08:49:01.111Z</time></trkpt><trkpt lat="40.8676817" lon="14.71622"><ele>502.0</ele><time>2026-04-25T08:49:02.111Z</time></trkpt><trkpt lat="40.86756" lon="14.71629"><ele>502.0</ele><time>2026-04-25T08:49:03.111Z</time></trkpt><trkpt lat="40.867435" lon="14.7163633"><ele>502.0</ele><time>2026-04-25T08:49:04.111Z</time></trkpt><trkpt lat="40.86731" lon="14.7164483"><ele>499.0</ele><time>2026-04-25T08:49:05.111Z</time></trkpt><trkpt lat="40.8671867" lon="14.7165567"><ele>496.0</ele><time>2026-04-25T08:49:06.111Z</time></trkpt><trkpt lat="40.86707" lon="14.7166667"><ele>493.0</ele><time>2026-04-25T08:49:07.111Z</time></trkpt><trkpt lat="40.8669633" lon="14.7167733"><ele>490.0</ele><time>2026-04-25T08:49:08.111Z</time></trkpt><trkpt lat="40.866855" lon="14.7168567"><ele>488.25</ele><time>2026-04-25T08:49:09.111Z</time></trkpt><trkpt lat="40.866735" lon="14.7169433"><ele>486.5</ele><time>2026-04-25T08:49:10.111Z</time></trkpt><trkpt lat="40.8666133" lon="14.7170083"><ele>484.75</ele><time>2026-04-25T08:49:11.111Z</time></trkpt><trkpt lat="40.8664917" lon="14.7170683"><ele>483.0</ele><time>2026-04-25T08:49:12.111Z</time></trkpt><trkpt lat="40.8663767" lon="14.7171367"><ele>483.0</ele><time>2026-04-25T08:49:13.111Z</time></trkpt><trkpt lat="40.866265" lon="14.7172283"><ele>483.0</ele><time>2026-04-25T08:49:14.111Z</time></trkpt><trkpt lat="40.8661483" lon="14.7173383"><ele>483.0</ele><time>2026-04-25T08:49:15.111Z</time></trkpt><trkpt lat="40.8660483" lon="14.7174583"><ele>483.0</ele><time>2026-04-25T08:49:16.112Z</time></trkpt><trkpt lat="40.8659633" lon="14.7175767"><ele>481.1666666666667</ele><time>2026-04-25T08:49:17.111Z</time></trkpt><trkpt lat="40.8658967" lon="14.717685"><ele>479.33333333333337</ele><time>2026-04-25T08:49:18.111Z</time></trkpt><trkpt lat="40.8658433" lon="14.717765"><ele>477.5</ele><time>2026-04-25T08:49:19.111Z</time></trkpt><trkpt lat="40.865785" lon="14.71782"><ele>475.6666666666667</ele><time>2026-04-25T08:49:20.111Z</time></trkpt><trkpt lat="40.86572" lon="14.7178467"><ele>473.83333333333337</ele><time>2026-04-25T08:49:21.112Z</time></trkpt><trkpt lat="40.865655" lon="14.7178183"><ele>472.0</ele><time>2026-04-25T08:49:22.111Z</time></trkpt><trkpt lat="40.8655883" lon="14.71775"><ele>472.0</ele><time>2026-04-25T08:49:23.111Z</time></trkpt><trkpt lat="40.8655133" lon="14.71766"><ele>472.00000000000006</ele><time>2026-04-25T08:49:24.111Z</time></trkpt><trkpt lat="40.8654283" lon="14.71757"><ele>472.00000000000006</ele><time>2026-04-25T08:49:25.111Z</time></trkpt><trkpt lat="40.8653433" lon="14.7174783"><ele>472.0</ele><time>2026-04-25T08:49:26.111Z</time></trkpt><trkpt lat="40.8652567" lon="14.71739"><ele>472.0</ele><time>2026-04-25T08:49:27.111Z</time></trkpt><trkpt lat="40.8651683" lon="14.7173267"><ele>470.8</ele><time>2026-04-25T08:49:28.111Z</time></trkpt><trkpt lat="40.8650733" lon="14.7173017"><ele>469.6</ele><time>2026-04-25T08:49:29.111Z</time></trkpt><trkpt lat="40.86497" lon="14.71731"><ele>468.40000000000003</ele><time>2026-04-25T08:49:30.111Z</time></trkpt><trkpt lat="40.864865" lon="14.7173283"><ele>467.20000000000005</ele><time>2026-04-25T08:49:31.111Z</time></trkpt><trkpt lat="40.864745" lon="14.7173767"><ele>466.0</ele><time>2026-04-25T08:49:32.111Z</time></trkpt><trkpt lat="40.8646233" lon="14.71744"><ele>466.0</ele><time>2026-04-25T08:49:33.112Z</time></trkpt><trkpt lat="40.86449" lon="14.7175183"><ele>466.0</ele><time>2026-04-25T08:49:34.111Z</time></trkpt><trkpt lat="40.8643633" lon="14.7175933"><ele>466.0</ele><time>2026-04-25T08:49:35.111Z</time></trkpt><trkpt lat="40.864245" lon="14.71767"><ele>466.0</ele><time>2026-04-25T08:49:36.111Z</time></trkpt><trkpt lat="40.8641433" lon="14.7177583"><ele>464.6666666666667</ele><time>2026-04-25T08:49:37.111Z</time></trkpt><trkpt lat="40.8640617" lon="14.71784"><ele>463.33333333333337</ele><time>2026-04-25T08:49:38.112Z</time></trkpt><trkpt lat="40.8640117" lon="14.71793"><ele>462.0</ele><time>2026-04-25T08:49:39.111Z</time></trkpt><trkpt lat="40.8639833" lon="14.718035"><ele>460.66666666666663</ele><time>2026-04-25T08:49:40.111Z</time></trkpt><trkpt lat="40.8639733" lon="14.7181417"><ele>459.3333333333333</ele><time>2026-04-25T08:49:41.111Z</time></trkpt><trkpt lat="40.8639817" lon="14.7182533"><ele>458.0</ele><time>2026-04-25T08:49:42.111Z</time></trkpt><trkpt lat="40.863985" lon="14.718375"><ele>458.0</ele><time>2026-04-25T08:49:43.112Z</time></trkpt><trkpt lat="40.863995" lon="14.7184983"><ele>457.99999999999994</ele><time>2026-04-25T08:49:44.111Z</time></trkpt><trkpt lat="40.864" lon="14.7186333"><ele>457.99999999999994</ele><time>2026-04-25T08:49:45.111Z</time></trkpt><trkpt lat="40.8640117" lon="14.71876"><ele>458.0</ele><time>2026-04-25T08:49:46.111Z</time></trkpt><trkpt lat="40.8640333" lon="14.7188867"><ele>458.0</ele><time>2026-04-25T08:49:47.111Z</time></trkpt><trkpt lat="40.8640683" lon="14.71902"><ele>457.25</ele><time>2026-04-25T08:49:48.111Z</time></trkpt><trkpt lat="40.8641117" lon="14.7191483"><ele>456.5</ele><time>2026-04-25T08:49:49.111Z</time></trkpt><trkpt lat="40.8641617" lon="14.7192867"><ele>455.75</ele><time>2026-04-25T08:49:50.111Z</time></trkpt><trkpt lat="40.864215" lon="14.719435"><ele>455.0</ele><time>2026-04-25T08:49:51.111Z</time></trkpt><trkpt lat="40.86427" lon="14.7195817"><ele>455.0</ele><time>2026-04-25T08:49:52.111Z</time></trkpt><trkpt lat="40.8643267" lon="14.71974"><ele>455.0</ele><time>2026-04-25T08:49:53.112Z</time></trkpt><trkpt lat="40.8643833" lon="14.719905"><ele>455.0</ele><time>2026-04-25T08:49:54.111Z</time></trkpt><trkpt lat="40.864445" lon="14.7200783"><ele>455.0</ele><time>2026-04-25T08:49:55.111Z</time></trkpt><trkpt lat="40.86451" lon="14.72025"><ele>454.75</ele><time>2026-04-25T08:49:56.111Z</time></trkpt><trkpt lat="40.86457" lon="14.720425"><ele>454.5</ele><time>2026-04-25T08:49:57.111Z</time></trkpt><trkpt lat="40.8646283" lon="14.7205983"><ele>454.25</ele><time>2026-04-25T08:49:58.111Z</time></trkpt><trkpt lat="40.864685" lon="14.7207783"><ele>454.0</ele><time>2026-04-25T08:49:59.112Z</time></trkpt><trkpt lat="40.8647467" lon="14.72095"><ele>453.75</ele><time>2026-04-25T08:50:00.111Z</time></trkpt><trkpt lat="40.8647983" lon="14.7211183"><ele>453.5</ele><time>2026-04-25T08:50:01.111Z</time></trkpt><trkpt lat="40.8648433" lon="14.7212733"><ele>453.25</ele><time>2026-04-25T08:50:02.111Z</time></trkpt><trkpt lat="40.86488" lon="14.7214033"><ele>453.0</ele><time>2026-04-25T08:50:03.111Z</time></trkpt><trkpt lat="40.864895" lon="14.7215283"><ele>453.0</ele><time>2026-04-25T08:50:04.111Z</time></trkpt><trkpt lat="40.8648867" lon="14.7216417"><ele>452.99999999999994</ele><time>2026-04-25T08:50:05.111Z</time></trkpt><trkpt lat="40.8648483" lon="14.72175"><ele>452.99999999999994</ele><time>2026-04-25T08:50:06.111Z</time></trkpt><trkpt lat="40.8647883" lon="14.7218583"><ele>453.0</ele><time>2026-04-25T08:50:07.112Z</time></trkpt><trkpt lat="40.8647133" lon="14.7219567"><ele>453.0</ele><time>2026-04-25T08:50:08.111Z</time></trkpt><trkpt lat="40.8646183" lon="14.7220517"><ele>453.25</ele><time>2026-04-25T08:50:09.111Z</time></trkpt><trkpt lat="40.8645133" lon="14.7221433"><ele>453.5</ele><time>2026-04-25T08:50:10.111Z</time></trkpt><trkpt lat="40.8644" lon="14.7222217"><ele>453.75</ele><time>2026-04-25T08:50:11.111Z</time></trkpt><trkpt lat="40.8642683" lon="14.7222933"><ele>454.0</ele><time>2026-04-25T08:50:12.111Z</time></trkpt><trkpt lat="40.864135" lon="14.7223633"><ele>453.33333333333337</ele><time>2026-04-25T08:50:13.111Z</time></trkpt><trkpt lat="40.864" lon="14.7224283"><ele>452.66666666666663</ele><time>2026-04-25T08:50:14.111Z</time></trkpt><trkpt lat="40.863855" lon="14.7225083"><ele>452.0</ele><time>2026-04-25T08:50:15.111Z</time></trkpt><trkpt lat="40.863705" lon="14.72259"><ele>452.0</ele><time>2026-04-25T08:50:16.111Z</time></trkpt><trkpt lat="40.863555" lon="14.7226817"><ele>452.0</ele><time>2026-04-25T08:50:17.111Z</time></trkpt><trkpt lat="40.863415" lon="14.7227583"><ele>452.0</ele><time>2026-04-25T08:50:18.111Z</time></trkpt><trkpt lat="40.8632717" lon="14.7228367"><ele>450.66666666666663</ele><time>2026-04-25T08:50:19.111Z</time></trkpt><trkpt lat="40.86312" lon="14.7229183"><ele>449.33333333333337</ele><time>2026-04-25T08:50:20.111Z</time></trkpt><trkpt lat="40.86297" lon="14.722995"><ele>448.0</ele><time>2026-04-25T08:50:21.112Z</time></trkpt><trkpt lat="40.862815" lon="14.7230733"><ele>448.0</ele><time>2026-04-25T08:50:22.111Z</time></trkpt><trkpt lat="40.8626533" lon="14.7231467"><ele>448.0</ele><time>2026-04-25T08:50:23.111Z</time></trkpt><trkpt lat="40.862495" lon="14.72321"><ele>448.0</ele><time>2026-04-25T08:50:24.111Z</time></trkpt><trkpt lat="40.8623367" lon="14.7232833"><ele>447.0</ele><time>2026-04-25T08:50:25.111Z</time></trkpt><trkpt lat="40.8621767" lon="14.72335"><ele>446.0</ele><time>2026-04-25T08:50:26.111Z</time></trkpt><trkpt lat="40.8620217" lon="14.7234117"><ele>445.0</ele><time>2026-04-25T08:50:27.111Z</time></trkpt><trkpt lat="40.8618633" lon="14.7234683"><ele>445.25</ele><time>2026-04-25T08:50:28.111Z</time></trkpt><trkpt lat="40.86171" lon="14.7235117"><ele>445.5</ele><time>2026-04-25T08:50:29.112Z</time></trkpt><trkpt lat="40.8615633" lon="14.7235533"><ele>445.75</ele><time>2026-04-25T08:50:30.111Z</time></trkpt><trkpt lat="40.8614267" lon="14.7235917"><ele>446.0</ele><time>2026-04-25T08:50:31.111Z</time></trkpt><trkpt lat="40.8612967" lon="14.7236283"><ele>446.0</ele><time>2026-04-25T08:50:32.111Z</time></trkpt><trkpt lat="40.8611733" lon="14.7236667"><ele>446.0</ele><time>2026-04-25T08:50:33.111Z</time></trkpt><trkpt lat="40.86105" lon="14.72372"><ele>446.0</ele><time>2026-04-25T08:50:34.111Z</time></trkpt><trkpt lat="40.86093" lon="14.72378"><ele>446.0</ele><time>2026-04-25T08:50:35.111Z</time></trkpt><trkpt lat="40.8608067" lon="14.7238467"><ele>445.25</ele><time>2026-04-25T08:50:36.111Z</time></trkpt><trkpt lat="40.8606883" lon="14.723935"><ele>444.5</ele><time>2026-04-25T08:50:37.111Z</time></trkpt><trkpt lat="40.8605733" lon="14.7240317"><ele>443.75</ele><time>2026-04-25T08:50:38.111Z</time></trkpt><trkpt lat="40.8604667" lon="14.72413"><ele>443.0</ele><time>2026-04-25T08:50:39.111Z</time></trkpt><trkpt lat="40.8603717" lon="14.7242167"><ele>443.0</ele><time>2026-04-25T08:50:40.111Z</time></trkpt><trkpt lat="40.860285" lon="14.724295"><ele>442.99999999999994</ele><time>2026-04-25T08:50:41.111Z</time></trkpt><trkpt lat="40.8602133" lon="14.7243783"><ele>442.99999999999994</ele><time>2026-04-25T08:50:42.111Z</time></trkpt><trkpt lat="40.8601683" lon="14.7244633"><ele>443.0</ele><time>2026-04-25T08:50:43.111Z</time></trkpt><trkpt lat="40.8601467" lon="14.7245783"><ele>443.0</ele><time>2026-04-25T08:50:44.111Z</time></trkpt><trkpt lat="40.8601433" lon="14.7247183"><ele>443.25</ele><time>2026-04-25T08:50:45.111Z</time></trkpt><trkpt lat="40.860155" lon="14.7248867"><ele>443.5</ele><time>2026-04-25T08:50:46.111Z</time></trkpt><trkpt lat="40.860175" lon="14.7250667"><ele>443.75</ele><time>2026-04-25T08:50:47.111Z</time></trkpt><trkpt lat="40.860195" lon="14.72524"><ele>444.0</ele><time>2026-04-25T08:50:48.111Z</time></trkpt><trkpt lat="40.8602167" lon="14.7253967"><ele>443.5</ele><time>2026-04-25T08:50:49.111Z</time></trkpt><trkpt lat="40.860255" lon="14.7255317"><ele>443.0</ele><time>2026-04-25T08:50:50.111Z</time></trkpt><trkpt lat="40.8603183" lon="14.72567"><ele>442.5</ele><time>2026-04-25T08:50:51.111Z</time></trkpt><trkpt lat="40.8603917" lon="14.7258083"><ele>442.0</ele><time>2026-04-25T08:50:52.112Z</time></trkpt><trkpt lat="40.8604667" lon="14.7259417"><ele>441.25</ele><time>2026-04-25T08:50:53.111Z</time></trkpt><trkpt lat="40.86053" lon="14.726065"><ele>440.5</ele><time>2026-04-25T08:50:54.111Z</time></trkpt><trkpt lat="40.8605817" lon="14.7262"><ele>439.75</ele><time>2026-04-25T08:50:55.111Z</time></trkpt><trkpt lat="40.86062" lon="14.7263517"><ele>439.0</ele><time>2026-04-25T08:50:56.111Z</time></trkpt><trkpt lat="40.8606467" lon="14.7265217"><ele>439.0</ele><time>2026-04-25T08:50:57.111Z</time></trkpt><trkpt lat="40.860675" lon="14.7266967"><ele>439.0</ele><time>2026-04-25T08:50:58.112Z</time></trkpt><trkpt lat="40.8607083" lon="14.7268683"><ele>439.0</ele><time>2026-04-25T08:50:59.111Z</time></trkpt><trkpt lat="40.8607467" lon="14.7270333"><ele>439.0</ele><time>2026-04-25T08:51:00.111Z</time></trkpt><trkpt lat="40.860795" lon="14.727195"><ele>439.75</ele><time>2026-04-25T08:51:01.111Z</time></trkpt><trkpt lat="40.8608567" lon="14.7273533"><ele>440.5</ele><time>2026-04-25T08:51:02.111Z</time></trkpt><trkpt lat="40.8609267" lon="14.7275067"><ele>441.25</ele><time>2026-04-25T08:51:03.111Z</time></trkpt><trkpt lat="40.8610017" lon="14.72767"><ele>442.0</ele><time>2026-04-25T08:51:04.111Z</time></trkpt><trkpt lat="40.8610783" lon="14.72783"><ele>440.5</ele><time>2026-04-25T08:51:05.111Z</time></trkpt><trkpt lat="40.8611567" lon="14.7279883"><ele>439.0</ele><time>2026-04-25T08:51:06.111Z</time></trkpt><trkpt lat="40.8612333" lon="14.728135"><ele>437.5</ele><time>2026-04-25T08:51:07.111Z</time></trkpt><trkpt lat="40.8613133" lon="14.72827"><ele>436.0</ele><time>2026-04-25T08:51:08.111Z</time></trkpt><trkpt lat="40.8613917" lon="14.72839"><ele>436.0</ele><time>2026-04-25T08:51:09.111Z</time></trkpt><trkpt lat="40.861485" lon="14.7285"><ele>436.0</ele><time>2026-04-25T08:51:10.111Z</time></trkpt><trkpt lat="40.8616017" lon="14.7285917"><ele>436.0</ele><time>2026-04-25T08:51:11.111Z</time></trkpt><trkpt lat="40.861735" lon="14.72867"><ele>436.0</ele><time>2026-04-25T08:51:12.111Z</time></trkpt><trkpt lat="40.8618683" lon="14.7287467"><ele>435.75</ele><time>2026-04-25T08:51:13.111Z</time></trkpt><trkpt lat="40.8619933" lon="14.7288217"><ele>435.5</ele><time>2026-04-25T08:51:14.111Z</time></trkpt><trkpt lat="40.8621117" lon="14.728895"><ele>435.25</ele><time>2026-04-25T08:51:15.111Z</time></trkpt><trkpt lat="40.8622133" lon="14.7289683"><ele>435.0</ele><time>2026-04-25T08:51:16.112Z</time></trkpt><trkpt lat="40.8623017" lon="14.729055"><ele>435.0</ele><time>2026-04-25T08:51:17.111Z</time></trkpt><trkpt lat="40.86238" lon="14.72916"><ele>435.0</ele><time>2026-04-25T08:51:18.111Z</time></trkpt><trkpt lat="40.8624433" lon="14.7292633"><ele>435.0</ele><time>2026-04-25T08:51:19.111Z</time></trkpt><trkpt lat="40.8624933" lon="14.7293783"><ele>435.0</ele><time>2026-04-25T08:51:20.112Z</time></trkpt><trkpt lat="40.862525" lon="14.729495"><ele>435.0</ele><time>2026-04-25T08:51:21.111Z</time></trkpt><trkpt lat="40.8625467" lon="14.7295983"><ele>435.0</ele><time>2026-04-25T08:51:22.111Z</time></trkpt><trkpt lat="40.86257" lon="14.7297033"><ele>435.0</ele><time>2026-04-25T08:51:23.111Z</time></trkpt><trkpt lat="40.8625967" lon="14.7298133"><ele>435.0</ele><time>2026-04-25T08:51:24.111Z</time></trkpt><trkpt lat="40.8626217" lon="14.72993"><ele>435.0</ele><time>2026-04-25T08:51:25.111Z</time></trkpt><trkpt lat="40.8626417" lon="14.7300567"><ele>435.0</ele><time>2026-04-25T08:51:26.111Z</time></trkpt><trkpt lat="40.862665" lon="14.7301883"><ele>433.25</ele><time>2026-04-25T08:51:27.111Z</time></trkpt><trkpt lat="40.8626883" lon="14.7303317"><ele>431.5</ele><time>2026-04-25T08:51:28.111Z</time></trkpt><trkpt lat="40.8627133" lon="14.7304783"><ele>429.75</ele><time>2026-04-25T08:51:29.111Z</time></trkpt><trkpt lat="40.8627433" lon="14.73062"><ele>428.0</ele><time>2026-04-25T08:51:30.111Z</time></trkpt><trkpt lat="40.8627733" lon="14.7307767"><ele>428.0</ele><time>2026-04-25T08:51:31.111Z</time></trkpt><trkpt lat="40.8628033" lon="14.730935"><ele>427.99999999999994</ele><time>2026-04-25T08:51:32.111Z</time></trkpt><trkpt lat="40.8628283" lon="14.7310783"><ele>427.99999999999994</ele><time>2026-04-25T08:51:33.111Z</time></trkpt><trkpt lat="40.8628517" lon="14.7312133"><ele>428.0</ele><time>2026-04-25T08:51:34.111Z</time></trkpt><trkpt lat="40.8628667" lon="14.7313467"><ele>428.0</ele><time>2026-04-25T08:51:35.111Z</time></trkpt><trkpt lat="40.8628817" lon="14.7314817"><ele>428.0</ele><time>2026-04-25T08:51:36.112Z</time></trkpt><trkpt lat="40.8628833" lon="14.7316233"><ele>427.99999999999994</ele><time>2026-04-25T08:51:37.111Z</time></trkpt><trkpt lat="40.8628817" lon="14.7317667"><ele>427.99999999999994</ele><time>2026-04-25T08:51:38.111Z</time></trkpt><trkpt lat="40.8628617" lon="14.7319167"><ele>428.0</ele><time>2026-04-25T08:51:39.111Z</time></trkpt><trkpt lat="40.8628367" lon="14.73207"><ele>428.0</ele><time>2026-04-25T08:51:40.111Z</time></trkpt><trkpt lat="40.8628067" lon="14.73223"><ele>428.0</ele><time>2026-04-25T08:51:41.111Z</time></trkpt><trkpt lat="40.8627767" lon="14.73239"><ele>428.0</ele><time>2026-04-25T08:51:42.111Z</time></trkpt><trkpt lat="40.862755" lon="14.732535"><ele>428.0</ele><time>2026-04-25T08:51:43.111Z</time></trkpt><trkpt lat="40.86273" lon="14.732685"><ele>428.0</ele><time>2026-04-25T08:51:44.111Z</time></trkpt><trkpt lat="40.8627017" lon="14.7328183"><ele>428.4</ele><time>2026-04-25T08:51:45.111Z</time></trkpt><trkpt lat="40.8626833" lon="14.73295"><ele>428.79999999999995</ele><time>2026-04-25T08:51:46.111Z</time></trkpt><trkpt lat="40.86266" lon="14.733075"><ele>429.2</ele><time>2026-04-25T08:51:47.111Z</time></trkpt><trkpt lat="40.8626333" lon="14.7332017"><ele>429.6</ele><time>2026-04-25T08:51:48.111Z</time></trkpt><trkpt lat="40.8626067" lon="14.73333"><ele>430.0</ele><time>2026-04-25T08:51:49.111Z</time></trkpt><trkpt lat="40.8625767" lon="14.733455"><ele>429.33333333333337</ele><time>2026-04-25T08:51:50.111Z</time></trkpt><trkpt lat="40.8625483" lon="14.7335767"><ele>428.6666666666667</ele><time>2026-04-25T08:51:51.111Z</time></trkpt><trkpt lat="40.8625183" lon="14.7336917"><ele>428.0</ele><time>2026-04-25T08:51:52.111Z</time></trkpt><trkpt lat="40.8624883" lon="14.7338033"><ele>427.33333333333337</ele><time>2026-04-25T08:51:53.111Z</time></trkpt><trkpt lat="40.86246" lon="14.7339117"><ele>426.6666666666667</ele><time>2026-04-25T08:51:54.111Z</time></trkpt><trkpt lat="40.8624417" lon="14.734015"><ele>426.0</ele><time>2026-04-25T08:51:55.111Z</time></trkpt><trkpt lat="40.862425" lon="14.7341067"><ele>425.99999999999994</ele><time>2026-04-25T08:51:56.111Z</time></trkpt><trkpt lat="40.8624133" lon="14.7342"><ele>426.0</ele><time>2026-04-25T08:51:57.111Z</time></trkpt><trkpt lat="40.8624" lon="14.7342817"><ele>426.0</ele><time>2026-04-25T08:51:58.111Z</time></trkpt><trkpt lat="40.8623883" lon="14.7343733"><ele>426.0</ele><time>2026-04-25T08:51:59.111Z</time></trkpt><trkpt lat="40.8623733" lon="14.7344683"><ele>426.0</ele><time>2026-04-25T08:52:00.111Z</time></trkpt><trkpt lat="40.8623517" lon="14.7345633"><ele>425.99999999999994</ele><time>2026-04-25T08:52:01.112Z</time></trkpt><trkpt lat="40.8623283" lon="14.73465"><ele>426.0</ele><time>2026-04-25T08:52:02.111Z</time></trkpt><trkpt lat="40.8623033" lon="14.73473"><ele>425.5</ele><time>2026-04-25T08:52:03.111Z</time></trkpt><trkpt lat="40.8622583" lon="14.7348833"><ele>425.0</ele><time>2026-04-25T08:52:05.111Z</time></trkpt><trkpt lat="40.862225" lon="14.7350367"><ele>424.5</ele><time>2026-04-25T08:52:07.111Z</time></trkpt><trkpt lat="40.862185" lon="14.7351733"><ele>424.0</ele><time>2026-04-25T08:52:09.111Z</time></trkpt><trkpt lat="40.8621" lon="14.735235"><ele>423.4</ele><time>2026-04-25T08:52:11.112Z</time></trkpt><trkpt lat="40.8619833" lon="14.7352683"><ele>422.79999999999995</ele><time>2026-04-25T08:52:13.111Z</time></trkpt><trkpt lat="40.8618683" lon="14.7353083"><ele>422.20000000000005</ele><time>2026-04-25T08:52:15.111Z</time></trkpt><trkpt lat="40.861765" lon="14.7354083"><ele>421.6</ele><time>2026-04-25T08:52:17.111Z</time></trkpt><trkpt lat="40.8617317" lon="14.7354917"><ele>421.0</ele><time>2026-04-25T08:52:18.111Z</time></trkpt><trkpt lat="40.861695" lon="14.735595"><ele>420.6</ele><time>2026-04-25T08:52:19.111Z</time></trkpt><trkpt lat="40.8616617" lon="14.7357"><ele>420.20000000000005</ele><time>2026-04-25T08:52:20.112Z</time></trkpt><trkpt lat="40.86163" lon="14.73582"><ele>419.79999999999995</ele><time>2026-04-25T08:52:21.111Z</time></trkpt><trkpt lat="40.861585" lon="14.7359283"><ele>419.4</ele><time>2026-04-25T08:52:22.111Z</time></trkpt><trkpt lat="40.86154" lon="14.7360383"><ele>419.0</ele><time>2026-04-25T08:52:23.111Z</time></trkpt><trkpt lat="40.8614883" lon="14.73615"><ele>419.0</ele><time>2026-04-25T08:52:24.111Z</time></trkpt><trkpt lat="40.8614317" lon="14.736265"><ele>419.0</ele><time>2026-04-25T08:52:25.111Z</time></trkpt><trkpt lat="40.8613667" lon="14.7363867"><ele>419.0</ele><time>2026-04-25T08:52:26.111Z</time></trkpt><trkpt lat="40.8613017" lon="14.7365133"><ele>419.0</ele><time>2026-04-25T08:52:27.111Z</time></trkpt><trkpt lat="40.8612417" lon="14.7366283"><ele>419.0</ele><time>2026-04-25T08:52:28.111Z</time></trkpt><trkpt lat="40.8611867" lon="14.73674"><ele>419.0</ele><time>2026-04-25T08:52:29.111Z</time></trkpt><trkpt lat="40.8611367" lon="14.7368567"><ele>419.0</ele><time>2026-04-25T08:52:30.111Z</time></trkpt><trkpt lat="40.8610967" lon="14.7369767"><ele>419.0</ele><time>2026-04-25T08:52:31.111Z</time></trkpt><trkpt lat="40.8610617" lon="14.737105"><ele>419.0</ele><time>2026-04-25T08:52:32.111Z</time></trkpt><trkpt lat="40.8610317" lon="14.7372417"><ele>419.0</ele><time>2026-04-25T08:52:33.111Z</time></trkpt><trkpt lat="40.8609967" lon="14.737385"><ele>418.4</ele><time>2026-04-25T08:52:34.111Z</time></trkpt><trkpt lat="40.860965" lon="14.7375233"><ele>417.79999999999995</ele><time>2026-04-25T08:52:35.111Z</time></trkpt><trkpt lat="40.860935" lon="14.7376367"><ele>417.20000000000005</ele><time>2026-04-25T08:52:36.111Z</time></trkpt><trkpt lat="40.8609083" lon="14.737735"><ele>416.6</ele><time>2026-04-25T08:52:37.111Z</time></trkpt><trkpt lat="40.8608817" lon="14.737855"><ele>416.0</ele><time>2026-04-25T08:52:39.111Z</time></trkpt><trkpt lat="40.86087" lon="14.737955"><ele>415.20000000000005</ele><time>2026-04-25T08:52:50.111Z</time></trkpt><trkpt lat="40.86085" lon="14.7380367"><ele>414.40000000000003</ele><time>2026-04-25T08:52:52.112Z</time></trkpt><trkpt lat="40.8608183" lon="14.7381533"><ele>413.6</ele><time>2026-04-25T08:52:54.111Z</time></trkpt><trkpt lat="40.860785" lon="14.7382767"><ele>412.8</ele><time>2026-04-25T08:52:56.111Z</time></trkpt><trkpt lat="40.8607583" lon="14.7383917"><ele>412.0</ele><time>2026-04-25T08:52:58.111Z</time></trkpt><trkpt lat="40.8607083" lon="14.7385333"><ele>411.6666666666667</ele><time>2026-04-25T08:53:00.111Z</time></trkpt><trkpt lat="40.8606883" lon="14.73862"><ele>411.33333333333337</ele><time>2026-04-25T08:53:01.111Z</time></trkpt><trkpt lat="40.86068" lon="14.7387183"><ele>411.0</ele><time>2026-04-25T08:53:02.111Z</time></trkpt><trkpt lat="40.8606633" lon="14.7388133"><ele>410.66666666666663</ele><time>2026-04-25T08:53:03.111Z</time></trkpt><trkpt lat="40.8606417" lon="14.7389033"><ele>410.3333333333333</ele><time>2026-04-25T08:53:04.112Z</time></trkpt><trkpt lat="40.8606167" lon="14.73905"><ele>410.0</ele><time>2026-04-25T08:53:06.111Z</time></trkpt><trkpt lat="40.860585" lon="14.7391633"><ele>410.0</ele><time>2026-04-25T08:53:08.111Z</time></trkpt><trkpt lat="40.8605517" lon="14.7393133"><ele>410.0</ele><time>2026-04-25T08:53:10.111Z</time></trkpt><trkpt lat="40.8605317" lon="14.7394167"><ele>410.0</ele><time>2026-04-25T08:53:11.111Z</time></trkpt><trkpt lat="40.8605083" lon="14.739525"><ele>410.0</ele><time>2026-04-25T08:53:12.111Z</time></trkpt><trkpt lat="40.8604867" lon="14.7396417"><ele>410.0</ele><time>2026-04-25T08:53:13.111Z</time></trkpt><trkpt lat="40.8604717" lon="14.7397717"><ele>409.99999999999994</ele><time>2026-04-25T08:53:14.111Z</time></trkpt><trkpt lat="40.8604517" lon="14.7398833"><ele>410.0</ele><time>2026-04-25T08:53:15.111Z</time></trkpt><trkpt lat="40.8604267" lon="14.7399733"><ele>410.0</ele><time>2026-04-25T08:53:16.111Z</time></trkpt><trkpt lat="40.8604017" lon="14.7400533"><ele>410.0</ele><time>2026-04-25T08:53:17.111Z</time></trkpt><trkpt lat="40.8603767" lon="14.7401533"><ele>409.99999999999994</ele><time>2026-04-25T08:53:18.111Z</time></trkpt><trkpt lat="40.860355" lon="14.7402567"><ele>410.0</ele><time>2026-04-25T08:53:19.111Z</time></trkpt><trkpt lat="40.8603383" lon="14.74035"><ele>410.0</ele><time>2026-04-25T08:53:20.111Z</time></trkpt><trkpt lat="40.8603133" lon="14.74049"><ele>410.0</ele><time>2026-04-25T08:53:22.111Z</time></trkpt><trkpt lat="40.86031" lon="14.7405867"><ele>410.0</ele><time>2026-04-25T08:53:25.111Z</time></trkpt><trkpt lat="40.860405" lon="14.74058"><ele>410.0</ele><time>2026-04-25T08:53:28.111Z</time></trkpt><trkpt lat="40.860515" lon="14.7405517"><ele>410.0</ele><time>2026-04-25T08:53:30.111Z</time></trkpt><trkpt lat="40.8605783" lon="14.740525"><ele>409.99999999999994</ele><time>2026-04-25T08:53:31.111Z</time></trkpt><trkpt lat="40.8606467" lon="14.7405083"><ele>410.0</ele><time>2026-04-25T08:53:32.112Z</time></trkpt><trkpt lat="40.86072" lon="14.7404967"><ele>410.0</ele><time>2026-04-25T08:53:33.111Z</time></trkpt><trkpt lat="40.8607883" lon="14.740485"><ele>410.0</ele><time>2026-04-25T08:53:34.111Z</time></trkpt><trkpt lat="40.8608533" lon="14.7404817"><ele>409.99999999999994</ele><time>2026-04-25T08:53:35.111Z</time></trkpt><trkpt lat="40.8609683" lon="14.740475"><ele>410.0</ele><time>2026-04-25T08:53:37.111Z</time></trkpt><trkpt lat="40.861055" lon="14.7403983"><ele>410.4</ele><time>2026-04-25T08:53:39.112Z</time></trkpt><trkpt lat="40.8611283" lon="14.7402967"><ele>410.8</ele><time>2026-04-25T08:53:41.111Z</time></trkpt><trkpt lat="40.8612217" lon="14.740195"><ele>411.20000000000005</ele><time>2026-04-25T08:53:43.111Z</time></trkpt><trkpt lat="40.86132" lon="14.740125"><ele>411.6</ele><time>2026-04-25T08:53:45.111Z</time></trkpt><trkpt lat="40.861385" lon="14.7401"><ele>412.0</ele><time>2026-04-25T08:53:46.111Z</time></trkpt><trkpt lat="40.86145" lon="14.7400733"><ele>412.00000000000006</ele><time>2026-04-25T08:53:47.112Z</time></trkpt><trkpt lat="40.86152" lon="14.7400483"><ele>412.0</ele><time>2026-04-25T08:53:48.111Z</time></trkpt><trkpt lat="40.8615883" lon="14.74002"><ele>412.0</ele><time>2026-04-25T08:53:49.111Z</time></trkpt><trkpt lat="40.8616583" lon="14.7400033"><ele>412.0</ele><time>2026-04-25T08:53:50.111Z</time></trkpt><trkpt lat="40.8617767" lon="14.7400117"><ele>412.00000000000006</ele><time>2026-04-25T08:53:52.111Z</time></trkpt><trkpt lat="40.8618417" lon="14.740035"><ele>412.0</ele><time>2026-04-25T08:53:53.111Z</time></trkpt><trkpt lat="40.8619083" lon="14.7400617"><ele>414.0</ele><time>2026-04-25T08:53:54.111Z</time></trkpt><trkpt lat="40.8619883" lon="14.7400867"><ele>416.0</ele><time>2026-04-25T08:53:55.112Z</time></trkpt><trkpt lat="40.8620733" lon="14.7401183"><ele>418.0</ele><time>2026-04-25T08:53:56.111Z</time></trkpt><trkpt lat="40.8621683" lon="14.740145"><ele>420.0</ele><time>2026-04-25T08:53:57.111Z</time></trkpt><trkpt lat="40.8622683" lon="14.7401667"><ele>422.0</ele><time>2026-04-25T08:53:58.111Z</time></trkpt><trkpt lat="40.8623617" lon="14.74019"><ele>421.99999999999994</ele><time>2026-04-25T08:53:59.111Z</time></trkpt><trkpt lat="40.8624483" lon="14.74021"><ele>422.0</ele><time>2026-04-25T08:54:00.111Z</time></trkpt><trkpt lat="40.8625333" lon="14.7402333"><ele>422.0</ele><time>2026-04-25T08:54:01.111Z</time></trkpt><trkpt lat="40.86261" lon="14.740255"><ele>422.0</ele><time>2026-04-25T08:54:02.112Z</time></trkpt><trkpt lat="40.8627" lon="14.7402783"><ele>421.99999999999994</ele><time>2026-04-25T08:54:03.111Z</time></trkpt><trkpt lat="40.8627883" lon="14.7403"><ele>422.0</ele><time>2026-04-25T08:54:04.111Z</time></trkpt><trkpt lat="40.8628733" lon="14.7403217"><ele>425.40000000000003</ele><time>2026-04-25T08:54:05.111Z</time></trkpt><trkpt lat="40.8629483" lon="14.740345"><ele>428.8</ele><time>2026-04-25T08:54:06.111Z</time></trkpt><trkpt lat="40.86305" lon="14.7403733"><ele>432.2</ele><time>2026-04-25T08:54:08.111Z</time></trkpt><trkpt lat="40.8631267" lon="14.7403883"><ele>435.6</ele><time>2026-04-25T08:54:20.111Z</time></trkpt><trkpt lat="40.8632" lon="14.740365"><ele>439.0</ele><time>2026-04-25T08:54:22.112Z</time></trkpt><trkpt lat="40.8633217" lon="14.7403567"><ele>439.00000000000006</ele><time>2026-04-25T08:54:24.111Z</time></trkpt><trkpt lat="40.8633933" lon="14.740355"><ele>439.0</ele><time>2026-04-25T08:54:25.111Z</time></trkpt><trkpt lat="40.8634683" lon="14.74036"><ele>439.0</ele><time>2026-04-25T08:54:26.111Z</time></trkpt><trkpt lat="40.86355" lon="14.740335"><ele>439.0</ele><time>2026-04-25T08:54:27.111Z</time></trkpt><trkpt lat="40.86363" lon="14.7402883"><ele>439.00000000000006</ele><time>2026-04-25T08:54:28.111Z</time></trkpt><trkpt lat="40.86371" lon="14.7402283"><ele>439.0</ele><time>2026-04-25T08:54:29.112Z</time></trkpt><trkpt lat="40.8638017" lon="14.740165"><ele>439.4</ele><time>2026-04-25T08:54:30.111Z</time></trkpt><trkpt lat="40.8638867" lon="14.7401033"><ele>439.79999999999995</ele><time>2026-04-25T08:54:31.112Z</time></trkpt><trkpt lat="40.86397" lon="14.7400417"><ele>440.20000000000005</ele><time>2026-04-25T08:54:32.111Z</time></trkpt><trkpt lat="40.86405" lon="14.7399867"><ele>440.6</ele><time>2026-04-25T08:54:33.111Z</time></trkpt><trkpt lat="40.8641383" lon="14.739925"><ele>441.0</ele><time>2026-04-25T08:54:34.111Z</time></trkpt><trkpt lat="40.86422" lon="14.7398633"><ele>443.8</ele><time>2026-04-25T08:54:35.112Z</time></trkpt><trkpt lat="40.8643083" lon="14.7398033"><ele>446.6</ele><time>2026-04-25T08:54:36.111Z</time></trkpt><trkpt lat="40.8644033" lon="14.7397367"><ele>449.4</ele><time>2026-04-25T08:54:37.111Z</time></trkpt><trkpt lat="40.864495" lon="14.73967"><ele>452.2</ele><time>2026-04-25T08:54:38.111Z</time></trkpt><trkpt lat="40.864575" lon="14.7396183"><ele>455.0</ele><time>2026-04-25T08:54:39.111Z</time></trkpt><trkpt lat="40.86465" lon="14.7395833"><ele>454.99999999999994</ele><time>2026-04-25T08:54:40.111Z</time></trkpt><trkpt lat="40.8647133" lon="14.7395733"><ele>455.0</ele><time>2026-04-25T08:54:41.111Z</time></trkpt><trkpt lat="40.8648167" lon="14.7396483"><ele>455.0</ele><time>2026-04-25T08:54:43.111Z</time></trkpt><trkpt lat="40.864865" lon="14.7397267"><ele>455.0</ele><time>2026-04-25T08:54:44.111Z</time></trkpt><trkpt lat="40.8649167" lon="14.7398217"><ele>454.99999999999994</ele><time>2026-04-25T08:54:45.111Z</time></trkpt><trkpt lat="40.8649683" lon="14.7399217"><ele>455.0</ele><time>2026-04-25T08:54:46.111Z</time></trkpt><trkpt lat="40.8650167" lon="14.740025"><ele>455.0</ele><time>2026-04-25T08:54:47.111Z</time></trkpt><trkpt lat="40.86504" lon="14.7401333"><ele>455.0</ele><time>2026-04-25T08:54:48.111Z</time></trkpt><trkpt lat="40.8650433" lon="14.74024"><ele>455.0</ele><time>2026-04-25T08:54:49.111Z</time></trkpt><trkpt lat="40.86501" lon="14.7403333"><ele>455.0</ele><time>2026-04-25T08:54:50.111Z</time></trkpt><trkpt lat="40.8649583" lon="14.74039"><ele>455.0</ele><time>2026-04-25T08:54:51.111Z</time></trkpt><trkpt lat="40.864895" lon="14.740415"><ele>455.0</ele><time>2026-04-25T08:54:52.112Z</time></trkpt><trkpt lat="40.8648283" lon="14.740435"><ele>455.0</ele><time>2026-04-25T08:54:53.111Z</time></trkpt><trkpt lat="40.8647617" lon="14.74049"><ele>456.3333333333333</ele><time>2026-04-25T08:54:54.111Z</time></trkpt><trkpt lat="40.8647117" lon="14.7405633"><ele>457.66666666666663</ele><time>2026-04-25T08:54:55.111Z</time></trkpt><trkpt lat="40.86467" lon="14.7406733"><ele>459.0</ele><time>2026-04-25T08:54:56.111Z</time></trkpt><trkpt lat="40.864635" lon="14.7407767"><ele>460.33333333333337</ele><time>2026-04-25T08:54:57.111Z</time></trkpt><trkpt lat="40.86461" lon="14.740875"><ele>461.6666666666667</ele><time>2026-04-25T08:54:58.111Z</time></trkpt><trkpt lat="40.8645883" lon="14.7409733"><ele>463.0</ele><time>2026-04-25T08:54:59.111Z</time></trkpt><trkpt lat="40.86459" lon="14.7410717"><ele>463.83333333333337</ele><time>2026-04-25T08:55:00.112Z</time></trkpt><trkpt lat="40.8646117" lon="14.7411583"><ele>464.6666666666667</ele><time>2026-04-25T08:55:01.111Z</time></trkpt><trkpt lat="40.864655" lon="14.7412417"><ele>465.5</ele><time>2026-04-25T08:55:02.111Z</time></trkpt><trkpt lat="40.8647083" lon="14.7413217"><ele>466.33333333333337</ele><time>2026-04-25T08:55:03.111Z</time></trkpt><trkpt lat="40.8647717" lon="14.7414"><ele>467.1666666666667</ele><time>2026-04-25T08:55:04.111Z</time></trkpt><trkpt lat="40.864835" lon="14.7414833"><ele>468.0</ele><time>2026-04-25T08:55:05.111Z</time></trkpt><trkpt lat="40.8649" lon="14.7415617"><ele>468.0</ele><time>2026-04-25T08:55:06.111Z</time></trkpt><trkpt lat="40.8649667" lon="14.741635"><ele>468.0</ele><time>2026-04-25T08:55:07.111Z</time></trkpt><trkpt lat="40.8650367" lon="14.7417133"><ele>468.0</ele><time>2026-04-25T08:55:08.112Z</time></trkpt><trkpt lat="40.8651033" lon="14.7417917"><ele>468.0</ele><time>2026-04-25T08:55:09.111Z</time></trkpt><trkpt lat="40.8651683" lon="14.74187"><ele>468.0</ele><time>2026-04-25T08:55:10.111Z</time></trkpt><trkpt lat="40.8652183" lon="14.7419483"><ele>468.0</ele><time>2026-04-25T08:55:11.111Z</time></trkpt><trkpt lat="40.8652583" lon="14.74205"><ele>470.8333333333333</ele><time>2026-04-25T08:55:12.111Z</time></trkpt><trkpt lat="40.8652767" lon="14.7421617"><ele>473.66666666666663</ele><time>2026-04-25T08:55:13.111Z</time></trkpt><trkpt lat="40.8652867" lon="14.7422633"><ele>476.5</ele><time>2026-04-25T08:55:14.111Z</time></trkpt><trkpt lat="40.8652917" lon="14.7423783"><ele>479.3333333333333</ele><time>2026-04-25T08:55:15.111Z</time></trkpt><trkpt lat="40.8653067" lon="14.742485"><ele>482.16666666666663</ele><time>2026-04-25T08:55:16.111Z</time></trkpt><trkpt lat="40.86534" lon="14.742575"><ele>485.0</ele><time>2026-04-25T08:55:17.111Z</time></trkpt><trkpt lat="40.8653983" lon="14.74266"><ele>485.8333333333333</ele><time>2026-04-25T08:55:18.111Z</time></trkpt><trkpt lat="40.865465" lon="14.7427167"><ele>486.66666666666663</ele><time>2026-04-25T08:55:19.111Z</time></trkpt><trkpt lat="40.865535" lon="14.7427417"><ele>487.5</ele><time>2026-04-25T08:55:20.111Z</time></trkpt><trkpt lat="40.86562" lon="14.7427467"><ele>488.33333333333337</ele><time>2026-04-25T08:55:21.112Z</time></trkpt><trkpt lat="40.86571" lon="14.7427433"><ele>489.1666666666667</ele><time>2026-04-25T08:55:22.111Z</time></trkpt><trkpt lat="40.865805" lon="14.7427417"><ele>490.0</ele><time>2026-04-25T08:55:23.111Z</time></trkpt><trkpt lat="40.865905" lon="14.7427517"><ele>489.8</ele><time>2026-04-25T08:55:24.111Z</time></trkpt><trkpt lat="40.8660083" lon="14.74277"><ele>489.6</ele><time>2026-04-25T08:55:25.111Z</time></trkpt><trkpt lat="40.86611" lon="14.742785"><ele>489.4</ele><time>2026-04-25T08:55:26.111Z</time></trkpt><trkpt lat="40.8661983" lon="14.742815"><ele>489.2</ele><time>2026-04-25T08:55:27.111Z</time></trkpt><trkpt lat="40.866285" lon="14.7428367"><ele>489.0</ele><time>2026-04-25T08:55:28.111Z</time></trkpt><trkpt lat="40.8663617" lon="14.7428467"><ele>489.0</ele><time>2026-04-25T08:55:29.111Z</time></trkpt><trkpt lat="40.8664483" lon="14.74286"><ele>489.0</ele><time>2026-04-25T08:55:30.111Z</time></trkpt><trkpt lat="40.8665333" lon="14.7428583"><ele>489.0</ele><time>2026-04-25T08:55:31.111Z</time></trkpt><trkpt lat="40.8666217" lon="14.7428517"><ele>489.0</ele><time>2026-04-25T08:55:32.112Z</time></trkpt><trkpt lat="40.86669" lon="14.7428417"><ele>489.0</ele><time>2026-04-25T08:55:33.111Z</time></trkpt><trkpt lat="40.8667967" lon="14.74283"><ele>489.0</ele><time>2026-04-25T08:55:35.111Z</time></trkpt><trkpt lat="40.8668617" lon="14.74283"><ele>488.0</ele><time>2026-04-25T08:55:37.112Z</time></trkpt><trkpt lat="40.8669417" lon="14.742825"><ele>487.0</ele><time>2026-04-25T08:55:39.111Z</time></trkpt><trkpt lat="40.8670767" lon="14.74283"><ele>486.0</ele><time>2026-04-25T08:55:41.112Z</time></trkpt><trkpt lat="40.867165" lon="14.742825"><ele>485.0</ele><time>2026-04-25T08:55:42.111Z</time></trkpt><trkpt lat="40.8672617" lon="14.7428233"><ele>484.0</ele><time>2026-04-25T08:55:43.111Z</time></trkpt><trkpt lat="40.8673583" lon="14.74282"><ele>484.0</ele><time>2026-04-25T08:55:44.112Z</time></trkpt><trkpt lat="40.8674633" lon="14.7428083"><ele>484.0</ele><time>2026-04-25T08:55:45.111Z</time></trkpt><trkpt lat="40.867575" lon="14.7427833"><ele>484.0</ele><time>2026-04-25T08:55:46.112Z</time></trkpt><trkpt lat="40.8676833" lon="14.7427483"><ele>484.0</ele><time>2026-04-25T08:55:47.111Z</time></trkpt><trkpt lat="40.8677917" lon="14.7426933"><ele>484.0</ele><time>2026-04-25T08:55:48.111Z</time></trkpt><trkpt lat="40.8679" lon="14.7426267"><ele>484.25</ele><time>2026-04-25T08:55:49.111Z</time></trkpt><trkpt lat="40.8680033" lon="14.742535"><ele>484.5</ele><time>2026-04-25T08:55:50.112Z</time></trkpt><trkpt lat="40.8680983" lon="14.7424233"><ele>484.75</ele><time>2026-04-25T08:55:51.111Z</time></trkpt><trkpt lat="40.8681733" lon="14.7423033"><ele>485.0</ele><time>2026-04-25T08:55:52.111Z</time></trkpt><trkpt lat="40.868235" lon="14.7421917"><ele>485.0</ele><time>2026-04-25T08:55:53.111Z</time></trkpt><trkpt lat="40.868285" lon="14.7421017"><ele>485.0</ele><time>2026-04-25T08:55:54.111Z</time></trkpt><trkpt lat="40.8683433" lon="14.74197"><ele>485.0</ele><time>2026-04-25T08:55:56.111Z</time></trkpt><trkpt lat="40.868405" lon="14.7418167"><ele>485.0</ele><time>2026-04-25T08:55:58.111Z</time></trkpt><trkpt lat="40.86847" lon="14.7417417"><ele>485.0</ele><time>2026-04-25T08:55:59.111Z</time></trkpt><trkpt lat="40.8685533" lon="14.7416683"><ele>485.5</ele><time>2026-04-25T08:56:00.111Z</time></trkpt><trkpt lat="40.86865" lon="14.7415917"><ele>486.0</ele><time>2026-04-25T08:56:01.111Z</time></trkpt><trkpt lat="40.868755" lon="14.741505"><ele>486.5</ele><time>2026-04-25T08:56:02.111Z</time></trkpt><trkpt lat="40.8688567" lon="14.7414117"><ele>487.0</ele><time>2026-04-25T08:56:03.111Z</time></trkpt><trkpt lat="40.8689467" lon="14.7413167"><ele>487.0</ele><time>2026-04-25T08:56:04.111Z</time></trkpt><trkpt lat="40.869025" lon="14.7412167"><ele>487.00000000000006</ele><time>2026-04-25T08:56:05.111Z</time></trkpt><trkpt lat="40.8690917" lon="14.74111"><ele>487.00000000000006</ele><time>2026-04-25T08:56:06.111Z</time></trkpt><trkpt lat="40.8691317" lon="14.741005"><ele>487.0</ele><time>2026-04-25T08:56:07.111Z</time></trkpt><trkpt lat="40.86915" lon="14.7408867"><ele>487.0</ele><time>2026-04-25T08:56:08.111Z</time></trkpt><trkpt lat="40.8691533" lon="14.7407417"><ele>490.25</ele><time>2026-04-25T08:56:09.111Z</time></trkpt><trkpt lat="40.869145" lon="14.7405817"><ele>493.5</ele><time>2026-04-25T08:56:10.111Z</time></trkpt><trkpt lat="40.8691567" lon="14.7404117"><ele>496.75</ele><time>2026-04-25T08:56:11.112Z</time></trkpt><trkpt lat="40.8691883" lon="14.7402317"><ele>500.0</ele><time>2026-04-25T08:56:12.111Z</time></trkpt><trkpt lat="40.86923" lon="14.7400567"><ele>500.5</ele><time>2026-04-25T08:56:13.111Z</time></trkpt><trkpt lat="40.869275" lon="14.739895"><ele>501.0</ele><time>2026-04-25T08:56:14.111Z</time></trkpt><trkpt lat="40.86932" lon="14.739745"><ele>501.5</ele><time>2026-04-25T08:56:15.111Z</time></trkpt><trkpt lat="40.86938" lon="14.73963"><ele>502.0</ele><time>2026-04-25T08:56:16.112Z</time></trkpt><trkpt lat="40.86946" lon="14.739535"><ele>502.0</ele><time>2026-04-25T08:56:17.111Z</time></trkpt><trkpt lat="40.8695733" lon="14.7394583"><ele>502.0</ele><time>2026-04-25T08:56:18.111Z</time></trkpt><trkpt lat="40.869695" lon="14.739385"><ele>502.0</ele><time>2026-04-25T08:56:19.111Z</time></trkpt><trkpt lat="40.86983" lon="14.7393117"><ele>502.0</ele><time>2026-04-25T08:56:20.111Z</time></trkpt><trkpt lat="40.869965" lon="14.7392317"><ele>503.75</ele><time>2026-04-25T08:56:21.111Z</time></trkpt><trkpt lat="40.8700983" lon="14.73915"><ele>505.5</ele><time>2026-04-25T08:56:22.112Z</time></trkpt><trkpt lat="40.870225" lon="14.7390833"><ele>507.25</ele><time>2026-04-25T08:56:23.111Z</time></trkpt><trkpt lat="40.870365" lon="14.7390383"><ele>509.0</ele><time>2026-04-25T08:56:24.111Z</time></trkpt><trkpt lat="40.8704983" lon="14.7390083"><ele>509.25</ele><time>2026-04-25T08:56:25.111Z</time></trkpt><trkpt lat="40.8706233" lon="14.7389767"><ele>509.5</ele><time>2026-04-25T08:56:26.111Z</time></trkpt><trkpt lat="40.8707467" lon="14.7389133"><ele>509.75</ele><time>2026-04-25T08:56:27.111Z</time></trkpt><trkpt lat="40.87087" lon="14.7388317"><ele>510.0</ele><time>2026-04-25T08:56:28.111Z</time></trkpt><trkpt lat="40.8709917" lon="14.7387433"><ele>512.75</ele><time>2026-04-25T08:56:29.111Z</time></trkpt><trkpt lat="40.87111" lon="14.7386633"><ele>515.5</ele><time>2026-04-25T08:56:30.111Z</time></trkpt><trkpt lat="40.8712217" lon="14.7386"><ele>518.25</ele><time>2026-04-25T08:56:31.111Z</time></trkpt><trkpt lat="40.8713317" lon="14.7385667"><ele>521.0</ele><time>2026-04-25T08:56:32.111Z</time></trkpt><trkpt lat="40.87143" lon="14.738565"><ele>521.0</ele><time>2026-04-25T08:56:33.111Z</time></trkpt><trkpt lat="40.8715167" lon="14.7385883"><ele>521.0</ele><time>2026-04-25T08:56:34.111Z</time></trkpt><trkpt lat="40.8715933" lon="14.738645"><ele>521.0</ele><time>2026-04-25T08:56:35.111Z</time></trkpt><trkpt lat="40.8716517" lon="14.7387333"><ele>521.0</ele><time>2026-04-25T08:56:36.111Z</time></trkpt><trkpt lat="40.8716783" lon="14.7388633"><ele>521.0</ele><time>2026-04-25T08:56:37.111Z</time></trkpt><trkpt lat="40.8716933" lon="14.7389983"><ele>521.0</ele><time>2026-04-25T08:56:38.111Z</time></trkpt><trkpt lat="40.87172" lon="14.7391267"><ele>521.0</ele><time>2026-04-25T08:56:39.111Z</time></trkpt><trkpt lat="40.8717767" lon="14.7392467"><ele>521.0</ele><time>2026-04-25T08:56:40.111Z</time></trkpt><trkpt lat="40.871855" lon="14.739345"><ele>521.0</ele><time>2026-04-25T08:56:41.111Z</time></trkpt><trkpt lat="40.871965" lon="14.73943"><ele>521.0</ele><time>2026-04-25T08:56:42.111Z</time></trkpt><trkpt lat="40.8720883" lon="14.7394983"><ele>520.75</ele><time>2026-04-25T08:56:43.111Z</time></trkpt><trkpt lat="40.8722183" lon="14.73954"><ele>520.5</ele><time>2026-04-25T08:56:44.111Z</time></trkpt><trkpt lat="40.8723417" lon="14.73955"><ele>520.25</ele><time>2026-04-25T08:56:45.111Z</time></trkpt><trkpt lat="40.8724667" lon="14.739525"><ele>520.0</ele><time>2026-04-25T08:56:46.111Z</time></trkpt><trkpt lat="40.872595" lon="14.7394717"><ele>521.2</ele><time>2026-04-25T08:56:47.111Z</time></trkpt><trkpt lat="40.8727267" lon="14.739415"><ele>522.4</ele><time>2026-04-25T08:56:48.111Z</time></trkpt><trkpt lat="40.872845" lon="14.7393833"><ele>523.6</ele><time>2026-04-25T08:56:49.111Z</time></trkpt><trkpt lat="40.87294" lon="14.7393967"><ele>524.8</ele><time>2026-04-25T08:56:50.111Z</time></trkpt><trkpt lat="40.873025" lon="14.7394467"><ele>526.0</ele><time>2026-04-25T08:56:51.111Z</time></trkpt><trkpt lat="40.8730917" lon="14.739535"><ele>526.0</ele><time>2026-04-25T08:56:52.111Z</time></trkpt><trkpt lat="40.873155" lon="14.7396183"><ele>526.0</ele><time>2026-04-25T08:56:53.111Z</time></trkpt><trkpt lat="40.87323" lon="14.73966"><ele>526.0</ele><time>2026-04-25T08:56:54.111Z</time></trkpt><trkpt lat="40.8733233" lon="14.7396667"><ele>526.0</ele><time>2026-04-25T08:56:55.111Z</time></trkpt><trkpt lat="40.873425" lon="14.7396433"><ele>526.0</ele><time>2026-04-25T08:56:56.111Z</time></trkpt><trkpt lat="40.8735283" lon="14.739605"><ele>524.8</ele><time>2026-04-25T08:56:57.111Z</time></trkpt><trkpt lat="40.8736217" lon="14.739555"><ele>523.6</ele><time>2026-04-25T08:56:58.111Z</time></trkpt><trkpt lat="40.8737017" lon="14.7394783"><ele>522.4</ele><time>2026-04-25T08:56:59.111Z</time></trkpt><trkpt lat="40.8737683" lon="14.739385"><ele>521.2</ele><time>2026-04-25T08:57:00.111Z</time></trkpt><trkpt lat="40.87384" lon="14.7392883"><ele>520.0</ele><time>2026-04-25T08:57:01.112Z</time></trkpt><trkpt lat="40.8739333" lon="14.7392133"><ele>525.25</ele><time>2026-04-25T08:57:02.111Z</time></trkpt><trkpt lat="40.874035" lon="14.7391467"><ele>530.5</ele><time>2026-04-25T08:57:03.111Z</time></trkpt><trkpt lat="40.87415" lon="14.7390933"><ele>535.75</ele><time>2026-04-25T08:57:04.111Z</time></trkpt><trkpt lat="40.8742583" lon="14.7390317"><ele>541.0</ele><time>2026-04-25T08:57:05.112Z</time></trkpt><trkpt lat="40.8743517" lon="14.73897"><ele>541.2</ele><time>2026-04-25T08:57:06.111Z</time></trkpt><trkpt lat="40.8744267" lon="14.7389033"><ele>541.4000000000001</ele><time>2026-04-25T08:57:07.111Z</time></trkpt><trkpt lat="40.8744933" lon="14.7388133"><ele>541.6</ele><time>2026-04-25T08:57:08.111Z</time></trkpt><trkpt lat="40.8745567" lon="14.7387033"><ele>541.8000000000001</ele><time>2026-04-25T08:57:09.111Z</time></trkpt><trkpt lat="40.8746233" lon="14.738585"><ele>542.0</ele><time>2026-04-25T08:57:10.111Z</time></trkpt><trkpt lat="40.8746817" lon="14.73847"><ele>544.3333333333333</ele><time>2026-04-25T08:57:11.111Z</time></trkpt><trkpt lat="40.874735" lon="14.7383733"><ele>546.6666666666666</ele><time>2026-04-25T08:57:12.111Z</time></trkpt><trkpt lat="40.8747883" lon="14.73831"><ele>549.0</ele><time>2026-04-25T08:57:13.111Z</time></trkpt><trkpt lat="40.8748933" lon="14.7383267"><ele>551.3333333333334</ele><time>2026-04-25T08:57:15.111Z</time></trkpt><trkpt lat="40.8749483" lon="14.7383883"><ele>553.6666666666667</ele><time>2026-04-25T08:57:16.111Z</time></trkpt><trkpt lat="40.8750217" lon="14.73846"><ele>556.0</ele><time>2026-04-25T08:57:17.111Z</time></trkpt><trkpt lat="40.8751017" lon="14.7385117"><ele>556.8</ele><time>2026-04-25T08:57:18.111Z</time></trkpt><trkpt lat="40.8751817" lon="14.7385283"><ele>557.6</ele><time>2026-04-25T08:57:19.111Z</time></trkpt><trkpt lat="40.87527" lon="14.7385117"><ele>558.4</ele><time>2026-04-25T08:57:20.111Z</time></trkpt><trkpt lat="40.8753833" lon="14.7384683"><ele>559.2</ele><time>2026-04-25T08:57:21.111Z</time></trkpt><trkpt lat="40.8755133" lon="14.7384333"><ele>560.0</ele><time>2026-04-25T08:57:22.112Z</time></trkpt><trkpt lat="40.8756367" lon="14.7384233"><ele>560.0</ele><time>2026-04-25T08:57:23.111Z</time></trkpt><trkpt lat="40.875745" lon="14.738435"><ele>560.0</ele><time>2026-04-25T08:57:24.111Z</time></trkpt><trkpt lat="40.875845" lon="14.7384783"><ele>560.0</ele><time>2026-04-25T08:57:25.111Z</time></trkpt><trkpt lat="40.8759317" lon="14.738555"><ele>560.0</ele><time>2026-04-25T08:57:26.111Z</time></trkpt><trkpt lat="40.8760167" lon="14.7386683"><ele>560.0</ele><time>2026-04-25T08:57:27.112Z</time></trkpt><trkpt lat="40.8760867" lon="14.7388"><ele>562.6666666666666</ele><time>2026-04-25T08:57:28.111Z</time></trkpt><trkpt lat="40.8761817" lon="14.73896"><ele>565.3333333333334</ele><time>2026-04-25T08:57:29.111Z</time></trkpt><trkpt lat="40.8762667" lon="14.7391267"><ele>568.0</ele><time>2026-04-25T08:57:30.111Z</time></trkpt><trkpt lat="40.876365" lon="14.7392783"><ele>566.75</ele><time>2026-04-25T08:57:31.111Z</time></trkpt><trkpt lat="40.8764717" lon="14.73941"><ele>565.5</ele><time>2026-04-25T08:57:32.111Z</time></trkpt><trkpt lat="40.8765767" lon="14.73951"><ele>564.25</ele><time>2026-04-25T08:57:33.111Z</time></trkpt><trkpt lat="40.8766683" lon="14.7396033"><ele>563.0</ele><time>2026-04-25T08:57:34.111Z</time></trkpt><trkpt lat="40.8767417" lon="14.7397183"><ele>570.25</ele><time>2026-04-25T08:57:35.111Z</time></trkpt><trkpt lat="40.8768" lon="14.7398517"><ele>577.5</ele><time>2026-04-25T08:57:36.112Z</time></trkpt><trkpt lat="40.876845" lon="14.7400133"><ele>584.75</ele><time>2026-04-25T08:57:37.111Z</time></trkpt><trkpt lat="40.8768833" lon="14.7401983"><ele>592.0</ele><time>2026-04-25T08:57:38.111Z</time></trkpt><trkpt lat="40.87691" lon="14.7403967"><ele>592.5</ele><time>2026-04-25T08:57:39.111Z</time></trkpt><trkpt lat="40.876935" lon="14.7405683"><ele>593.0</ele><time>2026-04-25T08:57:40.111Z</time></trkpt><trkpt lat="40.8769267" lon="14.740725"><ele>593.5</ele><time>2026-04-25T08:57:41.111Z</time></trkpt><trkpt lat="40.876895" lon="14.7408917"><ele>594.0</ele><time>2026-04-25T08:57:42.111Z</time></trkpt><trkpt lat="40.8768467" lon="14.741055"><ele>596.6</ele><time>2026-04-25T08:57:43.112Z</time></trkpt><trkpt lat="40.8768083" lon="14.7412033"><ele>599.2</ele><time>2026-04-25T08:57:44.111Z</time></trkpt><trkpt lat="40.8767867" lon="14.7413083"><ele>601.8000000000001</ele><time>2026-04-25T08:57:45.111Z</time></trkpt><trkpt lat="40.8768083" lon="14.7414433"><ele>604.4</ele><time>2026-04-25T08:57:47.111Z</time></trkpt><trkpt lat="40.8768833" lon="14.7414483"><ele>607.0</ele><time>2026-04-25T08:57:49.111Z</time></trkpt><trkpt lat="40.8769683" lon="14.7412933"><ele>607.0</ele><time>2026-04-25T08:57:51.112Z</time></trkpt><trkpt lat="40.87702" lon="14.7411417"><ele>607.0</ele><time>2026-04-25T08:57:52.111Z</time></trkpt><trkpt lat="40.8770783" lon="14.7409783"><ele>607.0</ele><time>2026-04-25T08:57:53.111Z</time></trkpt><trkpt lat="40.8771383" lon="14.7408117"><ele>607.0</ele><time>2026-04-25T08:57:54.111Z</time></trkpt><trkpt lat="40.8771933" lon="14.74063"><ele>603.75</ele><time>2026-04-25T08:57:55.111Z</time></trkpt><trkpt lat="40.8772283" lon="14.7404433"><ele>600.5</ele><time>2026-04-25T08:57:56.111Z</time></trkpt><trkpt lat="40.8772567" lon="14.7402533"><ele>597.25</ele><time>2026-04-25T08:57:57.111Z</time></trkpt><trkpt lat="40.87728" lon="14.740055"><ele>594.0</ele><time>2026-04-25T08:57:58.111Z</time></trkpt><trkpt lat="40.8772817" lon="14.7398383"><ele>593.3333333333334</ele><time>2026-04-25T08:57:59.111Z</time></trkpt><trkpt lat="40.877275" lon="14.7396267"><ele>592.6666666666667</ele><time>2026-04-25T08:58:00.111Z</time></trkpt><trkpt lat="40.8772617" lon="14.7394333"><ele>592.0</ele><time>2026-04-25T08:58:01.111Z</time></trkpt><trkpt lat="40.8772583" lon="14.7392317"><ele>593.3333333333334</ele><time>2026-04-25T08:58:02.111Z</time></trkpt><trkpt lat="40.87727" lon="14.7390233"><ele>594.6666666666666</ele><time>2026-04-25T08:58:03.111Z</time></trkpt><trkpt lat="40.8772767" lon="14.738815"><ele>596.0</ele><time>2026-04-25T08:58:04.111Z</time></trkpt><trkpt lat="40.8772933" lon="14.73862"><ele>597.75</ele><time>2026-04-25T08:58:05.112Z</time></trkpt><trkpt lat="40.8773" lon="14.7384283"><ele>599.5</ele><time>2026-04-25T08:58:06.111Z</time></trkpt><trkpt lat="40.8772883" lon="14.7382367"><ele>601.25</ele><time>2026-04-25T08:58:07.111Z</time></trkpt><trkpt lat="40.8772617" lon="14.7380383"><ele>603.0</ele><time>2026-04-25T08:58:08.111Z</time></trkpt><trkpt lat="40.8772233" lon="14.7378467"><ele>604.6666666666666</ele><time>2026-04-25T08:58:09.111Z</time></trkpt><trkpt lat="40.8771617" lon="14.73765"><ele>606.3333333333333</ele><time>2026-04-25T08:58:10.111Z</time></trkpt><trkpt lat="40.87709" lon="14.73745"><ele>608.0</ele><time>2026-04-25T08:58:11.111Z</time></trkpt><trkpt lat="40.8770083" lon="14.737255"><ele>608.0</ele><time>2026-04-25T08:58:12.112Z</time></trkpt><trkpt lat="40.8769267" lon="14.7370667"><ele>608.0</ele><time>2026-04-25T08:58:13.112Z</time></trkpt><trkpt lat="40.8768517" lon="14.7368983"><ele>608.0</ele><time>2026-04-25T08:58:14.111Z</time></trkpt><trkpt lat="40.87678" lon="14.7367667"><ele>608.0</ele><time>2026-04-25T08:58:15.111Z</time></trkpt><trkpt lat="40.8766917" lon="14.73665"><ele>606.8</ele><time>2026-04-25T08:58:16.111Z</time></trkpt><trkpt lat="40.8766067" lon="14.7365567"><ele>605.5999999999999</ele><time>2026-04-25T08:58:17.111Z</time></trkpt><trkpt lat="40.8765317" lon="14.7364833"><ele>604.4000000000001</ele><time>2026-04-25T08:58:18.111Z</time></trkpt><trkpt lat="40.87647" lon="14.73641"><ele>603.2</ele><time>2026-04-25T08:58:19.111Z</time></trkpt><trkpt lat="40.87642" lon="14.7363167"><ele>602.0</ele><time>2026-04-25T08:58:20.111Z</time></trkpt><trkpt lat="40.87638" lon="14.7361917"><ele>606.0</ele><time>2026-04-25T08:58:21.111Z</time></trkpt><trkpt lat="40.8763367" lon="14.736045"><ele>610.0</ele><time>2026-04-25T08:58:22.111Z</time></trkpt><trkpt lat="40.876285" lon="14.7358917"><ele>614.0</ele><time>2026-04-25T08:58:23.112Z</time></trkpt><trkpt lat="40.8762267" lon="14.73575"><ele>618.0</ele><time>2026-04-25T08:58:24.111Z</time></trkpt><trkpt lat="40.8761583" lon="14.735625"><ele>618.0</ele><time>2026-04-25T08:58:25.111Z</time></trkpt><trkpt lat="40.8760633" lon="14.7355117"><ele>618.0</ele><time>2026-04-25T08:58:26.111Z</time></trkpt><trkpt lat="40.87595" lon="14.73541"><ele>618.0</ele><time>2026-04-25T08:58:27.111Z</time></trkpt><trkpt lat="40.8758467" lon="14.7353017"><ele>618.0</ele><time>2026-04-25T08:58:28.111Z</time></trkpt><trkpt lat="40.875755" lon="14.7351683"><ele>616.3333333333334</ele><time>2026-04-25T08:58:29.111Z</time></trkpt><trkpt lat="40.8756583" lon="14.7350117"><ele>614.6666666666667</ele><time>2026-04-25T08:58:30.111Z</time></trkpt><trkpt lat="40.8755583" lon="14.7348417"><ele>613.0</ele><time>2026-04-25T08:58:31.111Z</time></trkpt><trkpt lat="40.8754617" lon="14.734685"><ele>613.0</ele><time>2026-04-25T08:58:32.111Z</time></trkpt><trkpt lat="40.87538" lon="14.7345483"><ele>613.0</ele><time>2026-04-25T08:58:33.111Z</time></trkpt><trkpt lat="40.87531" lon="14.7344417"><ele>613.0</ele><time>2026-04-25T08:58:34.111Z</time></trkpt><trkpt lat="40.875255" lon="14.7343533"><ele>613.0</ele><time>2026-04-25T08:58:35.111Z</time></trkpt><trkpt lat="40.87524" lon="14.7342317"><ele>613.0</ele><time>2026-04-25T08:58:37.111Z</time></trkpt><trkpt lat="40.8753367" lon="14.7342317"><ele>613.0</ele><time>2026-04-25T08:58:39.111Z</time></trkpt><trkpt lat="40.8754083" lon="14.73427"><ele>613.0</ele><time>2026-04-25T08:58:40.112Z</time></trkpt><trkpt lat="40.8755083" lon="14.7343367"><ele>613.0</ele><time>2026-04-25T08:58:41.112Z</time></trkpt><trkpt lat="40.8756167" lon="14.7344133"><ele>613.0</ele><time>2026-04-25T08:58:42.111Z</time></trkpt><trkpt lat="40.8757317" lon="14.734485"><ele>613.0</ele><time>2026-04-25T08:58:43.111Z</time></trkpt><trkpt lat="40.8758517" lon="14.7345633"><ele>617.5</ele><time>2026-04-25T08:58:44.111Z</time></trkpt><trkpt lat="40.8759733" lon="14.7346433"><ele>622.0</ele><time>2026-04-25T08:58:45.111Z</time></trkpt><trkpt lat="40.8760983" lon="14.7347217"><ele>626.5</ele><time>2026-04-25T08:58:46.112Z</time></trkpt><trkpt lat="40.8762167" lon="14.7348133"><ele>631.0</ele><time>2026-04-25T08:58:47.111Z</time></trkpt><trkpt lat="40.8763333" lon="14.7348967"><ele>631.0</ele><time>2026-04-25T08:58:48.111Z</time></trkpt><trkpt lat="40.87644" lon="14.7350017"><ele>631.0</ele><time>2026-04-25T08:58:49.111Z</time></trkpt><trkpt lat="40.876535" lon="14.7351383"><ele>631.0</ele><time>2026-04-25T08:58:50.111Z</time></trkpt><trkpt lat="40.876625" lon="14.7352633"><ele>631.0</ele><time>2026-04-25T08:58:51.111Z</time></trkpt><trkpt lat="40.8767083" lon="14.735385"><ele>634.75</ele><time>2026-04-25T08:58:52.111Z</time></trkpt><trkpt lat="40.8767883" lon="14.7355133"><ele>638.5</ele><time>2026-04-25T08:58:53.111Z</time></trkpt><trkpt lat="40.876895" lon="14.73562"><ele>642.25</ele><time>2026-04-25T08:58:54.111Z</time></trkpt><trkpt lat="40.8770117" lon="14.735735"><ele>646.0</ele><time>2026-04-25T08:58:55.112Z</time></trkpt><trkpt lat="40.8771367" lon="14.73585"><ele>646.0</ele><time>2026-04-25T08:58:56.111Z</time></trkpt><trkpt lat="40.8772617" lon="14.73595"><ele>646.0</ele><time>2026-04-25T08:58:57.111Z</time></trkpt><trkpt lat="40.8773817" lon="14.73606"><ele>646.0</ele><time>2026-04-25T08:58:58.112Z</time></trkpt><trkpt lat="40.8774917" lon="14.736185"><ele>646.0</ele><time>2026-04-25T08:58:59.112Z</time></trkpt><trkpt lat="40.8775933" lon="14.736325"><ele>649.3333333333334</ele><time>2026-04-25T08:59:00.111Z</time></trkpt><trkpt lat="40.8776867" lon="14.7364717"><ele>652.6666666666666</ele><time>2026-04-25T08:59:01.111Z</time></trkpt><trkpt lat="40.877775" lon="14.7366383"><ele>656.0</ele><time>2026-04-25T08:59:02.111Z</time></trkpt><trkpt lat="40.87785" lon="14.7368267"><ele>651.3333333333333</ele><time>2026-04-25T08:59:03.111Z</time></trkpt><trkpt lat="40.8779167" lon="14.7370283"><ele>646.6666666666666</ele><time>2026-04-25T08:59:04.111Z</time></trkpt><trkpt lat="40.87798" lon="14.7372433"><ele>642.0</ele><time>2026-04-25T08:59:05.111Z</time></trkpt><trkpt lat="40.878045" lon="14.73746"><ele>642.0</ele><time>2026-04-25T08:59:06.111Z</time></trkpt><trkpt lat="40.8780933" lon="14.7376717"><ele>642.0</ele><time>2026-04-25T08:59:07.111Z</time></trkpt><trkpt lat="40.8781267" lon="14.7378583"><ele>642.0</ele><time>2026-04-25T08:59:08.111Z</time></trkpt><trkpt lat="40.8781483" lon="14.7380183"><ele>642.0</ele><time>2026-04-25T08:59:09.112Z</time></trkpt><trkpt lat="40.8781583" lon="14.7381633"><ele>641.8</ele><time>2026-04-25T08:59:10.111Z</time></trkpt><trkpt lat="40.8781883" lon="14.7382783"><ele>641.6</ele><time>2026-04-25T08:59:11.111Z</time></trkpt><trkpt lat="40.87823" lon="14.73837"><ele>641.4</ele><time>2026-04-25T08:59:12.111Z</time></trkpt><trkpt lat="40.8783517" lon="14.7384167"><ele>641.1999999999999</ele><time>2026-04-25T08:59:14.111Z</time></trkpt><trkpt lat="40.8784467" lon="14.73839"><ele>641.0</ele><time>2026-04-25T08:59:15.111Z</time></trkpt><trkpt lat="40.8785483" lon="14.73834"><ele>641.0</ele><time>2026-04-25T08:59:16.111Z</time></trkpt><trkpt lat="40.8786367" lon="14.7382583"><ele>641.0</ele><time>2026-04-25T08:59:17.111Z</time></trkpt><trkpt lat="40.8787133" lon="14.7381367"><ele>641.0</ele><time>2026-04-25T08:59:18.112Z</time></trkpt><trkpt lat="40.8787783" lon="14.737985"><ele>641.0</ele><time>2026-04-25T08:59:19.111Z</time></trkpt><trkpt lat="40.878855" lon="14.7378483"><ele>641.0</ele><time>2026-04-25T08:59:20.111Z</time></trkpt><trkpt lat="40.8789367" lon="14.737725"><ele>641.0</ele><time>2026-04-25T08:59:21.111Z</time></trkpt><trkpt lat="40.8790367" lon="14.737625"><ele>641.0</ele><time>2026-04-25T08:59:22.111Z</time></trkpt><trkpt lat="40.8791567" lon="14.7375567"><ele>641.0</ele><time>2026-04-25T08:59:23.111Z</time></trkpt><trkpt lat="40.879295" lon="14.73751"><ele>640.75</ele><time>2026-04-25T08:59:24.111Z</time></trkpt><trkpt lat="40.8794433" lon="14.7374833"><ele>640.5</ele><time>2026-04-25T08:59:25.111Z</time></trkpt><trkpt lat="40.879585" lon="14.7374633"><ele>640.25</ele><time>2026-04-25T08:59:26.111Z</time></trkpt><trkpt lat="40.8797083" lon="14.7374767"><ele>640.0</ele><time>2026-04-25T08:59:27.111Z</time></trkpt><trkpt lat="40.8798383" lon="14.7375183"><ele>640.0</ele><time>2026-04-25T08:59:28.111Z</time></trkpt><trkpt lat="40.8799683" lon="14.7375967"><ele>640.0</ele><time>2026-04-25T08:59:29.111Z</time></trkpt><trkpt lat="40.88008" lon="14.7376983"><ele>640.0</ele><time>2026-04-25T08:59:30.111Z</time></trkpt><trkpt lat="40.8801717" lon="14.7377833"><ele>640.0</ele><time>2026-04-25T08:59:31.111Z</time></trkpt><trkpt lat="40.88026" lon="14.7378367"><ele>637.0</ele><time>2026-04-25T08:59:32.111Z</time></trkpt><trkpt lat="40.8803467" lon="14.7378417"><ele>634.0</ele><time>2026-04-25T08:59:33.111Z</time></trkpt><trkpt lat="40.8804267" lon="14.737795"><ele>631.0</ele><time>2026-04-25T08:59:34.111Z</time></trkpt><trkpt lat="40.8805083" lon="14.7377017"><ele>628.0</ele><time>2026-04-25T08:59:35.111Z</time></trkpt><trkpt lat="40.8805717" lon="14.737585"><ele>625.0</ele><time>2026-04-25T08:59:36.111Z</time></trkpt><trkpt lat="40.8806067" lon="14.7374617"><ele>625.0</ele><time>2026-04-25T08:59:37.111Z</time></trkpt><trkpt lat="40.880615" lon="14.7373283"><ele>625.0</ele><time>2026-04-25T08:59:38.112Z</time></trkpt><trkpt lat="40.8805917" lon="14.7371767"><ele>625.0</ele><time>2026-04-25T08:59:39.111Z</time></trkpt><trkpt lat="40.8805417" lon="14.737035"><ele>625.0</ele><time>2026-04-25T08:59:40.111Z</time></trkpt><trkpt lat="40.88051" lon="14.7369167"><ele>625.0</ele><time>2026-04-25T08:59:41.112Z</time></trkpt><trkpt lat="40.8804983" lon="14.73682"><ele>626.6</ele><time>2026-04-25T08:59:42.111Z</time></trkpt><trkpt lat="40.8805117" lon="14.7367317"><ele>628.2</ele><time>2026-04-25T08:59:43.111Z</time></trkpt><trkpt lat="40.8805617" lon="14.7366467"><ele>629.8</ele><time>2026-04-25T08:59:44.111Z</time></trkpt><trkpt lat="40.88066" lon="14.7365667"><ele>631.4</ele><time>2026-04-25T08:59:45.112Z</time></trkpt><trkpt lat="40.8807817" lon="14.73648"><ele>633.0</ele><time>2026-04-25T08:59:46.111Z</time></trkpt><trkpt lat="40.8809167" lon="14.7363917"><ele>628.75</ele><time>2026-04-25T08:59:47.111Z</time></trkpt><trkpt lat="40.88105" lon="14.73632"><ele>624.5</ele><time>2026-04-25T08:59:48.111Z</time></trkpt><trkpt lat="40.8811817" lon="14.7362717"><ele>620.25</ele><time>2026-04-25T08:59:49.111Z</time></trkpt><trkpt lat="40.8813217" lon="14.7362717"><ele>616.0</ele><time>2026-04-25T08:59:50.112Z</time></trkpt><trkpt lat="40.881465" lon="14.7362667"><ele>616.0</ele><time>2026-04-25T08:59:51.111Z</time></trkpt><trkpt lat="40.8815983" lon="14.736255"><ele>616.0</ele><time>2026-04-25T08:59:52.111Z</time></trkpt><trkpt lat="40.8817283" lon="14.7362117"><ele>616.0</ele><time>2026-04-25T08:59:53.111Z</time></trkpt><trkpt lat="40.8818417" lon="14.736145"><ele>616.0</ele><time>2026-04-25T08:59:54.111Z</time></trkpt><trkpt lat="40.8819567" lon="14.73604"><ele>615.5</ele><time>2026-04-25T08:59:55.111Z</time></trkpt><trkpt lat="40.8820817" lon="14.735945"><ele>615.0</ele><time>2026-04-25T08:59:56.112Z</time></trkpt><trkpt lat="40.8821967" lon="14.735845"><ele>614.5</ele><time>2026-04-25T08:59:57.111Z</time></trkpt><trkpt lat="40.8822967" lon="14.7357383"><ele>614.0</ele><time>2026-04-25T08:59:58.111Z</time></trkpt><trkpt lat="40.882375" lon="14.7356183"><ele>614.0</ele><time>2026-04-25T08:59:59.111Z</time></trkpt><trkpt lat="40.8824433" lon="14.7354717"><ele>614.0</ele><time>2026-04-25T09:00:00.111Z</time></trkpt><trkpt lat="40.882505" lon="14.73528"><ele>614.0</ele><time>2026-04-25T09:00:01.111Z</time></trkpt><trkpt lat="40.8825633" lon="14.7350867"><ele>614.0</ele><time>2026-04-25T09:00:02.111Z</time></trkpt><trkpt lat="40.882615" lon="14.734915"><ele>606.0</ele><time>2026-04-25T09:00:03.111Z</time></trkpt><trkpt lat="40.8826717" lon="14.73476"><ele>598.0</ele><time>2026-04-25T09:00:04.111Z</time></trkpt><trkpt lat="40.8827383" lon="14.734655"><ele>590.0</ele><time>2026-04-25T09:00:05.112Z</time></trkpt><trkpt lat="40.88283" lon="14.7345633"><ele>582.0</ele><time>2026-04-25T09:00:06.111Z</time></trkpt><trkpt lat="40.882935" lon="14.7344867"><ele>582.0</ele><time>2026-04-25T09:00:07.111Z</time></trkpt><trkpt lat="40.8830283" lon="14.7344167"><ele>582.0</ele><time>2026-04-25T09:00:08.111Z</time></trkpt><trkpt lat="40.8831033" lon="14.7343417"><ele>582.0</ele><time>2026-04-25T09:00:09.111Z</time></trkpt><trkpt lat="40.8831617" lon="14.7342283"><ele>582.0</ele><time>2026-04-25T09:00:10.111Z</time></trkpt><trkpt lat="40.8832183" lon="14.73407"><ele>582.0</ele><time>2026-04-25T09:00:11.112Z</time></trkpt><trkpt lat="40.8832767" lon="14.7338767"><ele>588.5</ele><time>2026-04-25T09:00:12.111Z</time></trkpt><trkpt lat="40.8833317" lon="14.7336983"><ele>595.0</ele><time>2026-04-25T09:00:13.111Z</time></trkpt><trkpt lat="40.883385" lon="14.733545"><ele>601.5</ele><time>2026-04-25T09:00:14.111Z</time></trkpt><trkpt lat="40.88345" lon="14.7334417"><ele>608.0</ele><time>2026-04-25T09:00:15.111Z</time></trkpt><trkpt lat="40.88352" lon="14.73339"><ele>609.6666666666666</ele><time>2026-04-25T09:00:16.111Z</time></trkpt><trkpt lat="40.8836017" lon="14.73338"><ele>611.3333333333333</ele><time>2026-04-25T09:00:17.111Z</time></trkpt><trkpt lat="40.8836667" lon="14.733415"><ele>613.0</ele><time>2026-04-25T09:00:18.111Z</time></trkpt><trkpt lat="40.8837333" lon="14.7334717"><ele>614.6666666666666</ele><time>2026-04-25T09:00:19.111Z</time></trkpt><trkpt lat="40.88381" lon="14.733555"><ele>616.3333333333334</ele><time>2026-04-25T09:00:20.111Z</time></trkpt><trkpt lat="40.8838917" lon="14.73365"><ele>618.0</ele><time>2026-04-25T09:00:21.111Z</time></trkpt><trkpt lat="40.8839833" lon="14.7337583"><ele>612.75</ele><time>2026-04-25T09:00:22.111Z</time></trkpt><trkpt lat="40.884045" lon="14.7338967"><ele>607.5</ele><time>2026-04-25T09:00:23.111Z</time></trkpt><trkpt lat="40.8841" lon="14.7340533"><ele>602.25</ele><time>2026-04-25T09:00:24.111Z</time></trkpt><trkpt lat="40.8841483" lon="14.7342117"><ele>597.0</ele><time>2026-04-25T09:00:25.112Z</time></trkpt><trkpt lat="40.8841917" lon="14.7343533"><ele>593.1666666666666</ele><time>2026-04-25T09:00:26.111Z</time></trkpt><trkpt lat="40.884235" lon="14.7344583"><ele>589.3333333333334</ele><time>2026-04-25T09:00:27.111Z</time></trkpt><trkpt lat="40.8842883" lon="14.7345267"><ele>585.5</ele><time>2026-04-25T09:00:28.111Z</time></trkpt><trkpt lat="40.8843533" lon="14.734555"><ele>581.6666666666667</ele><time>2026-04-25T09:00:29.111Z</time></trkpt><trkpt lat="40.8844283" lon="14.7345433"><ele>577.8333333333334</ele><time>2026-04-25T09:00:30.111Z</time></trkpt><trkpt lat="40.8844933" lon="14.7344917"><ele>574.0</ele><time>2026-04-25T09:00:31.111Z</time></trkpt><trkpt lat="40.8845417" lon="14.7344133"><ele>576.4</ele><time>2026-04-25T09:00:32.111Z</time></trkpt><trkpt lat="40.8845683" lon="14.7343117"><ele>578.8</ele><time>2026-04-25T09:00:33.111Z</time></trkpt><trkpt lat="40.8845833" lon="14.7341817"><ele>581.2</ele><time>2026-04-25T09:00:34.111Z</time></trkpt><trkpt lat="40.884615" lon="14.734035"><ele>583.6</ele><time>2026-04-25T09:00:35.111Z</time></trkpt><trkpt lat="40.8846717" lon="14.7338883"><ele>586.0</ele><time>2026-04-25T09:00:36.111Z</time></trkpt><trkpt lat="40.8847433" lon="14.7337467"><ele>586.0</ele><time>2026-04-25T09:00:37.111Z</time></trkpt><trkpt lat="40.8848167" lon="14.7335967"><ele>586.0</ele><time>2026-04-25T09:00:38.111Z</time></trkpt><trkpt lat="40.8848883" lon="14.7334367"><ele>586.0</ele><time>2026-04-25T09:00:39.112Z</time></trkpt><trkpt lat="40.884945" lon="14.73326"><ele>586.0</ele><time>2026-04-25T09:00:40.111Z</time></trkpt><trkpt lat="40.884985" lon="14.7330783"><ele>587.75</ele><time>2026-04-25T09:00:41.111Z</time></trkpt><trkpt lat="40.8850167" lon="14.732895"><ele>589.5</ele><time>2026-04-25T09:00:42.111Z</time></trkpt><trkpt lat="40.885035" lon="14.73271"><ele>591.25</ele><time>2026-04-25T09:00:43.111Z</time></trkpt><trkpt lat="40.8850333" lon="14.7325333"><ele>593.0</ele><time>2026-04-25T09:00:44.111Z</time></trkpt><trkpt lat="40.88502" lon="14.73235"><ele>593.5</ele><time>2026-04-25T09:00:45.111Z</time></trkpt><trkpt lat="40.8849917" lon="14.7321583"><ele>594.0</ele><time>2026-04-25T09:00:46.111Z</time></trkpt><trkpt lat="40.8849517" lon="14.7319783"><ele>594.5</ele><time>2026-04-25T09:00:47.111Z</time></trkpt><trkpt lat="40.88492" lon="14.7318083"><ele>595.0</ele><time>2026-04-25T09:00:48.111Z</time></trkpt><trkpt lat="40.8849167" lon="14.731625"><ele>594.6666666666667</ele><time>2026-04-25T09:00:49.111Z</time></trkpt><trkpt lat="40.8849317" lon="14.73143"><ele>594.3333333333334</ele><time>2026-04-25T09:00:50.111Z</time></trkpt><trkpt lat="40.8849517" lon="14.7312217"><ele>594.0</ele><time>2026-04-25T09:00:51.111Z</time></trkpt><trkpt lat="40.8849767" lon="14.7310083"><ele>594.0</ele><time>2026-04-25T09:00:52.111Z</time></trkpt><trkpt lat="40.8850017" lon="14.7307967"><ele>594.0</ele><time>2026-04-25T09:00:53.111Z</time></trkpt><trkpt lat="40.885025" lon="14.7305917"><ele>594.0</ele><time>2026-04-25T09:00:54.111Z</time></trkpt><trkpt lat="40.8850467" lon="14.7304117"><ele>594.0</ele><time>2026-04-25T09:00:55.111Z</time></trkpt><trkpt lat="40.8850683" lon="14.730265"><ele>594.0</ele><time>2026-04-25T09:00:56.111Z</time></trkpt><trkpt lat="40.8851117" lon="14.73013"><ele>594.0</ele><time>2026-04-25T09:00:57.111Z</time></trkpt><trkpt lat="40.8851733" lon="14.7299983"><ele>594.0</ele><time>2026-04-25T09:00:58.111Z</time></trkpt><trkpt lat="40.8852317" lon="14.729875"><ele>584.5</ele><time>2026-04-25T09:00:59.111Z</time></trkpt><trkpt lat="40.8853317" lon="14.729765"><ele>575.0</ele><time>2026-04-25T09:01:00.111Z</time></trkpt><trkpt lat="40.8854367" lon="14.7296667"><ele>565.5</ele><time>2026-04-25T09:01:01.111Z</time></trkpt><trkpt lat="40.885535" lon="14.7295517"><ele>556.0</ele><time>2026-04-25T09:01:02.111Z</time></trkpt><trkpt lat="40.88564" lon="14.7294233"><ele>559.75</ele><time>2026-04-25T09:01:03.111Z</time></trkpt><trkpt lat="40.8857317" lon="14.7292917"><ele>563.5</ele><time>2026-04-25T09:01:04.111Z</time></trkpt><trkpt lat="40.885805" lon="14.7291633"><ele>567.25</ele><time>2026-04-25T09:01:05.111Z</time></trkpt><trkpt lat="40.8858517" lon="14.72903"><ele>571.0</ele><time>2026-04-25T09:01:06.111Z</time></trkpt><trkpt lat="40.8858783" lon="14.7288767"><ele>571.0</ele><time>2026-04-25T09:01:07.111Z</time></trkpt><trkpt lat="40.885885" lon="14.72871"><ele>571.0</ele><time>2026-04-25T09:01:08.111Z</time></trkpt><trkpt lat="40.8858867" lon="14.72854"><ele>571.0</ele><time>2026-04-25T09:01:09.111Z</time></trkpt><trkpt lat="40.8858817" lon="14.7283717"><ele>571.0</ele><time>2026-04-25T09:01:10.111Z</time></trkpt><trkpt lat="40.885905" lon="14.7282333"><ele>564.8</ele><time>2026-04-25T09:01:11.111Z</time></trkpt><trkpt lat="40.885935" lon="14.7281017"><ele>558.6</ele><time>2026-04-25T09:01:12.111Z</time></trkpt><trkpt lat="40.8859917" lon="14.7279933"><ele>552.4</ele><time>2026-04-25T09:01:13.111Z</time></trkpt><trkpt lat="40.88605" lon="14.727885"><ele>546.2</ele><time>2026-04-25T09:01:14.111Z</time></trkpt><trkpt lat="40.8860817" lon="14.727755"><ele>540.0</ele><time>2026-04-25T09:01:15.111Z</time></trkpt><trkpt lat="40.8861133" lon="14.7276267"><ele>540.0</ele><time>2026-04-25T09:01:16.111Z</time></trkpt><trkpt lat="40.886135" lon="14.7274917"><ele>540.0</ele><time>2026-04-25T09:01:17.111Z</time></trkpt><trkpt lat="40.886125" lon="14.7273533"><ele>540.0</ele><time>2026-04-25T09:01:18.111Z</time></trkpt><trkpt lat="40.8860933" lon="14.727235"><ele>540.0</ele><time>2026-04-25T09:01:19.111Z</time></trkpt><trkpt lat="40.8860517" lon="14.7271317"><ele>540.0</ele><time>2026-04-25T09:01:20.111Z</time></trkpt><trkpt lat="40.88597" lon="14.72704"><ele>546.8</ele><time>2026-04-25T09:01:21.111Z</time></trkpt><trkpt lat="40.88587" lon="14.72695"><ele>553.6</ele><time>2026-04-25T09:01:22.111Z</time></trkpt><trkpt lat="40.885785" lon="14.72686"><ele>560.4</ele><time>2026-04-25T09:01:23.111Z</time></trkpt><trkpt lat="40.885745" lon="14.72676"><ele>567.2</ele><time>2026-04-25T09:01:24.111Z</time></trkpt><trkpt lat="40.885735" lon="14.7266617"><ele>574.0</ele><time>2026-04-25T09:01:25.111Z</time></trkpt><trkpt lat="40.8857683" lon="14.7265583"><ele>574.0</ele><time>2026-04-25T09:01:26.111Z</time></trkpt><trkpt lat="40.88584" lon="14.726485"><ele>574.0</ele><time>2026-04-25T09:01:27.111Z</time></trkpt><trkpt lat="40.88594" lon="14.7264283"><ele>574.0</ele><time>2026-04-25T09:01:28.111Z</time></trkpt><trkpt lat="40.88604" lon="14.726375"><ele>574.0</ele><time>2026-04-25T09:01:29.111Z</time></trkpt><trkpt lat="40.8861183" lon="14.7263017"><ele>574.0</ele><time>2026-04-25T09:01:30.111Z</time></trkpt><trkpt lat="40.886175" lon="14.7261967"><ele>565.8</ele><time>2026-04-25T09:01:31.111Z</time></trkpt><trkpt lat="40.8862017" lon="14.7260733"><ele>557.5999999999999</ele><time>2026-04-25T09:01:32.111Z</time></trkpt><trkpt lat="40.8862033" lon="14.7259417"><ele>549.4</ele><time>2026-04-25T09:01:33.111Z</time></trkpt><trkpt lat="40.8861983" lon="14.725805"><ele>541.1999999999999</ele><time>2026-04-25T09:01:34.111Z</time></trkpt><trkpt lat="40.8862" lon="14.72565"><ele>533.0</ele><time>2026-04-25T09:01:35.111Z</time></trkpt><trkpt lat="40.8861983" lon="14.7254833"><ele>531.75</ele><time>2026-04-25T09:01:36.111Z</time></trkpt><trkpt lat="40.88619" lon="14.7253083"><ele>530.5</ele><time>2026-04-25T09:01:37.111Z</time></trkpt><trkpt lat="40.8861783" lon="14.725135"><ele>529.25</ele><time>2026-04-25T09:01:38.111Z</time></trkpt><trkpt lat="40.8861533" lon="14.7249417"><ele>528.0</ele><time>2026-04-25T09:01:39.111Z</time></trkpt><trkpt lat="40.886115" lon="14.7247467"><ele>526.6666666666666</ele><time>2026-04-25T09:01:40.111Z</time></trkpt><trkpt lat="40.8860583" lon="14.7245633"><ele>525.3333333333333</ele><time>2026-04-25T09:01:41.111Z</time></trkpt><trkpt lat="40.886" lon="14.7243733"><ele>524.0</ele><time>2026-04-25T09:01:42.111Z</time></trkpt><trkpt lat="40.8859433" lon="14.7241783"><ele>530.3333333333333</ele><time>2026-04-25T09:01:43.111Z</time></trkpt><trkpt lat="40.8858867" lon="14.723965"><ele>536.6666666666666</ele><time>2026-04-25T09:01:44.111Z</time></trkpt><trkpt lat="40.885825" lon="14.723765"><ele>543.0</ele><time>2026-04-25T09:01:45.111Z</time></trkpt><trkpt lat="40.8857617" lon="14.7235633"><ele>543.0</ele><time>2026-04-25T09:01:46.111Z</time></trkpt><trkpt lat="40.8857033" lon="14.7233717"><ele>543.0</ele><time>2026-04-25T09:01:47.112Z</time></trkpt><trkpt lat="40.8856467" lon="14.723195"><ele>543.0</ele><time>2026-04-25T09:01:48.111Z</time></trkpt><trkpt lat="40.8855967" lon="14.72303"><ele>543.0</ele><time>2026-04-25T09:01:49.111Z</time></trkpt><trkpt lat="40.8855483" lon="14.72289"><ele>543.0</ele><time>2026-04-25T09:01:50.111Z</time></trkpt><trkpt lat="40.885495" lon="14.7227583"><ele>543.0</ele><time>2026-04-25T09:01:51.111Z</time></trkpt><trkpt lat="40.8854317" lon="14.7226433"><ele>543.0</ele><time>2026-04-25T09:01:52.111Z</time></trkpt><trkpt lat="40.885345" lon="14.7225383"><ele>543.0</ele><time>2026-04-25T09:01:53.111Z</time></trkpt><trkpt lat="40.8852433" lon="14.7224233"><ele>545.25</ele><time>2026-04-25T09:01:54.111Z</time></trkpt><trkpt lat="40.88514" lon="14.7223033"><ele>547.5</ele><time>2026-04-25T09:01:55.111Z</time></trkpt><trkpt lat="40.8850567" lon="14.722185"><ele>549.75</ele><time>2026-04-25T09:01:56.111Z</time></trkpt><trkpt lat="40.8849983" lon="14.7220583"><ele>552.0</ele><time>2026-04-25T09:01:57.111Z</time></trkpt><trkpt lat="40.8849733" lon="14.72192"><ele>549.25</ele><time>2026-04-25T09:01:58.111Z</time></trkpt><trkpt lat="40.8849483" lon="14.7217717"><ele>546.5</ele><time>2026-04-25T09:01:59.111Z</time></trkpt><trkpt lat="40.8849383" lon="14.7216083"><ele>543.75</ele><time>2026-04-25T09:02:00.111Z</time></trkpt><trkpt lat="40.8849467" lon="14.7214417"><ele>541.0</ele><time>2026-04-25T09:02:01.111Z</time></trkpt><trkpt lat="40.884975" lon="14.7212833"><ele>541.0</ele><time>2026-04-25T09:02:02.111Z</time></trkpt><trkpt lat="40.885025" lon="14.721125"><ele>541.0</ele><time>2026-04-25T09:02:03.111Z</time></trkpt><trkpt lat="40.88508" lon="14.7209733"><ele>541.0</ele><time>2026-04-25T09:02:04.112Z</time></trkpt><trkpt lat="40.8851233" lon="14.7208117"><ele>541.0</ele><time>2026-04-25T09:02:05.111Z</time></trkpt><trkpt lat="40.885145" lon="14.7206383"><ele>534.75</ele><time>2026-04-25T09:02:06.111Z</time></trkpt><trkpt lat="40.8851633" lon="14.7204467"><ele>528.5</ele><time>2026-04-25T09:02:07.112Z</time></trkpt><trkpt lat="40.8851683" lon="14.7202583"><ele>522.25</ele><time>2026-04-25T09:02:08.111Z</time></trkpt><trkpt lat="40.8851667" lon="14.7201017"><ele>516.0</ele><time>2026-04-25T09:02:09.111Z</time></trkpt><trkpt lat="40.8851533" lon="14.7199667"><ele>515.8</ele><time>2026-04-25T09:02:10.111Z</time></trkpt><trkpt lat="40.8851117" lon="14.7198617"><ele>515.6</ele><time>2026-04-25T09:02:11.111Z</time></trkpt><trkpt lat="40.8850567" lon="14.7197717"><ele>515.4</ele><time>2026-04-25T09:02:12.111Z</time></trkpt><trkpt lat="40.884975" lon="14.7197117"><ele>515.2</ele><time>2026-04-25T09:02:13.111Z</time></trkpt><trkpt lat="40.8848733" lon="14.7196483"><ele>515.0</ele><time>2026-04-25T09:02:14.111Z</time></trkpt><trkpt lat="40.8847817" lon="14.7195783"><ele>518.0</ele><time>2026-04-25T09:02:15.111Z</time></trkpt><trkpt lat="40.8847233" lon="14.7195"><ele>521.0</ele><time>2026-04-25T09:02:16.111Z</time></trkpt><trkpt lat="40.8846933" lon="14.719405"><ele>524.0</ele><time>2026-04-25T09:02:17.111Z</time></trkpt><trkpt lat="40.88471" lon="14.7193167"><ele>527.0</ele><time>2026-04-25T09:02:18.111Z</time></trkpt><trkpt lat="40.88483" lon="14.7192333"><ele>530.0</ele><time>2026-04-25T09:02:20.111Z</time></trkpt><trkpt lat="40.8849383" lon="14.71919"><ele>530.25</ele><time>2026-04-25T09:02:21.111Z</time></trkpt><trkpt lat="40.8850583" lon="14.7191217"><ele>530.5</ele><time>2026-04-25T09:02:22.111Z</time></trkpt><trkpt lat="40.8851783" lon="14.7190483"><ele>530.75</ele><time>2026-04-25T09:02:23.111Z</time></trkpt><trkpt lat="40.885295" lon="14.718965"><ele>531.0</ele><time>2026-04-25T09:02:24.111Z</time></trkpt><trkpt lat="40.8854017" lon="14.71888"><ele>527.8</ele><time>2026-04-25T09:02:25.111Z</time></trkpt><trkpt lat="40.8854933" lon="14.7187883"><ele>524.6</ele><time>2026-04-25T09:02:26.111Z</time></trkpt><trkpt lat="40.885565" lon="14.71869"><ele>521.4</ele><time>2026-04-25T09:02:27.111Z</time></trkpt><trkpt lat="40.885625" lon="14.71858"><ele>518.2</ele><time>2026-04-25T09:02:28.111Z</time></trkpt><trkpt lat="40.8856767" lon="14.7184667"><ele>515.0</ele><time>2026-04-25T09:02:29.111Z</time></trkpt><trkpt lat="40.88572" lon="14.71833"><ele>515.0</ele><time>2026-04-25T09:02:30.111Z</time></trkpt><trkpt lat="40.8857617" lon="14.7181817"><ele>515.0</ele><time>2026-04-25T09:02:31.111Z</time></trkpt><trkpt lat="40.8858033" lon="14.7180283"><ele>515.0</ele><time>2026-04-25T09:02:32.111Z</time></trkpt><trkpt lat="40.8858483" lon="14.71787"><ele>515.0</ele><time>2026-04-25T09:02:33.111Z</time></trkpt><trkpt lat="40.8858917" lon="14.717715"><ele>512.0</ele><time>2026-04-25T09:02:34.111Z</time></trkpt><trkpt lat="40.88594" lon="14.7175517"><ele>509.0</ele><time>2026-04-25T09:02:35.111Z</time></trkpt><trkpt lat="40.885995" lon="14.7173917"><ele>506.0</ele><time>2026-04-25T09:02:36.111Z</time></trkpt><trkpt lat="40.8860433" lon="14.7172267"><ele>503.0</ele><time>2026-04-25T09:02:37.111Z</time></trkpt><trkpt lat="40.886095" lon="14.71706"><ele>502.75</ele><time>2026-04-25T09:02:38.111Z</time></trkpt><trkpt lat="40.88615" lon="14.7168867"><ele>502.5</ele><time>2026-04-25T09:02:39.111Z</time></trkpt><trkpt lat="40.8861983" lon="14.7167233"><ele>502.25</ele><time>2026-04-25T09:02:40.111Z</time></trkpt><trkpt lat="40.8862467" lon="14.7165583"><ele>502.0</ele><time>2026-04-25T09:02:41.111Z</time></trkpt><trkpt lat="40.8862917" lon="14.7163983"><ele>502.0</ele><time>2026-04-25T09:02:42.111Z</time></trkpt><trkpt lat="40.8863383" lon="14.71625"><ele>502.0</ele><time>2026-04-25T09:02:43.111Z</time></trkpt><trkpt lat="40.8863883" lon="14.7161033"><ele>502.0</ele><time>2026-04-25T09:02:44.111Z</time></trkpt><trkpt lat="40.88644" lon="14.7159467"><ele>502.0</ele><time>2026-04-25T09:02:45.111Z</time></trkpt><trkpt lat="40.8864883" lon="14.7157917"><ele>502.40000000000003</ele><time>2026-04-25T09:02:46.111Z</time></trkpt><trkpt lat="40.8865317" lon="14.71564"><ele>502.80000000000007</ele><time>2026-04-25T09:02:47.111Z</time></trkpt><trkpt lat="40.88657" lon="14.715505"><ele>503.2</ele><time>2026-04-25T09:02:48.111Z</time></trkpt><trkpt lat="40.8866117" lon="14.71537"><ele>503.6</ele><time>2026-04-25T09:02:49.111Z</time></trkpt><trkpt lat="40.8866533" lon="14.7152467"><ele>504.0</ele><time>2026-04-25T09:02:50.111Z</time></trkpt><trkpt lat="40.8867033" lon="14.7151317"><ele>503.4</ele><time>2026-04-25T09:02:51.111Z</time></trkpt><trkpt lat="40.8867633" lon="14.7150217"><ele>502.79999999999995</ele><time>2026-04-25T09:02:52.111Z</time></trkpt><trkpt lat="40.8868317" lon="14.714915"><ele>502.20000000000005</ele><time>2026-04-25T09:02:53.111Z</time></trkpt><trkpt lat="40.8869033" lon="14.714805"><ele>501.6</ele><time>2026-04-25T09:02:54.111Z</time></trkpt><trkpt lat="40.8869683" lon="14.7146983"><ele>501.0</ele><time>2026-04-25T09:02:55.111Z</time></trkpt><trkpt lat="40.887035" lon="14.714615"><ele>501.0</ele><time>2026-04-25T09:02:56.111Z</time></trkpt><trkpt lat="40.8870883" lon="14.7145533"><ele>501.0</ele><time>2026-04-25T09:02:57.111Z</time></trkpt><trkpt lat="40.8871633" lon="14.7144733"><ele>501.0</ele><time>2026-04-25T09:02:59.111Z</time></trkpt><trkpt lat="40.88725" lon="14.7144567"><ele>501.0</ele><time>2026-04-25T09:03:02.111Z</time></trkpt><trkpt lat="40.8873517" lon="14.7145033"><ele>501.0</ele><time>2026-04-25T09:03:04.111Z</time></trkpt><trkpt lat="40.88743" lon="14.7145417"><ele>501.0</ele><time>2026-04-25T09:03:05.111Z</time></trkpt><trkpt lat="40.8875317" lon="14.7145733"><ele>499.75</ele><time>2026-04-25T09:03:06.111Z</time></trkpt><trkpt lat="40.8876517" lon="14.714595"><ele>498.5</ele><time>2026-04-25T09:03:07.111Z</time></trkpt><trkpt lat="40.8877717" lon="14.7146183"><ele>497.25</ele><time>2026-04-25T09:03:08.111Z</time></trkpt><trkpt lat="40.8879183" lon="14.7146467"><ele>496.0</ele><time>2026-04-25T09:03:09.111Z</time></trkpt><trkpt lat="40.8880833" lon="14.714675"><ele>496.0</ele><time>2026-04-25T09:03:10.112Z</time></trkpt><trkpt lat="40.8882567" lon="14.7147033"><ele>496.0</ele><time>2026-04-25T09:03:11.111Z</time></trkpt><trkpt lat="40.88843" lon="14.7147317"><ele>496.0</ele><time>2026-04-25T09:03:12.111Z</time></trkpt><trkpt lat="40.8886133" lon="14.71476"><ele>496.33333333333337</ele><time>2026-04-25T09:03:13.112Z</time></trkpt><trkpt lat="40.88879" lon="14.7147867"><ele>496.66666666666663</ele><time>2026-04-25T09:03:14.111Z</time></trkpt><trkpt lat="40.8889533" lon="14.714815"><ele>497.0</ele><time>2026-04-25T09:03:15.111Z</time></trkpt><trkpt lat="40.8891117" lon="14.71484"><ele>496.0</ele><time>2026-04-25T09:03:16.111Z</time></trkpt><trkpt lat="40.8892633" lon="14.7148617"><ele>495.0</ele><time>2026-04-25T09:03:17.111Z</time></trkpt><trkpt lat="40.8894183" lon="14.714885"><ele>494.0</ele><time>2026-04-25T09:03:18.111Z</time></trkpt><trkpt lat="40.88956" lon="14.71491"><ele>494.0</ele><time>2026-04-25T09:03:19.111Z</time></trkpt><trkpt lat="40.8896917" lon="14.7149317"><ele>494.0</ele><time>2026-04-25T09:03:20.111Z</time></trkpt><trkpt lat="40.889825" lon="14.71495"><ele>494.0</ele><time>2026-04-25T09:03:21.111Z</time></trkpt><trkpt lat="40.889965" lon="14.7149683"><ele>494.0</ele><time>2026-04-25T09:03:22.111Z</time></trkpt><trkpt lat="40.890105" lon="14.7149917"><ele>493.0</ele><time>2026-04-25T09:03:23.111Z</time></trkpt><trkpt lat="40.8902467" lon="14.7150183"><ele>492.0</ele><time>2026-04-25T09:03:24.111Z</time></trkpt><trkpt lat="40.890385" lon="14.7150467"><ele>491.0</ele><time>2026-04-25T09:03:25.112Z</time></trkpt><trkpt lat="40.890525" lon="14.7150833"><ele>490.0</ele><time>2026-04-25T09:03:26.111Z</time></trkpt><trkpt lat="40.8906583" lon="14.7151217"><ele>490.0</ele><time>2026-04-25T09:03:27.111Z</time></trkpt><trkpt lat="40.8907867" lon="14.7151667"><ele>490.0</ele><time>2026-04-25T09:03:28.112Z</time></trkpt><trkpt lat="40.89091" lon="14.7152167"><ele>490.0</ele><time>2026-04-25T09:03:29.111Z</time></trkpt><trkpt lat="40.8910267" lon="14.7152917"><ele>490.0</ele><time>2026-04-25T09:03:30.111Z</time></trkpt><trkpt lat="40.8911417" lon="14.71538"><ele>489.25</ele><time>2026-04-25T09:03:31.111Z</time></trkpt><trkpt lat="40.891255" lon="14.7154833"><ele>488.5</ele><time>2026-04-25T09:03:32.111Z</time></trkpt><trkpt lat="40.8913617" lon="14.715585"><ele>487.75</ele><time>2026-04-25T09:03:33.111Z</time></trkpt><trkpt lat="40.8914533" lon="14.715685"><ele>487.0</ele><time>2026-04-25T09:03:34.111Z</time></trkpt><trkpt lat="40.8915283" lon="14.7157783"><ele>487.00000000000006</ele><time>2026-04-25T09:03:35.111Z</time></trkpt><trkpt lat="40.8915917" lon="14.7158767"><ele>487.0</ele><time>2026-04-25T09:03:36.111Z</time></trkpt><trkpt lat="40.8916333" lon="14.7159717"><ele>487.0</ele><time>2026-04-25T09:03:37.111Z</time></trkpt><trkpt lat="40.8916633" lon="14.71606"><ele>487.0</ele><time>2026-04-25T09:03:38.111Z</time></trkpt><trkpt lat="40.89168" lon="14.7161567"><ele>487.00000000000006</ele><time>2026-04-25T09:03:39.111Z</time></trkpt><trkpt lat="40.8916967" lon="14.7162517"><ele>487.0</ele><time>2026-04-25T09:03:40.112Z</time></trkpt><trkpt lat="40.89172" lon="14.7163483"><ele>487.1666666666667</ele><time>2026-04-25T09:03:41.111Z</time></trkpt><trkpt lat="40.8917533" lon="14.716435"><ele>487.33333333333337</ele><time>2026-04-25T09:03:42.111Z</time></trkpt><trkpt lat="40.89178" lon="14.7165283"><ele>487.5</ele><time>2026-04-25T09:03:43.111Z</time></trkpt><trkpt lat="40.8917967" lon="14.7166383"><ele>487.66666666666663</ele><time>2026-04-25T09:03:44.111Z</time></trkpt><trkpt lat="40.8917917" lon="14.7167717"><ele>487.8333333333333</ele><time>2026-04-25T09:03:45.111Z</time></trkpt><trkpt lat="40.8917817" lon="14.71691"><ele>488.0</ele><time>2026-04-25T09:03:46.111Z</time></trkpt><trkpt lat="40.891765" lon="14.7170733"><ele>486.75</ele><time>2026-04-25T09:03:47.111Z</time></trkpt><trkpt lat="40.891745" lon="14.71726"><ele>485.5</ele><time>2026-04-25T09:03:48.111Z</time></trkpt><trkpt lat="40.8917283" lon="14.717445"><ele>484.25</ele><time>2026-04-25T09:03:49.111Z</time></trkpt><trkpt lat="40.89171" lon="14.7176317"><ele>483.0</ele><time>2026-04-25T09:03:50.111Z</time></trkpt><trkpt lat="40.8916867" lon="14.7178067"><ele>481.75</ele><time>2026-04-25T09:03:51.111Z</time></trkpt><trkpt lat="40.891665" lon="14.7179817"><ele>480.5</ele><time>2026-04-25T09:03:52.111Z</time></trkpt><trkpt lat="40.891645" lon="14.718135"><ele>479.25</ele><time>2026-04-25T09:03:53.111Z</time></trkpt><trkpt lat="40.891625" lon="14.718285"><ele>478.0</ele><time>2026-04-25T09:03:54.111Z</time></trkpt><trkpt lat="40.891605" lon="14.71844"><ele>477.25</ele><time>2026-04-25T09:03:55.111Z</time></trkpt><trkpt lat="40.8915767" lon="14.7185967"><ele>476.5</ele><time>2026-04-25T09:03:56.111Z</time></trkpt><trkpt lat="40.8915567" lon="14.7187533"><ele>475.75</ele><time>2026-04-25T09:03:57.111Z</time></trkpt><trkpt lat="40.89154" lon="14.7189067"><ele>475.0</ele><time>2026-04-25T09:03:58.111Z</time></trkpt><trkpt lat="40.8915233" lon="14.7190583"><ele>475.0</ele><time>2026-04-25T09:03:59.111Z</time></trkpt><trkpt lat="40.8915117" lon="14.719205"><ele>475.0</ele><time>2026-04-25T09:04:00.111Z</time></trkpt><trkpt lat="40.8915067" lon="14.71934"><ele>475.0</ele><time>2026-04-25T09:04:01.111Z</time></trkpt><trkpt lat="40.8915083" lon="14.7194633"><ele>475.0</ele><time>2026-04-25T09:04:02.111Z</time></trkpt><trkpt lat="40.8915117" lon="14.7195817"><ele>475.0</ele><time>2026-04-25T09:04:03.111Z</time></trkpt><trkpt lat="40.8915167" lon="14.7196967"><ele>474.6</ele><time>2026-04-25T09:04:04.111Z</time></trkpt><trkpt lat="40.891525" lon="14.719825"><ele>474.2</ele><time>2026-04-25T09:04:05.111Z</time></trkpt><trkpt lat="40.891535" lon="14.71996"><ele>473.79999999999995</ele><time>2026-04-25T09:04:06.111Z</time></trkpt><trkpt lat="40.891545" lon="14.7201067"><ele>473.4</ele><time>2026-04-25T09:04:07.111Z</time></trkpt><trkpt lat="40.891555" lon="14.720255"><ele>473.0</ele><time>2026-04-25T09:04:08.111Z</time></trkpt><trkpt lat="40.8915683" lon="14.7204033"><ele>472.5</ele><time>2026-04-25T09:04:09.111Z</time></trkpt><trkpt lat="40.8915767" lon="14.72055"><ele>472.0</ele><time>2026-04-25T09:04:10.111Z</time></trkpt><trkpt lat="40.8915867" lon="14.7207"><ele>471.5</ele><time>2026-04-25T09:04:11.111Z</time></trkpt><trkpt lat="40.8915967" lon="14.7208483"><ele>471.0</ele><time>2026-04-25T09:04:12.111Z</time></trkpt><trkpt lat="40.8916083" lon="14.721"><ele>470.0</ele><time>2026-04-25T09:04:13.112Z</time></trkpt><trkpt lat="40.8916167" lon="14.72116"><ele>469.0</ele><time>2026-04-25T09:04:14.111Z</time></trkpt><trkpt lat="40.89163" lon="14.7213267"><ele>468.0</ele><time>2026-04-25T09:04:15.111Z</time></trkpt><trkpt lat="40.8916467" lon="14.7214933"><ele>467.0</ele><time>2026-04-25T09:04:16.111Z</time></trkpt><trkpt lat="40.8916567" lon="14.7216683"><ele>467.0</ele><time>2026-04-25T09:04:17.111Z</time></trkpt><trkpt lat="40.8916667" lon="14.72185"><ele>467.0</ele><time>2026-04-25T09:04:18.111Z</time></trkpt><trkpt lat="40.89168" lon="14.72203"><ele>467.0</ele><time>2026-04-25T09:04:19.111Z</time></trkpt><trkpt lat="40.8916917" lon="14.722205"><ele>467.0</ele><time>2026-04-25T09:04:20.111Z</time></trkpt><trkpt lat="40.8917017" lon="14.7223767"><ele>466.25</ele><time>2026-04-25T09:04:21.111Z</time></trkpt><trkpt lat="40.8917117" lon="14.72254"><ele>465.5</ele><time>2026-04-25T09:04:22.111Z</time></trkpt><trkpt lat="40.89172" lon="14.72271"><ele>464.75</ele><time>2026-04-25T09:04:23.112Z</time></trkpt><trkpt lat="40.8917267" lon="14.7228733"><ele>464.0</ele><time>2026-04-25T09:04:24.111Z</time></trkpt><trkpt lat="40.89173" lon="14.723045"><ele>463.25</ele><time>2026-04-25T09:04:25.111Z</time></trkpt><trkpt lat="40.8917367" lon="14.7232117"><ele>462.5</ele><time>2026-04-25T09:04:26.111Z</time></trkpt><trkpt lat="40.8917367" lon="14.7233833"><ele>461.75</ele><time>2026-04-25T09:04:27.111Z</time></trkpt><trkpt lat="40.8917383" lon="14.7235667"><ele>461.0</ele><time>2026-04-25T09:04:28.111Z</time></trkpt><trkpt lat="40.8917417" lon="14.7237617"><ele>461.0</ele><time>2026-04-25T09:04:29.111Z</time></trkpt><trkpt lat="40.8917467" lon="14.7239567"><ele>461.0</ele><time>2026-04-25T09:04:30.112Z</time></trkpt><trkpt lat="40.89175" lon="14.7241517"><ele>461.0</ele><time>2026-04-25T09:04:31.111Z</time></trkpt><trkpt lat="40.8917617" lon="14.724335"><ele>461.0</ele><time>2026-04-25T09:04:32.111Z</time></trkpt><trkpt lat="40.8917717" lon="14.7245183"><ele>460.25</ele><time>2026-04-25T09:04:33.111Z</time></trkpt><trkpt lat="40.8917817" lon="14.7247"><ele>459.5</ele><time>2026-04-25T09:04:34.111Z</time></trkpt><trkpt lat="40.8917917" lon="14.72488"><ele>458.75</ele><time>2026-04-25T09:04:35.111Z</time></trkpt><trkpt lat="40.8918083" lon="14.7250583"><ele>458.0</ele><time>2026-04-25T09:04:36.111Z</time></trkpt><trkpt lat="40.8918267" lon="14.72523"><ele>457.25</ele><time>2026-04-25T09:04:37.111Z</time></trkpt><trkpt lat="40.8918517" lon="14.7254067"><ele>456.5</ele><time>2026-04-25T09:04:38.112Z</time></trkpt><trkpt lat="40.8918883" lon="14.72558"><ele>455.75</ele><time>2026-04-25T09:04:39.111Z</time></trkpt><trkpt lat="40.8919283" lon="14.7257433"><ele>455.0</ele><time>2026-04-25T09:04:40.111Z</time></trkpt><trkpt lat="40.8919733" lon="14.7258967"><ele>455.0</ele><time>2026-04-25T09:04:41.111Z</time></trkpt><trkpt lat="40.8920217" lon="14.726045"><ele>455.0</ele><time>2026-04-25T09:04:42.111Z</time></trkpt><trkpt lat="40.8920733" lon="14.7261883"><ele>455.0</ele><time>2026-04-25T09:04:43.111Z</time></trkpt><trkpt lat="40.8921233" lon="14.72633"><ele>455.0</ele><time>2026-04-25T09:04:44.111Z</time></trkpt><trkpt lat="40.892185" lon="14.7264633"><ele>454.6</ele><time>2026-04-25T09:04:45.111Z</time></trkpt><trkpt lat="40.8922417" lon="14.726595"><ele>454.2</ele><time>2026-04-25T09:04:46.111Z</time></trkpt><trkpt lat="40.8923" lon="14.7267267"><ele>453.79999999999995</ele><time>2026-04-25T09:04:47.111Z</time></trkpt><trkpt lat="40.89236" lon="14.726855"><ele>453.4</ele><time>2026-04-25T09:04:48.111Z</time></trkpt><trkpt lat="40.8924133" lon="14.7269683"><ele>453.0</ele><time>2026-04-25T09:04:49.111Z</time></trkpt><trkpt lat="40.8924667" lon="14.7270783"><ele>452.59999999999997</ele><time>2026-04-25T09:04:50.111Z</time></trkpt><trkpt lat="40.8925183" lon="14.727185"><ele>452.19999999999993</ele><time>2026-04-25T09:04:51.111Z</time></trkpt><trkpt lat="40.8925683" lon="14.7272967"><ele>451.8</ele><time>2026-04-25T09:04:52.111Z</time></trkpt><trkpt lat="40.8926267" lon="14.7274183"><ele>451.4</ele><time>2026-04-25T09:04:53.111Z</time></trkpt><trkpt lat="40.8926867" lon="14.7275467"><ele>451.0</ele><time>2026-04-25T09:04:54.111Z</time></trkpt><trkpt lat="40.89275" lon="14.7276717"><ele>450.5</ele><time>2026-04-25T09:04:55.111Z</time></trkpt><trkpt lat="40.8928067" lon="14.7278"><ele>450.0</ele><time>2026-04-25T09:04:56.111Z</time></trkpt><trkpt lat="40.892865" lon="14.727935"><ele>449.5</ele><time>2026-04-25T09:04:57.111Z</time></trkpt><trkpt lat="40.8929233" lon="14.7280667"><ele>449.0</ele><time>2026-04-25T09:04:58.111Z</time></trkpt><trkpt lat="40.8929817" lon="14.7281883"><ele>449.0</ele><time>2026-04-25T09:04:59.111Z</time></trkpt><trkpt lat="40.893035" lon="14.7283133"><ele>449.0</ele><time>2026-04-25T09:05:00.111Z</time></trkpt><trkpt lat="40.89309" lon="14.7284317"><ele>449.0</ele><time>2026-04-25T09:05:01.111Z</time></trkpt><trkpt lat="40.8931333" lon="14.728555"><ele>449.0</ele><time>2026-04-25T09:05:02.111Z</time></trkpt><trkpt lat="40.8931867" lon="14.7286683"><ele>449.0</ele><time>2026-04-25T09:05:03.111Z</time></trkpt><trkpt lat="40.89324" lon="14.728785"><ele>448.25</ele><time>2026-04-25T09:05:04.112Z</time></trkpt><trkpt lat="40.8932967" lon="14.7289167"><ele>447.5</ele><time>2026-04-25T09:05:05.111Z</time></trkpt><trkpt lat="40.8933583" lon="14.729045"><ele>446.75</ele><time>2026-04-25T09:05:06.111Z</time></trkpt><trkpt lat="40.893425" lon="14.72918"><ele>446.0</ele><time>2026-04-25T09:05:07.111Z</time></trkpt><trkpt lat="40.8934883" lon="14.729315"><ele>445.25</ele><time>2026-04-25T09:05:08.111Z</time></trkpt><trkpt lat="40.8935517" lon="14.729445"><ele>444.5</ele><time>2026-04-25T09:05:09.111Z</time></trkpt><trkpt lat="40.893615" lon="14.7295817"><ele>443.75</ele><time>2026-04-25T09:05:10.111Z</time></trkpt><trkpt lat="40.8936817" lon="14.7297267"><ele>443.0</ele><time>2026-04-25T09:05:11.111Z</time></trkpt><trkpt lat="40.8937433" lon="14.7298733"><ele>443.0</ele><time>2026-04-25T09:05:12.111Z</time></trkpt><trkpt lat="40.8938083" lon="14.7300117"><ele>442.99999999999994</ele><time>2026-04-25T09:05:13.111Z</time></trkpt><trkpt lat="40.8938633" lon="14.73014"><ele>442.99999999999994</ele><time>2026-04-25T09:05:14.111Z</time></trkpt><trkpt lat="40.8939083" lon="14.7302683"><ele>443.0</ele><time>2026-04-25T09:05:15.111Z</time></trkpt><trkpt lat="40.893955" lon="14.7303933"><ele>443.0</ele><time>2026-04-25T09:05:16.111Z</time></trkpt><trkpt lat="40.8940083" lon="14.73052"><ele>442.5</ele><time>2026-04-25T09:05:17.112Z</time></trkpt><trkpt lat="40.89407" lon="14.7306533"><ele>442.0</ele><time>2026-04-25T09:05:18.111Z</time></trkpt><trkpt lat="40.8941267" lon="14.7307933"><ele>441.5</ele><time>2026-04-25T09:05:19.111Z</time></trkpt><trkpt lat="40.8941817" lon="14.7309417"><ele>441.0</ele><time>2026-04-25T09:05:20.112Z</time></trkpt><trkpt lat="40.8942417" lon="14.7310867"><ele>440.75</ele><time>2026-04-25T09:05:21.111Z</time></trkpt><trkpt lat="40.8943017" lon="14.7312167"><ele>440.5</ele><time>2026-04-25T09:05:22.112Z</time></trkpt><trkpt lat="40.8943567" lon="14.7313417"><ele>440.25</ele><time>2026-04-25T09:05:23.111Z</time></trkpt><trkpt lat="40.8944183" lon="14.731475"><ele>440.0</ele><time>2026-04-25T09:05:24.111Z</time></trkpt><trkpt lat="40.89447" lon="14.73161"><ele>440.0</ele><time>2026-04-25T09:05:25.111Z</time></trkpt><trkpt lat="40.8945183" lon="14.7317483"><ele>440.0</ele><time>2026-04-25T09:05:26.111Z</time></trkpt><trkpt lat="40.8945733" lon="14.7318867"><ele>440.0</ele><time>2026-04-25T09:05:27.111Z</time></trkpt><trkpt lat="40.8946383" lon="14.7320333"><ele>440.0</ele><time>2026-04-25T09:05:28.111Z</time></trkpt><trkpt lat="40.8947" lon="14.732185"><ele>439.5</ele><time>2026-04-25T09:05:29.111Z</time></trkpt><trkpt lat="40.8947633" lon="14.732335"><ele>439.0</ele><time>2026-04-25T09:05:30.111Z</time></trkpt><trkpt lat="40.8948217" lon="14.7324867"><ele>438.5</ele><time>2026-04-25T09:05:31.111Z</time></trkpt><trkpt lat="40.8948833" lon="14.7326167"><ele>438.0</ele><time>2026-04-25T09:05:32.111Z</time></trkpt><trkpt lat="40.8949433" lon="14.7327517"><ele>438.25</ele><time>2026-04-25T09:05:33.111Z</time></trkpt><trkpt lat="40.8950017" lon="14.73289"><ele>438.5</ele><time>2026-04-25T09:05:34.111Z</time></trkpt><trkpt lat="40.8950617" lon="14.733035"><ele>438.75</ele><time>2026-04-25T09:05:35.111Z</time></trkpt><trkpt lat="40.8951217" lon="14.7331867"><ele>439.0</ele><time>2026-04-25T09:05:36.111Z</time></trkpt><trkpt lat="40.895185" lon="14.73335"><ele>439.0</ele><time>2026-04-25T09:05:37.111Z</time></trkpt><trkpt lat="40.895255" lon="14.7335083"><ele>439.0</ele><time>2026-04-25T09:05:38.111Z</time></trkpt><trkpt lat="40.89533" lon="14.7336717"><ele>439.0</ele><time>2026-04-25T09:05:39.111Z</time></trkpt><trkpt lat="40.8954017" lon="14.7338367"><ele>439.0</ele><time>2026-04-25T09:05:40.111Z</time></trkpt><trkpt lat="40.89547" lon="14.7340067"><ele>438.33333333333337</ele><time>2026-04-25T09:05:41.111Z</time></trkpt><trkpt lat="40.895545" lon="14.7341817"><ele>437.66666666666663</ele><time>2026-04-25T09:05:42.111Z</time></trkpt><trkpt lat="40.8956167" lon="14.7343617"><ele>437.0</ele><time>2026-04-25T09:05:43.111Z</time></trkpt><trkpt lat="40.8956883" lon="14.7345317"><ele>436.0</ele><time>2026-04-25T09:05:44.111Z</time></trkpt><trkpt lat="40.89576" lon="14.7347083"><ele>435.0</ele><time>2026-04-25T09:05:45.111Z</time></trkpt><trkpt lat="40.8958333" lon="14.734875"><ele>434.0</ele><time>2026-04-25T09:05:46.111Z</time></trkpt><trkpt lat="40.8959117" lon="14.7350433"><ele>433.0</ele><time>2026-04-25T09:05:47.111Z</time></trkpt><trkpt lat="40.8959917" lon="14.7352083"><ele>434.25</ele><time>2026-04-25T09:05:48.111Z</time></trkpt><trkpt lat="40.896075" lon="14.7353683"><ele>435.5</ele><time>2026-04-25T09:05:49.111Z</time></trkpt><trkpt lat="40.8961583" lon="14.7355233"><ele>436.75</ele><time>2026-04-25T09:05:50.111Z</time></trkpt><trkpt lat="40.8962517" lon="14.7356767"><ele>438.0</ele><time>2026-04-25T09:05:51.111Z</time></trkpt><trkpt lat="40.8963483" lon="14.7358233"><ele>438.0</ele><time>2026-04-25T09:05:52.111Z</time></trkpt><trkpt lat="40.89645" lon="14.7359617"><ele>438.0</ele><time>2026-04-25T09:05:53.111Z</time></trkpt><trkpt lat="40.89656" lon="14.7360983"><ele>438.0</ele><time>2026-04-25T09:05:54.111Z</time></trkpt><trkpt lat="40.8966767" lon="14.736235"><ele>437.0</ele><time>2026-04-25T09:05:55.111Z</time></trkpt><trkpt lat="40.89679" lon="14.7363633"><ele>436.0</ele><time>2026-04-25T09:05:56.111Z</time></trkpt><trkpt lat="40.8968983" lon="14.7364767"><ele>435.0</ele><time>2026-04-25T09:05:57.111Z</time></trkpt><trkpt lat="40.8970033" lon="14.7365817"><ele>434.0</ele><time>2026-04-25T09:05:58.111Z</time></trkpt><trkpt lat="40.8971033" lon="14.7366867"><ele>434.0</ele><time>2026-04-25T09:05:59.111Z</time></trkpt><trkpt lat="40.8972017" lon="14.7367867"><ele>434.0</ele><time>2026-04-25T09:06:00.111Z</time></trkpt><trkpt lat="40.8973017" lon="14.7368883"><ele>434.0</ele><time>2026-04-25T09:06:01.111Z</time></trkpt><trkpt lat="40.8974" lon="14.7369883"><ele>434.0</ele><time>2026-04-25T09:06:02.111Z</time></trkpt><trkpt lat="40.8975017" lon="14.7370983"><ele>433.0</ele><time>2026-04-25T09:06:03.111Z</time></trkpt><trkpt lat="40.8976083" lon="14.7372083"><ele>432.0</ele><time>2026-04-25T09:06:04.111Z</time></trkpt><trkpt lat="40.8977133" lon="14.7373133"><ele>431.0</ele><time>2026-04-25T09:06:05.111Z</time></trkpt><trkpt lat="40.8978183" lon="14.7374217"><ele>430.0</ele><time>2026-04-25T09:06:06.111Z</time></trkpt><trkpt lat="40.89792" lon="14.737525"><ele>430.0</ele><time>2026-04-25T09:06:07.111Z</time></trkpt><trkpt lat="40.8980217" lon="14.7376183"><ele>430.0</ele><time>2026-04-25T09:06:08.111Z</time></trkpt><trkpt lat="40.8981167" lon="14.73772"><ele>430.0</ele><time>2026-04-25T09:06:09.112Z</time></trkpt><trkpt lat="40.8982083" lon="14.73782"><ele>430.0</ele><time>2026-04-25T09:06:10.111Z</time></trkpt><trkpt lat="40.8983067" lon="14.737925"><ele>429.8</ele><time>2026-04-25T09:06:11.112Z</time></trkpt><trkpt lat="40.8983983" lon="14.73802"><ele>429.6</ele><time>2026-04-25T09:06:12.111Z</time></trkpt><trkpt lat="40.8984833" lon="14.738105"><ele>429.4</ele><time>2026-04-25T09:06:13.111Z</time></trkpt><trkpt lat="40.89855" lon="14.7381717"><ele>429.2</ele><time>2026-04-25T09:06:14.111Z</time></trkpt><trkpt lat="40.8986083" lon="14.7382283"><ele>429.0</ele><time>2026-04-25T09:06:15.111Z</time></trkpt><trkpt lat="40.8987083" lon="14.7383017"><ele>429.0</ele><time>2026-04-25T09:06:17.111Z</time></trkpt><trkpt lat="40.8988067" lon="14.7383783"><ele>429.0</ele><time>2026-04-25T09:06:19.111Z</time></trkpt><trkpt lat="40.8988717" lon="14.7384317"><ele>429.0</ele><time>2026-04-25T09:06:20.111Z</time></trkpt><trkpt lat="40.898945" lon="14.7385067"><ele>429.0</ele><time>2026-04-25T09:06:21.111Z</time></trkpt><trkpt lat="40.8990267" lon="14.73859"><ele>429.0</ele><time>2026-04-25T09:06:22.111Z</time></trkpt><trkpt lat="40.8991117" lon="14.738675"><ele>428.6</ele><time>2026-04-25T09:06:23.111Z</time></trkpt><trkpt lat="40.89919" lon="14.7387567"><ele>428.2</ele><time>2026-04-25T09:06:24.111Z</time></trkpt><trkpt lat="40.8992633" lon="14.7388383"><ele>427.80000000000007</ele><time>2026-04-25T09:06:25.111Z</time></trkpt><trkpt lat="40.8993533" lon="14.7389217"><ele>427.40000000000003</ele><time>2026-04-25T09:06:26.111Z</time></trkpt><trkpt lat="40.899445" lon="14.739015"><ele>427.0</ele><time>2026-04-25T09:06:27.111Z</time></trkpt><trkpt lat="40.899545" lon="14.739115"><ele>427.0</ele><time>2026-04-25T09:06:28.111Z</time></trkpt><trkpt lat="40.8996483" lon="14.7392167"><ele>427.0</ele><time>2026-04-25T09:06:29.111Z</time></trkpt><trkpt lat="40.8997533" lon="14.7393117"><ele>427.0</ele><time>2026-04-25T09:06:30.111Z</time></trkpt><trkpt lat="40.8998633" lon="14.73941"><ele>427.0</ele><time>2026-04-25T09:06:31.112Z</time></trkpt><trkpt lat="40.8999733" lon="14.739505"><ele>426.25</ele><time>2026-04-25T09:06:32.111Z</time></trkpt><trkpt lat="40.9000717" lon="14.7395983"><ele>425.5</ele><time>2026-04-25T09:06:33.111Z</time></trkpt><trkpt lat="40.90017" lon="14.73969"><ele>424.75</ele><time>2026-04-25T09:06:34.111Z</time></trkpt><trkpt lat="40.9002667" lon="14.7397767"><ele>424.0</ele><time>2026-04-25T09:06:35.111Z</time></trkpt><trkpt lat="40.90035" lon="14.7398583"><ele>423.79999999999995</ele><time>2026-04-25T09:06:36.111Z</time></trkpt><trkpt lat="40.90043" lon="14.7399433"><ele>423.59999999999997</ele><time>2026-04-25T09:06:37.111Z</time></trkpt><trkpt lat="40.9005117" lon="14.74002"><ele>423.4</ele><time>2026-04-25T09:06:38.111Z</time></trkpt><trkpt lat="40.9005867" lon="14.7400983"><ele>423.2</ele><time>2026-04-25T09:06:39.111Z</time></trkpt><trkpt lat="40.90066" lon="14.740165"><ele>423.0</ele><time>2026-04-25T09:06:40.111Z</time></trkpt><trkpt lat="40.90073" lon="14.7402317"><ele>422.5</ele><time>2026-04-25T09:06:41.111Z</time></trkpt><trkpt lat="40.900805" lon="14.740305"><ele>422.0</ele><time>2026-04-25T09:06:42.111Z</time></trkpt><trkpt lat="40.9008767" lon="14.7403733"><ele>421.5</ele><time>2026-04-25T09:06:43.111Z</time></trkpt><trkpt lat="40.900945" lon="14.7404317"><ele>421.0</ele><time>2026-04-25T09:06:44.111Z</time></trkpt><trkpt lat="40.901005" lon="14.74048"><ele>420.5</ele><time>2026-04-25T09:06:45.111Z</time></trkpt><trkpt lat="40.9010967" lon="14.7405717"><ele>420.0</ele><time>2026-04-25T09:06:47.111Z</time></trkpt><trkpt lat="40.9011783" lon="14.7406417"><ele>419.6</ele><time>2026-04-25T09:06:49.111Z</time></trkpt><trkpt lat="40.9012533" lon="14.7407083"><ele>419.2</ele><time>2026-04-25T09:06:51.111Z</time></trkpt><trkpt lat="40.9013483" lon="14.740795"><ele>418.79999999999995</ele><time>2026-04-25T09:06:53.111Z</time></trkpt><trkpt lat="40.901445" lon="14.74089"><ele>418.4</ele><time>2026-04-25T09:06:55.111Z</time></trkpt><trkpt lat="40.9014967" lon="14.74094"><ele>418.0</ele><time>2026-04-25T09:06:56.111Z</time></trkpt><trkpt lat="40.90155" lon="14.74099"><ele>417.50000000000006</ele><time>2026-04-25T09:06:57.111Z</time></trkpt><trkpt lat="40.901655" lon="14.7410883"><ele>417.0</ele><time>2026-04-25T09:06:59.111Z</time></trkpt><trkpt lat="40.9017083" lon="14.7411417"><ele>416.5</ele><time>2026-04-25T09:07:00.111Z</time></trkpt><trkpt lat="40.90177" lon="14.741195"><ele>416.0</ele><time>2026-04-25T09:07:01.111Z</time></trkpt><trkpt lat="40.90183" lon="14.741245"><ele>415.50000000000006</ele><time>2026-04-25T09:07:02.111Z</time></trkpt><trkpt lat="40.9018933" lon="14.7412983"><ele>415.0</ele><time>2026-04-25T09:07:03.111Z</time></trkpt><trkpt lat="40.9019617" lon="14.74136"><ele>415.0</ele><time>2026-04-25T09:07:04.111Z</time></trkpt><trkpt lat="40.9020283" lon="14.7414333"><ele>415.0</ele><time>2026-04-25T09:07:05.111Z</time></trkpt><trkpt lat="40.9020917" lon="14.7415117"><ele>415.0</ele><time>2026-04-25T09:07:06.111Z</time></trkpt><trkpt lat="40.90217" lon="14.7415983"><ele>415.0</ele><time>2026-04-25T09:07:07.111Z</time></trkpt><trkpt lat="40.9022567" lon="14.7416767"><ele>415.0</ele><time>2026-04-25T09:07:08.111Z</time></trkpt><trkpt lat="40.9023433" lon="14.741755"><ele>415.0</ele><time>2026-04-25T09:07:09.111Z</time></trkpt><trkpt lat="40.9024267" lon="14.7418317"><ele>415.0</ele><time>2026-04-25T09:07:10.111Z</time></trkpt><trkpt lat="40.9025033" lon="14.74191"><ele>415.0</ele><time>2026-04-25T09:07:11.111Z</time></trkpt><trkpt lat="40.9025833" lon="14.7419883"><ele>415.0</ele><time>2026-04-25T09:07:12.111Z</time></trkpt><trkpt lat="40.9026533" lon="14.7420733"><ele>415.0</ele><time>2026-04-25T09:07:13.111Z</time></trkpt><trkpt lat="40.9027283" lon="14.74216"><ele>414.4</ele><time>2026-04-25T09:07:14.111Z</time></trkpt><trkpt lat="40.9028167" lon="14.7422317"><ele>413.8</ele><time>2026-04-25T09:07:15.111Z</time></trkpt><trkpt lat="40.9029067" lon="14.7423167"><ele>413.20000000000005</ele><time>2026-04-25T09:07:16.111Z</time></trkpt><trkpt lat="40.9029933" lon="14.742395"><ele>412.6</ele><time>2026-04-25T09:07:17.111Z</time></trkpt><trkpt lat="40.903085" lon="14.7424767"><ele>412.0</ele><time>2026-04-25T09:07:18.112Z</time></trkpt><trkpt lat="40.9031783" lon="14.7425683"><ele>412.0</ele><time>2026-04-25T09:07:19.111Z</time></trkpt><trkpt lat="40.90327" lon="14.7426617"><ele>412.0</ele><time>2026-04-25T09:07:20.111Z</time></trkpt><trkpt lat="40.90335" lon="14.7427467"><ele>412.0</ele><time>2026-04-25T09:07:21.111Z</time></trkpt><trkpt lat="40.9034317" lon="14.7428167"><ele>412.0</ele><time>2026-04-25T09:07:22.111Z</time></trkpt><trkpt lat="40.9034967" lon="14.742885"><ele>412.0</ele><time>2026-04-25T09:07:23.111Z</time></trkpt><trkpt lat="40.9035617" lon="14.742955"><ele>411.6666666666667</ele><time>2026-04-25T09:07:24.111Z</time></trkpt><trkpt lat="40.9036267" lon="14.74303"><ele>411.33333333333337</ele><time>2026-04-25T09:07:25.111Z</time></trkpt><trkpt lat="40.9036867" lon="14.7431033"><ele>411.0</ele><time>2026-04-25T09:07:26.111Z</time></trkpt><trkpt lat="40.90376" lon="14.743165"><ele>410.66666666666663</ele><time>2026-04-25T09:07:27.111Z</time></trkpt><trkpt lat="40.90383" lon="14.7432367"><ele>410.3333333333333</ele><time>2026-04-25T09:07:28.111Z</time></trkpt><trkpt lat="40.903895" lon="14.7433133"><ele>410.0</ele><time>2026-04-25T09:07:29.111Z</time></trkpt><trkpt lat="40.9039617" lon="14.743385"><ele>409.99999999999994</ele><time>2026-04-25T09:07:30.111Z</time></trkpt><trkpt lat="40.9040217" lon="14.7434517"><ele>410.0</ele><time>2026-04-25T09:07:31.111Z</time></trkpt><trkpt lat="40.904085" lon="14.7435133"><ele>410.0</ele><time>2026-04-25T09:07:32.111Z</time></trkpt><trkpt lat="40.9041467" lon="14.7435867"><ele>410.0</ele><time>2026-04-25T09:07:33.111Z</time></trkpt><trkpt lat="40.9042133" lon="14.7436683"><ele>409.99999999999994</ele><time>2026-04-25T09:07:34.111Z</time></trkpt><trkpt lat="40.9042867" lon="14.7437533"><ele>410.0</ele><time>2026-04-25T09:07:35.111Z</time></trkpt><trkpt lat="40.9043633" lon="14.7438533"><ele>409.5</ele><time>2026-04-25T09:07:36.111Z</time></trkpt><trkpt lat="40.904445" lon="14.7439633"><ele>409.0</ele><time>2026-04-25T09:07:37.112Z</time></trkpt><trkpt lat="40.90453" lon="14.744085"><ele>408.5</ele><time>2026-04-25T09:07:38.111Z</time></trkpt><trkpt lat="40.90461" lon="14.744215"><ele>408.0</ele><time>2026-04-25T09:07:39.111Z</time></trkpt><trkpt lat="40.9046933" lon="14.7443483"><ele>407.59999999999997</ele><time>2026-04-25T09:07:40.111Z</time></trkpt><trkpt lat="40.9047767" lon="14.7444783"><ele>407.2</ele><time>2026-04-25T09:07:41.111Z</time></trkpt><trkpt lat="40.9048517" lon="14.744595"><ele>406.8</ele><time>2026-04-25T09:07:42.111Z</time></trkpt><trkpt lat="40.9049183" lon="14.7447033"><ele>406.4</ele><time>2026-04-25T09:07:43.111Z</time></trkpt><trkpt lat="40.904975" lon="14.7448067"><ele>406.0</ele><time>2026-04-25T09:07:44.111Z</time></trkpt><trkpt lat="40.9050317" lon="14.7449033"><ele>406.0</ele><time>2026-04-25T09:07:45.111Z</time></trkpt><trkpt lat="40.9050933" lon="14.7450067"><ele>406.0</ele><time>2026-04-25T09:07:46.111Z</time></trkpt><trkpt lat="40.9051533" lon="14.7451067"><ele>406.0</ele><time>2026-04-25T09:07:47.111Z</time></trkpt><trkpt lat="40.9052133" lon="14.7451983"><ele>406.0</ele><time>2026-04-25T09:07:48.111Z</time></trkpt><trkpt lat="40.9052683" lon="14.745285"><ele>406.0</ele><time>2026-04-25T09:07:49.112Z</time></trkpt><trkpt lat="40.9053333" lon="14.7453817"><ele>406.0</ele><time>2026-04-25T09:07:50.111Z</time></trkpt><trkpt lat="40.9053883" lon="14.745475"><ele>406.0</ele><time>2026-04-25T09:07:51.111Z</time></trkpt><trkpt lat="40.9054467" lon="14.7455767"><ele>406.0</ele><time>2026-04-25T09:07:52.112Z</time></trkpt><trkpt lat="40.9055083" lon="14.745675"><ele>406.0</ele><time>2026-04-25T09:07:53.111Z</time></trkpt><trkpt lat="40.90557" lon="14.745775"><ele>406.0</ele><time>2026-04-25T09:07:54.111Z</time></trkpt><trkpt lat="40.9056317" lon="14.7458817"><ele>406.0</ele><time>2026-04-25T09:07:55.111Z</time></trkpt><trkpt lat="40.9056883" lon="14.745985"><ele>406.0</ele><time>2026-04-25T09:07:56.111Z</time></trkpt><trkpt lat="40.9057433" lon="14.7460933"><ele>406.0</ele><time>2026-04-25T09:07:57.111Z</time></trkpt><trkpt lat="40.9058067" lon="14.7462017"><ele>406.0</ele><time>2026-04-25T09:07:58.111Z</time></trkpt><trkpt lat="40.9058667" lon="14.7463"><ele>406.0</ele><time>2026-04-25T09:07:59.111Z</time></trkpt><trkpt lat="40.9059233" lon="14.7463867"><ele>406.00000000000006</ele><time>2026-04-25T09:08:00.111Z</time></trkpt><trkpt lat="40.9059767" lon="14.7464683"><ele>406.0</ele><time>2026-04-25T09:08:01.111Z</time></trkpt><trkpt lat="40.9060317" lon="14.7465383"><ele>406.0</ele><time>2026-04-25T09:08:02.111Z</time></trkpt><trkpt lat="40.9060833" lon="14.74662"><ele>406.0</ele><time>2026-04-25T09:08:03.111Z</time></trkpt><trkpt lat="40.906135" lon="14.7467033"><ele>406.00000000000006</ele><time>2026-04-25T09:08:04.111Z</time></trkpt><trkpt lat="40.9061917" lon="14.7467883"><ele>406.0</ele><time>2026-04-25T09:08:05.111Z</time></trkpt><trkpt lat="40.9062517" lon="14.746875"><ele>405.83333333333337</ele><time>2026-04-25T09:08:06.111Z</time></trkpt><trkpt lat="40.906305" lon="14.7469667"><ele>405.6666666666667</ele><time>2026-04-25T09:08:07.111Z</time></trkpt><trkpt lat="40.906365" lon="14.7470533"><ele>405.5</ele><time>2026-04-25T09:08:08.111Z</time></trkpt><trkpt lat="40.90641" lon="14.74713"><ele>405.33333333333337</ele><time>2026-04-25T09:08:09.111Z</time></trkpt><trkpt lat="40.9064383" lon="14.747205"><ele>405.1666666666667</ele><time>2026-04-25T09:08:10.111Z</time></trkpt><trkpt lat="40.9064717" lon="14.7472767"><ele>405.0</ele><time>2026-04-25T09:08:11.112Z</time></trkpt><trkpt lat="40.9065333" lon="14.7474217"><ele>405.0</ele><time>2026-04-25T09:08:13.111Z</time></trkpt><trkpt lat="40.9065717" lon="14.747505"><ele>405.0</ele><time>2026-04-25T09:08:14.111Z</time></trkpt><trkpt lat="40.9066067" lon="14.7476033"><ele>405.0</ele><time>2026-04-25T09:08:15.111Z</time></trkpt><trkpt lat="40.9066383" lon="14.7476917"><ele>405.0</ele><time>2026-04-25T09:08:16.111Z</time></trkpt><trkpt lat="40.9066833" lon="14.7478117"><ele>405.0</ele><time>2026-04-25T09:08:18.111Z</time></trkpt><trkpt lat="40.9067183" lon="14.747925"><ele>405.0</ele><time>2026-04-25T09:08:21.111Z</time></trkpt><trkpt lat="40.9067683" lon="14.748055"><ele>405.0</ele><time>2026-04-25T09:08:23.111Z</time></trkpt><trkpt lat="40.906805" lon="14.74814"><ele>405.0</ele><time>2026-04-25T09:08:24.111Z</time></trkpt><trkpt lat="40.9068367" lon="14.74823"><ele>405.0</ele><time>2026-04-25T09:08:25.112Z</time></trkpt><trkpt lat="40.9068733" lon="14.74833"><ele>405.0</ele><time>2026-04-25T09:08:26.111Z</time></trkpt><trkpt lat="40.90692" lon="14.748435"><ele>405.0</ele><time>2026-04-25T09:08:27.111Z</time></trkpt><trkpt lat="40.906965" lon="14.7485383"><ele>405.0</ele><time>2026-04-25T09:08:28.111Z</time></trkpt><trkpt lat="40.9070083" lon="14.748625"><ele>405.0</ele><time>2026-04-25T09:08:29.111Z</time></trkpt><trkpt lat="40.9070617" lon="14.7487183"><ele>405.0</ele><time>2026-04-25T09:08:30.111Z</time></trkpt><trkpt lat="40.9070983" lon="14.748825"><ele>405.0</ele><time>2026-04-25T09:08:31.111Z</time></trkpt><trkpt lat="40.9071283" lon="14.7489517"><ele>405.0</ele><time>2026-04-25T09:08:32.111Z</time></trkpt><trkpt lat="40.9071517" lon="14.749095"><ele>405.0</ele><time>2026-04-25T09:08:33.111Z</time></trkpt><trkpt lat="40.9071717" lon="14.74924"><ele>405.0</ele><time>2026-04-25T09:08:34.111Z</time></trkpt><trkpt lat="40.90719" lon="14.749385"><ele>405.0</ele><time>2026-04-25T09:08:35.111Z</time></trkpt><trkpt lat="40.90721" lon="14.749525"><ele>405.0</ele><time>2026-04-25T09:08:36.112Z</time></trkpt><trkpt lat="40.90722" lon="14.74965"><ele>405.0</ele><time>2026-04-25T09:08:37.111Z</time></trkpt><trkpt lat="40.9072267" lon="14.7497617"><ele>405.0</ele><time>2026-04-25T09:08:38.111Z</time></trkpt><trkpt lat="40.9072367" lon="14.7498717"><ele>405.0</ele><time>2026-04-25T09:08:39.111Z</time></trkpt><trkpt lat="40.907245" lon="14.7499817"><ele>405.0</ele><time>2026-04-25T09:08:40.112Z</time></trkpt><trkpt lat="40.9072483" lon="14.7501083"><ele>405.0</ele><time>2026-04-25T09:08:41.111Z</time></trkpt><trkpt lat="40.90725" lon="14.7502333"><ele>405.0</ele><time>2026-04-25T09:08:42.111Z</time></trkpt><trkpt lat="40.9072483" lon="14.750355"><ele>405.0</ele><time>2026-04-25T09:08:43.111Z</time></trkpt><trkpt lat="40.9072467" lon="14.7504683"><ele>404.8</ele><time>2026-04-25T09:08:44.111Z</time></trkpt><trkpt lat="40.907245" lon="14.75057"><ele>404.6</ele><time>2026-04-25T09:08:45.111Z</time></trkpt><trkpt lat="40.9072433" lon="14.7506533"><ele>404.4</ele><time>2026-04-25T09:08:46.111Z</time></trkpt><trkpt lat="40.9072417" lon="14.7507867"><ele>404.2</ele><time>2026-04-25T09:08:48.112Z</time></trkpt><trkpt lat="40.9072383" lon="14.7509183"><ele>404.0</ele><time>2026-04-25T09:08:50.111Z</time></trkpt><trkpt lat="40.9072317" lon="14.7510633"><ele>403.99999999999994</ele><time>2026-04-25T09:08:52.111Z</time></trkpt><trkpt lat="40.907215" lon="14.7512133"><ele>404.0</ele><time>2026-04-25T09:08:54.111Z</time></trkpt><trkpt lat="40.9072183" lon="14.751315"><ele>404.0</ele><time>2026-04-25T09:08:56.111Z</time></trkpt><trkpt lat="40.90722" lon="14.75146"><ele>404.0</ele><time>2026-04-25T09:09:06.111Z</time></trkpt><trkpt lat="40.9072083" lon="14.7515483"><ele>403.99999999999994</ele><time>2026-04-25T09:09:08.111Z</time></trkpt><trkpt lat="40.907225" lon="14.7516433"><ele>404.0</ele><time>2026-04-25T09:09:13.111Z</time></trkpt><trkpt lat="40.90723" lon="14.75173"><ele>403.99999999999994</ele><time>2026-04-25T09:09:15.111Z</time></trkpt><trkpt lat="40.9072267" lon="14.7518633"><ele>404.0</ele><time>2026-04-25T09:09:17.111Z</time></trkpt><trkpt lat="40.9072217" lon="14.7519917"><ele>404.0</ele><time>2026-04-25T09:09:19.111Z</time></trkpt><trkpt lat="40.9072183" lon="14.7520983"><ele>404.0</ele><time>2026-04-25T09:09:21.111Z</time></trkpt><trkpt lat="40.90722" lon="14.7521883"><ele>403.99999999999994</ele><time>2026-04-25T09:09:23.111Z</time></trkpt><trkpt lat="40.9072133" lon="14.7522883"><ele>404.0</ele><time>2026-04-25T09:09:26.111Z</time></trkpt><trkpt lat="40.9072133" lon="14.7523733"><ele>403.66666666666663</ele><time>2026-04-25T09:09:29.111Z</time></trkpt><trkpt lat="40.9072117" lon="14.752475"><ele>403.3333333333333</ele><time>2026-04-25T09:09:33.111Z</time></trkpt><trkpt lat="40.9072067" lon="14.75256"><ele>403.0</ele><time>2026-04-25T09:09:35.111Z</time></trkpt><trkpt lat="40.9072083" lon="14.7526633"><ele>402.66666666666663</ele><time>2026-04-25T09:09:37.111Z</time></trkpt><trkpt lat="40.9072083" lon="14.7527567"><ele>402.3333333333333</ele><time>2026-04-25T09:09:39.111Z</time></trkpt><trkpt lat="40.9072117" lon="14.7528567"><ele>402.0</ele><time>2026-04-25T09:09:41.111Z</time></trkpt><trkpt lat="40.907215" lon="14.7529683"><ele>402.0</ele><time>2026-04-25T09:09:43.111Z</time></trkpt><trkpt lat="40.9072083" lon="14.7530733"><ele>402.0</ele><time>2026-04-25T09:09:45.111Z</time></trkpt><trkpt lat="40.9072083" lon="14.75319"><ele>402.0</ele><time>2026-04-25T09:09:48.111Z</time></trkpt><trkpt lat="40.9071917" lon="14.7533333"><ele>402.0</ele><time>2026-04-25T09:09:51.111Z</time></trkpt><trkpt lat="40.9071917" lon="14.7534717"><ele>402.0</ele><time>2026-04-25T09:09:53.111Z</time></trkpt><trkpt lat="40.9071883" lon="14.75361"><ele>402.1666666666667</ele><time>2026-04-25T09:09:55.111Z</time></trkpt><trkpt lat="40.9071867" lon="14.7537033"><ele>402.33333333333337</ele><time>2026-04-25T09:09:56.111Z</time></trkpt><trkpt lat="40.9071883" lon="14.7538033"><ele>402.5</ele><time>2026-04-25T09:09:57.111Z</time></trkpt><trkpt lat="40.90719" lon="14.753905"><ele>402.6666666666667</ele><time>2026-04-25T09:09:58.111Z</time></trkpt><trkpt lat="40.9071833" lon="14.754005"><ele>402.83333333333337</ele><time>2026-04-25T09:09:59.111Z</time></trkpt><trkpt lat="40.9071817" lon="14.7541067"><ele>403.0</ele><time>2026-04-25T09:10:00.111Z</time></trkpt><trkpt lat="40.9071833" lon="14.75421"><ele>403.00000000000006</ele><time>2026-04-25T09:10:01.111Z</time></trkpt><trkpt lat="40.9071817" lon="14.75431"><ele>403.0</ele><time>2026-04-25T09:10:02.111Z</time></trkpt><trkpt lat="40.9071817" lon="14.7543983"><ele>403.0</ele><time>2026-04-25T09:10:03.111Z</time></trkpt><trkpt lat="40.907185" lon="14.7545317"><ele>403.0</ele><time>2026-04-25T09:10:05.111Z</time></trkpt><trkpt lat="40.90718" lon="14.7546967"><ele>403.00000000000006</ele><time>2026-04-25T09:10:07.111Z</time></trkpt><trkpt lat="40.9071833" lon="14.7547833"><ele>403.0</ele><time>2026-04-25T09:10:08.111Z</time></trkpt><trkpt lat="40.9071733" lon="14.754925"><ele>403.00000000000006</ele><time>2026-04-25T09:10:10.111Z</time></trkpt><trkpt lat="40.9071717" lon="14.755055"><ele>403.0</ele><time>2026-04-25T09:10:12.111Z</time></trkpt><trkpt lat="40.90717" lon="14.755185"><ele>403.0</ele><time>2026-04-25T09:10:14.112Z</time></trkpt><trkpt lat="40.9071667" lon="14.75533"><ele>403.0</ele><time>2026-04-25T09:10:16.111Z</time></trkpt><trkpt lat="40.9071683" lon="14.7554167"><ele>403.00000000000006</ele><time>2026-04-25T09:10:17.111Z</time></trkpt><trkpt lat="40.9071683" lon="14.7555"><ele>403.0</ele><time>2026-04-25T09:10:18.111Z</time></trkpt><trkpt lat="40.907165" lon="14.75559"><ele>403.14285714285717</ele><time>2026-04-25T09:10:19.111Z</time></trkpt><trkpt lat="40.90716" lon="14.7556783"><ele>403.2857142857143</ele><time>2026-04-25T09:10:20.111Z</time></trkpt><trkpt lat="40.9071533" lon="14.7557683"><ele>403.42857142857144</ele><time>2026-04-25T09:10:21.111Z</time></trkpt><trkpt lat="40.90714" lon="14.75585"><ele>403.57142857142856</ele><time>2026-04-25T09:10:22.111Z</time></trkpt><trkpt lat="40.907145" lon="14.755935"><ele>403.71428571428567</ele><time>2026-04-25T09:10:23.111Z</time></trkpt><trkpt lat="40.9071567" lon="14.7560617"><ele>403.85714285714283</ele><time>2026-04-25T09:10:25.111Z</time></trkpt><trkpt lat="40.9071667" lon="14.7561667"><ele>404.0</ele><time>2026-04-25T09:10:27.111Z</time></trkpt><trkpt lat="40.9071683" lon="14.7562933"><ele>403.99999999999994</ele><time>2026-04-25T09:10:29.111Z</time></trkpt><trkpt lat="40.9071633" lon="14.7563933"><ele>404.0</ele><time>2026-04-25T09:10:31.111Z</time></trkpt><trkpt lat="40.90715" lon="14.7564933"><ele>404.0</ele><time>2026-04-25T09:10:34.111Z</time></trkpt><trkpt lat="40.90714" lon="14.7565767"><ele>404.0</ele><time>2026-04-25T09:10:36.111Z</time></trkpt><trkpt lat="40.90713" lon="14.7566717"><ele>403.99999999999994</ele><time>2026-04-25T09:10:38.112Z</time></trkpt><trkpt lat="40.907125" lon="14.7567967"><ele>404.0</ele><time>2026-04-25T09:10:40.111Z</time></trkpt><trkpt lat="40.9071067" lon="14.7569583"><ele>403.66666666666663</ele><time>2026-04-25T09:10:42.111Z</time></trkpt><trkpt lat="40.9071" lon="14.757045"><ele>403.3333333333333</ele><time>2026-04-25T09:10:43.111Z</time></trkpt><trkpt lat="40.9070917" lon="14.75713"><ele>403.0</ele><time>2026-04-25T09:10:44.111Z</time></trkpt><trkpt lat="40.9070767" lon="14.7572967"><ele>402.66666666666663</ele><time>2026-04-25T09:10:46.111Z</time></trkpt><trkpt lat="40.9070667" lon="14.75738"><ele>402.3333333333333</ele><time>2026-04-25T09:10:47.111Z</time></trkpt><trkpt lat="40.907055" lon="14.7574683"><ele>402.0</ele><time>2026-04-25T09:10:48.111Z</time></trkpt><trkpt lat="40.90704" lon="14.7575633"><ele>402.0</ele><time>2026-04-25T09:10:49.111Z</time></trkpt><trkpt lat="40.9070267" lon="14.7576583"><ele>402.0</ele><time>2026-04-25T09:10:50.111Z</time></trkpt><trkpt lat="40.9070167" lon="14.75775"><ele>402.0</ele><time>2026-04-25T09:10:51.112Z</time></trkpt><trkpt lat="40.9070067" lon="14.7578367"><ele>402.0</ele><time>2026-04-25T09:10:52.111Z</time></trkpt><trkpt lat="40.9069933" lon="14.7579867"><ele>402.0</ele><time>2026-04-25T09:10:54.111Z</time></trkpt><trkpt lat="40.906985" lon="14.758095"><ele>402.0</ele><time>2026-04-25T09:10:56.111Z</time></trkpt><trkpt lat="40.906985" lon="14.7582267"><ele>401.8</ele><time>2026-04-25T09:11:06.111Z</time></trkpt><trkpt lat="40.90708" lon="14.7582283"><ele>401.6</ele><time>2026-04-25T09:11:09.111Z</time></trkpt><trkpt lat="40.9071317" lon="14.7581367"><ele>401.40000000000003</ele><time>2026-04-25T09:11:11.111Z</time></trkpt><trkpt lat="40.90715" lon="14.7580067"><ele>401.20000000000005</ele><time>2026-04-25T09:11:13.111Z</time></trkpt><trkpt lat="40.9071633" lon="14.7578817"><ele>401.0</ele><time>2026-04-25T09:11:15.111Z</time></trkpt><trkpt lat="40.9071417" lon="14.75778"><ele>401.20000000000005</ele><time>2026-04-25T09:11:17.111Z</time></trkpt><trkpt lat="40.90707" lon="14.7576383"><ele>401.40000000000003</ele><time>2026-04-25T09:11:39.111Z</time></trkpt><trkpt lat="40.9070833" lon="14.7574817"><ele>401.6</ele><time>2026-04-25T09:11:41.111Z</time></trkpt><trkpt lat="40.9070967" lon="14.7573667"><ele>401.8</ele><time>2026-04-25T09:11:42.111Z</time></trkpt><trkpt lat="40.907105" lon="14.7572417"><ele>402.0</ele><time>2026-04-25T09:11:43.111Z</time></trkpt><trkpt lat="40.907115" lon="14.7571167"><ele>402.0</ele><time>2026-04-25T09:11:44.111Z</time></trkpt><trkpt lat="40.9071217" lon="14.7569983"><ele>402.0</ele><time>2026-04-25T09:11:45.111Z</time></trkpt><trkpt lat="40.9071367" lon="14.7568917"><ele>402.0</ele><time>2026-04-25T09:11:46.111Z</time></trkpt><trkpt lat="40.9071533" lon="14.75679"><ele>402.0</ele><time>2026-04-25T09:11:47.111Z</time></trkpt><trkpt lat="40.907165" lon="14.7567017"><ele>402.0</ele><time>2026-04-25T09:11:48.112Z</time></trkpt><trkpt lat="40.9071783" lon="14.756565"><ele>402.0</ele><time>2026-04-25T09:11:50.111Z</time></trkpt><trkpt lat="40.9071933" lon="14.7564767"><ele>402.40000000000003</ele><time>2026-04-25T09:11:52.111Z</time></trkpt><trkpt lat="40.90727" lon="14.756415"><ele>402.8</ele><time>2026-04-25T09:11:55.111Z</time></trkpt><trkpt lat="40.9073683" lon="14.7564167"><ele>403.2</ele><time>2026-04-25T09:11:57.111Z</time></trkpt><trkpt lat="40.9074933" lon="14.7564167"><ele>403.6</ele><time>2026-04-25T09:11:59.111Z</time></trkpt><trkpt lat="40.90756" lon="14.7564167"><ele>404.0</ele><time>2026-04-25T09:12:00.111Z</time></trkpt><trkpt lat="40.9076383" lon="14.7564117"><ele>404.8333333333333</ele><time>2026-04-25T09:12:01.111Z</time></trkpt><trkpt lat="40.9077133" lon="14.7564083"><ele>405.66666666666663</ele><time>2026-04-25T09:12:02.111Z</time></trkpt><trkpt lat="40.90779" lon="14.7563983"><ele>406.5</ele><time>2026-04-25T09:12:03.111Z</time></trkpt><trkpt lat="40.90786" lon="14.756405"><ele>407.33333333333337</ele><time>2026-04-25T09:12:04.111Z</time></trkpt><trkpt lat="40.90793" lon="14.756415"><ele>408.1666666666667</ele><time>2026-04-25T09:12:05.111Z</time></trkpt><trkpt lat="40.907995" lon="14.7564183"><ele>409.0</ele><time>2026-04-25T09:12:06.111Z</time></trkpt><trkpt lat="40.9081183" lon="14.7564117"><ele>409.00000000000006</ele><time>2026-04-25T09:12:08.111Z</time></trkpt><trkpt lat="40.9081833" lon="14.75639"><ele>409.0</ele><time>2026-04-25T09:12:09.111Z</time></trkpt><trkpt lat="40.9082583" lon="14.7563683"><ele>409.0</ele><time>2026-04-25T09:12:10.111Z</time></trkpt><trkpt lat="40.9083283" lon="14.7563517"><ele>409.0</ele><time>2026-04-25T09:12:11.111Z</time></trkpt><trkpt lat="40.908405" lon="14.7563267"><ele>409.00000000000006</ele><time>2026-04-25T09:12:12.111Z</time></trkpt><trkpt lat="40.9084883" lon="14.7562983"><ele>409.0</ele><time>2026-04-25T09:12:13.111Z</time></trkpt><trkpt lat="40.90858" lon="14.7562717"><ele>409.79999999999995</ele><time>2026-04-25T09:12:14.111Z</time></trkpt><trkpt lat="40.9086667" lon="14.75624"><ele>410.59999999999997</ele><time>2026-04-25T09:12:15.111Z</time></trkpt><trkpt lat="40.9087567" lon="14.7562067"><ele>411.4</ele><time>2026-04-25T09:12:16.111Z</time></trkpt><trkpt lat="40.9088467" lon="14.7561733"><ele>412.2</ele><time>2026-04-25T09:12:17.111Z</time></trkpt><trkpt lat="40.9089517" lon="14.756135"><ele>413.0</ele><time>2026-04-25T09:12:18.111Z</time></trkpt><trkpt lat="40.9090667" lon="14.75609"><ele>413.0</ele><time>2026-04-25T09:12:19.111Z</time></trkpt><trkpt lat="40.9091867" lon="14.7560533"><ele>413.0</ele><time>2026-04-25T09:12:20.111Z</time></trkpt><trkpt lat="40.9093" lon="14.7560267"><ele>413.0</ele><time>2026-04-25T09:12:21.111Z</time></trkpt><trkpt lat="40.9094217" lon="14.7560017"><ele>413.0</ele><time>2026-04-25T09:12:22.111Z</time></trkpt><trkpt lat="40.9095433" lon="14.7559733"><ele>412.2</ele><time>2026-04-25T09:12:23.111Z</time></trkpt><trkpt lat="40.9096517" lon="14.75595"><ele>411.4</ele><time>2026-04-25T09:12:24.111Z</time></trkpt><trkpt lat="40.9097483" lon="14.7559283"><ele>410.59999999999997</ele><time>2026-04-25T09:12:25.111Z</time></trkpt><trkpt lat="40.9098317" lon="14.7559083"><ele>409.79999999999995</ele><time>2026-04-25T09:12:26.111Z</time></trkpt><trkpt lat="40.9099083" lon="14.7558867"><ele>409.0</ele><time>2026-04-25T09:12:27.111Z</time></trkpt><trkpt lat="40.909995" lon="14.7558617"><ele>410.0</ele><time>2026-04-25T09:12:28.111Z</time></trkpt><trkpt lat="40.910095" lon="14.7558517"><ele>411.0</ele><time>2026-04-25T09:12:29.111Z</time></trkpt><trkpt lat="40.9102067" lon="14.75584"><ele>412.0</ele><time>2026-04-25T09:12:30.111Z</time></trkpt><trkpt lat="40.91033" lon="14.75582"><ele>413.0</ele><time>2026-04-25T09:12:31.111Z</time></trkpt><trkpt lat="40.910465" lon="14.7557917"><ele>413.0</ele><time>2026-04-25T09:12:32.111Z</time></trkpt><trkpt lat="40.9106067" lon="14.7557667"><ele>413.0</ele><time>2026-04-25T09:12:33.111Z</time></trkpt><trkpt lat="40.9107533" lon="14.75572"><ele>413.0</ele><time>2026-04-25T09:12:34.112Z</time></trkpt><trkpt lat="40.91089" lon="14.7556567"><ele>413.0</ele><time>2026-04-25T09:12:35.111Z</time></trkpt><trkpt lat="40.9110317" lon="14.755575"><ele>414.3333333333333</ele><time>2026-04-25T09:12:36.111Z</time></trkpt><trkpt lat="40.9111683" lon="14.755475"><ele>415.66666666666663</ele><time>2026-04-25T09:12:37.111Z</time></trkpt><trkpt lat="40.9112917" lon="14.7553533"><ele>417.0</ele><time>2026-04-25T09:12:38.111Z</time></trkpt><trkpt lat="40.9114133" lon="14.75522"><ele>416.33333333333337</ele><time>2026-04-25T09:12:39.111Z</time></trkpt><trkpt lat="40.9115233" lon="14.7550717"><ele>415.6666666666667</ele><time>2026-04-25T09:12:40.111Z</time></trkpt><trkpt lat="40.91162" lon="14.75491"><ele>415.0</ele><time>2026-04-25T09:12:41.111Z</time></trkpt><trkpt lat="40.9117183" lon="14.754745"><ele>415.75</ele><time>2026-04-25T09:12:42.111Z</time></trkpt><trkpt lat="40.911805" lon="14.75458"><ele>416.5</ele><time>2026-04-25T09:12:43.111Z</time></trkpt><trkpt lat="40.911895" lon="14.7544233"><ele>417.25</ele><time>2026-04-25T09:12:44.111Z</time></trkpt><trkpt lat="40.9119767" lon="14.7542917"><ele>418.0</ele><time>2026-04-25T09:12:45.111Z</time></trkpt><trkpt lat="40.912055" lon="14.75417"><ele>418.0</ele><time>2026-04-25T09:12:46.111Z</time></trkpt><trkpt lat="40.91214" lon="14.7540633"><ele>418.0</ele><time>2026-04-25T09:12:47.111Z</time></trkpt><trkpt lat="40.9122217" lon="14.7539633"><ele>418.0</ele><time>2026-04-25T09:12:48.111Z</time></trkpt><trkpt lat="40.9123133" lon="14.7538767"><ele>418.0</ele><time>2026-04-25T09:12:49.111Z</time></trkpt><trkpt lat="40.9124167" lon="14.7538"><ele>418.0</ele><time>2026-04-25T09:12:50.111Z</time></trkpt><trkpt lat="40.9125333" lon="14.753735"><ele>418.0</ele><time>2026-04-25T09:12:51.111Z</time></trkpt><trkpt lat="40.912655" lon="14.7536817"><ele>418.0</ele><time>2026-04-25T09:12:52.111Z</time></trkpt><trkpt lat="40.9127833" lon="14.7536333"><ele>418.0</ele><time>2026-04-25T09:12:53.111Z</time></trkpt><trkpt lat="40.912905" lon="14.75358"><ele>418.4</ele><time>2026-04-25T09:12:54.111Z</time></trkpt><trkpt lat="40.9130083" lon="14.75352"><ele>418.79999999999995</ele><time>2026-04-25T09:12:55.111Z</time></trkpt><trkpt lat="40.913105" lon="14.7534733"><ele>419.2</ele><time>2026-04-25T09:12:56.111Z</time></trkpt><trkpt lat="40.9131833" lon="14.7534483"><ele>419.6</ele><time>2026-04-25T09:12:57.112Z</time></trkpt><trkpt lat="40.9132717" lon="14.7535133"><ele>420.0</ele><time>2026-04-25T09:12:59.111Z</time></trkpt><trkpt lat="40.913295" lon="14.7536617"><ele>421.0</ele><time>2026-04-25T09:13:01.112Z</time></trkpt><trkpt lat="40.9132767" lon="14.753765"><ele>422.0</ele><time>2026-04-25T09:13:03.111Z</time></trkpt><trkpt lat="40.9132717" lon="14.7538683"><ele>423.0</ele><time>2026-04-25T09:13:12.111Z</time></trkpt><trkpt lat="40.9132733" lon="14.7539667"><ele>424.0</ele><time>2026-04-25T09:13:14.111Z</time></trkpt><trkpt lat="40.9132617" lon="14.754115"><ele>425.0</ele><time>2026-04-25T09:13:16.111Z</time></trkpt><trkpt lat="40.913255" lon="14.7542267"><ele>426.0</ele><time>2026-04-25T09:13:17.111Z</time></trkpt><trkpt lat="40.9132517" lon="14.7543467"><ele>426.5</ele><time>2026-04-25T09:13:18.111Z</time></trkpt><trkpt lat="40.9132483" lon="14.7544683"><ele>427.0</ele><time>2026-04-25T09:13:19.111Z</time></trkpt><trkpt lat="40.9132467" lon="14.7545767"><ele>427.5</ele><time>2026-04-25T09:13:20.111Z</time></trkpt><trkpt lat="40.9132483" lon="14.75467"><ele>428.0</ele><time>2026-04-25T09:13:21.111Z</time></trkpt><trkpt lat="40.9132517" lon="14.7547717"><ele>428.5</ele><time>2026-04-25T09:13:22.111Z</time></trkpt><trkpt lat="40.913255" lon="14.7548833"><ele>429.0</ele><time>2026-04-25T09:13:23.111Z</time></trkpt><trkpt lat="40.9132583" lon="14.7550117"><ele>429.0</ele><time>2026-04-25T09:13:24.112Z</time></trkpt><trkpt lat="40.913255" lon="14.7551333"><ele>429.0</ele><time>2026-04-25T09:13:25.111Z</time></trkpt><trkpt lat="40.9132517" lon="14.7552467"><ele>429.0</ele><time>2026-04-25T09:13:26.111Z</time></trkpt><trkpt lat="40.9132467" lon="14.755355"><ele>429.0</ele><time>2026-04-25T09:13:27.111Z</time></trkpt><trkpt lat="40.913245" lon="14.7554783"><ele>429.0</ele><time>2026-04-25T09:13:28.111Z</time></trkpt><trkpt lat="40.9132467" lon="14.7556083"><ele>429.4</ele><time>2026-04-25T09:13:29.111Z</time></trkpt><trkpt lat="40.9132417" lon="14.755745"><ele>429.79999999999995</ele><time>2026-04-25T09:13:30.111Z</time></trkpt><trkpt lat="40.913225" lon="14.7558883"><ele>430.20000000000005</ele><time>2026-04-25T09:13:31.111Z</time></trkpt><trkpt lat="40.9132167" lon="14.7560267"><ele>430.6</ele><time>2026-04-25T09:13:32.111Z</time></trkpt><trkpt lat="40.91321" lon="14.7561617"><ele>431.0</ele><time>2026-04-25T09:13:33.111Z</time></trkpt><trkpt lat="40.9132" lon="14.75628"><ele>430.99999999999994</ele><time>2026-04-25T09:13:34.111Z</time></trkpt><trkpt lat="40.91319" lon="14.756395"><ele>431.0</ele><time>2026-04-25T09:13:35.112Z</time></trkpt><trkpt lat="40.9131717" lon="14.7565"><ele>431.0</ele><time>2026-04-25T09:13:36.111Z</time></trkpt><trkpt lat="40.9131617" lon="14.7565867"><ele>431.0</ele><time>2026-04-25T09:13:37.111Z</time></trkpt><trkpt lat="40.91315" lon="14.75668"><ele>430.99999999999994</ele><time>2026-04-25T09:13:38.111Z</time></trkpt><trkpt lat="40.91314" lon="14.75679"><ele>431.0</ele><time>2026-04-25T09:13:39.111Z</time></trkpt><trkpt lat="40.91313" lon="14.75691"><ele>430.49999999999994</ele><time>2026-04-25T09:13:40.111Z</time></trkpt><trkpt lat="40.9131267" lon="14.7570433"><ele>430.0</ele><time>2026-04-25T09:13:41.111Z</time></trkpt><trkpt lat="40.9131317" lon="14.7571733"><ele>429.5</ele><time>2026-04-25T09:13:42.112Z</time></trkpt><trkpt lat="40.9131483" lon="14.7572883"><ele>429.0</ele><time>2026-04-25T09:13:43.111Z</time></trkpt><trkpt lat="40.913165" lon="14.7573717"><ele>428.49999999999994</ele><time>2026-04-25T09:13:44.111Z</time></trkpt><trkpt lat="40.9132117" lon="14.7574383"><ele>428.0</ele><time>2026-04-25T09:13:45.111Z</time></trkpt><trkpt lat="40.9132783" lon="14.7574967"><ele>428.0</ele><time>2026-04-25T09:13:46.111Z</time></trkpt><trkpt lat="40.9133683" lon="14.7575317"><ele>427.99999999999994</ele><time>2026-04-25T09:13:47.111Z</time></trkpt><trkpt lat="40.91348" lon="14.7575417"><ele>427.99999999999994</ele><time>2026-04-25T09:13:48.111Z</time></trkpt><trkpt lat="40.913595" lon="14.7575283"><ele>428.0</ele><time>2026-04-25T09:13:49.111Z</time></trkpt><trkpt lat="40.9137" lon="14.7575083"><ele>428.0</ele><time>2026-04-25T09:13:50.111Z</time></trkpt><trkpt lat="40.9137917" lon="14.75748"><ele>426.99999999999994</ele><time>2026-04-25T09:13:51.111Z</time></trkpt><trkpt lat="40.9138633" lon="14.7574667"><ele>426.0</ele><time>2026-04-25T09:13:52.111Z</time></trkpt><trkpt lat="40.9139317" lon="14.7574617"><ele>425.0</ele><time>2026-04-25T09:13:53.111Z</time></trkpt><trkpt lat="40.9139983" lon="14.75751"><ele>424.0</ele><time>2026-04-25T09:13:55.111Z</time></trkpt><trkpt lat="40.9139983" lon="14.7575967"><ele>422.99999999999994</ele><time>2026-04-25T09:13:57.111Z</time></trkpt><trkpt lat="40.91393" lon="14.757755"><ele>422.0</ele><time>2026-04-25T09:13:59.111Z</time></trkpt><trkpt lat="40.9138683" lon="14.757865"><ele>420.0</ele><time>2026-04-25T09:14:00.111Z</time></trkpt><trkpt lat="40.9137933" lon="14.7580017"><ele>418.0</ele><time>2026-04-25T09:14:01.112Z</time></trkpt><trkpt lat="40.9137183" lon="14.75815"><ele>416.0</ele><time>2026-04-25T09:14:02.111Z</time></trkpt><trkpt lat="40.9136417" lon="14.75832"><ele>414.0</ele><time>2026-04-25T09:14:03.111Z</time></trkpt><trkpt lat="40.9135733" lon="14.7585133"><ele>415.0</ele><time>2026-04-25T09:14:04.111Z</time></trkpt><trkpt lat="40.9135017" lon="14.7587267"><ele>416.0</ele><time>2026-04-25T09:14:05.111Z</time></trkpt><trkpt lat="40.913445" lon="14.7589583"><ele>417.0</ele><time>2026-04-25T09:14:06.111Z</time></trkpt><trkpt lat="40.91339" lon="14.7592083"><ele>416.0</ele><time>2026-04-25T09:14:07.111Z</time></trkpt><trkpt lat="40.9133433" lon="14.759455"><ele>415.0</ele><time>2026-04-25T09:14:08.111Z</time></trkpt><trkpt lat="40.9132983" lon="14.7597067"><ele>414.0</ele><time>2026-04-25T09:14:09.111Z</time></trkpt><trkpt lat="40.9132567" lon="14.7599583"><ele>411.0</ele><time>2026-04-25T09:14:10.112Z</time></trkpt><trkpt lat="40.9132133" lon="14.7602133"><ele>408.0</ele><time>2026-04-25T09:14:11.112Z</time></trkpt><trkpt lat="40.91316" lon="14.76045"><ele>405.0</ele><time>2026-04-25T09:14:12.111Z</time></trkpt><trkpt lat="40.9130983" lon="14.7606817"><ele>405.0</ele><time>2026-04-25T09:14:13.112Z</time></trkpt><trkpt lat="40.9130317" lon="14.7608967"><ele>405.0</ele><time>2026-04-25T09:14:14.111Z</time></trkpt><trkpt lat="40.912965" lon="14.7611"><ele>405.0</ele><time>2026-04-25T09:14:15.111Z</time></trkpt><trkpt lat="40.912915" lon="14.761285"><ele>403.5</ele><time>2026-04-25T09:14:16.111Z</time></trkpt><trkpt lat="40.9128683" lon="14.7614583"><ele>402.0</ele><time>2026-04-25T09:14:17.112Z</time></trkpt><trkpt lat="40.9128383" lon="14.76163"><ele>400.5</ele><time>2026-04-25T09:14:18.111Z</time></trkpt><trkpt lat="40.9128383" lon="14.7617933"><ele>399.0</ele><time>2026-04-25T09:14:19.111Z</time></trkpt><trkpt lat="40.9128533" lon="14.76198"><ele>398.66666666666663</ele><time>2026-04-25T09:14:20.111Z</time></trkpt><trkpt lat="40.9128967" lon="14.762185"><ele>398.3333333333333</ele><time>2026-04-25T09:14:21.111Z</time></trkpt><trkpt lat="40.9129533" lon="14.7623933"><ele>398.0</ele><time>2026-04-25T09:14:22.111Z</time></trkpt><trkpt lat="40.9130033" lon="14.7626067"><ele>396.66666666666663</ele><time>2026-04-25T09:14:23.111Z</time></trkpt><trkpt lat="40.9130517" lon="14.762805"><ele>395.33333333333337</ele><time>2026-04-25T09:14:24.111Z</time></trkpt><trkpt lat="40.9130867" lon="14.7630033"><ele>394.0</ele><time>2026-04-25T09:14:25.111Z</time></trkpt><trkpt lat="40.9131033" lon="14.763195"><ele>394.0</ele><time>2026-04-25T09:14:26.111Z</time></trkpt><trkpt lat="40.9131133" lon="14.7633783"><ele>394.0</ele><time>2026-04-25T09:14:27.112Z</time></trkpt><trkpt lat="40.9131133" lon="14.7635583"><ele>394.0</ele><time>2026-04-25T09:14:28.111Z</time></trkpt><trkpt lat="40.9131117" lon="14.7637367"><ele>394.0</ele><time>2026-04-25T09:14:29.111Z</time></trkpt><trkpt lat="40.9131067" lon="14.7639167"><ele>393.0</ele><time>2026-04-25T09:14:30.111Z</time></trkpt><trkpt lat="40.9131033" lon="14.7640833"><ele>392.0</ele><time>2026-04-25T09:14:31.111Z</time></trkpt><trkpt lat="40.913095" lon="14.7642317"><ele>391.0</ele><time>2026-04-25T09:14:32.111Z</time></trkpt><trkpt lat="40.913105" lon="14.76437"><ele>390.0</ele><time>2026-04-25T09:14:33.111Z</time></trkpt><trkpt lat="40.9131133" lon="14.7644883"><ele>389.0</ele><time>2026-04-25T09:14:34.111Z</time></trkpt><trkpt lat="40.9131183" lon="14.7645867"><ele>388.79999999999995</ele><time>2026-04-25T09:14:35.111Z</time></trkpt><trkpt lat="40.9131367" lon="14.7647367"><ele>388.59999999999997</ele><time>2026-04-25T09:14:37.112Z</time></trkpt><trkpt lat="40.9131617" lon="14.7648817"><ele>388.4</ele><time>2026-04-25T09:14:39.111Z</time></trkpt><trkpt lat="40.9132133" lon="14.7649883"><ele>388.2</ele><time>2026-04-25T09:14:41.111Z</time></trkpt><trkpt lat="40.913295" lon="14.7650067"><ele>388.0</ele><time>2026-04-25T09:14:43.111Z</time></trkpt><trkpt lat="40.913365" lon="14.7649183"><ele>386.7142857142857</ele><time>2026-04-25T09:14:45.111Z</time></trkpt><trkpt lat="40.9134117" lon="14.7648617"><ele>385.42857142857144</ele><time>2026-04-25T09:14:46.111Z</time></trkpt><trkpt lat="40.9134733" lon="14.76483"><ele>384.14285714285717</ele><time>2026-04-25T09:14:47.111Z</time></trkpt><trkpt lat="40.91354" lon="14.7648383"><ele>382.8571428571429</ele><time>2026-04-25T09:14:48.111Z</time></trkpt><trkpt lat="40.9135967" lon="14.764875"><ele>381.57142857142856</ele><time>2026-04-25T09:14:49.111Z</time></trkpt><trkpt lat="40.9136433" lon="14.7649417"><ele>380.28571428571433</ele><time>2026-04-25T09:14:50.111Z</time></trkpt><trkpt lat="40.9136683" lon="14.7650367"><ele>379.0</ele><time>2026-04-25T09:14:51.111Z</time></trkpt><trkpt lat="40.9136867" lon="14.7651583"><ele>378.4</ele><time>2026-04-25T09:14:52.111Z</time></trkpt><trkpt lat="40.9136967" lon="14.76529"><ele>377.79999999999995</ele><time>2026-04-25T09:14:53.111Z</time></trkpt><trkpt lat="40.9137083" lon="14.7654167"><ele>377.20000000000005</ele><time>2026-04-25T09:14:54.111Z</time></trkpt><trkpt lat="40.9137183" lon="14.7655467"><ele>376.6</ele><time>2026-04-25T09:14:55.112Z</time></trkpt><trkpt lat="40.913735" lon="14.7656817"><ele>376.0</ele><time>2026-04-25T09:14:56.111Z</time></trkpt><trkpt lat="40.91375" lon="14.7658183"><ele>376.0</ele><time>2026-04-25T09:14:57.111Z</time></trkpt><trkpt lat="40.913765" lon="14.7659517"><ele>376.0</ele><time>2026-04-25T09:14:58.111Z</time></trkpt><trkpt lat="40.9137783" lon="14.76608"><ele>376.0</ele><time>2026-04-25T09:14:59.112Z</time></trkpt><trkpt lat="40.9137917" lon="14.7662217"><ele>376.0</ele><time>2026-04-25T09:15:00.111Z</time></trkpt><trkpt lat="40.9138033" lon="14.7663633"><ele>376.0</ele><time>2026-04-25T09:15:01.112Z</time></trkpt><trkpt lat="40.9138267" lon="14.7665033"><ele>376.0</ele><time>2026-04-25T09:15:02.112Z</time></trkpt><trkpt lat="40.9138483" lon="14.7666533"><ele>376.0</ele><time>2026-04-25T09:15:03.111Z</time></trkpt><trkpt lat="40.9138683" lon="14.7667983"><ele>376.0</ele><time>2026-04-25T09:15:04.111Z</time></trkpt><trkpt lat="40.9138867" lon="14.7669283"><ele>376.0</ele><time>2026-04-25T09:15:05.111Z</time></trkpt><trkpt lat="40.9139083" lon="14.7670517"><ele>376.0</ele><time>2026-04-25T09:15:06.111Z</time></trkpt><trkpt lat="40.91393" lon="14.7671683"><ele>376.0</ele><time>2026-04-25T09:15:07.111Z</time></trkpt><trkpt lat="40.9139567" lon="14.7673"><ele>376.0</ele><time>2026-04-25T09:15:08.111Z</time></trkpt><trkpt lat="40.9139783" lon="14.767445"><ele>376.0</ele><time>2026-04-25T09:15:09.111Z</time></trkpt><trkpt lat="40.9140017" lon="14.7675967"><ele>376.0</ele><time>2026-04-25T09:15:10.111Z</time></trkpt><trkpt lat="40.91403" lon="14.767755"><ele>375.0</ele><time>2026-04-25T09:15:11.111Z</time></trkpt><trkpt lat="40.914055" lon="14.7679133"><ele>374.0</ele><time>2026-04-25T09:15:12.111Z</time></trkpt><trkpt lat="40.9140817" lon="14.7680767"><ele>373.0</ele><time>2026-04-25T09:15:13.111Z</time></trkpt><trkpt lat="40.9141083" lon="14.7682367"><ele>372.0</ele><time>2026-04-25T09:15:14.111Z</time></trkpt><trkpt lat="40.9141317" lon="14.7683933"><ele>371.8</ele><time>2026-04-25T09:15:15.111Z</time></trkpt><trkpt lat="40.91416" lon="14.7685383"><ele>371.6</ele><time>2026-04-25T09:15:16.112Z</time></trkpt><trkpt lat="40.91418" lon="14.768675"><ele>371.40000000000003</ele><time>2026-04-25T09:15:17.111Z</time></trkpt><trkpt lat="40.9142033" lon="14.7688067"><ele>371.20000000000005</ele><time>2026-04-25T09:15:18.111Z</time></trkpt><trkpt lat="40.91423" lon="14.76894"><ele>371.0</ele><time>2026-04-25T09:15:19.111Z</time></trkpt><trkpt lat="40.9142567" lon="14.7690567"><ele>371.0</ele><time>2026-04-25T09:15:20.111Z</time></trkpt><trkpt lat="40.9142833" lon="14.7691567"><ele>371.0</ele><time>2026-04-25T09:15:21.111Z</time></trkpt><trkpt lat="40.914305" lon="14.7692483"><ele>371.0</ele><time>2026-04-25T09:15:22.111Z</time></trkpt><trkpt lat="40.9143283" lon="14.7693333"><ele>371.0</ele><time>2026-04-25T09:15:23.111Z</time></trkpt><trkpt lat="40.91436" lon="14.7694217"><ele>371.0</ele><time>2026-04-25T09:15:24.111Z</time></trkpt><trkpt lat="40.914395" lon="14.7695217"><ele>371.0</ele><time>2026-04-25T09:15:25.111Z</time></trkpt><trkpt lat="40.9144383" lon="14.76963"><ele>370.4</ele><time>2026-04-25T09:15:26.111Z</time></trkpt><trkpt lat="40.9144817" lon="14.769745"><ele>369.8</ele><time>2026-04-25T09:15:27.111Z</time></trkpt><trkpt lat="40.914525" lon="14.76986"><ele>369.2</ele><time>2026-04-25T09:15:28.111Z</time></trkpt><trkpt lat="40.91457" lon="14.7699817"><ele>368.59999999999997</ele><time>2026-04-25T09:15:29.111Z</time></trkpt><trkpt lat="40.9146133" lon="14.7701083"><ele>368.0</ele><time>2026-04-25T09:15:30.111Z</time></trkpt><trkpt lat="40.9146617" lon="14.770245"><ele>367.75</ele><time>2026-04-25T09:15:31.111Z</time></trkpt><trkpt lat="40.914715" lon="14.7703917"><ele>367.5</ele><time>2026-04-25T09:15:32.111Z</time></trkpt><trkpt lat="40.914765" lon="14.7705567"><ele>367.25</ele><time>2026-04-25T09:15:33.111Z</time></trkpt><trkpt lat="40.9148083" lon="14.7707217"><ele>367.0</ele><time>2026-04-25T09:15:34.111Z</time></trkpt><trkpt lat="40.9148417" lon="14.7708667"><ele>367.0</ele><time>2026-04-25T09:15:35.111Z</time></trkpt><trkpt lat="40.9148667" lon="14.77099"><ele>367.0</ele><time>2026-04-25T09:15:36.111Z</time></trkpt><trkpt lat="40.9148883" lon="14.7710933"><ele>367.0</ele><time>2026-04-25T09:15:37.111Z</time></trkpt><trkpt lat="40.9148917" lon="14.77118"><ele>367.0</ele><time>2026-04-25T09:15:38.111Z</time></trkpt><trkpt lat="40.914905" lon="14.7712783"><ele>367.0</ele><time>2026-04-25T09:15:40.111Z</time></trkpt><trkpt lat="40.91496" lon="14.771365"><ele>367.0</ele><time>2026-04-25T09:15:43.112Z</time></trkpt><trkpt lat="40.9150817" lon="14.7713767"><ele>367.0</ele><time>2026-04-25T09:15:45.111Z</time></trkpt><trkpt lat="40.9151633" lon="14.77136"><ele>367.0</ele><time>2026-04-25T09:15:46.111Z</time></trkpt><trkpt lat="40.915255" lon="14.77134"><ele>367.0</ele><time>2026-04-25T09:15:47.111Z</time></trkpt><trkpt lat="40.91534" lon="14.771325"><ele>367.0</ele><time>2026-04-25T09:15:48.111Z</time></trkpt><trkpt lat="40.9154117" lon="14.7713067"><ele>367.0</ele><time>2026-04-25T09:15:49.112Z</time></trkpt><trkpt lat="40.91551" lon="14.771295"><ele>367.0</ele><time>2026-04-25T09:15:51.111Z</time></trkpt><trkpt lat="40.9156067" lon="14.7713217"><ele>367.0</ele><time>2026-04-25T09:15:53.111Z</time></trkpt><trkpt lat="40.91571" lon="14.7713033"><ele>367.0</ele><time>2026-04-25T09:15:55.111Z</time></trkpt><trkpt lat="40.915775" lon="14.7712583"><ele>367.0</ele><time>2026-04-25T09:15:56.111Z</time></trkpt><trkpt lat="40.9158533" lon="14.77121"><ele>367.0</ele><time>2026-04-25T09:15:57.112Z</time></trkpt><trkpt lat="40.9159467" lon="14.7711683"><ele>367.0</ele><time>2026-04-25T09:15:58.111Z</time></trkpt><trkpt lat="40.9160483" lon="14.771135"><ele>367.20000000000005</ele><time>2026-04-25T09:15:59.111Z</time></trkpt><trkpt lat="40.9161567" lon="14.7711067"><ele>367.4</ele><time>2026-04-25T09:16:00.111Z</time></trkpt><trkpt lat="40.9162617" lon="14.7710833"><ele>367.6</ele><time>2026-04-25T09:16:01.111Z</time></trkpt><trkpt lat="40.91635" lon="14.7710733"><ele>367.79999999999995</ele><time>2026-04-25T09:16:02.111Z</time></trkpt><trkpt lat="40.916425" lon="14.7710617"><ele>368.0</ele><time>2026-04-25T09:16:03.111Z</time></trkpt><trkpt lat="40.9165283" lon="14.77107"><ele>368.0</ele><time>2026-04-25T09:16:05.111Z</time></trkpt><trkpt lat="40.91663" lon="14.7711767"><ele>368.0</ele><time>2026-04-25T09:16:07.111Z</time></trkpt><trkpt lat="40.9166917" lon="14.7712667"><ele>368.0</ele><time>2026-04-25T09:16:08.111Z</time></trkpt><trkpt lat="40.916755" lon="14.7713733"><ele>368.0</ele><time>2026-04-25T09:16:09.111Z</time></trkpt><trkpt lat="40.91683" lon="14.77148"><ele>368.0</ele><time>2026-04-25T09:16:10.111Z</time></trkpt><trkpt lat="40.9169083" lon="14.7715933"><ele>368.5</ele><time>2026-04-25T09:16:11.111Z</time></trkpt><trkpt lat="40.916985" lon="14.7717167"><ele>369.0</ele><time>2026-04-25T09:16:12.111Z</time></trkpt><trkpt lat="40.91706" lon="14.7718383"><ele>369.5</ele><time>2026-04-25T09:16:13.111Z</time></trkpt><trkpt lat="40.9171367" lon="14.7719433"><ele>370.0</ele><time>2026-04-25T09:16:14.111Z</time></trkpt><trkpt lat="40.9172083" lon="14.77204"><ele>370.3333333333333</ele><time>2026-04-25T09:16:15.111Z</time></trkpt><trkpt lat="40.9172683" lon="14.7721283"><ele>370.66666666666663</ele><time>2026-04-25T09:16:16.111Z</time></trkpt><trkpt lat="40.917325" lon="14.7722117"><ele>371.0</ele><time>2026-04-25T09:16:17.111Z</time></trkpt><trkpt lat="40.9173767" lon="14.7722883"><ele>371.3333333333333</ele><time>2026-04-25T09:16:18.111Z</time></trkpt><trkpt lat="40.9174283" lon="14.7723633"><ele>371.6666666666667</ele><time>2026-04-25T09:16:19.111Z</time></trkpt><trkpt lat="40.9174883" lon="14.7724433"><ele>372.0</ele><time>2026-04-25T09:16:20.111Z</time></trkpt><trkpt lat="40.91755" lon="14.77253"><ele>372.1666666666667</ele><time>2026-04-25T09:16:21.112Z</time></trkpt><trkpt lat="40.9176133" lon="14.7726167"><ele>372.3333333333333</ele><time>2026-04-25T09:16:22.111Z</time></trkpt><trkpt lat="40.9176667" lon="14.7726983"><ele>372.5</ele><time>2026-04-25T09:16:23.111Z</time></trkpt><trkpt lat="40.9177317" lon="14.7727817"><ele>372.66666666666663</ele><time>2026-04-25T09:16:24.111Z</time></trkpt><trkpt lat="40.9177933" lon="14.77287"><ele>372.8333333333333</ele><time>2026-04-25T09:16:25.111Z</time></trkpt><trkpt lat="40.9178583" lon="14.772955"><ele>373.0</ele><time>2026-04-25T09:16:26.111Z</time></trkpt><trkpt lat="40.917925" lon="14.7730433"><ele>373.0</ele><time>2026-04-25T09:16:27.111Z</time></trkpt><trkpt lat="40.91799" lon="14.7731333"><ele>373.0</ele><time>2026-04-25T09:16:28.111Z</time></trkpt><trkpt lat="40.9180483" lon="14.77322"><ele>373.0</ele><time>2026-04-25T09:16:29.112Z</time></trkpt><trkpt lat="40.9181133" lon="14.7733117"><ele>373.0</ele><time>2026-04-25T09:16:30.111Z</time></trkpt><trkpt lat="40.9181767" lon="14.7734033"><ele>373.0</ele><time>2026-04-25T09:16:31.111Z</time></trkpt><trkpt lat="40.918235" lon="14.7734883"><ele>372.79999999999995</ele><time>2026-04-25T09:16:32.111Z</time></trkpt><trkpt lat="40.918295" lon="14.77358"><ele>372.6</ele><time>2026-04-25T09:16:33.111Z</time></trkpt><trkpt lat="40.9183517" lon="14.773675"><ele>372.4</ele><time>2026-04-25T09:16:34.111Z</time></trkpt><trkpt lat="40.91842" lon="14.7737683"><ele>372.20000000000005</ele><time>2026-04-25T09:16:35.111Z</time></trkpt><trkpt lat="40.91849" lon="14.7738583"><ele>372.0</ele><time>2026-04-25T09:16:36.111Z</time></trkpt><trkpt lat="40.9185483" lon="14.7739433"><ele>372.20000000000005</ele><time>2026-04-25T09:16:37.111Z</time></trkpt><trkpt lat="40.9186117" lon="14.7740333"><ele>372.4</ele><time>2026-04-25T09:16:38.111Z</time></trkpt><trkpt lat="40.9186717" lon="14.77412"><ele>372.6</ele><time>2026-04-25T09:16:39.111Z</time></trkpt><trkpt lat="40.9187367" lon="14.7742117"><ele>372.79999999999995</ele><time>2026-04-25T09:16:40.111Z</time></trkpt><trkpt lat="40.9188083" lon="14.77431"><ele>373.0</ele><time>2026-04-25T09:16:41.111Z</time></trkpt><trkpt lat="40.918875" lon="14.77441"><ele>373.0</ele><time>2026-04-25T09:16:42.111Z</time></trkpt><trkpt lat="40.9189483" lon="14.7745167"><ele>373.0</ele><time>2026-04-25T09:16:43.111Z</time></trkpt><trkpt lat="40.9190117" lon="14.7746167"><ele>373.0</ele><time>2026-04-25T09:16:44.111Z</time></trkpt><trkpt lat="40.9190733" lon="14.774725"><ele>373.0</ele><time>2026-04-25T09:16:45.112Z</time></trkpt><trkpt lat="40.9191317" lon="14.7748417"><ele>373.0</ele><time>2026-04-25T09:16:46.111Z</time></trkpt><trkpt lat="40.9191833" lon="14.7749517"><ele>373.0</ele><time>2026-04-25T09:16:47.111Z</time></trkpt><trkpt lat="40.91924" lon="14.7750783"><ele>373.0</ele><time>2026-04-25T09:16:48.111Z</time></trkpt><trkpt lat="40.919295" lon="14.775205"><ele>373.0</ele><time>2026-04-25T09:16:49.111Z</time></trkpt><trkpt lat="40.91935" lon="14.775335"><ele>373.0</ele><time>2026-04-25T09:16:50.111Z</time></trkpt><trkpt lat="40.9194017" lon="14.7754617"><ele>373.0</ele><time>2026-04-25T09:16:51.111Z</time></trkpt><trkpt lat="40.9194433" lon="14.7755817"><ele>373.0</ele><time>2026-04-25T09:16:52.111Z</time></trkpt><trkpt lat="40.9194883" lon="14.775685"><ele>373.0</ele><time>2026-04-25T09:16:53.111Z</time></trkpt><trkpt lat="40.9195367" lon="14.7757983"><ele>373.0</ele><time>2026-04-25T09:16:54.111Z</time></trkpt><trkpt lat="40.9195867" lon="14.7759183"><ele>373.0</ele><time>2026-04-25T09:16:55.111Z</time></trkpt><trkpt lat="40.919635" lon="14.7760367"><ele>373.0</ele><time>2026-04-25T09:16:56.111Z</time></trkpt><trkpt lat="40.9196817" lon="14.776155"><ele>372.59999999999997</ele><time>2026-04-25T09:16:57.111Z</time></trkpt><trkpt lat="40.919735" lon="14.776275"><ele>372.2</ele><time>2026-04-25T09:16:58.111Z</time></trkpt><trkpt lat="40.9197817" lon="14.7763983"><ele>371.8</ele><time>2026-04-25T09:16:59.111Z</time></trkpt><trkpt lat="40.9198333" lon="14.776515"><ele>371.4</ele><time>2026-04-25T09:17:00.111Z</time></trkpt><trkpt lat="40.9198817" lon="14.7766283"><ele>371.0</ele><time>2026-04-25T09:17:01.111Z</time></trkpt><trkpt lat="40.91993" lon="14.77673"><ele>371.0</ele><time>2026-04-25T09:17:02.111Z</time></trkpt><trkpt lat="40.9199717" lon="14.7768217"><ele>371.0</ele><time>2026-04-25T09:17:03.112Z</time></trkpt><trkpt lat="40.92001" lon="14.7769083"><ele>371.0</ele><time>2026-04-25T09:17:04.111Z</time></trkpt><trkpt lat="40.9200583" lon="14.7770083"><ele>371.0</ele><time>2026-04-25T09:17:05.111Z</time></trkpt><trkpt lat="40.920105" lon="14.7771117"><ele>371.0</ele><time>2026-04-25T09:17:06.111Z</time></trkpt><trkpt lat="40.9201517" lon="14.7772167"><ele>371.0</ele><time>2026-04-25T09:17:07.111Z</time></trkpt><trkpt lat="40.9201967" lon="14.7773233"><ele>371.20000000000005</ele><time>2026-04-25T09:17:08.111Z</time></trkpt><trkpt lat="40.9202433" lon="14.77744"><ele>371.40000000000003</ele><time>2026-04-25T09:17:09.111Z</time></trkpt><trkpt lat="40.9202983" lon="14.7775583"><ele>371.6</ele><time>2026-04-25T09:17:10.111Z</time></trkpt><trkpt lat="40.9203467" lon="14.7776767"><ele>371.8</ele><time>2026-04-25T09:17:11.112Z</time></trkpt><trkpt lat="40.9204" lon="14.7777933"><ele>372.0</ele><time>2026-04-25T09:17:12.111Z</time></trkpt><trkpt lat="40.9204517" lon="14.7779133"><ele>371.6666666666667</ele><time>2026-04-25T09:17:13.111Z</time></trkpt><trkpt lat="40.920495" lon="14.7780333"><ele>371.3333333333333</ele><time>2026-04-25T09:17:14.111Z</time></trkpt><trkpt lat="40.9205417" lon="14.7781467"><ele>371.0</ele><time>2026-04-25T09:17:15.111Z</time></trkpt><trkpt lat="40.9205783" lon="14.778255"><ele>370.66666666666663</ele><time>2026-04-25T09:17:16.111Z</time></trkpt><trkpt lat="40.92062" lon="14.77835"><ele>370.3333333333333</ele><time>2026-04-25T09:17:17.111Z</time></trkpt><trkpt lat="40.9206567" lon="14.7784417"><ele>370.0</ele><time>2026-04-25T09:17:18.111Z</time></trkpt><trkpt lat="40.9206933" lon="14.77853"><ele>369.66666666666663</ele><time>2026-04-25T09:17:19.111Z</time></trkpt><trkpt lat="40.92073" lon="14.778615"><ele>369.3333333333333</ele><time>2026-04-25T09:17:20.111Z</time></trkpt><trkpt lat="40.920765" lon="14.7786983"><ele>369.0</ele><time>2026-04-25T09:17:21.111Z</time></trkpt><trkpt lat="40.9208183" lon="14.7788267"><ele>368.6666666666667</ele><time>2026-04-25T09:17:23.111Z</time></trkpt><trkpt lat="40.920855" lon="14.7789267"><ele>368.33333333333337</ele><time>2026-04-25T09:17:25.111Z</time></trkpt><trkpt lat="40.9208967" lon="14.7790467"><ele>368.0</ele><time>2026-04-25T09:17:27.111Z</time></trkpt><trkpt lat="40.920955" lon="14.7791833"><ele>368.8571428571429</ele><time>2026-04-25T09:17:29.111Z</time></trkpt><trkpt lat="40.9209767" lon="14.77927"><ele>369.71428571428567</ele><time>2026-04-25T09:17:30.111Z</time></trkpt><trkpt lat="40.9210017" lon="14.7793533"><ele>370.57142857142856</ele><time>2026-04-25T09:17:31.111Z</time></trkpt><trkpt lat="40.92103" lon="14.7794417"><ele>371.42857142857144</ele><time>2026-04-25T09:17:32.111Z</time></trkpt><trkpt lat="40.9210517" lon="14.7795333"><ele>372.28571428571433</ele><time>2026-04-25T09:17:33.111Z</time></trkpt><trkpt lat="40.9210733" lon="14.77963"><ele>373.1428571428571</ele><time>2026-04-25T09:17:34.111Z</time></trkpt><trkpt lat="40.9210867" lon="14.7797233"><ele>374.0</ele><time>2026-04-25T09:17:35.112Z</time></trkpt><trkpt lat="40.9211033" lon="14.779815"><ele>374.0</ele><time>2026-04-25T09:17:36.111Z</time></trkpt><trkpt lat="40.9211283" lon="14.7799133"><ele>374.0</ele><time>2026-04-25T09:17:37.111Z</time></trkpt><trkpt lat="40.9211567" lon="14.780005"><ele>374.0</ele><time>2026-04-25T09:17:38.111Z</time></trkpt><trkpt lat="40.92122" lon="14.7801467"><ele>374.0</ele><time>2026-04-25T09:17:40.111Z</time></trkpt><trkpt lat="40.9212817" lon="14.78026"><ele>374.0</ele><time>2026-04-25T09:17:42.111Z</time></trkpt><trkpt lat="40.9213683" lon="14.7803717"><ele>374.0</ele><time>2026-04-25T09:17:44.111Z</time></trkpt><trkpt lat="40.9214617" lon="14.7804817"><ele>374.0</ele><time>2026-04-25T09:17:46.111Z</time></trkpt><trkpt lat="40.92155" lon="14.7805783"><ele>374.0</ele><time>2026-04-25T09:17:48.111Z</time></trkpt><trkpt lat="40.9216383" lon="14.78067"><ele>374.0</ele><time>2026-04-25T09:17:50.111Z</time></trkpt><trkpt lat="40.921715" lon="14.780765"><ele>374.0</ele><time>2026-04-25T09:17:52.111Z</time></trkpt><trkpt lat="40.921775" lon="14.7808283"><ele>374.0</ele><time>2026-04-25T09:17:54.111Z</time></trkpt><trkpt lat="40.9218367" lon="14.7808867"><ele>374.0</ele><time>2026-04-25T09:17:57.111Z</time></trkpt><trkpt lat="40.9219" lon="14.7809583"><ele>374.0</ele><time>2026-04-25T09:17:59.111Z</time></trkpt><trkpt lat="40.92201" lon="14.7810633"><ele>374.0</ele><time>2026-04-25T09:18:01.111Z</time></trkpt><trkpt lat="40.92208" lon="14.7811267"><ele>374.0</ele><time>2026-04-25T09:18:02.111Z</time></trkpt><trkpt lat="40.9221567" lon="14.7811983"><ele>374.0</ele><time>2026-04-25T09:18:03.111Z</time></trkpt><trkpt lat="40.9222367" lon="14.7812717"><ele>374.0</ele><time>2026-04-25T09:18:04.111Z</time></trkpt><trkpt lat="40.92231" lon="14.7813283"><ele>374.0</ele><time>2026-04-25T09:18:05.111Z</time></trkpt><trkpt lat="40.9223783" lon="14.7813967"><ele>374.0</ele><time>2026-04-25T09:18:06.111Z</time></trkpt><trkpt lat="40.9224417" lon="14.78147"><ele>374.0</ele><time>2026-04-25T09:18:07.111Z</time></trkpt><trkpt lat="40.9224967" lon="14.78155"><ele>374.0</ele><time>2026-04-25T09:18:08.111Z</time></trkpt><trkpt lat="40.9225567" lon="14.7816333"><ele>374.0</ele><time>2026-04-25T09:18:09.111Z</time></trkpt><trkpt lat="40.9226083" lon="14.7817117"><ele>374.0</ele><time>2026-04-25T09:18:10.111Z</time></trkpt><trkpt lat="40.9226517" lon="14.78178"><ele>374.0</ele><time>2026-04-25T09:18:11.111Z</time></trkpt><trkpt lat="40.9227183" lon="14.78191"><ele>374.0</ele><time>2026-04-25T09:18:13.111Z</time></trkpt><trkpt lat="40.922775" lon="14.78202"><ele>375.0</ele><time>2026-04-25T09:18:15.111Z</time></trkpt><trkpt lat="40.92285" lon="14.7820333"><ele>376.0</ele><time>2026-04-25T09:18:18.111Z</time></trkpt><trkpt lat="40.9229417" lon="14.7818833"><ele>377.0</ele><time>2026-04-25T09:18:20.111Z</time></trkpt><trkpt lat="40.9230017" lon="14.7817583"><ele>378.0</ele><time>2026-04-25T09:18:21.111Z</time></trkpt><trkpt lat="40.9230583" lon="14.78164"><ele>379.0</ele><time>2026-04-25T09:18:22.111Z</time></trkpt><trkpt lat="40.9231167" lon="14.7815133"><ele>379.4</ele><time>2026-04-25T09:18:23.111Z</time></trkpt><trkpt lat="40.9231717" lon="14.7813717"><ele>379.79999999999995</ele><time>2026-04-25T09:18:24.111Z</time></trkpt><trkpt lat="40.923215" lon="14.7812333"><ele>380.20000000000005</ele><time>2026-04-25T09:18:25.111Z</time></trkpt><trkpt lat="40.9232533" lon="14.7810967"><ele>380.6</ele><time>2026-04-25T09:18:26.111Z</time></trkpt><trkpt lat="40.923275" lon="14.78096"><ele>381.0</ele><time>2026-04-25T09:18:27.111Z</time></trkpt><trkpt lat="40.9232883" lon="14.78083"><ele>381.5</ele><time>2026-04-25T09:18:28.111Z</time></trkpt><trkpt lat="40.92329" lon="14.7806917"><ele>382.0</ele><time>2026-04-25T09:18:29.111Z</time></trkpt><trkpt lat="40.9232783" lon="14.7805283"><ele>382.5</ele><time>2026-04-25T09:18:30.111Z</time></trkpt><trkpt lat="40.9232683" lon="14.7803667"><ele>383.0</ele><time>2026-04-25T09:18:31.111Z</time></trkpt><trkpt lat="40.92326" lon="14.7801833"><ele>384.33333333333337</ele><time>2026-04-25T09:18:32.111Z</time></trkpt><trkpt lat="40.9232333" lon="14.77998"><ele>385.6666666666667</ele><time>2026-04-25T09:18:33.111Z</time></trkpt><trkpt lat="40.9232017" lon="14.779755"><ele>387.0</ele><time>2026-04-25T09:18:34.111Z</time></trkpt><trkpt lat="40.9231683" lon="14.779505"><ele>388.33333333333337</ele><time>2026-04-25T09:18:35.111Z</time></trkpt><trkpt lat="40.92314" lon="14.7792567"><ele>389.6666666666667</ele><time>2026-04-25T09:18:36.111Z</time></trkpt><trkpt lat="40.9231017" lon="14.779005"><ele>391.0</ele><time>2026-04-25T09:18:37.111Z</time></trkpt><trkpt lat="40.9230717" lon="14.7787517"><ele>392.33333333333337</ele><time>2026-04-25T09:18:38.111Z</time></trkpt><trkpt lat="40.9230383" lon="14.778505"><ele>393.66666666666663</ele><time>2026-04-25T09:18:39.111Z</time></trkpt><trkpt lat="40.92302" lon="14.7782817"><ele>395.0</ele><time>2026-04-25T09:18:40.111Z</time></trkpt><trkpt lat="40.9230017" lon="14.7780733"><ele>395.0</ele><time>2026-04-25T09:18:41.111Z</time></trkpt><trkpt lat="40.922985" lon="14.7778617"><ele>395.0</ele><time>2026-04-25T09:18:42.111Z</time></trkpt><trkpt lat="40.922985" lon="14.7776567"><ele>395.0</ele><time>2026-04-25T09:18:43.111Z</time></trkpt><trkpt lat="40.92299" lon="14.7774533"><ele>397.0</ele><time>2026-04-25T09:18:44.111Z</time></trkpt><trkpt lat="40.9230067" lon="14.7772333"><ele>399.0</ele><time>2026-04-25T09:18:45.111Z</time></trkpt><trkpt lat="40.92303" lon="14.7770167"><ele>401.0</ele><time>2026-04-25T09:18:46.111Z</time></trkpt><trkpt lat="40.9230567" lon="14.776805"><ele>403.3333333333333</ele><time>2026-04-25T09:18:47.111Z</time></trkpt><trkpt lat="40.9230817" lon="14.7765733"><ele>405.66666666666663</ele><time>2026-04-25T09:18:48.111Z</time></trkpt><trkpt lat="40.92309" lon="14.7763333"><ele>408.0</ele><time>2026-04-25T09:18:49.111Z</time></trkpt><trkpt lat="40.9231067" lon="14.7761133"><ele>408.66666666666663</ele><time>2026-04-25T09:18:50.111Z</time></trkpt><trkpt lat="40.923125" lon="14.7758983"><ele>409.3333333333333</ele><time>2026-04-25T09:18:51.111Z</time></trkpt><trkpt lat="40.9231417" lon="14.7756783"><ele>410.0</ele><time>2026-04-25T09:18:52.111Z</time></trkpt><trkpt lat="40.92316" lon="14.7754567"><ele>410.0</ele><time>2026-04-25T09:18:53.111Z</time></trkpt><trkpt lat="40.9231783" lon="14.7752417"><ele>410.0</ele><time>2026-04-25T09:18:54.111Z</time></trkpt><trkpt lat="40.9232" lon="14.7750283"><ele>410.0</ele><time>2026-04-25T09:18:55.111Z</time></trkpt><trkpt lat="40.9232117" lon="14.7748333"><ele>410.5</ele><time>2026-04-25T09:18:56.111Z</time></trkpt><trkpt lat="40.9232133" lon="14.77465"><ele>411.0</ele><time>2026-04-25T09:18:57.112Z</time></trkpt><trkpt lat="40.9232" lon="14.7744817"><ele>411.5</ele><time>2026-04-25T09:18:58.111Z</time></trkpt><trkpt lat="40.9231633" lon="14.77432"><ele>412.0</ele><time>2026-04-25T09:18:59.112Z</time></trkpt><trkpt lat="40.9231067" lon="14.7741617"><ele>412.5</ele><time>2026-04-25T09:19:00.111Z</time></trkpt><trkpt lat="40.9230217" lon="14.7740017"><ele>413.0</ele><time>2026-04-25T09:19:01.111Z</time></trkpt><trkpt lat="40.922925" lon="14.7738567"><ele>413.5</ele><time>2026-04-25T09:19:02.111Z</time></trkpt><trkpt lat="40.9228167" lon="14.77371"><ele>414.0</ele><time>2026-04-25T09:19:03.111Z</time></trkpt><trkpt lat="40.922715" lon="14.7735767"><ele>414.25</ele><time>2026-04-25T09:19:04.111Z</time></trkpt><trkpt lat="40.9226333" lon="14.773435"><ele>414.5</ele><time>2026-04-25T09:19:05.111Z</time></trkpt><trkpt lat="40.92257" lon="14.7732967"><ele>414.75</ele><time>2026-04-25T09:19:06.111Z</time></trkpt><trkpt lat="40.922525" lon="14.77315"><ele>415.0</ele><time>2026-04-25T09:19:07.111Z</time></trkpt><trkpt lat="40.9224983" lon="14.7729967"><ele>415.0</ele><time>2026-04-25T09:19:08.111Z</time></trkpt><trkpt lat="40.9224967" lon="14.77283"><ele>415.0</ele><time>2026-04-25T09:19:09.112Z</time></trkpt><trkpt lat="40.9225167" lon="14.7726533"><ele>415.0</ele><time>2026-04-25T09:19:10.111Z</time></trkpt><trkpt lat="40.9225383" lon="14.77247"><ele>415.0</ele><time>2026-04-25T09:19:11.111Z</time></trkpt><trkpt lat="40.92257" lon="14.7722817"><ele>420.25</ele><time>2026-04-25T09:19:12.111Z</time></trkpt><trkpt lat="40.9226" lon="14.7720817"><ele>425.5</ele><time>2026-04-25T09:19:13.111Z</time></trkpt><trkpt lat="40.9226233" lon="14.7719033"><ele>430.75</ele><time>2026-04-25T09:19:14.112Z</time></trkpt><trkpt lat="40.9226367" lon="14.77174"><ele>436.0</ele><time>2026-04-25T09:19:15.111Z</time></trkpt><trkpt lat="40.92263" lon="14.771585"><ele>435.0</ele><time>2026-04-25T09:19:16.111Z</time></trkpt><trkpt lat="40.9225933" lon="14.771435"><ele>434.0</ele><time>2026-04-25T09:19:17.112Z</time></trkpt><trkpt lat="40.9225267" lon="14.771295"><ele>433.0</ele><time>2026-04-25T09:19:18.111Z</time></trkpt><trkpt lat="40.9224383" lon="14.7711533"><ele>432.0</ele><time>2026-04-25T09:19:19.111Z</time></trkpt><trkpt lat="40.922345" lon="14.77102"><ele>432.0</ele><time>2026-04-25T09:19:20.111Z</time></trkpt><trkpt lat="40.9222467" lon="14.7708817"><ele>432.0</ele><time>2026-04-25T09:19:21.111Z</time></trkpt><trkpt lat="40.9221583" lon="14.77076"><ele>432.0</ele><time>2026-04-25T09:19:22.111Z</time></trkpt><trkpt lat="40.922095" lon="14.7706183"><ele>432.0</ele><time>2026-04-25T09:19:23.112Z</time></trkpt><trkpt lat="40.9220483" lon="14.7704683"><ele>432.0</ele><time>2026-04-25T09:19:24.111Z</time></trkpt><trkpt lat="40.92202" lon="14.7703083"><ele>432.0</ele><time>2026-04-25T09:19:25.111Z</time></trkpt><trkpt lat="40.922005" lon="14.77015"><ele>432.0</ele><time>2026-04-25T09:19:26.111Z</time></trkpt><trkpt lat="40.9220183" lon="14.7699933"><ele>432.0</ele><time>2026-04-25T09:19:27.111Z</time></trkpt><trkpt lat="40.9220533" lon="14.769845"><ele>433.0</ele><time>2026-04-25T09:19:28.111Z</time></trkpt><trkpt lat="40.9221267" lon="14.76972"><ele>434.0</ele><time>2026-04-25T09:19:29.111Z</time></trkpt><trkpt lat="40.9222183" lon="14.7696267"><ele>435.0</ele><time>2026-04-25T09:19:30.111Z</time></trkpt><trkpt lat="40.9223283" lon="14.7695683"><ele>436.0</ele><time>2026-04-25T09:19:31.111Z</time></trkpt><trkpt lat="40.9224483" lon="14.769545"><ele>436.25</ele><time>2026-04-25T09:19:32.111Z</time></trkpt><trkpt lat="40.9225767" lon="14.7695483"><ele>436.5</ele><time>2026-04-25T09:19:33.111Z</time></trkpt><trkpt lat="40.9227117" lon="14.76958"><ele>436.75</ele><time>2026-04-25T09:19:34.111Z</time></trkpt><trkpt lat="40.9228467" lon="14.7696233"><ele>437.0</ele><time>2026-04-25T09:19:35.111Z</time></trkpt><trkpt lat="40.9229867" lon="14.7696833"><ele>437.0</ele><time>2026-04-25T09:19:36.111Z</time></trkpt><trkpt lat="40.9231233" lon="14.76976"><ele>437.0</ele><time>2026-04-25T09:19:37.112Z</time></trkpt><trkpt lat="40.92326" lon="14.7698367"><ele>437.0</ele><time>2026-04-25T09:19:38.111Z</time></trkpt><trkpt lat="40.923405" lon="14.7699233"><ele>435.66666666666663</ele><time>2026-04-25T09:19:39.111Z</time></trkpt><trkpt lat="40.92355" lon="14.7700233"><ele>434.33333333333337</ele><time>2026-04-25T09:19:40.111Z</time></trkpt><trkpt lat="40.9237067" lon="14.77012"><ele>433.0</ele><time>2026-04-25T09:19:41.111Z</time></trkpt><trkpt lat="40.9238783" lon="14.7702233"><ele>437.6666666666667</ele><time>2026-04-25T09:19:42.111Z</time></trkpt><trkpt lat="40.9240517" lon="14.7703383"><ele>442.33333333333337</ele><time>2026-04-25T09:19:43.111Z</time></trkpt><trkpt lat="40.9242333" lon="14.770455"><ele>447.0</ele><time>2026-04-25T09:19:44.111Z</time></trkpt><trkpt lat="40.924415" lon="14.7705717"><ele>447.0</ele><time>2026-04-25T09:19:45.111Z</time></trkpt><trkpt lat="40.9245833" lon="14.770675"><ele>447.0</ele><time>2026-04-25T09:19:46.112Z</time></trkpt><trkpt lat="40.9247317" lon="14.770775"><ele>447.0</ele><time>2026-04-25T09:19:47.111Z</time></trkpt><trkpt lat="40.9248867" lon="14.7708833"><ele>447.0</ele><time>2026-04-25T09:19:48.111Z</time></trkpt><trkpt lat="40.9250417" lon="14.7709933"><ele>447.0</ele><time>2026-04-25T09:19:49.112Z</time></trkpt><trkpt lat="40.925195" lon="14.7711017"><ele>447.0</ele><time>2026-04-25T09:19:50.111Z</time></trkpt><trkpt lat="40.9253467" lon="14.77122"><ele>451.33333333333337</ele><time>2026-04-25T09:19:51.111Z</time></trkpt><trkpt lat="40.925495" lon="14.7713317"><ele>455.6666666666667</ele><time>2026-04-25T09:19:52.111Z</time></trkpt><trkpt lat="40.9256383" lon="14.7714233"><ele>460.0</ele><time>2026-04-25T09:19:53.111Z</time></trkpt><trkpt lat="40.925765" lon="14.7715083"><ele>460.0</ele><time>2026-04-25T09:19:54.111Z</time></trkpt><trkpt lat="40.92589" lon="14.7715767"><ele>460.0</ele><time>2026-04-25T09:19:55.111Z</time></trkpt><trkpt lat="40.9260133" lon="14.77161"><ele>460.0</ele><time>2026-04-25T09:19:56.111Z</time></trkpt><trkpt lat="40.9261383" lon="14.77162"><ele>460.0</ele><time>2026-04-25T09:19:57.111Z</time></trkpt><trkpt lat="40.9262633" lon="14.771625"><ele>460.25</ele><time>2026-04-25T09:19:58.111Z</time></trkpt><trkpt lat="40.9263833" lon="14.77161"><ele>460.5</ele><time>2026-04-25T09:19:59.111Z</time></trkpt><trkpt lat="40.926495" lon="14.771575"><ele>460.75</ele><time>2026-04-25T09:20:00.111Z</time></trkpt><trkpt lat="40.9266" lon="14.7715233"><ele>461.0</ele><time>2026-04-25T09:20:01.111Z</time></trkpt><trkpt lat="40.9266967" lon="14.771465"><ele>459.8333333333333</ele><time>2026-04-25T09:20:02.111Z</time></trkpt><trkpt lat="40.9267817" lon="14.7714083"><ele>458.66666666666663</ele><time>2026-04-25T09:20:03.111Z</time></trkpt><trkpt lat="40.9268617" lon="14.7713633"><ele>457.5</ele><time>2026-04-25T09:20:04.111Z</time></trkpt><trkpt lat="40.926935" lon="14.7713083"><ele>456.33333333333337</ele><time>2026-04-25T09:20:05.111Z</time></trkpt><trkpt lat="40.9270083" lon="14.7712517"><ele>455.1666666666667</ele><time>2026-04-25T09:20:06.111Z</time></trkpt><trkpt lat="40.92708" lon="14.7711967"><ele>454.0</ele><time>2026-04-25T09:20:07.111Z</time></trkpt><trkpt lat="40.92715" lon="14.7711417"><ele>454.00000000000006</ele><time>2026-04-25T09:20:08.111Z</time></trkpt><trkpt lat="40.9272133" lon="14.7710933"><ele>454.0</ele><time>2026-04-25T09:20:09.111Z</time></trkpt><trkpt lat="40.9272733" lon="14.771045"><ele>454.0</ele><time>2026-04-25T09:20:10.111Z</time></trkpt><trkpt lat="40.9273683" lon="14.7709767"><ele>454.0</ele><time>2026-04-25T09:20:12.111Z</time></trkpt><trkpt lat="40.9274383" lon="14.7709183"><ele>454.00000000000006</ele><time>2026-04-25T09:20:13.112Z</time></trkpt><trkpt lat="40.9275267" lon="14.7708467"><ele>454.0</ele><time>2026-04-25T09:20:14.111Z</time></trkpt><trkpt lat="40.92763" lon="14.7707633"><ele>454.0</ele><time>2026-04-25T09:20:15.112Z</time></trkpt><trkpt lat="40.9277483" lon="14.7706683"><ele>454.0</ele><time>2026-04-25T09:20:16.111Z</time></trkpt><trkpt lat="40.9278817" lon="14.77056"><ele>454.0</ele><time>2026-04-25T09:20:17.111Z</time></trkpt><trkpt lat="40.928015" lon="14.7704633"><ele>454.0</ele><time>2026-04-25T09:20:18.111Z</time></trkpt><trkpt lat="40.9281417" lon="14.7703767"><ele>454.0</ele><time>2026-04-25T09:20:19.111Z</time></trkpt><trkpt lat="40.9282617" lon="14.77029"><ele>454.0</ele><time>2026-04-25T09:20:20.111Z</time></trkpt><trkpt lat="40.9283767" lon="14.7702"><ele>454.0</ele><time>2026-04-25T09:20:21.111Z</time></trkpt><trkpt lat="40.9284783" lon="14.7701217"><ele>454.0</ele><time>2026-04-25T09:20:22.111Z</time></trkpt><trkpt lat="40.9285733" lon="14.7700467"><ele>454.79999999999995</ele><time>2026-04-25T09:20:23.111Z</time></trkpt><trkpt lat="40.92867" lon="14.769975"><ele>455.59999999999997</ele><time>2026-04-25T09:20:24.111Z</time></trkpt><trkpt lat="40.9287667" lon="14.7698983"><ele>456.4</ele><time>2026-04-25T09:20:25.111Z</time></trkpt><trkpt lat="40.9288617" lon="14.76982"><ele>457.2</ele><time>2026-04-25T09:20:26.111Z</time></trkpt><trkpt lat="40.9289583" lon="14.7697433"><ele>458.0</ele><time>2026-04-25T09:20:27.111Z</time></trkpt><trkpt lat="40.9290483" lon="14.7696683"><ele>458.0</ele><time>2026-04-25T09:20:28.111Z</time></trkpt><trkpt lat="40.92914" lon="14.769595"><ele>458.0</ele><time>2026-04-25T09:20:29.112Z</time></trkpt><trkpt lat="40.9292317" lon="14.7695133"><ele>458.0</ele><time>2026-04-25T09:20:30.111Z</time></trkpt><trkpt lat="40.929325" lon="14.769425"><ele>458.0</ele><time>2026-04-25T09:20:31.111Z</time></trkpt><trkpt lat="40.9294167" lon="14.7693283"><ele>458.5</ele><time>2026-04-25T09:20:32.111Z</time></trkpt><trkpt lat="40.9295083" lon="14.7692317"><ele>459.0</ele><time>2026-04-25T09:20:33.111Z</time></trkpt><trkpt lat="40.9295983" lon="14.769135"><ele>459.5</ele><time>2026-04-25T09:20:34.111Z</time></trkpt><trkpt lat="40.9296867" lon="14.769035"><ele>460.0</ele><time>2026-04-25T09:20:35.111Z</time></trkpt><trkpt lat="40.9297667" lon="14.768935"><ele>460.0</ele><time>2026-04-25T09:20:36.111Z</time></trkpt><trkpt lat="40.9298467" lon="14.7688333"><ele>460.0</ele><time>2026-04-25T09:20:37.112Z</time></trkpt><trkpt lat="40.9299217" lon="14.7687267"><ele>460.0</ele><time>2026-04-25T09:20:38.112Z</time></trkpt><trkpt lat="40.9299933" lon="14.7686267"><ele>460.0</ele><time>2026-04-25T09:20:39.111Z</time></trkpt><trkpt lat="40.9300633" lon="14.7685233"><ele>460.0</ele><time>2026-04-25T09:20:40.111Z</time></trkpt><trkpt lat="40.9301383" lon="14.768425"><ele>462.2</ele><time>2026-04-25T09:20:41.111Z</time></trkpt><trkpt lat="40.930215" lon="14.7683183"><ele>464.4</ele><time>2026-04-25T09:20:42.111Z</time></trkpt><trkpt lat="40.9302833" lon="14.76821"><ele>466.6</ele><time>2026-04-25T09:20:43.111Z</time></trkpt><trkpt lat="40.9303483" lon="14.7680983"><ele>468.8</ele><time>2026-04-25T09:20:44.111Z</time></trkpt><trkpt lat="40.9304117" lon="14.76799"><ele>471.0</ele><time>2026-04-25T09:20:45.112Z</time></trkpt><trkpt lat="40.930475" lon="14.7678733"><ele>471.0</ele><time>2026-04-25T09:20:46.112Z</time></trkpt><trkpt lat="40.9305417" lon="14.7677567"><ele>471.0</ele><time>2026-04-25T09:20:47.111Z</time></trkpt><trkpt lat="40.9306033" lon="14.7676483"><ele>471.0</ele><time>2026-04-25T09:20:48.111Z</time></trkpt><trkpt lat="40.930665" lon="14.7675467"><ele>471.0</ele><time>2026-04-25T09:20:49.111Z</time></trkpt><trkpt lat="40.9307283" lon="14.7674367"><ele>471.0</ele><time>2026-04-25T09:20:50.111Z</time></trkpt><trkpt lat="40.9307933" lon="14.7673083"><ele>472.0</ele><time>2026-04-25T09:20:51.111Z</time></trkpt><trkpt lat="40.930865" lon="14.76717"><ele>473.0</ele><time>2026-04-25T09:20:52.111Z</time></trkpt><trkpt lat="40.930935" lon="14.7670483"><ele>474.0</ele><time>2026-04-25T09:20:53.112Z</time></trkpt><trkpt lat="40.9310017" lon="14.76695"><ele>475.0</ele><time>2026-04-25T09:20:54.111Z</time></trkpt><trkpt lat="40.9310817" lon="14.7668883"><ele>476.0</ele><time>2026-04-25T09:20:55.111Z</time></trkpt><trkpt lat="40.9311667" lon="14.766855"><ele>477.4</ele><time>2026-04-25T09:20:56.111Z</time></trkpt><trkpt lat="40.9312533" lon="14.7668617"><ele>478.8</ele><time>2026-04-25T09:20:57.111Z</time></trkpt><trkpt lat="40.93134" lon="14.7668967"><ele>480.19999999999993</ele><time>2026-04-25T09:20:58.111Z</time></trkpt><trkpt lat="40.9314217" lon="14.7669583"><ele>481.59999999999997</ele><time>2026-04-25T09:20:59.111Z</time></trkpt><trkpt lat="40.9314817" lon="14.76705"><ele>483.0</ele><time>2026-04-25T09:21:00.111Z</time></trkpt><trkpt lat="40.9315183" lon="14.7671633"><ele>483.0</ele><time>2026-04-25T09:21:01.111Z</time></trkpt><trkpt lat="40.9315483" lon="14.767285"><ele>483.0</ele><time>2026-04-25T09:21:02.111Z</time></trkpt><trkpt lat="40.9315783" lon="14.767405"><ele>483.0</ele><time>2026-04-25T09:21:03.111Z</time></trkpt><trkpt lat="40.9315967" lon="14.76751"><ele>483.0</ele><time>2026-04-25T09:21:04.11Z</time></trkpt><trkpt lat="40.9316067" lon="14.7676133"><ele>483.0</ele><time>2026-04-25T09:21:05.11Z</time></trkpt><trkpt lat="40.93162" lon="14.7677167"><ele>483.0</ele><time>2026-04-25T09:21:06.11Z</time></trkpt><trkpt lat="40.9316333" lon="14.7678167"><ele>482.59999999999997</ele><time>2026-04-25T09:21:07.11Z</time></trkpt><trkpt lat="40.931645" lon="14.7679033"><ele>482.19999999999993</ele><time>2026-04-25T09:21:08.11Z</time></trkpt><trkpt lat="40.9316667" lon="14.7680667"><ele>481.8</ele><time>2026-04-25T09:21:10.11Z</time></trkpt><trkpt lat="40.9317067" lon="14.7682467"><ele>481.4</ele><time>2026-04-25T09:21:12.11Z</time></trkpt><trkpt lat="40.9317283" lon="14.76839"><ele>481.0</ele><time>2026-04-25T09:21:13.11Z</time></trkpt><trkpt lat="40.93175" lon="14.7685633"><ele>482.25</ele><time>2026-04-25T09:21:14.11Z</time></trkpt><trkpt lat="40.9317817" lon="14.7687417"><ele>483.5</ele><time>2026-04-25T09:21:15.11Z</time></trkpt><trkpt lat="40.9318233" lon="14.7689117"><ele>484.75</ele><time>2026-04-25T09:21:16.11Z</time></trkpt><trkpt lat="40.9318683" lon="14.7690617"><ele>486.0</ele><time>2026-04-25T09:21:17.11Z</time></trkpt><trkpt lat="40.9319333" lon="14.7691767"><ele>486.0</ele><time>2026-04-25T09:21:18.11Z</time></trkpt><trkpt lat="40.9320183" lon="14.769265"><ele>486.0</ele><time>2026-04-25T09:21:19.11Z</time></trkpt><trkpt lat="40.932125" lon="14.76932"><ele>486.0</ele><time>2026-04-25T09:21:20.11Z</time></trkpt><trkpt lat="40.9322433" lon="14.7693433"><ele>486.0</ele><time>2026-04-25T09:21:21.11Z</time></trkpt><trkpt lat="40.932395" lon="14.7693383"><ele>486.0</ele><time>2026-04-25T09:21:22.11Z</time></trkpt><trkpt lat="40.9325633" lon="14.7693267"><ele>486.0</ele><time>2026-04-25T09:21:23.11Z</time></trkpt><trkpt lat="40.9327367" lon="14.7693117"><ele>486.0</ele><time>2026-04-25T09:21:24.11Z</time></trkpt><trkpt lat="40.9328917" lon="14.769295"><ele>486.0</ele><time>2026-04-25T09:21:25.11Z</time></trkpt><trkpt lat="40.9330333" lon="14.7692883"><ele>486.0</ele><time>2026-04-25T09:21:26.11Z</time></trkpt><trkpt lat="40.93316" lon="14.769305"><ele>486.0</ele><time>2026-04-25T09:21:27.11Z</time></trkpt><trkpt lat="40.933275" lon="14.7693433"><ele>486.0</ele><time>2026-04-25T09:21:28.111Z</time></trkpt><trkpt lat="40.9333817" lon="14.7694283"><ele>487.75</ele><time>2026-04-25T09:21:29.11Z</time></trkpt><trkpt lat="40.9334667" lon="14.76954"><ele>489.5</ele><time>2026-04-25T09:21:30.11Z</time></trkpt><trkpt lat="40.93354" lon="14.769705"><ele>491.25</ele><time>2026-04-25T09:21:31.11Z</time></trkpt><trkpt lat="40.9336" lon="14.7698883"><ele>493.0</ele><time>2026-04-25T09:21:32.11Z</time></trkpt><trkpt lat="40.933635" lon="14.7700817"><ele>491.6666666666667</ele><time>2026-04-25T09:21:33.11Z</time></trkpt><trkpt lat="40.9336667" lon="14.7702833"><ele>490.33333333333337</ele><time>2026-04-25T09:21:34.111Z</time></trkpt><trkpt lat="40.9337083" lon="14.7704933"><ele>489.0</ele><time>2026-04-25T09:21:35.11Z</time></trkpt><trkpt lat="40.93375" lon="14.770705"><ele>489.0</ele><time>2026-04-25T09:21:36.11Z</time></trkpt><trkpt lat="40.9337883" lon="14.7709117"><ele>489.0</ele><time>2026-04-25T09:21:37.11Z</time></trkpt><trkpt lat="40.9338333" lon="14.7711033"><ele>489.0</ele><time>2026-04-25T09:21:38.11Z</time></trkpt><trkpt lat="40.9338683" lon="14.7712867"><ele>487.5</ele><time>2026-04-25T09:21:39.111Z</time></trkpt><trkpt lat="40.9339" lon="14.771465"><ele>486.0</ele><time>2026-04-25T09:21:40.11Z</time></trkpt><trkpt lat="40.93394" lon="14.7716467"><ele>484.5</ele><time>2026-04-25T09:21:41.11Z</time></trkpt><trkpt lat="40.9339767" lon="14.7718283"><ele>483.0</ele><time>2026-04-25T09:21:42.11Z</time></trkpt><trkpt lat="40.9340167" lon="14.772"><ele>482.5</ele><time>2026-04-25T09:21:43.11Z</time></trkpt><trkpt lat="40.9340667" lon="14.7721583"><ele>482.0</ele><time>2026-04-25T09:21:44.11Z</time></trkpt><trkpt lat="40.9341217" lon="14.772295"><ele>481.5</ele><time>2026-04-25T09:21:45.11Z</time></trkpt><trkpt lat="40.9341917" lon="14.7724133"><ele>481.0</ele><time>2026-04-25T09:21:46.11Z</time></trkpt><trkpt lat="40.9342867" lon="14.772515"><ele>481.0</ele><time>2026-04-25T09:21:47.11Z</time></trkpt><trkpt lat="40.9344033" lon="14.772605"><ele>481.0</ele><time>2026-04-25T09:21:48.11Z</time></trkpt><trkpt lat="40.93453" lon="14.7726783"><ele>481.0</ele><time>2026-04-25T09:21:49.11Z</time></trkpt><trkpt lat="40.9346667" lon="14.7727283"><ele>481.0</ele><time>2026-04-25T09:21:50.11Z</time></trkpt><trkpt lat="40.9348083" lon="14.7727483"><ele>479.33333333333337</ele><time>2026-04-25T09:21:51.11Z</time></trkpt><trkpt lat="40.934955" lon="14.7727567"><ele>477.66666666666663</ele><time>2026-04-25T09:21:52.11Z</time></trkpt><trkpt lat="40.9351083" lon="14.77275"><ele>476.0</ele><time>2026-04-25T09:21:53.11Z</time></trkpt><trkpt lat="40.9352567" lon="14.7727283"><ele>475.5</ele><time>2026-04-25T09:21:54.11Z</time></trkpt><trkpt lat="40.93539" lon="14.77271"><ele>475.0</ele><time>2026-04-25T09:21:55.11Z</time></trkpt><trkpt lat="40.93552" lon="14.77269"><ele>474.5</ele><time>2026-04-25T09:21:56.11Z</time></trkpt><trkpt lat="40.93565" lon="14.772665"><ele>474.0</ele><time>2026-04-25T09:21:57.11Z</time></trkpt><trkpt lat="40.935785" lon="14.7726417"><ele>475.75</ele><time>2026-04-25T09:21:58.111Z</time></trkpt><trkpt lat="40.935925" lon="14.772615"><ele>477.5</ele><time>2026-04-25T09:21:59.11Z</time></trkpt><trkpt lat="40.93606" lon="14.772575"><ele>479.25</ele><time>2026-04-25T09:22:00.11Z</time></trkpt><trkpt lat="40.9362017" lon="14.7725367"><ele>481.0</ele><time>2026-04-25T09:22:01.11Z</time></trkpt><trkpt lat="40.9363467" lon="14.7724933"><ele>481.0</ele><time>2026-04-25T09:22:02.11Z</time></trkpt><trkpt lat="40.9364917" lon="14.7724517"><ele>481.0</ele><time>2026-04-25T09:22:03.11Z</time></trkpt><trkpt lat="40.9366333" lon="14.7724017"><ele>481.0</ele><time>2026-04-25T09:22:04.11Z</time></trkpt><trkpt lat="40.9367733" lon="14.7723517"><ele>481.0</ele><time>2026-04-25T09:22:05.11Z</time></trkpt><trkpt lat="40.9368933" lon="14.7723"><ele>480.75</ele><time>2026-04-25T09:22:06.11Z</time></trkpt><trkpt lat="40.9370067" lon="14.772245"><ele>480.5</ele><time>2026-04-25T09:22:07.11Z</time></trkpt><trkpt lat="40.9371" lon="14.77216"><ele>480.25</ele><time>2026-04-25T09:22:08.11Z</time></trkpt><trkpt lat="40.93717" lon="14.77205"><ele>480.0</ele><time>2026-04-25T09:22:09.11Z</time></trkpt><trkpt lat="40.9372367" lon="14.7719083"><ele>481.25</ele><time>2026-04-25T09:22:10.11Z</time></trkpt><trkpt lat="40.9372983" lon="14.77175"><ele>482.5</ele><time>2026-04-25T09:22:11.11Z</time></trkpt><trkpt lat="40.937355" lon="14.7715867"><ele>483.75</ele><time>2026-04-25T09:22:12.11Z</time></trkpt><trkpt lat="40.9374183" lon="14.7714133"><ele>485.0</ele><time>2026-04-25T09:22:13.111Z</time></trkpt><trkpt lat="40.937485" lon="14.771245"><ele>485.0</ele><time>2026-04-25T09:22:14.11Z</time></trkpt><trkpt lat="40.93755" lon="14.77107"><ele>485.0</ele><time>2026-04-25T09:22:15.11Z</time></trkpt><trkpt lat="40.937625" lon="14.7708933"><ele>485.0</ele><time>2026-04-25T09:22:16.11Z</time></trkpt><trkpt lat="40.9376917" lon="14.770735"><ele>485.0</ele><time>2026-04-25T09:22:17.11Z</time></trkpt><trkpt lat="40.9377533" lon="14.7705883"><ele>484.25</ele><time>2026-04-25T09:22:18.11Z</time></trkpt><trkpt lat="40.937815" lon="14.7704417"><ele>483.5</ele><time>2026-04-25T09:22:19.11Z</time></trkpt><trkpt lat="40.9378767" lon="14.770285"><ele>482.75</ele><time>2026-04-25T09:22:20.111Z</time></trkpt><trkpt lat="40.9379317" lon="14.770125"><ele>482.0</ele><time>2026-04-25T09:22:21.11Z</time></trkpt><trkpt lat="40.9379817" lon="14.7699467"><ele>484.0</ele><time>2026-04-25T09:22:22.111Z</time></trkpt><trkpt lat="40.9380367" lon="14.76978"><ele>486.0</ele><time>2026-04-25T09:22:23.11Z</time></trkpt><trkpt lat="40.9380783" lon="14.769615"><ele>488.0</ele><time>2026-04-25T09:22:24.11Z</time></trkpt><trkpt lat="40.93812" lon="14.7694633"><ele>490.0</ele><time>2026-04-25T09:22:25.11Z</time></trkpt><trkpt lat="40.9381667" lon="14.7693183"><ele>489.5</ele><time>2026-04-25T09:22:26.111Z</time></trkpt><trkpt lat="40.93823" lon="14.7691867"><ele>489.0</ele><time>2026-04-25T09:22:27.11Z</time></trkpt><trkpt lat="40.9383033" lon="14.7690517"><ele>488.5</ele><time>2026-04-25T09:22:28.11Z</time></trkpt><trkpt lat="40.9383883" lon="14.76891"><ele>488.0</ele><time>2026-04-25T09:22:29.111Z</time></trkpt><trkpt lat="40.9384883" lon="14.7687517"><ele>488.0</ele><time>2026-04-25T09:22:30.111Z</time></trkpt><trkpt lat="40.9385933" lon="14.76857"><ele>488.0</ele><time>2026-04-25T09:22:31.11Z</time></trkpt><trkpt lat="40.9387183" lon="14.7683833"><ele>488.0</ele><time>2026-04-25T09:22:32.11Z</time></trkpt><trkpt lat="40.9388517" lon="14.7681817"><ele>489.3333333333333</ele><time>2026-04-25T09:22:33.11Z</time></trkpt><trkpt lat="40.9389933" lon="14.7679817"><ele>490.66666666666663</ele><time>2026-04-25T09:22:34.11Z</time></trkpt><trkpt lat="40.9391333" lon="14.7677883"><ele>492.0</ele><time>2026-04-25T09:22:35.11Z</time></trkpt><trkpt lat="40.939265" lon="14.7676067"><ele>492.0</ele><time>2026-04-25T09:22:36.11Z</time></trkpt><trkpt lat="40.939385" lon="14.7674267"><ele>492.0</ele><time>2026-04-25T09:22:37.11Z</time></trkpt><trkpt lat="40.9395083" lon="14.7672417"><ele>492.0</ele><time>2026-04-25T09:22:38.11Z</time></trkpt><trkpt lat="40.9396183" lon="14.7670633"><ele>492.0</ele><time>2026-04-25T09:22:39.11Z</time></trkpt><trkpt lat="40.9397183" lon="14.76688"><ele>492.0</ele><time>2026-04-25T09:22:40.11Z</time></trkpt><trkpt lat="40.9398167" lon="14.7666867"><ele>492.0</ele><time>2026-04-25T09:22:41.11Z</time></trkpt><trkpt lat="40.9399083" lon="14.7664967"><ele>492.0</ele><time>2026-04-25T09:22:42.11Z</time></trkpt><trkpt lat="40.9399867" lon="14.7663033"><ele>492.0</ele><time>2026-04-25T09:22:43.11Z</time></trkpt><trkpt lat="40.9400517" lon="14.7661233"><ele>492.0</ele><time>2026-04-25T09:22:44.111Z</time></trkpt><trkpt lat="40.940105" lon="14.7659633"><ele>492.0</ele><time>2026-04-25T09:22:45.11Z</time></trkpt><trkpt lat="40.9401533" lon="14.7658017"><ele>492.0</ele><time>2026-04-25T09:22:46.111Z</time></trkpt><trkpt lat="40.9402" lon="14.7656217"><ele>492.0</ele><time>2026-04-25T09:22:47.11Z</time></trkpt><trkpt lat="40.940245" lon="14.7654367"><ele>492.0</ele><time>2026-04-25T09:22:48.11Z</time></trkpt><trkpt lat="40.9402867" lon="14.765245"><ele>492.0</ele><time>2026-04-25T09:22:49.11Z</time></trkpt><trkpt lat="40.94033" lon="14.7650567"><ele>494.0</ele><time>2026-04-25T09:22:50.11Z</time></trkpt><trkpt lat="40.9403733" lon="14.7648817"><ele>496.0</ele><time>2026-04-25T09:22:51.11Z</time></trkpt><trkpt lat="40.9404167" lon="14.7647217"><ele>498.0</ele><time>2026-04-25T09:22:52.11Z</time></trkpt><trkpt lat="40.9404683" lon="14.764585"><ele>500.0</ele><time>2026-04-25T09:22:53.11Z</time></trkpt><trkpt lat="40.940535" lon="14.7644717"><ele>500.0</ele><time>2026-04-25T09:22:54.11Z</time></trkpt><trkpt lat="40.940625" lon="14.764395"><ele>500.0</ele><time>2026-04-25T09:22:55.11Z</time></trkpt><trkpt lat="40.9407183" lon="14.764365"><ele>500.0</ele><time>2026-04-25T09:22:56.11Z</time></trkpt><trkpt lat="40.940805" lon="14.7643817"><ele>500.0</ele><time>2026-04-25T09:22:57.11Z</time></trkpt><trkpt lat="40.9409017" lon="14.7644333"><ele>500.0</ele><time>2026-04-25T09:22:58.11Z</time></trkpt><trkpt lat="40.9409983" lon="14.7645233"><ele>500.5</ele><time>2026-04-25T09:22:59.111Z</time></trkpt><trkpt lat="40.9411017" lon="14.764635"><ele>501.0</ele><time>2026-04-25T09:23:00.11Z</time></trkpt><trkpt lat="40.9412217" lon="14.7647567"><ele>501.5</ele><time>2026-04-25T09:23:01.11Z</time></trkpt><trkpt lat="40.9413283" lon="14.7648717"><ele>502.0</ele><time>2026-04-25T09:23:02.11Z</time></trkpt><trkpt lat="40.9414367" lon="14.7649967"><ele>502.0</ele><time>2026-04-25T09:23:03.11Z</time></trkpt><trkpt lat="40.9415283" lon="14.7651233"><ele>502.0</ele><time>2026-04-25T09:23:04.11Z</time></trkpt><trkpt lat="40.9416133" lon="14.7652767"><ele>502.0</ele><time>2026-04-25T09:23:05.11Z</time></trkpt><trkpt lat="40.9416817" lon="14.7654567"><ele>502.0</ele><time>2026-04-25T09:23:06.11Z</time></trkpt><trkpt lat="40.9417383" lon="14.7656417"><ele>500.0</ele><time>2026-04-25T09:23:07.11Z</time></trkpt><trkpt lat="40.9417967" lon="14.7658367"><ele>498.0</ele><time>2026-04-25T09:23:08.11Z</time></trkpt><trkpt lat="40.9418483" lon="14.7660167"><ele>496.0</ele><time>2026-04-25T09:23:09.11Z</time></trkpt><trkpt lat="40.94189" lon="14.7661733"><ele>494.0</ele><time>2026-04-25T09:23:10.11Z</time></trkpt><trkpt lat="40.94194" lon="14.76632"><ele>492.25</ele><time>2026-04-25T09:23:11.11Z</time></trkpt><trkpt lat="40.9420033" lon="14.7664533"><ele>490.5</ele><time>2026-04-25T09:23:12.11Z</time></trkpt><trkpt lat="40.942075" lon="14.766555"><ele>488.75</ele><time>2026-04-25T09:23:13.11Z</time></trkpt><trkpt lat="40.9421667" lon="14.7666383"><ele>487.0</ele><time>2026-04-25T09:23:14.11Z</time></trkpt><trkpt lat="40.94228" lon="14.7667117"><ele>487.0</ele><time>2026-04-25T09:23:15.11Z</time></trkpt><trkpt lat="40.9424083" lon="14.7667733"><ele>487.0</ele><time>2026-04-25T09:23:16.11Z</time></trkpt><trkpt lat="40.9425433" lon="14.76683"><ele>487.0</ele><time>2026-04-25T09:23:17.11Z</time></trkpt><trkpt lat="40.9426817" lon="14.7668717"><ele>487.0</ele><time>2026-04-25T09:23:18.11Z</time></trkpt><trkpt lat="40.942815" lon="14.7669067"><ele>485.0</ele><time>2026-04-25T09:23:19.11Z</time></trkpt><trkpt lat="40.9429317" lon="14.7669217"><ele>483.0</ele><time>2026-04-25T09:23:20.11Z</time></trkpt><trkpt lat="40.9430467" lon="14.7669433"><ele>481.0</ele><time>2026-04-25T09:23:21.11Z</time></trkpt><trkpt lat="40.9431533" lon="14.7669667"><ele>479.0</ele><time>2026-04-25T09:23:22.11Z</time></trkpt><trkpt lat="40.9432683" lon="14.76699"><ele>478.75</ele><time>2026-04-25T09:23:23.11Z</time></trkpt><trkpt lat="40.943395" lon="14.76702"><ele>478.5</ele><time>2026-04-25T09:23:24.11Z</time></trkpt><trkpt lat="40.94353" lon="14.7670567"><ele>478.25</ele><time>2026-04-25T09:23:25.11Z</time></trkpt><trkpt lat="40.9436767" lon="14.767095"><ele>478.0</ele><time>2026-04-25T09:23:26.11Z</time></trkpt><trkpt lat="40.9438283" lon="14.7671567"><ele>478.0</ele><time>2026-04-25T09:23:27.11Z</time></trkpt><trkpt lat="40.943985" lon="14.7672333"><ele>478.0</ele><time>2026-04-25T09:23:28.11Z</time></trkpt><trkpt lat="40.9441433" lon="14.767315"><ele>478.0</ele><time>2026-04-25T09:23:29.11Z</time></trkpt><trkpt lat="40.9443117" lon="14.7674017"><ele>477.33333333333337</ele><time>2026-04-25T09:23:30.11Z</time></trkpt><trkpt lat="40.944475" lon="14.7674833"><ele>476.66666666666663</ele><time>2026-04-25T09:23:31.11Z</time></trkpt><trkpt lat="40.9446183" lon="14.767555"><ele>476.0</ele><time>2026-04-25T09:23:32.11Z</time></trkpt><trkpt lat="40.9447417" lon="14.767615"><ele>476.0</ele><time>2026-04-25T09:23:33.11Z</time></trkpt><trkpt lat="40.9448517" lon="14.7676483"><ele>476.0</ele><time>2026-04-25T09:23:34.11Z</time></trkpt><trkpt lat="40.9449517" lon="14.767645"><ele>476.0</ele><time>2026-04-25T09:23:35.11Z</time></trkpt><trkpt lat="40.9450367" lon="14.7676"><ele>476.0</ele><time>2026-04-25T09:23:36.11Z</time></trkpt><trkpt lat="40.9451217" lon="14.7675133"><ele>476.0</ele><time>2026-04-25T09:23:37.11Z</time></trkpt><trkpt lat="40.9452083" lon="14.7674017"><ele>474.25</ele><time>2026-04-25T09:23:38.11Z</time></trkpt><trkpt lat="40.9452867" lon="14.767265"><ele>472.5</ele><time>2026-04-25T09:23:39.111Z</time></trkpt><trkpt lat="40.94536" lon="14.7671267"><ele>470.75</ele><time>2026-04-25T09:23:40.11Z</time></trkpt><trkpt lat="40.9454233" lon="14.7669583"><ele>469.0</ele><time>2026-04-25T09:23:41.11Z</time></trkpt><trkpt lat="40.945475" lon="14.7667733"><ele>469.0</ele><time>2026-04-25T09:23:42.11Z</time></trkpt><trkpt lat="40.9455133" lon="14.7665917"><ele>469.0</ele><time>2026-04-25T09:23:43.11Z</time></trkpt><trkpt lat="40.9455617" lon="14.76641"><ele>469.0</ele><time>2026-04-25T09:23:44.11Z</time></trkpt><trkpt lat="40.94563" lon="14.7662433"><ele>469.0</ele><time>2026-04-25T09:23:45.11Z</time></trkpt><trkpt lat="40.9457083" lon="14.7660967"><ele>469.6</ele><time>2026-04-25T09:23:46.11Z</time></trkpt><trkpt lat="40.9457883" lon="14.7659783"><ele>470.2</ele><time>2026-04-25T09:23:47.11Z</time></trkpt><trkpt lat="40.9458617" lon="14.765865"><ele>470.80000000000007</ele><time>2026-04-25T09:23:48.11Z</time></trkpt><trkpt lat="40.945915" lon="14.7657417"><ele>471.40000000000003</ele><time>2026-04-25T09:23:49.111Z</time></trkpt><trkpt lat="40.9459467" lon="14.7656083"><ele>472.0</ele><time>2026-04-25T09:23:50.11Z</time></trkpt><trkpt lat="40.945965" lon="14.7654767"><ele>472.0</ele><time>2026-04-25T09:23:51.11Z</time></trkpt><trkpt lat="40.9459917" lon="14.7653633"><ele>472.00000000000006</ele><time>2026-04-25T09:23:52.11Z</time></trkpt><trkpt lat="40.9460367" lon="14.7652633"><ele>472.00000000000006</ele><time>2026-04-25T09:23:53.11Z</time></trkpt><trkpt lat="40.9461" lon="14.7651783"><ele>472.0</ele><time>2026-04-25T09:23:54.11Z</time></trkpt><trkpt lat="40.946185" lon="14.7651267"><ele>472.0</ele><time>2026-04-25T09:23:55.11Z</time></trkpt><trkpt lat="40.9462883" lon="14.7651017"><ele>472.0</ele><time>2026-04-25T09:23:56.11Z</time></trkpt><trkpt lat="40.9463933" lon="14.7651067"><ele>472.00000000000006</ele><time>2026-04-25T09:23:57.11Z</time></trkpt><trkpt lat="40.9465033" lon="14.7651417"><ele>472.00000000000006</ele><time>2026-04-25T09:23:58.11Z</time></trkpt><trkpt lat="40.9465917" lon="14.7651917"><ele>472.0</ele><time>2026-04-25T09:23:59.11Z</time></trkpt><trkpt lat="40.9466683" lon="14.7652567"><ele>472.0</ele><time>2026-04-25T09:24:00.11Z</time></trkpt><trkpt lat="40.9467283" lon="14.7653483"><ele>473.6</ele><time>2026-04-25T09:24:01.11Z</time></trkpt><trkpt lat="40.94677" lon="14.765465"><ele>475.20000000000005</ele><time>2026-04-25T09:24:02.11Z</time></trkpt><trkpt lat="40.9467917" lon="14.7655983"><ele>476.8</ele><time>2026-04-25T09:24:03.11Z</time></trkpt><trkpt lat="40.9467883" lon="14.7657517"><ele>478.4</ele><time>2026-04-25T09:24:04.11Z</time></trkpt><trkpt lat="40.9467733" lon="14.7658967"><ele>480.0</ele><time>2026-04-25T09:24:05.11Z</time></trkpt><trkpt lat="40.9467767" lon="14.7660433"><ele>480.0</ele><time>2026-04-25T09:24:06.11Z</time></trkpt><trkpt lat="40.94681" lon="14.7661967"><ele>480.0</ele><time>2026-04-25T09:24:07.111Z</time></trkpt><trkpt lat="40.9468733" lon="14.7663567"><ele>480.0</ele><time>2026-04-25T09:24:08.11Z</time></trkpt><trkpt lat="40.946945" lon="14.7665283"><ele>480.0</ele><time>2026-04-25T09:24:09.11Z</time></trkpt><trkpt lat="40.9470383" lon="14.766715"><ele>477.66666666666663</ele><time>2026-04-25T09:24:10.11Z</time></trkpt><trkpt lat="40.947125" lon="14.7669183"><ele>475.3333333333333</ele><time>2026-04-25T09:24:11.11Z</time></trkpt><trkpt lat="40.947215" lon="14.76712"><ele>473.0</ele><time>2026-04-25T09:24:12.11Z</time></trkpt><trkpt lat="40.9473017" lon="14.7673183"><ele>473.0</ele><time>2026-04-25T09:24:13.11Z</time></trkpt><trkpt lat="40.947375" lon="14.7675067"><ele>473.0</ele><time>2026-04-25T09:24:14.11Z</time></trkpt><trkpt lat="40.94744" lon="14.7676917"><ele>473.0</ele><time>2026-04-25T09:24:15.11Z</time></trkpt><trkpt lat="40.9474783" lon="14.7678833"><ele>472.5</ele><time>2026-04-25T09:24:16.11Z</time></trkpt><trkpt lat="40.9474867" lon="14.76807"><ele>472.0</ele><time>2026-04-25T09:24:17.11Z</time></trkpt><trkpt lat="40.9474667" lon="14.76826"><ele>471.5</ele><time>2026-04-25T09:24:18.11Z</time></trkpt><trkpt lat="40.9474283" lon="14.7684483"><ele>471.0</ele><time>2026-04-25T09:24:19.11Z</time></trkpt><trkpt lat="40.94739" lon="14.7686"><ele>470.8</ele><time>2026-04-25T09:24:20.11Z</time></trkpt><trkpt lat="40.9473633" lon="14.76874"><ele>470.6</ele><time>2026-04-25T09:24:21.11Z</time></trkpt><trkpt lat="40.9473733" lon="14.7688683"><ele>470.4</ele><time>2026-04-25T09:24:22.11Z</time></trkpt><trkpt lat="40.947405" lon="14.7689783"><ele>470.2</ele><time>2026-04-25T09:24:23.11Z</time></trkpt><trkpt lat="40.947465" lon="14.76907"><ele>470.0</ele><time>2026-04-25T09:24:24.11Z</time></trkpt><trkpt lat="40.947545" lon="14.7691317"><ele>470.0</ele><time>2026-04-25T09:24:25.111Z</time></trkpt><trkpt lat="40.9476383" lon="14.7691683"><ele>470.0</ele><time>2026-04-25T09:24:26.11Z</time></trkpt><trkpt lat="40.94774" lon="14.7691867"><ele>470.0</ele><time>2026-04-25T09:24:27.11Z</time></trkpt><trkpt lat="40.9478383" lon="14.769185"><ele>470.0</ele><time>2026-04-25T09:24:28.11Z</time></trkpt><trkpt lat="40.9479217" lon="14.7691717"><ele>470.0</ele><time>2026-04-25T09:24:29.11Z</time></trkpt><trkpt lat="40.9479967" lon="14.7691383"><ele>470.0</ele><time>2026-04-25T09:24:30.11Z</time></trkpt><trkpt lat="40.9480633" lon="14.7690783"><ele>470.0</ele><time>2026-04-25T09:24:31.11Z</time></trkpt><trkpt lat="40.9481283" lon="14.7690017"><ele>470.0</ele><time>2026-04-25T09:24:32.11Z</time></trkpt><trkpt lat="40.9481833" lon="14.7689183"><ele>470.0</ele><time>2026-04-25T09:24:33.11Z</time></trkpt><trkpt lat="40.9482317" lon="14.7687917"><ele>470.0</ele><time>2026-04-25T09:24:34.111Z</time></trkpt><trkpt lat="40.9482617" lon="14.7686317"><ele>470.75</ele><time>2026-04-25T09:24:35.11Z</time></trkpt><trkpt lat="40.948285" lon="14.76846"><ele>471.5</ele><time>2026-04-25T09:24:36.11Z</time></trkpt><trkpt lat="40.9483117" lon="14.7682717"><ele>472.25</ele><time>2026-04-25T09:24:37.11Z</time></trkpt><trkpt lat="40.9483433" lon="14.7680733"><ele>473.0</ele><time>2026-04-25T09:24:38.11Z</time></trkpt><trkpt lat="40.9483767" lon="14.76787"><ele>473.0</ele><time>2026-04-25T09:24:39.11Z</time></trkpt><trkpt lat="40.9484083" lon="14.7676617"><ele>473.0</ele><time>2026-04-25T09:24:40.11Z</time></trkpt><trkpt lat="40.948445" lon="14.7674733"><ele>473.0</ele><time>2026-04-25T09:24:41.11Z</time></trkpt><trkpt lat="40.9485" lon="14.7673083"><ele>473.0</ele><time>2026-04-25T09:24:42.11Z</time></trkpt><trkpt lat="40.9485683" lon="14.76716"><ele>473.0</ele><time>2026-04-25T09:24:43.11Z</time></trkpt><trkpt lat="40.9486483" lon="14.7670333"><ele>473.0</ele><time>2026-04-25T09:24:44.11Z</time></trkpt><trkpt lat="40.9487517" lon="14.76694"><ele>473.0</ele><time>2026-04-25T09:24:45.111Z</time></trkpt><trkpt lat="40.9488783" lon="14.7668817"><ele>473.0</ele><time>2026-04-25T09:24:46.11Z</time></trkpt><trkpt lat="40.9489967" lon="14.766855"><ele>473.0</ele><time>2026-04-25T09:24:47.11Z</time></trkpt><trkpt lat="40.9491133" lon="14.7668717"><ele>473.0</ele><time>2026-04-25T09:24:48.11Z</time></trkpt><trkpt lat="40.9492283" lon="14.766935"><ele>473.0</ele><time>2026-04-25T09:24:49.11Z</time></trkpt><trkpt lat="40.94935" lon="14.7670283"><ele>473.0</ele><time>2026-04-25T09:24:50.11Z</time></trkpt><trkpt lat="40.9494717" lon="14.7671367"><ele>474.5</ele><time>2026-04-25T09:24:51.11Z</time></trkpt><trkpt lat="40.9496" lon="14.767245"><ele>476.0</ele><time>2026-04-25T09:24:52.11Z</time></trkpt><trkpt lat="40.94972" lon="14.7673467"><ele>477.5</ele><time>2026-04-25T09:24:53.11Z</time></trkpt><trkpt lat="40.9498367" lon="14.7674317"><ele>479.0</ele><time>2026-04-25T09:24:54.11Z</time></trkpt><trkpt lat="40.9499417" lon="14.76749"><ele>478.6</ele><time>2026-04-25T09:24:55.11Z</time></trkpt><trkpt lat="40.9500417" lon="14.7675183"><ele>478.2</ele><time>2026-04-25T09:24:56.11Z</time></trkpt><trkpt lat="40.9501433" lon="14.7675067"><ele>477.80000000000007</ele><time>2026-04-25T09:24:57.11Z</time></trkpt><trkpt lat="40.95024" lon="14.767455"><ele>477.40000000000003</ele><time>2026-04-25T09:24:58.11Z</time></trkpt><trkpt lat="40.9503333" lon="14.7673667"><ele>477.0</ele><time>2026-04-25T09:24:59.11Z</time></trkpt><trkpt lat="40.9504283" lon="14.767235"><ele>477.0</ele><time>2026-04-25T09:25:00.11Z</time></trkpt><trkpt lat="40.950525" lon="14.7670817"><ele>477.0</ele><time>2026-04-25T09:25:01.11Z</time></trkpt><trkpt lat="40.9506283" lon="14.76693"><ele>477.0</ele><time>2026-04-25T09:25:02.11Z</time></trkpt><trkpt lat="40.9507383" lon="14.7668067"><ele>477.0</ele><time>2026-04-25T09:25:03.11Z</time></trkpt><trkpt lat="40.950855" lon="14.76672"><ele>481.0</ele><time>2026-04-25T09:25:04.111Z</time></trkpt><trkpt lat="40.9509767" lon="14.7666567"><ele>485.0</ele><time>2026-04-25T09:25:05.11Z</time></trkpt><trkpt lat="40.9511117" lon="14.7666183"><ele>489.0</ele><time>2026-04-25T09:25:06.11Z</time></trkpt><trkpt lat="40.9512417" lon="14.7666"><ele>493.0</ele><time>2026-04-25T09:25:07.11Z</time></trkpt><trkpt lat="40.9513667" lon="14.76661"><ele>493.0</ele><time>2026-04-25T09:25:08.11Z</time></trkpt><trkpt lat="40.9514867" lon="14.7666483"><ele>493.0</ele><time>2026-04-25T09:25:09.11Z</time></trkpt><trkpt lat="40.9515933" lon="14.76672"><ele>493.0</ele><time>2026-04-25T09:25:10.11Z</time></trkpt><trkpt lat="40.9517017" lon="14.76682"><ele>493.0</ele><time>2026-04-25T09:25:11.11Z</time></trkpt><trkpt lat="40.9518117" lon="14.7669417"><ele>493.33333333333337</ele><time>2026-04-25T09:25:12.11Z</time></trkpt><trkpt lat="40.9519333" lon="14.767075"><ele>493.66666666666663</ele><time>2026-04-25T09:25:13.11Z</time></trkpt><trkpt lat="40.9520567" lon="14.7672117"><ele>494.0</ele><time>2026-04-25T09:25:14.11Z</time></trkpt><trkpt lat="40.9521817" lon="14.7673317"><ele>494.0</ele><time>2026-04-25T09:25:15.11Z</time></trkpt><trkpt lat="40.9523083" lon="14.7674367"><ele>494.0</ele><time>2026-04-25T09:25:16.11Z</time></trkpt><trkpt lat="40.9524317" lon="14.7675167"><ele>494.0</ele><time>2026-04-25T09:25:17.11Z</time></trkpt><trkpt lat="40.9525767" lon="14.7675967"><ele>494.0</ele><time>2026-04-25T09:25:18.11Z</time></trkpt><trkpt lat="40.9527283" lon="14.767655"><ele>494.5</ele><time>2026-04-25T09:25:19.11Z</time></trkpt><trkpt lat="40.95288" lon="14.7676967"><ele>495.0</ele><time>2026-04-25T09:25:20.11Z</time></trkpt><trkpt lat="40.9530267" lon="14.767705"><ele>495.5</ele><time>2026-04-25T09:25:21.11Z</time></trkpt><trkpt lat="40.9531717" lon="14.767675"><ele>496.0</ele><time>2026-04-25T09:25:22.11Z</time></trkpt><trkpt lat="40.9533283" lon="14.7676117"><ele>495.0</ele><time>2026-04-25T09:25:23.11Z</time></trkpt><trkpt lat="40.9535083" lon="14.767525"><ele>494.0</ele><time>2026-04-25T09:25:24.11Z</time></trkpt><trkpt lat="40.9536933" lon="14.767445"><ele>493.0</ele><time>2026-04-25T09:25:25.11Z</time></trkpt><trkpt lat="40.9538917" lon="14.7673567"><ele>493.0</ele><time>2026-04-25T09:25:26.11Z</time></trkpt><trkpt lat="40.95409" lon="14.767275"><ele>493.0</ele><time>2026-04-25T09:25:27.111Z</time></trkpt><trkpt lat="40.95429" lon="14.7671967"><ele>493.0</ele><time>2026-04-25T09:25:28.11Z</time></trkpt><trkpt lat="40.9544883" lon="14.7671233"><ele>493.6666666666667</ele><time>2026-04-25T09:25:29.11Z</time></trkpt><trkpt lat="40.95468" lon="14.7670533"><ele>494.33333333333337</ele><time>2026-04-25T09:25:30.11Z</time></trkpt><trkpt lat="40.9548633" lon="14.7669983"><ele>495.0</ele><time>2026-04-25T09:25:31.11Z</time></trkpt><trkpt lat="40.9550317" lon="14.76695"><ele>494.66666666666663</ele><time>2026-04-25T09:25:32.11Z</time></trkpt><trkpt lat="40.9552067" lon="14.766905"><ele>494.3333333333333</ele><time>2026-04-25T09:25:33.11Z</time></trkpt><trkpt lat="40.955385" lon="14.7668683"><ele>494.0</ele><time>2026-04-25T09:25:34.11Z</time></trkpt><trkpt lat="40.955565" lon="14.766835"><ele>498.0</ele><time>2026-04-25T09:25:35.11Z</time></trkpt><trkpt lat="40.9557483" lon="14.7668067"><ele>502.0</ele><time>2026-04-25T09:25:36.11Z</time></trkpt><trkpt lat="40.95593" lon="14.7667733"><ele>506.0</ele><time>2026-04-25T09:25:37.11Z</time></trkpt><trkpt lat="40.9560967" lon="14.76674"><ele>506.75</ele><time>2026-04-25T09:25:38.11Z</time></trkpt><trkpt lat="40.9562483" lon="14.76672"><ele>507.5</ele><time>2026-04-25T09:25:39.11Z</time></trkpt><trkpt lat="40.9563817" lon="14.7667167"><ele>508.25</ele><time>2026-04-25T09:25:40.11Z</time></trkpt><trkpt lat="40.9565033" lon="14.7667367"><ele>509.0</ele><time>2026-04-25T09:25:41.11Z</time></trkpt><trkpt lat="40.9566133" lon="14.7668017"><ele>508.25</ele><time>2026-04-25T09:25:42.11Z</time></trkpt><trkpt lat="40.956715" lon="14.76688"><ele>507.5</ele><time>2026-04-25T09:25:43.11Z</time></trkpt><trkpt lat="40.9568283" lon="14.7669717"><ele>506.75</ele><time>2026-04-25T09:25:44.11Z</time></trkpt><trkpt lat="40.9569383" lon="14.767065"><ele>506.0</ele><time>2026-04-25T09:25:45.111Z</time></trkpt><trkpt lat="40.95703" lon="14.7671533"><ele>506.0</ele><time>2026-04-25T09:25:46.11Z</time></trkpt><trkpt lat="40.9571083" lon="14.7672333"><ele>506.0</ele><time>2026-04-25T09:25:47.11Z</time></trkpt><trkpt lat="40.957185" lon="14.7673083"><ele>506.0</ele><time>2026-04-25T09:25:48.11Z</time></trkpt><trkpt lat="40.9572533" lon="14.7673867"><ele>506.0</ele><time>2026-04-25T09:25:49.11Z</time></trkpt><trkpt lat="40.95733" lon="14.7674883"><ele>506.0</ele><time>2026-04-25T09:25:50.11Z</time></trkpt><trkpt lat="40.95741" lon="14.76761"><ele>506.0</ele><time>2026-04-25T09:25:51.11Z</time></trkpt><trkpt lat="40.9575017" lon="14.76774"><ele>506.0</ele><time>2026-04-25T09:25:52.11Z</time></trkpt><trkpt lat="40.9575917" lon="14.7678983"><ele>506.0</ele><time>2026-04-25T09:25:53.11Z</time></trkpt><trkpt lat="40.9576533" lon="14.7680633"><ele>506.0</ele><time>2026-04-25T09:25:54.11Z</time></trkpt><trkpt lat="40.9577567" lon="14.7682467"><ele>506.0</ele><time>2026-04-25T09:25:55.11Z</time></trkpt><trkpt lat="40.9578633" lon="14.7684233"><ele>506.0</ele><time>2026-04-25T09:25:56.11Z</time></trkpt><trkpt lat="40.95797" lon="14.76859"><ele>506.0</ele><time>2026-04-25T09:25:57.11Z</time></trkpt><trkpt lat="40.9580583" lon="14.7687417"><ele>505.25</ele><time>2026-04-25T09:25:58.11Z</time></trkpt><trkpt lat="40.9581517" lon="14.76889"><ele>504.5</ele><time>2026-04-25T09:25:59.11Z</time></trkpt><trkpt lat="40.9582433" lon="14.7690367"><ele>503.75</ele><time>2026-04-25T09:26:00.11Z</time></trkpt><trkpt lat="40.9583367" lon="14.769185"><ele>503.0</ele><time>2026-04-25T09:26:01.11Z</time></trkpt><trkpt lat="40.9584367" lon="14.7693233"><ele>506.0</ele><time>2026-04-25T09:26:02.11Z</time></trkpt><trkpt lat="40.9585467" lon="14.7694533"><ele>509.0</ele><time>2026-04-25T09:26:03.11Z</time></trkpt><trkpt lat="40.95866" lon="14.7695733"><ele>512.0</ele><time>2026-04-25T09:26:04.11Z</time></trkpt><trkpt lat="40.9587783" lon="14.76969"><ele>515.0</ele><time>2026-04-25T09:26:05.11Z</time></trkpt><trkpt lat="40.958905" lon="14.7698067"><ele>515.0</ele><time>2026-04-25T09:26:06.11Z</time></trkpt><trkpt lat="40.9590383" lon="14.7699283"><ele>515.0</ele><time>2026-04-25T09:26:07.11Z</time></trkpt><trkpt lat="40.9591717" lon="14.770045"><ele>515.0</ele><time>2026-04-25T09:26:08.11Z</time></trkpt><trkpt lat="40.9592983" lon="14.7701583"><ele>516.0</ele><time>2026-04-25T09:26:09.11Z</time></trkpt><trkpt lat="40.959425" lon="14.7702717"><ele>517.0</ele><time>2026-04-25T09:26:10.11Z</time></trkpt><trkpt lat="40.95953" lon="14.77039"><ele>518.0</ele><time>2026-04-25T09:26:11.11Z</time></trkpt><trkpt lat="40.9596217" lon="14.7705083"><ele>519.0</ele><time>2026-04-25T09:26:12.11Z</time></trkpt><trkpt lat="40.959705" lon="14.770645"><ele>519.0</ele><time>2026-04-25T09:26:13.11Z</time></trkpt><trkpt lat="40.9597667" lon="14.770775"><ele>519.0</ele><time>2026-04-25T09:26:14.111Z</time></trkpt><trkpt lat="40.9598333" lon="14.7709333"><ele>519.0</ele><time>2026-04-25T09:26:15.11Z</time></trkpt><trkpt lat="40.9598833" lon="14.7711033"><ele>519.0</ele><time>2026-04-25T09:26:16.11Z</time></trkpt><trkpt lat="40.959925" lon="14.77128"><ele>520.75</ele><time>2026-04-25T09:26:17.11Z</time></trkpt><trkpt lat="40.959985" lon="14.7714583"><ele>522.5</ele><time>2026-04-25T09:26:18.11Z</time></trkpt><trkpt lat="40.960055" lon="14.7716217"><ele>524.25</ele><time>2026-04-25T09:26:19.11Z</time></trkpt><trkpt lat="40.96015" lon="14.7717633"><ele>526.0</ele><time>2026-04-25T09:26:20.11Z</time></trkpt><trkpt lat="40.9602633" lon="14.7718933"><ele>526.0</ele><time>2026-04-25T09:26:21.11Z</time></trkpt><trkpt lat="40.9603883" lon="14.7720233"><ele>526.0</ele><time>2026-04-25T09:26:22.11Z</time></trkpt><trkpt lat="40.960515" lon="14.772155"><ele>526.0</ele><time>2026-04-25T09:26:23.11Z</time></trkpt><trkpt lat="40.9606417" lon="14.7722767"><ele>526.0</ele><time>2026-04-25T09:26:24.11Z</time></trkpt><trkpt lat="40.9607683" lon="14.7723867"><ele>526.0</ele><time>2026-04-25T09:26:25.11Z</time></trkpt><trkpt lat="40.9608933" lon="14.7724817"><ele>526.0</ele><time>2026-04-25T09:26:26.11Z</time></trkpt><trkpt lat="40.9610067" lon="14.77258"><ele>526.0</ele><time>2026-04-25T09:26:27.11Z</time></trkpt><trkpt lat="40.9611" lon="14.7726917"><ele>524.8</ele><time>2026-04-25T09:26:28.11Z</time></trkpt><trkpt lat="40.9611833" lon="14.7727983"><ele>523.6</ele><time>2026-04-25T09:26:29.11Z</time></trkpt><trkpt lat="40.9612517" lon="14.7729017"><ele>522.4</ele><time>2026-04-25T09:26:30.11Z</time></trkpt><trkpt lat="40.9613067" lon="14.7730133"><ele>521.2</ele><time>2026-04-25T09:26:31.11Z</time></trkpt><trkpt lat="40.9613533" lon="14.7731367"><ele>520.0</ele><time>2026-04-25T09:26:32.11Z</time></trkpt><trkpt lat="40.9613917" lon="14.7732683"><ele>520.0</ele><time>2026-04-25T09:26:33.11Z</time></trkpt><trkpt lat="40.9614367" lon="14.7734033"><ele>520.0</ele><time>2026-04-25T09:26:34.111Z</time></trkpt><trkpt lat="40.9614983" lon="14.773525"><ele>520.0</ele><time>2026-04-25T09:26:35.11Z</time></trkpt><trkpt lat="40.96158" lon="14.7736267"><ele>520.0</ele><time>2026-04-25T09:26:36.11Z</time></trkpt><trkpt lat="40.9616733" lon="14.7737183"><ele>522.75</ele><time>2026-04-25T09:26:37.11Z</time></trkpt><trkpt lat="40.9617817" lon="14.7737817"><ele>525.5</ele><time>2026-04-25T09:26:38.11Z</time></trkpt><trkpt lat="40.9619067" lon="14.7738233"><ele>528.25</ele><time>2026-04-25T09:26:39.111Z</time></trkpt><trkpt lat="40.9620417" lon="14.7738367"><ele>531.0</ele><time>2026-04-25T09:26:40.11Z</time></trkpt><trkpt lat="40.9621817" lon="14.773815"><ele>531.0</ele><time>2026-04-25T09:26:41.11Z</time></trkpt><trkpt lat="40.9623283" lon="14.7737917"><ele>531.0</ele><time>2026-04-25T09:26:42.11Z</time></trkpt><trkpt lat="40.9624767" lon="14.773755"><ele>531.0</ele><time>2026-04-25T09:26:43.11Z</time></trkpt><trkpt lat="40.9626233" lon="14.7737017"><ele>530.5</ele><time>2026-04-25T09:26:44.11Z</time></trkpt><trkpt lat="40.9627617" lon="14.7736467"><ele>530.0</ele><time>2026-04-25T09:26:45.11Z</time></trkpt><trkpt lat="40.9628933" lon="14.7736017"><ele>529.5</ele><time>2026-04-25T09:26:46.111Z</time></trkpt><trkpt lat="40.96302" lon="14.7735583"><ele>529.0</ele><time>2026-04-25T09:26:47.11Z</time></trkpt><trkpt lat="40.9631333" lon="14.7735283"><ele>529.0</ele><time>2026-04-25T09:26:48.11Z</time></trkpt><trkpt lat="40.96325" lon="14.7735283"><ele>529.0</ele><time>2026-04-25T09:26:49.11Z</time></trkpt><trkpt lat="40.9633767" lon="14.7735567"><ele>529.0</ele><time>2026-04-25T09:26:50.11Z</time></trkpt><trkpt lat="40.96351" lon="14.7736"><ele>529.0</ele><time>2026-04-25T09:26:51.11Z</time></trkpt><trkpt lat="40.9636583" lon="14.7736483"><ele>524.6666666666667</ele><time>2026-04-25T09:26:52.11Z</time></trkpt><trkpt lat="40.9638217" lon="14.7737083"><ele>520.3333333333334</ele><time>2026-04-25T09:26:53.11Z</time></trkpt><trkpt lat="40.9639967" lon="14.7737633"><ele>516.0</ele><time>2026-04-25T09:26:54.11Z</time></trkpt><trkpt lat="40.9641733" lon="14.77382"><ele>511.66666666666663</ele><time>2026-04-25T09:26:55.11Z</time></trkpt><trkpt lat="40.96435" lon="14.77387"><ele>507.3333333333333</ele><time>2026-04-25T09:26:56.111Z</time></trkpt><trkpt lat="40.9645067" lon="14.7739067"><ele>503.0</ele><time>2026-04-25T09:26:57.11Z</time></trkpt><trkpt lat="40.9646317" lon="14.773945"><ele>503.0</ele><time>2026-04-25T09:26:58.11Z</time></trkpt><trkpt lat="40.9647517" lon="14.7740083"><ele>503.0</ele><time>2026-04-25T09:26:59.11Z</time></trkpt><trkpt lat="40.964865" lon="14.7741"><ele>503.0</ele><time>2026-04-25T09:27:00.11Z</time></trkpt><trkpt lat="40.9649667" lon="14.7742133"><ele>503.0</ele><time>2026-04-25T09:27:01.11Z</time></trkpt><trkpt lat="40.9650583" lon="14.7743283"><ele>500.5</ele><time>2026-04-25T09:27:02.11Z</time></trkpt><trkpt lat="40.9651333" lon="14.7744667"><ele>498.0</ele><time>2026-04-25T09:27:03.11Z</time></trkpt><trkpt lat="40.9651867" lon="14.7746233"><ele>495.5</ele><time>2026-04-25T09:27:04.11Z</time></trkpt><trkpt lat="40.9652367" lon="14.7748"><ele>493.0</ele><time>2026-04-25T09:27:05.111Z</time></trkpt><trkpt lat="40.96528" lon="14.7749933"><ele>493.0</ele><time>2026-04-25T09:27:06.11Z</time></trkpt><trkpt lat="40.965325" lon="14.77518"><ele>493.0</ele><time>2026-04-25T09:27:07.11Z</time></trkpt><trkpt lat="40.965375" lon="14.7753517"><ele>493.0</ele><time>2026-04-25T09:27:08.11Z</time></trkpt><trkpt lat="40.9654433" lon="14.7755133"><ele>493.0</ele><time>2026-04-25T09:27:09.11Z</time></trkpt><trkpt lat="40.9655333" lon="14.77566"><ele>493.75</ele><time>2026-04-25T09:27:10.11Z</time></trkpt><trkpt lat="40.9656183" lon="14.7758033"><ele>494.5</ele><time>2026-04-25T09:27:11.11Z</time></trkpt><trkpt lat="40.9657117" lon="14.7759317"><ele>495.25</ele><time>2026-04-25T09:27:12.11Z</time></trkpt><trkpt lat="40.9657767" lon="14.776065"><ele>496.0</ele><time>2026-04-25T09:27:13.11Z</time></trkpt><trkpt lat="40.9658217" lon="14.7762067"><ele>496.0</ele><time>2026-04-25T09:27:14.11Z</time></trkpt><trkpt lat="40.9658467" lon="14.7763533"><ele>496.0</ele><time>2026-04-25T09:27:15.11Z</time></trkpt><trkpt lat="40.965835" lon="14.7764917"><ele>496.0</ele><time>2026-04-25T09:27:16.11Z</time></trkpt><trkpt lat="40.9658133" lon="14.7766567"><ele>496.0</ele><time>2026-04-25T09:27:17.11Z</time></trkpt><trkpt lat="40.9657667" lon="14.7768267"><ele>495.33333333333337</ele><time>2026-04-25T09:27:18.11Z</time></trkpt><trkpt lat="40.9657017" lon="14.77701"><ele>494.66666666666663</ele><time>2026-04-25T09:27:19.11Z</time></trkpt><trkpt lat="40.9656383" lon="14.7771867"><ele>494.0</ele><time>2026-04-25T09:27:20.11Z</time></trkpt><trkpt lat="40.9655933" lon="14.7773783"><ele>494.0</ele><time>2026-04-25T09:27:21.111Z</time></trkpt><trkpt lat="40.9655617" lon="14.77758"><ele>494.0</ele><time>2026-04-25T09:27:22.11Z</time></trkpt><trkpt lat="40.9655567" lon="14.7777867"><ele>494.0</ele><time>2026-04-25T09:27:23.11Z</time></trkpt><trkpt lat="40.9655683" lon="14.777985"><ele>493.75</ele><time>2026-04-25T09:27:24.11Z</time></trkpt><trkpt lat="40.965595" lon="14.77817"><ele>493.5</ele><time>2026-04-25T09:27:25.11Z</time></trkpt><trkpt lat="40.96564" lon="14.7783483"><ele>493.25</ele><time>2026-04-25T09:27:26.11Z</time></trkpt><trkpt lat="40.9657017" lon="14.7785133"><ele>493.0</ele><time>2026-04-25T09:27:27.11Z</time></trkpt><trkpt lat="40.96578" lon="14.7786617"><ele>491.75</ele><time>2026-04-25T09:27:28.11Z</time></trkpt><trkpt lat="40.9658833" lon="14.77879"><ele>490.5</ele><time>2026-04-25T09:27:29.11Z</time></trkpt><trkpt lat="40.965995" lon="14.778905"><ele>489.25</ele><time>2026-04-25T09:27:30.11Z</time></trkpt><trkpt lat="40.9660917" lon="14.77902"><ele>488.0</ele><time>2026-04-25T09:27:31.11Z</time></trkpt><trkpt lat="40.9661667" lon="14.7791483"><ele>488.0</ele><time>2026-04-25T09:27:32.11Z</time></trkpt><trkpt lat="40.96622" lon="14.779295"><ele>488.0</ele><time>2026-04-25T09:27:33.11Z</time></trkpt><trkpt lat="40.9662617" lon="14.7794633"><ele>488.0</ele><time>2026-04-25T09:27:34.11Z</time></trkpt><trkpt lat="40.9662967" lon="14.7796483"><ele>488.0</ele><time>2026-04-25T09:27:35.111Z</time></trkpt><trkpt lat="40.9663283" lon="14.7798483"><ele>488.0</ele><time>2026-04-25T09:27:36.11Z</time></trkpt><trkpt lat="40.9663717" lon="14.7800617"><ele>488.0</ele><time>2026-04-25T09:27:37.11Z</time></trkpt><trkpt lat="40.96642" lon="14.780275"><ele>488.0</ele><time>2026-04-25T09:27:38.11Z</time></trkpt><trkpt lat="40.9664667" lon="14.7804817"><ele>488.0</ele><time>2026-04-25T09:27:39.11Z</time></trkpt><trkpt lat="40.9665233" lon="14.7806783"><ele>488.0</ele><time>2026-04-25T09:27:40.11Z</time></trkpt><trkpt lat="40.9665883" lon="14.78086"><ele>488.0</ele><time>2026-04-25T09:27:41.11Z</time></trkpt><trkpt lat="40.96666" lon="14.78104"><ele>487.3333333333333</ele><time>2026-04-25T09:27:42.11Z</time></trkpt><trkpt lat="40.9667483" lon="14.7812133"><ele>486.66666666666663</ele><time>2026-04-25T09:27:43.11Z</time></trkpt><trkpt lat="40.966855" lon="14.78137"><ele>486.0</ele><time>2026-04-25T09:27:44.11Z</time></trkpt><trkpt lat="40.9669667" lon="14.7815133"><ele>486.0</ele><time>2026-04-25T09:27:45.11Z</time></trkpt><trkpt lat="40.9670983" lon="14.781655"><ele>486.0</ele><time>2026-04-25T09:27:46.11Z</time></trkpt><trkpt lat="40.9672267" lon="14.7817817"><ele>486.0</ele><time>2026-04-25T09:27:47.11Z</time></trkpt><trkpt lat="40.9673617" lon="14.7819067"><ele>487.33333333333337</ele><time>2026-04-25T09:27:48.11Z</time></trkpt><trkpt lat="40.967495" lon="14.78202"><ele>488.6666666666667</ele><time>2026-04-25T09:27:49.11Z</time></trkpt><trkpt lat="40.9676217" lon="14.7821267"><ele>490.0</ele><time>2026-04-25T09:27:50.11Z</time></trkpt><trkpt lat="40.96775" lon="14.7822083"><ele>490.0</ele><time>2026-04-25T09:27:51.11Z</time></trkpt><trkpt lat="40.9678817" lon="14.7822667"><ele>490.0</ele><time>2026-04-25T09:27:52.11Z</time></trkpt><trkpt lat="40.968015" lon="14.7823283"><ele>490.0</ele><time>2026-04-25T09:27:53.11Z</time></trkpt><trkpt lat="40.968125" lon="14.7823867"><ele>490.0</ele><time>2026-04-25T09:27:54.11Z</time></trkpt><trkpt lat="40.9682433" lon="14.7824417"><ele>490.0</ele><time>2026-04-25T09:27:55.11Z</time></trkpt><trkpt lat="40.9683583" lon="14.78249"><ele>490.0</ele><time>2026-04-25T09:27:56.11Z</time></trkpt><trkpt lat="40.9684817" lon="14.7825167"><ele>490.0</ele><time>2026-04-25T09:27:57.11Z</time></trkpt><trkpt lat="40.9686017" lon="14.782545"><ele>490.0</ele><time>2026-04-25T09:27:58.11Z</time></trkpt><trkpt lat="40.968735" lon="14.78256"><ele>489.5</ele><time>2026-04-25T09:27:59.11Z</time></trkpt><trkpt lat="40.9688783" lon="14.7825717"><ele>489.0</ele><time>2026-04-25T09:28:00.11Z</time></trkpt><trkpt lat="40.969025" lon="14.7825833"><ele>488.5</ele><time>2026-04-25T09:28:01.11Z</time></trkpt><trkpt lat="40.9691817" lon="14.7825983"><ele>488.0</ele><time>2026-04-25T09:28:02.11Z</time></trkpt><trkpt lat="40.9693483" lon="14.782625"><ele>487.0</ele><time>2026-04-25T09:28:03.11Z</time></trkpt><trkpt lat="40.9695167" lon="14.78265"><ele>486.0</ele><time>2026-04-25T09:28:04.11Z</time></trkpt><trkpt lat="40.9696833" lon="14.7826683"><ele>485.0</ele><time>2026-04-25T09:28:05.11Z</time></trkpt><trkpt lat="40.9698483" lon="14.7826817"><ele>486.75</ele><time>2026-04-25T09:28:06.11Z</time></trkpt><trkpt lat="40.969995" lon="14.7826983"><ele>488.5</ele><time>2026-04-25T09:28:07.111Z</time></trkpt><trkpt lat="40.9701367" lon="14.7827133"><ele>490.25</ele><time>2026-04-25T09:28:08.111Z</time></trkpt><trkpt lat="40.9702833" lon="14.7827317"><ele>492.0</ele><time>2026-04-25T09:28:09.111Z</time></trkpt><trkpt lat="40.970425" lon="14.7827467"><ele>492.0</ele><time>2026-04-25T09:28:10.111Z</time></trkpt><trkpt lat="40.970565" lon="14.78277"><ele>492.0</ele><time>2026-04-25T09:28:11.11Z</time></trkpt><trkpt lat="40.9706967" lon="14.782785"><ele>492.0</ele><time>2026-04-25T09:28:12.11Z</time></trkpt><trkpt lat="40.9708217" lon="14.78279"><ele>492.0</ele><time>2026-04-25T09:28:13.11Z</time></trkpt><trkpt lat="40.9711767" lon="14.7827367"><ele>493.75</ele><time>2026-04-25T09:28:16.11Z</time></trkpt><trkpt lat="40.971295" lon="14.782705"><ele>495.5</ele><time>2026-04-25T09:28:17.11Z</time></trkpt><trkpt lat="40.9714" lon="14.7826683"><ele>497.25</ele><time>2026-04-25T09:28:18.111Z</time></trkpt><trkpt lat="40.9715917" lon="14.7825767"><ele>499.0</ele><time>2026-04-25T09:28:20.111Z</time></trkpt><trkpt lat="40.971675" lon="14.78253"><ele>496.33333333333337</ele><time>2026-04-25T09:28:21.111Z</time></trkpt><trkpt lat="40.9717533" lon="14.7824867"><ele>493.6666666666667</ele><time>2026-04-25T09:28:22.111Z</time></trkpt><trkpt lat="40.97183" lon="14.7824517"><ele>491.0</ele><time>2026-04-25T09:28:23.111Z</time></trkpt><trkpt lat="40.9718933" lon="14.7824233"><ele>488.33333333333337</ele><time>2026-04-25T09:28:24.111Z</time></trkpt><trkpt lat="40.9719783" lon="14.7823867"><ele>485.6666666666667</ele><time>2026-04-25T09:28:26.111Z</time></trkpt><trkpt lat="40.9720617" lon="14.7823367"><ele>483.0</ele><time>2026-04-25T09:29:56.111Z</time></trkpt><trkpt lat="40.9721183" lon="14.7823"><ele>483.0</ele><time>2026-04-25T09:29:58.111Z</time></trkpt><trkpt lat="40.9721983" lon="14.782255"><ele>483.0</ele><time>2026-04-25T09:30:00.111Z</time></trkpt><trkpt lat="40.9723017" lon="14.782195"><ele>483.0</ele><time>2026-04-25T09:30:02.111Z</time></trkpt><trkpt lat="40.9723683" lon="14.7821683"><ele>483.0</ele><time>2026-04-25T09:30:03.111Z</time></trkpt><trkpt lat="40.9724417" lon="14.7821267"><ele>483.0</ele><time>2026-04-25T09:30:04.112Z</time></trkpt><trkpt lat="40.972525" lon="14.7820767"><ele>483.0</ele><time>2026-04-25T09:30:05.111Z</time></trkpt><trkpt lat="40.9726217" lon="14.78202"><ele>484.25</ele><time>2026-04-25T09:30:06.111Z</time></trkpt><trkpt lat="40.9727217" lon="14.7819467"><ele>485.5</ele><time>2026-04-25T09:30:07.111Z</time></trkpt><trkpt lat="40.97282" lon="14.7818683"><ele>486.75</ele><time>2026-04-25T09:30:08.111Z</time></trkpt><trkpt lat="40.9729267" lon="14.781785"><ele>488.0</ele><time>2026-04-25T09:30:09.111Z</time></trkpt><trkpt lat="40.9730383" lon="14.7816933"><ele>484.75</ele><time>2026-04-25T09:30:10.111Z</time></trkpt><trkpt lat="40.9731617" lon="14.781595"><ele>481.5</ele><time>2026-04-25T09:30:11.111Z</time></trkpt><trkpt lat="40.97329" lon="14.781495"><ele>478.25</ele><time>2026-04-25T09:30:12.111Z</time></trkpt><trkpt lat="40.9734117" lon="14.781405"><ele>475.0</ele><time>2026-04-25T09:30:13.111Z</time></trkpt><trkpt lat="40.9735267" lon="14.7813233"><ele>475.0</ele><time>2026-04-25T09:30:14.111Z</time></trkpt><trkpt lat="40.973645" lon="14.7812467"><ele>475.0</ele><time>2026-04-25T09:30:15.111Z</time></trkpt><trkpt lat="40.973765" lon="14.7811783"><ele>475.0</ele><time>2026-04-25T09:30:16.111Z</time></trkpt><trkpt lat="40.9739" lon="14.7811167"><ele>475.0</ele><time>2026-04-25T09:30:17.111Z</time></trkpt><trkpt lat="40.9740283" lon="14.7810617"><ele>475.0</ele><time>2026-04-25T09:30:18.111Z</time></trkpt><trkpt lat="40.9741883" lon="14.7810417"><ele>475.0</ele><time>2026-04-25T09:30:19.111Z</time></trkpt><trkpt lat="40.9743583" lon="14.7810183"><ele>475.0</ele><time>2026-04-25T09:30:20.111Z</time></trkpt><trkpt lat="40.9745167" lon="14.780995"><ele>471.25</ele><time>2026-04-25T09:30:21.111Z</time></trkpt><trkpt lat="40.974665" lon="14.7809717"><ele>467.5</ele><time>2026-04-25T09:30:22.111Z</time></trkpt><trkpt lat="40.9748033" lon="14.78095"><ele>463.75</ele><time>2026-04-25T09:30:23.111Z</time></trkpt><trkpt lat="40.974925" lon="14.7809267"><ele>460.0</ele><time>2026-04-25T09:30:24.111Z</time></trkpt><trkpt lat="40.9750367" lon="14.7809067"><ele>458.25</ele><time>2026-04-25T09:30:25.111Z</time></trkpt><trkpt lat="40.9751517" lon="14.780895"><ele>456.5</ele><time>2026-04-25T09:30:26.111Z</time></trkpt><trkpt lat="40.9752733" lon="14.7808867"><ele>454.75</ele><time>2026-04-25T09:30:27.111Z</time></trkpt><trkpt lat="40.9754" lon="14.7808983"><ele>453.0</ele><time>2026-04-25T09:30:28.111Z</time></trkpt><trkpt lat="40.9755283" lon="14.7809417"><ele>453.0</ele><time>2026-04-25T09:30:29.111Z</time></trkpt><trkpt lat="40.9756617" lon="14.7810067"><ele>453.0</ele><time>2026-04-25T09:30:30.111Z</time></trkpt><trkpt lat="40.975805" lon="14.7810867"><ele>453.0</ele><time>2026-04-25T09:30:31.111Z</time></trkpt><trkpt lat="40.9759633" lon="14.781185"><ele>452.66666666666663</ele><time>2026-04-25T09:30:32.111Z</time></trkpt><trkpt lat="40.9761317" lon="14.781295"><ele>452.3333333333333</ele><time>2026-04-25T09:30:33.111Z</time></trkpt><trkpt lat="40.9762983" lon="14.7814033"><ele>452.0</ele><time>2026-04-25T09:30:34.111Z</time></trkpt><trkpt lat="40.9764583" lon="14.7815183"><ele>452.0</ele><time>2026-04-25T09:30:35.111Z</time></trkpt><trkpt lat="40.9766267" lon="14.7816333"><ele>452.0</ele><time>2026-04-25T09:30:36.111Z</time></trkpt><trkpt lat="40.9767983" lon="14.7817517"><ele>452.0</ele><time>2026-04-25T09:30:37.112Z</time></trkpt><trkpt lat="40.9769717" lon="14.781875"><ele>451.66666666666663</ele><time>2026-04-25T09:30:38.111Z</time></trkpt><trkpt lat="40.977135" lon="14.782"><ele>451.33333333333337</ele><time>2026-04-25T09:30:39.112Z</time></trkpt><trkpt lat="40.9772967" lon="14.7821217"><ele>451.0</ele><time>2026-04-25T09:30:40.111Z</time></trkpt><trkpt lat="40.97745" lon="14.7822417"><ele>448.33333333333337</ele><time>2026-04-25T09:30:41.111Z</time></trkpt><trkpt lat="40.977605" lon="14.7823533"><ele>445.66666666666663</ele><time>2026-04-25T09:30:42.111Z</time></trkpt><trkpt lat="40.9777533" lon="14.78246"><ele>443.0</ele><time>2026-04-25T09:30:43.111Z</time></trkpt><trkpt lat="40.9779067" lon="14.782575"><ele>444.3333333333333</ele><time>2026-04-25T09:30:44.111Z</time></trkpt><trkpt lat="40.97805" lon="14.782705"><ele>445.66666666666663</ele><time>2026-04-25T09:30:45.111Z</time></trkpt><trkpt lat="40.9781767" lon="14.782855"><ele>447.0</ele><time>2026-04-25T09:30:46.111Z</time></trkpt><trkpt lat="40.9783067" lon="14.7830233"><ele>444.0</ele><time>2026-04-25T09:30:47.111Z</time></trkpt><trkpt lat="40.97844" lon="14.7832033"><ele>441.0</ele><time>2026-04-25T09:30:48.111Z</time></trkpt><trkpt lat="40.9785767" lon="14.7833833"><ele>438.0</ele><time>2026-04-25T09:30:49.111Z</time></trkpt><trkpt lat="40.9787167" lon="14.7835667"><ele>438.0</ele><time>2026-04-25T09:30:50.111Z</time></trkpt><trkpt lat="40.9788517" lon="14.7837533"><ele>438.0</ele><time>2026-04-25T09:30:51.111Z</time></trkpt><trkpt lat="40.9789917" lon="14.7839467"><ele>438.0</ele><time>2026-04-25T09:30:52.111Z</time></trkpt><trkpt lat="40.97913" lon="14.7841367"><ele>437.33333333333337</ele><time>2026-04-25T09:30:53.111Z</time></trkpt><trkpt lat="40.9792717" lon="14.7843283"><ele>436.6666666666667</ele><time>2026-04-25T09:30:54.111Z</time></trkpt><trkpt lat="40.979415" lon="14.78452"><ele>436.0</ele><time>2026-04-25T09:30:55.111Z</time></trkpt><trkpt lat="40.9795583" lon="14.784715"><ele>436.0</ele><time>2026-04-25T09:30:56.111Z</time></trkpt><trkpt lat="40.979715" lon="14.7849117"><ele>436.0</ele><time>2026-04-25T09:30:57.111Z</time></trkpt><trkpt lat="40.9798567" lon="14.7851"><ele>436.0</ele><time>2026-04-25T09:30:58.111Z</time></trkpt><trkpt lat="40.97999" lon="14.785285"><ele>435.0</ele><time>2026-04-25T09:30:59.111Z</time></trkpt><trkpt lat="40.980115" lon="14.7854567"><ele>434.0</ele><time>2026-04-25T09:31:00.111Z</time></trkpt><trkpt lat="40.980245" lon="14.7856283"><ele>433.0</ele><time>2026-04-25T09:31:01.111Z</time></trkpt><trkpt lat="40.9803733" lon="14.7858033"><ele>433.0</ele><time>2026-04-25T09:31:02.111Z</time></trkpt><trkpt lat="40.9805017" lon="14.7859733"><ele>433.0</ele><time>2026-04-25T09:31:03.111Z</time></trkpt><trkpt lat="40.98063" lon="14.7861417"><ele>433.0</ele><time>2026-04-25T09:31:04.111Z</time></trkpt><trkpt lat="40.980755" lon="14.7862983"><ele>431.6666666666667</ele><time>2026-04-25T09:31:05.112Z</time></trkpt><trkpt lat="40.9808767" lon="14.7864517"><ele>430.33333333333337</ele><time>2026-04-25T09:31:06.111Z</time></trkpt><trkpt lat="40.9809933" lon="14.786595"><ele>429.0</ele><time>2026-04-25T09:31:07.111Z</time></trkpt><trkpt lat="40.9811067" lon="14.7867317"><ele>431.5</ele><time>2026-04-25T09:31:08.111Z</time></trkpt><trkpt lat="40.9812233" lon="14.7868533"><ele>434.0</ele><time>2026-04-25T09:31:09.111Z</time></trkpt><trkpt lat="40.9813467" lon="14.7869633"><ele>436.5</ele><time>2026-04-25T09:31:10.11Z</time></trkpt><trkpt lat="40.9814717" lon="14.7870683"><ele>439.0</ele><time>2026-04-25T09:31:11.11Z</time></trkpt><trkpt lat="40.9816017" lon="14.7871633"><ele>438.5</ele><time>2026-04-25T09:31:12.11Z</time></trkpt><trkpt lat="40.98173" lon="14.787235"><ele>438.0</ele><time>2026-04-25T09:31:13.11Z</time></trkpt><trkpt lat="40.981855" lon="14.7872767"><ele>437.5</ele><time>2026-04-25T09:31:14.11Z</time></trkpt><trkpt lat="40.9819783" lon="14.7872917"><ele>437.0</ele><time>2026-04-25T09:31:15.11Z</time></trkpt><trkpt lat="40.9821017" lon="14.787275"><ele>437.0</ele><time>2026-04-25T09:31:16.11Z</time></trkpt><trkpt lat="40.9822467" lon="14.7872317"><ele>437.0</ele><time>2026-04-25T09:31:17.11Z</time></trkpt><trkpt lat="40.9824033" lon="14.7871717"><ele>437.0</ele><time>2026-04-25T09:31:18.111Z</time></trkpt><trkpt lat="40.9825617" lon="14.7871017"><ele>439.0</ele><time>2026-04-25T09:31:19.11Z</time></trkpt><trkpt lat="40.982725" lon="14.787035"><ele>441.0</ele><time>2026-04-25T09:31:20.11Z</time></trkpt><trkpt lat="40.9828917" lon="14.786975"><ele>443.0</ele><time>2026-04-25T09:31:21.11Z</time></trkpt><trkpt lat="40.9830667" lon="14.786905"><ele>438.0</ele><time>2026-04-25T09:31:22.11Z</time></trkpt><trkpt lat="40.98324" lon="14.7868317"><ele>433.0</ele><time>2026-04-25T09:31:23.111Z</time></trkpt><trkpt lat="40.9834133" lon="14.7867483"><ele>428.0</ele><time>2026-04-25T09:31:24.11Z</time></trkpt><trkpt lat="40.9835917" lon="14.7866383"><ele>428.0</ele><time>2026-04-25T09:31:25.11Z</time></trkpt><trkpt lat="40.98377" lon="14.78654"><ele>428.0</ele><time>2026-04-25T09:31:26.111Z</time></trkpt><trkpt lat="40.9839267" lon="14.7864483"><ele>428.0</ele><time>2026-04-25T09:31:27.111Z</time></trkpt><trkpt lat="40.984085" lon="14.7863567"><ele>431.66666666666663</ele><time>2026-04-25T09:31:28.111Z</time></trkpt><trkpt lat="40.9842433" lon="14.786265"><ele>435.33333333333337</ele><time>2026-04-25T09:31:29.111Z</time></trkpt><trkpt lat="40.9843867" lon="14.7861733"><ele>439.0</ele><time>2026-04-25T09:31:30.111Z</time></trkpt><trkpt lat="40.9845167" lon="14.7860567"><ele>433.33333333333337</ele><time>2026-04-25T09:31:31.111Z</time></trkpt><trkpt lat="40.9846417" lon="14.7859217"><ele>427.66666666666663</ele><time>2026-04-25T09:31:32.111Z</time></trkpt><trkpt lat="40.9847517" lon="14.7857783"><ele>422.0</ele><time>2026-04-25T09:31:33.111Z</time></trkpt><trkpt lat="40.984855" lon="14.7856233"><ele>422.0</ele><time>2026-04-25T09:31:34.112Z</time></trkpt><trkpt lat="40.9849617" lon="14.7854617"><ele>422.0</ele><time>2026-04-25T09:31:35.111Z</time></trkpt><trkpt lat="40.9850667" lon="14.7852833"><ele>422.0</ele><time>2026-04-25T09:31:36.111Z</time></trkpt><trkpt lat="40.9851667" lon="14.78509"><ele>426.3333333333333</ele><time>2026-04-25T09:31:37.111Z</time></trkpt><trkpt lat="40.985265" lon="14.7848883"><ele>430.66666666666663</ele><time>2026-04-25T09:31:38.111Z</time></trkpt><trkpt lat="40.9853567" lon="14.784685"><ele>435.0</ele><time>2026-04-25T09:31:39.111Z</time></trkpt><trkpt lat="40.9854383" lon="14.78448"><ele>431.0</ele><time>2026-04-25T09:31:40.111Z</time></trkpt><trkpt lat="40.985515" lon="14.7842683"><ele>427.0</ele><time>2026-04-25T09:31:41.111Z</time></trkpt><trkpt lat="40.985575" lon="14.7840717"><ele>423.0</ele><time>2026-04-25T09:31:42.111Z</time></trkpt><trkpt lat="40.985635" lon="14.78388"><ele>423.0</ele><time>2026-04-25T09:31:43.111Z</time></trkpt><trkpt lat="40.9856867" lon="14.783695"><ele>423.0</ele><time>2026-04-25T09:31:44.111Z</time></trkpt><trkpt lat="40.9857333" lon="14.7835117"><ele>423.0</ele><time>2026-04-25T09:31:45.111Z</time></trkpt><trkpt lat="40.9857783" lon="14.78333"><ele>423.0</ele><time>2026-04-25T09:31:46.111Z</time></trkpt><trkpt lat="40.9858183" lon="14.7831383"><ele>424.33333333333337</ele><time>2026-04-25T09:31:47.112Z</time></trkpt><trkpt lat="40.985855" lon="14.782935"><ele>425.6666666666667</ele><time>2026-04-25T09:31:48.111Z</time></trkpt><trkpt lat="40.9858917" lon="14.78273"><ele>427.0</ele><time>2026-04-25T09:31:49.111Z</time></trkpt><trkpt lat="40.98593" lon="14.7825167"><ele>423.0</ele><time>2026-04-25T09:31:50.111Z</time></trkpt><trkpt lat="40.9859783" lon="14.7822967"><ele>419.0</ele><time>2026-04-25T09:31:51.111Z</time></trkpt><trkpt lat="40.986025" lon="14.78207"><ele>415.0</ele><time>2026-04-25T09:31:52.111Z</time></trkpt><trkpt lat="40.98607" lon="14.7818383"><ele>412.0</ele><time>2026-04-25T09:31:53.111Z</time></trkpt><trkpt lat="40.986115" lon="14.7816067"><ele>409.0</ele><time>2026-04-25T09:31:54.111Z</time></trkpt><trkpt lat="40.986165" lon="14.7813917"><ele>406.0</ele><time>2026-04-25T09:31:55.111Z</time></trkpt><trkpt lat="40.9862133" lon="14.78119"><ele>404.0</ele><time>2026-04-25T09:31:56.111Z</time></trkpt><trkpt lat="40.9862683" lon="14.7809983"><ele>402.0</ele><time>2026-04-25T09:31:57.111Z</time></trkpt><trkpt lat="40.9863317" lon="14.780795"><ele>400.0</ele><time>2026-04-25T09:31:58.111Z</time></trkpt><trkpt lat="40.9864017" lon="14.78061"><ele>400.0</ele><time>2026-04-25T09:31:59.111Z</time></trkpt><trkpt lat="40.98647" lon="14.78045"><ele>400.0</ele><time>2026-04-25T09:32:00.111Z</time></trkpt><trkpt lat="40.9865533" lon="14.7803167"><ele>400.0</ele><time>2026-04-25T09:32:01.111Z</time></trkpt><trkpt lat="40.9866533" lon="14.7802117"><ele>400.0</ele><time>2026-04-25T09:32:02.111Z</time></trkpt><trkpt lat="40.98676" lon="14.7801433"><ele>398.25</ele><time>2026-04-25T09:32:03.111Z</time></trkpt><trkpt lat="40.98688" lon="14.7801017"><ele>396.5</ele><time>2026-04-25T09:32:04.111Z</time></trkpt><trkpt lat="40.9870233" lon="14.780075"><ele>394.75</ele><time>2026-04-25T09:32:05.111Z</time></trkpt><trkpt lat="40.987195" lon="14.780055"><ele>393.0</ele><time>2026-04-25T09:32:06.111Z</time></trkpt><trkpt lat="40.98739" lon="14.78004"><ele>392.66666666666663</ele><time>2026-04-25T09:32:07.111Z</time></trkpt><trkpt lat="40.9875917" lon="14.780025"><ele>392.3333333333333</ele><time>2026-04-25T09:32:08.111Z</time></trkpt><trkpt lat="40.9877933" lon="14.7800133"><ele>392.0</ele><time>2026-04-25T09:32:09.111Z</time></trkpt><trkpt lat="40.9879783" lon="14.78"><ele>392.0</ele><time>2026-04-25T09:32:10.111Z</time></trkpt><trkpt lat="40.988155" lon="14.7799817"><ele>392.0</ele><time>2026-04-25T09:32:11.111Z</time></trkpt><trkpt lat="40.98833" lon="14.7799717"><ele>392.0</ele><time>2026-04-25T09:32:12.111Z</time></trkpt><trkpt lat="40.9884967" lon="14.7799683"><ele>392.3333333333333</ele><time>2026-04-25T09:32:13.111Z</time></trkpt><trkpt lat="40.9886567" lon="14.77997"><ele>392.66666666666663</ele><time>2026-04-25T09:32:14.112Z</time></trkpt><trkpt lat="40.9888083" lon="14.7799767"><ele>393.0</ele><time>2026-04-25T09:32:15.112Z</time></trkpt><trkpt lat="40.9889517" lon="14.77998"><ele>393.0</ele><time>2026-04-25T09:32:16.111Z</time></trkpt><trkpt lat="40.989085" lon="14.7799717"><ele>393.0</ele><time>2026-04-25T09:32:17.111Z</time></trkpt><trkpt lat="40.9892117" lon="14.77995"><ele>393.0</ele><time>2026-04-25T09:32:18.111Z</time></trkpt><trkpt lat="40.9893417" lon="14.7799017"><ele>393.0</ele><time>2026-04-25T09:32:19.112Z</time></trkpt><trkpt lat="40.989475" lon="14.7798417"><ele>394.75</ele><time>2026-04-25T09:32:20.111Z</time></trkpt><trkpt lat="40.98961" lon="14.7797583"><ele>396.5</ele><time>2026-04-25T09:32:21.111Z</time></trkpt><trkpt lat="40.9897283" lon="14.7796583"><ele>398.25</ele><time>2026-04-25T09:32:22.111Z</time></trkpt><trkpt lat="40.9898367" lon="14.77954"><ele>400.0</ele><time>2026-04-25T09:32:23.111Z</time></trkpt><trkpt lat="40.9899367" lon="14.779415"><ele>399.75</ele><time>2026-04-25T09:32:24.111Z</time></trkpt><trkpt lat="40.9900117" lon="14.7792717"><ele>399.5</ele><time>2026-04-25T09:32:25.111Z</time></trkpt><trkpt lat="40.9900617" lon="14.7791"><ele>399.25</ele><time>2026-04-25T09:32:26.111Z</time></trkpt><trkpt lat="40.9900883" lon="14.77891"><ele>399.0</ele><time>2026-04-25T09:32:27.111Z</time></trkpt><trkpt lat="40.9900967" lon="14.7787117"><ele>398.66666666666663</ele><time>2026-04-25T09:32:28.111Z</time></trkpt><trkpt lat="40.99009" lon="14.77851"><ele>398.3333333333333</ele><time>2026-04-25T09:32:29.111Z</time></trkpt><trkpt lat="40.99007" lon="14.778305"><ele>398.0</ele><time>2026-04-25T09:32:30.111Z</time></trkpt><trkpt lat="40.9900367" lon="14.7781"><ele>395.25</ele><time>2026-04-25T09:32:31.111Z</time></trkpt><trkpt lat="40.9899883" lon="14.777925"><ele>392.5</ele><time>2026-04-25T09:32:32.112Z</time></trkpt><trkpt lat="40.9899267" lon="14.7777733"><ele>389.75</ele><time>2026-04-25T09:32:33.111Z</time></trkpt><trkpt lat="40.989845" lon="14.77763"><ele>387.0</ele><time>2026-04-25T09:32:34.111Z</time></trkpt><trkpt lat="40.9897467" lon="14.7774783"><ele>387.0</ele><time>2026-04-25T09:32:35.111Z</time></trkpt><trkpt lat="40.9896467" lon="14.7773183"><ele>387.0</ele><time>2026-04-25T09:32:36.111Z</time></trkpt><trkpt lat="40.989545" lon="14.7771533"><ele>387.0</ele><time>2026-04-25T09:32:37.111Z</time></trkpt><trkpt lat="40.9894433" lon="14.776985"><ele>387.33333333333337</ele><time>2026-04-25T09:32:38.111Z</time></trkpt><trkpt lat="40.9893467" lon="14.7768083"><ele>387.6666666666667</ele><time>2026-04-25T09:32:39.111Z</time></trkpt><trkpt lat="40.9892533" lon="14.7766383"><ele>388.0</ele><time>2026-04-25T09:32:40.111Z</time></trkpt><trkpt lat="40.9891567" lon="14.776475"><ele>386.75</ele><time>2026-04-25T09:32:41.111Z</time></trkpt><trkpt lat="40.98907" lon="14.7763183"><ele>385.5</ele><time>2026-04-25T09:32:42.111Z</time></trkpt><trkpt lat="40.988995" lon="14.77616"><ele>384.25</ele><time>2026-04-25T09:32:43.111Z</time></trkpt><trkpt lat="40.9889433" lon="14.77601"><ele>383.0</ele><time>2026-04-25T09:32:44.111Z</time></trkpt><trkpt lat="40.9888967" lon="14.775875"><ele>382.4</ele><time>2026-04-25T09:32:45.111Z</time></trkpt><trkpt lat="40.9888717" lon="14.7757467"><ele>381.79999999999995</ele><time>2026-04-25T09:32:46.111Z</time></trkpt><trkpt lat="40.98888" lon="14.7756333"><ele>381.2</ele><time>2026-04-25T09:32:47.111Z</time></trkpt><trkpt lat="40.9889267" lon="14.7755367"><ele>380.6</ele><time>2026-04-25T09:32:48.111Z</time></trkpt><trkpt lat="40.9890033" lon="14.775465"><ele>380.0</ele><time>2026-04-25T09:32:49.112Z</time></trkpt><trkpt lat="40.9891" lon="14.7754283"><ele>379.6666666666667</ele><time>2026-04-25T09:32:50.111Z</time></trkpt><trkpt lat="40.98923" lon="14.7754433"><ele>379.3333333333333</ele><time>2026-04-25T09:32:51.111Z</time></trkpt><trkpt lat="40.9893833" lon="14.7754717"><ele>379.0</ele><time>2026-04-25T09:32:52.111Z</time></trkpt><trkpt lat="40.98955" lon="14.7755017"><ele>379.0</ele><time>2026-04-25T09:32:53.111Z</time></trkpt><trkpt lat="40.989725" lon="14.7755333"><ele>379.0</ele><time>2026-04-25T09:32:54.111Z</time></trkpt><trkpt lat="40.9898967" lon="14.7755717"><ele>379.0</ele><time>2026-04-25T09:32:55.111Z</time></trkpt><trkpt lat="40.990055" lon="14.77561"><ele>379.0</ele><time>2026-04-25T09:32:56.111Z</time></trkpt><trkpt lat="40.9902017" lon="14.7756333"><ele>379.0</ele><time>2026-04-25T09:32:57.111Z</time></trkpt><trkpt lat="40.9903533" lon="14.77563"><ele>379.0</ele><time>2026-04-25T09:32:58.111Z</time></trkpt><trkpt lat="40.9905" lon="14.775605"><ele>379.0</ele><time>2026-04-25T09:32:59.111Z</time></trkpt><trkpt lat="40.9906317" lon="14.7755733"><ele>379.0</ele><time>2026-04-25T09:33:00.111Z</time></trkpt><trkpt lat="40.9907483" lon="14.7755317"><ele>379.0</ele><time>2026-04-25T09:33:01.111Z</time></trkpt><trkpt lat="40.9908517" lon="14.7754633"><ele>379.0</ele><time>2026-04-25T09:33:02.111Z</time></trkpt><trkpt lat="40.9909417" lon="14.775355"><ele>379.0</ele><time>2026-04-25T09:33:03.111Z</time></trkpt><trkpt lat="40.9910167" lon="14.775225"><ele>381.25</ele><time>2026-04-25T09:33:04.111Z</time></trkpt><trkpt lat="40.9910633" lon="14.77507"><ele>383.5</ele><time>2026-04-25T09:33:05.111Z</time></trkpt><trkpt lat="40.9910883" lon="14.7748833"><ele>385.75</ele><time>2026-04-25T09:33:06.111Z</time></trkpt><trkpt lat="40.9910917" lon="14.7746867"><ele>388.0</ele><time>2026-04-25T09:33:07.111Z</time></trkpt><trkpt lat="40.9910667" lon="14.77449"><ele>386.5</ele><time>2026-04-25T09:33:08.111Z</time></trkpt><trkpt lat="40.991025" lon="14.7743033"><ele>385.0</ele><time>2026-04-25T09:33:09.111Z</time></trkpt><trkpt lat="40.99099" lon="14.7741333"><ele>383.5</ele><time>2026-04-25T09:33:10.111Z</time></trkpt><trkpt lat="40.9909717" lon="14.7739567"><ele>382.0</ele><time>2026-04-25T09:33:11.111Z</time></trkpt><trkpt lat="40.9909633" lon="14.77378"><ele>382.0</ele><time>2026-04-25T09:33:12.111Z</time></trkpt><trkpt lat="40.9909717" lon="14.7735917"><ele>382.0</ele><time>2026-04-25T09:33:13.111Z</time></trkpt><trkpt lat="40.990995" lon="14.773395"><ele>382.0</ele><time>2026-04-25T09:33:14.111Z</time></trkpt><trkpt lat="40.991035" lon="14.7731967"><ele>382.0</ele><time>2026-04-25T09:33:15.111Z</time></trkpt><trkpt lat="40.9910817" lon="14.7729867"><ele>380.25</ele><time>2026-04-25T09:33:16.112Z</time></trkpt><trkpt lat="40.9911267" lon="14.7727783"><ele>378.5</ele><time>2026-04-25T09:33:17.112Z</time></trkpt><trkpt lat="40.9911683" lon="14.77258"><ele>376.75</ele><time>2026-04-25T09:33:18.111Z</time></trkpt><trkpt lat="40.9911967" lon="14.77242"><ele>375.0</ele><time>2026-04-25T09:33:19.111Z</time></trkpt><trkpt lat="40.99124" lon="14.7722767"><ele>373.6</ele><time>2026-04-25T09:33:20.111Z</time></trkpt><trkpt lat="40.9913033" lon="14.7721567"><ele>372.2</ele><time>2026-04-25T09:33:21.111Z</time></trkpt><trkpt lat="40.9913733" lon="14.7720683"><ele>370.79999999999995</ele><time>2026-04-25T09:33:22.111Z</time></trkpt><trkpt lat="40.9914633" lon="14.772"><ele>369.4</ele><time>2026-04-25T09:33:23.111Z</time></trkpt><trkpt lat="40.991565" lon="14.77196"><ele>368.0</ele><time>2026-04-25T09:33:24.111Z</time></trkpt><trkpt lat="40.9916883" lon="14.7719517"><ele>365.6666666666667</ele><time>2026-04-25T09:33:25.111Z</time></trkpt><trkpt lat="40.9918233" lon="14.771985"><ele>363.3333333333333</ele><time>2026-04-25T09:33:26.111Z</time></trkpt><trkpt lat="40.9919817" lon="14.7720367"><ele>361.0</ele><time>2026-04-25T09:33:27.111Z</time></trkpt><trkpt lat="40.9921617" lon="14.772095"><ele>361.0</ele><time>2026-04-25T09:33:28.111Z</time></trkpt><trkpt lat="40.9923533" lon="14.772155"><ele>361.0</ele><time>2026-04-25T09:33:29.111Z</time></trkpt><trkpt lat="40.992545" lon="14.7722133"><ele>361.0</ele><time>2026-04-25T09:33:30.111Z</time></trkpt><trkpt lat="40.99273" lon="14.7722583"><ele>361.0</ele><time>2026-04-25T09:33:31.112Z</time></trkpt><trkpt lat="40.9928833" lon="14.7722867"><ele>361.0</ele><time>2026-04-25T09:33:32.111Z</time></trkpt><trkpt lat="40.9930233" lon="14.7722917"><ele>361.0</ele><time>2026-04-25T09:33:33.111Z</time></trkpt><trkpt lat="40.9931517" lon="14.7722633"><ele>361.0</ele><time>2026-04-25T09:33:34.111Z</time></trkpt><trkpt lat="40.99328" lon="14.7722117"><ele>361.5</ele><time>2026-04-25T09:33:35.111Z</time></trkpt><trkpt lat="40.9933967" lon="14.7721217"><ele>362.0</ele><time>2026-04-25T09:33:36.111Z</time></trkpt><trkpt lat="40.9935" lon="14.771995"><ele>362.5</ele><time>2026-04-25T09:33:37.111Z</time></trkpt><trkpt lat="40.9935883" lon="14.7718617"><ele>363.0</ele><time>2026-04-25T09:33:38.111Z</time></trkpt><trkpt lat="40.9936683" lon="14.77172"><ele>361.5</ele><time>2026-04-25T09:33:39.111Z</time></trkpt><trkpt lat="40.993745" lon="14.77157"><ele>360.0</ele><time>2026-04-25T09:33:40.112Z</time></trkpt><trkpt lat="40.9938267" lon="14.771405"><ele>358.5</ele><time>2026-04-25T09:33:41.111Z</time></trkpt><trkpt lat="40.993915" lon="14.7712333"><ele>357.0</ele><time>2026-04-25T09:33:42.111Z</time></trkpt><trkpt lat="40.9940083" lon="14.7710683"><ele>355.0</ele><time>2026-04-25T09:33:43.112Z</time></trkpt><trkpt lat="40.9941033" lon="14.7709017"><ele>353.0</ele><time>2026-04-25T09:33:44.111Z</time></trkpt><trkpt lat="40.994215" lon="14.770745"><ele>351.0</ele><time>2026-04-25T09:33:45.111Z</time></trkpt><trkpt lat="40.9943317" lon="14.7705867"><ele>351.0</ele><time>2026-04-25T09:33:46.112Z</time></trkpt><trkpt lat="40.9944533" lon="14.7704317"><ele>351.0</ele><time>2026-04-25T09:33:47.111Z</time></trkpt><trkpt lat="40.99458" lon="14.7702783"><ele>351.0</ele><time>2026-04-25T09:33:48.111Z</time></trkpt><trkpt lat="40.99471" lon="14.7701283"><ele>350.6666666666667</ele><time>2026-04-25T09:33:49.111Z</time></trkpt><trkpt lat="40.9948433" lon="14.76998"><ele>350.33333333333337</ele><time>2026-04-25T09:33:50.111Z</time></trkpt><trkpt lat="40.9949883" lon="14.7698267"><ele>350.0</ele><time>2026-04-25T09:33:51.112Z</time></trkpt><trkpt lat="40.9951317" lon="14.7696717"><ele>350.0</ele><time>2026-04-25T09:33:52.111Z</time></trkpt><trkpt lat="40.9952617" lon="14.7695283"><ele>350.0</ele><time>2026-04-25T09:33:53.111Z</time></trkpt><trkpt lat="40.99537" lon="14.7694033"><ele>350.0</ele><time>2026-04-25T09:33:54.111Z</time></trkpt><trkpt lat="40.9954633" lon="14.7693017"><ele>350.0</ele><time>2026-04-25T09:33:55.111Z</time></trkpt><trkpt lat="40.995555" lon="14.7692167"><ele>348.0</ele><time>2026-04-25T09:33:56.111Z</time></trkpt><trkpt lat="40.995645" lon="14.7691583"><ele>346.0</ele><time>2026-04-25T09:33:57.111Z</time></trkpt><trkpt lat="40.9957433" lon="14.76912"><ele>344.0</ele><time>2026-04-25T09:33:58.111Z</time></trkpt><trkpt lat="40.995855" lon="14.769105"><ele>342.0</ele><time>2026-04-25T09:33:59.111Z</time></trkpt><trkpt lat="40.995985" lon="14.7691317"><ele>340.0</ele><time>2026-04-25T09:34:00.111Z</time></trkpt><trkpt lat="40.9961267" lon="14.7691567"><ele>339.3333333333333</ele><time>2026-04-25T09:34:01.111Z</time></trkpt><trkpt lat="40.996275" lon="14.76919"><ele>338.6666666666667</ele><time>2026-04-25T09:34:02.111Z</time></trkpt><trkpt lat="40.9964367" lon="14.7692183"><ele>338.0</ele><time>2026-04-25T09:34:03.111Z</time></trkpt><trkpt lat="40.9966017" lon="14.7692583"><ele>337.5</ele><time>2026-04-25T09:34:04.111Z</time></trkpt><trkpt lat="40.9967533" lon="14.7692983"><ele>337.0</ele><time>2026-04-25T09:34:05.111Z</time></trkpt><trkpt lat="40.9968867" lon="14.7693217"><ele>336.5</ele><time>2026-04-25T09:34:06.112Z</time></trkpt><trkpt lat="40.9970067" lon="14.7693317"><ele>336.0</ele><time>2026-04-25T09:34:07.112Z</time></trkpt><trkpt lat="40.9971233" lon="14.7693167"><ele>336.0</ele><time>2026-04-25T09:34:08.111Z</time></trkpt><trkpt lat="40.99725" lon="14.769285"><ele>336.0</ele><time>2026-04-25T09:34:09.112Z</time></trkpt><trkpt lat="40.9973783" lon="14.76923"><ele>336.0</ele><time>2026-04-25T09:34:10.111Z</time></trkpt><trkpt lat="40.9975067" lon="14.7691433"><ele>336.0</ele><time>2026-04-25T09:34:11.111Z</time></trkpt><trkpt lat="40.997625" lon="14.7690433"><ele>335.6666666666667</ele><time>2026-04-25T09:34:12.111Z</time></trkpt><trkpt lat="40.99776" lon="14.7688933"><ele>335.33333333333337</ele><time>2026-04-25T09:34:13.111Z</time></trkpt><trkpt lat="40.9978983" lon="14.7687267"><ele>335.0</ele><time>2026-04-25T09:34:14.111Z</time></trkpt><trkpt lat="40.998035" lon="14.768545"><ele>333.33333333333337</ele><time>2026-04-25T09:34:15.111Z</time></trkpt><trkpt lat="40.9981717" lon="14.768365"><ele>331.6666666666667</ele><time>2026-04-25T09:34:16.111Z</time></trkpt><trkpt lat="40.998305" lon="14.7681867"><ele>330.0</ele><time>2026-04-25T09:34:17.111Z</time></trkpt><trkpt lat="40.9984267" lon="14.7680367"><ele>330.0</ele><time>2026-04-25T09:34:18.111Z</time></trkpt><trkpt lat="40.9985433" lon="14.7679067"><ele>330.0</ele><time>2026-04-25T09:34:19.111Z</time></trkpt><trkpt lat="40.9986617" lon="14.76781"><ele>330.0</ele><time>2026-04-25T09:34:20.111Z</time></trkpt><trkpt lat="40.9987917" lon="14.7677517"><ele>330.0</ele><time>2026-04-25T09:34:21.111Z</time></trkpt><trkpt lat="40.9989317" lon="14.7677017"><ele>327.3333333333333</ele><time>2026-04-25T09:34:22.111Z</time></trkpt><trkpt lat="40.99908" lon="14.7676717"><ele>324.66666666666663</ele><time>2026-04-25T09:34:23.111Z</time></trkpt><trkpt lat="40.9992417" lon="14.7676633"><ele>322.0</ele><time>2026-04-25T09:34:24.111Z</time></trkpt><trkpt lat="40.9994117" lon="14.7676717"><ele>322.0</ele><time>2026-04-25T09:34:25.112Z</time></trkpt><trkpt lat="40.9995717" lon="14.767675"><ele>322.0</ele><time>2026-04-25T09:34:26.111Z</time></trkpt><trkpt lat="40.9997167" lon="14.7676783"><ele>322.0</ele><time>2026-04-25T09:34:27.111Z</time></trkpt><trkpt lat="40.99984" lon="14.7676717"><ele>322.0</ele><time>2026-04-25T09:34:28.111Z</time></trkpt><trkpt lat="40.99995" lon="14.7676417"><ele>322.0</ele><time>2026-04-25T09:34:29.111Z</time></trkpt><trkpt lat="41.0000517" lon="14.76757"><ele>322.0</ele><time>2026-04-25T09:34:30.111Z</time></trkpt><trkpt lat="41.0001383" lon="14.7674683"><ele>322.0</ele><time>2026-04-25T09:34:31.111Z</time></trkpt><trkpt lat="41.00022" lon="14.76734"><ele>322.0</ele><time>2026-04-25T09:34:32.111Z</time></trkpt><trkpt lat="41.0003017" lon="14.7671933"><ele>322.0</ele><time>2026-04-25T09:34:33.111Z</time></trkpt><trkpt lat="41.0003783" lon="14.7670267"><ele>322.0</ele><time>2026-04-25T09:34:34.111Z</time></trkpt><trkpt lat="41.0004567" lon="14.766845"><ele>322.0</ele><time>2026-04-25T09:34:35.111Z</time></trkpt><trkpt lat="41.0005283" lon="14.7666533"><ele>318.66666666666663</ele><time>2026-04-25T09:34:36.112Z</time></trkpt><trkpt lat="41.000605" lon="14.7664483"><ele>315.3333333333333</ele><time>2026-04-25T09:34:37.111Z</time></trkpt><trkpt lat="41.0006683" lon="14.76626"><ele>312.0</ele><time>2026-04-25T09:34:38.111Z</time></trkpt><trkpt lat="41.0007167" lon="14.7660967"><ele>311.5</ele><time>2026-04-25T09:34:39.111Z</time></trkpt><trkpt lat="41.000775" lon="14.7659567"><ele>311.0</ele><time>2026-04-25T09:34:40.111Z</time></trkpt><trkpt lat="41.0008417" lon="14.7658317"><ele>310.5</ele><time>2026-04-25T09:34:41.111Z</time></trkpt><trkpt lat="41.0009217" lon="14.7657333"><ele>310.0</ele><time>2026-04-25T09:34:42.111Z</time></trkpt><trkpt lat="41.0010217" lon="14.7656483"><ele>310.0</ele><time>2026-04-25T09:34:43.111Z</time></trkpt><trkpt lat="41.001145" lon="14.7655817"><ele>310.0</ele><time>2026-04-25T09:34:44.111Z</time></trkpt><trkpt lat="41.0012817" lon="14.765535"><ele>310.0</ele><time>2026-04-25T09:34:45.111Z</time></trkpt><trkpt lat="41.0014317" lon="14.7654967"><ele>310.0</ele><time>2026-04-25T09:34:46.111Z</time></trkpt><trkpt lat="41.0015817" lon="14.7654783"><ele>309.5</ele><time>2026-04-25T09:34:47.111Z</time></trkpt><trkpt lat="41.0017217" lon="14.765475"><ele>309.0</ele><time>2026-04-25T09:34:48.111Z</time></trkpt><trkpt lat="41.0018583" lon="14.7654983"><ele>308.5</ele><time>2026-04-25T09:34:49.111Z</time></trkpt><trkpt lat="41.0019817" lon="14.7655617"><ele>308.0</ele><time>2026-04-25T09:34:50.111Z</time></trkpt><trkpt lat="41.0021017" lon="14.7656533"><ele>308.0</ele><time>2026-04-25T09:34:51.111Z</time></trkpt><trkpt lat="41.002235" lon="14.7657733"><ele>308.0</ele><time>2026-04-25T09:34:52.111Z</time></trkpt><trkpt lat="41.00237" lon="14.7659183"><ele>308.0</ele><time>2026-04-25T09:34:53.111Z</time></trkpt><trkpt lat="41.00251" lon="14.7660867"><ele>307.6666666666667</ele><time>2026-04-25T09:34:54.111Z</time></trkpt><trkpt lat="41.0026633" lon="14.766265"><ele>307.3333333333333</ele><time>2026-04-25T09:34:55.111Z</time></trkpt><trkpt lat="41.0028133" lon="14.7664333"><ele>307.0</ele><time>2026-04-25T09:34:56.111Z</time></trkpt><trkpt lat="41.00296" lon="14.7665967"><ele>307.0</ele><time>2026-04-25T09:34:57.111Z</time></trkpt><trkpt lat="41.0031083" lon="14.76674"><ele>307.0</ele><time>2026-04-25T09:34:58.111Z</time></trkpt><trkpt lat="41.0032533" lon="14.7668767"><ele>307.0</ele><time>2026-04-25T09:34:59.111Z</time></trkpt><trkpt lat="41.0034017" lon="14.7670033"><ele>306.0</ele><time>2026-04-25T09:35:00.111Z</time></trkpt><trkpt lat="41.0035533" lon="14.7671233"><ele>305.0</ele><time>2026-04-25T09:35:01.111Z</time></trkpt><trkpt lat="41.0037017" lon="14.7672483"><ele>304.0</ele><time>2026-04-25T09:35:02.112Z</time></trkpt><trkpt lat="41.003845" lon="14.7673667"><ele>304.0</ele><time>2026-04-25T09:35:03.111Z</time></trkpt><trkpt lat="41.0039833" lon="14.767475"><ele>304.0</ele><time>2026-04-25T09:35:04.111Z</time></trkpt><trkpt lat="41.004095" lon="14.767565"><ele>304.0</ele><time>2026-04-25T09:35:05.111Z</time></trkpt><trkpt lat="41.0041983" lon="14.767655"><ele>304.0</ele><time>2026-04-25T09:35:06.112Z</time></trkpt><trkpt lat="41.0042867" lon="14.7677483"><ele>302.16666666666663</ele><time>2026-04-25T09:35:07.111Z</time></trkpt><trkpt lat="41.0043533" lon="14.7678367"><ele>300.3333333333333</ele><time>2026-04-25T09:35:08.111Z</time></trkpt><trkpt lat="41.004405" lon="14.76793"><ele>298.5</ele><time>2026-04-25T09:35:09.111Z</time></trkpt><trkpt lat="41.0044267" lon="14.7680233"><ele>296.6666666666667</ele><time>2026-04-25T09:35:10.111Z</time></trkpt><trkpt lat="41.0044183" lon="14.76812"><ele>294.83333333333337</ele><time>2026-04-25T09:35:11.111Z</time></trkpt><trkpt lat="41.0044033" lon="14.7682183"><ele>293.0</ele><time>2026-04-25T09:35:12.111Z</time></trkpt><trkpt lat="41.0043917" lon="14.768325"><ele>293.0</ele><time>2026-04-25T09:35:13.111Z</time></trkpt><trkpt lat="41.0043967" lon="14.768425"><ele>293.0</ele><time>2026-04-25T09:35:14.111Z</time></trkpt><trkpt lat="41.0044183" lon="14.7685217"><ele>293.0</ele><time>2026-04-25T09:35:15.111Z</time></trkpt><trkpt lat="41.00446" lon="14.7686033"><ele>293.0</ele><time>2026-04-25T09:35:16.111Z</time></trkpt><trkpt lat="41.00452" lon="14.7686667"><ele>293.0</ele><time>2026-04-25T09:35:17.111Z</time></trkpt><trkpt lat="41.0046017" lon="14.7687033"><ele>293.0</ele><time>2026-04-25T09:35:18.111Z</time></trkpt><trkpt lat="41.0047067" lon="14.7687167"><ele>292.75</ele><time>2026-04-25T09:35:19.111Z</time></trkpt><trkpt lat="41.0048233" lon="14.76871"><ele>292.5</ele><time>2026-04-25T09:35:20.111Z</time></trkpt><trkpt lat="41.0049583" lon="14.7686933"><ele>292.25</ele><time>2026-04-25T09:35:21.111Z</time></trkpt><trkpt lat="41.0050967" lon="14.7686817"><ele>292.0</ele><time>2026-04-25T09:35:22.111Z</time></trkpt><trkpt lat="41.0052433" lon="14.7686867"><ele>292.0</ele><time>2026-04-25T09:35:23.111Z</time></trkpt><trkpt lat="41.0053817" lon="14.7687033"><ele>292.0</ele><time>2026-04-25T09:35:24.111Z</time></trkpt><trkpt lat="41.0055383" lon="14.7687133"><ele>292.0</ele><time>2026-04-25T09:35:25.111Z</time></trkpt><trkpt lat="41.0056983" lon="14.7687083"><ele>289.75</ele><time>2026-04-25T09:35:26.112Z</time></trkpt><trkpt lat="41.005855" lon="14.7686883"><ele>287.5</ele><time>2026-04-25T09:35:27.111Z</time></trkpt><trkpt lat="41.0059967" lon="14.7686933"><ele>285.25</ele><time>2026-04-25T09:35:28.111Z</time></trkpt><trkpt lat="41.0061333" lon="14.768735"><ele>283.0</ele><time>2026-04-25T09:35:29.112Z</time></trkpt><trkpt lat="41.0062567" lon="14.76882"><ele>283.0</ele><time>2026-04-25T09:35:30.112Z</time></trkpt><trkpt lat="41.0063833" lon="14.768925"><ele>283.0</ele><time>2026-04-25T09:35:31.111Z</time></trkpt><trkpt lat="41.00651" lon="14.76903"><ele>283.0</ele><time>2026-04-25T09:35:32.111Z</time></trkpt><trkpt lat="41.0066183" lon="14.76914"><ele>283.0</ele><time>2026-04-25T09:35:33.111Z</time></trkpt><trkpt lat="41.006705" lon="14.76927"><ele>279.25</ele><time>2026-04-25T09:35:34.111Z</time></trkpt><trkpt lat="41.0067683" lon="14.76942"><ele>275.5</ele><time>2026-04-25T09:35:35.111Z</time></trkpt><trkpt lat="41.0068067" lon="14.76958"><ele>271.75</ele><time>2026-04-25T09:35:36.111Z</time></trkpt><trkpt lat="41.00683" lon="14.769775"><ele>268.0</ele><time>2026-04-25T09:35:37.111Z</time></trkpt><trkpt lat="41.006835" lon="14.770005"><ele>269.0</ele><time>2026-04-25T09:35:38.111Z</time></trkpt><trkpt lat="41.006845" lon="14.7702167"><ele>270.0</ele><time>2026-04-25T09:35:39.111Z</time></trkpt><trkpt lat="41.006855" lon="14.7703917"><ele>271.0</ele><time>2026-04-25T09:35:40.111Z</time></trkpt><trkpt lat="41.0068833" lon="14.770535"><ele>272.0</ele><time>2026-04-25T09:35:41.111Z</time></trkpt><trkpt lat="41.0069233" lon="14.77064"><ele>272.0</ele><time>2026-04-25T09:35:42.111Z</time></trkpt><trkpt lat="41.0069817" lon="14.7707117"><ele>272.0</ele><time>2026-04-25T09:35:43.111Z</time></trkpt><trkpt lat="41.0070717" lon="14.7707517"><ele>272.0</ele><time>2026-04-25T09:35:44.111Z</time></trkpt><trkpt lat="41.0071917" lon="14.7707767"><ele>272.0</ele><time>2026-04-25T09:35:45.111Z</time></trkpt><trkpt lat="41.0073233" lon="14.7708033"><ele>272.0</ele><time>2026-04-25T09:35:46.111Z</time></trkpt><trkpt lat="41.0074633" lon="14.7708517"><ele>272.0</ele><time>2026-04-25T09:35:47.111Z</time></trkpt><trkpt lat="41.007615" lon="14.77092"><ele>272.0</ele><time>2026-04-25T09:35:48.111Z</time></trkpt><trkpt lat="41.0077667" lon="14.7710233"><ele>272.0</ele><time>2026-04-25T09:35:49.111Z</time></trkpt><trkpt lat="41.007915" lon="14.7711467"><ele>272.0</ele><time>2026-04-25T09:35:50.111Z</time></trkpt><trkpt lat="41.0080517" lon="14.77128"><ele>272.0</ele><time>2026-04-25T09:35:51.111Z</time></trkpt><trkpt lat="41.0081767" lon="14.771405"><ele>272.0</ele><time>2026-04-25T09:35:52.111Z</time></trkpt><trkpt lat="41.008285" lon="14.771525"><ele>270.8</ele><time>2026-04-25T09:35:53.111Z</time></trkpt><trkpt lat="41.00838" lon="14.77164"><ele>269.6</ele><time>2026-04-25T09:35:54.111Z</time></trkpt><trkpt lat="41.0084633" lon="14.7717467"><ele>268.40000000000003</ele><time>2026-04-25T09:35:55.111Z</time></trkpt><trkpt lat="41.0085483" lon="14.771835"><ele>267.2</ele><time>2026-04-25T09:35:56.111Z</time></trkpt><trkpt lat="41.0086283" lon="14.771905"><ele>266.0</ele><time>2026-04-25T09:35:57.111Z</time></trkpt><trkpt lat="41.0087117" lon="14.77194"><ele>266.0</ele><time>2026-04-25T09:35:58.111Z</time></trkpt><trkpt lat="41.0087967" lon="14.7719533"><ele>266.0</ele><time>2026-04-25T09:35:59.111Z</time></trkpt><trkpt lat="41.0089017" lon="14.7719517"><ele>266.0</ele><time>2026-04-25T09:36:00.111Z</time></trkpt><trkpt lat="41.0090067" lon="14.7719467"><ele>266.0</ele><time>2026-04-25T09:36:01.111Z</time></trkpt><trkpt lat="41.0091133" lon="14.7719567"><ele>266.0</ele><time>2026-04-25T09:36:02.111Z</time></trkpt><trkpt lat="41.0092133" lon="14.772"><ele>263.0</ele><time>2026-04-25T09:36:03.111Z</time></trkpt><trkpt lat="41.0093183" lon="14.7720767"><ele>260.0</ele><time>2026-04-25T09:36:04.111Z</time></trkpt><trkpt lat="41.00941" lon="14.77218"><ele>257.0</ele><time>2026-04-25T09:36:05.111Z</time></trkpt><trkpt lat="41.0094983" lon="14.7722767"><ele>254.0</ele><time>2026-04-25T09:36:06.111Z</time></trkpt><trkpt lat="41.0095833" lon="14.7723717"><ele>254.00000000000003</ele><time>2026-04-25T09:36:07.111Z</time></trkpt><trkpt lat="41.009665" lon="14.7724617"><ele>254.0</ele><time>2026-04-25T09:36:08.111Z</time></trkpt><trkpt lat="41.009725" lon="14.7725217"><ele>254.0</ele><time>2026-04-25T09:36:09.111Z</time></trkpt><trkpt lat="41.0097967" lon="14.7725917"><ele>254.0</ele><time>2026-04-25T09:36:11.111Z</time></trkpt><trkpt lat="41.0098717" lon="14.7726233"><ele>254.00000000000003</ele><time>2026-04-25T09:36:15.111Z</time></trkpt><trkpt lat="41.0099333" lon="14.7725683"><ele>254.0</ele><time>2026-04-25T09:36:18.111Z</time></trkpt><trkpt lat="41.0099383" lon="14.7724283"><ele>254.0</ele><time>2026-04-25T09:36:20.111Z</time></trkpt><trkpt lat="41.009915" lon="14.77234"><ele>253.99999999999997</ele><time>2026-04-25T09:36:21.112Z</time></trkpt><trkpt lat="41.0098617" lon="14.7722333"><ele>253.99999999999997</ele><time>2026-04-25T09:36:22.111Z</time></trkpt><trkpt lat="41.0097933" lon="14.7721333"><ele>254.0</ele><time>2026-04-25T09:36:23.111Z</time></trkpt><trkpt lat="41.009705" lon="14.7720317"><ele>254.0</ele><time>2026-04-25T09:36:24.111Z</time></trkpt><trkpt lat="41.0095983" lon="14.7719267"><ele>248.66666666666669</ele><time>2026-04-25T09:36:25.111Z</time></trkpt><trkpt lat="41.009475" lon="14.7718167"><ele>243.33333333333331</ele><time>2026-04-25T09:36:26.112Z</time></trkpt><trkpt lat="41.00934" lon="14.7717017"><ele>238.0</ele><time>2026-04-25T09:36:27.111Z</time></trkpt><trkpt lat="41.009205" lon="14.77158"><ele>242.0</ele><time>2026-04-25T09:36:28.111Z</time></trkpt><trkpt lat="41.0090733" lon="14.7714717"><ele>246.0</ele><time>2026-04-25T09:36:29.112Z</time></trkpt><trkpt lat="41.00896" lon="14.7713667"><ele>250.0</ele><time>2026-04-25T09:36:30.111Z</time></trkpt><trkpt lat="41.0088433" lon="14.7712717"><ele>254.0</ele><time>2026-04-25T09:36:31.111Z</time></trkpt><trkpt lat="41.00873" lon="14.7711667"><ele>254.0</ele><time>2026-04-25T09:36:32.111Z</time></trkpt><trkpt lat="41.008625" lon="14.7710617"><ele>254.0</ele><time>2026-04-25T09:36:33.111Z</time></trkpt><trkpt lat="41.00852" lon="14.77093"><ele>254.0</ele><time>2026-04-25T09:36:34.111Z</time></trkpt><trkpt lat="41.0084217" lon="14.7707767"><ele>254.0</ele><time>2026-04-25T09:36:35.111Z</time></trkpt><trkpt lat="41.0083533" lon="14.7706183"><ele>254.5</ele><time>2026-04-25T09:36:36.111Z</time></trkpt><trkpt lat="41.0083167" lon="14.7704717"><ele>255.0</ele><time>2026-04-25T09:36:37.111Z</time></trkpt><trkpt lat="41.00828" lon="14.77028"><ele>255.5</ele><time>2026-04-25T09:36:38.112Z</time></trkpt><trkpt lat="41.0082517" lon="14.7700833"><ele>256.0</ele><time>2026-04-25T09:36:39.111Z</time></trkpt><trkpt lat="41.00821" lon="14.7699233"><ele>252.75</ele><time>2026-04-25T09:36:40.111Z</time></trkpt><trkpt lat="41.00815" lon="14.769785"><ele>249.5</ele><time>2026-04-25T09:36:41.111Z</time></trkpt><trkpt lat="41.0080617" lon="14.7696433"><ele>246.25</ele><time>2026-04-25T09:36:42.111Z</time></trkpt><trkpt lat="41.0079583" lon="14.7694883"><ele>243.0</ele><time>2026-04-25T09:36:43.111Z</time></trkpt><trkpt lat="41.00786" lon="14.7693567"><ele>240.60000000000002</ele><time>2026-04-25T09:36:44.111Z</time></trkpt><trkpt lat="41.0077817" lon="14.7692333"><ele>238.20000000000002</ele><time>2026-04-25T09:36:45.111Z</time></trkpt><trkpt lat="41.0077283" lon="14.7691217"><ele>235.8</ele><time>2026-04-25T09:36:46.111Z</time></trkpt><trkpt lat="41.0077083" lon="14.769015"><ele>233.4</ele><time>2026-04-25T09:36:47.111Z</time></trkpt><trkpt lat="41.0077133" lon="14.7689033"><ele>231.0</ele><time>2026-04-25T09:36:48.111Z</time></trkpt><trkpt lat="41.0077533" lon="14.768795"><ele>231.0</ele><time>2026-04-25T09:36:49.111Z</time></trkpt><trkpt lat="41.0078217" lon="14.7686967"><ele>231.0</ele><time>2026-04-25T09:36:50.111Z</time></trkpt><trkpt lat="41.0079183" lon="14.7686217"><ele>231.0</ele><time>2026-04-25T09:36:51.111Z</time></trkpt><trkpt lat="41.0080233" lon="14.76856"><ele>231.0</ele><time>2026-04-25T09:36:52.111Z</time></trkpt><trkpt lat="41.0081433" lon="14.7685017"><ele>229.0</ele><time>2026-04-25T09:36:53.111Z</time></trkpt><trkpt lat="41.008275" lon="14.768455"><ele>227.0</ele><time>2026-04-25T09:36:54.112Z</time></trkpt><trkpt lat="41.0084217" lon="14.768435"><ele>225.0</ele><time>2026-04-25T09:36:55.112Z</time></trkpt><trkpt lat="41.0085717" lon="14.7684267"><ele>223.0</ele><time>2026-04-25T09:36:56.111Z</time></trkpt><trkpt lat="41.008725" lon="14.7684183"><ele>222.75</ele><time>2026-04-25T09:36:57.111Z</time></trkpt><trkpt lat="41.0088833" lon="14.7684317"><ele>222.5</ele><time>2026-04-25T09:36:58.111Z</time></trkpt><trkpt lat="41.0090217" lon="14.76844"><ele>222.25</ele><time>2026-04-25T09:36:59.111Z</time></trkpt><trkpt lat="41.00914" lon="14.7684417"><ele>222.0</ele><time>2026-04-25T09:37:00.111Z</time></trkpt><trkpt lat="41.0092533" lon="14.76843"><ele>221.75</ele><time>2026-04-25T09:37:01.111Z</time></trkpt><trkpt lat="41.009365" lon="14.7683867"><ele>221.5</ele><time>2026-04-25T09:37:02.111Z</time></trkpt><trkpt lat="41.009465" lon="14.7683217"><ele>221.25</ele><time>2026-04-25T09:37:03.111Z</time></trkpt><trkpt lat="41.009565" lon="14.76822"><ele>221.0</ele><time>2026-04-25T09:37:04.111Z</time></trkpt><trkpt lat="41.0096617" lon="14.7680867"><ele>221.0</ele><time>2026-04-25T09:37:05.111Z</time></trkpt><trkpt lat="41.0097617" lon="14.7679183"><ele>221.0</ele><time>2026-04-25T09:37:06.111Z</time></trkpt><trkpt lat="41.0098633" lon="14.7677217"><ele>221.0</ele><time>2026-04-25T09:37:07.111Z</time></trkpt><trkpt lat="41.00996" lon="14.7675217"><ele>219.66666666666669</ele><time>2026-04-25T09:37:08.111Z</time></trkpt><trkpt lat="41.010055" lon="14.7673133"><ele>218.33333333333331</ele><time>2026-04-25T09:37:09.111Z</time></trkpt><trkpt lat="41.0101583" lon="14.7671083"><ele>217.0</ele><time>2026-04-25T09:37:10.111Z</time></trkpt><trkpt lat="41.01025" lon="14.7669133"><ele>217.66666666666666</ele><time>2026-04-25T09:37:11.111Z</time></trkpt><trkpt lat="41.0103317" lon="14.76673"><ele>218.33333333333331</ele><time>2026-04-25T09:37:12.112Z</time></trkpt><trkpt lat="41.0104083" lon="14.766555"><ele>219.0</ele><time>2026-04-25T09:37:13.111Z</time></trkpt><trkpt lat="41.0104833" lon="14.766385"><ele>219.0</ele><time>2026-04-25T09:37:14.111Z</time></trkpt><trkpt lat="41.0105583" lon="14.7662233"><ele>219.0</ele><time>2026-04-25T09:37:15.112Z</time></trkpt><trkpt lat="41.0106233" lon="14.766065"><ele>219.0</ele><time>2026-04-25T09:37:16.111Z</time></trkpt><trkpt lat="41.01068" lon="14.7659183"><ele>219.0</ele><time>2026-04-25T09:37:17.111Z</time></trkpt><trkpt lat="41.0107367" lon="14.7657683"><ele>219.0</ele><time>2026-04-25T09:37:18.111Z</time></trkpt><trkpt lat="41.0107917" lon="14.7656083"><ele>219.0</ele><time>2026-04-25T09:37:19.111Z</time></trkpt><trkpt lat="41.0108467" lon="14.7654367"><ele>219.0</ele><time>2026-04-25T09:37:20.111Z</time></trkpt><trkpt lat="41.0109067" lon="14.7652467"><ele>219.0</ele><time>2026-04-25T09:37:21.111Z</time></trkpt><trkpt lat="41.0109633" lon="14.76504"><ele>219.0</ele><time>2026-04-25T09:37:22.111Z</time></trkpt><trkpt lat="41.0110133" lon="14.7648333"><ele>219.0</ele><time>2026-04-25T09:37:23.111Z</time></trkpt><trkpt lat="41.0110633" lon="14.76461"><ele>219.0</ele><time>2026-04-25T09:37:24.111Z</time></trkpt><trkpt lat="41.0111033" lon="14.7643867"><ele>219.66666666666669</ele><time>2026-04-25T09:37:25.111Z</time></trkpt><trkpt lat="41.0111383" lon="14.7641533"><ele>220.33333333333334</ele><time>2026-04-25T09:37:26.111Z</time></trkpt><trkpt lat="41.0111717" lon="14.7639233"><ele>221.0</ele><time>2026-04-25T09:37:27.111Z</time></trkpt><trkpt lat="41.0111867" lon="14.7637067"><ele>221.66666666666669</ele><time>2026-04-25T09:37:28.112Z</time></trkpt><trkpt lat="41.0112033" lon="14.7634933"><ele>222.33333333333331</ele><time>2026-04-25T09:37:29.111Z</time></trkpt><trkpt lat="41.01122" lon="14.7632883"><ele>223.0</ele><time>2026-04-25T09:37:30.112Z</time></trkpt><trkpt lat="41.01123" lon="14.7631033"><ele>223.0</ele><time>2026-04-25T09:37:31.111Z</time></trkpt><trkpt lat="41.0112383" lon="14.7629483"><ele>223.0</ele><time>2026-04-25T09:37:32.111Z</time></trkpt><trkpt lat="41.01125" lon="14.7628217"><ele>223.0</ele><time>2026-04-25T09:37:33.111Z</time></trkpt><trkpt lat="41.0112483" lon="14.762715"><ele>223.0</ele><time>2026-04-25T09:37:34.111Z</time></trkpt><trkpt lat="41.0112617" lon="14.7626"><ele>223.0</ele><time>2026-04-25T09:37:36.111Z</time></trkpt><trkpt lat="41.011335" lon="14.762585"><ele>223.4</ele><time>2026-04-25T09:37:38.111Z</time></trkpt><trkpt lat="41.011475" lon="14.76256"><ele>223.8</ele><time>2026-04-25T09:37:40.111Z</time></trkpt><trkpt lat="41.0115633" lon="14.762535"><ele>224.2</ele><time>2026-04-25T09:37:41.111Z</time></trkpt><trkpt lat="41.0116583" lon="14.7625117"><ele>224.6</ele><time>2026-04-25T09:37:42.111Z</time></trkpt><trkpt lat="41.011745" lon="14.76249"><ele>225.0</ele><time>2026-04-25T09:37:43.111Z</time></trkpt><trkpt lat="41.0118217" lon="14.762455"><ele>225.66666666666666</ele><time>2026-04-25T09:37:44.111Z</time></trkpt><trkpt lat="41.0118767" lon="14.7623933"><ele>226.33333333333331</ele><time>2026-04-25T09:37:45.111Z</time></trkpt><trkpt lat="41.0119217" lon="14.7623067"><ele>227.0</ele><time>2026-04-25T09:37:46.111Z</time></trkpt><trkpt lat="41.011965" lon="14.7621983"><ele>227.66666666666666</ele><time>2026-04-25T09:37:47.111Z</time></trkpt><trkpt lat="41.0120033" lon="14.7620833"><ele>228.33333333333331</ele><time>2026-04-25T09:37:48.111Z</time></trkpt><trkpt lat="41.0120583" lon="14.7619667"><ele>229.0</ele><time>2026-04-25T09:37:49.111Z</time></trkpt><trkpt lat="41.0121267" lon="14.76185"><ele>229.0</ele><time>2026-04-25T09:37:50.111Z</time></trkpt><trkpt lat="41.01221" lon="14.761725"><ele>229.0</ele><time>2026-04-25T09:37:51.111Z</time></trkpt><trkpt lat="41.0123033" lon="14.761585"><ele>229.0</ele><time>2026-04-25T09:37:52.111Z</time></trkpt><trkpt lat="41.0124017" lon="14.7614417"><ele>229.0</ele><time>2026-04-25T09:37:53.111Z</time></trkpt><trkpt lat="41.012495" lon="14.761295"><ele>229.79999999999998</ele><time>2026-04-25T09:37:54.111Z</time></trkpt><trkpt lat="41.0125767" lon="14.7611667"><ele>230.59999999999997</ele><time>2026-04-25T09:37:55.111Z</time></trkpt><trkpt lat="41.0126467" lon="14.7610583"><ele>231.4</ele><time>2026-04-25T09:37:56.111Z</time></trkpt><trkpt lat="41.0127233" lon="14.76096"><ele>232.2</ele><time>2026-04-25T09:37:57.111Z</time></trkpt><trkpt lat="41.0128017" lon="14.7608717"><ele>233.0</ele><time>2026-04-25T09:37:58.111Z</time></trkpt><trkpt lat="41.0128883" lon="14.7607933"><ele>233.0</ele><time>2026-04-25T09:37:59.111Z</time></trkpt><trkpt lat="41.012985" lon="14.7607183"><ele>233.0</ele><time>2026-04-25T09:38:00.111Z</time></trkpt><trkpt lat="41.0130867" lon="14.7606533"><ele>233.0</ele><time>2026-04-25T09:38:01.111Z</time></trkpt><trkpt lat="41.0131883" lon="14.7605983"><ele>233.0</ele><time>2026-04-25T09:38:02.111Z</time></trkpt><trkpt lat="41.0132883" lon="14.7605417"><ele>233.0</ele><time>2026-04-25T09:38:03.111Z</time></trkpt><trkpt lat="41.0133683" lon="14.7604867"><ele>235.60000000000002</ele><time>2026-04-25T09:38:04.111Z</time></trkpt><trkpt lat="41.01343" lon="14.7604317"><ele>238.20000000000002</ele><time>2026-04-25T09:38:05.111Z</time></trkpt><trkpt lat="41.0134817" lon="14.7603633"><ele>240.8</ele><time>2026-04-25T09:38:06.111Z</time></trkpt><trkpt lat="41.0135183" lon="14.7602683"><ele>243.4</ele><time>2026-04-25T09:38:07.112Z</time></trkpt><trkpt lat="41.0135467" lon="14.760135"><ele>246.0</ele><time>2026-04-25T09:38:08.111Z</time></trkpt><trkpt lat="41.013575" lon="14.759975"><ele>246.5</ele><time>2026-04-25T09:38:09.111Z</time></trkpt><trkpt lat="41.0136183" lon="14.7598333"><ele>247.0</ele><time>2026-04-25T09:38:10.111Z</time></trkpt><trkpt lat="41.0136683" lon="14.7596983"><ele>247.5</ele><time>2026-04-25T09:38:11.111Z</time></trkpt><trkpt lat="41.0137333" lon="14.7595683"><ele>248.0</ele><time>2026-04-25T09:38:12.111Z</time></trkpt><trkpt lat="41.013815" lon="14.75943"><ele>248.75</ele><time>2026-04-25T09:38:13.111Z</time></trkpt><trkpt lat="41.01391" lon="14.75929"><ele>249.5</ele><time>2026-04-25T09:38:14.111Z</time></trkpt><trkpt lat="41.0139967" lon="14.759165"><ele>250.25</ele><time>2026-04-25T09:38:15.111Z</time></trkpt><trkpt lat="41.01407" lon="14.7590583"><ele>251.0</ele><time>2026-04-25T09:38:16.111Z</time></trkpt><trkpt lat="41.014125" lon="14.7589467"><ele>253.20000000000002</ele><time>2026-04-25T09:38:17.111Z</time></trkpt><trkpt lat="41.0141683" lon="14.7588217"><ele>255.40000000000003</ele><time>2026-04-25T09:38:18.111Z</time></trkpt><trkpt lat="41.0141867" lon="14.7586867"><ele>257.6</ele><time>2026-04-25T09:38:19.111Z</time></trkpt><trkpt lat="41.0142217" lon="14.7585417"><ele>259.8</ele><time>2026-04-25T09:38:20.111Z</time></trkpt><trkpt lat="41.01426" lon="14.758395"><ele>262.0</ele><time>2026-04-25T09:38:21.111Z</time></trkpt><trkpt lat="41.014305" lon="14.7582483"><ele>262.0</ele><time>2026-04-25T09:38:22.111Z</time></trkpt><trkpt lat="41.0143617" lon="14.7581067"><ele>262.0</ele><time>2026-04-25T09:38:23.111Z</time></trkpt><trkpt lat="41.01442" lon="14.757995"><ele>262.0</ele><time>2026-04-25T09:38:24.111Z</time></trkpt><trkpt lat="41.0144867" lon="14.75791"><ele>262.0</ele><time>2026-04-25T09:38:25.111Z</time></trkpt><trkpt lat="41.0145617" lon="14.7578483"><ele>262.0</ele><time>2026-04-25T09:38:26.111Z</time></trkpt><trkpt lat="41.014645" lon="14.7577883"><ele>262.0</ele><time>2026-04-25T09:38:27.111Z</time></trkpt><trkpt lat="41.01474" lon="14.757735"><ele>262.0</ele><time>2026-04-25T09:38:28.111Z</time></trkpt><trkpt lat="41.0148467" lon="14.7576867"><ele>262.0</ele><time>2026-04-25T09:38:29.112Z</time></trkpt><trkpt lat="41.0149517" lon="14.7576467"><ele>262.0</ele><time>2026-04-25T09:38:30.111Z</time></trkpt><trkpt lat="41.0150583" lon="14.75761"><ele>262.0</ele><time>2026-04-25T09:38:31.111Z</time></trkpt><trkpt lat="41.01516" lon="14.7575617"><ele>264.75</ele><time>2026-04-25T09:38:32.111Z</time></trkpt><trkpt lat="41.0152667" lon="14.757515"><ele>267.5</ele><time>2026-04-25T09:38:33.111Z</time></trkpt><trkpt lat="41.0153817" lon="14.75747"><ele>270.25</ele><time>2026-04-25T09:38:34.111Z</time></trkpt><trkpt lat="41.015495" lon="14.7574317"><ele>273.0</ele><time>2026-04-25T09:38:35.111Z</time></trkpt><trkpt lat="41.0155983" lon="14.7574017"><ele>273.0</ele><time>2026-04-25T09:38:36.112Z</time></trkpt><trkpt lat="41.01568" lon="14.7574017"><ele>273.0</ele><time>2026-04-25T09:38:37.112Z</time></trkpt><trkpt lat="41.015755" lon="14.757425"><ele>273.0</ele><time>2026-04-25T09:38:38.111Z</time></trkpt><trkpt lat="41.0158233" lon="14.7574617"><ele>273.0</ele><time>2026-04-25T09:38:39.111Z</time></trkpt><trkpt lat="41.0158783" lon="14.7575217"><ele>273.0</ele><time>2026-04-25T09:38:40.111Z</time></trkpt><trkpt lat="41.0159083" lon="14.757605"><ele>273.0</ele><time>2026-04-25T09:38:41.112Z</time></trkpt><trkpt lat="41.0159183" lon="14.7576983"><ele>273.0</ele><time>2026-04-25T09:38:42.111Z</time></trkpt><trkpt lat="41.0159033" lon="14.7578133"><ele>272.5</ele><time>2026-04-25T09:38:43.111Z</time></trkpt><trkpt lat="41.015875" lon="14.7579433"><ele>272.0</ele><time>2026-04-25T09:38:44.111Z</time></trkpt><trkpt lat="41.0158433" lon="14.75809"><ele>271.5</ele><time>2026-04-25T09:38:45.112Z</time></trkpt><trkpt lat="41.0158133" lon="14.758255"><ele>271.0</ele><time>2026-04-25T09:38:46.111Z</time></trkpt><trkpt lat="41.0157817" lon="14.75842"><ele>271.26666666666665</ele><time>2026-04-25T09:38:47.111Z</time></trkpt><trkpt lat="41.0157533" lon="14.75858"><ele>271.53333333333336</ele><time>2026-04-25T09:38:48.112Z</time></trkpt><trkpt lat="41.0157233" lon="14.7587117"><ele>271.8</ele><time>2026-04-25T09:38:49.111Z</time></trkpt><trkpt lat="41.0157017" lon="14.7588167"><ele>272.06666666666666</ele><time>2026-04-25T09:38:50.111Z</time></trkpt><trkpt lat="41.0157083" lon="14.7589517"><ele>272.3333333333333</ele><time>2026-04-25T09:38:52.111Z</time></trkpt><trkpt lat="41.0157083" lon="14.7589517"><ele>272.6</ele><time>2026-04-25T09:38:52.111Z</time></trkpt><trkpt lat="41.0157083" lon="14.7589517"><ele>272.8666666666667</ele><time>2026-04-25T09:38:52.111Z</time></trkpt><trkpt lat="41.0157083" lon="14.7589517"><ele>273.1333333333333</ele><time>2026-04-25T09:38:52.111Z</time></trkpt><trkpt lat="41.0157083" lon="14.7589517"><ele>273.4</ele><time>2026-04-25T09:38:52.111Z</time></trkpt><trkpt lat="41.0157083" lon="14.7589517"><ele>273.66666666666663</ele><time>2026-04-25T09:38:52.111Z</time></trkpt><trkpt lat="41.0157083" lon="14.7589517"><ele>273.93333333333334</ele><time>2026-04-25T09:38:52.111Z</time></trkpt><trkpt lat="41.0157083" lon="14.7589517"><ele>274.2</ele><time>2026-04-25T09:38:52.111Z</time></trkpt><trkpt lat="41.0157083" lon="14.7589517"><ele>274.46666666666664</ele><time>2026-04-25T09:38:52.111Z</time></trkpt><trkpt lat="41.0157083" lon="14.7589517"><ele>274.7333333333333</ele><time>2026-04-25T09:38:52.111Z</time></trkpt><trkpt lat="41.0157083" lon="14.7589517"><ele>275.0</ele><time>2026-04-25T09:38:52.111Z</time></trkpt><trkpt lat="41.01618" lon="14.7587817"><ele>278.0</ele><time>2026-04-25T09:44:20.111Z</time></trkpt><trkpt lat="41.016345" lon="14.7585783"><ele>281.0</ele><time>2026-04-25T09:44:24.111Z</time></trkpt><trkpt lat="41.0164067" lon="14.7584617"><ele>284.0</ele><time>2026-04-25T09:44:26.111Z</time></trkpt><trkpt lat="41.0164317" lon="14.7583783"><ele>287.0</ele><time>2026-04-25T09:44:27.111Z</time></trkpt><trkpt lat="41.0164583" lon="14.7583017"><ele>287.0</ele><time>2026-04-25T09:44:28.111Z</time></trkpt><trkpt lat="41.0164783" lon="14.758215"><ele>287.0</ele><time>2026-04-25T09:44:29.111Z</time></trkpt><trkpt lat="41.0165033" lon="14.7581367"><ele>287.0</ele><time>2026-04-25T09:44:30.111Z</time></trkpt><trkpt lat="41.0165367" lon="14.75806"><ele>287.0</ele><time>2026-04-25T09:44:31.111Z</time></trkpt><trkpt lat="41.0166067" lon="14.7579483"><ele>287.0</ele><time>2026-04-25T09:44:33.111Z</time></trkpt><trkpt lat="41.01671" lon="14.7579083"><ele>287.0</ele><time>2026-04-25T09:44:35.11Z</time></trkpt><trkpt lat="41.0167867" lon="14.7579683"><ele>289.5</ele><time>2026-04-25T09:44:37.11Z</time></trkpt><trkpt lat="41.0168283" lon="14.7580967"><ele>292.0</ele><time>2026-04-25T09:44:39.11Z</time></trkpt><trkpt lat="41.016855" lon="14.758255"><ele>294.5</ele><time>2026-04-25T09:44:41.111Z</time></trkpt><trkpt lat="41.01687" lon="14.7583483"><ele>297.0</ele><time>2026-04-25T09:44:42.11Z</time></trkpt><trkpt lat="41.0168783" lon="14.7584383"><ele>299.5</ele><time>2026-04-25T09:44:43.11Z</time></trkpt><trkpt lat="41.0168817" lon="14.7585333"><ele>302.0</ele><time>2026-04-25T09:44:44.11Z</time></trkpt><trkpt lat="41.016885" lon="14.7586283"><ele>302.5</ele><time>2026-04-25T09:44:45.11Z</time></trkpt><trkpt lat="41.01689" lon="14.7587267"><ele>303.0</ele><time>2026-04-25T09:44:46.11Z</time></trkpt><trkpt lat="41.0168883" lon="14.7588183"><ele>303.5</ele><time>2026-04-25T09:44:47.11Z</time></trkpt><trkpt lat="41.01688" lon="14.7589183"><ele>304.0</ele><time>2026-04-25T09:44:48.11Z</time></trkpt><trkpt lat="41.0168683" lon="14.75901"><ele>304.5</ele><time>2026-04-25T09:44:49.11Z</time></trkpt><trkpt lat="41.016875" lon="14.7591367"><ele>305.0</ele><time>2026-04-25T09:44:51.11Z</time></trkpt><trkpt lat="41.01693" lon="14.7591883"><ele>305.0</ele><time>2026-04-25T09:44:53.11Z</time></trkpt><trkpt lat="41.01705" lon="14.759185"><ele>305.0</ele><time>2026-04-25T09:44:55.11Z</time></trkpt><trkpt lat="41.017125" lon="14.7591667"><ele>305.0</ele><time>2026-04-25T09:44:56.111Z</time></trkpt><trkpt lat="41.0172017" lon="14.759135"><ele>305.0</ele><time>2026-04-25T09:44:57.11Z</time></trkpt><trkpt lat="41.017275" lon="14.7590983"><ele>305.0</ele><time>2026-04-25T09:44:58.11Z</time></trkpt><trkpt lat="41.01735" lon="14.7590417"><ele>305.0</ele><time>2026-04-25T09:44:59.11Z</time></trkpt><trkpt lat="41.017415" lon="14.7589633"><ele>305.0</ele><time>2026-04-25T09:45:00.11Z</time></trkpt><trkpt lat="41.01748" lon="14.7588667"><ele>305.0</ele><time>2026-04-25T09:45:01.11Z</time></trkpt><trkpt lat="41.017545" lon="14.75877"><ele>305.0</ele><time>2026-04-25T09:45:02.11Z</time></trkpt><trkpt lat="41.0176117" lon="14.7586817"><ele>305.0</ele><time>2026-04-25T09:45:03.11Z</time></trkpt><trkpt lat="41.0176767" lon="14.758595"><ele>305.0</ele><time>2026-04-25T09:45:04.11Z</time></trkpt><trkpt lat="41.01774" lon="14.7585"><ele>308.2</ele><time>2026-04-25T09:45:05.11Z</time></trkpt><trkpt lat="41.01781" lon="14.7583967"><ele>311.4</ele><time>2026-04-25T09:45:06.11Z</time></trkpt><trkpt lat="41.0178817" lon="14.75829"><ele>314.6</ele><time>2026-04-25T09:45:07.111Z</time></trkpt><trkpt lat="41.0179433" lon="14.7581917"><ele>317.8</ele><time>2026-04-25T09:45:08.11Z</time></trkpt><trkpt lat="41.018005" lon="14.7580933"><ele>321.0</ele><time>2026-04-25T09:45:09.11Z</time></trkpt><trkpt lat="41.018075" lon="14.7580083"><ele>321.0</ele><time>2026-04-25T09:45:10.11Z</time></trkpt><trkpt lat="41.0181467" lon="14.7579283"><ele>321.0</ele><time>2026-04-25T09:45:11.11Z</time></trkpt><trkpt lat="41.0182133" lon="14.7578517"><ele>321.0</ele><time>2026-04-25T09:45:12.11Z</time></trkpt><trkpt lat="41.0182667" lon="14.757785"><ele>321.0</ele><time>2026-04-25T09:45:13.11Z</time></trkpt><trkpt lat="41.0183233" lon="14.7576483"><ele>321.0</ele><time>2026-04-25T09:45:15.11Z</time></trkpt><trkpt lat="41.0183333" lon="14.7575583"><ele>321.0</ele><time>2026-04-25T09:45:16.11Z</time></trkpt><trkpt lat="41.018335" lon="14.7574633"><ele>324.1666666666667</ele><time>2026-04-25T09:45:17.11Z</time></trkpt><trkpt lat="41.018345" lon="14.757355"><ele>327.3333333333333</ele><time>2026-04-25T09:45:18.11Z</time></trkpt><trkpt lat="41.018365" lon="14.7572617"><ele>330.5</ele><time>2026-04-25T09:45:19.11Z</time></trkpt><trkpt lat="41.0184017" lon="14.7571933"><ele>333.66666666666663</ele><time>2026-04-25T09:45:20.11Z</time></trkpt><trkpt lat="41.0185083" lon="14.7571183"><ele>336.8333333333333</ele><time>2026-04-25T09:45:22.111Z</time></trkpt><trkpt lat="41.01858" lon="14.7570967"><ele>340.0</ele><time>2026-04-25T09:45:23.11Z</time></trkpt><trkpt lat="41.018645" lon="14.7570767"><ele>340.0</ele><time>2026-04-25T09:45:24.11Z</time></trkpt><trkpt lat="41.0187117" lon="14.7570617"><ele>340.0</ele><time>2026-04-25T09:45:25.11Z</time></trkpt><trkpt lat="41.018775" lon="14.75705"><ele>340.0</ele><time>2026-04-25T09:45:26.11Z</time></trkpt><trkpt lat="41.0188767" lon="14.757025"><ele>340.0</ele><time>2026-04-25T09:45:28.11Z</time></trkpt><trkpt lat="41.0189483" lon="14.7569967"><ele>340.0</ele><time>2026-04-25T09:45:30.11Z</time></trkpt><trkpt lat="41.01902" lon="14.75697"><ele>340.0</ele><time>2026-04-25T09:45:32.11Z</time></trkpt><trkpt lat="41.0191183" lon="14.756915"><ele>341.5</ele><time>2026-04-25T09:45:34.11Z</time></trkpt><trkpt lat="41.0191833" lon="14.7568683"><ele>343.0</ele><time>2026-04-25T09:45:35.11Z</time></trkpt><trkpt lat="41.01925" lon="14.7568383"><ele>344.5</ele><time>2026-04-25T09:45:36.11Z</time></trkpt><trkpt lat="41.0193217" lon="14.7568217"><ele>346.0</ele><time>2026-04-25T09:45:37.11Z</time></trkpt><trkpt lat="41.0194033" lon="14.75681"><ele>347.5</ele><time>2026-04-25T09:45:38.11Z</time></trkpt><trkpt lat="41.019485" lon="14.756805"><ele>349.0</ele><time>2026-04-25T09:45:39.11Z</time></trkpt><trkpt lat="41.0195767" lon="14.7567983"><ele>349.0</ele><time>2026-04-25T09:45:40.11Z</time></trkpt><trkpt lat="41.019675" lon="14.75679"><ele>349.0</ele><time>2026-04-25T09:45:41.11Z</time></trkpt><trkpt lat="41.0197667" lon="14.7567967"><ele>349.0</ele><time>2026-04-25T09:45:42.11Z</time></trkpt><trkpt lat="41.019845" lon="14.756805"><ele>349.0</ele><time>2026-04-25T09:45:43.11Z</time></trkpt><trkpt lat="41.0199117" lon="14.7568133"><ele>349.0</ele><time>2026-04-25T09:45:44.111Z</time></trkpt><trkpt lat="41.02002" lon="14.756835"><ele>349.0</ele><time>2026-04-25T09:45:46.11Z</time></trkpt><trkpt lat="41.0201333" lon="14.7568667"><ele>349.8333333333333</ele><time>2026-04-25T09:46:13.11Z</time></trkpt><trkpt lat="41.0202033" lon="14.756875"><ele>350.66666666666663</ele><time>2026-04-25T09:46:15.11Z</time></trkpt><trkpt lat="41.0202733" lon="14.7568317"><ele>351.5</ele><time>2026-04-25T09:46:17.11Z</time></trkpt><trkpt lat="41.02033" lon="14.75675"><ele>352.3333333333333</ele><time>2026-04-25T09:46:19.11Z</time></trkpt><trkpt lat="41.0203833" lon="14.7566633"><ele>353.1666666666667</ele><time>2026-04-25T09:46:21.11Z</time></trkpt><trkpt lat="41.0204233" lon="14.7565933"><ele>354.0</ele><time>2026-04-25T09:46:23.111Z</time></trkpt><trkpt lat="41.02048" lon="14.7564983"><ele>354.0</ele><time>2026-04-25T09:47:00.111Z</time></trkpt><trkpt lat="41.0205317" lon="14.75638"><ele>354.0</ele><time>2026-04-25T09:47:02.11Z</time></trkpt><trkpt lat="41.0205617" lon="14.7562383"><ele>354.0</ele><time>2026-04-25T09:47:04.11Z</time></trkpt><trkpt lat="41.0205683" lon="14.75615"><ele>354.0</ele><time>2026-04-25T09:47:05.11Z</time></trkpt><trkpt lat="41.0205617" lon="14.756035"><ele>354.0</ele><time>2026-04-25T09:47:06.11Z</time></trkpt><trkpt lat="41.0205583" lon="14.7559133"><ele>352.4</ele><time>2026-04-25T09:47:07.11Z</time></trkpt><trkpt lat="41.0205583" lon="14.7557833"><ele>350.79999999999995</ele><time>2026-04-25T09:47:08.11Z</time></trkpt><trkpt lat="41.0205533" lon="14.7556433"><ele>349.20000000000005</ele><time>2026-04-25T09:47:09.11Z</time></trkpt><trkpt lat="41.0205467" lon="14.7554983"><ele>347.6</ele><time>2026-04-25T09:47:10.11Z</time></trkpt><trkpt lat="41.0205317" lon="14.7553567"><ele>346.0</ele><time>2026-04-25T09:47:11.11Z</time></trkpt><trkpt lat="41.0205133" lon="14.7552233"><ele>344.0</ele><time>2026-04-25T09:47:12.11Z</time></trkpt><trkpt lat="41.0205033" lon="14.7550933"><ele>342.0</ele><time>2026-04-25T09:47:13.11Z</time></trkpt><trkpt lat="41.0205133" lon="14.754975"><ele>340.0</ele><time>2026-04-25T09:47:14.11Z</time></trkpt><trkpt lat="41.0205383" lon="14.7548533"><ele>338.0</ele><time>2026-04-25T09:47:15.11Z</time></trkpt><trkpt lat="41.02057" lon="14.7547217"><ele>336.0</ele><time>2026-04-25T09:47:16.11Z</time></trkpt><trkpt lat="41.0206017" lon="14.7545833"><ele>336.0</ele><time>2026-04-25T09:47:17.11Z</time></trkpt><trkpt lat="41.0206317" lon="14.7544383"><ele>336.0</ele><time>2026-04-25T09:47:18.11Z</time></trkpt><trkpt lat="41.0206633" lon="14.7542867"><ele>336.0</ele><time>2026-04-25T09:47:19.11Z</time></trkpt><trkpt lat="41.0207017" lon="14.75414"><ele>336.0</ele><time>2026-04-25T09:47:20.11Z</time></trkpt><trkpt lat="41.0207433" lon="14.753995"><ele>336.1666666666667</ele><time>2026-04-25T09:47:21.11Z</time></trkpt><trkpt lat="41.0207867" lon="14.753865"><ele>336.3333333333333</ele><time>2026-04-25T09:47:22.11Z</time></trkpt><trkpt lat="41.0208233" lon="14.75376"><ele>336.5</ele><time>2026-04-25T09:47:23.11Z</time></trkpt><trkpt lat="41.0208533" lon="14.75368"><ele>336.66666666666663</ele><time>2026-04-25T09:47:24.11Z</time></trkpt><trkpt lat="41.0208917" lon="14.753605"><ele>336.8333333333333</ele><time>2026-04-25T09:47:25.11Z</time></trkpt><trkpt lat="41.0209883" lon="14.75352"><ele>337.0</ele><time>2026-04-25T09:47:27.11Z</time></trkpt><trkpt lat="41.0210417" lon="14.753465"><ele>337.0</ele><time>2026-04-25T09:47:28.11Z</time></trkpt><trkpt lat="41.021095" lon="14.75339"><ele>337.0</ele><time>2026-04-25T09:47:29.11Z</time></trkpt><trkpt lat="41.0211533" lon="14.7532967"><ele>337.0</ele><time>2026-04-25T09:47:30.11Z</time></trkpt><trkpt lat="41.0212083" lon="14.7531917"><ele>337.0</ele><time>2026-04-25T09:47:31.11Z</time></trkpt><trkpt lat="41.0212633" lon="14.75308"><ele>337.0</ele><time>2026-04-25T09:47:32.11Z</time></trkpt><trkpt lat="41.02132" lon="14.752975"><ele>337.0</ele><time>2026-04-25T09:47:33.11Z</time></trkpt><trkpt lat="41.0213817" lon="14.7528733"><ele>337.0</ele><time>2026-04-25T09:47:34.11Z</time></trkpt><trkpt lat="41.0214317" lon="14.752775"><ele>337.0</ele><time>2026-04-25T09:47:35.11Z</time></trkpt><trkpt lat="41.021475" lon="14.752695"><ele>337.0</ele><time>2026-04-25T09:47:36.111Z</time></trkpt><trkpt lat="41.021495" lon="14.7526117"><ele>337.0</ele><time>2026-04-25T09:47:37.11Z</time></trkpt><trkpt lat="41.0214617" lon="14.75248"><ele>337.0</ele><time>2026-04-25T09:47:39.11Z</time></trkpt><trkpt lat="41.0213417" lon="14.7524233"><ele>335.66666666666663</ele><time>2026-04-25T09:47:41.11Z</time></trkpt><trkpt lat="41.0212583" lon="14.7524333"><ele>334.3333333333333</ele><time>2026-04-25T09:47:42.11Z</time></trkpt><trkpt lat="41.0211817" lon="14.7524417"><ele>333.0</ele><time>2026-04-25T09:47:43.11Z</time></trkpt><trkpt lat="41.0211183" lon="14.7524367"><ele>331.6666666666667</ele><time>2026-04-25T09:47:44.11Z</time></trkpt><trkpt lat="41.0210733" lon="14.7523417"><ele>330.33333333333337</ele><time>2026-04-25T09:47:46.11Z</time></trkpt><trkpt lat="41.0210817" lon="14.7522517"><ele>329.0</ele><time>2026-04-25T09:47:47.11Z</time></trkpt><trkpt lat="41.021105" lon="14.7521283"><ele>329.0</ele><time>2026-04-25T09:47:48.111Z</time></trkpt><trkpt lat="41.0211267" lon="14.751995"><ele>329.0</ele><time>2026-04-25T09:47:49.11Z</time></trkpt><trkpt lat="41.0211517" lon="14.7518533"><ele>329.0</ele><time>2026-04-25T09:47:50.11Z</time></trkpt><trkpt lat="41.0211733" lon="14.7517083"><ele>329.0</ele><time>2026-04-25T09:47:51.11Z</time></trkpt><trkpt lat="41.0211833" lon="14.7515683"><ele>329.0</ele><time>2026-04-25T09:47:52.11Z</time></trkpt><trkpt lat="41.0211933" lon="14.7514367"><ele>328.6</ele><time>2026-04-25T09:47:53.11Z</time></trkpt><trkpt lat="41.0211867" lon="14.7513183"><ele>328.2</ele><time>2026-04-25T09:47:54.11Z</time></trkpt><trkpt lat="41.02117" lon="14.7511883"><ele>327.8</ele><time>2026-04-25T09:47:55.11Z</time></trkpt><trkpt lat="41.021155" lon="14.7510367"><ele>327.40000000000003</ele><time>2026-04-25T09:47:56.11Z</time></trkpt><trkpt lat="41.02115" lon="14.7508883"><ele>327.0</ele><time>2026-04-25T09:47:57.11Z</time></trkpt><trkpt lat="41.0211533" lon="14.75074"><ele>327.0</ele><time>2026-04-25T09:47:58.11Z</time></trkpt><trkpt lat="41.0211783" lon="14.7506"><ele>327.0</ele><time>2026-04-25T09:47:59.11Z</time></trkpt><trkpt lat="41.021215" lon="14.7504617"><ele>327.0</ele><time>2026-04-25T09:48:00.11Z</time></trkpt><trkpt lat="41.0212667" lon="14.750325"><ele>327.0</ele><time>2026-04-25T09:48:01.11Z</time></trkpt><trkpt lat="41.0213133" lon="14.7502033"><ele>327.0</ele><time>2026-04-25T09:48:02.11Z</time></trkpt><trkpt lat="41.0213567" lon="14.750095"><ele>327.3333333333333</ele><time>2026-04-25T09:48:03.11Z</time></trkpt><trkpt lat="41.02139" lon="14.7499967"><ele>327.6666666666667</ele><time>2026-04-25T09:48:04.11Z</time></trkpt><trkpt lat="41.0214167" lon="14.749915"><ele>328.0</ele><time>2026-04-25T09:48:05.111Z</time></trkpt><trkpt lat="41.02147" lon="14.749765"><ele>328.33333333333337</ele><time>2026-04-25T09:48:07.11Z</time></trkpt><trkpt lat="41.021515" lon="14.74969"><ele>328.6666666666667</ele><time>2026-04-25T09:48:08.11Z</time></trkpt><trkpt lat="41.0215667" lon="14.7496283"><ele>329.0</ele><time>2026-04-25T09:48:09.11Z</time></trkpt><trkpt lat="41.0216367" lon="14.7495667"><ele>331.2</ele><time>2026-04-25T09:48:10.11Z</time></trkpt><trkpt lat="41.021715" lon="14.7495183"><ele>333.4</ele><time>2026-04-25T09:48:11.11Z</time></trkpt><trkpt lat="41.0218017" lon="14.7494583"><ele>335.6</ele><time>2026-04-25T09:48:12.11Z</time></trkpt><trkpt lat="41.0219" lon="14.7494133"><ele>337.8</ele><time>2026-04-25T09:48:13.11Z</time></trkpt><trkpt lat="41.0220033" lon="14.7493617"><ele>340.0</ele><time>2026-04-25T09:48:14.11Z</time></trkpt><trkpt lat="41.0221033" lon="14.7493167"><ele>340.0</ele><time>2026-04-25T09:48:15.11Z</time></trkpt><trkpt lat="41.0222017" lon="14.749265"><ele>340.0</ele><time>2026-04-25T09:48:16.11Z</time></trkpt><trkpt lat="41.0222883" lon="14.7492083"><ele>340.0</ele><time>2026-04-25T09:48:17.11Z</time></trkpt><trkpt lat="41.0223717" lon="14.749135"><ele>340.0</ele><time>2026-04-25T09:48:18.11Z</time></trkpt><trkpt lat="41.0224517" lon="14.7490483"><ele>340.0</ele><time>2026-04-25T09:48:19.11Z</time></trkpt><trkpt lat="41.0225383" lon="14.7489483"><ele>342.75</ele><time>2026-04-25T09:48:20.11Z</time></trkpt><trkpt lat="41.0226317" lon="14.7488417"><ele>345.5</ele><time>2026-04-25T09:48:21.11Z</time></trkpt><trkpt lat="41.02273" lon="14.7487267"><ele>348.25</ele><time>2026-04-25T09:48:22.11Z</time></trkpt><trkpt lat="41.0228333" lon="14.748625"><ele>351.0</ele><time>2026-04-25T09:48:23.11Z</time></trkpt><trkpt lat="41.0229367" lon="14.7485317"><ele>351.0</ele><time>2026-04-25T09:48:24.11Z</time></trkpt><trkpt lat="41.0230467" lon="14.748455"><ele>351.0</ele><time>2026-04-25T09:48:25.111Z</time></trkpt><trkpt lat="41.0231567" lon="14.7483883"><ele>351.0</ele><time>2026-04-25T09:48:26.111Z</time></trkpt><trkpt lat="41.0232733" lon="14.7483333"><ele>351.0</ele><time>2026-04-25T09:48:27.11Z</time></trkpt><trkpt lat="41.0233917" lon="14.7482917"><ele>354.0</ele><time>2026-04-25T09:48:28.11Z</time></trkpt><trkpt lat="41.0235117" lon="14.7482617"><ele>357.0</ele><time>2026-04-25T09:48:29.111Z</time></trkpt><trkpt lat="41.0236233" lon="14.7482317"><ele>360.0</ele><time>2026-04-25T09:48:30.11Z</time></trkpt><trkpt lat="41.0237267" lon="14.7481967"><ele>363.0</ele><time>2026-04-25T09:48:31.11Z</time></trkpt><trkpt lat="41.0238133" lon="14.7481683"><ele>366.0</ele><time>2026-04-25T09:48:32.11Z</time></trkpt><trkpt lat="41.0238933" lon="14.74815"><ele>366.0</ele><time>2026-04-25T09:48:33.11Z</time></trkpt><trkpt lat="41.0239583" lon="14.7481233"><ele>366.0</ele><time>2026-04-25T09:48:34.11Z</time></trkpt><trkpt lat="41.0240133" lon="14.74807"><ele>366.0</ele><time>2026-04-25T09:48:35.11Z</time></trkpt><trkpt lat="41.024065" lon="14.7479167"><ele>366.0</ele><time>2026-04-25T09:48:37.11Z</time></trkpt><trkpt lat="41.0240633" lon="14.7478017"><ele>366.0</ele><time>2026-04-25T09:48:38.111Z</time></trkpt><trkpt lat="41.0240533" lon="14.74766"><ele>366.5</ele><time>2026-04-25T09:48:39.11Z</time></trkpt><trkpt lat="41.024045" lon="14.7474983"><ele>367.0</ele><time>2026-04-25T09:48:40.11Z</time></trkpt><trkpt lat="41.0240267" lon="14.7473233"><ele>367.5</ele><time>2026-04-25T09:48:41.11Z</time></trkpt><trkpt lat="41.0240067" lon="14.7471583"><ele>368.0</ele><time>2026-04-25T09:48:42.111Z</time></trkpt><trkpt lat="41.0239717" lon="14.7470117"><ele>368.0</ele><time>2026-04-25T09:48:43.11Z</time></trkpt><trkpt lat="41.023935" lon="14.7468833"><ele>368.0</ele><time>2026-04-25T09:48:44.11Z</time></trkpt><trkpt lat="41.0239117" lon="14.7467767"><ele>368.0</ele><time>2026-04-25T09:48:45.11Z</time></trkpt><trkpt lat="41.0239167" lon="14.7466733"><ele>368.0</ele><time>2026-04-25T09:48:46.11Z</time></trkpt><trkpt lat="41.0239517" lon="14.7465867"><ele>368.0</ele><time>2026-04-25T09:48:47.11Z</time></trkpt><trkpt lat="41.0239983" lon="14.7465133"><ele>368.0</ele><time>2026-04-25T09:48:48.11Z</time></trkpt><trkpt lat="41.0240567" lon="14.746435"><ele>370.0</ele><time>2026-04-25T09:48:49.11Z</time></trkpt><trkpt lat="41.0241083" lon="14.7463417"><ele>372.0</ele><time>2026-04-25T09:48:50.11Z</time></trkpt><trkpt lat="41.0241383" lon="14.7462583"><ele>374.0</ele><time>2026-04-25T09:48:51.11Z</time></trkpt><trkpt lat="41.0241383" lon="14.7460917"><ele>376.0</ele><time>2026-04-25T09:48:53.11Z</time></trkpt><trkpt lat="41.0241067" lon="14.7460033"><ele>378.0</ele><time>2026-04-25T09:48:54.11Z</time></trkpt><trkpt lat="41.0240617" lon="14.745895"><ele>380.59999999999997</ele><time>2026-04-25T09:48:55.11Z</time></trkpt><trkpt lat="41.0240217" lon="14.7457633"><ele>383.2</ele><time>2026-04-25T09:48:56.11Z</time></trkpt><trkpt lat="41.0239817" lon="14.7456267"><ele>385.8</ele><time>2026-04-25T09:48:57.11Z</time></trkpt><trkpt lat="41.023945" lon="14.7454833"><ele>388.4</ele><time>2026-04-25T09:48:58.11Z</time></trkpt><trkpt lat="41.0239167" lon="14.7453583"><ele>391.0</ele><time>2026-04-25T09:48:59.11Z</time></trkpt><trkpt lat="41.0239067" lon="14.745255"><ele>393.0</ele><time>2026-04-25T09:49:00.11Z</time></trkpt><trkpt lat="41.0239183" lon="14.7451467"><ele>395.0</ele><time>2026-04-25T09:49:01.11Z</time></trkpt><trkpt lat="41.02395" lon="14.7450417"><ele>397.0</ele><time>2026-04-25T09:49:02.111Z</time></trkpt><trkpt lat="41.0239967" lon="14.7449417"><ele>399.0</ele><time>2026-04-25T09:49:03.11Z</time></trkpt><trkpt lat="41.02405" lon="14.7448383"><ele>401.0</ele><time>2026-04-25T09:49:04.11Z</time></trkpt><trkpt lat="41.0241083" lon="14.74473"><ele>402.66666666666663</ele><time>2026-04-25T09:49:05.111Z</time></trkpt><trkpt lat="41.0241667" lon="14.7446267"><ele>404.3333333333333</ele><time>2026-04-25T09:49:06.11Z</time></trkpt><trkpt lat="41.0242233" lon="14.7445233"><ele>406.0</ele><time>2026-04-25T09:49:07.11Z</time></trkpt><trkpt lat="41.0242783" lon="14.744435"><ele>407.66666666666663</ele><time>2026-04-25T09:49:08.11Z</time></trkpt><trkpt lat="41.0243283" lon="14.744365"><ele>409.3333333333333</ele><time>2026-04-25T09:49:09.111Z</time></trkpt><trkpt lat="41.0243833" lon="14.7443083"><ele>411.0</ele><time>2026-04-25T09:49:10.11Z</time></trkpt><trkpt lat="41.0244567" lon="14.7442667"><ele>413.5</ele><time>2026-04-25T09:49:11.11Z</time></trkpt><trkpt lat="41.0245483" lon="14.7442433"><ele>416.0</ele><time>2026-04-25T09:49:12.11Z</time></trkpt><trkpt lat="41.0246633" lon="14.744235"><ele>418.5</ele><time>2026-04-25T09:49:13.11Z</time></trkpt><trkpt lat="41.0247967" lon="14.74422"><ele>421.0</ele><time>2026-04-25T09:49:14.11Z</time></trkpt><trkpt lat="41.0249333" lon="14.7441983"><ele>423.8</ele><time>2026-04-25T09:49:15.111Z</time></trkpt><trkpt lat="41.0250617" lon="14.7441817"><ele>426.6</ele><time>2026-04-25T09:49:16.11Z</time></trkpt><trkpt lat="41.0251717" lon="14.7441833"><ele>429.4</ele><time>2026-04-25T09:49:17.11Z</time></trkpt><trkpt lat="41.0252683" lon="14.744205"><ele>432.2</ele><time>2026-04-25T09:49:18.11Z</time></trkpt><trkpt lat="41.0253533" lon="14.7442467"><ele>435.0</ele><time>2026-04-25T09:49:19.11Z</time></trkpt><trkpt lat="41.0254333" lon="14.7442983"><ele>435.0</ele><time>2026-04-25T09:49:20.11Z</time></trkpt><trkpt lat="41.0255033" lon="14.7443783"><ele>435.0</ele><time>2026-04-25T09:49:21.11Z</time></trkpt><trkpt lat="41.0255783" lon="14.7444533"><ele>435.0</ele><time>2026-04-25T09:49:22.11Z</time></trkpt><trkpt lat="41.0256583" lon="14.744515"><ele>435.0</ele><time>2026-04-25T09:49:23.11Z</time></trkpt><trkpt lat="41.0257283" lon="14.74457"><ele>435.0</ele><time>2026-04-25T09:49:24.11Z</time></trkpt><trkpt lat="41.02579" lon="14.7446067"><ele>435.0</ele><time>2026-04-25T09:49:25.11Z</time></trkpt><trkpt lat="41.025865" lon="14.74461"><ele>435.0</ele><time>2026-04-25T09:49:27.11Z</time></trkpt><trkpt lat="41.0258983" lon="14.7445317"><ele>435.0</ele><time>2026-04-25T09:49:29.11Z</time></trkpt><trkpt lat="41.02588" lon="14.74439"><ele>435.0</ele><time>2026-04-25T09:49:31.11Z</time></trkpt><trkpt lat="41.0258433" lon="14.7443"><ele>435.0</ele><time>2026-04-25T09:49:32.111Z</time></trkpt><trkpt lat="41.0258033" lon="14.7442117"><ele>435.0</ele><time>2026-04-25T09:49:33.11Z</time></trkpt><trkpt lat="41.025765" lon="14.7441183"><ele>435.0</ele><time>2026-04-25T09:49:34.11Z</time></trkpt><trkpt lat="41.0257333" lon="14.7440117"><ele>435.0</ele><time>2026-04-25T09:49:35.11Z</time></trkpt><trkpt lat="41.0257133" lon="14.7439017"><ele>435.0</ele><time>2026-04-25T09:49:36.11Z</time></trkpt><trkpt lat="41.0257183" lon="14.743805"><ele>435.0</ele><time>2026-04-25T09:49:37.111Z</time></trkpt><trkpt lat="41.025755" lon="14.74368"><ele>435.0</ele><time>2026-04-25T09:49:39.11Z</time></trkpt><trkpt lat="41.0258083" lon="14.7436217"><ele>435.0</ele><time>2026-04-25T09:49:41.11Z</time></trkpt><trkpt lat="41.0258683" lon="14.74353"><ele>435.0</ele><time>2026-04-25T09:50:50.11Z</time></trkpt><trkpt lat="41.0259617" lon="14.7435367"><ele>439.8333333333333</ele><time>2026-04-25T09:50:53.11Z</time></trkpt><trkpt lat="41.026055" lon="14.7434983"><ele>444.66666666666663</ele><time>2026-04-25T09:50:55.11Z</time></trkpt><trkpt lat="41.0261683" lon="14.74342"><ele>449.5</ele><time>2026-04-25T09:50:57.11Z</time></trkpt><trkpt lat="41.026235" lon="14.7433767"><ele>454.3333333333333</ele><time>2026-04-25T09:50:58.11Z</time></trkpt><trkpt lat="41.0263033" lon="14.743335"><ele>459.16666666666663</ele><time>2026-04-25T09:50:59.11Z</time></trkpt><trkpt lat="41.02637" lon="14.7432917"><ele>464.0</ele><time>2026-04-25T09:51:00.11Z</time></trkpt><trkpt lat="41.0264317" lon="14.743255"><ele>464.0</ele><time>2026-04-25T09:51:01.11Z</time></trkpt><trkpt lat="41.0265367" lon="14.743205"><ele>464.0</ele><time>2026-04-25T09:51:03.11Z</time></trkpt><trkpt lat="41.0266533" lon="14.7431967"><ele>464.0</ele><time>2026-04-25T09:51:05.11Z</time></trkpt><trkpt lat="41.0267217" lon="14.7432217"><ele>464.0</ele><time>2026-04-25T09:51:06.11Z</time></trkpt><trkpt lat="41.026795" lon="14.743275"><ele>464.0</ele><time>2026-04-25T09:51:07.11Z</time></trkpt><trkpt lat="41.0268567" lon="14.7433483"><ele>463.79999999999995</ele><time>2026-04-25T09:51:08.11Z</time></trkpt><trkpt lat="41.0269267" lon="14.7434533"><ele>463.59999999999997</ele><time>2026-04-25T09:51:09.11Z</time></trkpt><trkpt lat="41.0269967" lon="14.7435733"><ele>463.4</ele><time>2026-04-25T09:51:10.11Z</time></trkpt><trkpt lat="41.0270533" lon="14.743695"><ele>463.2</ele><time>2026-04-25T09:51:11.11Z</time></trkpt><trkpt lat="41.0271167" lon="14.7438267"><ele>463.0</ele><time>2026-04-25T09:51:12.11Z</time></trkpt><trkpt lat="41.0271783" lon="14.74396"><ele>463.0</ele><time>2026-04-25T09:51:13.11Z</time></trkpt><trkpt lat="41.027235" lon="14.7440933"><ele>462.99999999999994</ele><time>2026-04-25T09:51:14.11Z</time></trkpt><trkpt lat="41.0272917" lon="14.7442233"><ele>462.99999999999994</ele><time>2026-04-25T09:51:15.11Z</time></trkpt><trkpt lat="41.027365" lon="14.7443333"><ele>463.0</ele><time>2026-04-25T09:51:16.11Z</time></trkpt><trkpt lat="41.0274367" lon="14.7444233"><ele>463.0</ele><time>2026-04-25T09:51:17.11Z</time></trkpt><trkpt lat="41.027525" lon="14.7444983"><ele>462.5</ele><time>2026-04-25T09:51:18.11Z</time></trkpt><trkpt lat="41.0276283" lon="14.7445533"><ele>462.0</ele><time>2026-04-25T09:51:19.11Z</time></trkpt><trkpt lat="41.0277367" lon="14.7446117"><ele>461.5</ele><time>2026-04-25T09:51:20.11Z</time></trkpt><trkpt lat="41.0278467" lon="14.7446833"><ele>461.0</ele><time>2026-04-25T09:51:21.11Z</time></trkpt><trkpt lat="41.02794" lon="14.744765"><ele>461.0</ele><time>2026-04-25T09:51:22.11Z</time></trkpt><trkpt lat="41.0280217" lon="14.744865"><ele>461.0</ele><time>2026-04-25T09:51:23.11Z</time></trkpt><trkpt lat="41.028095" lon="14.7449917"><ele>461.0</ele><time>2026-04-25T09:51:24.11Z</time></trkpt><trkpt lat="41.02816" lon="14.7451217"><ele>461.0</ele><time>2026-04-25T09:51:25.11Z</time></trkpt><trkpt lat="41.0282233" lon="14.7452317"><ele>461.99999999999994</ele><time>2026-04-25T09:51:26.111Z</time></trkpt><trkpt lat="41.0282833" lon="14.745335"><ele>463.0</ele><time>2026-04-25T09:51:27.11Z</time></trkpt><trkpt lat="41.0283533" lon="14.7454117"><ele>464.0</ele><time>2026-04-25T09:51:28.11Z</time></trkpt><trkpt lat="41.028425" lon="14.7454617"><ele>465.0</ele><time>2026-04-25T09:51:29.11Z</time></trkpt><trkpt lat="41.0284917" lon="14.7454883"><ele>465.99999999999994</ele><time>2026-04-25T09:51:30.11Z</time></trkpt><trkpt lat="41.0285667" lon="14.7455117"><ele>467.0</ele><time>2026-04-25T09:51:31.11Z</time></trkpt><trkpt lat="41.0286433" lon="14.74552"><ele>464.66666666666663</ele><time>2026-04-25T09:51:32.11Z</time></trkpt><trkpt lat="41.028735" lon="14.7455283"><ele>462.3333333333333</ele><time>2026-04-25T09:51:33.11Z</time></trkpt><trkpt lat="41.0288317" lon="14.745545"><ele>460.0</ele><time>2026-04-25T09:51:34.11Z</time></trkpt><trkpt lat="41.02892" lon="14.7455567"><ele>457.66666666666663</ele><time>2026-04-25T09:51:35.11Z</time></trkpt><trkpt lat="41.02901" lon="14.7455767"><ele>455.3333333333333</ele><time>2026-04-25T09:51:36.11Z</time></trkpt><trkpt lat="41.0290883" lon="14.7455867"><ele>453.0</ele><time>2026-04-25T09:51:37.11Z</time></trkpt><trkpt lat="41.0291583" lon="14.7456083"><ele>451.8571428571428</ele><time>2026-04-25T09:51:38.11Z</time></trkpt><trkpt lat="41.0292233" lon="14.745625"><ele>450.71428571428567</ele><time>2026-04-25T09:51:39.11Z</time></trkpt><trkpt lat="41.02929" lon="14.7456383"><ele>449.57142857142856</ele><time>2026-04-25T09:51:40.11Z</time></trkpt><trkpt lat="41.0293517" lon="14.745655"><ele>448.4285714285714</ele><time>2026-04-25T09:51:41.11Z</time></trkpt><trkpt lat="41.0294583" lon="14.7456667"><ele>447.2857142857142</ele><time>2026-04-25T09:51:43.11Z</time></trkpt><trkpt lat="41.0295217" lon="14.74565"><ele>446.14285714285717</ele><time>2026-04-25T09:51:45.11Z</time></trkpt><trkpt lat="41.02951" lon="14.7455583"><ele>445.0</ele><time>2026-04-25T09:51:50.11Z</time></trkpt><trkpt lat="41.0294367" lon="14.74559"><ele>445.0</ele><time>2026-04-25T09:51:53.11Z</time></trkpt><trkpt lat="41.0293183" lon="14.74558"><ele>445.0</ele><time>2026-04-25T09:51:55.11Z</time></trkpt><trkpt lat="41.0292383" lon="14.7455667"><ele>445.0</ele><time>2026-04-25T09:51:56.111Z</time></trkpt><trkpt lat="41.0291483" lon="14.7455583"><ele>445.0</ele><time>2026-04-25T09:51:57.11Z</time></trkpt><trkpt lat="41.02905" lon="14.7455383"><ele>445.0</ele><time>2026-04-25T09:51:58.11Z</time></trkpt><trkpt lat="41.028935" lon="14.745525"><ele>446.6</ele><time>2026-04-25T09:51:59.11Z</time></trkpt><trkpt lat="41.0288283" lon="14.7455083"><ele>448.2</ele><time>2026-04-25T09:52:00.11Z</time></trkpt><trkpt lat="41.02872" lon="14.7454883"><ele>449.79999999999995</ele><time>2026-04-25T09:52:01.11Z</time></trkpt><trkpt lat="41.0286167" lon="14.7454683"><ele>451.4</ele><time>2026-04-25T09:52:02.11Z</time></trkpt><trkpt lat="41.0285217" lon="14.7454417"><ele>453.0</ele><time>2026-04-25T09:52:03.11Z</time></trkpt><trkpt lat="41.028435" lon="14.745405"><ele>453.0</ele><time>2026-04-25T09:52:04.11Z</time></trkpt><trkpt lat="41.0283517" lon="14.7453583"><ele>452.99999999999994</ele><time>2026-04-25T09:52:05.11Z</time></trkpt><trkpt lat="41.0282717" lon="14.7452767"><ele>452.99999999999994</ele><time>2026-04-25T09:52:06.11Z</time></trkpt><trkpt lat="41.02821" lon="14.7451617"><ele>453.0</ele><time>2026-04-25T09:52:07.11Z</time></trkpt><trkpt lat="41.02815" lon="14.7450417"><ele>453.0</ele><time>2026-04-25T09:52:08.11Z</time></trkpt><trkpt lat="41.0280867" lon="14.7449183"><ele>454.59999999999997</ele><time>2026-04-25T09:52:09.11Z</time></trkpt><trkpt lat="41.0280183" lon="14.7448083"><ele>456.19999999999993</ele><time>2026-04-25T09:52:10.11Z</time></trkpt><trkpt lat="41.0279483" lon="14.74472"><ele>457.8</ele><time>2026-04-25T09:52:11.11Z</time></trkpt><trkpt lat="41.02787" lon="14.74465"><ele>459.4</ele><time>2026-04-25T09:52:12.111Z</time></trkpt><trkpt lat="41.027775" lon="14.7445967"><ele>461.0</ele><time>2026-04-25T09:52:13.11Z</time></trkpt><trkpt lat="41.0276667" lon="14.7445417"><ele>461.0</ele><time>2026-04-25T09:52:14.11Z</time></trkpt><trkpt lat="41.0275633" lon="14.7444733"><ele>461.0</ele><time>2026-04-25T09:52:15.11Z</time></trkpt><trkpt lat="41.02746" lon="14.7444017"><ele>461.0</ele><time>2026-04-25T09:52:16.11Z</time></trkpt><trkpt lat="41.0273683" lon="14.744305"><ele>461.0</ele><time>2026-04-25T09:52:17.11Z</time></trkpt><trkpt lat="41.0272933" lon="14.7441917"><ele>461.5</ele><time>2026-04-25T09:52:18.11Z</time></trkpt><trkpt lat="41.0272333" lon="14.7440533"><ele>462.0</ele><time>2026-04-25T09:52:19.11Z</time></trkpt><trkpt lat="41.0271683" lon="14.743905"><ele>462.5</ele><time>2026-04-25T09:52:20.11Z</time></trkpt><trkpt lat="41.0271017" lon="14.74375"><ele>463.0</ele><time>2026-04-25T09:52:21.11Z</time></trkpt><trkpt lat="41.0270333" lon="14.7435867"><ele>461.79999999999995</ele><time>2026-04-25T09:52:22.11Z</time></trkpt><trkpt lat="41.02696" lon="14.7434517"><ele>460.59999999999997</ele><time>2026-04-25T09:52:23.11Z</time></trkpt><trkpt lat="41.0268917" lon="14.7433383"><ele>459.40000000000003</ele><time>2026-04-25T09:52:24.11Z</time></trkpt><trkpt lat="41.0268233" lon="14.7432533"><ele>458.20000000000005</ele><time>2026-04-25T09:52:25.11Z</time></trkpt><trkpt lat="41.02675" lon="14.7431967"><ele>457.0</ele><time>2026-04-25T09:52:26.111Z</time></trkpt><trkpt lat="41.0266917" lon="14.7431617"><ele>458.40000000000003</ele><time>2026-04-25T09:52:27.11Z</time></trkpt><trkpt lat="41.02663" lon="14.743145"><ele>459.80000000000007</ele><time>2026-04-25T09:52:29.11Z</time></trkpt><trkpt lat="41.02653" lon="14.7431883"><ele>461.2</ele><time>2026-04-25T09:53:33.11Z</time></trkpt><trkpt lat="41.0264467" lon="14.743275"><ele>462.6</ele><time>2026-04-25T09:53:35.11Z</time></trkpt><trkpt lat="41.02637" lon="14.743325"><ele>464.0</ele><time>2026-04-25T09:53:36.11Z</time></trkpt><trkpt lat="41.0262883" lon="14.74338"><ele>463.99999999999994</ele><time>2026-04-25T09:53:37.11Z</time></trkpt><trkpt lat="41.0262" lon="14.7434317"><ele>464.0</ele><time>2026-04-25T09:53:38.11Z</time></trkpt><trkpt lat="41.02612" lon="14.7434817"><ele>464.0</ele><time>2026-04-25T09:53:39.11Z</time></trkpt><trkpt lat="41.0260483" lon="14.7435267"><ele>464.0</ele><time>2026-04-25T09:53:40.11Z</time></trkpt><trkpt lat="41.025985" lon="14.7435517"><ele>463.99999999999994</ele><time>2026-04-25T09:53:41.11Z</time></trkpt><trkpt lat="41.0259167" lon="14.7435633"><ele>464.0</ele><time>2026-04-25T09:53:42.11Z</time></trkpt><trkpt lat="41.0258417" lon="14.743555"><ele>461.6</ele><time>2026-04-25T09:53:43.11Z</time></trkpt><trkpt lat="41.0257667" lon="14.7435133"><ele>459.2</ele><time>2026-04-25T09:53:44.11Z</time></trkpt><trkpt lat="41.0256883" lon="14.7434467"><ele>456.80000000000007</ele><time>2026-04-25T09:53:45.111Z</time></trkpt><trkpt lat="41.0256133" lon="14.7433767"><ele>454.40000000000003</ele><time>2026-04-25T09:53:46.11Z</time></trkpt><trkpt lat="41.0255267" lon="14.7433033"><ele>452.0</ele><time>2026-04-25T09:53:47.11Z</time></trkpt><trkpt lat="41.0254383" lon="14.7432283"><ele>452.0</ele><time>2026-04-25T09:53:48.11Z</time></trkpt><trkpt lat="41.02534" lon="14.7431517"><ele>452.0</ele><time>2026-04-25T09:53:49.11Z</time></trkpt><trkpt lat="41.0252433" lon="14.7430717"><ele>452.0</ele><time>2026-04-25T09:53:50.11Z</time></trkpt><trkpt lat="41.0251417" lon="14.7429933"><ele>452.0</ele><time>2026-04-25T09:53:51.11Z</time></trkpt><trkpt lat="41.025045" lon="14.74291"><ele>452.0</ele><time>2026-04-25T09:53:52.11Z</time></trkpt><trkpt lat="41.0249367" lon="14.7428283"><ele>452.0</ele><time>2026-04-25T09:53:53.11Z</time></trkpt><trkpt lat="41.0248267" lon="14.7427433"><ele>452.0</ele><time>2026-04-25T09:53:54.11Z</time></trkpt><trkpt lat="41.0247233" lon="14.7426567"><ele>452.0</ele><time>2026-04-25T09:53:55.11Z</time></trkpt><trkpt lat="41.0246333" lon="14.7425517"><ele>452.0</ele><time>2026-04-25T09:53:56.11Z</time></trkpt><trkpt lat="41.0245533" lon="14.74244"><ele>452.00000000000006</ele><time>2026-04-25T09:53:57.11Z</time></trkpt><trkpt lat="41.0244833" lon="14.7423233"><ele>452.00000000000006</ele><time>2026-04-25T09:53:58.111Z</time></trkpt><trkpt lat="41.0244217" lon="14.7422033"><ele>452.0</ele><time>2026-04-25T09:53:59.11Z</time></trkpt><trkpt lat="41.024375" lon="14.7420783"><ele>452.0</ele><time>2026-04-25T09:54:00.11Z</time></trkpt><trkpt lat="41.0243233" lon="14.7419483"><ele>448.75</ele><time>2026-04-25T09:54:01.11Z</time></trkpt><trkpt lat="41.0242767" lon="14.7418133"><ele>445.5</ele><time>2026-04-25T09:54:02.11Z</time></trkpt><trkpt lat="41.0242267" lon="14.7416833"><ele>442.25</ele><time>2026-04-25T09:54:03.11Z</time></trkpt><trkpt lat="41.0241767" lon="14.741545"><ele>439.0</ele><time>2026-04-25T09:54:04.11Z</time></trkpt><trkpt lat="41.02412" lon="14.7414017"><ele>439.0</ele><time>2026-04-25T09:54:05.111Z</time></trkpt><trkpt lat="41.0240617" lon="14.7412633"><ele>439.0</ele><time>2026-04-25T09:54:06.11Z</time></trkpt><trkpt lat="41.023995" lon="14.7411233"><ele>439.0</ele><time>2026-04-25T09:54:07.11Z</time></trkpt><trkpt lat="41.02392" lon="14.7409933"><ele>439.0</ele><time>2026-04-25T09:54:08.111Z</time></trkpt><trkpt lat="41.023845" lon="14.7408633"><ele>443.75</ele><time>2026-04-25T09:54:09.11Z</time></trkpt><trkpt lat="41.0237683" lon="14.740735"><ele>448.5</ele><time>2026-04-25T09:54:10.11Z</time></trkpt><trkpt lat="41.02369" lon="14.7406183"><ele>453.25</ele><time>2026-04-25T09:54:11.11Z</time></trkpt><trkpt lat="41.0236233" lon="14.740495"><ele>458.0</ele><time>2026-04-25T09:54:12.11Z</time></trkpt><trkpt lat="41.023555" lon="14.740385"><ele>457.99999999999994</ele><time>2026-04-25T09:54:13.11Z</time></trkpt><trkpt lat="41.023495" lon="14.7402833"><ele>458.0</ele><time>2026-04-25T09:54:14.11Z</time></trkpt><trkpt lat="41.0234367" lon="14.7401917"><ele>458.0</ele><time>2026-04-25T09:54:15.11Z</time></trkpt><trkpt lat="41.0233733" lon="14.740125"><ele>458.0</ele><time>2026-04-25T09:54:16.11Z</time></trkpt><trkpt lat="41.0232917" lon="14.7400817"><ele>457.99999999999994</ele><time>2026-04-25T09:54:17.11Z</time></trkpt><trkpt lat="41.02321" lon="14.7400633"><ele>458.0</ele><time>2026-04-25T09:54:18.11Z</time></trkpt><trkpt lat="41.0231217" lon="14.7400433"><ele>460.66666666666663</ele><time>2026-04-25T09:54:19.11Z</time></trkpt><trkpt lat="41.023035" lon="14.740005"><ele>463.3333333333333</ele><time>2026-04-25T09:54:20.11Z</time></trkpt><trkpt lat="41.0229583" lon="14.7399467"><ele>466.0</ele><time>2026-04-25T09:54:21.11Z</time></trkpt><trkpt lat="41.0228833" lon="14.739885"><ele>468.66666666666663</ele><time>2026-04-25T09:54:22.11Z</time></trkpt><trkpt lat="41.0228133" lon="14.7398267"><ele>471.3333333333333</ele><time>2026-04-25T09:54:23.11Z</time></trkpt><trkpt lat="41.02274" lon="14.7397633"><ele>474.0</ele><time>2026-04-25T09:54:24.11Z</time></trkpt><trkpt lat="41.022665" lon="14.7396917"><ele>474.0</ele><time>2026-04-25T09:54:25.11Z</time></trkpt><trkpt lat="41.022585" lon="14.739615"><ele>474.0</ele><time>2026-04-25T09:54:26.11Z</time></trkpt><trkpt lat="41.0225083" lon="14.73954"><ele>474.0</ele><time>2026-04-25T09:54:27.11Z</time></trkpt><trkpt lat="41.0224417" lon="14.7394383"><ele>474.0</ele><time>2026-04-25T09:54:28.111Z</time></trkpt><trkpt lat="41.0223717" lon="14.739325"><ele>474.0</ele><time>2026-04-25T09:54:29.11Z</time></trkpt><trkpt lat="41.0223067" lon="14.7392267"><ele>476.42857142857133</ele><time>2026-04-25T09:54:30.11Z</time></trkpt><trkpt lat="41.0222483" lon="14.739125"><ele>478.85714285714283</ele><time>2026-04-25T09:54:31.11Z</time></trkpt><trkpt lat="41.0222" lon="14.7390317"><ele>481.2857142857142</ele><time>2026-04-25T09:54:32.11Z</time></trkpt><trkpt lat="41.0221667" lon="14.7389533"><ele>483.71428571428567</ele><time>2026-04-25T09:54:33.11Z</time></trkpt><trkpt lat="41.022145" lon="14.7388717"><ele>486.1428571428571</ele><time>2026-04-25T09:54:34.11Z</time></trkpt><trkpt lat="41.02214" lon="14.7387817"><ele>488.57142857142856</ele><time>2026-04-25T09:54:35.11Z</time></trkpt><trkpt lat="41.0221667" lon="14.7387033"><ele>491.0</ele><time>2026-04-25T09:54:36.11Z</time></trkpt><trkpt lat="41.0222117" lon="14.7386383"><ele>490.99999999999994</ele><time>2026-04-25T09:54:37.111Z</time></trkpt><trkpt lat="41.0222667" lon="14.738585"><ele>491.0</ele><time>2026-04-25T09:54:38.11Z</time></trkpt><trkpt lat="41.022335" lon="14.7385233"><ele>491.0</ele><time>2026-04-25T09:54:39.11Z</time></trkpt><trkpt lat="41.022405" lon="14.7384533"><ele>491.0</ele><time>2026-04-25T09:54:40.11Z</time></trkpt><trkpt lat="41.0224783" lon="14.7383717"><ele>490.99999999999994</ele><time>2026-04-25T09:54:41.11Z</time></trkpt><trkpt lat="41.022545" lon="14.7382783"><ele>491.0</ele><time>2026-04-25T09:54:42.11Z</time></trkpt><trkpt lat="41.0226017" lon="14.7381817"><ele>490.6</ele><time>2026-04-25T09:54:43.11Z</time></trkpt><trkpt lat="41.0226617" lon="14.7380933"><ele>490.20000000000005</ele><time>2026-04-25T09:54:44.11Z</time></trkpt><trkpt lat="41.022725" lon="14.738015"><ele>489.79999999999995</ele><time>2026-04-25T09:54:45.11Z</time></trkpt><trkpt lat="41.0228" lon="14.73795"><ele>489.4</ele><time>2026-04-25T09:54:46.111Z</time></trkpt><trkpt lat="41.0228833" lon="14.73789"><ele>489.0</ele><time>2026-04-25T09:54:47.11Z</time></trkpt><trkpt lat="41.022965" lon="14.7378283"><ele>489.0</ele><time>2026-04-25T09:54:48.11Z</time></trkpt><trkpt lat="41.0230433" lon="14.7377667"><ele>489.0</ele><time>2026-04-25T09:54:49.11Z</time></trkpt><trkpt lat="41.02312" lon="14.7377017"><ele>489.0</ele><time>2026-04-25T09:54:50.11Z</time></trkpt><trkpt lat="41.0231917" lon="14.7376333"><ele>489.0</ele><time>2026-04-25T09:54:51.11Z</time></trkpt><trkpt lat="41.0232583" lon="14.73756"><ele>489.0</ele><time>2026-04-25T09:54:52.11Z</time></trkpt><trkpt lat="41.023315" lon="14.737485"><ele>489.0</ele><time>2026-04-25T09:54:53.11Z</time></trkpt><trkpt lat="41.023365" lon="14.7374033"><ele>491.5</ele><time>2026-04-25T09:54:54.111Z</time></trkpt><trkpt lat="41.0234033" lon="14.7373067"><ele>494.0</ele><time>2026-04-25T09:54:55.11Z</time></trkpt><trkpt lat="41.0234283" lon="14.737205"><ele>496.5</ele><time>2026-04-25T09:54:56.11Z</time></trkpt><trkpt lat="41.0234417" lon="14.7371"><ele>499.0</ele><time>2026-04-25T09:54:57.11Z</time></trkpt><trkpt lat="41.023445" lon="14.7369783"><ele>501.5</ele><time>2026-04-25T09:54:58.11Z</time></trkpt><trkpt lat="41.02345" lon="14.7368583"><ele>504.0</ele><time>2026-04-25T09:54:59.111Z</time></trkpt><trkpt lat="41.02346" lon="14.736735"><ele>504.0</ele><time>2026-04-25T09:55:00.11Z</time></trkpt><trkpt lat="41.0234683" lon="14.7366167"><ele>504.0</ele><time>2026-04-25T09:55:01.11Z</time></trkpt><trkpt lat="41.02348" lon="14.736505"><ele>504.0</ele><time>2026-04-25T09:55:02.11Z</time></trkpt><trkpt lat="41.0235033" lon="14.7364"><ele>504.0</ele><time>2026-04-25T09:55:03.11Z</time></trkpt><trkpt lat="41.02354" lon="14.7363067"><ele>504.0</ele><time>2026-04-25T09:55:04.11Z</time></trkpt><trkpt lat="41.0235817" lon="14.7362267"><ele>504.0</ele><time>2026-04-25T09:55:05.11Z</time></trkpt><trkpt lat="41.0236333" lon="14.736155"><ele>504.0</ele><time>2026-04-25T09:55:06.11Z</time></trkpt><trkpt lat="41.023695" lon="14.73609"><ele>504.0</ele><time>2026-04-25T09:55:07.111Z</time></trkpt><trkpt lat="41.0237633" lon="14.7360283"><ele>504.0</ele><time>2026-04-25T09:55:08.11Z</time></trkpt><trkpt lat="41.02383" lon="14.73598"><ele>504.0</ele><time>2026-04-25T09:55:09.11Z</time></trkpt><trkpt lat="41.023905" lon="14.7359433"><ele>504.0</ele><time>2026-04-25T09:55:10.11Z</time></trkpt><trkpt lat="41.0239833" lon="14.7359083"><ele>504.0</ele><time>2026-04-25T09:55:11.111Z</time></trkpt><trkpt lat="41.024065" lon="14.7358717"><ele>503.0</ele><time>2026-04-25T09:55:12.11Z</time></trkpt><trkpt lat="41.024145" lon="14.7358283"><ele>502.0</ele><time>2026-04-25T09:55:13.11Z</time></trkpt><trkpt lat="41.0242233" lon="14.73577"><ele>501.0</ele><time>2026-04-25T09:55:14.11Z</time></trkpt><trkpt lat="41.0242983" lon="14.7356917"><ele>500.0</ele><time>2026-04-25T09:55:15.11Z</time></trkpt><trkpt lat="41.024365" lon="14.7356117"><ele>499.0</ele><time>2026-04-25T09:55:16.11Z</time></trkpt><trkpt lat="41.02442" lon="14.7355167"><ele>499.83333333333337</ele><time>2026-04-25T09:55:17.11Z</time></trkpt><trkpt lat="41.0244583" lon="14.7354233"><ele>500.6666666666667</ele><time>2026-04-25T09:55:18.11Z</time></trkpt><trkpt lat="41.024485" lon="14.735335"><ele>501.5</ele><time>2026-04-25T09:55:19.11Z</time></trkpt><trkpt lat="41.024505" lon="14.73524"><ele>502.33333333333337</ele><time>2026-04-25T09:55:20.11Z</time></trkpt><trkpt lat="41.0245217" lon="14.7351367"><ele>503.1666666666667</ele><time>2026-04-25T09:55:21.11Z</time></trkpt><trkpt lat="41.0245367" lon="14.735045"><ele>504.0</ele><time>2026-04-25T09:55:22.11Z</time></trkpt><trkpt lat="41.0245483" lon="14.7349483"><ele>504.0</ele><time>2026-04-25T09:55:23.11Z</time></trkpt><trkpt lat="41.0245617" lon="14.73483"><ele>504.0</ele><time>2026-04-25T09:55:24.11Z</time></trkpt><trkpt lat="41.024575" lon="14.73472"><ele>504.0</ele><time>2026-04-25T09:55:25.11Z</time></trkpt><trkpt lat="41.0246" lon="14.7346167"><ele>504.0</ele><time>2026-04-25T09:55:26.11Z</time></trkpt><trkpt lat="41.0246467" lon="14.73452"><ele>504.0</ele><time>2026-04-25T09:55:27.11Z</time></trkpt><trkpt lat="41.0247183" lon="14.7344367"><ele>504.0</ele><time>2026-04-25T09:55:28.11Z</time></trkpt><trkpt lat="41.02479" lon="14.734365"><ele>504.3333333333333</ele><time>2026-04-25T09:55:29.11Z</time></trkpt><trkpt lat="41.024865" lon="14.7342983"><ele>504.66666666666663</ele><time>2026-04-25T09:55:30.11Z</time></trkpt><trkpt lat="41.02494" lon="14.7342267"><ele>505.0</ele><time>2026-04-25T09:55:31.11Z</time></trkpt><trkpt lat="41.02501" lon="14.7341617"><ele>505.3333333333333</ele><time>2026-04-25T09:55:32.11Z</time></trkpt><trkpt lat="41.0250733" lon="14.7341083"><ele>505.66666666666663</ele><time>2026-04-25T09:55:33.11Z</time></trkpt><trkpt lat="41.0251367" lon="14.7340633"><ele>506.0</ele><time>2026-04-25T09:55:34.11Z</time></trkpt><trkpt lat="41.0251967" lon="14.7340067"><ele>505.99999999999994</ele><time>2026-04-25T09:55:35.11Z</time></trkpt><trkpt lat="41.02525" lon="14.7339333"><ele>506.0</ele><time>2026-04-25T09:55:36.11Z</time></trkpt><trkpt lat="41.0252867" lon="14.733845"><ele>506.0</ele><time>2026-04-25T09:55:37.11Z</time></trkpt><trkpt lat="41.0253017" lon="14.7337617"><ele>506.0</ele><time>2026-04-25T09:55:38.11Z</time></trkpt><trkpt lat="41.0252967" lon="14.7336633"><ele>505.99999999999994</ele><time>2026-04-25T09:55:39.11Z</time></trkpt><trkpt lat="41.0252833" lon="14.7335517"><ele>506.0</ele><time>2026-04-25T09:55:40.11Z</time></trkpt><trkpt lat="41.02526" lon="14.7334417"><ele>506.6</ele><time>2026-04-25T09:55:41.11Z</time></trkpt><trkpt lat="41.0252283" lon="14.7333217"><ele>507.20000000000005</ele><time>2026-04-25T09:55:42.11Z</time></trkpt><trkpt lat="41.0251917" lon="14.7331933"><ele>507.79999999999995</ele><time>2026-04-25T09:55:43.11Z</time></trkpt><trkpt lat="41.0251517" lon="14.73306"><ele>508.4</ele><time>2026-04-25T09:55:44.11Z</time></trkpt><trkpt lat="41.0251167" lon="14.732925"><ele>509.0</ele><time>2026-04-25T09:55:45.11Z</time></trkpt><trkpt lat="41.0250833" lon="14.7327917"><ele>508.6</ele><time>2026-04-25T09:55:46.11Z</time></trkpt><trkpt lat="41.025055" lon="14.7326583"><ele>508.2</ele><time>2026-04-25T09:55:47.109Z</time></trkpt><trkpt lat="41.02504" lon="14.73252"><ele>507.80000000000007</ele><time>2026-04-25T09:55:48.109Z</time></trkpt><trkpt lat="41.0250283" lon="14.7323783"><ele>507.40000000000003</ele><time>2026-04-25T09:55:49.109Z</time></trkpt><trkpt lat="41.0250133" lon="14.7322283"><ele>507.0</ele><time>2026-04-25T09:55:50.109Z</time></trkpt><trkpt lat="41.025005" lon="14.7320733"><ele>507.0</ele><time>2026-04-25T09:55:51.109Z</time></trkpt><trkpt lat="41.0249967" lon="14.7319283"><ele>507.00000000000006</ele><time>2026-04-25T09:55:52.109Z</time></trkpt><trkpt lat="41.02499" lon="14.7317867"><ele>507.00000000000006</ele><time>2026-04-25T09:55:53.109Z</time></trkpt><trkpt lat="41.0249883" lon="14.7316483"><ele>507.0</ele><time>2026-04-25T09:55:54.109Z</time></trkpt><trkpt lat="41.0249867" lon="14.73151"><ele>507.0</ele><time>2026-04-25T09:55:55.109Z</time></trkpt><trkpt lat="41.0249817" lon="14.7313633"><ele>507.6</ele><time>2026-04-25T09:55:56.109Z</time></trkpt><trkpt lat="41.0249783" lon="14.731215"><ele>508.20000000000005</ele><time>2026-04-25T09:55:57.109Z</time></trkpt><trkpt lat="41.024975" lon="14.73108"><ele>508.8</ele><time>2026-04-25T09:55:58.109Z</time></trkpt><trkpt lat="41.0249717" lon="14.7309467"><ele>509.4</ele><time>2026-04-25T09:55:59.109Z</time></trkpt><trkpt lat="41.0249667" lon="14.73082"><ele>510.0</ele><time>2026-04-25T09:56:00.109Z</time></trkpt><trkpt lat="41.024965" lon="14.7307033"><ele>508.2</ele><time>2026-04-25T09:56:01.109Z</time></trkpt><trkpt lat="41.0249567" lon="14.7305917"><ele>506.4</ele><time>2026-04-25T09:56:02.109Z</time></trkpt><trkpt lat="41.024945" lon="14.7304833"><ele>504.6</ele><time>2026-04-25T09:56:03.109Z</time></trkpt><trkpt lat="41.02494" lon="14.7303583"><ele>502.8</ele><time>2026-04-25T09:56:04.109Z</time></trkpt><trkpt lat="41.024935" lon="14.73023"><ele>501.0</ele><time>2026-04-25T09:56:05.109Z</time></trkpt><trkpt lat="41.024925" lon="14.7301"><ele>499.5</ele><time>2026-04-25T09:56:06.109Z</time></trkpt><trkpt lat="41.0249117" lon="14.7299783"><ele>498.0</ele><time>2026-04-25T09:56:07.109Z</time></trkpt><trkpt lat="41.0249017" lon="14.72986"><ele>496.5</ele><time>2026-04-25T09:56:08.11Z</time></trkpt><trkpt lat="41.0248917" lon="14.729745"><ele>495.0</ele><time>2026-04-25T09:56:09.109Z</time></trkpt><trkpt lat="41.0248883" lon="14.7296483"><ele>493.5</ele><time>2026-04-25T09:56:10.109Z</time></trkpt><trkpt lat="41.0248933" lon="14.7295333"><ele>492.0</ele><time>2026-04-25T09:56:12.109Z</time></trkpt><trkpt lat="41.0249267" lon="14.7294567"><ele>490.1666666666667</ele><time>2026-04-25T09:56:14.109Z</time></trkpt><trkpt lat="41.02503" lon="14.72939"><ele>488.33333333333337</ele><time>2026-04-25T09:56:16.109Z</time></trkpt><trkpt lat="41.0250967" lon="14.729345"><ele>486.5</ele><time>2026-04-25T09:56:17.109Z</time></trkpt><trkpt lat="41.025165" lon="14.7293117"><ele>484.6666666666667</ele><time>2026-04-25T09:56:18.109Z</time></trkpt><trkpt lat="41.0252383" lon="14.729285"><ele>482.83333333333337</ele><time>2026-04-25T09:56:19.109Z</time></trkpt><trkpt lat="41.0253067" lon="14.7292533"><ele>481.0</ele><time>2026-04-25T09:56:20.109Z</time></trkpt><trkpt lat="41.02537" lon="14.7292283"><ele>481.0</ele><time>2026-04-25T09:56:21.109Z</time></trkpt><trkpt lat="41.0254917" lon="14.7291733"><ele>481.0</ele><time>2026-04-25T09:56:23.109Z</time></trkpt><trkpt lat="41.025555" lon="14.7291433"><ele>481.0</ele><time>2026-04-25T09:56:24.109Z</time></trkpt><trkpt lat="41.0256733" lon="14.7290733"><ele>481.0</ele><time>2026-04-25T09:56:26.109Z</time></trkpt><trkpt lat="41.0257383" lon="14.7290333"><ele>481.0</ele><time>2026-04-25T09:56:27.109Z</time></trkpt><trkpt lat="41.0258083" lon="14.7289967"><ele>480.1666666666667</ele><time>2026-04-25T09:56:28.109Z</time></trkpt><trkpt lat="41.0258867" lon="14.7289667"><ele>479.33333333333337</ele><time>2026-04-25T09:56:29.109Z</time></trkpt><trkpt lat="41.02597" lon="14.7289417"><ele>478.5</ele><time>2026-04-25T09:56:30.109Z</time></trkpt><trkpt lat="41.0260583" lon="14.7289233"><ele>477.66666666666663</ele><time>2026-04-25T09:56:31.109Z</time></trkpt><trkpt lat="41.0261383" lon="14.7288883"><ele>476.8333333333333</ele><time>2026-04-25T09:56:32.109Z</time></trkpt><trkpt lat="41.0262117" lon="14.7288367"><ele>476.0</ele><time>2026-04-25T09:56:33.109Z</time></trkpt><trkpt lat="41.026275" lon="14.7287667"><ele>475.99999999999994</ele><time>2026-04-25T09:56:34.109Z</time></trkpt><trkpt lat="41.0263283" lon="14.7286867"><ele>476.0</ele><time>2026-04-25T09:56:35.109Z</time></trkpt><trkpt lat="41.0263717" lon="14.7286083"><ele>476.0</ele><time>2026-04-25T09:56:36.109Z</time></trkpt><trkpt lat="41.0264117" lon="14.7285433"><ele>476.0</ele><time>2026-04-25T09:56:37.109Z</time></trkpt><trkpt lat="41.026475" lon="14.7284233"><ele>475.99999999999994</ele><time>2026-04-25T09:56:39.109Z</time></trkpt><trkpt lat="41.0265117" lon="14.728355"><ele>476.0</ele><time>2026-04-25T09:56:40.109Z</time></trkpt><trkpt lat="41.0265567" lon="14.7282933"><ele>474.99999999999994</ele><time>2026-04-25T09:56:41.109Z</time></trkpt><trkpt lat="41.0266067" lon="14.728235"><ele>474.0</ele><time>2026-04-25T09:56:42.109Z</time></trkpt><trkpt lat="41.0266617" lon="14.7281783"><ele>473.0</ele><time>2026-04-25T09:56:43.109Z</time></trkpt><trkpt lat="41.02673" lon="14.728125"><ele>472.0</ele><time>2026-04-25T09:56:44.11Z</time></trkpt><trkpt lat="41.0267983" lon="14.7280683"><ele>470.99999999999994</ele><time>2026-04-25T09:56:45.109Z</time></trkpt><trkpt lat="41.02686" lon="14.7279917"><ele>470.0</ele><time>2026-04-25T09:56:46.109Z</time></trkpt><trkpt lat="41.0269167" lon="14.7279067"><ele>470.0</ele><time>2026-04-25T09:56:47.109Z</time></trkpt><trkpt lat="41.0269683" lon="14.7278017"><ele>470.0</ele><time>2026-04-25T09:56:48.109Z</time></trkpt><trkpt lat="41.02702" lon="14.727685"><ele>470.0</ele><time>2026-04-25T09:56:49.109Z</time></trkpt><trkpt lat="41.0270717" lon="14.7275583"><ele>470.0</ele><time>2026-04-25T09:56:50.109Z</time></trkpt><trkpt lat="41.027125" lon="14.7274367"><ele>470.0</ele><time>2026-04-25T09:56:51.109Z</time></trkpt><trkpt lat="41.0271733" lon="14.7273117"><ele>468.0</ele><time>2026-04-25T09:56:52.109Z</time></trkpt><trkpt lat="41.0272267" lon="14.7271967"><ele>466.0</ele><time>2026-04-25T09:56:53.109Z</time></trkpt><trkpt lat="41.0272817" lon="14.7270967"><ele>464.0</ele><time>2026-04-25T09:56:54.109Z</time></trkpt><trkpt lat="41.0273333" lon="14.7270017"><ele>462.0</ele><time>2026-04-25T09:56:55.109Z</time></trkpt><trkpt lat="41.02738" lon="14.7269133"><ele>460.0</ele><time>2026-04-25T09:56:56.109Z</time></trkpt><trkpt lat="41.0274133" lon="14.726785"><ele>457.4</ele><time>2026-04-25T09:56:58.109Z</time></trkpt><trkpt lat="41.0273617" lon="14.7266967"><ele>454.8</ele><time>2026-04-25T09:57:02.109Z</time></trkpt><trkpt lat="41.02724" lon="14.7266917"><ele>452.20000000000005</ele><time>2026-04-25T09:57:04.109Z</time></trkpt><trkpt lat="41.0271533" lon="14.7266983"><ele>449.6</ele><time>2026-04-25T09:57:05.109Z</time></trkpt><trkpt lat="41.027055" lon="14.7267033"><ele>447.0</ele><time>2026-04-25T09:57:06.109Z</time></trkpt><trkpt lat="41.0269417" lon="14.7267117"><ele>447.0</ele><time>2026-04-25T09:57:07.109Z</time></trkpt><trkpt lat="41.0268217" lon="14.72672"><ele>447.0</ele><time>2026-04-25T09:57:08.109Z</time></trkpt><trkpt lat="41.0266967" lon="14.726725"><ele>447.0</ele><time>2026-04-25T09:57:09.109Z</time></trkpt><trkpt lat="41.0265733" lon="14.726745"><ele>447.0</ele><time>2026-04-25T09:57:10.109Z</time></trkpt><trkpt lat="41.0264383" lon="14.7267633"><ele>446.75</ele><time>2026-04-25T09:57:11.109Z</time></trkpt><trkpt lat="41.0263017" lon="14.7267883"><ele>446.5</ele><time>2026-04-25T09:57:12.109Z</time></trkpt><trkpt lat="41.0261567" lon="14.7268117"><ele>446.25</ele><time>2026-04-25T09:57:13.109Z</time></trkpt><trkpt lat="41.0260183" lon="14.726815"><ele>446.0</ele><time>2026-04-25T09:57:14.109Z</time></trkpt><trkpt lat="41.025885" lon="14.726825"><ele>446.25</ele><time>2026-04-25T09:57:15.11Z</time></trkpt><trkpt lat="41.0257633" lon="14.7268283"><ele>446.5</ele><time>2026-04-25T09:57:16.109Z</time></trkpt><trkpt lat="41.02565" lon="14.72683"><ele>446.75</ele><time>2026-04-25T09:57:17.109Z</time></trkpt><trkpt lat="41.0255383" lon="14.7268283"><ele>447.0</ele><time>2026-04-25T09:57:18.109Z</time></trkpt><trkpt lat="41.0254333" lon="14.7268217"><ele>447.0</ele><time>2026-04-25T09:57:19.109Z</time></trkpt><trkpt lat="41.0253417" lon="14.7268183"><ele>447.00000000000006</ele><time>2026-04-25T09:57:20.109Z</time></trkpt><trkpt lat="41.0252583" lon="14.72681"><ele>447.00000000000006</ele><time>2026-04-25T09:57:21.109Z</time></trkpt><trkpt lat="41.025165" lon="14.72679"><ele>447.0</ele><time>2026-04-25T09:57:22.109Z</time></trkpt><trkpt lat="41.0250667" lon="14.7267667"><ele>447.0</ele><time>2026-04-25T09:57:23.109Z</time></trkpt><trkpt lat="41.0249717" lon="14.726725"><ele>447.5</ele><time>2026-04-25T09:57:24.109Z</time></trkpt><trkpt lat="41.0248667" lon="14.7266667"><ele>448.0</ele><time>2026-04-25T09:57:25.109Z</time></trkpt><trkpt lat="41.0247617" lon="14.7266"><ele>448.5</ele><time>2026-04-25T09:57:26.109Z</time></trkpt><trkpt lat="41.0246517" lon="14.7265367"><ele>449.0</ele><time>2026-04-25T09:57:27.109Z</time></trkpt><trkpt lat="41.024535" lon="14.7264867"><ele>449.0</ele><time>2026-04-25T09:57:28.11Z</time></trkpt><trkpt lat="41.0244233" lon="14.7264467"><ele>449.0</ele><time>2026-04-25T09:57:29.109Z</time></trkpt><trkpt lat="41.0243233" lon="14.726415"><ele>449.0</ele><time>2026-04-25T09:57:30.109Z</time></trkpt><trkpt lat="41.024235" lon="14.7263883"><ele>449.0</ele><time>2026-04-25T09:57:31.109Z</time></trkpt><trkpt lat="41.0241533" lon="14.7263617"><ele>449.0</ele><time>2026-04-25T09:57:32.109Z</time></trkpt><trkpt lat="41.0240433" lon="14.7263767"><ele>447.0</ele><time>2026-04-25T09:57:34.109Z</time></trkpt><trkpt lat="41.0239933" lon="14.7264833"><ele>445.0</ele><time>2026-04-25T09:57:36.109Z</time></trkpt><trkpt lat="41.0239617" lon="14.7266517"><ele>443.0</ele><time>2026-04-25T09:57:38.109Z</time></trkpt><trkpt lat="41.0239483" lon="14.7267733"><ele>441.0</ele><time>2026-04-25T09:57:39.109Z</time></trkpt><trkpt lat="41.0239183" lon="14.7269133"><ele>439.0</ele><time>2026-04-25T09:57:40.109Z</time></trkpt><trkpt lat="41.0238933" lon="14.727055"><ele>439.0</ele><time>2026-04-25T09:57:41.109Z</time></trkpt><trkpt lat="41.02386" lon="14.7271917"><ele>439.0</ele><time>2026-04-25T09:57:42.109Z</time></trkpt><trkpt lat="41.023825" lon="14.7273217"><ele>439.0</ele><time>2026-04-25T09:57:43.109Z</time></trkpt><trkpt lat="41.0237683" lon="14.727445"><ele>439.0</ele><time>2026-04-25T09:57:44.109Z</time></trkpt><trkpt lat="41.0236967" lon="14.7275567"><ele>439.0</ele><time>2026-04-25T09:57:45.109Z</time></trkpt><trkpt lat="41.023605" lon="14.727655"><ele>438.4</ele><time>2026-04-25T09:57:46.109Z</time></trkpt><trkpt lat="41.0235" lon="14.7277417"><ele>437.79999999999995</ele><time>2026-04-25T09:57:47.109Z</time></trkpt><trkpt lat="41.02339" lon="14.7277983"><ele>437.20000000000005</ele><time>2026-04-25T09:57:48.109Z</time></trkpt><trkpt lat="41.0232883" lon="14.7278467"><ele>436.6</ele><time>2026-04-25T09:57:49.109Z</time></trkpt><trkpt lat="41.0231917" lon="14.7278767"><ele>436.0</ele><time>2026-04-25T09:57:50.109Z</time></trkpt><trkpt lat="41.0231083" lon="14.7279117"><ele>436.0</ele><time>2026-04-25T09:57:51.109Z</time></trkpt><trkpt lat="41.0230333" lon="14.727965"><ele>436.0</ele><time>2026-04-25T09:57:52.109Z</time></trkpt><trkpt lat="41.0229567" lon="14.7280483"><ele>436.0</ele><time>2026-04-25T09:57:53.109Z</time></trkpt><trkpt lat="41.0228717" lon="14.7281683"><ele>436.0</ele><time>2026-04-25T09:57:54.109Z</time></trkpt><trkpt lat="41.022785" lon="14.7282883"><ele>436.0</ele><time>2026-04-25T09:57:55.109Z</time></trkpt><trkpt lat="41.0227" lon="14.7283817"><ele>436.0</ele><time>2026-04-25T09:57:56.11Z</time></trkpt><trkpt lat="41.0226067" lon="14.7284317"><ele>436.0</ele><time>2026-04-25T09:57:57.109Z</time></trkpt><trkpt lat="41.022505" lon="14.7284417"><ele>436.0</ele><time>2026-04-25T09:57:58.109Z</time></trkpt><trkpt lat="41.0223883" lon="14.7284283"><ele>436.0</ele><time>2026-04-25T09:57:59.109Z</time></trkpt><trkpt lat="41.022275" lon="14.728405"><ele>436.0</ele><time>2026-04-25T09:58:00.109Z</time></trkpt><trkpt lat="41.02219" lon="14.7283883"><ele>435.83333333333337</ele><time>2026-04-25T09:58:01.109Z</time></trkpt><trkpt lat="41.0221083" lon="14.7283733"><ele>435.6666666666667</ele><time>2026-04-25T09:58:02.109Z</time></trkpt><trkpt lat="41.022035" lon="14.728375"><ele>435.5</ele><time>2026-04-25T09:58:03.11Z</time></trkpt><trkpt lat="41.0219683" lon="14.7284083"><ele>435.33333333333337</ele><time>2026-04-25T09:58:04.109Z</time></trkpt><trkpt lat="41.02191" lon="14.72847"><ele>435.1666666666667</ele><time>2026-04-25T09:58:05.109Z</time></trkpt><trkpt lat="41.02185" lon="14.7285667"><ele>435.0</ele><time>2026-04-25T09:58:06.109Z</time></trkpt><trkpt lat="41.02178" lon="14.7286733"><ele>435.0</ele><time>2026-04-25T09:58:07.109Z</time></trkpt><trkpt lat="41.02171" lon="14.72879"><ele>435.0</ele><time>2026-04-25T09:58:08.109Z</time></trkpt><trkpt lat="41.0216117" lon="14.7288933"><ele>435.0</ele><time>2026-04-25T09:58:09.109Z</time></trkpt><trkpt lat="41.021505" lon="14.7289767"><ele>435.0</ele><time>2026-04-25T09:58:10.109Z</time></trkpt><trkpt lat="41.0213917" lon="14.729035"><ele>432.6</ele><time>2026-04-25T09:58:11.109Z</time></trkpt><trkpt lat="41.0212817" lon="14.7290633"><ele>430.2</ele><time>2026-04-25T09:58:12.109Z</time></trkpt><trkpt lat="41.021175" lon="14.7290783"><ele>427.79999999999995</ele><time>2026-04-25T09:58:13.109Z</time></trkpt><trkpt lat="41.0210717" lon="14.7290983"><ele>425.4</ele><time>2026-04-25T09:58:14.109Z</time></trkpt><trkpt lat="41.0209767" lon="14.7291167"><ele>423.0</ele><time>2026-04-25T09:58:15.109Z</time></trkpt><trkpt lat="41.0208967" lon="14.7291283"><ele>423.0</ele><time>2026-04-25T09:58:16.109Z</time></trkpt><trkpt lat="41.0207933" lon="14.7291067"><ele>423.0</ele><time>2026-04-25T09:58:18.109Z</time></trkpt><trkpt lat="41.0207883" lon="14.7289867"><ele>423.0</ele><time>2026-04-25T09:58:20.109Z</time></trkpt><trkpt lat="41.020825" lon="14.7289017"><ele>423.0</ele><time>2026-04-25T09:58:21.109Z</time></trkpt><trkpt lat="41.0208833" lon="14.7288017"><ele>423.0</ele><time>2026-04-25T09:58:22.109Z</time></trkpt><trkpt lat="41.0209483" lon="14.7286933"><ele>423.0</ele><time>2026-04-25T09:58:23.11Z</time></trkpt><trkpt lat="41.02101" lon="14.7285767"><ele>423.0</ele><time>2026-04-25T09:58:24.109Z</time></trkpt><trkpt lat="41.021055" lon="14.7284567"><ele>423.0</ele><time>2026-04-25T09:58:25.109Z</time></trkpt><trkpt lat="41.021085" lon="14.7283367"><ele>423.0</ele><time>2026-04-25T09:58:26.109Z</time></trkpt><trkpt lat="41.0210967" lon="14.7281867"><ele>423.0</ele><time>2026-04-25T09:58:27.109Z</time></trkpt><trkpt lat="41.0210917" lon="14.7280183"><ele>421.59999999999997</ele><time>2026-04-25T09:58:28.109Z</time></trkpt><trkpt lat="41.0210883" lon="14.7278583"><ele>420.2</ele><time>2026-04-25T09:58:29.109Z</time></trkpt><trkpt lat="41.0210917" lon="14.7277167"><ele>418.8</ele><time>2026-04-25T09:58:30.109Z</time></trkpt><trkpt lat="41.0210883" lon="14.727605"><ele>417.4</ele><time>2026-04-25T09:58:31.109Z</time></trkpt><trkpt lat="41.0210667" lon="14.72748"><ele>416.0</ele><time>2026-04-25T09:58:33.109Z</time></trkpt><trkpt lat="41.0209983" lon="14.7274333"><ele>415.99999999999994</ele><time>2026-04-25T09:58:35.109Z</time></trkpt><trkpt lat="41.020945" lon="14.7275217"><ele>416.0</ele><time>2026-04-25T09:58:37.109Z</time></trkpt><trkpt lat="41.02092" lon="14.7276"><ele>416.0</ele><time>2026-04-25T09:58:38.109Z</time></trkpt><trkpt lat="41.0208967" lon="14.7276867"><ele>416.0</ele><time>2026-04-25T09:58:39.109Z</time></trkpt><trkpt lat="41.0208683" lon="14.72777"><ele>415.99999999999994</ele><time>2026-04-25T09:58:40.109Z</time></trkpt><trkpt lat="41.0208317" lon="14.727845"><ele>416.0</ele><time>2026-04-25T09:58:41.109Z</time></trkpt><trkpt lat="41.020755" lon="14.72796"><ele>413.99999999999994</ele><time>2026-04-25T09:58:43.109Z</time></trkpt><trkpt lat="41.0206483" lon="14.72801"><ele>412.0</ele><time>2026-04-25T09:58:45.109Z</time></trkpt><trkpt lat="41.020585" lon="14.728"><ele>410.0</ele><time>2026-04-25T09:58:46.109Z</time></trkpt><trkpt lat="41.0204683" lon="14.7279233"><ele>408.0</ele><time>2026-04-25T09:58:48.109Z</time></trkpt><trkpt lat="41.0204067" lon="14.7278783"><ele>405.99999999999994</ele><time>2026-04-25T09:58:49.109Z</time></trkpt><trkpt lat="41.0203433" lon="14.7278433"><ele>404.0</ele><time>2026-04-25T09:58:50.109Z</time></trkpt><trkpt lat="41.0202767" lon="14.7278117"><ele>403.99999999999994</ele><time>2026-04-25T09:58:51.109Z</time></trkpt><trkpt lat="41.0202033" lon="14.7278033"><ele>404.0</ele><time>2026-04-25T09:58:52.109Z</time></trkpt><trkpt lat="41.0201383" lon="14.7278183"><ele>404.0</ele><time>2026-04-25T09:58:53.109Z</time></trkpt><trkpt lat="41.0200667" lon="14.7278667"><ele>404.0</ele><time>2026-04-25T09:58:54.109Z</time></trkpt><trkpt lat="41.0199933" lon="14.7279383"><ele>403.99999999999994</ele><time>2026-04-25T09:58:55.109Z</time></trkpt><trkpt lat="41.019915" lon="14.7280333"><ele>404.0</ele><time>2026-04-25T09:58:56.109Z</time></trkpt><trkpt lat="41.0198267" lon="14.7281383"><ele>401.5</ele><time>2026-04-25T09:58:57.109Z</time></trkpt><trkpt lat="41.0197233" lon="14.7282183"><ele>399.0</ele><time>2026-04-25T09:58:58.109Z</time></trkpt><trkpt lat="41.0196183" lon="14.72829"><ele>396.5</ele><time>2026-04-25T09:58:59.109Z</time></trkpt><trkpt lat="41.019515" lon="14.7283633"><ele>394.0</ele><time>2026-04-25T09:59:00.109Z</time></trkpt><trkpt lat="41.0194233" lon="14.728445"><ele>394.00000000000006</ele><time>2026-04-25T09:59:01.109Z</time></trkpt><trkpt lat="41.019355" lon="14.7285367"><ele>394.0</ele><time>2026-04-25T09:59:02.109Z</time></trkpt><trkpt lat="41.0193017" lon="14.72863"><ele>394.0</ele><time>2026-04-25T09:59:03.109Z</time></trkpt><trkpt lat="41.0192383" lon="14.72871"><ele>394.0</ele><time>2026-04-25T09:59:04.109Z</time></trkpt><trkpt lat="41.0191733" lon="14.7287583"><ele>394.00000000000006</ele><time>2026-04-25T09:59:05.109Z</time></trkpt><trkpt lat="41.0190917" lon="14.728775"><ele>394.0</ele><time>2026-04-25T09:59:06.109Z</time></trkpt><trkpt lat="41.019005" lon="14.7287633"><ele>395.79999999999995</ele><time>2026-04-25T09:59:07.109Z</time></trkpt><trkpt lat="41.018915" lon="14.72872"><ele>397.59999999999997</ele><time>2026-04-25T09:59:08.109Z</time></trkpt><trkpt lat="41.0188283" lon="14.72867"><ele>399.4</ele><time>2026-04-25T09:59:09.109Z</time></trkpt><trkpt lat="41.0187533" lon="14.7285917"><ele>401.2</ele><time>2026-04-25T09:59:10.109Z</time></trkpt><trkpt lat="41.0186917" lon="14.7285"><ele>403.0</ele><time>2026-04-25T09:59:11.109Z</time></trkpt><trkpt lat="41.0186233" lon="14.72839"><ele>403.00000000000006</ele><time>2026-04-25T09:59:12.109Z</time></trkpt><trkpt lat="41.0185467" lon="14.728275"><ele>403.0</ele><time>2026-04-25T09:59:13.109Z</time></trkpt><trkpt lat="41.0184933" lon="14.72817"><ele>403.0</ele><time>2026-04-25T09:59:14.109Z</time></trkpt><trkpt lat="41.0184683" lon="14.7280733"><ele>403.0</ele><time>2026-04-25T09:59:15.109Z</time></trkpt><trkpt lat="41.01848" lon="14.72798"><ele>403.00000000000006</ele><time>2026-04-25T09:59:16.109Z</time></trkpt><trkpt lat="41.0185067" lon="14.7278817"><ele>403.0</ele><time>2026-04-25T09:59:17.11Z</time></trkpt><trkpt lat="41.0185317" lon="14.727795"><ele>403.59999999999997</ele><time>2026-04-25T09:59:18.109Z</time></trkpt><trkpt lat="41.0185367" lon="14.7276767"><ele>404.2</ele><time>2026-04-25T09:59:20.109Z</time></trkpt><trkpt lat="41.0185417" lon="14.7275567"><ele>404.8</ele><time>2026-04-25T09:59:23.109Z</time></trkpt><trkpt lat="41.0185967" lon="14.7274217"><ele>405.4</ele><time>2026-04-25T09:59:25.109Z</time></trkpt><trkpt lat="41.0186467" lon="14.72733"><ele>406.0</ele><time>2026-04-25T09:59:26.109Z</time></trkpt><trkpt lat="41.0187067" lon="14.7272217"><ele>406.0</ele><time>2026-04-25T09:59:27.109Z</time></trkpt><trkpt lat="41.01877" lon="14.7270917"><ele>406.0</ele><time>2026-04-25T09:59:28.109Z</time></trkpt><trkpt lat="41.0188333" lon="14.726955"><ele>406.0</ele><time>2026-04-25T09:59:29.109Z</time></trkpt><trkpt lat="41.0189017" lon="14.72682"><ele>406.0</ele><time>2026-04-25T09:59:30.109Z</time></trkpt><trkpt lat="41.01898" lon="14.7266767"><ele>405.25</ele><time>2026-04-25T09:59:31.109Z</time></trkpt><trkpt lat="41.0190633" lon="14.7265217"><ele>404.5</ele><time>2026-04-25T09:59:32.109Z</time></trkpt><trkpt lat="41.0191467" lon="14.7263617"><ele>403.75</ele><time>2026-04-25T09:59:33.109Z</time></trkpt><trkpt lat="41.0192317" lon="14.726205"><ele>403.0</ele><time>2026-04-25T09:59:34.109Z</time></trkpt><trkpt lat="41.0193267" lon="14.7260517"><ele>403.0</ele><time>2026-04-25T09:59:35.109Z</time></trkpt><trkpt lat="41.0194233" lon="14.7258883"><ele>403.0</ele><time>2026-04-25T09:59:36.109Z</time></trkpt><trkpt lat="41.01951" lon="14.725735"><ele>403.0</ele><time>2026-04-25T09:59:37.109Z</time></trkpt><trkpt lat="41.01959" lon="14.7255867"><ele>403.0</ele><time>2026-04-25T09:59:38.109Z</time></trkpt><trkpt lat="41.0196783" lon="14.7254383"><ele>403.0</ele><time>2026-04-25T09:59:39.109Z</time></trkpt><trkpt lat="41.0197717" lon="14.7252933"><ele>403.0</ele><time>2026-04-25T09:59:40.109Z</time></trkpt><trkpt lat="41.01987" lon="14.72515"><ele>403.0</ele><time>2026-04-25T09:59:41.109Z</time></trkpt><trkpt lat="41.019965" lon="14.7250017"><ele>403.0</ele><time>2026-04-25T09:59:42.109Z</time></trkpt><trkpt lat="41.0200617" lon="14.724855"><ele>402.5</ele><time>2026-04-25T09:59:43.109Z</time></trkpt><trkpt lat="41.0201567" lon="14.7247083"><ele>402.0</ele><time>2026-04-25T09:59:44.109Z</time></trkpt><trkpt lat="41.0202467" lon="14.72458"><ele>401.5</ele><time>2026-04-25T09:59:45.109Z</time></trkpt><trkpt lat="41.0203517" lon="14.7244583"><ele>401.0</ele><time>2026-04-25T09:59:46.109Z</time></trkpt><trkpt lat="41.0204483" lon="14.7243383"><ele>401.0</ele><time>2026-04-25T09:59:47.109Z</time></trkpt><trkpt lat="41.0205567" lon="14.7242217"><ele>401.0</ele><time>2026-04-25T09:59:48.109Z</time></trkpt><trkpt lat="41.0206767" lon="14.724115"><ele>401.0</ele><time>2026-04-25T09:59:49.109Z</time></trkpt><trkpt lat="41.02079" lon="14.7240067"><ele>401.0</ele><time>2026-04-25T09:59:50.109Z</time></trkpt><trkpt lat="41.0208967" lon="14.7238867"><ele>397.0</ele><time>2026-04-25T09:59:51.11Z</time></trkpt><trkpt lat="41.0210117" lon="14.7237567"><ele>393.0</ele><time>2026-04-25T09:59:52.109Z</time></trkpt><trkpt lat="41.0211317" lon="14.7236217"><ele>389.0</ele><time>2026-04-25T09:59:53.11Z</time></trkpt><trkpt lat="41.0212383" lon="14.723485"><ele>389.0</ele><time>2026-04-25T09:59:54.11Z</time></trkpt><trkpt lat="41.0213317" lon="14.7233367"><ele>389.0</ele><time>2026-04-25T09:59:55.109Z</time></trkpt><trkpt lat="41.021425" lon="14.7231817"><ele>389.0</ele><time>2026-04-25T09:59:56.109Z</time></trkpt><trkpt lat="41.0215133" lon="14.7230267"><ele>389.0</ele><time>2026-04-25T09:59:57.109Z</time></trkpt><trkpt lat="41.0215917" lon="14.7228733"><ele>385.75</ele><time>2026-04-25T09:59:58.109Z</time></trkpt><trkpt lat="41.0216633" lon="14.7227217"><ele>382.5</ele><time>2026-04-25T09:59:59.11Z</time></trkpt><trkpt lat="41.021725" lon="14.72256"><ele>379.25</ele><time>2026-04-25T10:00:00.109Z</time></trkpt><trkpt lat="41.0217767" lon="14.7224017"><ele>376.0</ele><time>2026-04-25T10:00:01.109Z</time></trkpt><trkpt lat="41.0218033" lon="14.722245"><ele>376.0</ele><time>2026-04-25T10:00:02.109Z</time></trkpt><trkpt lat="41.0218117" lon="14.72209"><ele>376.0</ele><time>2026-04-25T10:00:03.109Z</time></trkpt><trkpt lat="41.02181" lon="14.72192"><ele>376.0</ele><time>2026-04-25T10:00:04.109Z</time></trkpt><trkpt lat="41.0217933" lon="14.7217383"><ele>376.0</ele><time>2026-04-25T10:00:05.109Z</time></trkpt><trkpt lat="41.0217733" lon="14.7215533"><ele>376.5</ele><time>2026-04-25T10:00:06.11Z</time></trkpt><trkpt lat="41.0217483" lon="14.721365"><ele>377.0</ele><time>2026-04-25T10:00:07.109Z</time></trkpt><trkpt lat="41.0217167" lon="14.721185"><ele>377.5</ele><time>2026-04-25T10:00:08.109Z</time></trkpt><trkpt lat="41.021685" lon="14.7210117"><ele>378.0</ele><time>2026-04-25T10:00:09.109Z</time></trkpt><trkpt lat="41.0216633" lon="14.72085"><ele>381.75</ele><time>2026-04-25T10:00:10.109Z</time></trkpt><trkpt lat="41.021645" lon="14.7206967"><ele>385.5</ele><time>2026-04-25T10:00:11.109Z</time></trkpt><trkpt lat="41.0216333" lon="14.7205467"><ele>389.25</ele><time>2026-04-25T10:00:12.109Z</time></trkpt><trkpt lat="41.0216167" lon="14.720395"><ele>393.0</ele><time>2026-04-25T10:00:13.109Z</time></trkpt><trkpt lat="41.0216067" lon="14.7202467"><ele>392.0</ele><time>2026-04-25T10:00:14.109Z</time></trkpt><trkpt lat="41.0215917" lon="14.7200867"><ele>391.0</ele><time>2026-04-25T10:00:15.109Z</time></trkpt><trkpt lat="41.021565" lon="14.7199183"><ele>390.0</ele><time>2026-04-25T10:00:16.109Z</time></trkpt><trkpt lat="41.021535" lon="14.7197433"><ele>389.0</ele><time>2026-04-25T10:00:17.109Z</time></trkpt><trkpt lat="41.0215" lon="14.7195617"><ele>386.75</ele><time>2026-04-25T10:00:18.109Z</time></trkpt><trkpt lat="41.02146" lon="14.7193583"><ele>384.5</ele><time>2026-04-25T10:00:19.109Z</time></trkpt><trkpt lat="41.02142" lon="14.7191617"><ele>382.25</ele><time>2026-04-25T10:00:20.109Z</time></trkpt><trkpt lat="41.0213883" lon="14.7189917"><ele>380.0</ele><time>2026-04-25T10:00:21.109Z</time></trkpt><trkpt lat="41.0213633" lon="14.718835"><ele>380.0</ele><time>2026-04-25T10:00:22.109Z</time></trkpt><trkpt lat="41.021335" lon="14.7186867"><ele>380.0</ele><time>2026-04-25T10:00:23.109Z</time></trkpt><trkpt lat="41.0213167" lon="14.7185567"><ele>380.0</ele><time>2026-04-25T10:00:24.109Z</time></trkpt><trkpt lat="41.0213083" lon="14.7184433"><ele>380.0</ele><time>2026-04-25T10:00:25.109Z</time></trkpt><trkpt lat="41.0213133" lon="14.71834"><ele>380.0</ele><time>2026-04-25T10:00:26.109Z</time></trkpt><trkpt lat="41.0213233" lon="14.7182467"><ele>377.8</ele><time>2026-04-25T10:00:27.109Z</time></trkpt><trkpt lat="41.0213583" lon="14.7181717"><ele>375.6</ele><time>2026-04-25T10:00:28.109Z</time></trkpt><trkpt lat="41.021395" lon="14.7180033"><ele>373.4</ele><time>2026-04-25T10:00:30.109Z</time></trkpt><trkpt lat="41.0214033" lon="14.7179"><ele>371.2</ele><time>2026-04-25T10:00:31.11Z</time></trkpt><trkpt lat="41.021405" lon="14.7177917"><ele>369.0</ele><time>2026-04-25T10:00:32.109Z</time></trkpt><trkpt lat="41.0214183" lon="14.7176683"><ele>368.25</ele><time>2026-04-25T10:00:33.109Z</time></trkpt><trkpt lat="41.02145" lon="14.7175433"><ele>367.5</ele><time>2026-04-25T10:00:34.11Z</time></trkpt><trkpt lat="41.0215033" lon="14.717405"><ele>366.75</ele><time>2026-04-25T10:00:35.109Z</time></trkpt><trkpt lat="41.021565" lon="14.7172617"><ele>366.0</ele><time>2026-04-25T10:00:36.109Z</time></trkpt><trkpt lat="41.021635" lon="14.7171067"><ele>363.75</ele><time>2026-04-25T10:00:37.109Z</time></trkpt><trkpt lat="41.0217133" lon="14.7169433"><ele>361.5</ele><time>2026-04-25T10:00:38.109Z</time></trkpt><trkpt lat="41.02179" lon="14.7168"><ele>359.25</ele><time>2026-04-25T10:00:39.109Z</time></trkpt><trkpt lat="41.0218583" lon="14.7166617"><ele>357.0</ele><time>2026-04-25T10:00:40.109Z</time></trkpt><trkpt lat="41.0219183" lon="14.71653"><ele>357.0</ele><time>2026-04-25T10:00:41.109Z</time></trkpt><trkpt lat="41.0219517" lon="14.716395"><ele>357.0</ele><time>2026-04-25T10:00:42.109Z</time></trkpt><trkpt lat="41.021965" lon="14.7162617"><ele>357.0</ele><time>2026-04-25T10:00:43.109Z</time></trkpt><trkpt lat="41.0219567" lon="14.7161267"><ele>357.0</ele><time>2026-04-25T10:00:44.109Z</time></trkpt><trkpt lat="41.0219267" lon="14.7159883"><ele>357.0</ele><time>2026-04-25T10:00:45.11Z</time></trkpt><trkpt lat="41.021875" lon="14.7158567"><ele>356.75</ele><time>2026-04-25T10:00:46.109Z</time></trkpt><trkpt lat="41.0218083" lon="14.7157267"><ele>356.5</ele><time>2026-04-25T10:00:47.109Z</time></trkpt><trkpt lat="41.021735" lon="14.7156017"><ele>356.25</ele><time>2026-04-25T10:00:48.109Z</time></trkpt><trkpt lat="41.02166" lon="14.71547"><ele>356.0</ele><time>2026-04-25T10:00:49.109Z</time></trkpt><trkpt lat="41.02158" lon="14.715335"><ele>357.0</ele><time>2026-04-25T10:00:50.109Z</time></trkpt><trkpt lat="41.021495" lon="14.7151983"><ele>358.0</ele><time>2026-04-25T10:00:51.109Z</time></trkpt><trkpt lat="41.0214233" lon="14.71506"><ele>359.0</ele><time>2026-04-25T10:00:52.109Z</time></trkpt><trkpt lat="41.0213467" lon="14.71494"><ele>360.0</ele><time>2026-04-25T10:00:53.109Z</time></trkpt><trkpt lat="41.0212733" lon="14.7148183"><ele>360.0</ele><time>2026-04-25T10:00:54.109Z</time></trkpt><trkpt lat="41.0211967" lon="14.714695"><ele>360.0</ele><time>2026-04-25T10:00:55.109Z</time></trkpt><trkpt lat="41.0211183" lon="14.71456"><ele>360.0</ele><time>2026-04-25T10:00:56.109Z</time></trkpt><trkpt lat="41.0210317" lon="14.7144117"><ele>360.0</ele><time>2026-04-25T10:00:57.11Z</time></trkpt><trkpt lat="41.02094" lon="14.7142667"><ele>359.3333333333333</ele><time>2026-04-25T10:00:58.109Z</time></trkpt><trkpt lat="41.0208467" lon="14.714115"><ele>358.66666666666663</ele><time>2026-04-25T10:00:59.109Z</time></trkpt><trkpt lat="41.020745" lon="14.7139467"><ele>358.0</ele><time>2026-04-25T10:01:00.109Z</time></trkpt><trkpt lat="41.0206317" lon="14.7137933"><ele>358.0</ele><time>2026-04-25T10:01:01.109Z</time></trkpt><trkpt lat="41.0205317" lon="14.71364"><ele>358.0</ele><time>2026-04-25T10:01:02.109Z</time></trkpt><trkpt lat="41.0204217" lon="14.7134833"><ele>358.0</ele><time>2026-04-25T10:01:03.109Z</time></trkpt><trkpt lat="41.0203183" lon="14.7133317"><ele>357.3333333333333</ele><time>2026-04-25T10:01:04.11Z</time></trkpt><trkpt lat="41.0202167" lon="14.7131617"><ele>356.6666666666667</ele><time>2026-04-25T10:01:05.11Z</time></trkpt><trkpt lat="41.0200983" lon="14.7129967"><ele>356.0</ele><time>2026-04-25T10:01:06.109Z</time></trkpt><trkpt lat="41.0199833" lon="14.7128367"><ele>352.33333333333337</ele><time>2026-04-25T10:01:07.109Z</time></trkpt><trkpt lat="41.01987" lon="14.71267"><ele>348.6666666666667</ele><time>2026-04-25T10:01:08.109Z</time></trkpt><trkpt lat="41.0197583" lon="14.71252"><ele>345.0</ele><time>2026-04-25T10:01:09.109Z</time></trkpt><trkpt lat="41.0196583" lon="14.7123733"><ele>345.0</ele><time>2026-04-25T10:01:10.109Z</time></trkpt><trkpt lat="41.0195633" lon="14.7122333"><ele>345.0</ele><time>2026-04-25T10:01:11.11Z</time></trkpt><trkpt lat="41.0194717" lon="14.7121083"><ele>345.0</ele><time>2026-04-25T10:01:12.109Z</time></trkpt><trkpt lat="41.0193833" lon="14.7119817"><ele>345.0</ele><time>2026-04-25T10:01:13.109Z</time></trkpt><trkpt lat="41.0193083" lon="14.7118567"><ele>345.25</ele><time>2026-04-25T10:01:14.109Z</time></trkpt><trkpt lat="41.0192433" lon="14.7117283"><ele>345.5</ele><time>2026-04-25T10:01:15.109Z</time></trkpt><trkpt lat="41.01919" lon="14.7115983"><ele>345.75</ele><time>2026-04-25T10:01:16.109Z</time></trkpt><trkpt lat="41.0191567" lon="14.7114533"><ele>346.0</ele><time>2026-04-25T10:01:17.109Z</time></trkpt><trkpt lat="41.0191433" lon="14.7113"><ele>346.0</ele><time>2026-04-25T10:01:18.109Z</time></trkpt><trkpt lat="41.0191417" lon="14.7111467"><ele>346.0</ele><time>2026-04-25T10:01:19.109Z</time></trkpt><trkpt lat="41.01916" lon="14.7109817"><ele>346.0</ele><time>2026-04-25T10:01:20.109Z</time></trkpt><trkpt lat="41.0191933" lon="14.71082"><ele>346.0</ele><time>2026-04-25T10:01:21.109Z</time></trkpt><trkpt lat="41.019225" lon="14.7106567"><ele>342.5</ele><time>2026-04-25T10:01:22.109Z</time></trkpt><trkpt lat="41.0192633" lon="14.7105"><ele>339.0</ele><time>2026-04-25T10:01:23.109Z</time></trkpt><trkpt lat="41.0192967" lon="14.7103483"><ele>335.5</ele><time>2026-04-25T10:01:24.109Z</time></trkpt><trkpt lat="41.0193317" lon="14.7101883"><ele>332.0</ele><time>2026-04-25T10:01:25.109Z</time></trkpt><trkpt lat="41.01937" lon="14.7100367"><ele>331.5</ele><time>2026-04-25T10:01:26.109Z</time></trkpt><trkpt lat="41.019405" lon="14.7098867"><ele>331.0</ele><time>2026-04-25T10:01:27.109Z</time></trkpt><trkpt lat="41.0194283" lon="14.70974"><ele>330.5</ele><time>2026-04-25T10:01:28.109Z</time></trkpt><trkpt lat="41.0194467" lon="14.709585"><ele>330.0</ele><time>2026-04-25T10:01:29.109Z</time></trkpt><trkpt lat="41.0194533" lon="14.709425"><ele>328.75</ele><time>2026-04-25T10:01:30.109Z</time></trkpt><trkpt lat="41.0194383" lon="14.709265"><ele>327.5</ele><time>2026-04-25T10:01:31.109Z</time></trkpt><trkpt lat="41.0193967" lon="14.709105"><ele>326.25</ele><time>2026-04-25T10:01:32.109Z</time></trkpt><trkpt lat="41.0193383" lon="14.7089383"><ele>325.0</ele><time>2026-04-25T10:01:33.109Z</time></trkpt><trkpt lat="41.0192767" lon="14.7087483"><ele>325.0</ele><time>2026-04-25T10:01:34.109Z</time></trkpt><trkpt lat="41.0192033" lon="14.7085817"><ele>325.0</ele><time>2026-04-25T10:01:35.11Z</time></trkpt><trkpt lat="41.01913" lon="14.7084317"><ele>325.0</ele><time>2026-04-25T10:01:36.109Z</time></trkpt><trkpt lat="41.0190617" lon="14.7083"><ele>325.0</ele><time>2026-04-25T10:01:37.109Z</time></trkpt><trkpt lat="41.0189833" lon="14.708185"><ele>326.2</ele><time>2026-04-25T10:01:38.109Z</time></trkpt><trkpt lat="41.0189033" lon="14.7080833"><ele>327.4</ele><time>2026-04-25T10:01:39.109Z</time></trkpt><trkpt lat="41.0188317" lon="14.707995"><ele>328.6</ele><time>2026-04-25T10:01:40.109Z</time></trkpt><trkpt lat="41.0187533" lon="14.7079183"><ele>329.8</ele><time>2026-04-25T10:01:41.109Z</time></trkpt><trkpt lat="41.0186433" lon="14.70785"><ele>331.0</ele><time>2026-04-25T10:01:42.109Z</time></trkpt><trkpt lat="41.018505" lon="14.70778"><ele>327.66666666666663</ele><time>2026-04-25T10:01:43.109Z</time></trkpt><trkpt lat="41.01834" lon="14.7077033"><ele>324.3333333333333</ele><time>2026-04-25T10:01:44.109Z</time></trkpt><trkpt lat="41.018165" lon="14.707615"><ele>321.0</ele><time>2026-04-25T10:01:45.109Z</time></trkpt><trkpt lat="41.0179817" lon="14.70754"><ele>321.0</ele><time>2026-04-25T10:01:46.109Z</time></trkpt><trkpt lat="41.0178067" lon="14.7074633"><ele>321.0</ele><time>2026-04-25T10:01:47.109Z</time></trkpt><trkpt lat="41.0176317" lon="14.7073983"><ele>321.0</ele><time>2026-04-25T10:01:48.109Z</time></trkpt><trkpt lat="41.01745" lon="14.70734"><ele>321.0</ele><time>2026-04-25T10:01:49.109Z</time></trkpt><trkpt lat="41.0172767" lon="14.707305"><ele>321.0</ele><time>2026-04-25T10:01:50.11Z</time></trkpt><trkpt lat="41.0171" lon="14.7072817"><ele>321.0</ele><time>2026-04-25T10:01:51.109Z</time></trkpt><trkpt lat="41.016915" lon="14.7072583"><ele>321.0</ele><time>2026-04-25T10:01:52.109Z</time></trkpt><trkpt lat="41.0167433" lon="14.707255"><ele>321.0</ele><time>2026-04-25T10:01:53.109Z</time></trkpt><trkpt lat="41.0165783" lon="14.70726"><ele>321.0</ele><time>2026-04-25T10:01:54.109Z</time></trkpt><trkpt lat="41.0164283" lon="14.7072567"><ele>321.25</ele><time>2026-04-25T10:01:55.11Z</time></trkpt><trkpt lat="41.0163017" lon="14.7072417"><ele>321.5</ele><time>2026-04-25T10:01:56.109Z</time></trkpt><trkpt lat="41.0161767" lon="14.7072183"><ele>321.75</ele><time>2026-04-25T10:01:57.109Z</time></trkpt><trkpt lat="41.0160767" lon="14.70718"><ele>322.0</ele><time>2026-04-25T10:01:58.109Z</time></trkpt><trkpt lat="41.0159933" lon="14.7071017"><ele>322.0</ele><time>2026-04-25T10:01:59.109Z</time></trkpt><trkpt lat="41.015915" lon="14.7069967"><ele>322.0</ele><time>2026-04-25T10:02:00.109Z</time></trkpt><trkpt lat="41.0158483" lon="14.70686"><ele>322.0</ele><time>2026-04-25T10:02:01.109Z</time></trkpt><trkpt lat="41.0157817" lon="14.7066967"><ele>322.0</ele><time>2026-04-25T10:02:02.109Z</time></trkpt><trkpt lat="41.0157117" lon="14.70652"><ele>323.3333333333333</ele><time>2026-04-25T10:02:03.109Z</time></trkpt><trkpt lat="41.015645" lon="14.706335"><ele>324.6666666666667</ele><time>2026-04-25T10:02:04.109Z</time></trkpt><trkpt lat="41.0155717" lon="14.7061517"><ele>326.0</ele><time>2026-04-25T10:02:05.109Z</time></trkpt><trkpt lat="41.0154917" lon="14.70598"><ele>323.25</ele><time>2026-04-25T10:02:06.109Z</time></trkpt><trkpt lat="41.0154033" lon="14.7058117"><ele>320.5</ele><time>2026-04-25T10:02:07.109Z</time></trkpt><trkpt lat="41.0153167" lon="14.7056533"><ele>317.75</ele><time>2026-04-25T10:02:08.11Z</time></trkpt><trkpt lat="41.0152317" lon="14.7055067"><ele>315.0</ele><time>2026-04-25T10:02:09.109Z</time></trkpt><trkpt lat="41.0151567" lon="14.7053633"><ele>313.0</ele><time>2026-04-25T10:02:10.109Z</time></trkpt><trkpt lat="41.0151" lon="14.705225"><ele>311.0</ele><time>2026-04-25T10:02:11.11Z</time></trkpt><trkpt lat="41.0150633" lon="14.705075"><ele>309.0</ele><time>2026-04-25T10:02:12.109Z</time></trkpt><trkpt lat="41.0150367" lon="14.7049117"><ele>307.0</ele><time>2026-04-25T10:02:13.109Z</time></trkpt><trkpt lat="41.015025" lon="14.704765"><ele>307.0</ele><time>2026-04-25T10:02:14.109Z</time></trkpt><trkpt lat="41.0150283" lon="14.70465"><ele>307.0</ele><time>2026-04-25T10:02:15.109Z</time></trkpt><trkpt lat="41.0150383" lon="14.70455"><ele>307.0</ele><time>2026-04-25T10:02:16.109Z</time></trkpt><trkpt lat="41.0150683" lon="14.7044517"><ele>307.0</ele><time>2026-04-25T10:02:17.109Z</time></trkpt><trkpt lat="41.0151167" lon="14.7043567"><ele>307.0</ele><time>2026-04-25T10:02:18.109Z</time></trkpt><trkpt lat="41.0151833" lon="14.7042683"><ele>307.0</ele><time>2026-04-25T10:02:19.109Z</time></trkpt><trkpt lat="41.0152783" lon="14.7041983"><ele>308.5</ele><time>2026-04-25T10:02:20.109Z</time></trkpt><trkpt lat="41.015395" lon="14.7041467"><ele>310.0</ele><time>2026-04-25T10:02:21.109Z</time></trkpt><trkpt lat="41.0155317" lon="14.7041067"><ele>311.5</ele><time>2026-04-25T10:02:22.109Z</time></trkpt><trkpt lat="41.0156717" lon="14.7040767"><ele>313.0</ele><time>2026-04-25T10:02:23.109Z</time></trkpt><trkpt lat="41.015815" lon="14.7040633"><ele>312.25</ele><time>2026-04-25T10:02:24.109Z</time></trkpt><trkpt lat="41.015965" lon="14.7040583"><ele>311.5</ele><time>2026-04-25T10:02:25.109Z</time></trkpt><trkpt lat="41.016115" lon="14.7040783"><ele>310.75</ele><time>2026-04-25T10:02:26.109Z</time></trkpt><trkpt lat="41.0162633" lon="14.7040883"><ele>310.0</ele><time>2026-04-25T10:02:27.109Z</time></trkpt><trkpt lat="41.016415" lon="14.70409"><ele>310.0</ele><time>2026-04-25T10:02:28.109Z</time></trkpt><trkpt lat="41.016575" lon="14.7040633"><ele>310.0</ele><time>2026-04-25T10:02:29.109Z</time></trkpt><trkpt lat="41.01674" lon="14.7040333"><ele>310.0</ele><time>2026-04-25T10:02:30.109Z</time></trkpt><trkpt lat="41.016905" lon="14.7040033"><ele>308.66666666666663</ele><time>2026-04-25T10:02:31.109Z</time></trkpt><trkpt lat="41.0170633" lon="14.703995"><ele>307.3333333333333</ele><time>2026-04-25T10:02:32.109Z</time></trkpt><trkpt lat="41.0172417" lon="14.7039917"><ele>306.0</ele><time>2026-04-25T10:02:33.109Z</time></trkpt><trkpt lat="41.01742" lon="14.70399"><ele>302.6666666666667</ele><time>2026-04-25T10:02:34.109Z</time></trkpt><trkpt lat="41.0176033" lon="14.704"><ele>299.33333333333337</ele><time>2026-04-25T10:02:35.109Z</time></trkpt><trkpt lat="41.0177867" lon="14.7040183"><ele>296.0</ele><time>2026-04-25T10:02:36.109Z</time></trkpt><trkpt lat="41.0179667" lon="14.7040417"><ele>296.0</ele><time>2026-04-25T10:02:37.11Z</time></trkpt><trkpt lat="41.0181267" lon="14.704075"><ele>296.0</ele><time>2026-04-25T10:02:38.109Z</time></trkpt><trkpt lat="41.01828" lon="14.7040983"><ele>296.0</ele><time>2026-04-25T10:02:39.109Z</time></trkpt><trkpt lat="41.01843" lon="14.7041283"><ele>295.0</ele><time>2026-04-25T10:02:40.109Z</time></trkpt><trkpt lat="41.01858" lon="14.70418"><ele>294.0</ele><time>2026-04-25T10:02:41.109Z</time></trkpt><trkpt lat="41.01873" lon="14.7042433"><ele>293.0</ele><time>2026-04-25T10:02:42.11Z</time></trkpt><trkpt lat="41.01888" lon="14.7043133"><ele>293.0</ele><time>2026-04-25T10:02:43.109Z</time></trkpt><trkpt lat="41.01902" lon="14.70438"><ele>293.0</ele><time>2026-04-25T10:02:44.109Z</time></trkpt><trkpt lat="41.0191483" lon="14.7044467"><ele>293.0</ele><time>2026-04-25T10:02:45.109Z</time></trkpt><trkpt lat="41.0192817" lon="14.7044933"><ele>293.0</ele><time>2026-04-25T10:02:46.109Z</time></trkpt><trkpt lat="41.0194233" lon="14.7045017"><ele>289.0</ele><time>2026-04-25T10:02:47.11Z</time></trkpt><trkpt lat="41.019585" lon="14.70451"><ele>285.0</ele><time>2026-04-25T10:02:48.109Z</time></trkpt><trkpt lat="41.01975" lon="14.7045183"><ele>281.0</ele><time>2026-04-25T10:02:49.109Z</time></trkpt><trkpt lat="41.01991" lon="14.70453"><ele>280.5</ele><time>2026-04-25T10:02:50.109Z</time></trkpt><trkpt lat="41.020055" lon="14.7045233"><ele>280.0</ele><time>2026-04-25T10:02:51.11Z</time></trkpt><trkpt lat="41.0201917" lon="14.7045083"><ele>279.5</ele><time>2026-04-25T10:02:52.109Z</time></trkpt><trkpt lat="41.020325" lon="14.7044567"><ele>279.0</ele><time>2026-04-25T10:02:53.109Z</time></trkpt><trkpt lat="41.0204517" lon="14.7043867"><ele>279.6666666666667</ele><time>2026-04-25T10:02:54.109Z</time></trkpt><trkpt lat="41.0205967" lon="14.7042983"><ele>280.33333333333337</ele><time>2026-04-25T10:02:55.109Z</time></trkpt><trkpt lat="41.020745" lon="14.70421"><ele>281.0</ele><time>2026-04-25T10:02:56.109Z</time></trkpt><trkpt lat="41.02091" lon="14.7041283"><ele>281.0</ele><time>2026-04-25T10:02:57.109Z</time></trkpt><trkpt lat="41.021065" lon="14.7040417"><ele>281.0</ele><time>2026-04-25T10:02:58.109Z</time></trkpt><trkpt lat="41.0212083" lon="14.703955"><ele>281.0</ele><time>2026-04-25T10:02:59.109Z</time></trkpt><trkpt lat="41.0213533" lon="14.7038817"><ele>281.0</ele><time>2026-04-25T10:03:00.109Z</time></trkpt><trkpt lat="41.02151" lon="14.7038117"><ele>281.0</ele><time>2026-04-25T10:03:01.109Z</time></trkpt><trkpt lat="41.021665" lon="14.7037517"><ele>281.0</ele><time>2026-04-25T10:03:02.109Z</time></trkpt><trkpt lat="41.0218267" lon="14.7036933"><ele>279.0</ele><time>2026-04-25T10:03:03.109Z</time></trkpt><trkpt lat="41.0219917" lon="14.70364"><ele>277.0</ele><time>2026-04-25T10:03:04.109Z</time></trkpt><trkpt lat="41.0221633" lon="14.703585"><ele>275.0</ele><time>2026-04-25T10:03:05.109Z</time></trkpt><trkpt lat="41.0223167" lon="14.70355"><ele>275.0</ele><time>2026-04-25T10:03:06.109Z</time></trkpt><trkpt lat="41.0224667" lon="14.703515"><ele>275.0</ele><time>2026-04-25T10:03:07.109Z</time></trkpt><trkpt lat="41.0226167" lon="14.70348"><ele>275.0</ele><time>2026-04-25T10:03:08.109Z</time></trkpt><trkpt lat="41.0227683" lon="14.7034383"><ele>276.0</ele><time>2026-04-25T10:03:09.109Z</time></trkpt><trkpt lat="41.0229217" lon="14.7034083"><ele>277.0</ele><time>2026-04-25T10:03:10.109Z</time></trkpt><trkpt lat="41.0230733" lon="14.70338"><ele>278.0</ele><time>2026-04-25T10:03:11.109Z</time></trkpt><trkpt lat="41.02323" lon="14.70335"><ele>277.6666666666667</ele><time>2026-04-25T10:03:12.109Z</time></trkpt><trkpt lat="41.02339" lon="14.7033283"><ele>277.3333333333333</ele><time>2026-04-25T10:03:13.109Z</time></trkpt><trkpt lat="41.0235533" lon="14.703315"><ele>277.0</ele><time>2026-04-25T10:03:14.109Z</time></trkpt><trkpt lat="41.023705" lon="14.703295"><ele>277.0</ele><time>2026-04-25T10:03:15.109Z</time></trkpt><trkpt lat="41.023845" lon="14.703285"><ele>277.0</ele><time>2026-04-25T10:03:16.109Z</time></trkpt><trkpt lat="41.0239833" lon="14.7032733"><ele>277.0</ele><time>2026-04-25T10:03:17.109Z</time></trkpt><trkpt lat="41.02411" lon="14.70326"><ele>277.0</ele><time>2026-04-25T10:03:18.109Z</time></trkpt><trkpt lat="41.0242383" lon="14.7032433"><ele>275.25</ele><time>2026-04-25T10:03:19.109Z</time></trkpt><trkpt lat="41.02436" lon="14.7032067"><ele>273.5</ele><time>2026-04-25T10:03:20.109Z</time></trkpt><trkpt lat="41.024485" lon="14.70316"><ele>271.75</ele><time>2026-04-25T10:03:21.109Z</time></trkpt><trkpt lat="41.0245917" lon="14.703095"><ele>270.0</ele><time>2026-04-25T10:03:22.109Z</time></trkpt><trkpt lat="41.0246917" lon="14.703005"><ele>270.0</ele><time>2026-04-25T10:03:23.109Z</time></trkpt><trkpt lat="41.02479" lon="14.702895"><ele>270.0</ele><time>2026-04-25T10:03:24.109Z</time></trkpt><trkpt lat="41.02489" lon="14.7027483"><ele>270.0</ele><time>2026-04-25T10:03:25.109Z</time></trkpt><trkpt lat="41.0250033" lon="14.7025833"><ele>270.0</ele><time>2026-04-25T10:03:26.109Z</time></trkpt><trkpt lat="41.0251233" lon="14.7023967"><ele>268.6666666666667</ele><time>2026-04-25T10:03:27.109Z</time></trkpt><trkpt lat="41.0252367" lon="14.7022067"><ele>267.33333333333337</ele><time>2026-04-25T10:03:28.109Z</time></trkpt><trkpt lat="41.0253417" lon="14.7020067"><ele>266.0</ele><time>2026-04-25T10:03:29.11Z</time></trkpt><trkpt lat="41.0254433" lon="14.70181"><ele>270.6666666666667</ele><time>2026-04-25T10:03:30.109Z</time></trkpt><trkpt lat="41.02554" lon="14.7016067"><ele>275.3333333333333</ele><time>2026-04-25T10:03:31.109Z</time></trkpt><trkpt lat="41.0256333" lon="14.701395"><ele>280.0</ele><time>2026-04-25T10:03:32.109Z</time></trkpt><trkpt lat="41.025735" lon="14.7012017"><ele>274.0</ele><time>2026-04-25T10:03:33.109Z</time></trkpt><trkpt lat="41.0258383" lon="14.7010233"><ele>268.0</ele><time>2026-04-25T10:03:34.109Z</time></trkpt><trkpt lat="41.0259467" lon="14.7008467"><ele>262.0</ele><time>2026-04-25T10:03:35.109Z</time></trkpt><trkpt lat="41.0260533" lon="14.7006733"><ele>262.0</ele><time>2026-04-25T10:03:36.109Z</time></trkpt><trkpt lat="41.0261533" lon="14.7005033"><ele>262.0</ele><time>2026-04-25T10:03:37.109Z</time></trkpt><trkpt lat="41.02625" lon="14.700335"><ele>262.0</ele><time>2026-04-25T10:03:38.109Z</time></trkpt><trkpt lat="41.02635" lon="14.700165"><ele>260.66666666666663</ele><time>2026-04-25T10:03:39.109Z</time></trkpt><trkpt lat="41.0264533" lon="14.7"><ele>259.3333333333333</ele><time>2026-04-25T10:03:40.109Z</time></trkpt><trkpt lat="41.0265633" lon="14.6998417"><ele>258.0</ele><time>2026-04-25T10:03:41.109Z</time></trkpt><trkpt lat="41.0266683" lon="14.699685"><ele>258.0</ele><time>2026-04-25T10:03:42.109Z</time></trkpt><trkpt lat="41.0267683" lon="14.699565"><ele>258.0</ele><time>2026-04-25T10:03:43.109Z</time></trkpt><trkpt lat="41.0268683" lon="14.699465"><ele>258.0</ele><time>2026-04-25T10:03:44.109Z</time></trkpt><trkpt lat="41.0269783" lon="14.6993767"><ele>258.0</ele><time>2026-04-25T10:03:45.109Z</time></trkpt><trkpt lat="41.027085" lon="14.6993033"><ele>258.0</ele><time>2026-04-25T10:03:46.109Z</time></trkpt><trkpt lat="41.0271867" lon="14.6992283"><ele>258.0</ele><time>2026-04-25T10:03:47.109Z</time></trkpt><trkpt lat="41.0272883" lon="14.69916"><ele>258.0</ele><time>2026-04-25T10:03:48.109Z</time></trkpt><trkpt lat="41.0273833" lon="14.699105"><ele>258.0</ele><time>2026-04-25T10:03:49.109Z</time></trkpt><trkpt lat="41.0274833" lon="14.6990717"><ele>258.0</ele><time>2026-04-25T10:03:50.109Z</time></trkpt><trkpt lat="41.027595" lon="14.6990617"><ele>258.0</ele><time>2026-04-25T10:03:51.109Z</time></trkpt><trkpt lat="41.0277233" lon="14.699075"><ele>258.0</ele><time>2026-04-25T10:03:52.109Z</time></trkpt><trkpt lat="41.027875" lon="14.6990983"><ele>258.0</ele><time>2026-04-25T10:03:53.109Z</time></trkpt><trkpt lat="41.0280333" lon="14.6991267"><ele>258.0</ele><time>2026-04-25T10:03:54.109Z</time></trkpt><trkpt lat="41.0282" lon="14.6991483"><ele>256.6666666666667</ele><time>2026-04-25T10:03:55.109Z</time></trkpt><trkpt lat="41.028375" lon="14.699175"><ele>255.33333333333334</ele><time>2026-04-25T10:03:56.109Z</time></trkpt><trkpt lat="41.0285433" lon="14.699205"><ele>254.0</ele><time>2026-04-25T10:03:57.109Z</time></trkpt><trkpt lat="41.0287017" lon="14.6992367"><ele>254.0</ele><time>2026-04-25T10:03:58.109Z</time></trkpt><trkpt lat="41.028845" lon="14.6992783"><ele>254.0</ele><time>2026-04-25T10:03:59.109Z</time></trkpt><trkpt lat="41.0289717" lon="14.6993317"><ele>254.0</ele><time>2026-04-25T10:04:00.109Z</time></trkpt><trkpt lat="41.0291117" lon="14.6994117"><ele>254.0</ele><time>2026-04-25T10:04:01.109Z</time></trkpt><trkpt lat="41.0292417" lon="14.6994883"><ele>249.25</ele><time>2026-04-25T10:04:02.11Z</time></trkpt><trkpt lat="41.029365" lon="14.6995583"><ele>244.5</ele><time>2026-04-25T10:04:03.109Z</time></trkpt><trkpt lat="41.0294883" lon="14.6996033"><ele>239.75</ele><time>2026-04-25T10:04:04.109Z</time></trkpt><trkpt lat="41.0296033" lon="14.6996283"><ele>235.0</ele><time>2026-04-25T10:04:05.109Z</time></trkpt><trkpt lat="41.02973" lon="14.6996233"><ele>235.0</ele><time>2026-04-25T10:04:06.109Z</time></trkpt><trkpt lat="41.0298467" lon="14.6996067"><ele>235.0</ele><time>2026-04-25T10:04:07.109Z</time></trkpt><trkpt lat="41.0299733" lon="14.699595"><ele>235.0</ele><time>2026-04-25T10:04:08.109Z</time></trkpt><trkpt lat="41.0301033" lon="14.6995983"><ele>235.0</ele><time>2026-04-25T10:04:09.109Z</time></trkpt><trkpt lat="41.030245" lon="14.6996083"><ele>234.25</ele><time>2026-04-25T10:04:10.109Z</time></trkpt><trkpt lat="41.0303917" lon="14.6996067"><ele>233.5</ele><time>2026-04-25T10:04:11.11Z</time></trkpt><trkpt lat="41.0305383" lon="14.699595"><ele>232.75</ele><time>2026-04-25T10:04:12.11Z</time></trkpt><trkpt lat="41.030675" lon="14.6995767"><ele>232.0</ele><time>2026-04-25T10:04:13.109Z</time></trkpt><trkpt lat="41.0308167" lon="14.69954"><ele>231.66666666666666</ele><time>2026-04-25T10:04:14.109Z</time></trkpt><trkpt lat="41.0309617" lon="14.6994883"><ele>231.33333333333331</ele><time>2026-04-25T10:04:15.109Z</time></trkpt><trkpt lat="41.0311167" lon="14.6994217"><ele>231.0</ele><time>2026-04-25T10:04:16.109Z</time></trkpt><trkpt lat="41.0312817" lon="14.6993517"><ele>230.0</ele><time>2026-04-25T10:04:17.109Z</time></trkpt><trkpt lat="41.03146" lon="14.699275"><ele>229.0</ele><time>2026-04-25T10:04:18.109Z</time></trkpt><trkpt lat="41.0316467" lon="14.6992"><ele>228.0</ele><time>2026-04-25T10:04:19.109Z</time></trkpt><trkpt lat="41.0318467" lon="14.6991183"><ele>228.0</ele><time>2026-04-25T10:04:20.109Z</time></trkpt><trkpt lat="41.0320383" lon="14.6990267"><ele>228.0</ele><time>2026-04-25T10:04:21.109Z</time></trkpt><trkpt lat="41.0322317" lon="14.6989383"><ele>228.0</ele><time>2026-04-25T10:04:22.109Z</time></trkpt><trkpt lat="41.032425" lon="14.6988517"><ele>229.0</ele><time>2026-04-25T10:04:23.109Z</time></trkpt><trkpt lat="41.0326167" lon="14.6987633"><ele>230.0</ele><time>2026-04-25T10:04:24.109Z</time></trkpt><trkpt lat="41.032795" lon="14.698685"><ele>231.0</ele><time>2026-04-25T10:04:25.109Z</time></trkpt><trkpt lat="41.03297" lon="14.69861"><ele>230.75</ele><time>2026-04-25T10:04:26.109Z</time></trkpt><trkpt lat="41.0331217" lon="14.6985483"><ele>230.5</ele><time>2026-04-25T10:04:27.109Z</time></trkpt><trkpt lat="41.03326" lon="14.6984933"><ele>230.25</ele><time>2026-04-25T10:04:28.109Z</time></trkpt><trkpt lat="41.0333917" lon="14.6984467"><ele>230.0</ele><time>2026-04-25T10:04:29.109Z</time></trkpt><trkpt lat="41.0335067" lon="14.6983933"><ele>230.00000000000003</ele><time>2026-04-25T10:04:30.109Z</time></trkpt><trkpt lat="41.033615" lon="14.69834"><ele>230.0</ele><time>2026-04-25T10:04:31.109Z</time></trkpt><trkpt lat="41.0337117" lon="14.6983"><ele>230.0</ele><time>2026-04-25T10:04:32.11Z</time></trkpt><trkpt lat="41.0337983" lon="14.6982767"><ele>230.0</ele><time>2026-04-25T10:04:33.109Z</time></trkpt><trkpt lat="41.033875" lon="14.6982767"><ele>230.00000000000003</ele><time>2026-04-25T10:04:34.109Z</time></trkpt><trkpt lat="41.033935" lon="14.69831"><ele>230.0</ele><time>2026-04-25T10:04:35.109Z</time></trkpt><trkpt lat="41.0340117" lon="14.6984517"><ele>230.00000000000003</ele><time>2026-04-25T10:04:37.109Z</time></trkpt><trkpt lat="41.0340317" lon="14.6985433"><ele>230.0</ele><time>2026-04-25T10:04:38.109Z</time></trkpt><trkpt lat="41.0340283" lon="14.69863"><ele>230.0</ele><time>2026-04-25T10:04:39.109Z</time></trkpt><trkpt lat="41.0340083" lon="14.6987217"><ele>230.0</ele><time>2026-04-25T10:04:40.109Z</time></trkpt><trkpt lat="41.033965" lon="14.6988233"><ele>230.00000000000003</ele><time>2026-04-25T10:04:41.109Z</time></trkpt><trkpt lat="41.0339" lon="14.698935"><ele>230.0</ele><time>2026-04-25T10:04:42.11Z</time></trkpt><trkpt lat="41.0338233" lon="14.6990683"><ele>231.33333333333334</ele><time>2026-04-25T10:04:43.109Z</time></trkpt><trkpt lat="41.0337367" lon="14.6992267"><ele>232.66666666666669</ele><time>2026-04-25T10:04:44.11Z</time></trkpt><trkpt lat="41.0336467" lon="14.6993867"><ele>234.0</ele><time>2026-04-25T10:04:45.109Z</time></trkpt><trkpt lat="41.033555" lon="14.6995683"><ele>234.66666666666669</ele><time>2026-04-25T10:04:46.109Z</time></trkpt><trkpt lat="41.0334583" lon="14.6997583"><ele>235.33333333333334</ele><time>2026-04-25T10:04:47.109Z</time></trkpt><trkpt lat="41.033365" lon="14.6999467"><ele>236.0</ele><time>2026-04-25T10:04:48.109Z</time></trkpt><trkpt lat="41.0332767" lon="14.7001417"><ele>238.0</ele><time>2026-04-25T10:04:49.109Z</time></trkpt><trkpt lat="41.0331967" lon="14.7003033"><ele>240.0</ele><time>2026-04-25T10:04:50.109Z</time></trkpt><trkpt lat="41.033125" lon="14.7004483"><ele>242.0</ele><time>2026-04-25T10:04:51.109Z</time></trkpt><trkpt lat="41.0330633" lon="14.70057"><ele>244.0</ele><time>2026-04-25T10:04:52.109Z</time></trkpt><trkpt lat="41.0330017" lon="14.7006817"><ele>243.99999999999997</ele><time>2026-04-25T10:04:53.109Z</time></trkpt><trkpt lat="41.03294" lon="14.7007817"><ele>244.0</ele><time>2026-04-25T10:04:54.109Z</time></trkpt><trkpt lat="41.03287" lon="14.7008633"><ele>244.0</ele><time>2026-04-25T10:04:55.11Z</time></trkpt><trkpt lat="41.0328017" lon="14.7009233"><ele>244.0</ele><time>2026-04-25T10:04:56.109Z</time></trkpt><trkpt lat="41.032735" lon="14.7009567"><ele>243.99999999999997</ele><time>2026-04-25T10:04:57.109Z</time></trkpt><trkpt lat="41.0326533" lon="14.70097"><ele>244.0</ele><time>2026-04-25T10:04:58.109Z</time></trkpt><trkpt lat="41.032565" lon="14.7009517"><ele>244.0</ele><time>2026-04-25T10:04:59.109Z</time></trkpt><trkpt lat="41.032485" lon="14.7008783"><ele>243.99999999999997</ele><time>2026-04-25T10:05:00.11Z</time></trkpt><trkpt lat="41.032415" lon="14.7007783"><ele>243.99999999999997</ele><time>2026-04-25T10:05:01.109Z</time></trkpt><trkpt lat="41.0323733" lon="14.700665"><ele>244.0</ele><time>2026-04-25T10:05:02.109Z</time></trkpt><trkpt lat="41.0323633" lon="14.7005483"><ele>244.0</ele><time>2026-04-25T10:05:03.109Z</time></trkpt><trkpt lat="41.032375" lon="14.700425"><ele>242.5</ele><time>2026-04-25T10:05:04.109Z</time></trkpt><trkpt lat="41.03241" lon="14.7003017"><ele>241.0</ele><time>2026-04-25T10:05:05.109Z</time></trkpt><trkpt lat="41.0324567" lon="14.7001717"><ele>239.5</ele><time>2026-04-25T10:05:06.109Z</time></trkpt><trkpt lat="41.0325" lon="14.7000133"><ele>238.0</ele><time>2026-04-25T10:05:07.109Z</time></trkpt><trkpt lat="41.032545" lon="14.69983"><ele>237.33333333333331</ele><time>2026-04-25T10:05:08.109Z</time></trkpt><trkpt lat="41.0325883" lon="14.69963"><ele>236.66666666666669</ele><time>2026-04-25T10:05:09.109Z</time></trkpt><trkpt lat="41.03263" lon="14.6994167"><ele>236.0</ele><time>2026-04-25T10:05:10.11Z</time></trkpt><trkpt lat="41.0326633" lon="14.69919"><ele>234.33333333333334</ele><time>2026-04-25T10:05:11.109Z</time></trkpt><trkpt lat="41.03269" lon="14.69895"><ele>232.66666666666669</ele><time>2026-04-25T10:05:12.109Z</time></trkpt><trkpt lat="41.0327167" lon="14.6987033"><ele>231.0</ele><time>2026-04-25T10:05:13.109Z</time></trkpt><trkpt lat="41.03274" lon="14.6984467"><ele>230.0</ele><time>2026-04-25T10:05:14.11Z</time></trkpt><trkpt lat="41.0327517" lon="14.6981783"><ele>229.0</ele><time>2026-04-25T10:05:15.11Z</time></trkpt><trkpt lat="41.032745" lon="14.6979033"><ele>228.0</ele><time>2026-04-25T10:05:16.109Z</time></trkpt><trkpt lat="41.0327433" lon="14.6976233"><ele>227.66666666666669</ele><time>2026-04-25T10:05:17.109Z</time></trkpt><trkpt lat="41.0327333" lon="14.6973233"><ele>227.33333333333334</ele><time>2026-04-25T10:05:18.109Z</time></trkpt><trkpt lat="41.0327083" lon="14.69703"><ele>227.0</ele><time>2026-04-25T10:05:19.109Z</time></trkpt><trkpt lat="41.0326717" lon="14.69674"><ele>226.5</ele><time>2026-04-25T10:05:20.109Z</time></trkpt><trkpt lat="41.03263" lon="14.6964433"><ele>226.0</ele><time>2026-04-25T10:05:21.109Z</time></trkpt><trkpt lat="41.03259" lon="14.6961517"><ele>226.5</ele><time>2026-04-25T10:05:22.109Z</time></trkpt><trkpt lat="41.0325433" lon="14.695855"><ele>227.0</ele><time>2026-04-25T10:05:23.109Z</time></trkpt><trkpt lat="41.0324967" lon="14.695565"><ele>228.66666666666669</ele><time>2026-04-25T10:05:24.109Z</time></trkpt><trkpt lat="41.0324433" lon="14.69528"><ele>230.33333333333331</ele><time>2026-04-25T10:05:25.109Z</time></trkpt><trkpt lat="41.0323933" lon="14.69499"><ele>232.0</ele><time>2026-04-25T10:05:26.109Z</time></trkpt><trkpt lat="41.032345" lon="14.6947067"><ele>232.0</ele><time>2026-04-25T10:05:27.109Z</time></trkpt><trkpt lat="41.0323017" lon="14.6944283"><ele>232.0</ele><time>2026-04-25T10:05:28.109Z</time></trkpt><trkpt lat="41.0322683" lon="14.6941567"><ele>232.0</ele><time>2026-04-25T10:05:29.109Z</time></trkpt><trkpt lat="41.03224" lon="14.6939"><ele>233.0</ele><time>2026-04-25T10:05:30.109Z</time></trkpt><trkpt lat="41.0322117" lon="14.69364"><ele>234.0</ele><time>2026-04-25T10:05:31.109Z</time></trkpt><trkpt lat="41.0322" lon="14.6933833"><ele>235.0</ele><time>2026-04-25T10:05:32.109Z</time></trkpt><trkpt lat="41.0321983" lon="14.6931317"><ele>238.0</ele><time>2026-04-25T10:05:33.109Z</time></trkpt><trkpt lat="41.0322067" lon="14.6928683"><ele>241.0</ele><time>2026-04-25T10:05:34.109Z</time></trkpt><trkpt lat="41.0322183" lon="14.69262"><ele>244.0</ele><time>2026-04-25T10:05:35.109Z</time></trkpt><trkpt lat="41.03223" lon="14.692385"><ele>244.66666666666666</ele><time>2026-04-25T10:05:36.109Z</time></trkpt><trkpt lat="41.0322467" lon="14.69216"><ele>245.33333333333331</ele><time>2026-04-25T10:05:37.109Z</time></trkpt><trkpt lat="41.0322683" lon="14.6919433"><ele>246.0</ele><time>2026-04-25T10:05:38.109Z</time></trkpt><trkpt lat="41.0322983" lon="14.691725"><ele>246.0</ele><time>2026-04-25T10:05:39.109Z</time></trkpt><trkpt lat="41.0323417" lon="14.691505"><ele>246.0</ele><time>2026-04-25T10:05:40.109Z</time></trkpt><trkpt lat="41.0323983" lon="14.6912783"><ele>246.0</ele><time>2026-04-25T10:05:41.109Z</time></trkpt><trkpt lat="41.0324583" lon="14.6910417"><ele>250.66666666666669</ele><time>2026-04-25T10:05:42.109Z</time></trkpt><trkpt lat="41.0325167" lon="14.690795"><ele>255.33333333333334</ele><time>2026-04-25T10:05:43.109Z</time></trkpt><trkpt lat="41.03258" lon="14.6905383"><ele>260.0</ele><time>2026-04-25T10:05:44.109Z</time></trkpt><trkpt lat="41.0326433" lon="14.69028"><ele>259.33333333333337</ele><time>2026-04-25T10:05:45.109Z</time></trkpt><trkpt lat="41.0327133" lon="14.69002"><ele>258.6666666666667</ele><time>2026-04-25T10:05:46.109Z</time></trkpt><trkpt lat="41.0327783" lon="14.689755"><ele>258.0</ele><time>2026-04-25T10:05:47.109Z</time></trkpt><trkpt lat="41.0328433" lon="14.6894933"><ele>258.0</ele><time>2026-04-25T10:05:48.109Z</time></trkpt><trkpt lat="41.0328983" lon="14.6892333"><ele>258.0</ele><time>2026-04-25T10:05:49.109Z</time></trkpt><trkpt lat="41.03295" lon="14.6889883"><ele>258.0</ele><time>2026-04-25T10:05:50.109Z</time></trkpt><trkpt lat="41.0329967" lon="14.688745"><ele>261.6666666666667</ele><time>2026-04-25T10:05:51.109Z</time></trkpt><trkpt lat="41.033035" lon="14.6884967"><ele>265.33333333333337</ele><time>2026-04-25T10:05:52.109Z</time></trkpt><trkpt lat="41.03307" lon="14.6882483"><ele>269.0</ele><time>2026-04-25T10:05:53.109Z</time></trkpt><trkpt lat="41.0330967" lon="14.6879967"><ele>273.33333333333337</ele><time>2026-04-25T10:05:54.11Z</time></trkpt><trkpt lat="41.0331183" lon="14.6877433"><ele>277.6666666666667</ele><time>2026-04-25T10:05:55.109Z</time></trkpt><trkpt lat="41.03314" lon="14.6874967"><ele>282.0</ele><time>2026-04-25T10:05:56.109Z</time></trkpt><trkpt lat="41.0331483" lon="14.687235"><ele>282.0</ele><time>2026-04-25T10:05:57.109Z</time></trkpt><trkpt lat="41.0331517" lon="14.686985"><ele>282.0</ele><time>2026-04-25T10:05:58.109Z</time></trkpt><trkpt lat="41.03315" lon="14.686745"><ele>282.0</ele><time>2026-04-25T10:05:59.109Z</time></trkpt><trkpt lat="41.033155" lon="14.68652"><ele>283.3333333333333</ele><time>2026-04-25T10:06:00.11Z</time></trkpt><trkpt lat="41.0331567" lon="14.6863083"><ele>284.66666666666663</ele><time>2026-04-25T10:06:01.11Z</time></trkpt><trkpt lat="41.0331633" lon="14.6860883"><ele>286.0</ele><time>2026-04-25T10:06:02.11Z</time></trkpt><trkpt lat="41.0331533" lon="14.6858683"><ele>283.3333333333333</ele><time>2026-04-25T10:06:03.109Z</time></trkpt><trkpt lat="41.0331483" lon="14.6856617"><ele>280.6666666666667</ele><time>2026-04-25T10:06:04.109Z</time></trkpt><trkpt lat="41.0331583" lon="14.6854517"><ele>278.0</ele><time>2026-04-25T10:06:05.109Z</time></trkpt><trkpt lat="41.0331583" lon="14.6852283"><ele>276.33333333333337</ele><time>2026-04-25T10:06:06.109Z</time></trkpt><trkpt lat="41.0331667" lon="14.6850033"><ele>274.6666666666667</ele><time>2026-04-25T10:06:07.109Z</time></trkpt><trkpt lat="41.0331767" lon="14.68477"><ele>273.0</ele><time>2026-04-25T10:06:08.109Z</time></trkpt><trkpt lat="41.033175" lon="14.68452"><ele>276.3333333333333</ele><time>2026-04-25T10:06:09.109Z</time></trkpt><trkpt lat="41.033175" lon="14.684265"><ele>279.66666666666663</ele><time>2026-04-25T10:06:10.109Z</time></trkpt><trkpt lat="41.0331783" lon="14.6840133"><ele>283.0</ele><time>2026-04-25T10:06:11.109Z</time></trkpt><trkpt lat="41.033185" lon="14.68376"><ele>286.66666666666663</ele><time>2026-04-25T10:06:12.11Z</time></trkpt><trkpt lat="41.0331983" lon="14.6835017"><ele>290.3333333333333</ele><time>2026-04-25T10:06:13.109Z</time></trkpt><trkpt lat="41.0332133" lon="14.6832483"><ele>294.0</ele><time>2026-04-25T10:06:14.109Z</time></trkpt><trkpt lat="41.03323" lon="14.6829883"><ele>296.3333333333333</ele><time>2026-04-25T10:06:15.109Z</time></trkpt><trkpt lat="41.033255" lon="14.6827267"><ele>298.66666666666663</ele><time>2026-04-25T10:06:16.109Z</time></trkpt><trkpt lat="41.0332867" lon="14.6824617"><ele>301.0</ele><time>2026-04-25T10:06:17.109Z</time></trkpt><trkpt lat="41.0333183" lon="14.68221"><ele>302.0</ele><time>2026-04-25T10:06:18.109Z</time></trkpt><trkpt lat="41.03336" lon="14.6819383"><ele>303.0</ele><time>2026-04-25T10:06:19.109Z</time></trkpt><trkpt lat="41.0334117" lon="14.6816583"><ele>304.0</ele><time>2026-04-25T10:06:20.109Z</time></trkpt><trkpt lat="41.03347" lon="14.6813767"><ele>299.3333333333333</ele><time>2026-04-25T10:06:21.109Z</time></trkpt><trkpt lat="41.0335217" lon="14.6810933"><ele>294.6666666666667</ele><time>2026-04-25T10:06:22.109Z</time></trkpt><trkpt lat="41.03358" lon="14.6808117"><ele>290.0</ele><time>2026-04-25T10:06:23.109Z</time></trkpt><trkpt lat="41.0336383" lon="14.6805483"><ele>290.0</ele><time>2026-04-25T10:06:24.11Z</time></trkpt><trkpt lat="41.0336883" lon="14.6803017"><ele>290.0</ele><time>2026-04-25T10:06:25.109Z</time></trkpt><trkpt lat="41.0337383" lon="14.680075"><ele>290.0</ele><time>2026-04-25T10:06:26.109Z</time></trkpt><trkpt lat="41.0337833" lon="14.6798667"><ele>290.75</ele><time>2026-04-25T10:06:27.109Z</time></trkpt><trkpt lat="41.0338233" lon="14.6796883"><ele>291.5</ele><time>2026-04-25T10:06:28.109Z</time></trkpt><trkpt lat="41.0338533" lon="14.6795283"><ele>292.25</ele><time>2026-04-25T10:06:29.109Z</time></trkpt><trkpt lat="41.0338833" lon="14.67937"><ele>293.0</ele><time>2026-04-25T10:06:30.109Z</time></trkpt><trkpt lat="41.0339117" lon="14.679235"><ele>292.83333333333337</ele><time>2026-04-25T10:06:31.109Z</time></trkpt><trkpt lat="41.033935" lon="14.6791083"><ele>292.6666666666667</ele><time>2026-04-25T10:06:32.109Z</time></trkpt><trkpt lat="41.03396" lon="14.679025"><ele>292.5</ele><time>2026-04-25T10:06:33.109Z</time></trkpt><trkpt lat="41.03399" lon="14.6788733"><ele>292.3333333333333</ele><time>2026-04-25T10:06:35.109Z</time></trkpt><trkpt lat="41.0340133" lon="14.6787733"><ele>292.16666666666663</ele><time>2026-04-25T10:06:37.109Z</time></trkpt><trkpt lat="41.0340333" lon="14.6786917"><ele>292.0</ele><time>2026-04-25T10:07:21.109Z</time></trkpt><trkpt lat="41.0340733" lon="14.6785417"><ele>292.0</ele><time>2026-04-25T10:07:28.109Z</time></trkpt><trkpt lat="41.03409" lon="14.6784567"><ele>292.0</ele><time>2026-04-25T10:07:29.109Z</time></trkpt><trkpt lat="41.034115" lon="14.67834"><ele>292.0</ele><time>2026-04-25T10:07:30.109Z</time></trkpt><trkpt lat="41.0341483" lon="14.678185"><ele>292.0</ele><time>2026-04-25T10:07:31.109Z</time></trkpt><trkpt lat="41.03419" lon="14.6780133"><ele>292.0</ele><time>2026-04-25T10:07:32.109Z</time></trkpt><trkpt lat="41.0342333" lon="14.6778333"><ele>298.0</ele><time>2026-04-25T10:07:33.109Z</time></trkpt><trkpt lat="41.0342817" lon="14.6776317"><ele>304.0</ele><time>2026-04-25T10:07:34.11Z</time></trkpt><trkpt lat="41.0343283" lon="14.677425"><ele>310.0</ele><time>2026-04-25T10:07:35.109Z</time></trkpt><trkpt lat="41.0343833" lon="14.6772"><ele>310.0</ele><time>2026-04-25T10:07:36.109Z</time></trkpt><trkpt lat="41.0344433" lon="14.6769717"><ele>310.0</ele><time>2026-04-25T10:07:37.109Z</time></trkpt><trkpt lat="41.0345033" lon="14.6767367"><ele>310.0</ele><time>2026-04-25T10:07:38.11Z</time></trkpt><trkpt lat="41.0345683" lon="14.6765183"><ele>309.66666666666663</ele><time>2026-04-25T10:07:39.109Z</time></trkpt><trkpt lat="41.034635" lon="14.6763"><ele>309.3333333333333</ele><time>2026-04-25T10:07:40.109Z</time></trkpt><trkpt lat="41.03471" lon="14.67608"><ele>309.0</ele><time>2026-04-25T10:07:41.109Z</time></trkpt><trkpt lat="41.03479" lon="14.6758567"><ele>307.6666666666667</ele><time>2026-04-25T10:07:42.109Z</time></trkpt><trkpt lat="41.0348817" lon="14.6756433"><ele>306.33333333333337</ele><time>2026-04-25T10:07:43.109Z</time></trkpt><trkpt lat="41.0349783" lon="14.6754383"><ele>305.0</ele><time>2026-04-25T10:07:44.109Z</time></trkpt><trkpt lat="41.0350817" lon="14.675235"><ele>303.0</ele><time>2026-04-25T10:07:45.109Z</time></trkpt><trkpt lat="41.0351917" lon="14.6750283"><ele>301.0</ele><time>2026-04-25T10:07:46.109Z</time></trkpt><trkpt lat="41.0353017" lon="14.674835"><ele>299.0</ele><time>2026-04-25T10:07:47.109Z</time></trkpt><trkpt lat="41.03542" lon="14.6746467"><ele>299.0</ele><time>2026-04-25T10:07:48.109Z</time></trkpt><trkpt lat="41.03555" lon="14.6744583"><ele>299.0</ele><time>2026-04-25T10:07:49.109Z</time></trkpt><trkpt lat="41.0356833" lon="14.6742783"><ele>299.0</ele><time>2026-04-25T10:07:50.109Z</time></trkpt><trkpt lat="41.0358217" lon="14.6741067"><ele>297.0</ele><time>2026-04-25T10:07:51.109Z</time></trkpt><trkpt lat="41.0359733" lon="14.6739317"><ele>295.0</ele><time>2026-04-25T10:07:52.11Z</time></trkpt><trkpt lat="41.0361267" lon="14.673765"><ele>293.0</ele><time>2026-04-25T10:07:53.109Z</time></trkpt><trkpt lat="41.0362867" lon="14.6735983"><ele>292.6666666666667</ele><time>2026-04-25T10:07:54.109Z</time></trkpt><trkpt lat="41.0364517" lon="14.67344"><ele>292.3333333333333</ele><time>2026-04-25T10:07:55.109Z</time></trkpt><trkpt lat="41.03662" lon="14.67328"><ele>292.0</ele><time>2026-04-25T10:07:56.109Z</time></trkpt><trkpt lat="41.03679" lon="14.6731217"><ele>292.3333333333333</ele><time>2026-04-25T10:07:57.109Z</time></trkpt><trkpt lat="41.036955" lon="14.67296"><ele>292.6666666666667</ele><time>2026-04-25T10:07:58.109Z</time></trkpt><trkpt lat="41.0371183" lon="14.6727967"><ele>293.0</ele><time>2026-04-25T10:07:59.109Z</time></trkpt><trkpt lat="41.0372867" lon="14.6726317"><ele>293.0</ele><time>2026-04-25T10:08:00.109Z</time></trkpt><trkpt lat="41.037455" lon="14.6724617"><ele>293.0</ele><time>2026-04-25T10:08:01.109Z</time></trkpt><trkpt lat="41.0376133" lon="14.6722867"><ele>293.0</ele><time>2026-04-25T10:08:02.109Z</time></trkpt><trkpt lat="41.0377667" lon="14.6721067"><ele>293.33333333333337</ele><time>2026-04-25T10:08:03.109Z</time></trkpt><trkpt lat="41.0379183" lon="14.6719167"><ele>293.6666666666667</ele><time>2026-04-25T10:08:04.109Z</time></trkpt><trkpt lat="41.0380633" lon="14.6717183"><ele>294.0</ele><time>2026-04-25T10:08:05.109Z</time></trkpt><trkpt lat="41.0382033" lon="14.6715067"><ele>294.0</ele><time>2026-04-25T10:08:06.109Z</time></trkpt><trkpt lat="41.03834" lon="14.6712817"><ele>294.0</ele><time>2026-04-25T10:08:07.11Z</time></trkpt><trkpt lat="41.038465" lon="14.671055"><ele>294.0</ele><time>2026-04-25T10:08:08.109Z</time></trkpt><trkpt lat="41.038585" lon="14.6708117"><ele>292.3333333333333</ele><time>2026-04-25T10:08:09.109Z</time></trkpt><trkpt lat="41.038695" lon="14.6705567"><ele>290.66666666666663</ele><time>2026-04-25T10:08:10.109Z</time></trkpt><trkpt lat="41.038795" lon="14.6703017"><ele>289.0</ele><time>2026-04-25T10:08:11.109Z</time></trkpt><trkpt lat="41.0388917" lon="14.6700433"><ele>288.0</ele><time>2026-04-25T10:08:12.109Z</time></trkpt><trkpt lat="41.0389783" lon="14.6697667"><ele>287.0</ele><time>2026-04-25T10:08:13.109Z</time></trkpt><trkpt lat="41.0390467" lon="14.6694867"><ele>286.0</ele><time>2026-04-25T10:08:14.11Z</time></trkpt><trkpt lat="41.0391067" lon="14.669215"><ele>286.66666666666663</ele><time>2026-04-25T10:08:15.109Z</time></trkpt><trkpt lat="41.0391583" lon="14.6689283"><ele>287.3333333333333</ele><time>2026-04-25T10:08:16.109Z</time></trkpt><trkpt lat="41.0392033" lon="14.6686483"><ele>288.0</ele><time>2026-04-25T10:08:17.109Z</time></trkpt><trkpt lat="41.0392317" lon="14.6683667"><ele>286.3333333333333</ele><time>2026-04-25T10:08:18.109Z</time></trkpt><trkpt lat="41.0392483" lon="14.668085"><ele>284.66666666666663</ele><time>2026-04-25T10:08:19.109Z</time></trkpt><trkpt lat="41.0392617" lon="14.6677917"><ele>283.0</ele><time>2026-04-25T10:08:20.109Z</time></trkpt><trkpt lat="41.0392633" lon="14.667495"><ele>281.5</ele><time>2026-04-25T10:08:21.109Z</time></trkpt><trkpt lat="41.0392633" lon="14.667195"><ele>280.0</ele><time>2026-04-25T10:08:22.109Z</time></trkpt><trkpt lat="41.0392583" lon="14.6668917"><ele>280.0</ele><time>2026-04-25T10:08:23.109Z</time></trkpt><trkpt lat="41.0392433" lon="14.6665817"><ele>280.0</ele><time>2026-04-25T10:08:24.109Z</time></trkpt><trkpt lat="41.039225" lon="14.6662633"><ele>281.0</ele><time>2026-04-25T10:08:25.109Z</time></trkpt><trkpt lat="41.039205" lon="14.665955"><ele>282.0</ele><time>2026-04-25T10:08:26.109Z</time></trkpt><trkpt lat="41.0391817" lon="14.6656433"><ele>282.0</ele><time>2026-04-25T10:08:27.109Z</time></trkpt><trkpt lat="41.0391617" lon="14.6653467"><ele>282.0</ele><time>2026-04-25T10:08:28.109Z</time></trkpt><trkpt lat="41.03914" lon="14.6650583"><ele>282.0</ele><time>2026-04-25T10:08:29.109Z</time></trkpt><trkpt lat="41.0391217" lon="14.6647683"><ele>282.6666666666667</ele><time>2026-04-25T10:08:30.109Z</time></trkpt><trkpt lat="41.0391017" lon="14.66448"><ele>283.33333333333337</ele><time>2026-04-25T10:08:31.109Z</time></trkpt><trkpt lat="41.03908" lon="14.6641933"><ele>284.0</ele><time>2026-04-25T10:08:32.11Z</time></trkpt><trkpt lat="41.0390617" lon="14.6639267"><ele>284.0</ele><time>2026-04-25T10:08:33.109Z</time></trkpt><trkpt lat="41.0390433" lon="14.6636517"><ele>284.0</ele><time>2026-04-25T10:08:34.109Z</time></trkpt><trkpt lat="41.0390233" lon="14.6633817"><ele>284.0</ele><time>2026-04-25T10:08:35.109Z</time></trkpt><trkpt lat="41.0389967" lon="14.66311"><ele>283.6666666666667</ele><time>2026-04-25T10:08:36.109Z</time></trkpt><trkpt lat="41.0389833" lon="14.662845"><ele>283.3333333333333</ele><time>2026-04-25T10:08:37.11Z</time></trkpt><trkpt lat="41.0389733" lon="14.6625817"><ele>283.0</ele><time>2026-04-25T10:08:38.109Z</time></trkpt><trkpt lat="41.0389667" lon="14.662325"><ele>282.66666666666663</ele><time>2026-04-25T10:08:39.109Z</time></trkpt><trkpt lat="41.0389667" lon="14.662085"><ele>282.3333333333333</ele><time>2026-04-25T10:08:40.109Z</time></trkpt><trkpt lat="41.0389867" lon="14.661855"><ele>282.0</ele><time>2026-04-25T10:08:41.109Z</time></trkpt><trkpt lat="41.0390167" lon="14.6616417"><ele>281.6666666666667</ele><time>2026-04-25T10:08:42.109Z</time></trkpt><trkpt lat="41.0390567" lon="14.66143"><ele>281.33333333333337</ele><time>2026-04-25T10:08:43.109Z</time></trkpt><trkpt lat="41.0391133" lon="14.6612167"><ele>281.0</ele><time>2026-04-25T10:08:44.11Z</time></trkpt><trkpt lat="41.0391767" lon="14.6610083"><ele>281.0</ele><time>2026-04-25T10:08:45.109Z</time></trkpt><trkpt lat="41.0392533" lon="14.6608017"><ele>281.0</ele><time>2026-04-25T10:08:46.109Z</time></trkpt><trkpt lat="41.0393367" lon="14.6605967"><ele>281.0</ele><time>2026-04-25T10:08:47.11Z</time></trkpt><trkpt lat="41.0394417" lon="14.6604033"><ele>280.6666666666667</ele><time>2026-04-25T10:08:48.109Z</time></trkpt><trkpt lat="41.039555" lon="14.660215"><ele>280.3333333333333</ele><time>2026-04-25T10:08:49.109Z</time></trkpt><trkpt lat="41.0396817" lon="14.6600367"><ele>280.0</ele><time>2026-04-25T10:08:50.109Z</time></trkpt><trkpt lat="41.03982" lon="14.6598683"><ele>280.0</ele><time>2026-04-25T10:08:51.109Z</time></trkpt><trkpt lat="41.0399617" lon="14.659705"><ele>280.0</ele><time>2026-04-25T10:08:52.11Z</time></trkpt><trkpt lat="41.0401067" lon="14.6595533"><ele>280.0</ele><time>2026-04-25T10:08:53.109Z</time></trkpt><trkpt lat="41.040255" lon="14.6594017"><ele>279.0</ele><time>2026-04-25T10:08:54.109Z</time></trkpt><trkpt lat="41.04041" lon="14.65925"><ele>278.0</ele><time>2026-04-25T10:08:55.109Z</time></trkpt><trkpt lat="41.04057" lon="14.6590933"><ele>277.0</ele><time>2026-04-25T10:08:56.109Z</time></trkpt><trkpt lat="41.040735" lon="14.65893"><ele>276.66666666666663</ele><time>2026-04-25T10:08:57.109Z</time></trkpt><trkpt lat="41.0408967" lon="14.6587717"><ele>276.3333333333333</ele><time>2026-04-25T10:08:58.109Z</time></trkpt><trkpt lat="41.041055" lon="14.65862"><ele>276.0</ele><time>2026-04-25T10:08:59.109Z</time></trkpt><trkpt lat="41.0412" lon="14.6584633"><ele>276.0</ele><time>2026-04-25T10:09:00.109Z</time></trkpt><trkpt lat="41.0413283" lon="14.6582917"><ele>276.0</ele><time>2026-04-25T10:09:01.11Z</time></trkpt><trkpt lat="41.0414417" lon="14.6581133"><ele>276.0</ele><time>2026-04-25T10:09:02.109Z</time></trkpt><trkpt lat="41.0415467" lon="14.657925"><ele>275.3333333333333</ele><time>2026-04-25T10:09:03.109Z</time></trkpt><trkpt lat="41.0416467" lon="14.6577233"><ele>274.66666666666663</ele><time>2026-04-25T10:09:04.109Z</time></trkpt><trkpt lat="41.041735" lon="14.65751"><ele>274.0</ele><time>2026-04-25T10:09:05.109Z</time></trkpt><trkpt lat="41.0418017" lon="14.6572867"><ele>274.0</ele><time>2026-04-25T10:09:06.109Z</time></trkpt><trkpt lat="41.0418567" lon="14.6570583"><ele>274.0</ele><time>2026-04-25T10:09:07.109Z</time></trkpt><trkpt lat="41.0419017" lon="14.6568183"><ele>274.0</ele><time>2026-04-25T10:09:08.109Z</time></trkpt><trkpt lat="41.0419333" lon="14.6565833"><ele>274.0</ele><time>2026-04-25T10:09:09.109Z</time></trkpt><trkpt lat="41.0419533" lon="14.656345"><ele>274.0</ele><time>2026-04-25T10:09:10.109Z</time></trkpt><trkpt lat="41.0419633" lon="14.656105"><ele>274.0</ele><time>2026-04-25T10:09:11.109Z</time></trkpt><trkpt lat="41.0419583" lon="14.6558617"><ele>274.0</ele><time>2026-04-25T10:09:12.109Z</time></trkpt><trkpt lat="41.0419483" lon="14.65562"><ele>274.0</ele><time>2026-04-25T10:09:13.109Z</time></trkpt><trkpt lat="41.0419383" lon="14.6553767"><ele>274.0</ele><time>2026-04-25T10:09:14.109Z</time></trkpt><trkpt lat="41.0419233" lon="14.6551267"><ele>274.0</ele><time>2026-04-25T10:09:15.109Z</time></trkpt><trkpt lat="41.0419117" lon="14.65488"><ele>274.0</ele><time>2026-04-25T10:09:16.109Z</time></trkpt><trkpt lat="41.0418967" lon="14.65465"><ele>274.0</ele><time>2026-04-25T10:09:17.109Z</time></trkpt><trkpt lat="41.0418867" lon="14.6544383"><ele>273.3333333333333</ele><time>2026-04-25T10:09:18.109Z</time></trkpt><trkpt lat="41.0418733" lon="14.6542317"><ele>272.6666666666667</ele><time>2026-04-25T10:09:19.109Z</time></trkpt><trkpt lat="41.0418617" lon="14.654025"><ele>272.0</ele><time>2026-04-25T10:09:20.109Z</time></trkpt><trkpt lat="41.04185" lon="14.6538383"><ele>272.0</ele><time>2026-04-25T10:09:21.109Z</time></trkpt><trkpt lat="41.0418417" lon="14.6536583"><ele>272.0</ele><time>2026-04-25T10:09:22.109Z</time></trkpt><trkpt lat="41.041835" lon="14.6534933"><ele>272.0</ele><time>2026-04-25T10:09:23.11Z</time></trkpt><trkpt lat="41.0418267" lon="14.6533483"><ele>272.0</ele><time>2026-04-25T10:09:24.109Z</time></trkpt><trkpt lat="41.0418217" lon="14.653225"><ele>271.83333333333337</ele><time>2026-04-25T10:09:25.109Z</time></trkpt><trkpt lat="41.0418133" lon="14.6531133"><ele>271.6666666666667</ele><time>2026-04-25T10:09:26.109Z</time></trkpt><trkpt lat="41.04181" lon="14.6530133"><ele>271.5</ele><time>2026-04-25T10:09:27.109Z</time></trkpt><trkpt lat="41.0418133" lon="14.6529283"><ele>271.3333333333333</ele><time>2026-04-25T10:09:28.109Z</time></trkpt><trkpt lat="41.0418667" lon="14.6527917"><ele>271.16666666666663</ele><time>2026-04-25T10:09:30.109Z</time></trkpt><trkpt lat="41.0419183" lon="14.65273"><ele>271.0</ele><time>2026-04-25T10:09:31.109Z</time></trkpt><trkpt lat="41.0419683" lon="14.6526717"><ele>271.3333333333333</ele><time>2026-04-25T10:09:32.11Z</time></trkpt><trkpt lat="41.0420317" lon="14.65259"><ele>271.66666666666663</ele><time>2026-04-25T10:09:33.109Z</time></trkpt><trkpt lat="41.042075" lon="14.6525033"><ele>272.0</ele><time>2026-04-25T10:09:34.109Z</time></trkpt><trkpt lat="41.0420967" lon="14.6524167"><ele>272.3333333333333</ele><time>2026-04-25T10:09:35.11Z</time></trkpt><trkpt lat="41.0421017" lon="14.652325"><ele>272.6666666666667</ele><time>2026-04-25T10:09:36.109Z</time></trkpt><trkpt lat="41.0420867" lon="14.6522317"><ele>273.0</ele><time>2026-04-25T10:09:37.109Z</time></trkpt><trkpt lat="41.0420483" lon="14.6521467"><ele>273.0</ele><time>2026-04-25T10:09:38.109Z</time></trkpt><trkpt lat="41.0419867" lon="14.6520733"><ele>273.0</ele><time>2026-04-25T10:09:39.109Z</time></trkpt><trkpt lat="41.041905" lon="14.6520217"><ele>273.0</ele><time>2026-04-25T10:09:40.109Z</time></trkpt><trkpt lat="41.0418183" lon="14.651985"><ele>273.0</ele><time>2026-04-25T10:09:41.109Z</time></trkpt><trkpt lat="41.04173" lon="14.651925"><ele>273.0</ele><time>2026-04-25T10:09:42.109Z</time></trkpt><trkpt lat="41.0416467" lon="14.65184"><ele>272.3333333333333</ele><time>2026-04-25T10:09:43.109Z</time></trkpt><trkpt lat="41.04156" lon="14.6517217"><ele>271.66666666666663</ele><time>2026-04-25T10:09:44.109Z</time></trkpt><trkpt lat="41.04147" lon="14.651555"><ele>271.0</ele><time>2026-04-25T10:09:45.109Z</time></trkpt><trkpt lat="41.0413767" lon="14.651355"><ele>271.0</ele><time>2026-04-25T10:09:46.109Z</time></trkpt><trkpt lat="41.0412783" lon="14.65113"><ele>271.0</ele><time>2026-04-25T10:09:47.109Z</time></trkpt><trkpt lat="41.0411833" lon="14.6509083"><ele>271.0</ele><time>2026-04-25T10:09:48.109Z</time></trkpt><trkpt lat="41.04109" lon="14.65068"><ele>271.0</ele><time>2026-04-25T10:09:49.109Z</time></trkpt><trkpt lat="41.0409967" lon="14.6504467"><ele>271.0</ele><time>2026-04-25T10:09:50.109Z</time></trkpt><trkpt lat="41.0408983" lon="14.6502233"><ele>271.0</ele><time>2026-04-25T10:09:51.109Z</time></trkpt><trkpt lat="41.0408" lon="14.6499967"><ele>271.3333333333333</ele><time>2026-04-25T10:09:52.109Z</time></trkpt><trkpt lat="41.04071" lon="14.6497667"><ele>271.6666666666667</ele><time>2026-04-25T10:09:53.109Z</time></trkpt><trkpt lat="41.0406167" lon="14.6495333"><ele>272.0</ele><time>2026-04-25T10:09:54.109Z</time></trkpt><trkpt lat="41.0405133" lon="14.6492967"><ele>272.33333333333337</ele><time>2026-04-25T10:09:55.109Z</time></trkpt><trkpt lat="41.040415" lon="14.6490667"><ele>272.6666666666667</ele><time>2026-04-25T10:09:56.109Z</time></trkpt><trkpt lat="41.0403233" lon="14.64885"><ele>273.0</ele><time>2026-04-25T10:09:57.109Z</time></trkpt><trkpt lat="41.0402317" lon="14.6486383"><ele>273.3333333333333</ele><time>2026-04-25T10:09:58.109Z</time></trkpt><trkpt lat="41.0401417" lon="14.64844"><ele>273.66666666666663</ele><time>2026-04-25T10:09:59.109Z</time></trkpt><trkpt lat="41.0400617" lon="14.64824"><ele>274.0</ele><time>2026-04-25T10:10:00.109Z</time></trkpt><trkpt lat="41.0399817" lon="14.6480517"><ele>274.0</ele><time>2026-04-25T10:10:01.109Z</time></trkpt><trkpt lat="41.039905" lon="14.6478667"><ele>274.0</ele><time>2026-04-25T10:10:02.109Z</time></trkpt><trkpt lat="41.0398283" lon="14.647685"><ele>274.0</ele><time>2026-04-25T10:10:03.109Z</time></trkpt><trkpt lat="41.03975" lon="14.6475"><ele>273.66666666666663</ele><time>2026-04-25T10:10:04.109Z</time></trkpt><trkpt lat="41.0396733" lon="14.6473183"><ele>273.3333333333333</ele><time>2026-04-25T10:10:05.109Z</time></trkpt><trkpt lat="41.0396017" lon="14.6471417"><ele>273.0</ele><time>2026-04-25T10:10:06.109Z</time></trkpt><trkpt lat="41.039525" lon="14.6469633"><ele>273.3333333333333</ele><time>2026-04-25T10:10:07.109Z</time></trkpt><trkpt lat="41.0394483" lon="14.64678"><ele>273.66666666666663</ele><time>2026-04-25T10:10:08.109Z</time></trkpt><trkpt lat="41.0393633" lon="14.6465917"><ele>274.0</ele><time>2026-04-25T10:10:09.109Z</time></trkpt><trkpt lat="41.0392817" lon="14.6464"><ele>274.0</ele><time>2026-04-25T10:10:10.109Z</time></trkpt><trkpt lat="41.0392" lon="14.6462083"><ele>274.0</ele><time>2026-04-25T10:10:11.109Z</time></trkpt><trkpt lat="41.0391267" lon="14.6460133"><ele>274.0</ele><time>2026-04-25T10:10:12.109Z</time></trkpt><trkpt lat="41.0390433" lon="14.645815"><ele>274.0</ele><time>2026-04-25T10:10:13.109Z</time></trkpt><trkpt lat="41.0389667" lon="14.6456183"><ele>274.0</ele><time>2026-04-25T10:10:14.109Z</time></trkpt><trkpt lat="41.0388833" lon="14.6454217"><ele>274.0</ele><time>2026-04-25T10:10:15.109Z</time></trkpt><trkpt lat="41.0387867" lon="14.6452217"><ele>274.3333333333333</ele><time>2026-04-25T10:10:16.109Z</time></trkpt><trkpt lat="41.038695" lon="14.645015"><ele>274.6666666666667</ele><time>2026-04-25T10:10:17.109Z</time></trkpt><trkpt lat="41.0386017" lon="14.6448"><ele>275.0</ele><time>2026-04-25T10:10:18.109Z</time></trkpt><trkpt lat="41.0385067" lon="14.6445717"><ele>274.6666666666667</ele><time>2026-04-25T10:10:19.109Z</time></trkpt><trkpt lat="41.038405" lon="14.6443317"><ele>274.3333333333333</ele><time>2026-04-25T10:10:20.109Z</time></trkpt><trkpt lat="41.0382967" lon="14.6440867"><ele>274.0</ele><time>2026-04-25T10:10:21.109Z</time></trkpt><trkpt lat="41.0381867" lon="14.6438167"><ele>273.5</ele><time>2026-04-25T10:10:22.109Z</time></trkpt><trkpt lat="41.0380717" lon="14.6435433"><ele>273.0</ele><time>2026-04-25T10:10:23.109Z</time></trkpt><trkpt lat="41.0379533" lon="14.64327"><ele>273.0</ele><time>2026-04-25T10:10:24.109Z</time></trkpt><trkpt lat="41.0378417" lon="14.64299"><ele>273.0</ele><time>2026-04-25T10:10:25.109Z</time></trkpt><trkpt lat="41.037735" lon="14.642725"><ele>273.0</ele><time>2026-04-25T10:10:26.109Z</time></trkpt><trkpt lat="41.0376267" lon="14.6424583"><ele>273.0</ele><time>2026-04-25T10:10:27.11Z</time></trkpt><trkpt lat="41.0375167" lon="14.6421983"><ele>272.0</ele><time>2026-04-25T10:10:28.109Z</time></trkpt><trkpt lat="41.0374067" lon="14.6419433"><ele>271.0</ele><time>2026-04-25T10:10:29.11Z</time></trkpt><trkpt lat="41.0373033" lon="14.641685"><ele>270.0</ele><time>2026-04-25T10:10:30.109Z</time></trkpt><trkpt lat="41.037205" lon="14.641425"><ele>270.0</ele><time>2026-04-25T10:10:31.109Z</time></trkpt><trkpt lat="41.0371117" lon="14.641155"><ele>270.0</ele><time>2026-04-25T10:10:32.109Z</time></trkpt><trkpt lat="41.0370183" lon="14.6408867"><ele>270.0</ele><time>2026-04-25T10:10:33.109Z</time></trkpt><trkpt lat="41.03692" lon="14.6406133"><ele>269.5</ele><time>2026-04-25T10:10:34.109Z</time></trkpt><trkpt lat="41.036825" lon="14.6403383"><ele>269.0</ele><time>2026-04-25T10:10:35.109Z</time></trkpt><trkpt lat="41.0367283" lon="14.6400683"><ele>273.0</ele><time>2026-04-25T10:10:36.109Z</time></trkpt><trkpt lat="41.0366317" lon="14.63979"><ele>277.0</ele><time>2026-04-25T10:10:37.109Z</time></trkpt><trkpt lat="41.0365317" lon="14.6395"><ele>276.5</ele><time>2026-04-25T10:10:38.109Z</time></trkpt><trkpt lat="41.03643" lon="14.6392083"><ele>276.0</ele><time>2026-04-25T10:10:39.109Z</time></trkpt><trkpt lat="41.03633" lon="14.638915"><ele>274.0</ele><time>2026-04-25T10:10:40.109Z</time></trkpt><trkpt lat="41.036235" lon="14.6386333"><ele>272.0</ele><time>2026-04-25T10:10:41.109Z</time></trkpt><trkpt lat="41.036135" lon="14.6383483"><ele>272.0</ele><time>2026-04-25T10:10:42.109Z</time></trkpt><trkpt lat="41.0360383" lon="14.6380583"><ele>272.0</ele><time>2026-04-25T10:10:43.109Z</time></trkpt><trkpt lat="41.0359367" lon="14.6377667"><ele>271.5</ele><time>2026-04-25T10:10:44.109Z</time></trkpt><trkpt lat="41.0358433" lon="14.63748"><ele>271.0</ele><time>2026-04-25T10:10:45.109Z</time></trkpt><trkpt lat="41.03575" lon="14.6371967"><ele>270.5</ele><time>2026-04-25T10:10:46.109Z</time></trkpt><trkpt lat="41.0356517" lon="14.63691"><ele>270.0</ele><time>2026-04-25T10:10:47.109Z</time></trkpt><trkpt lat="41.0355567" lon="14.6366217"><ele>270.0</ele><time>2026-04-25T10:10:48.109Z</time></trkpt><trkpt lat="41.0354583" lon="14.636335"><ele>270.0</ele><time>2026-04-25T10:10:49.109Z</time></trkpt><trkpt lat="41.03536" lon="14.6360567"><ele>270.0</ele><time>2026-04-25T10:10:50.109Z</time></trkpt><trkpt lat="41.035265" lon="14.6357683"><ele>270.0</ele><time>2026-04-25T10:10:51.109Z</time></trkpt><trkpt lat="41.03517" lon="14.6354833"><ele>270.0</ele><time>2026-04-25T10:10:52.109Z</time></trkpt><trkpt lat="41.03507" lon="14.6352067"><ele>270.0</ele><time>2026-04-25T10:10:53.109Z</time></trkpt><trkpt lat="41.0349733" lon="14.6349267"><ele>270.0</ele><time>2026-04-25T10:10:54.109Z</time></trkpt><trkpt lat="41.034875" lon="14.6346483"><ele>270.0</ele><time>2026-04-25T10:10:55.109Z</time></trkpt><trkpt lat="41.0347783" lon="14.63437"><ele>270.0</ele><time>2026-04-25T10:10:56.109Z</time></trkpt><trkpt lat="41.0346867" lon="14.6340983"><ele>270.0</ele><time>2026-04-25T10:10:57.109Z</time></trkpt><trkpt lat="41.034595" lon="14.6338233"><ele>269.5</ele><time>2026-04-25T10:10:58.109Z</time></trkpt><trkpt lat="41.0344983" lon="14.6335483"><ele>269.0</ele><time>2026-04-25T10:10:59.109Z</time></trkpt><trkpt lat="41.034405" lon="14.6332717"><ele>269.0</ele><time>2026-04-25T10:11:00.109Z</time></trkpt><trkpt lat="41.0343133" lon="14.633"><ele>269.0</ele><time>2026-04-25T10:11:01.11Z</time></trkpt><trkpt lat="41.034225" lon="14.6327317"><ele>269.0</ele><time>2026-04-25T10:11:02.109Z</time></trkpt><trkpt lat="41.03414" lon="14.63246"><ele>269.0</ele><time>2026-04-25T10:11:03.109Z</time></trkpt><trkpt lat="41.0340583" lon="14.6321883"><ele>269.0</ele><time>2026-04-25T10:11:04.109Z</time></trkpt><trkpt lat="41.033985" lon="14.631915"><ele>269.0</ele><time>2026-04-25T10:11:05.109Z</time></trkpt><trkpt lat="41.03392" lon="14.6316383"><ele>269.0</ele><time>2026-04-25T10:11:06.109Z</time></trkpt><trkpt lat="41.0338567" lon="14.63136"><ele>269.0</ele><time>2026-04-25T10:11:07.109Z</time></trkpt><trkpt lat="41.0338033" lon="14.6310817"><ele>269.0</ele><time>2026-04-25T10:11:08.109Z</time></trkpt><trkpt lat="41.033765" lon="14.6308017"><ele>269.0</ele><time>2026-04-25T10:11:09.109Z</time></trkpt><trkpt lat="41.0337383" lon="14.6305183"><ele>269.0</ele><time>2026-04-25T10:11:10.109Z</time></trkpt><trkpt lat="41.0337217" lon="14.6302367"><ele>269.0</ele><time>2026-04-25T10:11:11.109Z</time></trkpt><trkpt lat="41.0337067" lon="14.629955"><ele>268.6666666666667</ele><time>2026-04-25T10:11:12.109Z</time></trkpt><trkpt lat="41.0336983" lon="14.6296667"><ele>268.3333333333333</ele><time>2026-04-25T10:11:13.109Z</time></trkpt><trkpt lat="41.0336983" lon="14.6293767"><ele>268.0</ele><time>2026-04-25T10:11:14.109Z</time></trkpt><trkpt lat="41.033715" lon="14.62909"><ele>268.0</ele><time>2026-04-25T10:11:15.109Z</time></trkpt><trkpt lat="41.0337383" lon="14.6288117"><ele>268.0</ele><time>2026-04-25T10:11:16.109Z</time></trkpt><trkpt lat="41.0337717" lon="14.6285333"><ele>268.0</ele><time>2026-04-25T10:11:17.109Z</time></trkpt><trkpt lat="41.0338117" lon="14.628245"><ele>267.66666666666663</ele><time>2026-04-25T10:11:18.109Z</time></trkpt><trkpt lat="41.0338533" lon="14.6279567"><ele>267.3333333333333</ele><time>2026-04-25T10:11:19.109Z</time></trkpt><trkpt lat="41.0339017" lon="14.6276867"><ele>267.0</ele><time>2026-04-25T10:11:20.11Z</time></trkpt><trkpt lat="41.0339683" lon="14.6274267"><ele>267.0</ele><time>2026-04-25T10:11:21.11Z</time></trkpt><trkpt lat="41.0340333" lon="14.6271733"><ele>267.0</ele><time>2026-04-25T10:11:22.109Z</time></trkpt><trkpt lat="41.0341117" lon="14.6269233"><ele>267.0</ele><time>2026-04-25T10:11:23.109Z</time></trkpt><trkpt lat="41.0341933" lon="14.6266833"><ele>267.3333333333333</ele><time>2026-04-25T10:11:24.109Z</time></trkpt><trkpt lat="41.0342733" lon="14.62645"><ele>267.66666666666663</ele><time>2026-04-25T10:11:25.109Z</time></trkpt><trkpt lat="41.0343567" lon="14.6262167"><ele>268.0</ele><time>2026-04-25T10:11:26.109Z</time></trkpt><trkpt lat="41.034455" lon="14.6259933"><ele>268.3333333333333</ele><time>2026-04-25T10:11:27.109Z</time></trkpt><trkpt lat="41.034555" lon="14.62578"><ele>268.6666666666667</ele><time>2026-04-25T10:11:28.109Z</time></trkpt><trkpt lat="41.0346667" lon="14.6255733"><ele>269.0</ele><time>2026-04-25T10:11:29.109Z</time></trkpt><trkpt lat="41.03478" lon="14.6253667"><ele>269.0</ele><time>2026-04-25T10:11:30.109Z</time></trkpt><trkpt lat="41.034895" lon="14.6251583"><ele>269.0</ele><time>2026-04-25T10:11:31.109Z</time></trkpt><trkpt lat="41.035015" lon="14.62495"><ele>269.0</ele><time>2026-04-25T10:11:32.109Z</time></trkpt><trkpt lat="41.0351433" lon="14.6247367"><ele>269.0</ele><time>2026-04-25T10:11:33.109Z</time></trkpt><trkpt lat="41.0352833" lon="14.6245067"><ele>269.0</ele><time>2026-04-25T10:11:34.109Z</time></trkpt><trkpt lat="41.03543" lon="14.624275"><ele>269.5</ele><time>2026-04-25T10:11:35.109Z</time></trkpt><trkpt lat="41.03558" lon="14.6240167"><ele>270.0</ele><time>2026-04-25T10:11:36.109Z</time></trkpt><trkpt lat="41.0357433" lon="14.623765"><ele>269.5</ele><time>2026-04-25T10:11:37.109Z</time></trkpt><trkpt lat="41.035905" lon="14.62351"><ele>269.0</ele><time>2026-04-25T10:11:38.108Z</time></trkpt><trkpt lat="41.0360667" lon="14.623245"><ele>269.0</ele><time>2026-04-25T10:11:39.108Z</time></trkpt><trkpt lat="41.036235" lon="14.622985"><ele>269.0</ele><time>2026-04-25T10:11:40.108Z</time></trkpt><trkpt lat="41.036395" lon="14.6227267"><ele>269.0</ele><time>2026-04-25T10:11:41.108Z</time></trkpt><trkpt lat="41.0365583" lon="14.6224717"><ele>269.0</ele><time>2026-04-25T10:11:42.108Z</time></trkpt><trkpt lat="41.0367217" lon="14.6222167"><ele>269.0</ele><time>2026-04-25T10:11:43.108Z</time></trkpt><trkpt lat="41.0368817" lon="14.6219683"><ele>269.0</ele><time>2026-04-25T10:11:44.109Z</time></trkpt><trkpt lat="41.0370417" lon="14.621715"><ele>269.0</ele><time>2026-04-25T10:11:45.108Z</time></trkpt><trkpt lat="41.0371967" lon="14.6214717"><ele>269.0</ele><time>2026-04-25T10:11:46.109Z</time></trkpt><trkpt lat="41.037355" lon="14.621225"><ele>268.5</ele><time>2026-04-25T10:11:47.108Z</time></trkpt><trkpt lat="41.03751" lon="14.6209783"><ele>268.0</ele><time>2026-04-25T10:11:48.108Z</time></trkpt><trkpt lat="41.037665" lon="14.620735"><ele>268.0</ele><time>2026-04-25T10:11:49.108Z</time></trkpt><trkpt lat="41.03781" lon="14.620495"><ele>268.0</ele><time>2026-04-25T10:11:50.108Z</time></trkpt><trkpt lat="41.0379617" lon="14.6202667"><ele>268.0</ele><time>2026-04-25T10:11:51.108Z</time></trkpt><trkpt lat="41.0381083" lon="14.620035"><ele>268.0</ele><time>2026-04-25T10:11:52.108Z</time></trkpt><trkpt lat="41.0382533" lon="14.6198017"><ele>268.0</ele><time>2026-04-25T10:11:53.108Z</time></trkpt><trkpt lat="41.0384017" lon="14.6195617"><ele>268.0</ele><time>2026-04-25T10:11:54.108Z</time></trkpt><trkpt lat="41.0385467" lon="14.6193283"><ele>268.3333333333333</ele><time>2026-04-25T10:11:55.108Z</time></trkpt><trkpt lat="41.0386817" lon="14.6190883"><ele>268.6666666666667</ele><time>2026-04-25T10:11:56.108Z</time></trkpt><trkpt lat="41.0388083" lon="14.618845"><ele>269.0</ele><time>2026-04-25T10:11:57.108Z</time></trkpt><trkpt lat="41.038935" lon="14.6186117"><ele>269.0</ele><time>2026-04-25T10:11:58.108Z</time></trkpt><trkpt lat="41.0390517" lon="14.6183717"><ele>269.0</ele><time>2026-04-25T10:11:59.108Z</time></trkpt><trkpt lat="41.0391633" lon="14.6181217"><ele>269.0</ele><time>2026-04-25T10:12:00.109Z</time></trkpt><trkpt lat="41.0392667" lon="14.6178617"><ele>268.6666666666667</ele><time>2026-04-25T10:12:01.108Z</time></trkpt><trkpt lat="41.0393617" lon="14.6176"><ele>268.3333333333333</ele><time>2026-04-25T10:12:02.109Z</time></trkpt><trkpt lat="41.0394483" lon="14.617335"><ele>268.0</ele><time>2026-04-25T10:12:03.108Z</time></trkpt><trkpt lat="41.0395283" lon="14.617065"><ele>267.66666666666663</ele><time>2026-04-25T10:12:04.108Z</time></trkpt><trkpt lat="41.0395983" lon="14.6167883"><ele>267.3333333333333</ele><time>2026-04-25T10:12:05.108Z</time></trkpt><trkpt lat="41.0396617" lon="14.616505"><ele>267.0</ele><time>2026-04-25T10:12:06.109Z</time></trkpt><trkpt lat="41.039715" lon="14.6162133"><ele>268.0</ele><time>2026-04-25T10:12:07.108Z</time></trkpt><trkpt lat="41.0397633" lon="14.6159167"><ele>269.0</ele><time>2026-04-25T10:12:08.108Z</time></trkpt><trkpt lat="41.0398067" lon="14.6156183"><ele>269.0</ele><time>2026-04-25T10:12:09.108Z</time></trkpt><trkpt lat="41.0398517" lon="14.615315"><ele>269.0</ele><time>2026-04-25T10:12:10.108Z</time></trkpt><trkpt lat="41.039895" lon="14.6150083"><ele>269.0</ele><time>2026-04-25T10:12:11.108Z</time></trkpt><trkpt lat="41.0399333" lon="14.6147183"><ele>269.0</ele><time>2026-04-25T10:12:12.108Z</time></trkpt><trkpt lat="41.0399667" lon="14.61444"><ele>269.0</ele><time>2026-04-25T10:12:13.108Z</time></trkpt><trkpt lat="41.04" lon="14.61417"><ele>268.6666666666667</ele><time>2026-04-25T10:12:14.108Z</time></trkpt><trkpt lat="41.04003" lon="14.6138967"><ele>268.3333333333333</ele><time>2026-04-25T10:12:15.108Z</time></trkpt><trkpt lat="41.0400567" lon="14.6136233"><ele>268.0</ele><time>2026-04-25T10:12:16.109Z</time></trkpt><trkpt lat="41.0400867" lon="14.6133533"><ele>267.66666666666663</ele><time>2026-04-25T10:12:17.108Z</time></trkpt><trkpt lat="41.0401183" lon="14.6130833"><ele>267.3333333333333</ele><time>2026-04-25T10:12:18.108Z</time></trkpt><trkpt lat="41.0401517" lon="14.6128133"><ele>267.0</ele><time>2026-04-25T10:12:19.108Z</time></trkpt><trkpt lat="41.040185" lon="14.6125483"><ele>267.0</ele><time>2026-04-25T10:12:20.108Z</time></trkpt><trkpt lat="41.0402133" lon="14.6122833"><ele>267.0</ele><time>2026-04-25T10:12:21.108Z</time></trkpt><trkpt lat="41.04024" lon="14.6120067"><ele>267.0</ele><time>2026-04-25T10:12:22.108Z</time></trkpt><trkpt lat="41.0402667" lon="14.611735"><ele>267.0</ele><time>2026-04-25T10:12:23.108Z</time></trkpt><trkpt lat="41.040295" lon="14.6114533"><ele>267.0</ele><time>2026-04-25T10:12:24.108Z</time></trkpt><trkpt lat="41.0403233" lon="14.6111817"><ele>267.0</ele><time>2026-04-25T10:12:25.109Z</time></trkpt><trkpt lat="41.0403583" lon="14.610905"><ele>266.0</ele><time>2026-04-25T10:12:26.108Z</time></trkpt><trkpt lat="41.040395" lon="14.6106367"><ele>265.0</ele><time>2026-04-25T10:12:27.108Z</time></trkpt><trkpt lat="41.0404317" lon="14.6103583"><ele>264.0</ele><time>2026-04-25T10:12:28.108Z</time></trkpt><trkpt lat="41.0404633" lon="14.6100783"><ele>264.0</ele><time>2026-04-25T10:12:29.109Z</time></trkpt><trkpt lat="41.0404917" lon="14.6097883"><ele>264.0</ele><time>2026-04-25T10:12:30.108Z</time></trkpt><trkpt lat="41.0405217" lon="14.6094967"><ele>264.0</ele><time>2026-04-25T10:12:31.108Z</time></trkpt><trkpt lat="41.0405533" lon="14.6092083"><ele>264.0</ele><time>2026-04-25T10:12:32.108Z</time></trkpt><trkpt lat="41.0405817" lon="14.6089233"><ele>264.0</ele><time>2026-04-25T10:12:33.108Z</time></trkpt><trkpt lat="41.0406133" lon="14.60864"><ele>264.0</ele><time>2026-04-25T10:12:34.108Z</time></trkpt><trkpt lat="41.0406433" lon="14.6083533"><ele>263.0</ele><time>2026-04-25T10:12:35.108Z</time></trkpt><trkpt lat="41.0406767" lon="14.608065"><ele>262.0</ele><time>2026-04-25T10:12:36.109Z</time></trkpt><trkpt lat="41.0407167" lon="14.6077733"><ele>261.0</ele><time>2026-04-25T10:12:37.108Z</time></trkpt><trkpt lat="41.040755" lon="14.6074867"><ele>261.0</ele><time>2026-04-25T10:12:38.108Z</time></trkpt><trkpt lat="41.04079" lon="14.6071983"><ele>261.0</ele><time>2026-04-25T10:12:39.108Z</time></trkpt><trkpt lat="41.0408233" lon="14.6069167"><ele>261.0</ele><time>2026-04-25T10:12:40.108Z</time></trkpt><trkpt lat="41.04086" lon="14.6066333"><ele>261.3333333333333</ele><time>2026-04-25T10:12:41.108Z</time></trkpt><trkpt lat="41.040895" lon="14.6063467"><ele>261.66666666666663</ele><time>2026-04-25T10:12:42.108Z</time></trkpt><trkpt lat="41.0409283" lon="14.6060683"><ele>262.0</ele><time>2026-04-25T10:12:43.108Z</time></trkpt><trkpt lat="41.04096" lon="14.6057867"><ele>261.3333333333333</ele><time>2026-04-25T10:12:44.108Z</time></trkpt><trkpt lat="41.0409833" lon="14.6055117"><ele>260.6666666666667</ele><time>2026-04-25T10:12:45.108Z</time></trkpt><trkpt lat="41.04102" lon="14.6052433"><ele>260.0</ele><time>2026-04-25T10:12:46.108Z</time></trkpt><trkpt lat="41.0410517" lon="14.6049667"><ele>260.0</ele><time>2026-04-25T10:12:47.108Z</time></trkpt><trkpt lat="41.0410867" lon="14.6047"><ele>260.0</ele><time>2026-04-25T10:12:48.109Z</time></trkpt><trkpt lat="41.0411233" lon="14.6044333"><ele>260.0</ele><time>2026-04-25T10:12:49.108Z</time></trkpt><trkpt lat="41.0411517" lon="14.6041683"><ele>260.33333333333337</ele><time>2026-04-25T10:12:50.108Z</time></trkpt><trkpt lat="41.04118" lon="14.6039"><ele>260.6666666666667</ele><time>2026-04-25T10:12:51.108Z</time></trkpt><trkpt lat="41.0412033" lon="14.6036233"><ele>261.0</ele><time>2026-04-25T10:12:52.108Z</time></trkpt><trkpt lat="41.0412233" lon="14.6033417"><ele>261.0</ele><time>2026-04-25T10:12:53.108Z</time></trkpt><trkpt lat="41.0412467" lon="14.6030567"><ele>261.0</ele><time>2026-04-25T10:12:54.108Z</time></trkpt><trkpt lat="41.041265" lon="14.6027667"><ele>261.0</ele><time>2026-04-25T10:12:55.108Z</time></trkpt><trkpt lat="41.0412883" lon="14.602475"><ele>261.0</ele><time>2026-04-25T10:12:56.108Z</time></trkpt><trkpt lat="41.04131" lon="14.60218"><ele>261.0</ele><time>2026-04-25T10:12:57.108Z</time></trkpt><trkpt lat="41.0413333" lon="14.601895"><ele>261.0</ele><time>2026-04-25T10:12:58.108Z</time></trkpt><trkpt lat="41.0413533" lon="14.601605"><ele>261.3333333333333</ele><time>2026-04-25T10:12:59.108Z</time></trkpt><trkpt lat="41.041365" lon="14.6013133"><ele>261.66666666666663</ele><time>2026-04-25T10:13:00.108Z</time></trkpt><trkpt lat="41.0413767" lon="14.6010133"><ele>262.0</ele><time>2026-04-25T10:13:01.108Z</time></trkpt><trkpt lat="41.0413967" lon="14.6007167"><ele>261.3333333333333</ele><time>2026-04-25T10:13:02.108Z</time></trkpt><trkpt lat="41.0414183" lon="14.6004233"><ele>260.6666666666667</ele><time>2026-04-25T10:13:03.108Z</time></trkpt><trkpt lat="41.0414333" lon="14.6001333"><ele>260.0</ele><time>2026-04-25T10:13:04.108Z</time></trkpt><trkpt lat="41.04145" lon="14.59984"><ele>260.0</ele><time>2026-04-25T10:13:05.108Z</time></trkpt><trkpt lat="41.041465" lon="14.59955"><ele>260.0</ele><time>2026-04-25T10:13:06.108Z</time></trkpt><trkpt lat="41.0414833" lon="14.59925"><ele>260.0</ele><time>2026-04-25T10:13:07.109Z</time></trkpt><trkpt lat="41.0415" lon="14.5989533"><ele>260.0</ele><time>2026-04-25T10:13:08.108Z</time></trkpt><trkpt lat="41.0415183" lon="14.5986583"><ele>260.0</ele><time>2026-04-25T10:13:09.108Z</time></trkpt><trkpt lat="41.0415333" lon="14.5983633"><ele>260.0</ele><time>2026-04-25T10:13:10.108Z</time></trkpt><trkpt lat="41.0415533" lon="14.5980683"><ele>260.33333333333337</ele><time>2026-04-25T10:13:11.108Z</time></trkpt><trkpt lat="41.04157" lon="14.597775"><ele>260.6666666666667</ele><time>2026-04-25T10:13:12.108Z</time></trkpt><trkpt lat="41.0415933" lon="14.5974783"><ele>261.0</ele><time>2026-04-25T10:13:13.108Z</time></trkpt><trkpt lat="41.0416117" lon="14.5971783"><ele>260.6666666666667</ele><time>2026-04-25T10:13:14.108Z</time></trkpt><trkpt lat="41.04163" lon="14.59689"><ele>260.33333333333337</ele><time>2026-04-25T10:13:15.108Z</time></trkpt><trkpt lat="41.0416433" lon="14.59661"><ele>260.0</ele><time>2026-04-25T10:13:16.108Z</time></trkpt><trkpt lat="41.0416583" lon="14.5963367"><ele>259.33333333333337</ele><time>2026-04-25T10:13:17.108Z</time></trkpt><trkpt lat="41.0416717" lon="14.5960683"><ele>258.6666666666667</ele><time>2026-04-25T10:13:18.108Z</time></trkpt><trkpt lat="41.0416833" lon="14.5958017"><ele>258.0</ele><time>2026-04-25T10:13:19.108Z</time></trkpt><trkpt lat="41.0416967" lon="14.5955483"><ele>257.3333333333333</ele><time>2026-04-25T10:13:20.108Z</time></trkpt><trkpt lat="41.0417183" lon="14.5953067"><ele>256.66666666666663</ele><time>2026-04-25T10:13:21.108Z</time></trkpt><trkpt lat="41.04174" lon="14.5950583"><ele>256.0</ele><time>2026-04-25T10:13:22.108Z</time></trkpt><trkpt lat="41.04176" lon="14.5948217"><ele>256.0</ele><time>2026-04-25T10:13:23.108Z</time></trkpt><trkpt lat="41.041775" lon="14.594585"><ele>256.0</ele><time>2026-04-25T10:13:24.109Z</time></trkpt><trkpt lat="41.04179" lon="14.59436"><ele>256.0</ele><time>2026-04-25T10:13:25.108Z</time></trkpt><trkpt lat="41.0418033" lon="14.5941383"><ele>256.0</ele><time>2026-04-25T10:13:26.108Z</time></trkpt><trkpt lat="41.0418267" lon="14.5939083"><ele>256.0</ele><time>2026-04-25T10:13:27.108Z</time></trkpt><trkpt lat="41.0418533" lon="14.593675"><ele>256.0</ele><time>2026-04-25T10:13:28.108Z</time></trkpt><trkpt lat="41.0418817" lon="14.5934483"><ele>256.0</ele><time>2026-04-25T10:13:29.108Z</time></trkpt><trkpt lat="41.041915" lon="14.593215"><ele>256.0</ele><time>2026-04-25T10:13:30.108Z</time></trkpt><trkpt lat="41.0419517" lon="14.5929833"><ele>256.0</ele><time>2026-04-25T10:13:31.108Z</time></trkpt><trkpt lat="41.0419983" lon="14.5927517"><ele>256.3333333333333</ele><time>2026-04-25T10:13:32.108Z</time></trkpt><trkpt lat="41.042045" lon="14.59253"><ele>256.6666666666667</ele><time>2026-04-25T10:13:33.108Z</time></trkpt><trkpt lat="41.0420983" lon="14.5923167"><ele>257.0</ele><time>2026-04-25T10:13:34.108Z</time></trkpt><trkpt lat="41.0421517" lon="14.592115"><ele>256.33333333333337</ele><time>2026-04-25T10:13:35.108Z</time></trkpt><trkpt lat="41.04221" lon="14.5919183"><ele>255.66666666666669</ele><time>2026-04-25T10:13:36.108Z</time></trkpt><trkpt lat="41.04227" lon="14.5917167"><ele>255.0</ele><time>2026-04-25T10:13:37.108Z</time></trkpt><trkpt lat="41.042325" lon="14.591525"><ele>255.0</ele><time>2026-04-25T10:13:38.108Z</time></trkpt><trkpt lat="41.042385" lon="14.5913483"><ele>255.0</ele><time>2026-04-25T10:13:39.108Z</time></trkpt><trkpt lat="41.04244" lon="14.5912117"><ele>255.0</ele><time>2026-04-25T10:13:40.108Z</time></trkpt><trkpt lat="41.04249" lon="14.5911283"><ele>255.0</ele><time>2026-04-25T10:13:41.108Z</time></trkpt><trkpt lat="41.0425917" lon="14.5910817"><ele>255.2</ele><time>2026-04-25T10:13:43.108Z</time></trkpt><trkpt lat="41.0426867" lon="14.5911033"><ele>255.4</ele><time>2026-04-25T10:13:45.108Z</time></trkpt><trkpt lat="41.04278" lon="14.5911467"><ele>255.60000000000002</ele><time>2026-04-25T10:13:47.108Z</time></trkpt><trkpt lat="41.0428567" lon="14.5911667"><ele>255.8</ele><time>2026-04-25T10:13:49.109Z</time></trkpt><trkpt lat="41.04278" lon="14.5911083"><ele>256.0</ele><time>2026-04-25T10:14:05.108Z</time></trkpt><trkpt lat="41.0426633" lon="14.5911017"><ele>255.99999999999997</ele><time>2026-04-25T10:14:07.108Z</time></trkpt><trkpt lat="41.0425783" lon="14.5910567"><ele>256.0</ele><time>2026-04-25T10:14:09.108Z</time></trkpt><trkpt lat="41.0425433" lon="14.5909683"><ele>256.0</ele><time>2026-04-25T10:14:11.109Z</time></trkpt><trkpt lat="41.0425367" lon="14.5908467"><ele>256.0</ele><time>2026-04-25T10:14:13.108Z</time></trkpt><trkpt lat="41.042545" lon="14.5907617"><ele>255.99999999999997</ele><time>2026-04-25T10:14:14.108Z</time></trkpt><trkpt lat="41.04257" lon="14.59065"><ele>256.0</ele><time>2026-04-25T10:14:15.108Z</time></trkpt><trkpt lat="41.042605" lon="14.5905067"><ele>256.0</ele><time>2026-04-25T10:14:16.108Z</time></trkpt><trkpt lat="41.0426467" lon="14.59035"><ele>256.0</ele><time>2026-04-25T10:14:17.108Z</time></trkpt><trkpt lat="41.0426867" lon="14.5901883"><ele>256.0</ele><time>2026-04-25T10:14:18.108Z</time></trkpt><trkpt lat="41.0427367" lon="14.59001"><ele>256.0</ele><time>2026-04-25T10:14:19.109Z</time></trkpt><trkpt lat="41.0427867" lon="14.58982"><ele>256.0</ele><time>2026-04-25T10:14:20.108Z</time></trkpt><trkpt lat="41.0428383" lon="14.589625"><ele>256.0</ele><time>2026-04-25T10:14:21.108Z</time></trkpt><trkpt lat="41.0428967" lon="14.58942"><ele>256.0</ele><time>2026-04-25T10:14:22.108Z</time></trkpt><trkpt lat="41.0429583" lon="14.589195"><ele>256.0</ele><time>2026-04-25T10:14:23.108Z</time></trkpt><trkpt lat="41.04303" lon="14.5889483"><ele>256.0</ele><time>2026-04-25T10:14:24.108Z</time></trkpt><trkpt lat="41.0431067" lon="14.588675"><ele>256.0</ele><time>2026-04-25T10:14:25.108Z</time></trkpt><trkpt lat="41.04318" lon="14.5883983"><ele>255.0</ele><time>2026-04-25T10:14:26.108Z</time></trkpt><trkpt lat="41.0432583" lon="14.588115"><ele>254.0</ele><time>2026-04-25T10:14:27.108Z</time></trkpt><trkpt lat="41.04334" lon="14.5878183"><ele>254.0</ele><time>2026-04-25T10:14:28.108Z</time></trkpt><trkpt lat="41.0434183" lon="14.587525"><ele>254.0</ele><time>2026-04-25T10:14:29.108Z</time></trkpt><trkpt lat="41.0434917" lon="14.587245"><ele>253.66666666666669</ele><time>2026-04-25T10:14:30.108Z</time></trkpt><trkpt lat="41.0435583" lon="14.5870033"><ele>253.33333333333331</ele><time>2026-04-25T10:14:31.108Z</time></trkpt><trkpt lat="41.0436317" lon="14.58677"><ele>253.0</ele><time>2026-04-25T10:14:32.108Z</time></trkpt><trkpt lat="41.043715" lon="14.58656"><ele>253.0</ele><time>2026-04-25T10:14:33.108Z</time></trkpt><trkpt lat="41.0438033" lon="14.5863633"><ele>253.0</ele><time>2026-04-25T10:14:34.108Z</time></trkpt><trkpt lat="41.043895" lon="14.5861667"><ele>253.0</ele><time>2026-04-25T10:14:35.108Z</time></trkpt><trkpt lat="41.04399" lon="14.5859633"><ele>253.0</ele><time>2026-04-25T10:14:36.108Z</time></trkpt><trkpt lat="41.0440783" lon="14.5857483"><ele>253.0</ele><time>2026-04-25T10:14:37.108Z</time></trkpt><trkpt lat="41.0441667" lon="14.585525"><ele>253.0</ele><time>2026-04-25T10:14:38.108Z</time></trkpt><trkpt lat="41.044255" lon="14.5852867"><ele>252.66666666666666</ele><time>2026-04-25T10:14:39.108Z</time></trkpt><trkpt lat="41.0443433" lon="14.5850217"><ele>252.33333333333331</ele><time>2026-04-25T10:14:40.108Z</time></trkpt><trkpt lat="41.0444267" lon="14.58476"><ele>252.0</ele><time>2026-04-25T10:14:41.109Z</time></trkpt><trkpt lat="41.0445033" lon="14.5845067"><ele>252.66666666666669</ele><time>2026-04-25T10:14:42.109Z</time></trkpt><trkpt lat="41.0445783" lon="14.58425"><ele>253.33333333333334</ele><time>2026-04-25T10:14:43.108Z</time></trkpt><trkpt lat="41.04464" lon="14.5840167"><ele>254.0</ele><time>2026-04-25T10:14:44.108Z</time></trkpt><trkpt lat="41.0446967" lon="14.5838233"><ele>254.25</ele><time>2026-04-25T10:14:45.108Z</time></trkpt><trkpt lat="41.044755" lon="14.5836583"><ele>254.5</ele><time>2026-04-25T10:14:46.108Z</time></trkpt><trkpt lat="41.0448117" lon="14.5835183"><ele>254.75</ele><time>2026-04-25T10:14:47.108Z</time></trkpt><trkpt lat="41.0448733" lon="14.5834033"><ele>255.0</ele><time>2026-04-25T10:14:48.108Z</time></trkpt><trkpt lat="41.0449333" lon="14.5833"><ele>255.4</ele><time>2026-04-25T10:14:49.108Z</time></trkpt><trkpt lat="41.0450033" lon="14.5832167"><ele>255.8</ele><time>2026-04-25T10:14:50.108Z</time></trkpt><trkpt lat="41.04508" lon="14.5831583"><ele>256.2</ele><time>2026-04-25T10:14:51.108Z</time></trkpt><trkpt lat="41.045175" lon="14.5831067"><ele>256.6</ele><time>2026-04-25T10:14:52.108Z</time></trkpt><trkpt lat="41.045275" lon="14.583075"><ele>257.0</ele><time>2026-04-25T10:14:53.109Z</time></trkpt><trkpt lat="41.0453717" lon="14.5830567"><ele>257.0</ele><time>2026-04-25T10:14:54.108Z</time></trkpt><trkpt lat="41.0454417" lon="14.58305"><ele>257.0</ele><time>2026-04-25T10:14:55.108Z</time></trkpt><trkpt lat="41.0455383" lon="14.5830583"><ele>257.0</ele><time>2026-04-25T10:14:57.108Z</time></trkpt><trkpt lat="41.04566" lon="14.5831233"><ele>257.0</ele><time>2026-04-25T10:14:59.108Z</time></trkpt><trkpt lat="41.0457367" lon="14.5831683"><ele>257.0</ele><time>2026-04-25T10:15:00.108Z</time></trkpt><trkpt lat="41.045815" lon="14.5832117"><ele>256.6</ele><time>2026-04-25T10:15:01.109Z</time></trkpt><trkpt lat="41.0459017" lon="14.5832367"><ele>256.2</ele><time>2026-04-25T10:15:02.109Z</time></trkpt><trkpt lat="41.04599" lon="14.58325"><ele>255.8</ele><time>2026-04-25T10:15:03.108Z</time></trkpt><trkpt lat="41.0460783" lon="14.5832333"><ele>255.4</ele><time>2026-04-25T10:15:04.108Z</time></trkpt><trkpt lat="41.0461683" lon="14.5831983"><ele>255.0</ele><time>2026-04-25T10:15:05.108Z</time></trkpt><trkpt lat="41.0462517" lon="14.583145"><ele>255.0</ele><time>2026-04-25T10:15:06.108Z</time></trkpt><trkpt lat="41.046325" lon="14.5830767"><ele>255.0</ele><time>2026-04-25T10:15:07.109Z</time></trkpt><trkpt lat="41.046395" lon="14.5829867"><ele>255.0</ele><time>2026-04-25T10:15:08.108Z</time></trkpt><trkpt lat="41.046455" lon="14.5828883"><ele>255.0</ele><time>2026-04-25T10:15:09.108Z</time></trkpt><trkpt lat="41.0464967" lon="14.5827733"><ele>255.0</ele><time>2026-04-25T10:15:10.108Z</time></trkpt><trkpt lat="41.0465267" lon="14.58266"><ele>255.2</ele><time>2026-04-25T10:15:11.108Z</time></trkpt><trkpt lat="41.0465333" lon="14.5825283"><ele>255.4</ele><time>2026-04-25T10:15:12.108Z</time></trkpt><trkpt lat="41.0465317" lon="14.5823967"><ele>255.60000000000002</ele><time>2026-04-25T10:15:13.109Z</time></trkpt><trkpt lat="41.04651" lon="14.5822633"><ele>255.8</ele><time>2026-04-25T10:15:14.108Z</time></trkpt><trkpt lat="41.0464783" lon="14.58214"><ele>256.0</ele><time>2026-04-25T10:15:15.108Z</time></trkpt><trkpt lat="41.0464233" lon="14.58202"><ele>255.8</ele><time>2026-04-25T10:15:16.108Z</time></trkpt><trkpt lat="41.0463567" lon="14.5819167"><ele>255.60000000000002</ele><time>2026-04-25T10:15:17.108Z</time></trkpt><trkpt lat="41.0462767" lon="14.5818283"><ele>255.4</ele><time>2026-04-25T10:15:18.108Z</time></trkpt><trkpt lat="41.046185" lon="14.5817583"><ele>255.2</ele><time>2026-04-25T10:15:19.108Z</time></trkpt><trkpt lat="41.0460917" lon="14.5817167"><ele>255.0</ele><time>2026-04-25T10:15:20.108Z</time></trkpt><trkpt lat="41.0459917" lon="14.5817083"><ele>255.0</ele><time>2026-04-25T10:15:21.108Z</time></trkpt><trkpt lat="41.045895" lon="14.5817183"><ele>255.0</ele><time>2026-04-25T10:15:22.108Z</time></trkpt><trkpt lat="41.0457967" lon="14.5817533"><ele>255.0</ele><time>2026-04-25T10:15:23.108Z</time></trkpt><trkpt lat="41.0457" lon="14.5818067"><ele>255.0</ele><time>2026-04-25T10:15:24.108Z</time></trkpt><trkpt lat="41.0456067" lon="14.5818617"><ele>255.0</ele><time>2026-04-25T10:15:25.108Z</time></trkpt><trkpt lat="41.045525" lon="14.581885"><ele>254.6</ele><time>2026-04-25T10:15:26.108Z</time></trkpt><trkpt lat="41.0454367" lon="14.5818783"><ele>254.2</ele><time>2026-04-25T10:15:27.108Z</time></trkpt><trkpt lat="41.04535" lon="14.5818367"><ele>253.8</ele><time>2026-04-25T10:15:28.108Z</time></trkpt><trkpt lat="41.0452767" lon="14.58176"><ele>253.4</ele><time>2026-04-25T10:15:29.108Z</time></trkpt><trkpt lat="41.045225" lon="14.5816567"><ele>253.0</ele><time>2026-04-25T10:15:30.108Z</time></trkpt><trkpt lat="41.0451817" lon="14.581525"><ele>253.0</ele><time>2026-04-25T10:15:31.108Z</time></trkpt><trkpt lat="41.045145" lon="14.5813767"><ele>253.0</ele><time>2026-04-25T10:15:32.108Z</time></trkpt><trkpt lat="41.0451" lon="14.5812"><ele>253.0</ele><time>2026-04-25T10:15:33.108Z</time></trkpt><trkpt lat="41.0450517" lon="14.5810167"><ele>253.0</ele><time>2026-04-25T10:15:34.108Z</time></trkpt><trkpt lat="41.0449933" lon="14.5808183"><ele>253.0</ele><time>2026-04-25T10:15:35.109Z</time></trkpt><trkpt lat="41.0449417" lon="14.5806067"><ele>253.0</ele><time>2026-04-25T10:15:36.109Z</time></trkpt><trkpt lat="41.044885" lon="14.5803867"><ele>253.0</ele><time>2026-04-25T10:15:37.109Z</time></trkpt><trkpt lat="41.044825" lon="14.5801683"><ele>253.0</ele><time>2026-04-25T10:15:38.108Z</time></trkpt><trkpt lat="41.0447733" lon="14.5799367"><ele>253.0</ele><time>2026-04-25T10:15:39.108Z</time></trkpt><trkpt lat="41.0447183" lon="14.5797033"><ele>253.0</ele><time>2026-04-25T10:15:40.108Z</time></trkpt><trkpt lat="41.04466" lon="14.57946"><ele>252.66666666666666</ele><time>2026-04-25T10:15:41.108Z</time></trkpt><trkpt lat="41.0446017" lon="14.5792083"><ele>252.33333333333331</ele><time>2026-04-25T10:15:42.108Z</time></trkpt><trkpt lat="41.04455" lon="14.5789633"><ele>252.0</ele><time>2026-04-25T10:15:43.108Z</time></trkpt><trkpt lat="41.044495" lon="14.57874"><ele>252.25</ele><time>2026-04-25T10:15:44.108Z</time></trkpt><trkpt lat="41.04445" lon="14.5785317"><ele>252.5</ele><time>2026-04-25T10:15:45.108Z</time></trkpt><trkpt lat="41.0444117" lon="14.5783583"><ele>252.75</ele><time>2026-04-25T10:15:46.108Z</time></trkpt><trkpt lat="41.0443817" lon="14.5782217"><ele>253.0</ele><time>2026-04-25T10:15:47.108Z</time></trkpt><trkpt lat="41.04436" lon="14.57812"><ele>253.0</ele><time>2026-04-25T10:15:48.108Z</time></trkpt><trkpt lat="41.044335" lon="14.57801"><ele>253.0</ele><time>2026-04-25T10:15:49.108Z</time></trkpt><trkpt lat="41.0443" lon="14.57789"><ele>253.0</ele><time>2026-04-25T10:15:50.108Z</time></trkpt><trkpt lat="41.044265" lon="14.5777517"><ele>253.0</ele><time>2026-04-25T10:15:51.108Z</time></trkpt><trkpt lat="41.04423" lon="14.5776033"><ele>253.0</ele><time>2026-04-25T10:15:52.109Z</time></trkpt><trkpt lat="41.0441967" lon="14.5774517"><ele>253.0</ele><time>2026-04-25T10:15:53.108Z</time></trkpt><trkpt lat="41.0441583" lon="14.5772933"><ele>253.0</ele><time>2026-04-25T10:15:54.108Z</time></trkpt><trkpt lat="41.0441183" lon="14.57713"><ele>253.0</ele><time>2026-04-25T10:15:55.108Z</time></trkpt><trkpt lat="41.0440817" lon="14.57695"><ele>253.0</ele><time>2026-04-25T10:15:56.108Z</time></trkpt><trkpt lat="41.0440417" lon="14.5767767"><ele>253.0</ele><time>2026-04-25T10:15:57.108Z</time></trkpt><trkpt lat="41.0440017" lon="14.5766067"><ele>253.0</ele><time>2026-04-25T10:15:58.108Z</time></trkpt><trkpt lat="41.0439633" lon="14.5764367"><ele>253.0</ele><time>2026-04-25T10:15:59.108Z</time></trkpt><trkpt lat="41.043925" lon="14.5762617"><ele>253.0</ele><time>2026-04-25T10:16:00.109Z</time></trkpt><trkpt lat="41.0438767" lon="14.5760717"><ele>253.33333333333331</ele><time>2026-04-25T10:16:01.108Z</time></trkpt><trkpt lat="41.0438283" lon="14.5758733"><ele>253.66666666666669</ele><time>2026-04-25T10:16:02.108Z</time></trkpt><trkpt lat="41.0437717" lon="14.5756667"><ele>254.0</ele><time>2026-04-25T10:16:03.108Z</time></trkpt><trkpt lat="41.0437117" lon="14.5754283"><ele>255.0</ele><time>2026-04-25T10:16:04.108Z</time></trkpt><trkpt lat="41.0436483" lon="14.57517"><ele>256.0</ele><time>2026-04-25T10:16:05.108Z</time></trkpt><trkpt lat="41.043585" lon="14.5749033"><ele>257.0</ele><time>2026-04-25T10:16:06.108Z</time></trkpt><trkpt lat="41.0435217" lon="14.5746133"><ele>257.5</ele><time>2026-04-25T10:16:07.108Z</time></trkpt><trkpt lat="41.0434583" lon="14.574325"><ele>258.0</ele><time>2026-04-25T10:16:08.108Z</time></trkpt><trkpt lat="41.043395" lon="14.5740283"><ele>258.0</ele><time>2026-04-25T10:16:09.108Z</time></trkpt><trkpt lat="41.0433283" lon="14.5737317"><ele>258.0</ele><time>2026-04-25T10:16:10.108Z</time></trkpt><trkpt lat="41.04326" lon="14.5734333"><ele>260.0</ele><time>2026-04-25T10:16:11.108Z</time></trkpt><trkpt lat="41.0431917" lon="14.5731483"><ele>262.0</ele><time>2026-04-25T10:16:12.108Z</time></trkpt><trkpt lat="41.0431233" lon="14.5728583"><ele>261.5</ele><time>2026-04-25T10:16:13.108Z</time></trkpt><trkpt lat="41.0430483" lon="14.5725733"><ele>261.0</ele><time>2026-04-25T10:16:14.109Z</time></trkpt><trkpt lat="41.04298" lon="14.5722833"><ele>261.0</ele><time>2026-04-25T10:16:15.108Z</time></trkpt><trkpt lat="41.0429167" lon="14.5720067"><ele>261.0</ele><time>2026-04-25T10:16:16.108Z</time></trkpt><trkpt lat="41.0428517" lon="14.5717367"><ele>261.0</ele><time>2026-04-25T10:16:17.108Z</time></trkpt><trkpt lat="41.0427933" lon="14.57147"><ele>261.0</ele><time>2026-04-25T10:16:18.109Z</time></trkpt><trkpt lat="41.042735" lon="14.5712067"><ele>261.0</ele><time>2026-04-25T10:16:19.108Z</time></trkpt><trkpt lat="41.0426683" lon="14.570945"><ele>261.0</ele><time>2026-04-25T10:16:20.108Z</time></trkpt><trkpt lat="41.0426083" lon="14.570685"><ele>261.0</ele><time>2026-04-25T10:16:21.108Z</time></trkpt><trkpt lat="41.042555" lon="14.570435"><ele>261.0</ele><time>2026-04-25T10:16:22.108Z</time></trkpt><trkpt lat="41.0425" lon="14.570185"><ele>261.0</ele><time>2026-04-25T10:16:23.108Z</time></trkpt><trkpt lat="41.0424417" lon="14.5699433"><ele>261.0</ele><time>2026-04-25T10:16:24.108Z</time></trkpt><trkpt lat="41.042385" lon="14.569705"><ele>261.0</ele><time>2026-04-25T10:16:25.108Z</time></trkpt><trkpt lat="41.0423333" lon="14.5694683"><ele>261.0</ele><time>2026-04-25T10:16:26.108Z</time></trkpt><trkpt lat="41.04228" lon="14.5692283"><ele>261.0</ele><time>2026-04-25T10:16:27.108Z</time></trkpt><trkpt lat="41.0422233" lon="14.5689833"><ele>261.0</ele><time>2026-04-25T10:16:28.108Z</time></trkpt><trkpt lat="41.04217" lon="14.568735"><ele>261.0</ele><time>2026-04-25T10:16:29.109Z</time></trkpt><trkpt lat="41.042115" lon="14.5684883"><ele>261.0</ele><time>2026-04-25T10:16:30.108Z</time></trkpt><trkpt lat="41.0420617" lon="14.5682433"><ele>261.0</ele><time>2026-04-25T10:16:31.108Z</time></trkpt><trkpt lat="41.0420083" lon="14.568005"><ele>261.0</ele><time>2026-04-25T10:16:32.108Z</time></trkpt><trkpt lat="41.041955" lon="14.5677667"><ele>262.0</ele><time>2026-04-25T10:16:33.109Z</time></trkpt><trkpt lat="41.041905" lon="14.5675433"><ele>263.0</ele><time>2026-04-25T10:16:34.108Z</time></trkpt><trkpt lat="41.0418567" lon="14.567315"><ele>264.0</ele><time>2026-04-25T10:16:35.108Z</time></trkpt><trkpt lat="41.0418067" lon="14.56709"><ele>264.3333333333333</ele><time>2026-04-25T10:16:36.108Z</time></trkpt><trkpt lat="41.041755" lon="14.56688"><ele>264.66666666666663</ele><time>2026-04-25T10:16:37.108Z</time></trkpt><trkpt lat="41.0417083" lon="14.5666767"><ele>265.0</ele><time>2026-04-25T10:16:38.108Z</time></trkpt><trkpt lat="41.0416533" lon="14.5664517"><ele>265.3333333333333</ele><time>2026-04-25T10:16:39.108Z</time></trkpt><trkpt lat="41.0415917" lon="14.5662033"><ele>265.6666666666667</ele><time>2026-04-25T10:16:40.108Z</time></trkpt><trkpt lat="41.0415367" lon="14.5659383"><ele>266.0</ele><time>2026-04-25T10:16:41.108Z</time></trkpt><trkpt lat="41.0414783" lon="14.5656533"><ele>266.0</ele><time>2026-04-25T10:16:42.108Z</time></trkpt><trkpt lat="41.0414133" lon="14.5653583"><ele>266.0</ele><time>2026-04-25T10:16:43.109Z</time></trkpt><trkpt lat="41.0413533" lon="14.56506"><ele>266.0</ele><time>2026-04-25T10:16:44.108Z</time></trkpt><trkpt lat="41.04129" lon="14.56477"><ele>266.0</ele><time>2026-04-25T10:16:45.108Z</time></trkpt><trkpt lat="41.0412283" lon="14.564495"><ele>266.0</ele><time>2026-04-25T10:16:46.108Z</time></trkpt><trkpt lat="41.0411717" lon="14.564235"><ele>266.33333333333337</ele><time>2026-04-25T10:16:47.108Z</time></trkpt><trkpt lat="41.0411133" lon="14.5639767"><ele>266.6666666666667</ele><time>2026-04-25T10:16:48.108Z</time></trkpt><trkpt lat="41.041055" lon="14.56372"><ele>267.0</ele><time>2026-04-25T10:16:49.108Z</time></trkpt><trkpt lat="41.041" lon="14.5634617"><ele>267.6666666666667</ele><time>2026-04-25T10:16:50.109Z</time></trkpt><trkpt lat="41.04094" lon="14.563215"><ele>268.33333333333337</ele><time>2026-04-25T10:16:51.108Z</time></trkpt><trkpt lat="41.0408817" lon="14.5629717"><ele>269.0</ele><time>2026-04-25T10:16:52.108Z</time></trkpt><trkpt lat="41.0408267" lon="14.5627283"><ele>270.33333333333337</ele><time>2026-04-25T10:16:53.108Z</time></trkpt><trkpt lat="41.0407767" lon="14.5625033"><ele>271.6666666666667</ele><time>2026-04-25T10:16:54.108Z</time></trkpt><trkpt lat="41.0407283" lon="14.56229"><ele>273.0</ele><time>2026-04-25T10:16:55.108Z</time></trkpt><trkpt lat="41.0406833" lon="14.56209"><ele>273.25</ele><time>2026-04-25T10:16:56.109Z</time></trkpt><trkpt lat="41.0406367" lon="14.5619033"><ele>273.5</ele><time>2026-04-25T10:16:57.108Z</time></trkpt><trkpt lat="41.0405967" lon="14.561725"><ele>273.75</ele><time>2026-04-25T10:16:58.108Z</time></trkpt><trkpt lat="41.04055" lon="14.5615417"><ele>274.0</ele><time>2026-04-25T10:16:59.109Z</time></trkpt><trkpt lat="41.0405033" lon="14.5613517"><ele>274.0</ele><time>2026-04-25T10:17:00.108Z</time></trkpt><trkpt lat="41.0404533" lon="14.5611533"><ele>274.0</ele><time>2026-04-25T10:17:01.109Z</time></trkpt><trkpt lat="41.040405" lon="14.560945"><ele>274.0</ele><time>2026-04-25T10:17:02.108Z</time></trkpt><trkpt lat="41.0403533" lon="14.5607233"><ele>274.0</ele><time>2026-04-25T10:17:03.108Z</time></trkpt><trkpt lat="41.0403" lon="14.5604933"><ele>274.0</ele><time>2026-04-25T10:17:04.108Z</time></trkpt><trkpt lat="41.040245" lon="14.5602617"><ele>274.0</ele><time>2026-04-25T10:17:05.108Z</time></trkpt><trkpt lat="41.0401917" lon="14.5600383"><ele>274.66666666666663</ele><time>2026-04-25T10:17:06.108Z</time></trkpt><trkpt lat="41.0401417" lon="14.5597983"><ele>275.3333333333333</ele><time>2026-04-25T10:17:07.108Z</time></trkpt><trkpt lat="41.040085" lon="14.5595667"><ele>276.0</ele><time>2026-04-25T10:17:08.108Z</time></trkpt><trkpt lat="41.0400233" lon="14.5593233"><ele>277.3333333333333</ele><time>2026-04-25T10:17:09.108Z</time></trkpt><trkpt lat="41.0399633" lon="14.5590617"><ele>278.66666666666663</ele><time>2026-04-25T10:17:10.108Z</time></trkpt><trkpt lat="41.0399" lon="14.5587933"><ele>280.0</ele><time>2026-04-25T10:17:11.108Z</time></trkpt><trkpt lat="41.03984" lon="14.55853"><ele>280.66666666666663</ele><time>2026-04-25T10:17:12.108Z</time></trkpt><trkpt lat="41.03978" lon="14.558275"><ele>281.3333333333333</ele><time>2026-04-25T10:17:13.108Z</time></trkpt><trkpt lat="41.03972" lon="14.5580233"><ele>282.0</ele><time>2026-04-25T10:17:14.108Z</time></trkpt><trkpt lat="41.0396617" lon="14.5577717"><ele>282.0</ele><time>2026-04-25T10:17:15.108Z</time></trkpt><trkpt lat="41.039605" lon="14.5575283"><ele>282.0</ele><time>2026-04-25T10:17:16.108Z</time></trkpt><trkpt lat="41.0395467" lon="14.5572867"><ele>282.0</ele><time>2026-04-25T10:17:17.108Z</time></trkpt><trkpt lat="41.03949" lon="14.55705"><ele>282.6666666666667</ele><time>2026-04-25T10:17:18.108Z</time></trkpt><trkpt lat="41.0394333" lon="14.556835"><ele>283.33333333333337</ele><time>2026-04-25T10:17:19.108Z</time></trkpt><trkpt lat="41.0393783" lon="14.5566217"><ele>284.0</ele><time>2026-04-25T10:17:20.108Z</time></trkpt><trkpt lat="41.0393283" lon="14.5564083"><ele>284.6666666666667</ele><time>2026-04-25T10:17:21.108Z</time></trkpt><trkpt lat="41.0392833" lon="14.5562"><ele>285.3333333333333</ele><time>2026-04-25T10:17:22.108Z</time></trkpt><trkpt lat="41.0392333" lon="14.5559933"><ele>286.0</ele><time>2026-04-25T10:17:23.108Z</time></trkpt><trkpt lat="41.0391833" lon="14.55579"><ele>287.66666666666663</ele><time>2026-04-25T10:17:24.108Z</time></trkpt><trkpt lat="41.03913" lon="14.5555867"><ele>289.3333333333333</ele><time>2026-04-25T10:17:25.108Z</time></trkpt><trkpt lat="41.039075" lon="14.5553933"><ele>291.0</ele><time>2026-04-25T10:17:26.108Z</time></trkpt><trkpt lat="41.039025" lon="14.5551967"><ele>291.6666666666667</ele><time>2026-04-25T10:17:27.108Z</time></trkpt><trkpt lat="41.0389717" lon="14.5549967"><ele>292.33333333333337</ele><time>2026-04-25T10:17:28.108Z</time></trkpt><trkpt lat="41.03892" lon="14.5548"><ele>293.0</ele><time>2026-04-25T10:17:29.108Z</time></trkpt><trkpt lat="41.03887" lon="14.5546083"><ele>293.0</ele><time>2026-04-25T10:17:30.108Z</time></trkpt><trkpt lat="41.0388183" lon="14.5544083"><ele>293.0</ele><time>2026-04-25T10:17:31.108Z</time></trkpt><trkpt lat="41.0387617" lon="14.554215"><ele>293.0</ele><time>2026-04-25T10:17:32.108Z</time></trkpt><trkpt lat="41.0387083" lon="14.5540167"><ele>293.0</ele><time>2026-04-25T10:17:33.108Z</time></trkpt><trkpt lat="41.0386533" lon="14.553825"><ele>293.0</ele><time>2026-04-25T10:17:34.108Z</time></trkpt><trkpt lat="41.0385983" lon="14.55363"><ele>293.0</ele><time>2026-04-25T10:17:35.108Z</time></trkpt><trkpt lat="41.0385433" lon="14.5534283"><ele>293.6666666666667</ele><time>2026-04-25T10:17:36.108Z</time></trkpt><trkpt lat="41.0384833" lon="14.5532333"><ele>294.3333333333333</ele><time>2026-04-25T10:17:37.108Z</time></trkpt><trkpt lat="41.0384167" lon="14.5530367"><ele>295.0</ele><time>2026-04-25T10:17:38.108Z</time></trkpt><trkpt lat="41.03835" lon="14.5528417"><ele>296.5</ele><time>2026-04-25T10:17:39.108Z</time></trkpt><trkpt lat="41.0382883" lon="14.552665"><ele>298.0</ele><time>2026-04-25T10:17:40.108Z</time></trkpt><trkpt lat="41.0382283" lon="14.5525083"><ele>299.5</ele><time>2026-04-25T10:17:41.108Z</time></trkpt><trkpt lat="41.038175" lon="14.5523633"><ele>301.0</ele><time>2026-04-25T10:17:42.108Z</time></trkpt><trkpt lat="41.03812" lon="14.55222"><ele>301.0</ele><time>2026-04-25T10:17:43.108Z</time></trkpt><trkpt lat="41.0380667" lon="14.552075"><ele>301.0</ele><time>2026-04-25T10:17:44.109Z</time></trkpt><trkpt lat="41.0380217" lon="14.551935"><ele>301.0</ele><time>2026-04-25T10:17:45.108Z</time></trkpt><trkpt lat="41.0379733" lon="14.5518167"><ele>301.0</ele><time>2026-04-25T10:17:46.108Z</time></trkpt><trkpt lat="41.0379333" lon="14.5517017"><ele>301.0</ele><time>2026-04-25T10:17:47.108Z</time></trkpt><trkpt lat="41.0378917" lon="14.5515883"><ele>300.8</ele><time>2026-04-25T10:17:48.108Z</time></trkpt><trkpt lat="41.0378483" lon="14.5514667"><ele>300.6</ele><time>2026-04-25T10:17:49.108Z</time></trkpt><trkpt lat="41.0378017" lon="14.551345"><ele>300.4</ele><time>2026-04-25T10:17:50.108Z</time></trkpt><trkpt lat="41.0377517" lon="14.5512067"><ele>300.2</ele><time>2026-04-25T10:17:51.108Z</time></trkpt><trkpt lat="41.0377033" lon="14.55106"><ele>300.0</ele><time>2026-04-25T10:17:52.108Z</time></trkpt><trkpt lat="41.0376517" lon="14.5509083"><ele>300.0</ele><time>2026-04-25T10:17:53.108Z</time></trkpt><trkpt lat="41.0375867" lon="14.550775"><ele>300.0</ele><time>2026-04-25T10:17:54.108Z</time></trkpt><trkpt lat="41.037535" lon="14.5506317"><ele>300.0</ele><time>2026-04-25T10:17:55.108Z</time></trkpt><trkpt lat="41.0374917" lon="14.55049"><ele>300.0</ele><time>2026-04-25T10:17:56.108Z</time></trkpt><trkpt lat="41.03744" lon="14.550355"><ele>300.0</ele><time>2026-04-25T10:17:57.108Z</time></trkpt><trkpt lat="41.037385" lon="14.5502233"><ele>300.0</ele><time>2026-04-25T10:17:58.108Z</time></trkpt><trkpt lat="41.0373367" lon="14.550095"><ele>300.0</ele><time>2026-04-25T10:17:59.108Z</time></trkpt><trkpt lat="41.0372867" lon="14.54996"><ele>300.0</ele><time>2026-04-25T10:18:00.108Z</time></trkpt><trkpt lat="41.037245" lon="14.5498267"><ele>300.0</ele><time>2026-04-25T10:18:01.108Z</time></trkpt><trkpt lat="41.0372017" lon="14.549705"><ele>300.0</ele><time>2026-04-25T10:18:02.108Z</time></trkpt><trkpt lat="41.0371567" lon="14.54959"><ele>300.0</ele><time>2026-04-25T10:18:03.108Z</time></trkpt><trkpt lat="41.0371117" lon="14.5494767"><ele>300.0</ele><time>2026-04-25T10:18:04.108Z</time></trkpt><trkpt lat="41.0370583" lon="14.5493533"><ele>300.0</ele><time>2026-04-25T10:18:05.108Z</time></trkpt><trkpt lat="41.0370017" lon="14.54922"><ele>300.0</ele><time>2026-04-25T10:18:06.108Z</time></trkpt><trkpt lat="41.0369517" lon="14.5490933"><ele>299.0</ele><time>2026-04-25T10:18:07.108Z</time></trkpt><trkpt lat="41.03691" lon="14.5489683"><ele>298.0</ele><time>2026-04-25T10:18:08.108Z</time></trkpt><trkpt lat="41.0368667" lon="14.5488567"><ele>297.0</ele><time>2026-04-25T10:18:09.108Z</time></trkpt><trkpt lat="41.0368217" lon="14.54875"><ele>296.0</ele><time>2026-04-25T10:18:10.108Z</time></trkpt><trkpt lat="41.0367833" lon="14.5486517"><ele>295.0</ele><time>2026-04-25T10:18:11.108Z</time></trkpt><trkpt lat="41.0367467" lon="14.5485433"><ele>294.4</ele><time>2026-04-25T10:18:12.108Z</time></trkpt><trkpt lat="41.0367083" lon="14.5484267"><ele>293.8</ele><time>2026-04-25T10:18:13.108Z</time></trkpt><trkpt lat="41.036665" lon="14.5483133"><ele>293.2</ele><time>2026-04-25T10:18:14.108Z</time></trkpt><trkpt lat="41.0366217" lon="14.5482033"><ele>292.6</ele><time>2026-04-25T10:18:15.108Z</time></trkpt><trkpt lat="41.0365767" lon="14.5480883"><ele>292.0</ele><time>2026-04-25T10:18:16.108Z</time></trkpt><trkpt lat="41.0365333" lon="14.5479667"><ele>291.6</ele><time>2026-04-25T10:18:17.108Z</time></trkpt><trkpt lat="41.0364933" lon="14.5478433"><ele>291.2</ele><time>2026-04-25T10:18:18.108Z</time></trkpt><trkpt lat="41.03645" lon="14.5477217"><ele>290.8</ele><time>2026-04-25T10:18:19.108Z</time></trkpt><trkpt lat="41.0364067" lon="14.5476017"><ele>290.4</ele><time>2026-04-25T10:18:20.108Z</time></trkpt><trkpt lat="41.0363683" lon="14.5474833"><ele>290.0</ele><time>2026-04-25T10:18:21.108Z</time></trkpt><trkpt lat="41.0363217" lon="14.54736"><ele>290.0</ele><time>2026-04-25T10:18:22.108Z</time></trkpt><trkpt lat="41.0362783" lon="14.5472333"><ele>290.0</ele><time>2026-04-25T10:18:23.108Z</time></trkpt><trkpt lat="41.036235" lon="14.5471067"><ele>290.0</ele><time>2026-04-25T10:18:24.108Z</time></trkpt><trkpt lat="41.0361833" lon="14.54699"><ele>290.0</ele><time>2026-04-25T10:18:25.108Z</time></trkpt><trkpt lat="41.036135" lon="14.5468683"><ele>290.0</ele><time>2026-04-25T10:18:26.108Z</time></trkpt><trkpt lat="41.03609" lon="14.5467467"><ele>289.0</ele><time>2026-04-25T10:18:27.108Z</time></trkpt><trkpt lat="41.0360467" lon="14.5466133"><ele>288.0</ele><time>2026-04-25T10:18:28.108Z</time></trkpt><trkpt lat="41.0359983" lon="14.5464683"><ele>287.0</ele><time>2026-04-25T10:18:29.108Z</time></trkpt><trkpt lat="41.035945" lon="14.5463167"><ele>286.0</ele><time>2026-04-25T10:18:30.108Z</time></trkpt><trkpt lat="41.03589" lon="14.5461633"><ele>285.75</ele><time>2026-04-25T10:18:31.108Z</time></trkpt><trkpt lat="41.0358333" lon="14.546005"><ele>285.5</ele><time>2026-04-25T10:18:32.108Z</time></trkpt><trkpt lat="41.0357817" lon="14.545855"><ele>285.25</ele><time>2026-04-25T10:18:33.108Z</time></trkpt><trkpt lat="41.0357383" lon="14.5457167"><ele>285.0</ele><time>2026-04-25T10:18:34.108Z</time></trkpt><trkpt lat="41.035685" lon="14.5455733"><ele>285.0</ele><time>2026-04-25T10:18:35.109Z</time></trkpt><trkpt lat="41.03563" lon="14.54543"><ele>285.0</ele><time>2026-04-25T10:18:36.108Z</time></trkpt><trkpt lat="41.03558" lon="14.545295"><ele>285.0</ele><time>2026-04-25T10:18:37.109Z</time></trkpt><trkpt lat="41.0355333" lon="14.54517"><ele>285.0</ele><time>2026-04-25T10:18:38.108Z</time></trkpt><trkpt lat="41.0355" lon="14.5450483"><ele>285.0</ele><time>2026-04-25T10:18:39.108Z</time></trkpt><trkpt lat="41.0354817" lon="14.5449417"><ele>284.3333333333333</ele><time>2026-04-25T10:18:40.109Z</time></trkpt><trkpt lat="41.0354683" lon="14.5448483"><ele>283.6666666666667</ele><time>2026-04-25T10:18:41.108Z</time></trkpt><trkpt lat="41.0354583" lon="14.5447483"><ele>283.0</ele><time>2026-04-25T10:18:42.108Z</time></trkpt><trkpt lat="41.03545" lon="14.5446467"><ele>282.33333333333337</ele><time>2026-04-25T10:18:43.108Z</time></trkpt><trkpt lat="41.0354383" lon="14.54454"><ele>281.6666666666667</ele><time>2026-04-25T10:18:44.108Z</time></trkpt><trkpt lat="41.035425" lon="14.544445"><ele>281.0</ele><time>2026-04-25T10:18:45.108Z</time></trkpt><trkpt lat="41.0354083" lon="14.5443483"><ele>280.2</ele><time>2026-04-25T10:18:46.108Z</time></trkpt><trkpt lat="41.0353967" lon="14.544225"><ele>279.40000000000003</ele><time>2026-04-25T10:18:47.108Z</time></trkpt><trkpt lat="41.0353833" lon="14.54409"><ele>278.6</ele><time>2026-04-25T10:18:48.108Z</time></trkpt><trkpt lat="41.0353667" lon="14.5439517"><ele>277.8</ele><time>2026-04-25T10:18:49.108Z</time></trkpt><trkpt lat="41.0353533" lon="14.5438183"><ele>277.0</ele><time>2026-04-25T10:18:50.108Z</time></trkpt><trkpt lat="41.0353417" lon="14.5436933"><ele>275.2</ele><time>2026-04-25T10:18:51.108Z</time></trkpt><trkpt lat="41.03533" lon="14.5435683"><ele>273.4</ele><time>2026-04-25T10:18:52.108Z</time></trkpt><trkpt lat="41.03532" lon="14.5434367"><ele>271.6</ele><time>2026-04-25T10:18:53.108Z</time></trkpt><trkpt lat="41.035305" lon="14.5433"><ele>269.8</ele><time>2026-04-25T10:18:54.108Z</time></trkpt><trkpt lat="41.0352883" lon="14.5431533"><ele>268.0</ele><time>2026-04-25T10:18:55.108Z</time></trkpt><trkpt lat="41.0352667" lon="14.542985"><ele>266.0</ele><time>2026-04-25T10:18:56.108Z</time></trkpt><trkpt lat="41.0352333" lon="14.5428067"><ele>264.0</ele><time>2026-04-25T10:18:57.108Z</time></trkpt><trkpt lat="41.0352133" lon="14.5426133"><ele>262.0</ele><time>2026-04-25T10:18:58.108Z</time></trkpt><trkpt lat="41.0351967" lon="14.5424233"><ele>260.0</ele><time>2026-04-25T10:18:59.108Z</time></trkpt><trkpt lat="41.035185" lon="14.5422517"><ele>260.0</ele><time>2026-04-25T10:19:00.108Z</time></trkpt><trkpt lat="41.0351683" lon="14.5420917"><ele>260.0</ele><time>2026-04-25T10:19:01.108Z</time></trkpt><trkpt lat="41.03516" lon="14.5419517"><ele>260.0</ele><time>2026-04-25T10:19:02.108Z</time></trkpt><trkpt lat="41.0351617" lon="14.5418217"><ele>260.0</ele><time>2026-04-25T10:19:03.108Z</time></trkpt><trkpt lat="41.03517" lon="14.54169"><ele>260.0</ele><time>2026-04-25T10:19:04.109Z</time></trkpt><trkpt lat="41.0351867" lon="14.5415583"><ele>259.0</ele><time>2026-04-25T10:19:05.108Z</time></trkpt><trkpt lat="41.03521" lon="14.5414167"><ele>258.0</ele><time>2026-04-25T10:19:06.108Z</time></trkpt><trkpt lat="41.0352317" lon="14.541275"><ele>257.0</ele><time>2026-04-25T10:19:07.108Z</time></trkpt><trkpt lat="41.0352467" lon="14.5411417"><ele>256.0</ele><time>2026-04-25T10:19:08.108Z</time></trkpt><trkpt lat="41.0352517" lon="14.5410067"><ele>255.0</ele><time>2026-04-25T10:19:09.108Z</time></trkpt><trkpt lat="41.0352483" lon="14.5408783"><ele>254.0</ele><time>2026-04-25T10:19:10.108Z</time></trkpt><trkpt lat="41.035235" lon="14.5407467"><ele>253.0</ele><time>2026-04-25T10:19:11.108Z</time></trkpt><trkpt lat="41.035215" lon="14.5406117"><ele>252.0</ele><time>2026-04-25T10:19:12.108Z</time></trkpt><trkpt lat="41.0351917" lon="14.5404817"><ele>251.0</ele><time>2026-04-25T10:19:13.109Z</time></trkpt><trkpt lat="41.0351717" lon="14.5403483"><ele>250.0</ele><time>2026-04-25T10:19:14.108Z</time></trkpt><trkpt lat="41.0351533" lon="14.540215"><ele>249.6</ele><time>2026-04-25T10:19:15.108Z</time></trkpt><trkpt lat="41.0351367" lon="14.5400817"><ele>249.2</ele><time>2026-04-25T10:19:16.108Z</time></trkpt><trkpt lat="41.0351267" lon="14.539945"><ele>248.8</ele><time>2026-04-25T10:19:17.108Z</time></trkpt><trkpt lat="41.0351233" lon="14.5398017"><ele>248.4</ele><time>2026-04-25T10:19:18.108Z</time></trkpt><trkpt lat="41.03514" lon="14.53965"><ele>248.0</ele><time>2026-04-25T10:19:19.108Z</time></trkpt><trkpt lat="41.0351617" lon="14.539505"><ele>247.0</ele><time>2026-04-25T10:19:20.108Z</time></trkpt><trkpt lat="41.0351883" lon="14.5393617"><ele>246.0</ele><time>2026-04-25T10:19:21.108Z</time></trkpt><trkpt lat="41.0352117" lon="14.53922"><ele>245.0</ele><time>2026-04-25T10:19:22.108Z</time></trkpt><trkpt lat="41.03524" lon="14.5390783"><ele>244.0</ele><time>2026-04-25T10:19:23.108Z</time></trkpt><trkpt lat="41.0352617" lon="14.538945"><ele>243.0</ele><time>2026-04-25T10:19:24.109Z</time></trkpt><trkpt lat="41.0352867" lon="14.5388083"><ele>241.4</ele><time>2026-04-25T10:19:25.108Z</time></trkpt><trkpt lat="41.035315" lon="14.53868"><ele>239.8</ele><time>2026-04-25T10:19:26.108Z</time></trkpt><trkpt lat="41.0353567" lon="14.5385533"><ele>238.2</ele><time>2026-04-25T10:19:27.108Z</time></trkpt><trkpt lat="41.0354133" lon="14.5384233"><ele>236.6</ele><time>2026-04-25T10:19:28.108Z</time></trkpt><trkpt lat="41.0354767" lon="14.5382917"><ele>235.0</ele><time>2026-04-25T10:19:29.108Z</time></trkpt><trkpt lat="41.0355483" lon="14.5381667"><ele>235.0</ele><time>2026-04-25T10:19:30.108Z</time></trkpt><trkpt lat="41.0356233" lon="14.5380417"><ele>235.0</ele><time>2026-04-25T10:19:31.108Z</time></trkpt><trkpt lat="41.0356967" lon="14.5379217"><ele>235.0</ele><time>2026-04-25T10:19:32.108Z</time></trkpt><trkpt lat="41.0357683" lon="14.5377983"><ele>235.0</ele><time>2026-04-25T10:19:33.108Z</time></trkpt><trkpt lat="41.03584" lon="14.5376717"><ele>235.5</ele><time>2026-04-25T10:19:34.108Z</time></trkpt><trkpt lat="41.0359117" lon="14.5375367"><ele>236.0</ele><time>2026-04-25T10:19:35.108Z</time></trkpt><trkpt lat="41.0359767" lon="14.5374"><ele>236.5</ele><time>2026-04-25T10:19:36.108Z</time></trkpt><trkpt lat="41.03604" lon="14.5372583"><ele>237.0</ele><time>2026-04-25T10:19:37.108Z</time></trkpt><trkpt lat="41.0360933" lon="14.5371083"><ele>236.25</ele><time>2026-04-25T10:19:38.108Z</time></trkpt><trkpt lat="41.0361333" lon="14.5369583"><ele>235.5</ele><time>2026-04-25T10:19:39.109Z</time></trkpt><trkpt lat="41.0361667" lon="14.5367967"><ele>234.75</ele><time>2026-04-25T10:19:40.108Z</time></trkpt><trkpt lat="41.03619" lon="14.5366217"><ele>234.0</ele><time>2026-04-25T10:19:41.109Z</time></trkpt><trkpt lat="41.0362033" lon="14.5364283"><ele>234.0</ele><time>2026-04-25T10:19:42.108Z</time></trkpt><trkpt lat="41.0362033" lon="14.53622"><ele>234.0</ele><time>2026-04-25T10:19:43.108Z</time></trkpt><trkpt lat="41.0362017" lon="14.5360017"><ele>234.0</ele><time>2026-04-25T10:19:44.108Z</time></trkpt><trkpt lat="41.0361933" lon="14.5357717"><ele>232.0</ele><time>2026-04-25T10:19:45.108Z</time></trkpt><trkpt lat="41.0361867" lon="14.5355483"><ele>230.0</ele><time>2026-04-25T10:19:46.108Z</time></trkpt><trkpt lat="41.0361833" lon="14.535335"><ele>228.0</ele><time>2026-04-25T10:19:47.108Z</time></trkpt><trkpt lat="41.0361733" lon="14.53513"><ele>227.25</ele><time>2026-04-25T10:19:48.108Z</time></trkpt><trkpt lat="41.036165" lon="14.5349417"><ele>226.5</ele><time>2026-04-25T10:19:49.108Z</time></trkpt><trkpt lat="41.0361583" lon="14.5347767"><ele>225.75</ele><time>2026-04-25T10:19:50.108Z</time></trkpt><trkpt lat="41.036155" lon="14.534625"><ele>225.0</ele><time>2026-04-25T10:19:51.108Z</time></trkpt><trkpt lat="41.0361467" lon="14.5344833"><ele>224.0</ele><time>2026-04-25T10:19:52.108Z</time></trkpt><trkpt lat="41.03614" lon="14.53435"><ele>223.0</ele><time>2026-04-25T10:19:53.108Z</time></trkpt><trkpt lat="41.0361317" lon="14.534195"><ele>222.0</ele><time>2026-04-25T10:19:54.109Z</time></trkpt><trkpt lat="41.036125" lon="14.5340183"><ele>221.0</ele><time>2026-04-25T10:19:55.108Z</time></trkpt><trkpt lat="41.0361117" lon="14.5338217"><ele>220.33333333333334</ele><time>2026-04-25T10:19:56.108Z</time></trkpt><trkpt lat="41.036105" lon="14.5336017"><ele>219.66666666666669</ele><time>2026-04-25T10:19:57.108Z</time></trkpt><trkpt lat="41.036095" lon="14.5333667"><ele>219.0</ele><time>2026-04-25T10:19:58.108Z</time></trkpt><trkpt lat="41.036085" lon="14.5331233"><ele>218.66666666666669</ele><time>2026-04-25T10:19:59.108Z</time></trkpt><trkpt lat="41.036075" lon="14.5328783"><ele>218.33333333333334</ele><time>2026-04-25T10:20:00.108Z</time></trkpt><trkpt lat="41.03606" lon="14.532625"><ele>218.0</ele><time>2026-04-25T10:20:01.108Z</time></trkpt><trkpt lat="41.0360483" lon="14.5323717"><ele>218.0</ele><time>2026-04-25T10:20:02.108Z</time></trkpt><trkpt lat="41.0360433" lon="14.5321167"><ele>218.0</ele><time>2026-04-25T10:20:03.108Z</time></trkpt><trkpt lat="41.0360417" lon="14.5318767"><ele>218.0</ele><time>2026-04-25T10:20:04.108Z</time></trkpt><trkpt lat="41.036035" lon="14.53165"><ele>217.0</ele><time>2026-04-25T10:20:05.108Z</time></trkpt><trkpt lat="41.03603" lon="14.5314217"><ele>216.0</ele><time>2026-04-25T10:20:06.108Z</time></trkpt><trkpt lat="41.0360267" lon="14.531205"><ele>215.0</ele><time>2026-04-25T10:20:07.108Z</time></trkpt><trkpt lat="41.0360283" lon="14.5309867"><ele>213.66666666666669</ele><time>2026-04-25T10:20:08.108Z</time></trkpt><trkpt lat="41.0360417" lon="14.53077"><ele>212.33333333333331</ele><time>2026-04-25T10:20:09.108Z</time></trkpt><trkpt lat="41.036045" lon="14.5305617"><ele>211.0</ele><time>2026-04-25T10:20:10.108Z</time></trkpt><trkpt lat="41.0360517" lon="14.530365"><ele>210.25</ele><time>2026-04-25T10:20:11.108Z</time></trkpt><trkpt lat="41.03606" lon="14.530175"><ele>209.5</ele><time>2026-04-25T10:20:12.108Z</time></trkpt><trkpt lat="41.0360683" lon="14.5299783"><ele>208.75</ele><time>2026-04-25T10:20:13.108Z</time></trkpt><trkpt lat="41.0360733" lon="14.5297767"><ele>208.0</ele><time>2026-04-25T10:20:14.108Z</time></trkpt><trkpt lat="41.0360783" lon="14.5295817"><ele>207.0</ele><time>2026-04-25T10:20:15.108Z</time></trkpt><trkpt lat="41.0360833" lon="14.5293967"><ele>206.0</ele><time>2026-04-25T10:20:16.108Z</time></trkpt><trkpt lat="41.03609" lon="14.5292233"><ele>205.0</ele><time>2026-04-25T10:20:17.108Z</time></trkpt><trkpt lat="41.0361017" lon="14.5290483"><ele>204.0</ele><time>2026-04-25T10:20:18.108Z</time></trkpt><trkpt lat="41.0361083" lon="14.5288683"><ele>203.5</ele><time>2026-04-25T10:20:19.108Z</time></trkpt><trkpt lat="41.0361117" lon="14.528685"><ele>203.0</ele><time>2026-04-25T10:20:20.108Z</time></trkpt><trkpt lat="41.0361117" lon="14.5285"><ele>202.5</ele><time>2026-04-25T10:20:21.108Z</time></trkpt><trkpt lat="41.0361183" lon="14.5283083"><ele>202.0</ele><time>2026-04-25T10:20:22.108Z</time></trkpt><trkpt lat="41.0361267" lon="14.5281167"><ele>202.0</ele><time>2026-04-25T10:20:23.108Z</time></trkpt><trkpt lat="41.0361317" lon="14.5279267"><ele>202.0</ele><time>2026-04-25T10:20:24.108Z</time></trkpt><trkpt lat="41.0361317" lon="14.5277567"><ele>202.0</ele><time>2026-04-25T10:20:25.108Z</time></trkpt><trkpt lat="41.036135" lon="14.5276017"><ele>202.0</ele><time>2026-04-25T10:20:26.108Z</time></trkpt><trkpt lat="41.036135" lon="14.52746"><ele>201.6</ele><time>2026-04-25T10:20:27.108Z</time></trkpt><trkpt lat="41.0361367" lon="14.527325"><ele>201.2</ele><time>2026-04-25T10:20:28.108Z</time></trkpt><trkpt lat="41.03614" lon="14.527195"><ele>200.8</ele><time>2026-04-25T10:20:29.108Z</time></trkpt><trkpt lat="41.0361467" lon="14.5270567"><ele>200.4</ele><time>2026-04-25T10:20:30.108Z</time></trkpt><trkpt lat="41.0361533" lon="14.5269017"><ele>200.0</ele><time>2026-04-25T10:20:31.108Z</time></trkpt><trkpt lat="41.0361567" lon="14.526745"><ele>199.25</ele><time>2026-04-25T10:20:32.108Z</time></trkpt><trkpt lat="41.036155" lon="14.5265833"><ele>198.5</ele><time>2026-04-25T10:20:33.108Z</time></trkpt><trkpt lat="41.0361583" lon="14.52643"><ele>197.75</ele><time>2026-04-25T10:20:34.108Z</time></trkpt><trkpt lat="41.0361633" lon="14.5262867"><ele>197.0</ele><time>2026-04-25T10:20:35.108Z</time></trkpt><trkpt lat="41.0361633" lon="14.526145"><ele>196.25</ele><time>2026-04-25T10:20:36.108Z</time></trkpt><trkpt lat="41.03617" lon="14.525995"><ele>195.5</ele><time>2026-04-25T10:20:37.108Z</time></trkpt><trkpt lat="41.0361717" lon="14.5258417"><ele>194.75</ele><time>2026-04-25T10:20:38.108Z</time></trkpt><trkpt lat="41.03617" lon="14.525685"><ele>194.0</ele><time>2026-04-25T10:20:39.108Z</time></trkpt><trkpt lat="41.036165" lon="14.52552"><ele>193.5</ele><time>2026-04-25T10:20:40.109Z</time></trkpt><trkpt lat="41.0361483" lon="14.5253517"><ele>193.0</ele><time>2026-04-25T10:20:41.108Z</time></trkpt><trkpt lat="41.036125" lon="14.525165"><ele>192.5</ele><time>2026-04-25T10:20:42.108Z</time></trkpt><trkpt lat="41.0360933" lon="14.5249533"><ele>192.0</ele><time>2026-04-25T10:20:43.108Z</time></trkpt><trkpt lat="41.0360533" lon="14.5247167"><ele>191.33333333333334</ele><time>2026-04-25T10:20:44.108Z</time></trkpt><trkpt lat="41.036005" lon="14.5244567"><ele>190.66666666666669</ele><time>2026-04-25T10:20:45.108Z</time></trkpt><trkpt lat="41.0359567" lon="14.5241733"><ele>190.0</ele><time>2026-04-25T10:20:46.108Z</time></trkpt><trkpt lat="41.0359067" lon="14.523855"><ele>188.0</ele><time>2026-04-25T10:20:47.108Z</time></trkpt><trkpt lat="41.0358483" lon="14.523525"><ele>186.0</ele><time>2026-04-25T10:20:48.108Z</time></trkpt><trkpt lat="41.0357833" lon="14.523185"><ele>182.5</ele><time>2026-04-25T10:20:49.108Z</time></trkpt><trkpt lat="41.0357267" lon="14.52287"><ele>179.0</ele><time>2026-04-25T10:20:50.108Z</time></trkpt><trkpt lat="41.0356733" lon="14.5225667"><ele>179.0</ele><time>2026-04-25T10:20:51.108Z</time></trkpt><trkpt lat="41.0356217" lon="14.5222883"><ele>179.0</ele><time>2026-04-25T10:20:52.108Z</time></trkpt><trkpt lat="41.0355767" lon="14.5220267"><ele>179.0</ele><time>2026-04-25T10:20:53.108Z</time></trkpt><trkpt lat="41.0355417" lon="14.52177"><ele>178.66666666666666</ele><time>2026-04-25T10:20:54.108Z</time></trkpt><trkpt lat="41.0355167" lon="14.5215167"><ele>178.33333333333334</ele><time>2026-04-25T10:20:55.108Z</time></trkpt><trkpt lat="41.0355267" lon="14.5212533"><ele>178.0</ele><time>2026-04-25T10:20:56.108Z</time></trkpt><trkpt lat="41.0355467" lon="14.5209867"><ele>177.33333333333334</ele><time>2026-04-25T10:20:57.108Z</time></trkpt><trkpt lat="41.0355767" lon="14.5207183"><ele>176.66666666666666</ele><time>2026-04-25T10:20:58.109Z</time></trkpt><trkpt lat="41.0356217" lon="14.52044"><ele>176.0</ele><time>2026-04-25T10:20:59.108Z</time></trkpt><trkpt lat="41.035655" lon="14.52017"><ele>175.0</ele><time>2026-04-25T10:21:00.108Z</time></trkpt><trkpt lat="41.03568" lon="14.5198983"><ele>174.0</ele><time>2026-04-25T10:21:01.108Z</time></trkpt><trkpt lat="41.0356933" lon="14.51962"><ele>173.0</ele><time>2026-04-25T10:21:02.108Z</time></trkpt><trkpt lat="41.03569" lon="14.5193333"><ele>171.66666666666666</ele><time>2026-04-25T10:21:03.108Z</time></trkpt><trkpt lat="41.0356817" lon="14.5190467"><ele>170.33333333333334</ele><time>2026-04-25T10:21:04.108Z</time></trkpt><trkpt lat="41.03567" lon="14.51877"><ele>169.0</ele><time>2026-04-25T10:21:05.108Z</time></trkpt><trkpt lat="41.035655" lon="14.5185133"><ele>168.0</ele><time>2026-04-25T10:21:06.108Z</time></trkpt><trkpt lat="41.0356317" lon="14.51826"><ele>167.0</ele><time>2026-04-25T10:21:07.108Z</time></trkpt><trkpt lat="41.0355983" lon="14.5180183"><ele>166.0</ele><time>2026-04-25T10:21:08.108Z</time></trkpt><trkpt lat="41.03555" lon="14.51777"><ele>165.66666666666669</ele><time>2026-04-25T10:21:09.108Z</time></trkpt><trkpt lat="41.0354867" lon="14.5175317"><ele>165.33333333333334</ele><time>2026-04-25T10:21:10.108Z</time></trkpt><trkpt lat="41.035405" lon="14.51729"><ele>165.0</ele><time>2026-04-25T10:21:11.108Z</time></trkpt><trkpt lat="41.0353183" lon="14.5170433"><ele>165.0</ele><time>2026-04-25T10:21:12.108Z</time></trkpt><trkpt lat="41.0352317" lon="14.5168167"><ele>165.0</ele><time>2026-04-25T10:21:13.108Z</time></trkpt><trkpt lat="41.0351583" lon="14.5166033"><ele>165.0</ele><time>2026-04-25T10:21:14.108Z</time></trkpt><trkpt lat="41.0350933" lon="14.5163883"><ele>164.25</ele><time>2026-04-25T10:21:15.108Z</time></trkpt><trkpt lat="41.0350367" lon="14.51619"><ele>163.5</ele><time>2026-04-25T10:21:16.108Z</time></trkpt><trkpt lat="41.0349867" lon="14.5160067"><ele>162.75</ele><time>2026-04-25T10:21:17.108Z</time></trkpt><trkpt lat="41.0349367" lon="14.5158317"><ele>162.0</ele><time>2026-04-25T10:21:18.108Z</time></trkpt><trkpt lat="41.03489" lon="14.5156383"><ele>161.0</ele><time>2026-04-25T10:21:19.108Z</time></trkpt><trkpt lat="41.03484" lon="14.5154433"><ele>160.0</ele><time>2026-04-25T10:21:20.109Z</time></trkpt><trkpt lat="41.0347933" lon="14.5152317"><ele>159.0</ele><time>2026-04-25T10:21:21.108Z</time></trkpt><trkpt lat="41.0347433" lon="14.5149867"><ele>158.66666666666666</ele><time>2026-04-25T10:21:22.108Z</time></trkpt><trkpt lat="41.0346933" lon="14.514715"><ele>158.33333333333331</ele><time>2026-04-25T10:21:23.108Z</time></trkpt><trkpt lat="41.0346433" lon="14.51442"><ele>158.0</ele><time>2026-04-25T10:21:24.108Z</time></trkpt><trkpt lat="41.0345967" lon="14.5141017"><ele>156.5</ele><time>2026-04-25T10:21:25.108Z</time></trkpt><trkpt lat="41.034545" lon="14.5137767"><ele>155.0</ele><time>2026-04-25T10:21:26.108Z</time></trkpt><trkpt lat="41.0344917" lon="14.5134433"><ele>155.0</ele><time>2026-04-25T10:21:27.108Z</time></trkpt><trkpt lat="41.0344367" lon="14.5131033"><ele>155.0</ele><time>2026-04-25T10:21:28.108Z</time></trkpt><trkpt lat="41.03438" lon="14.5127633"><ele>154.5</ele><time>2026-04-25T10:21:29.108Z</time></trkpt><trkpt lat="41.0343283" lon="14.5124183"><ele>154.0</ele><time>2026-04-25T10:21:30.108Z</time></trkpt><trkpt lat="41.0342767" lon="14.5120767"><ele>154.0</ele><time>2026-04-25T10:21:31.108Z</time></trkpt><trkpt lat="41.03423" lon="14.5117517"><ele>154.0</ele><time>2026-04-25T10:21:32.108Z</time></trkpt><trkpt lat="41.0341817" lon="14.5114383"><ele>153.5</ele><time>2026-04-25T10:21:33.108Z</time></trkpt><trkpt lat="41.0341383" lon="14.51114"><ele>153.0</ele><time>2026-04-25T10:21:34.108Z</time></trkpt><trkpt lat="41.0340983" lon="14.51085"><ele>152.33333333333334</ele><time>2026-04-25T10:21:35.108Z</time></trkpt><trkpt lat="41.0340583" lon="14.5105633"><ele>151.66666666666669</ele><time>2026-04-25T10:21:36.108Z</time></trkpt><trkpt lat="41.0340217" lon="14.5102717"><ele>151.0</ele><time>2026-04-25T10:21:37.108Z</time></trkpt><trkpt lat="41.0340017" lon="14.5099817"><ele>150.33333333333334</ele><time>2026-04-25T10:21:38.108Z</time></trkpt><trkpt lat="41.0339767" lon="14.509685"><ele>149.66666666666666</ele><time>2026-04-25T10:21:39.108Z</time></trkpt><trkpt lat="41.0339517" lon="14.5093933"><ele>149.0</ele><time>2026-04-25T10:21:40.108Z</time></trkpt><trkpt lat="41.0339367" lon="14.5091033"><ele>148.0</ele><time>2026-04-25T10:21:41.108Z</time></trkpt><trkpt lat="41.03392" lon="14.5087967"><ele>147.0</ele><time>2026-04-25T10:21:42.108Z</time></trkpt><trkpt lat="41.0339" lon="14.5084833"><ele>147.0</ele><time>2026-04-25T10:21:43.109Z</time></trkpt><trkpt lat="41.0338833" lon="14.5081717"><ele>147.0</ele><time>2026-04-25T10:21:44.108Z</time></trkpt><trkpt lat="41.0338667" lon="14.5078533"><ele>145.5</ele><time>2026-04-25T10:21:45.109Z</time></trkpt><trkpt lat="41.0338483" lon="14.5075317"><ele>144.0</ele><time>2026-04-25T10:21:46.108Z</time></trkpt><trkpt lat="41.0338283" lon="14.5072183"><ele>143.5</ele><time>2026-04-25T10:21:47.108Z</time></trkpt><trkpt lat="41.0338067" lon="14.506915"><ele>143.0</ele><time>2026-04-25T10:21:48.108Z</time></trkpt><trkpt lat="41.03379" lon="14.50662"><ele>143.0</ele><time>2026-04-25T10:21:49.108Z</time></trkpt><trkpt lat="41.0337733" lon="14.50633"><ele>143.0</ele><time>2026-04-25T10:21:50.108Z</time></trkpt><trkpt lat="41.0337617" lon="14.506045"><ele>143.0</ele><time>2026-04-25T10:21:51.108Z</time></trkpt><trkpt lat="41.03375" lon="14.5057617"><ele>143.0</ele><time>2026-04-25T10:21:52.108Z</time></trkpt><trkpt lat="41.0337383" lon="14.505485"><ele>143.0</ele><time>2026-04-25T10:21:53.109Z</time></trkpt><trkpt lat="41.0337283" lon="14.5052083"><ele>143.0</ele><time>2026-04-25T10:21:54.108Z</time></trkpt><trkpt lat="41.03372" lon="14.5049467"><ele>142.33333333333331</ele><time>2026-04-25T10:21:55.108Z</time></trkpt><trkpt lat="41.0337117" lon="14.50469"><ele>141.66666666666666</ele><time>2026-04-25T10:21:56.108Z</time></trkpt><trkpt lat="41.0337" lon="14.5044283"><ele>141.0</ele><time>2026-04-25T10:21:57.108Z</time></trkpt><trkpt lat="41.0336867" lon="14.5041633"><ele>140.0</ele><time>2026-04-25T10:21:58.108Z</time></trkpt><trkpt lat="41.0336717" lon="14.5039"><ele>139.0</ele><time>2026-04-25T10:21:59.108Z</time></trkpt><trkpt lat="41.0336617" lon="14.5036367"><ele>138.0</ele><time>2026-04-25T10:22:00.108Z</time></trkpt><trkpt lat="41.0336517" lon="14.5033717"><ele>137.33333333333334</ele><time>2026-04-25T10:22:01.108Z</time></trkpt><trkpt lat="41.0336383" lon="14.5031"><ele>136.66666666666669</ele><time>2026-04-25T10:22:02.108Z</time></trkpt><trkpt lat="41.03363" lon="14.5028233"><ele>136.0</ele><time>2026-04-25T10:22:03.108Z</time></trkpt><trkpt lat="41.03362" lon="14.5025483"><ele>135.33333333333334</ele><time>2026-04-25T10:22:04.109Z</time></trkpt><trkpt lat="41.0336117" lon="14.50228"><ele>134.66666666666666</ele><time>2026-04-25T10:22:05.108Z</time></trkpt><trkpt lat="41.0336" lon="14.5020017"><ele>134.0</ele><time>2026-04-25T10:22:06.108Z</time></trkpt><trkpt lat="41.033585" lon="14.501725"><ele>133.33333333333331</ele><time>2026-04-25T10:22:07.108Z</time></trkpt><trkpt lat="41.0335717" lon="14.5014367"><ele>132.66666666666666</ele><time>2026-04-25T10:22:08.108Z</time></trkpt><trkpt lat="41.0335583" lon="14.50115"><ele>132.0</ele><time>2026-04-25T10:22:09.108Z</time></trkpt><trkpt lat="41.0335433" lon="14.5008633"><ele>131.33333333333334</ele><time>2026-04-25T10:22:10.108Z</time></trkpt><trkpt lat="41.0335317" lon="14.5005783"><ele>130.66666666666669</ele><time>2026-04-25T10:22:11.108Z</time></trkpt><trkpt lat="41.0335083" lon="14.5002933"><ele>130.0</ele><time>2026-04-25T10:22:12.108Z</time></trkpt><trkpt lat="41.0334767" lon="14.5000083"><ele>129.33333333333334</ele><time>2026-04-25T10:22:13.108Z</time></trkpt><trkpt lat="41.0334333" lon="14.499725"><ele>128.66666666666666</ele><time>2026-04-25T10:22:14.108Z</time></trkpt><trkpt lat="41.0333783" lon="14.4994367"><ele>128.0</ele><time>2026-04-25T10:22:15.108Z</time></trkpt><trkpt lat="41.0333167" lon="14.499155"><ele>127.0</ele><time>2026-04-25T10:22:16.108Z</time></trkpt><trkpt lat="41.0332433" lon="14.4988867"><ele>126.0</ele><time>2026-04-25T10:22:17.108Z</time></trkpt><trkpt lat="41.0331633" lon="14.4986217"><ele>125.0</ele><time>2026-04-25T10:22:18.108Z</time></trkpt><trkpt lat="41.0330617" lon="14.4983567"><ele>125.0</ele><time>2026-04-25T10:22:19.109Z</time></trkpt><trkpt lat="41.0329533" lon="14.49809"><ele>125.0</ele><time>2026-04-25T10:22:20.108Z</time></trkpt><trkpt lat="41.032835" lon="14.497825"><ele>124.5</ele><time>2026-04-25T10:22:21.108Z</time></trkpt><trkpt lat="41.0327117" lon="14.49756"><ele>124.0</ele><time>2026-04-25T10:22:22.108Z</time></trkpt><trkpt lat="41.0325867" lon="14.49729"><ele>122.5</ele><time>2026-04-25T10:22:23.108Z</time></trkpt><trkpt lat="41.032465" lon="14.4970033"><ele>121.0</ele><time>2026-04-25T10:22:24.108Z</time></trkpt><trkpt lat="41.032335" lon="14.496725"><ele>121.0</ele><time>2026-04-25T10:22:25.108Z</time></trkpt><trkpt lat="41.0322133" lon="14.49644"><ele>121.0</ele><time>2026-04-25T10:22:26.108Z</time></trkpt><trkpt lat="41.032085" lon="14.496145"><ele>120.0</ele><time>2026-04-25T10:22:27.108Z</time></trkpt><trkpt lat="41.0319617" lon="14.4958583"><ele>119.0</ele><time>2026-04-25T10:22:28.108Z</time></trkpt><trkpt lat="41.0318367" lon="14.49557"><ele>119.0</ele><time>2026-04-25T10:22:29.108Z</time></trkpt><trkpt lat="41.03172" lon="14.4952967"><ele>119.0</ele><time>2026-04-25T10:22:30.108Z</time></trkpt><trkpt lat="41.0316083" lon="14.49504"><ele>118.66666666666666</ele><time>2026-04-25T10:22:31.108Z</time></trkpt><trkpt lat="41.0315117" lon="14.4947933"><ele>118.33333333333334</ele><time>2026-04-25T10:22:32.108Z</time></trkpt><trkpt lat="41.0314167" lon="14.494575"><ele>118.0</ele><time>2026-04-25T10:22:33.108Z</time></trkpt><trkpt lat="41.0313267" lon="14.49436"><ele>117.0</ele><time>2026-04-25T10:22:34.108Z</time></trkpt><trkpt lat="41.0312417" lon="14.4941567"><ele>116.0</ele><time>2026-04-25T10:22:35.108Z</time></trkpt><trkpt lat="41.0311617" lon="14.4939633"><ele>115.0</ele><time>2026-04-25T10:22:36.108Z</time></trkpt><trkpt lat="41.031085" lon="14.4937867"><ele>115.25</ele><time>2026-04-25T10:22:37.108Z</time></trkpt><trkpt lat="41.0310117" lon="14.4936183"><ele>115.5</ele><time>2026-04-25T10:22:38.108Z</time></trkpt><trkpt lat="41.0309483" lon="14.493455"><ele>115.75</ele><time>2026-04-25T10:22:39.108Z</time></trkpt><trkpt lat="41.0308883" lon="14.4933217"><ele>116.0</ele><time>2026-04-25T10:22:40.108Z</time></trkpt><trkpt lat="41.030835" lon="14.4931967"><ele>115.4</ele><time>2026-04-25T10:22:41.108Z</time></trkpt><trkpt lat="41.030785" lon="14.4930683"><ele>114.8</ele><time>2026-04-25T10:22:42.108Z</time></trkpt><trkpt lat="41.0307367" lon="14.4929417"><ele>114.20000000000002</ele><time>2026-04-25T10:22:43.108Z</time></trkpt><trkpt lat="41.030685" lon="14.4928167"><ele>113.60000000000001</ele><time>2026-04-25T10:22:44.108Z</time></trkpt><trkpt lat="41.03063" lon="14.4926783"><ele>113.0</ele><time>2026-04-25T10:22:45.108Z</time></trkpt><trkpt lat="41.030575" lon="14.4925267"><ele>113.0</ele><time>2026-04-25T10:22:46.108Z</time></trkpt><trkpt lat="41.0305317" lon="14.4923567"><ele>113.0</ele><time>2026-04-25T10:22:47.108Z</time></trkpt><trkpt lat="41.030485" lon="14.4921817"><ele>113.0</ele><time>2026-04-25T10:22:48.108Z</time></trkpt><trkpt lat="41.0304467" lon="14.4919933"><ele>113.0</ele><time>2026-04-25T10:22:49.108Z</time></trkpt><trkpt lat="41.030415" lon="14.4917917"><ele>113.0</ele><time>2026-04-25T10:22:50.108Z</time></trkpt><trkpt lat="41.030385" lon="14.49158"><ele>113.0</ele><time>2026-04-25T10:22:51.108Z</time></trkpt><trkpt lat="41.0303533" lon="14.491375"><ele>113.0</ele><time>2026-04-25T10:22:52.108Z</time></trkpt><trkpt lat="41.0303167" lon="14.49117"><ele>112.66666666666666</ele><time>2026-04-25T10:22:53.108Z</time></trkpt><trkpt lat="41.0302833" lon="14.4909583"><ele>112.33333333333334</ele><time>2026-04-25T10:22:54.108Z</time></trkpt><trkpt lat="41.03025" lon="14.4907433"><ele>112.0</ele><time>2026-04-25T10:22:55.108Z</time></trkpt><trkpt lat="41.03022" lon="14.490525"><ele>111.33333333333334</ele><time>2026-04-25T10:22:56.108Z</time></trkpt><trkpt lat="41.0301833" lon="14.4903"><ele>110.66666666666666</ele><time>2026-04-25T10:22:57.109Z</time></trkpt><trkpt lat="41.0301483" lon="14.49008"><ele>110.0</ele><time>2026-04-25T10:22:58.108Z</time></trkpt><trkpt lat="41.0301117" lon="14.4898583"><ele>110.0</ele><time>2026-04-25T10:22:59.108Z</time></trkpt><trkpt lat="41.0300817" lon="14.4896367"><ele>110.0</ele><time>2026-04-25T10:23:00.108Z</time></trkpt><trkpt lat="41.03005" lon="14.4894117"><ele>110.0</ele><time>2026-04-25T10:23:01.108Z</time></trkpt><trkpt lat="41.0300117" lon="14.4891817"><ele>108.66666666666666</ele><time>2026-04-25T10:23:02.108Z</time></trkpt><trkpt lat="41.0299683" lon="14.4889483"><ele>107.33333333333334</ele><time>2026-04-25T10:23:03.108Z</time></trkpt><trkpt lat="41.029935" lon="14.4887117"><ele>106.0</ele><time>2026-04-25T10:23:04.108Z</time></trkpt><trkpt lat="41.0298933" lon="14.4884767"><ele>106.0</ele><time>2026-04-25T10:23:05.108Z</time></trkpt><trkpt lat="41.02985" lon="14.4882433"><ele>106.0</ele><time>2026-04-25T10:23:06.108Z</time></trkpt><trkpt lat="41.0298167" lon="14.4879967"><ele>106.0</ele><time>2026-04-25T10:23:07.108Z</time></trkpt><trkpt lat="41.0297867" lon="14.487745"><ele>105.66666666666667</ele><time>2026-04-25T10:23:08.108Z</time></trkpt><trkpt lat="41.0297633" lon="14.4875017"><ele>105.33333333333334</ele><time>2026-04-25T10:23:09.108Z</time></trkpt><trkpt lat="41.0297383" lon="14.4872817"><ele>105.0</ele><time>2026-04-25T10:23:10.108Z</time></trkpt><trkpt lat="41.02972" lon="14.487075"><ele>104.5</ele><time>2026-04-25T10:23:11.109Z</time></trkpt><trkpt lat="41.029705" lon="14.4868767"><ele>104.0</ele><time>2026-04-25T10:23:12.108Z</time></trkpt><trkpt lat="41.0296933" lon="14.4866983"><ele>103.5</ele><time>2026-04-25T10:23:13.108Z</time></trkpt><trkpt lat="41.029685" lon="14.4865483"><ele>103.0</ele><time>2026-04-25T10:23:14.108Z</time></trkpt><trkpt lat="41.0296767" lon="14.4864133"><ele>103.00000000000001</ele><time>2026-04-25T10:23:15.108Z</time></trkpt><trkpt lat="41.0296733" lon="14.4862983"><ele>103.0</ele><time>2026-04-25T10:23:16.109Z</time></trkpt><trkpt lat="41.0296717" lon="14.4861983"><ele>103.0</ele><time>2026-04-25T10:23:17.108Z</time></trkpt><trkpt lat="41.029675" lon="14.486105"><ele>103.0</ele><time>2026-04-25T10:23:18.108Z</time></trkpt><trkpt lat="41.02968" lon="14.4860183"><ele>103.00000000000001</ele><time>2026-04-25T10:23:19.108Z</time></trkpt><trkpt lat="41.029645" lon="14.485865"><ele>103.0</ele><time>2026-04-25T10:23:21.108Z</time></trkpt><trkpt lat="41.0296117" lon="14.48578"><ele>103.0</ele><time>2026-04-25T10:23:22.108Z</time></trkpt><trkpt lat="41.0295783" lon="14.4856783"><ele>103.0</ele><time>2026-04-25T10:23:23.108Z</time></trkpt><trkpt lat="41.02955" lon="14.48556"><ele>103.0</ele><time>2026-04-25T10:23:24.108Z</time></trkpt><trkpt lat="41.0295217" lon="14.4854283"><ele>103.0</ele><time>2026-04-25T10:23:25.108Z</time></trkpt><trkpt lat="41.0294917" lon="14.4852883"><ele>103.0</ele><time>2026-04-25T10:23:26.109Z</time></trkpt><trkpt lat="41.0294567" lon="14.4851333"><ele>103.0</ele><time>2026-04-25T10:23:27.108Z</time></trkpt><trkpt lat="41.029415" lon="14.4849783"><ele>103.0</ele><time>2026-04-25T10:23:28.108Z</time></trkpt><trkpt lat="41.0293633" lon="14.484815"><ele>103.0</ele><time>2026-04-25T10:23:29.108Z</time></trkpt><trkpt lat="41.0293067" lon="14.4846483"><ele>103.0</ele><time>2026-04-25T10:23:30.108Z</time></trkpt><trkpt lat="41.0292383" lon="14.4844817"><ele>103.0</ele><time>2026-04-25T10:23:31.108Z</time></trkpt><trkpt lat="41.0291667" lon="14.4843133"><ele>103.0</ele><time>2026-04-25T10:23:32.108Z</time></trkpt><trkpt lat="41.029085" lon="14.4841367"><ele>103.0</ele><time>2026-04-25T10:23:33.108Z</time></trkpt><trkpt lat="41.0289983" lon="14.4839517"><ele>102.0</ele><time>2026-04-25T10:23:34.108Z</time></trkpt><trkpt lat="41.02891" lon="14.4837667"><ele>101.0</ele><time>2026-04-25T10:23:35.108Z</time></trkpt><trkpt lat="41.028825" lon="14.4835817"><ele>100.0</ele><time>2026-04-25T10:23:36.108Z</time></trkpt><trkpt lat="41.0287467" lon="14.4834017"><ele>100.0</ele><time>2026-04-25T10:23:37.108Z</time></trkpt><trkpt lat="41.028665" lon="14.48323"><ele>100.0</ele><time>2026-04-25T10:23:38.108Z</time></trkpt><trkpt lat="41.0285817" lon="14.48306"><ele>100.0</ele><time>2026-04-25T10:23:39.109Z</time></trkpt><trkpt lat="41.0284933" lon="14.4828967"><ele>99.33333333333334</ele><time>2026-04-25T10:23:40.108Z</time></trkpt><trkpt lat="41.02841" lon="14.482725"><ele>98.66666666666666</ele><time>2026-04-25T10:23:41.108Z</time></trkpt><trkpt lat="41.0283267" lon="14.482565"><ele>98.0</ele><time>2026-04-25T10:23:42.108Z</time></trkpt><trkpt lat="41.028245" lon="14.4824"><ele>97.5</ele><time>2026-04-25T10:23:43.108Z</time></trkpt><trkpt lat="41.0281617" lon="14.4822333"><ele>97.0</ele><time>2026-04-25T10:23:44.108Z</time></trkpt><trkpt lat="41.02808" lon="14.4820617"><ele>96.5</ele><time>2026-04-25T10:23:45.108Z</time></trkpt><trkpt lat="41.0280017" lon="14.4819083"><ele>96.0</ele><time>2026-04-25T10:23:46.108Z</time></trkpt><trkpt lat="41.0279233" lon="14.4817533"><ele>95.5</ele><time>2026-04-25T10:23:47.108Z</time></trkpt><trkpt lat="41.0278417" lon="14.4815933"><ele>95.0</ele><time>2026-04-25T10:23:48.109Z</time></trkpt><trkpt lat="41.027765" lon="14.4814333"><ele>94.5</ele><time>2026-04-25T10:23:49.108Z</time></trkpt><trkpt lat="41.0276883" lon="14.48128"><ele>94.0</ele><time>2026-04-25T10:23:50.108Z</time></trkpt><trkpt lat="41.02762" lon="14.4811433"><ele>93.83333333333333</ele><time>2026-04-25T10:23:51.108Z</time></trkpt><trkpt lat="41.0275667" lon="14.481025"><ele>93.66666666666666</ele><time>2026-04-25T10:23:52.108Z</time></trkpt><trkpt lat="41.02752" lon="14.4809317"><ele>93.5</ele><time>2026-04-25T10:23:53.108Z</time></trkpt><trkpt lat="41.0274567" lon="14.48082"><ele>93.33333333333333</ele><time>2026-04-25T10:23:55.109Z</time></trkpt><trkpt lat="41.027415" lon="14.4807517"><ele>93.16666666666667</ele><time>2026-04-25T10:23:57.108Z</time></trkpt><trkpt lat="41.027385" lon="14.4806783"><ele>93.0</ele><time>2026-04-25T10:24:35.108Z</time></trkpt><trkpt lat="41.0273217" lon="14.480535"><ele>92.4</ele><time>2026-04-25T10:24:37.108Z</time></trkpt><trkpt lat="41.0272767" lon="14.480445"><ele>91.80000000000001</ele><time>2026-04-25T10:24:38.108Z</time></trkpt><trkpt lat="41.027225" lon="14.4803567"><ele>91.2</ele><time>2026-04-25T10:24:39.108Z</time></trkpt><trkpt lat="41.027175" lon="14.4802583"><ele>90.6</ele><time>2026-04-25T10:24:40.108Z</time></trkpt><trkpt lat="41.0271183" lon="14.4801467"><ele>90.0</ele><time>2026-04-25T10:24:41.108Z</time></trkpt><trkpt lat="41.0270583" lon="14.4800217"><ele>90.0</ele><time>2026-04-25T10:24:42.108Z</time></trkpt><trkpt lat="41.0269967" lon="14.479885"><ele>90.0</ele><time>2026-04-25T10:24:43.108Z</time></trkpt><trkpt lat="41.026915" lon="14.4797467"><ele>90.0</ele><time>2026-04-25T10:24:44.108Z</time></trkpt><trkpt lat="41.0268383" lon="14.4795983"><ele>90.0</ele><time>2026-04-25T10:24:45.108Z</time></trkpt><trkpt lat="41.0267617" lon="14.4794233"><ele>90.0</ele><time>2026-04-25T10:24:46.109Z</time></trkpt><trkpt lat="41.02668" lon="14.4792333"><ele>90.0</ele><time>2026-04-25T10:24:47.108Z</time></trkpt><trkpt lat="41.0265867" lon="14.479035"><ele>90.0</ele><time>2026-04-25T10:24:48.108Z</time></trkpt><trkpt lat="41.02651" lon="14.4788483"><ele>87.66666666666667</ele><time>2026-04-25T10:24:49.109Z</time></trkpt><trkpt lat="41.0264383" lon="14.478665"><ele>85.33333333333334</ele><time>2026-04-25T10:24:50.108Z</time></trkpt><trkpt lat="41.0263817" lon="14.4784783"><ele>83.0</ele><time>2026-04-25T10:24:51.108Z</time></trkpt><trkpt lat="41.0263417" lon="14.4782967"><ele>83.0</ele><time>2026-04-25T10:24:52.109Z</time></trkpt><trkpt lat="41.0263117" lon="14.4781383"><ele>83.0</ele><time>2026-04-25T10:24:53.109Z</time></trkpt><trkpt lat="41.0262983" lon="14.4779917"><ele>83.0</ele><time>2026-04-25T10:24:54.108Z</time></trkpt><trkpt lat="41.026285" lon="14.4778467"><ele>83.0</ele><time>2026-04-25T10:24:55.108Z</time></trkpt><trkpt lat="41.0262783" lon="14.477705"><ele>83.16666666666667</ele><time>2026-04-25T10:24:56.108Z</time></trkpt><trkpt lat="41.0262717" lon="14.4775683"><ele>83.33333333333334</ele><time>2026-04-25T10:24:57.108Z</time></trkpt><trkpt lat="41.026265" lon="14.4774433"><ele>83.5</ele><time>2026-04-25T10:24:58.108Z</time></trkpt><trkpt lat="41.0262583" lon="14.4773317"><ele>83.66666666666667</ele><time>2026-04-25T10:24:59.108Z</time></trkpt><trkpt lat="41.0262533" lon="14.47722"><ele>83.83333333333333</ele><time>2026-04-25T10:25:00.108Z</time></trkpt><trkpt lat="41.0262483" lon="14.4771167"><ele>84.0</ele><time>2026-04-25T10:25:01.108Z</time></trkpt><trkpt lat="41.0262383" lon="14.4770167"><ele>84.2</ele><time>2026-04-25T10:25:02.108Z</time></trkpt><trkpt lat="41.0262333" lon="14.4769133"><ele>84.4</ele><time>2026-04-25T10:25:03.108Z</time></trkpt><trkpt lat="41.0262317" lon="14.476795"><ele>84.6</ele><time>2026-04-25T10:25:04.108Z</time></trkpt><trkpt lat="41.0262317" lon="14.476665"><ele>84.8</ele><time>2026-04-25T10:25:05.108Z</time></trkpt><trkpt lat="41.02623" lon="14.4765167"><ele>85.0</ele><time>2026-04-25T10:25:06.108Z</time></trkpt><trkpt lat="41.0262283" lon="14.47635"><ele>85.0</ele><time>2026-04-25T10:25:07.108Z</time></trkpt><trkpt lat="41.0262167" lon="14.47618"><ele>85.0</ele><time>2026-04-25T10:25:08.108Z</time></trkpt><trkpt lat="41.0262183" lon="14.47599"><ele>85.0</ele><time>2026-04-25T10:25:09.108Z</time></trkpt><trkpt lat="41.02621" lon="14.475805"><ele>85.0</ele><time>2026-04-25T10:25:10.108Z</time></trkpt><trkpt lat="41.0262033" lon="14.475605"><ele>84.75</ele><time>2026-04-25T10:25:11.108Z</time></trkpt><trkpt lat="41.0261983" lon="14.4754133"><ele>84.5</ele><time>2026-04-25T10:25:12.108Z</time></trkpt><trkpt lat="41.0261917" lon="14.47522"><ele>84.25</ele><time>2026-04-25T10:25:13.109Z</time></trkpt><trkpt lat="41.026185" lon="14.47502"><ele>84.0</ele><time>2026-04-25T10:25:14.108Z</time></trkpt><trkpt lat="41.026165" lon="14.47483"><ele>84.0</ele><time>2026-04-25T10:25:15.108Z</time></trkpt><trkpt lat="41.0261317" lon="14.474645"><ele>84.0</ele><time>2026-04-25T10:25:16.108Z</time></trkpt><trkpt lat="41.0260817" lon="14.47445"><ele>84.0</ele><time>2026-04-25T10:25:17.108Z</time></trkpt><trkpt lat="41.026015" lon="14.4742417"><ele>84.0</ele><time>2026-04-25T10:25:18.108Z</time></trkpt><trkpt lat="41.0259517" lon="14.474035"><ele>84.0</ele><time>2026-04-25T10:25:19.108Z</time></trkpt><trkpt lat="41.025895" lon="14.473865"><ele>84.0</ele><time>2026-04-25T10:25:20.108Z</time></trkpt><trkpt lat="41.0258517" lon="14.4737567"><ele>84.0</ele><time>2026-04-25T10:25:21.108Z</time></trkpt><trkpt lat="41.0258083" lon="14.47364"><ele>83.25</ele><time>2026-04-25T10:25:23.108Z</time></trkpt><trkpt lat="41.0257817" lon="14.4735617"><ele>82.5</ele><time>2026-04-25T10:25:25.108Z</time></trkpt><trkpt lat="41.02572" lon="14.47339"><ele>81.75</ele><time>2026-04-25T10:25:27.108Z</time></trkpt><trkpt lat="41.025675" lon="14.4732467"><ele>81.0</ele><time>2026-04-25T10:25:28.108Z</time></trkpt><trkpt lat="41.0256283" lon="14.4730917"><ele>80.75</ele><time>2026-04-25T10:25:29.108Z</time></trkpt><trkpt lat="41.025575" lon="14.4729317"><ele>80.5</ele><time>2026-04-25T10:25:30.108Z</time></trkpt><trkpt lat="41.0255183" lon="14.4727583"><ele>80.25</ele><time>2026-04-25T10:25:31.108Z</time></trkpt><trkpt lat="41.0254717" lon="14.4725683"><ele>80.0</ele><time>2026-04-25T10:25:32.109Z</time></trkpt><trkpt lat="41.0254333" lon="14.472355"><ele>80.0</ele><time>2026-04-25T10:25:33.108Z</time></trkpt><trkpt lat="41.025405" lon="14.472125"><ele>80.0</ele><time>2026-04-25T10:25:34.108Z</time></trkpt><trkpt lat="41.0253883" lon="14.47189"><ele>80.0</ele><time>2026-04-25T10:25:35.108Z</time></trkpt><trkpt lat="41.0253833" lon="14.47165"><ele>79.66666666666667</ele><time>2026-04-25T10:25:36.108Z</time></trkpt><trkpt lat="41.0253833" lon="14.4714017"><ele>79.33333333333333</ele><time>2026-04-25T10:25:37.108Z</time></trkpt><trkpt lat="41.025385" lon="14.4711533"><ele>79.0</ele><time>2026-04-25T10:25:38.108Z</time></trkpt><trkpt lat="41.0253867" lon="14.470895"><ele>79.0</ele><time>2026-04-25T10:25:39.108Z</time></trkpt><trkpt lat="41.0253933" lon="14.4706333"><ele>79.0</ele><time>2026-04-25T10:25:40.108Z</time></trkpt><trkpt lat="41.0253983" lon="14.470375"><ele>79.0</ele><time>2026-04-25T10:25:41.109Z</time></trkpt><trkpt lat="41.0254033" lon="14.470135"><ele>78.66666666666666</ele><time>2026-04-25T10:25:42.108Z</time></trkpt><trkpt lat="41.0254083" lon="14.4699133"><ele>78.33333333333333</ele><time>2026-04-25T10:25:43.108Z</time></trkpt><trkpt lat="41.0254083" lon="14.4696867"><ele>78.0</ele><time>2026-04-25T10:25:44.108Z</time></trkpt><trkpt lat="41.025415" lon="14.4694383"><ele>78.0</ele><time>2026-04-25T10:25:45.108Z</time></trkpt><trkpt lat="41.02544" lon="14.469185"><ele>78.0</ele><time>2026-04-25T10:25:46.108Z</time></trkpt><trkpt lat="41.025475" lon="14.4689117"><ele>78.0</ele><time>2026-04-25T10:25:47.108Z</time></trkpt><trkpt lat="41.0255217" lon="14.46864"><ele>77.33333333333333</ele><time>2026-04-25T10:25:48.108Z</time></trkpt><trkpt lat="41.025565" lon="14.4683583"><ele>76.66666666666666</ele><time>2026-04-25T10:25:49.108Z</time></trkpt><trkpt lat="41.0256167" lon="14.46808"><ele>76.0</ele><time>2026-04-25T10:25:50.108Z</time></trkpt><trkpt lat="41.0256667" lon="14.4678117"><ele>75.0</ele><time>2026-04-25T10:25:51.108Z</time></trkpt><trkpt lat="41.0257133" lon="14.46756"><ele>74.0</ele><time>2026-04-25T10:25:52.108Z</time></trkpt><trkpt lat="41.0257567" lon="14.467315"><ele>73.0</ele><time>2026-04-25T10:25:53.108Z</time></trkpt><trkpt lat="41.0257967" lon="14.4670833"><ele>74.33333333333333</ele><time>2026-04-25T10:25:54.108Z</time></trkpt><trkpt lat="41.0258433" lon="14.4668617"><ele>75.66666666666667</ele><time>2026-04-25T10:25:55.108Z</time></trkpt><trkpt lat="41.025885" lon="14.4666567"><ele>77.0</ele><time>2026-04-25T10:25:56.108Z</time></trkpt><trkpt lat="41.02592" lon="14.4664633"><ele>77.0</ele><time>2026-04-25T10:25:57.108Z</time></trkpt><trkpt lat="41.0259517" lon="14.46628"><ele>77.0</ele><time>2026-04-25T10:25:58.108Z</time></trkpt><trkpt lat="41.0259783" lon="14.4661017"><ele>77.0</ele><time>2026-04-25T10:25:59.108Z</time></trkpt><trkpt lat="41.0259983" lon="14.4659317"><ele>77.0</ele><time>2026-04-25T10:26:00.108Z</time></trkpt><trkpt lat="41.026015" lon="14.465765"><ele>76.6</ele><time>2026-04-25T10:26:01.108Z</time></trkpt><trkpt lat="41.026025" lon="14.4656067"><ele>76.2</ele><time>2026-04-25T10:26:02.108Z</time></trkpt><trkpt lat="41.0260283" lon="14.4654517"><ele>75.8</ele><time>2026-04-25T10:26:03.108Z</time></trkpt><trkpt lat="41.02603" lon="14.4653133"><ele>75.4</ele><time>2026-04-25T10:26:04.108Z</time></trkpt><trkpt lat="41.026025" lon="14.465195"><ele>75.0</ele><time>2026-04-25T10:26:05.108Z</time></trkpt><trkpt lat="41.0260217" lon="14.465095"><ele>75.0</ele><time>2026-04-25T10:26:06.108Z</time></trkpt><trkpt lat="41.0260217" lon="14.465005"><ele>75.0</ele><time>2026-04-25T10:26:07.108Z</time></trkpt><trkpt lat="41.0260167" lon="14.4649133"><ele>75.0</ele><time>2026-04-25T10:26:08.108Z</time></trkpt><trkpt lat="41.026015" lon="14.4647983"><ele>75.0</ele><time>2026-04-25T10:26:09.108Z</time></trkpt><trkpt lat="41.026015" lon="14.4646667"><ele>75.0</ele><time>2026-04-25T10:26:10.108Z</time></trkpt><trkpt lat="41.0260183" lon="14.4645317"><ele>75.0</ele><time>2026-04-25T10:26:11.108Z</time></trkpt><trkpt lat="41.0260183" lon="14.46439"><ele>75.0</ele><time>2026-04-25T10:26:12.108Z</time></trkpt><trkpt lat="41.0260117" lon="14.4642667"><ele>75.0</ele><time>2026-04-25T10:26:13.108Z</time></trkpt><trkpt lat="41.0260117" lon="14.464165"><ele>75.0</ele><time>2026-04-25T10:26:14.108Z</time></trkpt><trkpt lat="41.0260067" lon="14.4640133"><ele>75.0</ele><time>2026-04-25T10:26:16.108Z</time></trkpt><trkpt lat="41.0260033" lon="14.4638917"><ele>75.0</ele><time>2026-04-25T10:26:18.108Z</time></trkpt><trkpt lat="41.0260017" lon="14.4637617"><ele>74.99999999999999</ele><time>2026-04-25T10:26:20.108Z</time></trkpt><trkpt lat="41.0260017" lon="14.4636517"><ele>75.0</ele><time>2026-04-25T10:26:22.108Z</time></trkpt><trkpt lat="41.026" lon="14.4635633"><ele>75.0</ele><time>2026-04-25T10:26:24.108Z</time></trkpt><trkpt lat="41.026" lon="14.4634783"><ele>75.0</ele><time>2026-04-25T10:26:26.108Z</time></trkpt><trkpt lat="41.026" lon="14.463385"><ele>75.0</ele><time>2026-04-25T10:26:28.108Z</time></trkpt><trkpt lat="41.0259967" lon="14.4632983"><ele>74.99999999999999</ele><time>2026-04-25T10:26:30.108Z</time></trkpt><trkpt lat="41.02599" lon="14.4632"><ele>75.0</ele><time>2026-04-25T10:26:32.109Z</time></trkpt><trkpt lat="41.02599" lon="14.463085"><ele>75.0</ele><time>2026-04-25T10:26:34.108Z</time></trkpt><trkpt lat="41.0259917" lon="14.4629683"><ele>75.0</ele><time>2026-04-25T10:26:36.108Z</time></trkpt><trkpt lat="41.025985" lon="14.4628767"><ele>75.0</ele><time>2026-04-25T10:26:38.108Z</time></trkpt><trkpt lat="41.025975" lon="14.46276"><ele>75.0</ele><time>2026-04-25T10:26:40.108Z</time></trkpt><trkpt lat="41.02598" lon="14.4626517"><ele>75.0</ele><time>2026-04-25T10:26:42.108Z</time></trkpt><trkpt lat="41.0259783" lon="14.462535"><ele>75.0</ele><time>2026-04-25T10:26:44.108Z</time></trkpt><trkpt lat="41.02598" lon="14.4624383"><ele>74.83333333333333</ele><time>2026-04-25T10:26:46.108Z</time></trkpt><trkpt lat="41.025975" lon="14.4623317"><ele>74.66666666666667</ele><time>2026-04-25T10:26:48.108Z</time></trkpt><trkpt lat="41.02598" lon="14.4622083"><ele>74.5</ele><time>2026-04-25T10:26:50.108Z</time></trkpt><trkpt lat="41.02599" lon="14.4620717"><ele>74.33333333333334</ele><time>2026-04-25T10:26:52.108Z</time></trkpt><trkpt lat="41.0259883" lon="14.4619833"><ele>74.16666666666667</ele><time>2026-04-25T10:26:53.108Z</time></trkpt><trkpt lat="41.02598" lon="14.4618767"><ele>74.0</ele><time>2026-04-25T10:26:54.108Z</time></trkpt><trkpt lat="41.0259733" lon="14.4617567"><ele>73.8</ele><time>2026-04-25T10:26:55.108Z</time></trkpt><trkpt lat="41.0259717" lon="14.46163"><ele>73.60000000000001</ele><time>2026-04-25T10:26:56.108Z</time></trkpt><trkpt lat="41.0259683" lon="14.4614917"><ele>73.4</ele><time>2026-04-25T10:26:57.108Z</time></trkpt><trkpt lat="41.0259683" lon="14.4613483"><ele>73.2</ele><time>2026-04-25T10:26:58.109Z</time></trkpt><trkpt lat="41.025965" lon="14.461195"><ele>73.0</ele><time>2026-04-25T10:26:59.109Z</time></trkpt><trkpt lat="41.02596" lon="14.4610467"><ele>73.4</ele><time>2026-04-25T10:27:00.108Z</time></trkpt><trkpt lat="41.02595" lon="14.4608933"><ele>73.8</ele><time>2026-04-25T10:27:01.108Z</time></trkpt><trkpt lat="41.0259467" lon="14.4607483"><ele>74.2</ele><time>2026-04-25T10:27:02.108Z</time></trkpt><trkpt lat="41.0259467" lon="14.4606083"><ele>74.6</ele><time>2026-04-25T10:27:03.108Z</time></trkpt><trkpt lat="41.0259467" lon="14.4604717"><ele>75.0</ele><time>2026-04-25T10:27:04.108Z</time></trkpt><trkpt lat="41.025945" lon="14.4603517"><ele>75.28571428571428</ele><time>2026-04-25T10:27:05.108Z</time></trkpt><trkpt lat="41.025945" lon="14.4602383"><ele>75.57142857142857</ele><time>2026-04-25T10:27:06.108Z</time></trkpt><trkpt lat="41.0259467" lon="14.4601383"><ele>75.85714285714286</ele><time>2026-04-25T10:27:07.108Z</time></trkpt><trkpt lat="41.025945" lon="14.46005"><ele>76.14285714285714</ele><time>2026-04-25T10:27:08.108Z</time></trkpt><trkpt lat="41.02596" lon="14.4599633"><ele>76.42857142857143</ele><time>2026-04-25T10:27:09.108Z</time></trkpt><trkpt lat="41.025955" lon="14.4598733"><ele>76.71428571428571</ele><time>2026-04-25T10:27:10.109Z</time></trkpt><trkpt lat="41.025955" lon="14.4597867"><ele>77.0</ele><time>2026-04-25T10:27:11.108Z</time></trkpt><trkpt lat="41.0259417" lon="14.4596617"><ele>77.0</ele><time>2026-04-25T10:27:13.108Z</time></trkpt><trkpt lat="41.0258383" lon="14.45963"><ele>77.0</ele><time>2026-04-25T10:27:16.108Z</time></trkpt><trkpt lat="41.0257633" lon="14.4596317"><ele>77.0</ele><time>2026-04-25T10:27:17.108Z</time></trkpt><trkpt lat="41.0256733" lon="14.45963"><ele>77.0</ele><time>2026-04-25T10:27:18.109Z</time></trkpt><trkpt lat="41.0255767" lon="14.45962"><ele>77.0</ele><time>2026-04-25T10:27:19.108Z</time></trkpt><trkpt lat="41.0254783" lon="14.45962"><ele>76.0</ele><time>2026-04-25T10:27:20.108Z</time></trkpt><trkpt lat="41.025375" lon="14.459605"><ele>75.0</ele><time>2026-04-25T10:27:21.108Z</time></trkpt><trkpt lat="41.0252767" lon="14.459605"><ele>74.0</ele><time>2026-04-25T10:27:22.108Z</time></trkpt><trkpt lat="41.02517" lon="14.4595883"><ele>73.0</ele><time>2026-04-25T10:27:23.108Z</time></trkpt><trkpt lat="41.0250667" lon="14.4595567"><ele>72.0</ele><time>2026-04-25T10:27:24.108Z</time></trkpt><trkpt lat="41.024965" lon="14.45953"><ele>72.0</ele><time>2026-04-25T10:27:25.108Z</time></trkpt><trkpt lat="41.0248667" lon="14.4595167"><ele>72.0</ele><time>2026-04-25T10:27:26.108Z</time></trkpt><trkpt lat="41.024775" lon="14.4595"><ele>72.0</ele><time>2026-04-25T10:27:27.108Z</time></trkpt><trkpt lat="41.0246767" lon="14.4594767"><ele>72.0</ele><time>2026-04-25T10:27:28.109Z</time></trkpt><trkpt lat="41.0245717" lon="14.4594567"><ele>72.0</ele><time>2026-04-25T10:27:29.108Z</time></trkpt><trkpt lat="41.0244617" lon="14.45943"><ele>72.0</ele><time>2026-04-25T10:27:30.108Z</time></trkpt><trkpt lat="41.024355" lon="14.4594083"><ele>72.0</ele><time>2026-04-25T10:27:31.108Z</time></trkpt><trkpt lat="41.0242433" lon="14.4593783"><ele>72.0</ele><time>2026-04-25T10:27:32.108Z</time></trkpt><trkpt lat="41.02413" lon="14.459345"><ele>72.0</ele><time>2026-04-25T10:27:33.109Z</time></trkpt><trkpt lat="41.0240183" lon="14.4593133"><ele>71.0</ele><time>2026-04-25T10:27:34.108Z</time></trkpt><trkpt lat="41.0239067" lon="14.459295"><ele>70.0</ele><time>2026-04-25T10:27:35.108Z</time></trkpt><trkpt lat="41.023795" lon="14.459265"><ele>69.0</ele><time>2026-04-25T10:27:36.108Z</time></trkpt><trkpt lat="41.0236833" lon="14.459225"><ele>68.0</ele><time>2026-04-25T10:27:37.108Z</time></trkpt><trkpt lat="41.0235717" lon="14.45918"><ele>68.0</ele><time>2026-04-25T10:27:38.108Z</time></trkpt><trkpt lat="41.0234733" lon="14.4591383"><ele>68.0</ele><time>2026-04-25T10:27:39.109Z</time></trkpt><trkpt lat="41.0233683" lon="14.4591017"><ele>68.0</ele><time>2026-04-25T10:27:40.108Z</time></trkpt><trkpt lat="41.0232633" lon="14.4590417"><ele>68.0</ele><time>2026-04-25T10:27:41.108Z</time></trkpt><trkpt lat="41.0231567" lon="14.4589783"><ele>68.0</ele><time>2026-04-25T10:27:42.109Z</time></trkpt><trkpt lat="41.0230567" lon="14.4589017"><ele>67.8</ele><time>2026-04-25T10:27:43.108Z</time></trkpt><trkpt lat="41.0229567" lon="14.458835"><ele>67.6</ele><time>2026-04-25T10:27:44.108Z</time></trkpt><trkpt lat="41.0228517" lon="14.458775"><ele>67.4</ele><time>2026-04-25T10:27:45.109Z</time></trkpt><trkpt lat="41.0227533" lon="14.4587117"><ele>67.2</ele><time>2026-04-25T10:27:46.108Z</time></trkpt><trkpt lat="41.022655" lon="14.4586617"><ele>67.0</ele><time>2026-04-25T10:27:47.108Z</time></trkpt><trkpt lat="41.022565" lon="14.4585933"><ele>67.0</ele><time>2026-04-25T10:27:48.108Z</time></trkpt><trkpt lat="41.0224817" lon="14.45853"><ele>67.0</ele><time>2026-04-25T10:27:49.108Z</time></trkpt><trkpt lat="41.02241" lon="14.4584717"><ele>67.0</ele><time>2026-04-25T10:27:50.108Z</time></trkpt><trkpt lat="41.0223467" lon="14.4584167"><ele>67.0</ele><time>2026-04-25T10:27:51.109Z</time></trkpt><trkpt lat="41.0222933" lon="14.4583617"><ele>67.0</ele><time>2026-04-25T10:27:52.108Z</time></trkpt><trkpt lat="41.0222417" lon="14.4583017"><ele>67.0</ele><time>2026-04-25T10:27:53.108Z</time></trkpt><trkpt lat="41.022175" lon="14.4582267"><ele>66.6</ele><time>2026-04-25T10:27:54.108Z</time></trkpt><trkpt lat="41.022095" lon="14.4581483"><ele>66.2</ele><time>2026-04-25T10:27:55.108Z</time></trkpt><trkpt lat="41.0220183" lon="14.458065"><ele>65.8</ele><time>2026-04-25T10:27:56.108Z</time></trkpt><trkpt lat="41.02193" lon="14.457985"><ele>65.4</ele><time>2026-04-25T10:27:57.108Z</time></trkpt><trkpt lat="41.02184" lon="14.4578967"><ele>65.0</ele><time>2026-04-25T10:27:58.109Z</time></trkpt><trkpt lat="41.0217433" lon="14.4578"><ele>64.5</ele><time>2026-04-25T10:27:59.108Z</time></trkpt><trkpt lat="41.0216467" lon="14.4577017"><ele>64.0</ele><time>2026-04-25T10:28:00.108Z</time></trkpt><trkpt lat="41.0215383" lon="14.457595"><ele>63.5</ele><time>2026-04-25T10:28:01.108Z</time></trkpt><trkpt lat="41.0214217" lon="14.4574933"><ele>63.0</ele><time>2026-04-25T10:28:02.108Z</time></trkpt><trkpt lat="41.0213067" lon="14.4573933"><ele>63.0</ele><time>2026-04-25T10:28:03.108Z</time></trkpt><trkpt lat="41.0211833" lon="14.45728"><ele>63.0</ele><time>2026-04-25T10:28:04.108Z</time></trkpt><trkpt lat="41.021055" lon="14.45715"><ele>63.0</ele><time>2026-04-25T10:28:05.108Z</time></trkpt><trkpt lat="41.0209283" lon="14.4570267"><ele>62.75</ele><time>2026-04-25T10:28:06.108Z</time></trkpt><trkpt lat="41.020805" lon="14.456925"><ele>62.5</ele><time>2026-04-25T10:28:07.108Z</time></trkpt><trkpt lat="41.020695" lon="14.4568333"><ele>62.25</ele><time>2026-04-25T10:28:08.108Z</time></trkpt><trkpt lat="41.020595" lon="14.4567383"><ele>62.0</ele><time>2026-04-25T10:28:09.108Z</time></trkpt><trkpt lat="41.0205017" lon="14.4566667"><ele>62.0</ele><time>2026-04-25T10:28:10.108Z</time></trkpt><trkpt lat="41.0204167" lon="14.456595"><ele>62.0</ele><time>2026-04-25T10:28:11.108Z</time></trkpt><trkpt lat="41.0203333" lon="14.456525"><ele>62.0</ele><time>2026-04-25T10:28:12.108Z</time></trkpt><trkpt lat="41.0202567" lon="14.4564217"><ele>62.0</ele><time>2026-04-25T10:28:13.108Z</time></trkpt><trkpt lat="41.0201733" lon="14.4562917"><ele>62.0</ele><time>2026-04-25T10:28:14.108Z</time></trkpt><trkpt lat="41.0200833" lon="14.4561467"><ele>61.66666666666667</ele><time>2026-04-25T10:28:15.108Z</time></trkpt><trkpt lat="41.0199833" lon="14.4560017"><ele>61.33333333333333</ele><time>2026-04-25T10:28:16.108Z</time></trkpt><trkpt lat="41.019875" lon="14.455845"><ele>61.0</ele><time>2026-04-25T10:28:17.108Z</time></trkpt><trkpt lat="41.019765" lon="14.4556767"><ele>61.0</ele><time>2026-04-25T10:28:18.108Z</time></trkpt><trkpt lat="41.0196517" lon="14.4555183"><ele>61.0</ele><time>2026-04-25T10:28:19.108Z</time></trkpt><trkpt lat="41.0195517" lon="14.455365"><ele>61.0</ele><time>2026-04-25T10:28:20.108Z</time></trkpt><trkpt lat="41.0194583" lon="14.4552183"><ele>61.0</ele><time>2026-04-25T10:28:21.108Z</time></trkpt><trkpt lat="41.0193633" lon="14.455075"><ele>61.0</ele><time>2026-04-25T10:28:22.108Z</time></trkpt><trkpt lat="41.0192767" lon="14.4549433"><ele>61.0</ele><time>2026-04-25T10:28:23.108Z</time></trkpt><trkpt lat="41.0191883" lon="14.4548217"><ele>61.0</ele><time>2026-04-25T10:28:24.108Z</time></trkpt><trkpt lat="41.019115" lon="14.4547017"><ele>60.599999999999994</ele><time>2026-04-25T10:28:25.108Z</time></trkpt><trkpt lat="41.019045" lon="14.454585"><ele>60.199999999999996</ele><time>2026-04-25T10:28:26.108Z</time></trkpt><trkpt lat="41.0189767" lon="14.45447"><ele>59.800000000000004</ele><time>2026-04-25T10:28:27.108Z</time></trkpt><trkpt lat="41.01891" lon="14.454365"><ele>59.400000000000006</ele><time>2026-04-25T10:28:28.108Z</time></trkpt><trkpt lat="41.01884" lon="14.45426"><ele>59.0</ele><time>2026-04-25T10:28:29.108Z</time></trkpt><trkpt lat="41.0187683" lon="14.4541567"><ele>59.0</ele><time>2026-04-25T10:28:30.108Z</time></trkpt><trkpt lat="41.018695" lon="14.4540483"><ele>59.0</ele><time>2026-04-25T10:28:31.108Z</time></trkpt><trkpt lat="41.0186167" lon="14.4539417"><ele>59.0</ele><time>2026-04-25T10:28:32.108Z</time></trkpt><trkpt lat="41.0185433" lon="14.4538317"><ele>59.0</ele><time>2026-04-25T10:28:33.108Z</time></trkpt><trkpt lat="41.018465" lon="14.4537133"><ele>59.0</ele><time>2026-04-25T10:28:34.108Z</time></trkpt><trkpt lat="41.018385" lon="14.4535883"><ele>59.0</ele><time>2026-04-25T10:28:35.108Z</time></trkpt><trkpt lat="41.0183083" lon="14.4534617"><ele>59.0</ele><time>2026-04-25T10:28:36.108Z</time></trkpt><trkpt lat="41.018225" lon="14.4533367"><ele>59.0</ele><time>2026-04-25T10:28:37.108Z</time></trkpt><trkpt lat="41.01814" lon="14.4532117"><ele>59.0</ele><time>2026-04-25T10:28:38.108Z</time></trkpt><trkpt lat="41.018055" lon="14.4530817"><ele>59.0</ele><time>2026-04-25T10:28:39.108Z</time></trkpt><trkpt lat="41.0179733" lon="14.4529367"><ele>59.0</ele><time>2026-04-25T10:28:40.108Z</time></trkpt><trkpt lat="41.017885" lon="14.452805"><ele>59.0</ele><time>2026-04-25T10:28:41.108Z</time></trkpt><trkpt lat="41.0178017" lon="14.4526817"><ele>59.0</ele><time>2026-04-25T10:28:42.108Z</time></trkpt><trkpt lat="41.0177133" lon="14.452555"><ele>59.0</ele><time>2026-04-25T10:28:43.108Z</time></trkpt><trkpt lat="41.0176317" lon="14.45243"><ele>59.0</ele><time>2026-04-25T10:28:44.108Z</time></trkpt><trkpt lat="41.0175433" lon="14.452305"><ele>59.0</ele><time>2026-04-25T10:28:45.108Z</time></trkpt><trkpt lat="41.0174567" lon="14.45218"><ele>59.0</ele><time>2026-04-25T10:28:46.108Z</time></trkpt><trkpt lat="41.0173733" lon="14.452045"><ele>59.0</ele><time>2026-04-25T10:28:47.108Z</time></trkpt><trkpt lat="41.0172817" lon="14.451915"><ele>59.0</ele><time>2026-04-25T10:28:48.108Z</time></trkpt><trkpt lat="41.0171933" lon="14.451785"><ele>59.0</ele><time>2026-04-25T10:28:49.108Z</time></trkpt><trkpt lat="41.0171083" lon="14.4516533"><ele>59.0</ele><time>2026-04-25T10:28:50.108Z</time></trkpt><trkpt lat="41.0170317" lon="14.451535"><ele>59.0</ele><time>2026-04-25T10:28:51.108Z</time></trkpt><trkpt lat="41.01696" lon="14.451425"><ele>59.0</ele><time>2026-04-25T10:28:52.108Z</time></trkpt><trkpt lat="41.0168833" lon="14.45131"><ele>59.0</ele><time>2026-04-25T10:28:53.108Z</time></trkpt><trkpt lat="41.0168083" lon="14.451185"><ele>59.0</ele><time>2026-04-25T10:28:54.109Z</time></trkpt><trkpt lat="41.01673" lon="14.45106"><ele>59.0</ele><time>2026-04-25T10:28:55.108Z</time></trkpt><trkpt lat="41.01664" lon="14.4509267"><ele>59.0</ele><time>2026-04-25T10:28:56.108Z</time></trkpt><trkpt lat="41.01655" lon="14.450795"><ele>59.0</ele><time>2026-04-25T10:28:57.108Z</time></trkpt><trkpt lat="41.016465" lon="14.4506533"><ele>58.75</ele><time>2026-04-25T10:28:58.108Z</time></trkpt><trkpt lat="41.0163633" lon="14.4505167"><ele>58.5</ele><time>2026-04-25T10:28:59.108Z</time></trkpt><trkpt lat="41.0162683" lon="14.450375"><ele>58.25</ele><time>2026-04-25T10:29:00.108Z</time></trkpt><trkpt lat="41.01618" lon="14.4502383"><ele>58.0</ele><time>2026-04-25T10:29:01.109Z</time></trkpt><trkpt lat="41.01609" lon="14.4501117"><ele>58.0</ele><time>2026-04-25T10:29:02.108Z</time></trkpt><trkpt lat="41.0159933" lon="14.4499667"><ele>58.0</ele><time>2026-04-25T10:29:03.108Z</time></trkpt><trkpt lat="41.0159033" lon="14.4498367"><ele>58.0</ele><time>2026-04-25T10:29:04.109Z</time></trkpt><trkpt lat="41.01583" lon="14.4497133"><ele>58.0</ele><time>2026-04-25T10:29:05.108Z</time></trkpt><trkpt lat="41.0157483" lon="14.4495883"><ele>58.0</ele><time>2026-04-25T10:29:06.108Z</time></trkpt><trkpt lat="41.0156683" lon="14.449465"><ele>58.0</ele><time>2026-04-25T10:29:07.108Z</time></trkpt><trkpt lat="41.0155883" lon="14.4493533"><ele>58.0</ele><time>2026-04-25T10:29:08.108Z</time></trkpt><trkpt lat="41.015525" lon="14.4492517"><ele>58.0</ele><time>2026-04-25T10:29:09.108Z</time></trkpt><trkpt lat="41.0154667" lon="14.4491517"><ele>58.0</ele><time>2026-04-25T10:29:10.109Z</time></trkpt><trkpt lat="41.0154017" lon="14.4490483"><ele>58.0</ele><time>2026-04-25T10:29:11.108Z</time></trkpt><trkpt lat="41.0153283" lon="14.44893"><ele>58.0</ele><time>2026-04-25T10:29:12.108Z</time></trkpt><trkpt lat="41.0152483" lon="14.4488133"><ele>58.0</ele><time>2026-04-25T10:29:13.108Z</time></trkpt><trkpt lat="41.0151683" lon="14.4486833"><ele>58.0</ele><time>2026-04-25T10:29:14.108Z</time></trkpt><trkpt lat="41.0150867" lon="14.4485583"><ele>58.0</ele><time>2026-04-25T10:29:15.108Z</time></trkpt><trkpt lat="41.015005" lon="14.4484283"><ele>58.0</ele><time>2026-04-25T10:29:16.108Z</time></trkpt><trkpt lat="41.0149183" lon="14.448305"><ele>58.0</ele><time>2026-04-25T10:29:17.108Z</time></trkpt><trkpt lat="41.0148417" lon="14.4481833"><ele>58.0</ele><time>2026-04-25T10:29:18.108Z</time></trkpt><trkpt lat="41.0147633" lon="14.4480617"><ele>58.25</ele><time>2026-04-25T10:29:19.108Z</time></trkpt><trkpt lat="41.0146833" lon="14.44794"><ele>58.5</ele><time>2026-04-25T10:29:20.108Z</time></trkpt><trkpt lat="41.01461" lon="14.4478083"><ele>58.75</ele><time>2026-04-25T10:29:21.108Z</time></trkpt><trkpt lat="41.0145367" lon="14.4476883"><ele>59.0</ele><time>2026-04-25T10:29:22.108Z</time></trkpt><trkpt lat="41.014465" lon="14.4475683"><ele>59.0</ele><time>2026-04-25T10:29:23.108Z</time></trkpt><trkpt lat="41.014395" lon="14.4474483"><ele>59.00000000000001</ele><time>2026-04-25T10:29:24.109Z</time></trkpt><trkpt lat="41.0143233" lon="14.4473417"><ele>59.00000000000001</ele><time>2026-04-25T10:29:25.108Z</time></trkpt><trkpt lat="41.0142533" lon="14.4472367"><ele>59.0</ele><time>2026-04-25T10:29:26.108Z</time></trkpt><trkpt lat="41.014175" lon="14.4471317"><ele>59.0</ele><time>2026-04-25T10:29:27.108Z</time></trkpt><trkpt lat="41.0140983" lon="14.447015"><ele>58.75</ele><time>2026-04-25T10:29:28.108Z</time></trkpt><trkpt lat="41.0140183" lon="14.446905"><ele>58.5</ele><time>2026-04-25T10:29:29.108Z</time></trkpt><trkpt lat="41.0139417" lon="14.44678"><ele>58.25</ele><time>2026-04-25T10:29:30.109Z</time></trkpt><trkpt lat="41.0138617" lon="14.4466617"><ele>58.0</ele><time>2026-04-25T10:29:31.108Z</time></trkpt><trkpt lat="41.0137817" lon="14.44654"><ele>58.0</ele><time>2026-04-25T10:29:32.108Z</time></trkpt><trkpt lat="41.0136983" lon="14.4464283"><ele>58.0</ele><time>2026-04-25T10:29:33.108Z</time></trkpt><trkpt lat="41.0136183" lon="14.4462983"><ele>58.0</ele><time>2026-04-25T10:29:34.109Z</time></trkpt><trkpt lat="41.013545" lon="14.4461817"><ele>58.0</ele><time>2026-04-25T10:29:35.108Z</time></trkpt><trkpt lat="41.013475" lon="14.4460833"><ele>57.99999999999999</ele><time>2026-04-25T10:29:36.108Z</time></trkpt><trkpt lat="41.01341" lon="14.4459833"><ele>58.0</ele><time>2026-04-25T10:29:37.109Z</time></trkpt><trkpt lat="41.013355" lon="14.445885"><ele>58.0</ele><time>2026-04-25T10:29:38.108Z</time></trkpt><trkpt lat="41.0133033" lon="14.4457867"><ele>58.0</ele><time>2026-04-25T10:29:39.108Z</time></trkpt><trkpt lat="41.0132633" lon="14.44569"><ele>57.99999999999999</ele><time>2026-04-25T10:29:40.108Z</time></trkpt><trkpt lat="41.013225" lon="14.4455967"><ele>58.0</ele><time>2026-04-25T10:29:41.108Z</time></trkpt><trkpt lat="41.0131933" lon="14.4455033"><ele>57.33333333333333</ele><time>2026-04-25T10:29:42.108Z</time></trkpt><trkpt lat="41.013165" lon="14.4454083"><ele>56.666666666666664</ele><time>2026-04-25T10:29:43.108Z</time></trkpt><trkpt lat="41.0131267" lon="14.44531"><ele>56.0</ele><time>2026-04-25T10:29:44.108Z</time></trkpt><trkpt lat="41.0130867" lon="14.44521"><ele>55.33333333333333</ele><time>2026-04-25T10:29:45.108Z</time></trkpt><trkpt lat="41.01304" lon="14.44511"><ele>54.666666666666664</ele><time>2026-04-25T10:29:46.108Z</time></trkpt><trkpt lat="41.0129933" lon="14.4450033"><ele>54.0</ele><time>2026-04-25T10:29:47.108Z</time></trkpt><trkpt lat="41.012945" lon="14.444895"><ele>54.0</ele><time>2026-04-25T10:29:48.108Z</time></trkpt><trkpt lat="41.01288" lon="14.4448033"><ele>54.00000000000001</ele><time>2026-04-25T10:29:49.108Z</time></trkpt><trkpt lat="41.0128167" lon="14.44471"><ele>54.00000000000001</ele><time>2026-04-25T10:29:50.109Z</time></trkpt><trkpt lat="41.0127583" lon="14.4446133"><ele>54.0</ele><time>2026-04-25T10:29:51.108Z</time></trkpt><trkpt lat="41.0126933" lon="14.4445317"><ele>54.0</ele><time>2026-04-25T10:29:52.108Z</time></trkpt><trkpt lat="41.0126333" lon="14.4444517"><ele>53.833333333333336</ele><time>2026-04-25T10:29:53.108Z</time></trkpt><trkpt lat="41.012575" lon="14.4443767"><ele>53.66666666666667</ele><time>2026-04-25T10:29:54.108Z</time></trkpt><trkpt lat="41.0125217" lon="14.4443033"><ele>53.5</ele><time>2026-04-25T10:29:55.108Z</time></trkpt><trkpt lat="41.012465" lon="14.4442283"><ele>53.333333333333336</ele><time>2026-04-25T10:29:56.109Z</time></trkpt><trkpt lat="41.0124133" lon="14.4441517"><ele>53.16666666666667</ele><time>2026-04-25T10:29:57.108Z</time></trkpt><trkpt lat="41.0123667" lon="14.4440717"><ele>53.0</ele><time>2026-04-25T10:29:58.108Z</time></trkpt><trkpt lat="41.01232" lon="14.444"><ele>52.599999999999994</ele><time>2026-04-25T10:29:59.108Z</time></trkpt><trkpt lat="41.012275" lon="14.4439283"><ele>52.199999999999996</ele><time>2026-04-25T10:30:00.108Z</time></trkpt><trkpt lat="41.0122" lon="14.4438417"><ele>51.8</ele><time>2026-04-25T10:30:02.108Z</time></trkpt><trkpt lat="41.0121267" lon="14.4437767"><ele>51.4</ele><time>2026-04-25T10:30:04.108Z</time></trkpt><trkpt lat="41.0120333" lon="14.443665"><ele>51.0</ele><time>2026-04-25T10:30:06.108Z</time></trkpt><trkpt lat="41.0119833" lon="14.443575"><ele>51.0</ele><time>2026-04-25T10:30:07.108Z</time></trkpt><trkpt lat="41.0119267" lon="14.4434783"><ele>51.0</ele><time>2026-04-25T10:30:08.108Z</time></trkpt><trkpt lat="41.01187" lon="14.443375"><ele>51.0</ele><time>2026-04-25T10:30:09.108Z</time></trkpt><trkpt lat="41.0118067" lon="14.4432733"><ele>51.0</ele><time>2026-04-25T10:30:10.108Z</time></trkpt><trkpt lat="41.0117283" lon="14.4431667"><ele>51.0</ele><time>2026-04-25T10:30:11.108Z</time></trkpt><trkpt lat="41.0116567" lon="14.4430717"><ele>50.666666666666664</ele><time>2026-04-25T10:30:12.108Z</time></trkpt><trkpt lat="41.011585" lon="14.4429883"><ele>50.33333333333333</ele><time>2026-04-25T10:30:13.108Z</time></trkpt><trkpt lat="41.0115183" lon="14.442905"><ele>50.0</ele><time>2026-04-25T10:30:14.108Z</time></trkpt><trkpt lat="41.0114583" lon="14.4428233"><ele>49.666666666666664</ele><time>2026-04-25T10:30:15.108Z</time></trkpt><trkpt lat="41.0114083" lon="14.4427383"><ele>49.33333333333333</ele><time>2026-04-25T10:30:16.108Z</time></trkpt><trkpt lat="41.01134" lon="14.4426633"><ele>49.0</ele><time>2026-04-25T10:30:17.108Z</time></trkpt><trkpt lat="41.01128" lon="14.4425783"><ele>48.99999999999999</ele><time>2026-04-25T10:30:18.108Z</time></trkpt><trkpt lat="41.0112283" lon="14.4425083"><ele>49.0</ele><time>2026-04-25T10:30:19.108Z</time></trkpt><trkpt lat="41.0111783" lon="14.4424267"><ele>49.0</ele><time>2026-04-25T10:30:20.108Z</time></trkpt><trkpt lat="41.0111267" lon="14.44233"><ele>49.0</ele><time>2026-04-25T10:30:21.109Z</time></trkpt><trkpt lat="41.011075" lon="14.4422267"><ele>48.99999999999999</ele><time>2026-04-25T10:30:22.108Z</time></trkpt><trkpt lat="41.0110267" lon="14.4421367"><ele>49.0</ele><time>2026-04-25T10:30:23.108Z</time></trkpt><trkpt lat="41.0109817" lon="14.4420667"><ele>49.166666666666664</ele><time>2026-04-25T10:30:24.108Z</time></trkpt><trkpt lat="41.0109283" lon="14.44196"><ele>49.33333333333333</ele><time>2026-04-25T10:30:26.108Z</time></trkpt><trkpt lat="41.0108717" lon="14.44184"><ele>49.5</ele><time>2026-04-25T10:30:28.109Z</time></trkpt><trkpt lat="41.010845" lon="14.44176"><ele>49.66666666666667</ele><time>2026-04-25T10:30:29.108Z</time></trkpt><trkpt lat="41.0108083" lon="14.4416667"><ele>49.833333333333336</ele><time>2026-04-25T10:30:30.108Z</time></trkpt><trkpt lat="41.010775" lon="14.4415567"><ele>50.0</ele><time>2026-04-25T10:30:31.108Z</time></trkpt><trkpt lat="41.0107333" lon="14.44145"><ele>49.2</ele><time>2026-04-25T10:30:32.108Z</time></trkpt><trkpt lat="41.0107" lon="14.4413383"><ele>48.4</ele><time>2026-04-25T10:30:33.108Z</time></trkpt><trkpt lat="41.0106667" lon="14.4412233"><ele>47.599999999999994</ele><time>2026-04-25T10:30:34.108Z</time></trkpt><trkpt lat="41.0106333" lon="14.4410983"><ele>46.8</ele><time>2026-04-25T10:30:35.108Z</time></trkpt><trkpt lat="41.0105967" lon="14.440975"><ele>46.0</ele><time>2026-04-25T10:30:36.108Z</time></trkpt><trkpt lat="41.010565" lon="14.4408467"><ele>46.0</ele><time>2026-04-25T10:30:37.108Z</time></trkpt><trkpt lat="41.0105217" lon="14.4407217"><ele>46.0</ele><time>2026-04-25T10:30:38.108Z</time></trkpt><trkpt lat="41.0104767" lon="14.440585"><ele>46.0</ele><time>2026-04-25T10:30:39.108Z</time></trkpt><trkpt lat="41.0104333" lon="14.4404533"><ele>46.0</ele><time>2026-04-25T10:30:40.108Z</time></trkpt><trkpt lat="41.010395" lon="14.4403433"><ele>46.0</ele><time>2026-04-25T10:30:41.108Z</time></trkpt><trkpt lat="41.0103617" lon="14.4402533"><ele>46.4</ele><time>2026-04-25T10:30:42.108Z</time></trkpt><trkpt lat="41.0103133" lon="14.4401267"><ele>46.8</ele><time>2026-04-25T10:30:44.108Z</time></trkpt><trkpt lat="41.010285" lon="14.4400467"><ele>47.199999999999996</ele><time>2026-04-25T10:30:46.108Z</time></trkpt><trkpt lat="41.010255" lon="14.4399567"><ele>47.599999999999994</ele><time>2026-04-25T10:30:48.108Z</time></trkpt><trkpt lat="41.0101967" lon="14.4398317"><ele>48.0</ele><time>2026-04-25T10:30:50.108Z</time></trkpt><trkpt lat="41.0101383" lon="14.4396967"><ele>47.857142857142854</ele><time>2026-04-25T10:30:52.109Z</time></trkpt><trkpt lat="41.0101083" lon="14.4396233"><ele>47.714285714285715</ele><time>2026-04-25T10:30:53.108Z</time></trkpt><trkpt lat="41.010075" lon="14.4395517"><ele>47.57142857142857</ele><time>2026-04-25T10:30:54.108Z</time></trkpt><trkpt lat="41.01004" lon="14.4394667"><ele>47.42857142857143</ele><time>2026-04-25T10:30:55.108Z</time></trkpt><trkpt lat="41.010005" lon="14.4393867"><ele>47.285714285714285</ele><time>2026-04-25T10:30:56.108Z</time></trkpt><trkpt lat="41.009975" lon="14.4392933"><ele>47.14285714285714</ele><time>2026-04-25T10:30:57.108Z</time></trkpt><trkpt lat="41.0099517" lon="14.4391883"><ele>47.0</ele><time>2026-04-25T10:30:58.108Z</time></trkpt><trkpt lat="41.0099233" lon="14.4391017"><ele>46.5</ele><time>2026-04-25T10:30:59.108Z</time></trkpt><trkpt lat="41.00989" lon="14.4390133"><ele>46.0</ele><time>2026-04-25T10:31:00.108Z</time></trkpt><trkpt lat="41.0098517" lon="14.4389183"><ele>45.5</ele><time>2026-04-25T10:31:01.108Z</time></trkpt><trkpt lat="41.009805" lon="14.4388117"><ele>45.0</ele><time>2026-04-25T10:31:02.108Z</time></trkpt><trkpt lat="41.009755" lon="14.438705"><ele>44.5</ele><time>2026-04-25T10:31:03.108Z</time></trkpt><trkpt lat="41.00971" lon="14.4385883"><ele>44.0</ele><time>2026-04-25T10:31:04.108Z</time></trkpt><trkpt lat="41.009655" lon="14.4384717"><ele>44.0</ele><time>2026-04-25T10:31:05.108Z</time></trkpt><trkpt lat="41.00959" lon="14.43838"><ele>44.0</ele><time>2026-04-25T10:31:06.108Z</time></trkpt><trkpt lat="41.009535" lon="14.4382833"><ele>44.0</ele><time>2026-04-25T10:31:07.108Z</time></trkpt><trkpt lat="41.0094883" lon="14.4381967"><ele>44.0</ele><time>2026-04-25T10:31:08.108Z</time></trkpt><trkpt lat="41.00944" lon="14.4381067"><ele>44.0</ele><time>2026-04-25T10:31:09.108Z</time></trkpt><trkpt lat="41.0093967" lon="14.4380067"><ele>44.0</ele><time>2026-04-25T10:31:10.108Z</time></trkpt><trkpt lat="41.0093533" lon="14.4379083"><ele>44.0</ele><time>2026-04-25T10:31:11.108Z</time></trkpt><trkpt lat="41.00931" lon="14.4377967"><ele>44.0</ele><time>2026-04-25T10:31:12.108Z</time></trkpt><trkpt lat="41.0092467" lon="14.4376783"><ele>44.0</ele><time>2026-04-25T10:31:13.109Z</time></trkpt><trkpt lat="41.0091983" lon="14.437565"><ele>44.0</ele><time>2026-04-25T10:31:14.108Z</time></trkpt><trkpt lat="41.0091583" lon="14.4374467"><ele>44.0</ele><time>2026-04-25T10:31:15.108Z</time></trkpt><trkpt lat="41.0091167" lon="14.4373283"><ele>44.0</ele><time>2026-04-25T10:31:16.108Z</time></trkpt><trkpt lat="41.0090667" lon="14.43723"><ele>44.0</ele><time>2026-04-25T10:31:17.108Z</time></trkpt><trkpt lat="41.0090233" lon="14.437115"><ele>44.0</ele><time>2026-04-25T10:31:18.108Z</time></trkpt><trkpt lat="41.0089733" lon="14.4370067"><ele>44.0</ele><time>2026-04-25T10:31:19.109Z</time></trkpt><trkpt lat="41.0089217" lon="14.4368967"><ele>44.0</ele><time>2026-04-25T10:31:20.108Z</time></trkpt><trkpt lat="41.00887" lon="14.4367817"><ele>44.0</ele><time>2026-04-25T10:31:21.108Z</time></trkpt><trkpt lat="41.0088133" lon="14.4366633"><ele>44.0</ele><time>2026-04-25T10:31:22.108Z</time></trkpt><trkpt lat="41.0087583" lon="14.4365433"><ele>44.0</ele><time>2026-04-25T10:31:23.108Z</time></trkpt><trkpt lat="41.0087067" lon="14.4364167"><ele>44.0</ele><time>2026-04-25T10:31:24.108Z</time></trkpt><trkpt lat="41.0086517" lon="14.43628"><ele>44.0</ele><time>2026-04-25T10:31:25.108Z</time></trkpt><trkpt lat="41.008595" lon="14.4361333"><ele>43.75</ele><time>2026-04-25T10:31:26.108Z</time></trkpt><trkpt lat="41.0085367" lon="14.43598"><ele>43.5</ele><time>2026-04-25T10:31:27.108Z</time></trkpt><trkpt lat="41.0084783" lon="14.43582"><ele>43.25</ele><time>2026-04-25T10:31:28.108Z</time></trkpt><trkpt lat="41.00841" lon="14.4356483"><ele>43.0</ele><time>2026-04-25T10:31:29.109Z</time></trkpt><trkpt lat="41.008335" lon="14.43548"><ele>42.333333333333336</ele><time>2026-04-25T10:31:30.108Z</time></trkpt><trkpt lat="41.0082517" lon="14.4353183"><ele>41.666666666666664</ele><time>2026-04-25T10:31:31.108Z</time></trkpt><trkpt lat="41.00816" lon="14.4351517"><ele>41.0</ele><time>2026-04-25T10:31:32.108Z</time></trkpt><trkpt lat="41.0080617" lon="14.434975"><ele>41.0</ele><time>2026-04-25T10:31:33.109Z</time></trkpt><trkpt lat="41.0079633" lon="14.434805"><ele>41.0</ele><time>2026-04-25T10:31:34.108Z</time></trkpt><trkpt lat="41.007865" lon="14.434635"><ele>41.0</ele><time>2026-04-25T10:31:35.108Z</time></trkpt><trkpt lat="41.00776" lon="14.4344667"><ele>41.0</ele><time>2026-04-25T10:31:36.108Z</time></trkpt><trkpt lat="41.0076617" lon="14.4342917"><ele>41.0</ele><time>2026-04-25T10:31:37.108Z</time></trkpt><trkpt lat="41.0075683" lon="14.4341167"><ele>41.0</ele><time>2026-04-25T10:31:38.109Z</time></trkpt><trkpt lat="41.0074833" lon="14.433935"><ele>41.0</ele><time>2026-04-25T10:31:39.108Z</time></trkpt><trkpt lat="41.0074083" lon="14.4337367"><ele>41.0</ele><time>2026-04-25T10:31:40.108Z</time></trkpt><trkpt lat="41.0073483" lon="14.4335417"><ele>41.0</ele><time>2026-04-25T10:31:41.108Z</time></trkpt><trkpt lat="41.00729" lon="14.4333633"><ele>41.0</ele><time>2026-04-25T10:31:42.108Z</time></trkpt><trkpt lat="41.00723" lon="14.4331917"><ele>41.0</ele><time>2026-04-25T10:31:43.108Z</time></trkpt><trkpt lat="41.007165" lon="14.433045"><ele>41.0</ele><time>2026-04-25T10:31:44.108Z</time></trkpt><trkpt lat="41.00709" lon="14.4328983"><ele>41.0</ele><time>2026-04-25T10:31:45.108Z</time></trkpt><trkpt lat="41.0070033" lon="14.4327583"><ele>41.5</ele><time>2026-04-25T10:31:46.108Z</time></trkpt><trkpt lat="41.0069117" lon="14.4326217"><ele>42.0</ele><time>2026-04-25T10:31:47.108Z</time></trkpt><trkpt lat="41.0068167" lon="14.43248"><ele>42.5</ele><time>2026-04-25T10:31:48.108Z</time></trkpt><trkpt lat="41.0067217" lon="14.432335"><ele>43.0</ele><time>2026-04-25T10:31:49.108Z</time></trkpt><trkpt lat="41.0066217" lon="14.4321967"><ele>42.25</ele><time>2026-04-25T10:31:50.108Z</time></trkpt><trkpt lat="41.0065283" lon="14.4320667"><ele>41.5</ele><time>2026-04-25T10:31:51.108Z</time></trkpt><trkpt lat="41.0064333" lon="14.4319467"><ele>40.75</ele><time>2026-04-25T10:31:52.108Z</time></trkpt><trkpt lat="41.00634" lon="14.4318283"><ele>40.0</ele><time>2026-04-25T10:31:53.108Z</time></trkpt><trkpt lat="41.006255" lon="14.4316917"><ele>40.0</ele><time>2026-04-25T10:31:54.109Z</time></trkpt><trkpt lat="41.0061733" lon="14.4315167"><ele>40.0</ele><time>2026-04-25T10:31:55.108Z</time></trkpt><trkpt lat="41.0061" lon="14.431325"><ele>40.0</ele><time>2026-04-25T10:31:56.108Z</time></trkpt><trkpt lat="41.00603" lon="14.4311367"><ele>40.0</ele><time>2026-04-25T10:31:57.108Z</time></trkpt><trkpt lat="41.005965" lon="14.4309667"><ele>40.0</ele><time>2026-04-25T10:31:58.108Z</time></trkpt><trkpt lat="41.0059017" lon="14.4308067"><ele>40.0</ele><time>2026-04-25T10:31:59.108Z</time></trkpt><trkpt lat="41.0058367" lon="14.4306383"><ele>40.0</ele><time>2026-04-25T10:32:00.108Z</time></trkpt><trkpt lat="41.0057783" lon="14.4304717"><ele>39.5</ele><time>2026-04-25T10:32:01.108Z</time></trkpt><trkpt lat="41.0057133" lon="14.4303017"><ele>39.0</ele><time>2026-04-25T10:32:02.108Z</time></trkpt><trkpt lat="41.0056417" lon="14.4301233"><ele>38.5</ele><time>2026-04-25T10:32:03.108Z</time></trkpt><trkpt lat="41.00557" lon="14.429945"><ele>38.0</ele><time>2026-04-25T10:32:04.108Z</time></trkpt><trkpt lat="41.0054983" lon="14.4297683"><ele>38.5</ele><time>2026-04-25T10:32:05.108Z</time></trkpt><trkpt lat="41.0054283" lon="14.42959"><ele>39.0</ele><time>2026-04-25T10:32:06.108Z</time></trkpt><trkpt lat="41.00536" lon="14.4294267"><ele>39.5</ele><time>2026-04-25T10:32:07.108Z</time></trkpt><trkpt lat="41.0052983" lon="14.4292717"><ele>40.0</ele><time>2026-04-25T10:32:08.108Z</time></trkpt><trkpt lat="41.005245" lon="14.4291267"><ele>40.0</ele><time>2026-04-25T10:32:09.108Z</time></trkpt><trkpt lat="41.0052" lon="14.42898"><ele>40.0</ele><time>2026-04-25T10:32:10.108Z</time></trkpt><trkpt lat="41.005155" lon="14.4288417"><ele>40.0</ele><time>2026-04-25T10:32:11.108Z</time></trkpt><trkpt lat="41.0051117" lon="14.4287083"><ele>40.0</ele><time>2026-04-25T10:32:12.108Z</time></trkpt><trkpt lat="41.0050717" lon="14.4285667"><ele>39.75</ele><time>2026-04-25T10:32:13.108Z</time></trkpt><trkpt lat="41.00503" lon="14.428425"><ele>39.5</ele><time>2026-04-25T10:32:14.108Z</time></trkpt><trkpt lat="41.0049917" lon="14.4282817"><ele>39.25</ele><time>2026-04-25T10:32:15.108Z</time></trkpt><trkpt lat="41.0049667" lon="14.42814"><ele>39.0</ele><time>2026-04-25T10:32:16.108Z</time></trkpt><trkpt lat="41.00493" lon="14.4279967"><ele>38.5</ele><time>2026-04-25T10:32:17.108Z</time></trkpt><trkpt lat="41.004895" lon="14.4278417"><ele>38.0</ele><time>2026-04-25T10:32:18.108Z</time></trkpt><trkpt lat="41.0048583" lon="14.4276817"><ele>37.5</ele><time>2026-04-25T10:32:19.108Z</time></trkpt><trkpt lat="41.0048267" lon="14.4275233"><ele>37.0</ele><time>2026-04-25T10:32:20.109Z</time></trkpt><trkpt lat="41.0047933" lon="14.4273633"><ele>37.0</ele><time>2026-04-25T10:32:21.108Z</time></trkpt><trkpt lat="41.0047567" lon="14.4271983"><ele>37.0</ele><time>2026-04-25T10:32:22.108Z</time></trkpt><trkpt lat="41.0047183" lon="14.4270283"><ele>37.0</ele><time>2026-04-25T10:32:23.108Z</time></trkpt><trkpt lat="41.0046767" lon="14.4268683"><ele>37.0</ele><time>2026-04-25T10:32:24.109Z</time></trkpt><trkpt lat="41.0046317" lon="14.42671"><ele>37.0</ele><time>2026-04-25T10:32:25.108Z</time></trkpt><trkpt lat="41.0045833" lon="14.4265533"><ele>37.0</ele><time>2026-04-25T10:32:26.108Z</time></trkpt><trkpt lat="41.0045283" lon="14.4264"><ele>37.0</ele><time>2026-04-25T10:32:27.108Z</time></trkpt><trkpt lat="41.0044683" lon="14.4262533"><ele>37.0</ele><time>2026-04-25T10:32:28.108Z</time></trkpt><trkpt lat="41.00441" lon="14.426125"><ele>37.0</ele><time>2026-04-25T10:32:29.108Z</time></trkpt><trkpt lat="41.0043467" lon="14.4260017"><ele>37.0</ele><time>2026-04-25T10:32:30.108Z</time></trkpt><trkpt lat="41.0042783" lon="14.4259017"><ele>37.0</ele><time>2026-04-25T10:32:31.109Z</time></trkpt><trkpt lat="41.004195" lon="14.4258267"><ele>37.0</ele><time>2026-04-25T10:32:32.108Z</time></trkpt><trkpt lat="41.004085" lon="14.4257583"><ele>37.0</ele><time>2026-04-25T10:32:33.108Z</time></trkpt><trkpt lat="41.0039633" lon="14.425695"><ele>37.0</ele><time>2026-04-25T10:32:34.108Z</time></trkpt><trkpt lat="41.0038267" lon="14.42563"><ele>37.0</ele><time>2026-04-25T10:32:35.108Z</time></trkpt><trkpt lat="41.0036767" lon="14.4255517"><ele>37.0</ele><time>2026-04-25T10:32:36.108Z</time></trkpt><trkpt lat="41.0035183" lon="14.4254633"><ele>37.0</ele><time>2026-04-25T10:32:37.108Z</time></trkpt><trkpt lat="41.00335" lon="14.4253683"><ele>37.0</ele><time>2026-04-25T10:32:38.108Z</time></trkpt><trkpt lat="41.0031833" lon="14.425275"><ele>37.0</ele><time>2026-04-25T10:32:39.108Z</time></trkpt><trkpt lat="41.0030283" lon="14.4251917"><ele>36.25</ele><time>2026-04-25T10:32:40.108Z</time></trkpt><trkpt lat="41.002885" lon="14.42511"><ele>35.5</ele><time>2026-04-25T10:32:41.108Z</time></trkpt><trkpt lat="41.0027567" lon="14.4250317"><ele>34.75</ele><time>2026-04-25T10:32:42.108Z</time></trkpt><trkpt lat="41.0026417" lon="14.42496"><ele>34.0</ele><time>2026-04-25T10:32:43.108Z</time></trkpt><trkpt lat="41.0025267" lon="14.4248833"><ele>34.75</ele><time>2026-04-25T10:32:44.108Z</time></trkpt><trkpt lat="41.002415" lon="14.424815"><ele>35.5</ele><time>2026-04-25T10:32:45.108Z</time></trkpt><trkpt lat="41.0022983" lon="14.42475"><ele>36.25</ele><time>2026-04-25T10:32:46.109Z</time></trkpt><trkpt lat="41.0021783" lon="14.4246933"><ele>37.0</ele><time>2026-04-25T10:32:47.108Z</time></trkpt><trkpt lat="41.0020617" lon="14.4246517"><ele>36.75</ele><time>2026-04-25T10:32:48.108Z</time></trkpt><trkpt lat="41.00194" lon="14.4246233"><ele>36.5</ele><time>2026-04-25T10:32:49.108Z</time></trkpt><trkpt lat="41.0018167" lon="14.4246083"><ele>36.25</ele><time>2026-04-25T10:32:50.108Z</time></trkpt><trkpt lat="41.001695" lon="14.424615"><ele>36.0</ele><time>2026-04-25T10:32:51.108Z</time></trkpt><trkpt lat="41.0015717" lon="14.4246433"><ele>36.2</ele><time>2026-04-25T10:32:52.109Z</time></trkpt><trkpt lat="41.0014533" lon="14.42469"><ele>36.400000000000006</ele><time>2026-04-25T10:32:53.109Z</time></trkpt><trkpt lat="41.0013433" lon="14.424745"><ele>36.6</ele><time>2026-04-25T10:32:54.108Z</time></trkpt><trkpt lat="41.001245" lon="14.4247933"><ele>36.800000000000004</ele><time>2026-04-25T10:32:55.108Z</time></trkpt><trkpt lat="41.0011483" lon="14.4248383"><ele>37.0</ele><time>2026-04-25T10:32:56.108Z</time></trkpt><trkpt lat="41.0010633" lon="14.4248833"><ele>37.0</ele><time>2026-04-25T10:32:57.109Z</time></trkpt><trkpt lat="41.000985" lon="14.42493"><ele>37.0</ele><time>2026-04-25T10:32:58.108Z</time></trkpt><trkpt lat="41.0008983" lon="14.4249767"><ele>37.0</ele><time>2026-04-25T10:32:59.108Z</time></trkpt><trkpt lat="41.00081" lon="14.4250283"><ele>37.0</ele><time>2026-04-25T10:33:00.108Z</time></trkpt><trkpt lat="41.000715" lon="14.4250767"><ele>37.0</ele><time>2026-04-25T10:33:01.108Z</time></trkpt><trkpt lat="41.0006167" lon="14.4251283"><ele>37.75</ele><time>2026-04-25T10:33:02.108Z</time></trkpt><trkpt lat="41.0005183" lon="14.425175"><ele>38.5</ele><time>2026-04-25T10:33:03.109Z</time></trkpt><trkpt lat="41.0004117" lon="14.425225"><ele>39.25</ele><time>2026-04-25T10:33:04.108Z</time></trkpt><trkpt lat="41.0003033" lon="14.4252783"><ele>40.0</ele><time>2026-04-25T10:33:05.108Z</time></trkpt><trkpt lat="41.0001883" lon="14.425335"><ele>40.0</ele><time>2026-04-25T10:33:06.108Z</time></trkpt><trkpt lat="41.00007" lon="14.4253917"><ele>40.0</ele><time>2026-04-25T10:33:07.108Z</time></trkpt><trkpt lat="40.999945" lon="14.4254583"><ele>40.0</ele><time>2026-04-25T10:33:08.108Z</time></trkpt><trkpt lat="40.999815" lon="14.425525"><ele>40.0</ele><time>2026-04-25T10:33:09.108Z</time></trkpt><trkpt lat="40.99968" lon="14.4255833"><ele>40.0</ele><time>2026-04-25T10:33:10.108Z</time></trkpt><trkpt lat="40.9995367" lon="14.42566"><ele>40.0</ele><time>2026-04-25T10:33:11.108Z</time></trkpt><trkpt lat="40.9993983" lon="14.425725"><ele>40.0</ele><time>2026-04-25T10:33:12.108Z</time></trkpt><trkpt lat="40.9992717" lon="14.4257883"><ele>40.0</ele><time>2026-04-25T10:33:13.108Z</time></trkpt><trkpt lat="40.9991617" lon="14.4258367"><ele>40.0</ele><time>2026-04-25T10:33:14.108Z</time></trkpt><trkpt lat="40.999065" lon="14.4258667"><ele>40.0</ele><time>2026-04-25T10:33:15.108Z</time></trkpt><trkpt lat="40.9989867" lon="14.42589"><ele>40.0</ele><time>2026-04-25T10:33:16.109Z</time></trkpt><trkpt lat="40.9989133" lon="14.4259117"><ele>40.0</ele><time>2026-04-25T10:33:17.109Z</time></trkpt><trkpt lat="40.9988383" lon="14.4259317"><ele>40.0</ele><time>2026-04-25T10:33:18.108Z</time></trkpt><trkpt lat="40.9987633" lon="14.425945"><ele>40.0</ele><time>2026-04-25T10:33:19.108Z</time></trkpt><trkpt lat="40.9986867" lon="14.4259533"><ele>40.0</ele><time>2026-04-25T10:33:20.109Z</time></trkpt><trkpt lat="40.99861" lon="14.4259683"><ele>40.0</ele><time>2026-04-25T10:33:21.108Z</time></trkpt><trkpt lat="40.9985367" lon="14.4259783"><ele>40.0</ele><time>2026-04-25T10:33:22.108Z</time></trkpt><trkpt lat="40.9984633" lon="14.4259717"><ele>40.0</ele><time>2026-04-25T10:33:23.108Z</time></trkpt><trkpt lat="40.99836" lon="14.4259667"><ele>40.0</ele><time>2026-04-25T10:33:25.108Z</time></trkpt><trkpt lat="40.9982633" lon="14.4259583"><ele>40.0</ele><time>2026-04-25T10:33:33.108Z</time></trkpt><trkpt lat="40.9981967" lon="14.425965"><ele>40.4</ele><time>2026-04-25T10:33:36.108Z</time></trkpt><trkpt lat="40.998135" lon="14.4259383"><ele>40.8</ele><time>2026-04-25T10:33:55.107Z</time></trkpt><trkpt lat="40.9980767" lon="14.4258367"><ele>41.2</ele><time>2026-04-25T10:33:57.107Z</time></trkpt><trkpt lat="40.9980483" lon="14.42572"><ele>41.6</ele><time>2026-04-25T10:33:58.108Z</time></trkpt><trkpt lat="40.99801" lon="14.4255767"><ele>42.0</ele><time>2026-04-25T10:33:59.107Z</time></trkpt><trkpt lat="40.9979633" lon="14.4254283"><ele>42.0</ele><time>2026-04-25T10:34:00.107Z</time></trkpt><trkpt lat="40.9979167" lon="14.425265"><ele>42.0</ele><time>2026-04-25T10:34:01.107Z</time></trkpt><trkpt lat="40.99786" lon="14.425095"><ele>42.0</ele><time>2026-04-25T10:34:02.107Z</time></trkpt><trkpt lat="40.9978083" lon="14.4249217"><ele>42.0</ele><time>2026-04-25T10:34:03.107Z</time></trkpt><trkpt lat="40.997755" lon="14.42474"><ele>41.25</ele><time>2026-04-25T10:34:04.107Z</time></trkpt><trkpt lat="40.99769" lon="14.4245583"><ele>40.5</ele><time>2026-04-25T10:34:05.107Z</time></trkpt><trkpt lat="40.99764" lon="14.424365"><ele>39.75</ele><time>2026-04-25T10:34:06.107Z</time></trkpt><trkpt lat="40.9975883" lon="14.4241967"><ele>39.0</ele><time>2026-04-25T10:34:07.107Z</time></trkpt><trkpt lat="40.9975367" lon="14.4240483"><ele>39.2</ele><time>2026-04-25T10:34:08.107Z</time></trkpt><trkpt lat="40.9975017" lon="14.4239017"><ele>39.4</ele><time>2026-04-25T10:34:09.107Z</time></trkpt><trkpt lat="40.9974567" lon="14.4237667"><ele>39.6</ele><time>2026-04-25T10:34:10.107Z</time></trkpt><trkpt lat="40.9974083" lon="14.42364"><ele>39.8</ele><time>2026-04-25T10:34:11.107Z</time></trkpt><trkpt lat="40.9973633" lon="14.423515"><ele>40.0</ele><time>2026-04-25T10:34:12.107Z</time></trkpt><trkpt lat="40.9973183" lon="14.4233933"><ele>40.0</ele><time>2026-04-25T10:34:13.107Z</time></trkpt><trkpt lat="40.99727" lon="14.42328"><ele>40.0</ele><time>2026-04-25T10:34:14.107Z</time></trkpt><trkpt lat="40.99722" lon="14.423175"><ele>40.0</ele><time>2026-04-25T10:34:15.107Z</time></trkpt><trkpt lat="40.997165" lon="14.4230817"><ele>40.0</ele><time>2026-04-25T10:34:16.107Z</time></trkpt><trkpt lat="40.99711" lon="14.4229817"><ele>40.0</ele><time>2026-04-25T10:34:17.107Z</time></trkpt><trkpt lat="40.9970433" lon="14.4228833"><ele>40.2</ele><time>2026-04-25T10:34:18.107Z</time></trkpt><trkpt lat="40.99698" lon="14.4227817"><ele>40.4</ele><time>2026-04-25T10:34:19.107Z</time></trkpt><trkpt lat="40.9969117" lon="14.42268"><ele>40.599999999999994</ele><time>2026-04-25T10:34:20.107Z</time></trkpt><trkpt lat="40.9968433" lon="14.4225833"><ele>40.8</ele><time>2026-04-25T10:34:21.107Z</time></trkpt><trkpt lat="40.99678" lon="14.422495"><ele>41.0</ele><time>2026-04-25T10:34:22.107Z</time></trkpt><trkpt lat="40.996725" lon="14.4224283"><ele>41.0</ele><time>2026-04-25T10:34:23.107Z</time></trkpt><trkpt lat="40.9966733" lon="14.4223633"><ele>41.0</ele><time>2026-04-25T10:34:24.107Z</time></trkpt><trkpt lat="40.9965883" lon="14.422265"><ele>41.0</ele><time>2026-04-25T10:34:26.107Z</time></trkpt><trkpt lat="40.99652" lon="14.4221833"><ele>41.0</ele><time>2026-04-25T10:34:28.107Z</time></trkpt><trkpt lat="40.99646" lon="14.42212"><ele>41.0</ele><time>2026-04-25T10:34:30.107Z</time></trkpt><trkpt lat="40.996395" lon="14.422065"><ele>41.0</ele><time>2026-04-25T10:34:32.107Z</time></trkpt><trkpt lat="40.9963317" lon="14.421995"><ele>41.199999999999996</ele><time>2026-04-25T10:34:34.107Z</time></trkpt><trkpt lat="40.996265" lon="14.42194"><ele>41.4</ele><time>2026-04-25T10:34:36.107Z</time></trkpt><trkpt lat="40.9961917" lon="14.4218717"><ele>41.6</ele><time>2026-04-25T10:34:38.107Z</time></trkpt><trkpt lat="40.99611" lon="14.4218117"><ele>41.8</ele><time>2026-04-25T10:34:40.107Z</time></trkpt><trkpt lat="40.9960183" lon="14.421755"><ele>42.0</ele><time>2026-04-25T10:34:42.107Z</time></trkpt><trkpt lat="40.995945" lon="14.4216817"><ele>42.166666666666664</ele><time>2026-04-25T10:34:44.108Z</time></trkpt><trkpt lat="40.9958367" lon="14.4216167"><ele>42.333333333333336</ele><time>2026-04-25T10:34:51.107Z</time></trkpt><trkpt lat="40.9957683" lon="14.4215867"><ele>42.5</ele><time>2026-04-25T10:34:53.107Z</time></trkpt><trkpt lat="40.9956767" lon="14.4215067"><ele>42.66666666666667</ele><time>2026-04-25T10:34:55.107Z</time></trkpt><trkpt lat="40.99562" lon="14.42145"><ele>42.833333333333336</ele><time>2026-04-25T10:34:56.107Z</time></trkpt><trkpt lat="40.99556" lon="14.4213967"><ele>43.0</ele><time>2026-04-25T10:34:57.107Z</time></trkpt><trkpt lat="40.9954917" lon="14.4213533"><ele>42.5</ele><time>2026-04-25T10:34:58.107Z</time></trkpt><trkpt lat="40.99543" lon="14.42131"><ele>42.0</ele><time>2026-04-25T10:34:59.107Z</time></trkpt><trkpt lat="40.9953733" lon="14.4212733"><ele>41.5</ele><time>2026-04-25T10:35:00.107Z</time></trkpt><trkpt lat="40.9952933" lon="14.421215"><ele>41.0</ele><time>2026-04-25T10:35:02.107Z</time></trkpt><trkpt lat="40.9952133" lon="14.4211633"><ele>40.5</ele><time>2026-04-25T10:35:04.107Z</time></trkpt><trkpt lat="40.9951383" lon="14.4211283"><ele>40.0</ele><time>2026-04-25T10:35:06.107Z</time></trkpt><trkpt lat="40.9950717" lon="14.4211117"><ele>40.0</ele><time>2026-04-25T10:35:09.107Z</time></trkpt><trkpt lat="40.9950083" lon="14.4210717"><ele>40.0</ele><time>2026-04-25T10:35:13.107Z</time></trkpt><trkpt lat="40.9949467" lon="14.4210417"><ele>40.0</ele><time>2026-04-25T10:35:16.107Z</time></trkpt><trkpt lat="40.99487" lon="14.421"><ele>40.0</ele><time>2026-04-25T10:35:19.107Z</time></trkpt><trkpt lat="40.994795" lon="14.42099"><ele>40.0</ele><time>2026-04-25T10:35:22.107Z</time></trkpt><trkpt lat="40.9947217" lon="14.42096"><ele>40.0</ele><time>2026-04-25T10:35:24.107Z</time></trkpt><trkpt lat="40.99465" lon="14.42092"><ele>40.0</ele><time>2026-04-25T10:35:26.107Z</time></trkpt><trkpt lat="40.994555" lon="14.4208917"><ele>40.0</ele><time>2026-04-25T10:35:28.107Z</time></trkpt><trkpt lat="40.99446" lon="14.4208667"><ele>40.0</ele><time>2026-04-25T10:35:30.107Z</time></trkpt><trkpt lat="40.9943517" lon="14.42083"><ele>40.0</ele><time>2026-04-25T10:35:32.107Z</time></trkpt><trkpt lat="40.9942467" lon="14.420795"><ele>40.0</ele><time>2026-04-25T10:35:34.107Z</time></trkpt><trkpt lat="40.9941417" lon="14.4207467"><ele>40.0</ele><time>2026-04-25T10:35:36.107Z</time></trkpt><trkpt lat="40.99403" lon="14.42071"><ele>39.833333333333336</ele><time>2026-04-25T10:35:38.107Z</time></trkpt><trkpt lat="40.9939233" lon="14.4206683"><ele>39.66666666666667</ele><time>2026-04-25T10:35:40.107Z</time></trkpt><trkpt lat="40.9938167" lon="14.420615"><ele>39.5</ele><time>2026-04-25T10:35:42.107Z</time></trkpt><trkpt lat="40.9937483" lon="14.4206033"><ele>39.333333333333336</ele><time>2026-04-25T10:35:43.107Z</time></trkpt><trkpt lat="40.993675" lon="14.4205867"><ele>39.166666666666664</ele><time>2026-04-25T10:35:44.107Z</time></trkpt><trkpt lat="40.9936017" lon="14.4205717"><ele>39.0</ele><time>2026-04-25T10:35:45.107Z</time></trkpt><trkpt lat="40.9935217" lon="14.4205517"><ele>39.0</ele><time>2026-04-25T10:35:46.107Z</time></trkpt><trkpt lat="40.9934383" lon="14.42053"><ele>39.0</ele><time>2026-04-25T10:35:47.107Z</time></trkpt><trkpt lat="40.9933583" lon="14.4205033"><ele>39.0</ele><time>2026-04-25T10:35:48.107Z</time></trkpt><trkpt lat="40.9932717" lon="14.4204717"><ele>39.0</ele><time>2026-04-25T10:35:49.107Z</time></trkpt><trkpt lat="40.9931867" lon="14.4204333"><ele>39.0</ele><time>2026-04-25T10:35:50.107Z</time></trkpt><trkpt lat="40.9930983" lon="14.4204033"><ele>39.0</ele><time>2026-04-25T10:35:51.107Z</time></trkpt><trkpt lat="40.9930167" lon="14.42037"><ele>39.2</ele><time>2026-04-25T10:35:52.107Z</time></trkpt><trkpt lat="40.9929283" lon="14.4203433"><ele>39.4</ele><time>2026-04-25T10:35:53.107Z</time></trkpt><trkpt lat="40.9928367" lon="14.42032"><ele>39.6</ele><time>2026-04-25T10:35:54.107Z</time></trkpt><trkpt lat="40.99274" lon="14.4203067"><ele>39.8</ele><time>2026-04-25T10:35:55.107Z</time></trkpt><trkpt lat="40.992645" lon="14.4202817"><ele>40.0</ele><time>2026-04-25T10:35:56.107Z</time></trkpt><trkpt lat="40.9925483" lon="14.4202533"><ele>39.5</ele><time>2026-04-25T10:35:57.107Z</time></trkpt><trkpt lat="40.9924483" lon="14.420215"><ele>39.0</ele><time>2026-04-25T10:35:58.107Z</time></trkpt><trkpt lat="40.9923417" lon="14.4201767"><ele>38.5</ele><time>2026-04-25T10:35:59.107Z</time></trkpt><trkpt lat="40.992225" lon="14.4201333"><ele>38.0</ele><time>2026-04-25T10:36:00.107Z</time></trkpt><trkpt lat="40.9921067" lon="14.42009"><ele>38.0</ele><time>2026-04-25T10:36:01.107Z</time></trkpt><trkpt lat="40.9919867" lon="14.420045"><ele>38.0</ele><time>2026-04-25T10:36:02.107Z</time></trkpt><trkpt lat="40.99187" lon="14.4200067"><ele>38.0</ele><time>2026-04-25T10:36:03.107Z</time></trkpt><trkpt lat="40.99176" lon="14.4199533"><ele>38.0</ele><time>2026-04-25T10:36:04.108Z</time></trkpt><trkpt lat="40.991655" lon="14.4199117"><ele>38.199999999999996</ele><time>2026-04-25T10:36:05.107Z</time></trkpt><trkpt lat="40.9915483" lon="14.419875"><ele>38.4</ele><time>2026-04-25T10:36:06.107Z</time></trkpt><trkpt lat="40.991445" lon="14.4198283"><ele>38.599999999999994</ele><time>2026-04-25T10:36:07.107Z</time></trkpt><trkpt lat="40.9913333" lon="14.4197867"><ele>38.8</ele><time>2026-04-25T10:36:08.107Z</time></trkpt><trkpt lat="40.99123" lon="14.41974"><ele>39.0</ele><time>2026-04-25T10:36:09.107Z</time></trkpt><trkpt lat="40.9911233" lon="14.4196933"><ele>38.8</ele><time>2026-04-25T10:36:10.107Z</time></trkpt><trkpt lat="40.991015" lon="14.4196433"><ele>38.599999999999994</ele><time>2026-04-25T10:36:11.107Z</time></trkpt><trkpt lat="40.99091" lon="14.4196"><ele>38.4</ele><time>2026-04-25T10:36:12.107Z</time></trkpt><trkpt lat="40.9908067" lon="14.4195633"><ele>38.199999999999996</ele><time>2026-04-25T10:36:13.107Z</time></trkpt><trkpt lat="40.9907067" lon="14.4195183"><ele>38.0</ele><time>2026-04-25T10:36:14.107Z</time></trkpt><trkpt lat="40.9906083" lon="14.4194817"><ele>38.0</ele><time>2026-04-25T10:36:15.107Z</time></trkpt><trkpt lat="40.9905217" lon="14.4194483"><ele>38.0</ele><time>2026-04-25T10:36:16.107Z</time></trkpt><trkpt lat="40.9904433" lon="14.4194133"><ele>38.0</ele><time>2026-04-25T10:36:17.107Z</time></trkpt><trkpt lat="40.9903667" lon="14.4193867"><ele>38.0</ele><time>2026-04-25T10:36:18.107Z</time></trkpt><trkpt lat="40.9903" lon="14.4193583"><ele>38.0</ele><time>2026-04-25T10:36:19.107Z</time></trkpt><trkpt lat="40.9901883" lon="14.4193283"><ele>38.0</ele><time>2026-04-25T10:36:21.107Z</time></trkpt><trkpt lat="40.990075" lon="14.4192883"><ele>38.0</ele><time>2026-04-25T10:36:23.107Z</time></trkpt><trkpt lat="40.99001" lon="14.4192533"><ele>38.0</ele><time>2026-04-25T10:36:24.107Z</time></trkpt><trkpt lat="40.989935" lon="14.41921"><ele>38.0</ele><time>2026-04-25T10:36:25.107Z</time></trkpt><trkpt lat="40.9898433" lon="14.4191767"><ele>38.0</ele><time>2026-04-25T10:36:26.107Z</time></trkpt><trkpt lat="40.9897467" lon="14.41914"><ele>38.0</ele><time>2026-04-25T10:36:27.107Z</time></trkpt><trkpt lat="40.9896467" lon="14.4191033"><ele>38.5</ele><time>2026-04-25T10:36:28.107Z</time></trkpt><trkpt lat="40.9895417" lon="14.4190617"><ele>39.0</ele><time>2026-04-25T10:36:29.107Z</time></trkpt><trkpt lat="40.9894333" lon="14.419025"><ele>39.5</ele><time>2026-04-25T10:36:30.107Z</time></trkpt><trkpt lat="40.9893233" lon="14.4189883"><ele>40.0</ele><time>2026-04-25T10:36:31.107Z</time></trkpt><trkpt lat="40.9892067" lon="14.418955"><ele>39.75</ele><time>2026-04-25T10:36:32.107Z</time></trkpt><trkpt lat="40.98909" lon="14.418925"><ele>39.5</ele><time>2026-04-25T10:36:33.107Z</time></trkpt><trkpt lat="40.9889767" lon="14.4188917"><ele>39.25</ele><time>2026-04-25T10:36:34.108Z</time></trkpt><trkpt lat="40.9888617" lon="14.418855"><ele>39.0</ele><time>2026-04-25T10:36:35.107Z</time></trkpt><trkpt lat="40.9887517" lon="14.418825"><ele>39.0</ele><time>2026-04-25T10:36:36.107Z</time></trkpt><trkpt lat="40.9886417" lon="14.4187917"><ele>39.0</ele><time>2026-04-25T10:36:37.107Z</time></trkpt><trkpt lat="40.9885367" lon="14.4187567"><ele>39.0</ele><time>2026-04-25T10:36:38.107Z</time></trkpt><trkpt lat="40.98843" lon="14.4187117"><ele>39.0</ele><time>2026-04-25T10:36:39.107Z</time></trkpt><trkpt lat="40.98832" lon="14.41868"><ele>39.0</ele><time>2026-04-25T10:36:40.107Z</time></trkpt><trkpt lat="40.98822" lon="14.4186533"><ele>39.0</ele><time>2026-04-25T10:36:41.107Z</time></trkpt><trkpt lat="40.9881267" lon="14.4186283"><ele>39.0</ele><time>2026-04-25T10:36:42.107Z</time></trkpt><trkpt lat="40.988035" lon="14.4186033"><ele>39.0</ele><time>2026-04-25T10:36:43.107Z</time></trkpt><trkpt lat="40.987945" lon="14.4185717"><ele>39.0</ele><time>2026-04-25T10:36:44.107Z</time></trkpt><trkpt lat="40.9878467" lon="14.41854"><ele>39.0</ele><time>2026-04-25T10:36:45.107Z</time></trkpt><trkpt lat="40.9877417" lon="14.4185033"><ele>39.0</ele><time>2026-04-25T10:36:46.107Z</time></trkpt><trkpt lat="40.987625" lon="14.4184667"><ele>39.0</ele><time>2026-04-25T10:36:47.107Z</time></trkpt><trkpt lat="40.9875067" lon="14.4184233"><ele>39.0</ele><time>2026-04-25T10:36:48.107Z</time></trkpt><trkpt lat="40.9873883" lon="14.4183917"><ele>39.0</ele><time>2026-04-25T10:36:49.107Z</time></trkpt><trkpt lat="40.9872633" lon="14.418345"><ele>39.25</ele><time>2026-04-25T10:36:50.107Z</time></trkpt><trkpt lat="40.98714" lon="14.418315"><ele>39.5</ele><time>2026-04-25T10:36:51.107Z</time></trkpt><trkpt lat="40.987015" lon="14.4182767"><ele>39.75</ele><time>2026-04-25T10:36:52.107Z</time></trkpt><trkpt lat="40.9868883" lon="14.4182283"><ele>40.0</ele><time>2026-04-25T10:36:53.107Z</time></trkpt><trkpt lat="40.986765" lon="14.41818"><ele>39.5</ele><time>2026-04-25T10:36:54.107Z</time></trkpt><trkpt lat="40.9866417" lon="14.4181333"><ele>39.0</ele><time>2026-04-25T10:36:55.107Z</time></trkpt><trkpt lat="40.98652" lon="14.4180867"><ele>38.5</ele><time>2026-04-25T10:36:56.107Z</time></trkpt><trkpt lat="40.9864017" lon="14.4180383"><ele>38.0</ele><time>2026-04-25T10:36:57.107Z</time></trkpt><trkpt lat="40.9862833" lon="14.417995"><ele>38.0</ele><time>2026-04-25T10:36:58.107Z</time></trkpt><trkpt lat="40.986165" lon="14.4179533"><ele>38.0</ele><time>2026-04-25T10:36:59.107Z</time></trkpt><trkpt lat="40.9860433" lon="14.4179083"><ele>38.0</ele><time>2026-04-25T10:37:00.107Z</time></trkpt><trkpt lat="40.9859217" lon="14.4178633"><ele>38.0</ele><time>2026-04-25T10:37:01.107Z</time></trkpt><trkpt lat="40.9858117" lon="14.4178183"><ele>38.0</ele><time>2026-04-25T10:37:02.107Z</time></trkpt><trkpt lat="40.9857033" lon="14.417775"><ele>38.0</ele><time>2026-04-25T10:37:03.107Z</time></trkpt><trkpt lat="40.9855983" lon="14.4177383"><ele>38.0</ele><time>2026-04-25T10:37:04.107Z</time></trkpt><trkpt lat="40.9854933" lon="14.4177"><ele>38.0</ele><time>2026-04-25T10:37:05.107Z</time></trkpt><trkpt lat="40.9853833" lon="14.4176567"><ele>38.0</ele><time>2026-04-25T10:37:06.107Z</time></trkpt><trkpt lat="40.9852733" lon="14.417605"><ele>38.0</ele><time>2026-04-25T10:37:07.107Z</time></trkpt><trkpt lat="40.9851617" lon="14.4175583"><ele>38.0</ele><time>2026-04-25T10:37:08.108Z</time></trkpt><trkpt lat="40.9850467" lon="14.417505"><ele>38.0</ele><time>2026-04-25T10:37:09.107Z</time></trkpt><trkpt lat="40.98493" lon="14.4174533"><ele>38.0</ele><time>2026-04-25T10:37:10.107Z</time></trkpt><trkpt lat="40.9848117" lon="14.417405"><ele>37.5</ele><time>2026-04-25T10:37:11.107Z</time></trkpt><trkpt lat="40.9846883" lon="14.417365"><ele>37.0</ele><time>2026-04-25T10:37:12.107Z</time></trkpt><trkpt lat="40.9845683" lon="14.4173233"><ele>36.5</ele><time>2026-04-25T10:37:13.107Z</time></trkpt><trkpt lat="40.98445" lon="14.417275"><ele>36.0</ele><time>2026-04-25T10:37:14.107Z</time></trkpt><trkpt lat="40.9843317" lon="14.4172183"><ele>36.0</ele><time>2026-04-25T10:37:15.107Z</time></trkpt><trkpt lat="40.9842083" lon="14.4171533"><ele>36.0</ele><time>2026-04-25T10:37:16.107Z</time></trkpt><trkpt lat="40.9840533" lon="14.4171433"><ele>36.0</ele><time>2026-04-25T10:37:17.107Z</time></trkpt><trkpt lat="40.9839017" lon="14.4170817"><ele>36.0</ele><time>2026-04-25T10:37:18.107Z</time></trkpt><trkpt lat="40.98375" lon="14.4170317"><ele>35.75</ele><time>2026-04-25T10:37:19.107Z</time></trkpt><trkpt lat="40.9836183" lon="14.4169817"><ele>35.5</ele><time>2026-04-25T10:37:20.107Z</time></trkpt><trkpt lat="40.98349" lon="14.4169267"><ele>35.25</ele><time>2026-04-25T10:37:21.107Z</time></trkpt><trkpt lat="40.9833683" lon="14.4168767"><ele>35.0</ele><time>2026-04-25T10:37:22.107Z</time></trkpt><trkpt lat="40.9832417" lon="14.41683"><ele>34.25</ele><time>2026-04-25T10:37:23.107Z</time></trkpt><trkpt lat="40.9831117" lon="14.41678"><ele>33.5</ele><time>2026-04-25T10:37:24.107Z</time></trkpt><trkpt lat="40.9829833" lon="14.4167283"><ele>32.75</ele><time>2026-04-25T10:37:25.107Z</time></trkpt><trkpt lat="40.9828533" lon="14.416675"><ele>32.0</ele><time>2026-04-25T10:37:26.107Z</time></trkpt><trkpt lat="40.9827217" lon="14.41663"><ele>32.0</ele><time>2026-04-25T10:37:27.107Z</time></trkpt><trkpt lat="40.98259" lon="14.416575"><ele>32.0</ele><time>2026-04-25T10:37:28.107Z</time></trkpt><trkpt lat="40.9824583" lon="14.41653"><ele>32.0</ele><time>2026-04-25T10:37:29.107Z</time></trkpt><trkpt lat="40.9823217" lon="14.4164883"><ele>32.0</ele><time>2026-04-25T10:37:30.107Z</time></trkpt><trkpt lat="40.9821917" lon="14.416445"><ele>32.25</ele><time>2026-04-25T10:37:31.107Z</time></trkpt><trkpt lat="40.98207" lon="14.4164133"><ele>32.5</ele><time>2026-04-25T10:37:32.107Z</time></trkpt><trkpt lat="40.9819533" lon="14.416365"><ele>32.75</ele><time>2026-04-25T10:37:33.107Z</time></trkpt><trkpt lat="40.9818383" lon="14.4163133"><ele>33.0</ele><time>2026-04-25T10:37:34.107Z</time></trkpt><trkpt lat="40.9816967" lon="14.41626"><ele>33.25</ele><time>2026-04-25T10:37:35.107Z</time></trkpt><trkpt lat="40.98157" lon="14.4162183"><ele>33.5</ele><time>2026-04-25T10:37:36.107Z</time></trkpt><trkpt lat="40.9814467" lon="14.4161783"><ele>33.75</ele><time>2026-04-25T10:37:37.107Z</time></trkpt><trkpt lat="40.9813183" lon="14.41613"><ele>34.0</ele><time>2026-04-25T10:37:38.107Z</time></trkpt><trkpt lat="40.9811883" lon="14.41608"><ele>34.0</ele><time>2026-04-25T10:37:39.107Z</time></trkpt><trkpt lat="40.9810583" lon="14.4160283"><ele>34.0</ele><time>2026-04-25T10:37:40.107Z</time></trkpt><trkpt lat="40.9809233" lon="14.41597"><ele>34.0</ele><time>2026-04-25T10:37:41.107Z</time></trkpt><trkpt lat="40.980795" lon="14.4159167"><ele>34.0</ele><time>2026-04-25T10:37:42.107Z</time></trkpt><trkpt lat="40.9806633" lon="14.41587"><ele>33.75</ele><time>2026-04-25T10:37:43.108Z</time></trkpt><trkpt lat="40.9805283" lon="14.4158233"><ele>33.5</ele><time>2026-04-25T10:37:44.107Z</time></trkpt><trkpt lat="40.9803933" lon="14.4157717"><ele>33.25</ele><time>2026-04-25T10:37:45.107Z</time></trkpt><trkpt lat="40.9802583" lon="14.4157233"><ele>33.0</ele><time>2026-04-25T10:37:46.107Z</time></trkpt><trkpt lat="40.980115" lon="14.415675"><ele>32.666666666666664</ele><time>2026-04-25T10:37:47.107Z</time></trkpt><trkpt lat="40.979965" lon="14.415625"><ele>32.33333333333333</ele><time>2026-04-25T10:37:48.107Z</time></trkpt><trkpt lat="40.9798183" lon="14.4155683"><ele>32.0</ele><time>2026-04-25T10:37:49.107Z</time></trkpt><trkpt lat="40.979675" lon="14.4155117"><ele>31.75</ele><time>2026-04-25T10:37:50.107Z</time></trkpt><trkpt lat="40.9795367" lon="14.415455"><ele>31.5</ele><time>2026-04-25T10:37:51.107Z</time></trkpt><trkpt lat="40.9794033" lon="14.4154033"><ele>31.25</ele><time>2026-04-25T10:37:52.108Z</time></trkpt><trkpt lat="40.9792783" lon="14.41536"><ele>31.0</ele><time>2026-04-25T10:37:53.107Z</time></trkpt><trkpt lat="40.97915" lon="14.4153183"><ele>30.75</ele><time>2026-04-25T10:37:54.107Z</time></trkpt><trkpt lat="40.979025" lon="14.41527"><ele>30.5</ele><time>2026-04-25T10:37:55.107Z</time></trkpt><trkpt lat="40.9788933" lon="14.4152183"><ele>30.25</ele><time>2026-04-25T10:37:56.107Z</time></trkpt><trkpt lat="40.9787667" lon="14.415175"><ele>30.0</ele><time>2026-04-25T10:37:57.107Z</time></trkpt><trkpt lat="40.9786483" lon="14.41513"><ele>30.0</ele><time>2026-04-25T10:37:58.107Z</time></trkpt><trkpt lat="40.9785317" lon="14.415085"><ele>30.0</ele><time>2026-04-25T10:37:59.107Z</time></trkpt><trkpt lat="40.97842" lon="14.4150417"><ele>30.0</ele><time>2026-04-25T10:38:00.107Z</time></trkpt><trkpt lat="40.978315" lon="14.4150033"><ele>30.0</ele><time>2026-04-25T10:38:01.107Z</time></trkpt><trkpt lat="40.9782133" lon="14.4149633"><ele>30.2</ele><time>2026-04-25T10:38:02.107Z</time></trkpt><trkpt lat="40.97811" lon="14.4149317"><ele>30.4</ele><time>2026-04-25T10:38:03.107Z</time></trkpt><trkpt lat="40.97801" lon="14.414895"><ele>30.6</ele><time>2026-04-25T10:38:04.107Z</time></trkpt><trkpt lat="40.977905" lon="14.4148633"><ele>30.8</ele><time>2026-04-25T10:38:05.107Z</time></trkpt><trkpt lat="40.977805" lon="14.4148283"><ele>31.0</ele><time>2026-04-25T10:38:06.107Z</time></trkpt><trkpt lat="40.9777117" lon="14.4147933"><ele>31.0</ele><time>2026-04-25T10:38:07.107Z</time></trkpt><trkpt lat="40.977615" lon="14.4147533"><ele>31.0</ele><time>2026-04-25T10:38:08.107Z</time></trkpt><trkpt lat="40.9775217" lon="14.4147183"><ele>31.0</ele><time>2026-04-25T10:38:09.107Z</time></trkpt><trkpt lat="40.9774333" lon="14.414685"><ele>31.0</ele><time>2026-04-25T10:38:10.107Z</time></trkpt><trkpt lat="40.9773517" lon="14.4146533"><ele>31.0</ele><time>2026-04-25T10:38:11.107Z</time></trkpt><trkpt lat="40.977275" lon="14.414625"><ele>31.166666666666668</ele><time>2026-04-25T10:38:12.107Z</time></trkpt><trkpt lat="40.9772033" lon="14.4146"><ele>31.333333333333336</ele><time>2026-04-25T10:38:13.108Z</time></trkpt><trkpt lat="40.9771317" lon="14.4145783"><ele>31.5</ele><time>2026-04-25T10:38:14.107Z</time></trkpt><trkpt lat="40.9770667" lon="14.414555"><ele>31.666666666666664</ele><time>2026-04-25T10:38:15.107Z</time></trkpt><trkpt lat="40.9769567" lon="14.41451"><ele>31.833333333333332</ele><time>2026-04-25T10:38:17.107Z</time></trkpt><trkpt lat="40.976875" lon="14.4144817"><ele>32.0</ele><time>2026-04-25T10:38:19.107Z</time></trkpt><trkpt lat="40.9768083" lon="14.4144483"><ele>31.999999999999996</ele><time>2026-04-25T10:38:21.107Z</time></trkpt><trkpt lat="40.9767317" lon="14.4144233"><ele>32.0</ele><time>2026-04-25T10:38:24.107Z</time></trkpt><trkpt lat="40.97667" lon="14.414395"><ele>32.0</ele><time>2026-04-25T10:38:28.107Z</time></trkpt><trkpt lat="40.97659" lon="14.4143633"><ele>32.0</ele><time>2026-04-25T10:38:46.107Z</time></trkpt><trkpt lat="40.9764633" lon="14.41432"><ele>31.999999999999996</ele><time>2026-04-25T10:38:48.107Z</time></trkpt><trkpt lat="40.9763867" lon="14.4142933"><ele>32.0</ele><time>2026-04-25T10:38:49.107Z</time></trkpt><trkpt lat="40.97631" lon="14.4142633"><ele>31.833333333333332</ele><time>2026-04-25T10:38:50.107Z</time></trkpt><trkpt lat="40.97624" lon="14.414235"><ele>31.666666666666664</ele><time>2026-04-25T10:38:51.107Z</time></trkpt><trkpt lat="40.9761817" lon="14.4141933"><ele>31.5</ele><time>2026-04-25T10:38:52.107Z</time></trkpt><trkpt lat="40.9761317" lon="14.4140517"><ele>31.333333333333336</ele><time>2026-04-25T10:38:54.107Z</time></trkpt><trkpt lat="40.9761367" lon="14.413955"><ele>31.166666666666668</ele><time>2026-04-25T10:38:55.107Z</time></trkpt><trkpt lat="40.9761583" lon="14.4138317"><ele>31.0</ele><time>2026-04-25T10:38:56.107Z</time></trkpt><trkpt lat="40.976195" lon="14.4136883"><ele>30.8</ele><time>2026-04-25T10:38:57.107Z</time></trkpt><trkpt lat="40.97623" lon="14.4135333"><ele>30.6</ele><time>2026-04-25T10:38:58.107Z</time></trkpt><trkpt lat="40.9762683" lon="14.4133817"><ele>30.4</ele><time>2026-04-25T10:38:59.107Z</time></trkpt><trkpt lat="40.9763083" lon="14.4132467"><ele>30.2</ele><time>2026-04-25T10:39:00.107Z</time></trkpt><trkpt lat="40.9763417" lon="14.4131333"><ele>30.0</ele><time>2026-04-25T10:39:01.107Z</time></trkpt><trkpt lat="40.9763667" lon="14.41304"><ele>29.833333333333332</ele><time>2026-04-25T10:39:02.107Z</time></trkpt><trkpt lat="40.97639" lon="14.412955"><ele>29.666666666666664</ele><time>2026-04-25T10:39:03.107Z</time></trkpt><trkpt lat="40.9764183" lon="14.41287"><ele>29.5</ele><time>2026-04-25T10:39:04.107Z</time></trkpt><trkpt lat="40.9764483" lon="14.4127667"><ele>29.333333333333332</ele><time>2026-04-25T10:39:05.107Z</time></trkpt><trkpt lat="40.9764867" lon="14.41265"><ele>29.166666666666664</ele><time>2026-04-25T10:39:06.107Z</time></trkpt><trkpt lat="40.9765267" lon="14.4125183"><ele>29.0</ele><time>2026-04-25T10:39:07.107Z</time></trkpt><trkpt lat="40.9765633" lon="14.4123617"><ele>29.0</ele><time>2026-04-25T10:39:08.107Z</time></trkpt><trkpt lat="40.9766117" lon="14.4121833"><ele>29.0</ele><time>2026-04-25T10:39:09.107Z</time></trkpt><trkpt lat="40.97667" lon="14.4119683"><ele>29.0</ele><time>2026-04-25T10:39:10.107Z</time></trkpt><trkpt lat="40.9767317" lon="14.4117533"><ele>28.666666666666664</ele><time>2026-04-25T10:39:11.107Z</time></trkpt><trkpt lat="40.9767967" lon="14.41152"><ele>28.333333333333336</ele><time>2026-04-25T10:39:12.108Z</time></trkpt><trkpt lat="40.97687" lon="14.4112817"><ele>28.0</ele><time>2026-04-25T10:39:13.107Z</time></trkpt><trkpt lat="40.976945" lon="14.4110267"><ele>28.0</ele><time>2026-04-25T10:39:14.107Z</time></trkpt><trkpt lat="40.9770217" lon="14.410765"><ele>28.0</ele><time>2026-04-25T10:39:15.107Z</time></trkpt><trkpt lat="40.977105" lon="14.4105"><ele>28.0</ele><time>2026-04-25T10:39:16.107Z</time></trkpt><trkpt lat="40.9771867" lon="14.410235"><ele>28.0</ele><time>2026-04-25T10:39:17.107Z</time></trkpt><trkpt lat="40.9772617" lon="14.4099917"><ele>28.0</ele><time>2026-04-25T10:39:18.107Z</time></trkpt><trkpt lat="40.977335" lon="14.40976"><ele>28.0</ele><time>2026-04-25T10:39:19.107Z</time></trkpt><trkpt lat="40.9774083" lon="14.40953"><ele>28.333333333333336</ele><time>2026-04-25T10:39:20.107Z</time></trkpt><trkpt lat="40.9774883" lon="14.4092933"><ele>28.666666666666664</ele><time>2026-04-25T10:39:21.107Z</time></trkpt><trkpt lat="40.9775717" lon="14.40905"><ele>29.0</ele><time>2026-04-25T10:39:22.107Z</time></trkpt><trkpt lat="40.97766" lon="14.4088067"><ele>29.333333333333332</ele><time>2026-04-25T10:39:23.107Z</time></trkpt><trkpt lat="40.9777467" lon="14.408555"><ele>29.666666666666664</ele><time>2026-04-25T10:39:24.107Z</time></trkpt><trkpt lat="40.9778333" lon="14.408315"><ele>30.0</ele><time>2026-04-25T10:39:25.108Z</time></trkpt><trkpt lat="40.9779183" lon="14.4080817"><ele>29.666666666666664</ele><time>2026-04-25T10:39:26.107Z</time></trkpt><trkpt lat="40.978" lon="14.407845"><ele>29.333333333333332</ele><time>2026-04-25T10:39:27.107Z</time></trkpt><trkpt lat="40.9780817" lon="14.4075933"><ele>29.0</ele><time>2026-04-25T10:39:28.107Z</time></trkpt><trkpt lat="40.97818" lon="14.407335"><ele>29.0</ele><time>2026-04-25T10:39:29.108Z</time></trkpt><trkpt lat="40.978275" lon="14.4070717"><ele>29.0</ele><time>2026-04-25T10:39:30.108Z</time></trkpt><trkpt lat="40.9783767" lon="14.4068"><ele>29.0</ele><time>2026-04-25T10:39:31.107Z</time></trkpt><trkpt lat="40.9784767" lon="14.4065167"><ele>28.0</ele><time>2026-04-25T10:39:32.107Z</time></trkpt><trkpt lat="40.9785733" lon="14.406235"><ele>27.0</ele><time>2026-04-25T10:39:33.107Z</time></trkpt><trkpt lat="40.9786667" lon="14.4059583"><ele>27.0</ele><time>2026-04-25T10:39:34.107Z</time></trkpt><trkpt lat="40.9787533" lon="14.405685"><ele>27.0</ele><time>2026-04-25T10:39:35.107Z</time></trkpt><trkpt lat="40.978845" lon="14.4054067"><ele>27.0</ele><time>2026-04-25T10:39:36.107Z</time></trkpt><trkpt lat="40.9789283" lon="14.4051433"><ele>27.0</ele><time>2026-04-25T10:39:37.107Z</time></trkpt><trkpt lat="40.9790117" lon="14.40488"><ele>27.0</ele><time>2026-04-25T10:39:38.107Z</time></trkpt><trkpt lat="40.9790917" lon="14.4046183"><ele>27.0</ele><time>2026-04-25T10:39:39.107Z</time></trkpt><trkpt lat="40.97917" lon="14.4043617"><ele>27.0</ele><time>2026-04-25T10:39:40.107Z</time></trkpt><trkpt lat="40.9792467" lon="14.40411"><ele>27.0</ele><time>2026-04-25T10:39:41.107Z</time></trkpt><trkpt lat="40.979315" lon="14.4038683"><ele>26.666666666666664</ele><time>2026-04-25T10:39:42.107Z</time></trkpt><trkpt lat="40.9793833" lon="14.40365"><ele>26.333333333333332</ele><time>2026-04-25T10:39:43.107Z</time></trkpt><trkpt lat="40.9794467" lon="14.4034417"><ele>26.0</ele><time>2026-04-25T10:39:44.107Z</time></trkpt><trkpt lat="40.9795083" lon="14.4032533"><ele>26.0</ele><time>2026-04-25T10:39:45.107Z</time></trkpt><trkpt lat="40.979575" lon="14.4030717"><ele>26.0</ele><time>2026-04-25T10:39:46.107Z</time></trkpt><trkpt lat="40.9796617" lon="14.4028983"><ele>26.0</ele><time>2026-04-25T10:39:47.107Z</time></trkpt><trkpt lat="40.97977" lon="14.402735"><ele>26.666666666666664</ele><time>2026-04-25T10:39:48.107Z</time></trkpt><trkpt lat="40.9798983" lon="14.4025783"><ele>27.333333333333336</ele><time>2026-04-25T10:39:49.107Z</time></trkpt><trkpt lat="40.9800317" lon="14.4024083"><ele>28.0</ele><time>2026-04-25T10:39:50.107Z</time></trkpt><trkpt lat="40.9801717" lon="14.4022283"><ele>28.0</ele><time>2026-04-25T10:39:51.107Z</time></trkpt><trkpt lat="40.9803083" lon="14.40205"><ele>28.0</ele><time>2026-04-25T10:39:52.107Z</time></trkpt><trkpt lat="40.9804383" lon="14.4018867"><ele>28.0</ele><time>2026-04-25T10:39:53.108Z</time></trkpt><trkpt lat="40.98056" lon="14.4017267"><ele>28.0</ele><time>2026-04-25T10:39:54.107Z</time></trkpt><trkpt lat="40.9806767" lon="14.401585"><ele>28.0</ele><time>2026-04-25T10:39:55.107Z</time></trkpt><trkpt lat="40.9807883" lon="14.4014533"><ele>28.0</ele><time>2026-04-25T10:39:56.107Z</time></trkpt><trkpt lat="40.9808817" lon="14.4013483"><ele>28.0</ele><time>2026-04-25T10:39:57.107Z</time></trkpt><trkpt lat="40.9809583" lon="14.4012567"><ele>27.799999999999997</ele><time>2026-04-25T10:39:58.107Z</time></trkpt><trkpt lat="40.9810267" lon="14.401175"><ele>27.599999999999998</ele><time>2026-04-25T10:39:59.107Z</time></trkpt><trkpt lat="40.9810833" lon="14.4011083"><ele>27.400000000000002</ele><time>2026-04-25T10:40:00.107Z</time></trkpt><trkpt lat="40.9811617" lon="14.4009967"><ele>27.200000000000003</ele><time>2026-04-25T10:40:02.107Z</time></trkpt><trkpt lat="40.98118" lon="14.400885"><ele>27.0</ele><time>2026-04-25T10:40:04.107Z</time></trkpt><trkpt lat="40.9811183" lon="14.4007767"><ele>27.0</ele><time>2026-04-25T10:40:06.107Z</time></trkpt><trkpt lat="40.9810567" lon="14.4006967"><ele>27.0</ele><time>2026-04-25T10:40:07.107Z</time></trkpt><trkpt lat="40.9809783" lon="14.400595"><ele>27.0</ele><time>2026-04-25T10:40:08.108Z</time></trkpt><trkpt lat="40.9808867" lon="14.4004617"><ele>27.0</ele><time>2026-04-25T10:40:09.107Z</time></trkpt><trkpt lat="40.98079" lon="14.4003133"><ele>27.0</ele><time>2026-04-25T10:40:10.107Z</time></trkpt><trkpt lat="40.9806933" lon="14.4001733"><ele>27.0</ele><time>2026-04-25T10:40:11.108Z</time></trkpt><trkpt lat="40.9805967" lon="14.400025"><ele>27.0</ele><time>2026-04-25T10:40:12.107Z</time></trkpt><trkpt lat="40.9805067" lon="14.39988"><ele>27.0</ele><time>2026-04-25T10:40:13.107Z</time></trkpt><trkpt lat="40.9804117" lon="14.39973"><ele>26.5</ele><time>2026-04-25T10:40:14.107Z</time></trkpt><trkpt lat="40.9803133" lon="14.39958"><ele>26.0</ele><time>2026-04-25T10:40:15.108Z</time></trkpt><trkpt lat="40.980215" lon="14.3994333"><ele>25.5</ele><time>2026-04-25T10:40:16.107Z</time></trkpt><trkpt lat="40.9801233" lon="14.3993"><ele>25.0</ele><time>2026-04-25T10:40:17.107Z</time></trkpt><trkpt lat="40.9800483" lon="14.3991817"><ele>25.2</ele><time>2026-04-25T10:40:18.107Z</time></trkpt><trkpt lat="40.9799817" lon="14.3990817"><ele>25.4</ele><time>2026-04-25T10:40:19.107Z</time></trkpt><trkpt lat="40.97991" lon="14.398975"><ele>25.6</ele><time>2026-04-25T10:40:20.107Z</time></trkpt><trkpt lat="40.9798383" lon="14.39886"><ele>25.8</ele><time>2026-04-25T10:40:21.107Z</time></trkpt><trkpt lat="40.97976" lon="14.3987417"><ele>26.0</ele><time>2026-04-25T10:40:22.107Z</time></trkpt><trkpt lat="40.9796833" lon="14.39862"><ele>26.0</ele><time>2026-04-25T10:40:23.107Z</time></trkpt><trkpt lat="40.979605" lon="14.3985"><ele>26.0</ele><time>2026-04-25T10:40:24.107Z</time></trkpt><trkpt lat="40.9795233" lon="14.3983783"><ele>26.0</ele><time>2026-04-25T10:40:25.107Z</time></trkpt><trkpt lat="40.9794367" lon="14.3982583"><ele>26.0</ele><time>2026-04-25T10:40:26.107Z</time></trkpt><trkpt lat="40.9793483" lon="14.398125"><ele>26.0</ele><time>2026-04-25T10:40:27.107Z</time></trkpt><trkpt lat="40.9792617" lon="14.3979883"><ele>26.0</ele><time>2026-04-25T10:40:28.107Z</time></trkpt><trkpt lat="40.9791717" lon="14.3978533"><ele>26.0</ele><time>2026-04-25T10:40:29.108Z</time></trkpt><trkpt lat="40.97908" lon="14.3977117"><ele>26.0</ele><time>2026-04-25T10:40:30.107Z</time></trkpt><trkpt lat="40.9789867" lon="14.3975783"><ele>25.75</ele><time>2026-04-25T10:40:31.107Z</time></trkpt><trkpt lat="40.978895" lon="14.3974383"><ele>25.5</ele><time>2026-04-25T10:40:32.107Z</time></trkpt><trkpt lat="40.9788" lon="14.3972917"><ele>25.25</ele><time>2026-04-25T10:40:33.107Z</time></trkpt><trkpt lat="40.9787067" lon="14.3971517"><ele>25.0</ele><time>2026-04-25T10:40:34.107Z</time></trkpt><trkpt lat="40.9786117" lon="14.3970183"><ele>24.5</ele><time>2026-04-25T10:40:35.107Z</time></trkpt><trkpt lat="40.9785267" lon="14.3968917"><ele>24.0</ele><time>2026-04-25T10:40:36.107Z</time></trkpt><trkpt lat="40.9784483" lon="14.39677"><ele>23.5</ele><time>2026-04-25T10:40:37.107Z</time></trkpt><trkpt lat="40.978375" lon="14.3966467"><ele>23.0</ele><time>2026-04-25T10:40:38.107Z</time></trkpt><trkpt lat="40.9782983" lon="14.3965317"><ele>24.0</ele><time>2026-04-25T10:40:39.107Z</time></trkpt><trkpt lat="40.978215" lon="14.3964167"><ele>25.0</ele><time>2026-04-25T10:40:40.107Z</time></trkpt><trkpt lat="40.9781317" lon="14.39629"><ele>26.0</ele><time>2026-04-25T10:40:41.107Z</time></trkpt><trkpt lat="40.978045" lon="14.396155"><ele>27.0</ele><time>2026-04-25T10:40:42.107Z</time></trkpt><trkpt lat="40.9779483" lon="14.3960083"><ele>27.0</ele><time>2026-04-25T10:40:43.107Z</time></trkpt><trkpt lat="40.9778517" lon="14.3958567"><ele>27.0</ele><time>2026-04-25T10:40:44.107Z</time></trkpt><trkpt lat="40.9777517" lon="14.3957"><ele>27.0</ele><time>2026-04-25T10:40:45.107Z</time></trkpt><trkpt lat="40.977645" lon="14.3955333"><ele>26.666666666666664</ele><time>2026-04-25T10:40:46.107Z</time></trkpt><trkpt lat="40.977535" lon="14.3953683"><ele>26.333333333333332</ele><time>2026-04-25T10:40:47.107Z</time></trkpt><trkpt lat="40.97741" lon="14.395185"><ele>26.0</ele><time>2026-04-25T10:40:48.107Z</time></trkpt><trkpt lat="40.977285" lon="14.394995"><ele>25.666666666666664</ele><time>2026-04-25T10:40:49.107Z</time></trkpt><trkpt lat="40.9771517" lon="14.3948017"><ele>25.333333333333336</ele><time>2026-04-25T10:40:50.107Z</time></trkpt><trkpt lat="40.97703" lon="14.39462"><ele>25.0</ele><time>2026-04-25T10:40:51.107Z</time></trkpt><trkpt lat="40.97691" lon="14.394435"><ele>24.666666666666668</ele><time>2026-04-25T10:40:52.107Z</time></trkpt><trkpt lat="40.9767883" lon="14.3942483"><ele>24.333333333333336</ele><time>2026-04-25T10:40:53.108Z</time></trkpt><trkpt lat="40.9766667" lon="14.3940633"><ele>24.0</ele><time>2026-04-25T10:40:54.107Z</time></trkpt><trkpt lat="40.9765433" lon="14.3938783"><ele>24.0</ele><time>2026-04-25T10:40:55.107Z</time></trkpt><trkpt lat="40.9764217" lon="14.3937"><ele>24.0</ele><time>2026-04-25T10:40:56.107Z</time></trkpt><trkpt lat="40.9763" lon="14.393515"><ele>24.0</ele><time>2026-04-25T10:40:57.107Z</time></trkpt><trkpt lat="40.97618" lon="14.3933367"><ele>24.0</ele><time>2026-04-25T10:40:58.107Z</time></trkpt><trkpt lat="40.976065" lon="14.3931583"><ele>24.0</ele><time>2026-04-25T10:40:59.107Z</time></trkpt><trkpt lat="40.9759433" lon="14.3929833"><ele>24.0</ele><time>2026-04-25T10:41:00.107Z</time></trkpt><trkpt lat="40.975825" lon="14.3928033"><ele>23.666666666666668</ele><time>2026-04-25T10:41:01.107Z</time></trkpt><trkpt lat="40.9757183" lon="14.392635"><ele>23.333333333333336</ele><time>2026-04-25T10:41:02.107Z</time></trkpt><trkpt lat="40.9756183" lon="14.3924767"><ele>23.0</ele><time>2026-04-25T10:41:03.107Z</time></trkpt><trkpt lat="40.9755183" lon="14.3923283"><ele>23.0</ele><time>2026-04-25T10:41:04.107Z</time></trkpt><trkpt lat="40.9754267" lon="14.3921817"><ele>23.0</ele><time>2026-04-25T10:41:05.107Z</time></trkpt><trkpt lat="40.9753283" lon="14.3920383"><ele>23.0</ele><time>2026-04-25T10:41:06.107Z</time></trkpt><trkpt lat="40.9752333" lon="14.3918983"><ele>23.0</ele><time>2026-04-25T10:41:07.107Z</time></trkpt><trkpt lat="40.9751383" lon="14.39176"><ele>23.5</ele><time>2026-04-25T10:41:08.107Z</time></trkpt><trkpt lat="40.975035" lon="14.39162"><ele>24.0</ele><time>2026-04-25T10:41:09.108Z</time></trkpt><trkpt lat="40.97493" lon="14.3914883"><ele>24.5</ele><time>2026-04-25T10:41:10.107Z</time></trkpt><trkpt lat="40.9748117" lon="14.391365"><ele>25.0</ele><time>2026-04-25T10:41:11.108Z</time></trkpt><trkpt lat="40.9746867" lon="14.3912517"><ele>25.25</ele><time>2026-04-25T10:41:12.107Z</time></trkpt><trkpt lat="40.9745617" lon="14.3911417"><ele>25.5</ele><time>2026-04-25T10:41:13.107Z</time></trkpt><trkpt lat="40.9744367" lon="14.3910583"><ele>25.75</ele><time>2026-04-25T10:41:14.107Z</time></trkpt><trkpt lat="40.9743233" lon="14.39099"><ele>26.0</ele><time>2026-04-25T10:41:15.107Z</time></trkpt><trkpt lat="40.974215" lon="14.3909233"><ele>26.200000000000003</ele><time>2026-04-25T10:41:16.107Z</time></trkpt><trkpt lat="40.9741083" lon="14.39087"><ele>26.400000000000002</ele><time>2026-04-25T10:41:17.108Z</time></trkpt><trkpt lat="40.97401" lon="14.3908217"><ele>26.6</ele><time>2026-04-25T10:41:18.107Z</time></trkpt><trkpt lat="40.9739167" lon="14.3907867"><ele>26.8</ele><time>2026-04-25T10:41:19.107Z</time></trkpt><trkpt lat="40.9738233" lon="14.3907467"><ele>27.0</ele><time>2026-04-25T10:41:20.107Z</time></trkpt><trkpt lat="40.9737383" lon="14.390705"><ele>27.0</ele><time>2026-04-25T10:41:21.107Z</time></trkpt><trkpt lat="40.9736633" lon="14.3906633"><ele>27.0</ele><time>2026-04-25T10:41:22.107Z</time></trkpt><trkpt lat="40.9736067" lon="14.3906233"><ele>27.0</ele><time>2026-04-25T10:41:23.107Z</time></trkpt><trkpt lat="40.9735317" lon="14.3905317"><ele>27.0</ele><time>2026-04-25T10:41:25.107Z</time></trkpt><trkpt lat="40.973435" lon="14.3904383"><ele>27.0</ele><time>2026-04-25T10:41:27.107Z</time></trkpt><trkpt lat="40.9733633" lon="14.39042"><ele>27.0</ele><time>2026-04-25T10:41:28.108Z</time></trkpt><trkpt lat="40.9732767" lon="14.3904267"><ele>26.8</ele><time>2026-04-25T10:41:29.107Z</time></trkpt><trkpt lat="40.9731817" lon="14.3904333"><ele>26.6</ele><time>2026-04-25T10:41:30.107Z</time></trkpt><trkpt lat="40.97308" lon="14.39042"><ele>26.400000000000002</ele><time>2026-04-25T10:41:31.107Z</time></trkpt><trkpt lat="40.9729767" lon="14.3903733"><ele>26.200000000000003</ele><time>2026-04-25T10:41:32.107Z</time></trkpt><trkpt lat="40.9728767" lon="14.390325"><ele>26.0</ele><time>2026-04-25T10:41:33.107Z</time></trkpt><trkpt lat="40.9727783" lon="14.39028"><ele>26.0</ele><time>2026-04-25T10:41:34.107Z</time></trkpt><trkpt lat="40.9726767" lon="14.390225"><ele>26.0</ele><time>2026-04-25T10:41:35.107Z</time></trkpt><trkpt lat="40.972575" lon="14.3901617"><ele>26.0</ele><time>2026-04-25T10:41:36.107Z</time></trkpt><trkpt lat="40.9724733" lon="14.3900883"><ele>26.0</ele><time>2026-04-25T10:41:37.107Z</time></trkpt><trkpt lat="40.97237" lon="14.390005"><ele>26.25</ele><time>2026-04-25T10:41:38.108Z</time></trkpt><trkpt lat="40.9722683" lon="14.38991"><ele>26.5</ele><time>2026-04-25T10:41:39.107Z</time></trkpt><trkpt lat="40.9721633" lon="14.3898"><ele>26.75</ele><time>2026-04-25T10:41:40.108Z</time></trkpt><trkpt lat="40.9720567" lon="14.3896817"><ele>27.0</ele><time>2026-04-25T10:41:41.107Z</time></trkpt><trkpt lat="40.971945" lon="14.3895417"><ele>27.333333333333336</ele><time>2026-04-25T10:41:42.107Z</time></trkpt><trkpt lat="40.9718333" lon="14.38938"><ele>27.666666666666668</ele><time>2026-04-25T10:41:43.108Z</time></trkpt><trkpt lat="40.9717267" lon="14.3892033"><ele>28.0</ele><time>2026-04-25T10:41:44.107Z</time></trkpt><trkpt lat="40.9716217" lon="14.389025"><ele>27.666666666666668</ele><time>2026-04-25T10:41:45.107Z</time></trkpt><trkpt lat="40.9715167" lon="14.388835"><ele>27.333333333333336</ele><time>2026-04-25T10:41:46.107Z</time></trkpt><trkpt lat="40.9714117" lon="14.3886467"><ele>27.0</ele><time>2026-04-25T10:41:47.108Z</time></trkpt><trkpt lat="40.9713133" lon="14.38846"><ele>27.0</ele><time>2026-04-25T10:41:48.107Z</time></trkpt><trkpt lat="40.9712133" lon="14.3882767"><ele>27.0</ele><time>2026-04-25T10:41:49.107Z</time></trkpt><trkpt lat="40.97111" lon="14.38809"><ele>27.0</ele><time>2026-04-25T10:41:50.107Z</time></trkpt><trkpt lat="40.97101" lon="14.3878933"><ele>26.333333333333336</ele><time>2026-04-25T10:41:51.107Z</time></trkpt><trkpt lat="40.9709133" lon="14.3877"><ele>25.666666666666668</ele><time>2026-04-25T10:41:52.107Z</time></trkpt><trkpt lat="40.9708167" lon="14.387505"><ele>25.0</ele><time>2026-04-25T10:41:53.107Z</time></trkpt><trkpt lat="40.9707217" lon="14.3873117"><ele>24.333333333333336</ele><time>2026-04-25T10:41:54.107Z</time></trkpt><trkpt lat="40.9706267" lon="14.3871183"><ele>23.666666666666668</ele><time>2026-04-25T10:41:55.107Z</time></trkpt><trkpt lat="40.9705433" lon="14.386925"><ele>23.0</ele><time>2026-04-25T10:41:56.107Z</time></trkpt><trkpt lat="40.9704617" lon="14.3867333"><ele>23.0</ele><time>2026-04-25T10:41:57.107Z</time></trkpt><trkpt lat="40.9703783" lon="14.386535"><ele>23.0</ele><time>2026-04-25T10:41:58.107Z</time></trkpt><trkpt lat="40.9702967" lon="14.3863467"><ele>23.0</ele><time>2026-04-25T10:41:59.107Z</time></trkpt><trkpt lat="40.9702183" lon="14.386155"><ele>23.0</ele><time>2026-04-25T10:42:00.107Z</time></trkpt><trkpt lat="40.9701367" lon="14.3859633"><ele>23.0</ele><time>2026-04-25T10:42:01.107Z</time></trkpt><trkpt lat="40.9700583" lon="14.385775"><ele>23.0</ele><time>2026-04-25T10:42:02.107Z</time></trkpt><trkpt lat="40.96998" lon="14.3855867"><ele>23.666666666666668</ele><time>2026-04-25T10:42:03.107Z</time></trkpt><trkpt lat="40.9699033" lon="14.385395"><ele>24.333333333333336</ele><time>2026-04-25T10:42:04.107Z</time></trkpt><trkpt lat="40.9698283" lon="14.3852083"><ele>25.0</ele><time>2026-04-25T10:42:05.107Z</time></trkpt><trkpt lat="40.9697517" lon="14.3850133"><ele>25.0</ele><time>2026-04-25T10:42:06.107Z</time></trkpt><trkpt lat="40.96968" lon="14.384825"><ele>25.0</ele><time>2026-04-25T10:42:07.107Z</time></trkpt><trkpt lat="40.96961" lon="14.3846417"><ele>25.0</ele><time>2026-04-25T10:42:08.107Z</time></trkpt><trkpt lat="40.9695433" lon="14.3844633"><ele>25.0</ele><time>2026-04-25T10:42:09.107Z</time></trkpt><trkpt lat="40.969475" lon="14.3842883"><ele>25.0</ele><time>2026-04-25T10:42:10.107Z</time></trkpt><trkpt lat="40.96941" lon="14.38411"><ele>25.0</ele><time>2026-04-25T10:42:11.107Z</time></trkpt><trkpt lat="40.9693483" lon="14.3839383"><ele>25.0</ele><time>2026-04-25T10:42:12.107Z</time></trkpt><trkpt lat="40.9692867" lon="14.3837667"><ele>25.0</ele><time>2026-04-25T10:42:13.107Z</time></trkpt><trkpt lat="40.9692283" lon="14.3835933"><ele>25.0</ele><time>2026-04-25T10:42:14.107Z</time></trkpt><trkpt lat="40.9691717" lon="14.383415"><ele>25.0</ele><time>2026-04-25T10:42:15.107Z</time></trkpt><trkpt lat="40.9691133" lon="14.3832383"><ele>25.0</ele><time>2026-04-25T10:42:16.107Z</time></trkpt><trkpt lat="40.9690567" lon="14.3830517"><ele>25.333333333333336</ele><time>2026-04-25T10:42:17.107Z</time></trkpt><trkpt lat="40.9689983" lon="14.3828567"><ele>25.666666666666664</ele><time>2026-04-25T10:42:18.107Z</time></trkpt><trkpt lat="40.968945" lon="14.3826633"><ele>26.0</ele><time>2026-04-25T10:42:19.107Z</time></trkpt><trkpt lat="40.96888" lon="14.382465"><ele>26.0</ele><time>2026-04-25T10:42:20.107Z</time></trkpt><trkpt lat="40.96882" lon="14.38226"><ele>26.0</ele><time>2026-04-25T10:42:21.107Z</time></trkpt><trkpt lat="40.9687633" lon="14.38205"><ele>26.0</ele><time>2026-04-25T10:42:22.107Z</time></trkpt><trkpt lat="40.9687033" lon="14.3818383"><ele>25.333333333333332</ele><time>2026-04-25T10:42:23.107Z</time></trkpt><trkpt lat="40.9686367" lon="14.3816267"><ele>24.666666666666664</ele><time>2026-04-25T10:42:24.107Z</time></trkpt><trkpt lat="40.9685683" lon="14.381405"><ele>24.0</ele><time>2026-04-25T10:42:25.107Z</time></trkpt><trkpt lat="40.9685017" lon="14.38118"><ele>23.666666666666668</ele><time>2026-04-25T10:42:26.107Z</time></trkpt><trkpt lat="40.96843" lon="14.3809567"><ele>23.333333333333336</ele><time>2026-04-25T10:42:27.107Z</time></trkpt><trkpt lat="40.9683533" lon="14.3807217"><ele>23.0</ele><time>2026-04-25T10:42:28.107Z</time></trkpt><trkpt lat="40.96828" lon="14.38048"><ele>23.666666666666668</ele><time>2026-04-25T10:42:29.107Z</time></trkpt><trkpt lat="40.968205" lon="14.38024"><ele>24.333333333333336</ele><time>2026-04-25T10:42:30.107Z</time></trkpt><trkpt lat="40.9681283" lon="14.3799967"><ele>25.0</ele><time>2026-04-25T10:42:31.107Z</time></trkpt><trkpt lat="40.9680533" lon="14.3797567"><ele>24.666666666666668</ele><time>2026-04-25T10:42:32.107Z</time></trkpt><trkpt lat="40.9679783" lon="14.3795167"><ele>24.333333333333336</ele><time>2026-04-25T10:42:33.108Z</time></trkpt><trkpt lat="40.9679033" lon="14.3792767"><ele>24.0</ele><time>2026-04-25T10:42:34.107Z</time></trkpt><trkpt lat="40.9678317" lon="14.37904"><ele>23.0</ele><time>2026-04-25T10:42:35.107Z</time></trkpt><trkpt lat="40.9677567" lon="14.378805"><ele>22.0</ele><time>2026-04-25T10:42:36.107Z</time></trkpt><trkpt lat="40.967685" lon="14.3785767"><ele>21.0</ele><time>2026-04-25T10:42:37.107Z</time></trkpt><trkpt lat="40.9676133" lon="14.3783517"><ele>21.0</ele><time>2026-04-25T10:42:38.108Z</time></trkpt><trkpt lat="40.9675433" lon="14.3781217"><ele>21.0</ele><time>2026-04-25T10:42:39.107Z</time></trkpt><trkpt lat="40.9674767" lon="14.3779"><ele>21.0</ele><time>2026-04-25T10:42:40.107Z</time></trkpt><trkpt lat="40.967405" lon="14.3776833"><ele>21.333333333333332</ele><time>2026-04-25T10:42:41.107Z</time></trkpt><trkpt lat="40.9673417" lon="14.3774683"><ele>21.666666666666664</ele><time>2026-04-25T10:42:42.107Z</time></trkpt><trkpt lat="40.9672817" lon="14.377265"><ele>22.0</ele><time>2026-04-25T10:42:43.107Z</time></trkpt><trkpt lat="40.96722" lon="14.3770767"><ele>22.0</ele><time>2026-04-25T10:42:44.107Z</time></trkpt><trkpt lat="40.9671617" lon="14.3768967"><ele>22.0</ele><time>2026-04-25T10:42:45.107Z</time></trkpt><trkpt lat="40.9671083" lon="14.376725"><ele>22.0</ele><time>2026-04-25T10:42:46.107Z</time></trkpt><trkpt lat="40.96706" lon="14.3765683"><ele>22.0</ele><time>2026-04-25T10:42:47.107Z</time></trkpt><trkpt lat="40.9670117" lon="14.37641"><ele>22.5</ele><time>2026-04-25T10:42:48.107Z</time></trkpt><trkpt lat="40.9669583" lon="14.3762483"><ele>23.0</ele><time>2026-04-25T10:42:49.107Z</time></trkpt><trkpt lat="40.9669" lon="14.3760883"><ele>23.5</ele><time>2026-04-25T10:42:50.107Z</time></trkpt><trkpt lat="40.96684" lon="14.3759317"><ele>24.0</ele><time>2026-04-25T10:42:51.107Z</time></trkpt><trkpt lat="40.9667767" lon="14.375775"><ele>24.0</ele><time>2026-04-25T10:42:52.107Z</time></trkpt><trkpt lat="40.9667117" lon="14.375615"><ele>24.0</ele><time>2026-04-25T10:42:53.107Z</time></trkpt><trkpt lat="40.9666367" lon="14.3754617"><ele>24.0</ele><time>2026-04-25T10:42:54.107Z</time></trkpt><trkpt lat="40.9665567" lon="14.3753083"><ele>24.0</ele><time>2026-04-25T10:42:55.107Z</time></trkpt><trkpt lat="40.96647" lon="14.3751533"><ele>24.666666666666664</ele><time>2026-04-25T10:42:56.107Z</time></trkpt><trkpt lat="40.966375" lon="14.374995"><ele>25.333333333333332</ele><time>2026-04-25T10:42:57.107Z</time></trkpt><trkpt lat="40.9662717" lon="14.3748317"><ele>26.0</ele><time>2026-04-25T10:42:58.107Z</time></trkpt><trkpt lat="40.9661633" lon="14.3746683"><ele>26.0</ele><time>2026-04-25T10:42:59.107Z</time></trkpt><trkpt lat="40.9660483" lon="14.374495"><ele>26.0</ele><time>2026-04-25T10:43:00.107Z</time></trkpt><trkpt lat="40.9659267" lon="14.3743267"><ele>26.0</ele><time>2026-04-25T10:43:01.107Z</time></trkpt><trkpt lat="40.9657967" lon="14.374155"><ele>26.0</ele><time>2026-04-25T10:43:02.107Z</time></trkpt><trkpt lat="40.96566" lon="14.3739883"><ele>26.0</ele><time>2026-04-25T10:43:03.107Z</time></trkpt><trkpt lat="40.9655233" lon="14.3738267"><ele>26.0</ele><time>2026-04-25T10:43:04.107Z</time></trkpt><trkpt lat="40.96539" lon="14.3736767"><ele>26.333333333333332</ele><time>2026-04-25T10:43:05.107Z</time></trkpt><trkpt lat="40.9652617" lon="14.37354"><ele>26.666666666666664</ele><time>2026-04-25T10:43:06.107Z</time></trkpt><trkpt lat="40.9651483" lon="14.3733983"><ele>27.0</ele><time>2026-04-25T10:43:07.107Z</time></trkpt><trkpt lat="40.965045" lon="14.3732567"><ele>27.0</ele><time>2026-04-25T10:43:08.107Z</time></trkpt><trkpt lat="40.9649467" lon="14.3731217"><ele>27.0</ele><time>2026-04-25T10:43:09.107Z</time></trkpt><trkpt lat="40.96485" lon="14.3729967"><ele>27.0</ele><time>2026-04-25T10:43:10.107Z</time></trkpt><trkpt lat="40.9647433" lon="14.3728733"><ele>27.0</ele><time>2026-04-25T10:43:11.107Z</time></trkpt><trkpt lat="40.9646283" lon="14.3727383"><ele>26.666666666666664</ele><time>2026-04-25T10:43:12.107Z</time></trkpt><trkpt lat="40.96453" lon="14.3725833"><ele>26.333333333333332</ele><time>2026-04-25T10:43:13.107Z</time></trkpt><trkpt lat="40.9644317" lon="14.37241"><ele>26.0</ele><time>2026-04-25T10:43:14.107Z</time></trkpt><trkpt lat="40.9643383" lon="14.37222"><ele>26.0</ele><time>2026-04-25T10:43:15.107Z</time></trkpt><trkpt lat="40.9642383" lon="14.3720183"><ele>26.0</ele><time>2026-04-25T10:43:16.108Z</time></trkpt><trkpt lat="40.9641383" lon="14.37181"><ele>26.0</ele><time>2026-04-25T10:43:17.107Z</time></trkpt><trkpt lat="40.96404" lon="14.3715983"><ele>26.0</ele><time>2026-04-25T10:43:18.107Z</time></trkpt><trkpt lat="40.9639417" lon="14.3713783"><ele>26.0</ele><time>2026-04-25T10:43:19.107Z</time></trkpt><trkpt lat="40.9638417" lon="14.3711533"><ele>26.0</ele><time>2026-04-25T10:43:20.107Z</time></trkpt><trkpt lat="40.9637467" lon="14.3709317"><ele>26.0</ele><time>2026-04-25T10:43:21.107Z</time></trkpt><trkpt lat="40.96366" lon="14.3707083"><ele>26.0</ele><time>2026-04-25T10:43:22.107Z</time></trkpt><trkpt lat="40.96358" lon="14.37049"><ele>26.0</ele><time>2026-04-25T10:43:23.107Z</time></trkpt><trkpt lat="40.9635017" lon="14.370265"><ele>26.0</ele><time>2026-04-25T10:43:24.107Z</time></trkpt><trkpt lat="40.9634233" lon="14.3700333"><ele>26.0</ele><time>2026-04-25T10:43:25.107Z</time></trkpt><trkpt lat="40.9633433" lon="14.3697983"><ele>26.0</ele><time>2026-04-25T10:43:26.107Z</time></trkpt><trkpt lat="40.9632583" lon="14.3695633"><ele>26.0</ele><time>2026-04-25T10:43:27.108Z</time></trkpt><trkpt lat="40.96317" lon="14.3693267"><ele>26.0</ele><time>2026-04-25T10:43:28.107Z</time></trkpt><trkpt lat="40.9630833" lon="14.3690883"><ele>26.0</ele><time>2026-04-25T10:43:29.107Z</time></trkpt><trkpt lat="40.9629983" lon="14.368855"><ele>26.0</ele><time>2026-04-25T10:43:30.107Z</time></trkpt><trkpt lat="40.962905" lon="14.3686267"><ele>26.0</ele><time>2026-04-25T10:43:31.107Z</time></trkpt><trkpt lat="40.9628117" lon="14.3684017"><ele>26.0</ele><time>2026-04-25T10:43:32.107Z</time></trkpt><trkpt lat="40.9627117" lon="14.3681783"><ele>25.666666666666664</ele><time>2026-04-25T10:43:33.107Z</time></trkpt><trkpt lat="40.9626067" lon="14.36795"><ele>25.333333333333336</ele><time>2026-04-25T10:43:34.107Z</time></trkpt><trkpt lat="40.9624917" lon="14.367715"><ele>25.0</ele><time>2026-04-25T10:43:35.107Z</time></trkpt><trkpt lat="40.9623717" lon="14.3674767"><ele>25.0</ele><time>2026-04-25T10:43:36.107Z</time></trkpt><trkpt lat="40.9622483" lon="14.3672467"><ele>25.0</ele><time>2026-04-25T10:43:37.107Z</time></trkpt><trkpt lat="40.9621267" lon="14.367015"><ele>25.0</ele><time>2026-04-25T10:43:38.107Z</time></trkpt><trkpt lat="40.962005" lon="14.3667917"><ele>25.0</ele><time>2026-04-25T10:43:39.107Z</time></trkpt><trkpt lat="40.96188" lon="14.3665667"><ele>25.0</ele><time>2026-04-25T10:43:40.107Z</time></trkpt><trkpt lat="40.961755" lon="14.3663583"><ele>25.0</ele><time>2026-04-25T10:43:41.107Z</time></trkpt><trkpt lat="40.9616283" lon="14.3661583"><ele>25.0</ele><time>2026-04-25T10:43:42.107Z</time></trkpt><trkpt lat="40.9615" lon="14.3659683"><ele>25.0</ele><time>2026-04-25T10:43:43.107Z</time></trkpt><trkpt lat="40.9613617" lon="14.36578"><ele>25.0</ele><time>2026-04-25T10:43:44.107Z</time></trkpt><trkpt lat="40.9612317" lon="14.365605"><ele>25.0</ele><time>2026-04-25T10:43:45.107Z</time></trkpt><trkpt lat="40.961095" lon="14.3654367"><ele>25.0</ele><time>2026-04-25T10:43:46.107Z</time></trkpt><trkpt lat="40.9609633" lon="14.3652717"><ele>25.0</ele><time>2026-04-25T10:43:47.108Z</time></trkpt><trkpt lat="40.9608317" lon="14.3651"><ele>25.333333333333336</ele><time>2026-04-25T10:43:48.107Z</time></trkpt><trkpt lat="40.9607133" lon="14.3649433"><ele>25.666666666666664</ele><time>2026-04-25T10:43:49.107Z</time></trkpt><trkpt lat="40.9606033" lon="14.3647883"><ele>26.0</ele><time>2026-04-25T10:43:50.107Z</time></trkpt><trkpt lat="40.9605083" lon="14.364625"><ele>25.5</ele><time>2026-04-25T10:43:51.107Z</time></trkpt><trkpt lat="40.96042" lon="14.3644583"><ele>25.0</ele><time>2026-04-25T10:43:52.107Z</time></trkpt><trkpt lat="40.96034" lon="14.3642917"><ele>24.5</ele><time>2026-04-25T10:43:53.107Z</time></trkpt><trkpt lat="40.96027" lon="14.3641333"><ele>24.0</ele><time>2026-04-25T10:43:54.107Z</time></trkpt><trkpt lat="40.960205" lon="14.3639817"><ele>24.0</ele><time>2026-04-25T10:43:55.107Z</time></trkpt><trkpt lat="40.9601333" lon="14.363825"><ele>24.0</ele><time>2026-04-25T10:43:56.107Z</time></trkpt><trkpt lat="40.9600533" lon="14.36367"><ele>24.0</ele><time>2026-04-25T10:43:57.107Z</time></trkpt><trkpt lat="40.9599733" lon="14.3635217"><ele>24.0</ele><time>2026-04-25T10:43:58.107Z</time></trkpt><trkpt lat="40.9598917" lon="14.3633833"><ele>24.0</ele><time>2026-04-25T10:43:59.107Z</time></trkpt><trkpt lat="40.9598033" lon="14.3632433"><ele>24.0</ele><time>2026-04-25T10:44:00.107Z</time></trkpt><trkpt lat="40.9597133" lon="14.3631033"><ele>24.0</ele><time>2026-04-25T10:44:01.107Z</time></trkpt><trkpt lat="40.9596267" lon="14.362975"><ele>24.0</ele><time>2026-04-25T10:44:02.107Z</time></trkpt><trkpt lat="40.9595433" lon="14.36285"><ele>23.799999999999997</ele><time>2026-04-25T10:44:03.107Z</time></trkpt><trkpt lat="40.95947" lon="14.362735"><ele>23.599999999999998</ele><time>2026-04-25T10:44:04.107Z</time></trkpt><trkpt lat="40.9594083" lon="14.3626267"><ele>23.4</ele><time>2026-04-25T10:44:05.107Z</time></trkpt><trkpt lat="40.959355" lon="14.3625183"><ele>23.2</ele><time>2026-04-25T10:44:06.107Z</time></trkpt><trkpt lat="40.959305" lon="14.36242"><ele>23.0</ele><time>2026-04-25T10:44:07.107Z</time></trkpt><trkpt lat="40.9592633" lon="14.36233"><ele>23.0</ele><time>2026-04-25T10:44:08.107Z</time></trkpt><trkpt lat="40.95923" lon="14.3622483"><ele>23.0</ele><time>2026-04-25T10:44:09.107Z</time></trkpt><trkpt lat="40.95921" lon="14.3621667"><ele>23.0</ele><time>2026-04-25T10:44:10.107Z</time></trkpt><trkpt lat="40.959185" lon="14.36202"><ele>23.0</ele><time>2026-04-25T10:44:12.107Z</time></trkpt><trkpt lat="40.9591533" lon="14.3618783"><ele>23.0</ele><time>2026-04-25T10:44:14.107Z</time></trkpt><trkpt lat="40.95912" lon="14.3617367"><ele>23.166666666666668</ele><time>2026-04-25T10:44:16.107Z</time></trkpt><trkpt lat="40.9590867" lon="14.3616217"><ele>23.333333333333336</ele><time>2026-04-25T10:44:18.107Z</time></trkpt><trkpt lat="40.959055" lon="14.36152"><ele>23.5</ele><time>2026-04-25T10:44:20.107Z</time></trkpt><trkpt lat="40.9590233" lon="14.3614083"><ele>23.666666666666668</ele><time>2026-04-25T10:44:22.108Z</time></trkpt><trkpt lat="40.9589917" lon="14.3613067"><ele>23.833333333333332</ele><time>2026-04-25T10:44:24.108Z</time></trkpt><trkpt lat="40.9589983" lon="14.361205"><ele>24.0</ele><time>2026-04-25T10:44:27.107Z</time></trkpt><trkpt lat="40.9590933" lon="14.36114"><ele>24.0</ele><time>2026-04-25T10:44:30.107Z</time></trkpt><trkpt lat="40.9591583" lon="14.3611067"><ele>24.0</ele><time>2026-04-25T10:44:31.107Z</time></trkpt><trkpt lat="40.95923" lon="14.36106"><ele>24.0</ele><time>2026-04-25T10:44:32.107Z</time></trkpt><trkpt lat="40.9593233" lon="14.361005"><ele>24.0</ele><time>2026-04-25T10:44:33.107Z</time></trkpt><trkpt lat="40.959415" lon="14.3609467"><ele>24.0</ele><time>2026-04-25T10:44:34.107Z</time></trkpt><trkpt lat="40.9595" lon="14.36089"><ele>24.0</ele><time>2026-04-25T10:44:35.107Z</time></trkpt><trkpt lat="40.9595917" lon="14.360825"><ele>24.25</ele><time>2026-04-25T10:44:36.107Z</time></trkpt><trkpt lat="40.9596933" lon="14.36076"><ele>24.5</ele><time>2026-04-25T10:44:37.107Z</time></trkpt><trkpt lat="40.9598083" lon="14.36069"><ele>24.75</ele><time>2026-04-25T10:44:38.107Z</time></trkpt><trkpt lat="40.95992" lon="14.360615"><ele>25.0</ele><time>2026-04-25T10:44:39.107Z</time></trkpt><trkpt lat="40.960035" lon="14.3605483"><ele>25.25</ele><time>2026-04-25T10:44:40.107Z</time></trkpt><trkpt lat="40.96015" lon="14.3604767"><ele>25.5</ele><time>2026-04-25T10:44:41.107Z</time></trkpt><trkpt lat="40.9602533" lon="14.3604033"><ele>25.75</ele><time>2026-04-25T10:44:42.107Z</time></trkpt><trkpt lat="40.960355" lon="14.36034"><ele>26.0</ele><time>2026-04-25T10:44:43.107Z</time></trkpt><trkpt lat="40.9604533" lon="14.3602783"><ele>26.0</ele><time>2026-04-25T10:44:44.107Z</time></trkpt><trkpt lat="40.9605433" lon="14.3602167"><ele>26.0</ele><time>2026-04-25T10:44:45.107Z</time></trkpt><trkpt lat="40.9606383" lon="14.3601583"><ele>26.0</ele><time>2026-04-25T10:44:46.107Z</time></trkpt><trkpt lat="40.96074" lon="14.360095"><ele>26.0</ele><time>2026-04-25T10:44:47.107Z</time></trkpt><trkpt lat="40.96084" lon="14.3600333"><ele>26.0</ele><time>2026-04-25T10:44:48.107Z</time></trkpt><trkpt lat="40.9609367" lon="14.3599667"><ele>25.8</ele><time>2026-04-25T10:44:49.107Z</time></trkpt><trkpt lat="40.9610333" lon="14.359905"><ele>25.6</ele><time>2026-04-25T10:44:50.107Z</time></trkpt><trkpt lat="40.9611217" lon="14.3598567"><ele>25.4</ele><time>2026-04-25T10:44:51.107Z</time></trkpt><trkpt lat="40.9611983" lon="14.3598033"><ele>25.2</ele><time>2026-04-25T10:44:52.108Z</time></trkpt><trkpt lat="40.9612733" lon="14.35975"><ele>25.0</ele><time>2026-04-25T10:44:53.107Z</time></trkpt><trkpt lat="40.9613483" lon="14.3596917"><ele>25.333333333333336</ele><time>2026-04-25T10:44:54.107Z</time></trkpt><trkpt lat="40.9614183" lon="14.35963"><ele>25.666666666666668</ele><time>2026-04-25T10:44:55.107Z</time></trkpt><trkpt lat="40.9614917" lon="14.35957"><ele>26.0</ele><time>2026-04-25T10:44:56.107Z</time></trkpt><trkpt lat="40.96156" lon="14.3595083"><ele>26.333333333333336</ele><time>2026-04-25T10:44:57.107Z</time></trkpt><trkpt lat="40.9616283" lon="14.35947"><ele>26.666666666666668</ele><time>2026-04-25T10:44:58.107Z</time></trkpt><trkpt lat="40.9616983" lon="14.35943"><ele>27.0</ele><time>2026-04-25T10:44:59.107Z</time></trkpt><trkpt lat="40.9617617" lon="14.3593833"><ele>26.166666666666668</ele><time>2026-04-25T10:45:00.107Z</time></trkpt><trkpt lat="40.961825" lon="14.3593333"><ele>25.333333333333332</ele><time>2026-04-25T10:45:01.107Z</time></trkpt><trkpt lat="40.9618883" lon="14.3592833"><ele>24.5</ele><time>2026-04-25T10:45:02.107Z</time></trkpt><trkpt lat="40.96196" lon="14.359225"><ele>23.666666666666664</ele><time>2026-04-25T10:45:03.107Z</time></trkpt><trkpt lat="40.96204" lon="14.3591667"><ele>22.833333333333332</ele><time>2026-04-25T10:45:04.107Z</time></trkpt><trkpt lat="40.96212" lon="14.3591117"><ele>22.0</ele><time>2026-04-25T10:45:05.107Z</time></trkpt><trkpt lat="40.9621983" lon="14.3590567"><ele>22.0</ele><time>2026-04-25T10:45:06.107Z</time></trkpt><trkpt lat="40.9622717" lon="14.359005"><ele>22.0</ele><time>2026-04-25T10:45:07.108Z</time></trkpt><trkpt lat="40.9623483" lon="14.3589517"><ele>22.0</ele><time>2026-04-25T10:45:08.107Z</time></trkpt><trkpt lat="40.9624233" lon="14.3589033"><ele>22.0</ele><time>2026-04-25T10:45:09.107Z</time></trkpt><trkpt lat="40.9624967" lon="14.3588567"><ele>22.0</ele><time>2026-04-25T10:45:10.107Z</time></trkpt><trkpt lat="40.96257" lon="14.3588017"><ele>22.0</ele><time>2026-04-25T10:45:11.107Z</time></trkpt><trkpt lat="40.962645" lon="14.3587517"><ele>21.857142857142858</ele><time>2026-04-25T10:45:12.108Z</time></trkpt><trkpt lat="40.9627167" lon="14.3587067"><ele>21.714285714285715</ele><time>2026-04-25T10:45:13.108Z</time></trkpt><trkpt lat="40.96278" lon="14.3586583"><ele>21.57142857142857</ele><time>2026-04-25T10:45:14.107Z</time></trkpt><trkpt lat="40.9628483" lon="14.35861"><ele>21.42857142857143</ele><time>2026-04-25T10:45:15.107Z</time></trkpt><trkpt lat="40.9629117" lon="14.3585717"><ele>21.285714285714285</ele><time>2026-04-25T10:45:16.107Z</time></trkpt><trkpt lat="40.9629817" lon="14.358525"><ele>21.142857142857142</ele><time>2026-04-25T10:45:17.107Z</time></trkpt><trkpt lat="40.96304" lon="14.3584917"><ele>21.0</ele><time>2026-04-25T10:45:18.107Z</time></trkpt><trkpt lat="40.9631083" lon="14.35846"><ele>21.0</ele><time>2026-04-25T10:45:21.107Z</time></trkpt><trkpt lat="40.96303" lon="14.3584733"><ele>21.0</ele><time>2026-04-25T10:45:43.107Z</time></trkpt><trkpt lat="40.9629617" lon="14.3585233"><ele>21.0</ele><time>2026-04-25T10:45:45.108Z</time></trkpt><trkpt lat="40.9628667" lon="14.3585867"><ele>21.0</ele><time>2026-04-25T10:45:47.107Z</time></trkpt><trkpt lat="40.962765" lon="14.358655"><ele>21.0</ele><time>2026-04-25T10:45:49.107Z</time></trkpt><trkpt lat="40.9626617" lon="14.3587317"><ele>21.0</ele><time>2026-04-25T10:45:51.107Z</time></trkpt><trkpt lat="40.9625667" lon="14.3587967"><ele>21.0</ele><time>2026-04-25T10:45:53.107Z</time></trkpt><trkpt lat="40.96248" lon="14.3588567"><ele>21.0</ele><time>2026-04-25T10:45:55.107Z</time></trkpt><trkpt lat="40.96241" lon="14.3589"><ele>21.0</ele><time>2026-04-25T10:45:57.107Z</time></trkpt><trkpt lat="40.9623317" lon="14.3589317"><ele>21.0</ele><time>2026-04-25T10:46:00.107Z</time></trkpt><trkpt lat="40.9622717" lon="14.3589667"><ele>21.0</ele><time>2026-04-25T10:46:03.107Z</time></trkpt><trkpt lat="40.9621933" lon="14.3590183"><ele>21.200000000000003</ele><time>2026-04-25T10:46:06.108Z</time></trkpt><trkpt lat="40.962145" lon="14.359085"><ele>21.400000000000002</ele><time>2026-04-25T10:46:26.107Z</time></trkpt><trkpt lat="40.9622283" lon="14.359035"><ele>21.6</ele><time>2026-04-25T10:46:41.107Z</time></trkpt><trkpt lat="40.962305" lon="14.3589767"><ele>21.8</ele><time>2026-04-25T10:46:43.107Z</time></trkpt><trkpt lat="40.962395" lon="14.3589083"><ele>22.0</ele><time>2026-04-25T10:46:45.107Z</time></trkpt><trkpt lat="40.962495" lon="14.3588533"><ele>21.8</ele><time>2026-04-25T10:46:47.107Z</time></trkpt><trkpt lat="40.9626067" lon="14.3587817"><ele>21.6</ele><time>2026-04-25T10:46:49.107Z</time></trkpt><trkpt lat="40.9627083" lon="14.358715"><ele>21.400000000000002</ele><time>2026-04-25T10:46:51.107Z</time></trkpt><trkpt lat="40.9627933" lon="14.35866"><ele>21.200000000000003</ele><time>2026-04-25T10:46:53.108Z</time></trkpt><trkpt lat="40.9628917" lon="14.3586"><ele>21.0</ele><time>2026-04-25T10:46:55.107Z</time></trkpt><trkpt lat="40.9629817" lon="14.3585333"><ele>21.0</ele><time>2026-04-25T10:46:57.107Z</time></trkpt><trkpt lat="40.96307" lon="14.3584717"><ele>21.0</ele><time>2026-04-25T10:46:59.107Z</time></trkpt><trkpt lat="40.9631667" lon="14.3584017"><ele>21.0</ele><time>2026-04-25T10:47:01.108Z</time></trkpt><trkpt lat="40.963225" lon="14.3583583"><ele>21.0</ele><time>2026-04-25T10:47:02.107Z</time></trkpt><trkpt lat="40.9632867" lon="14.3583133"><ele>21.0</ele><time>2026-04-25T10:47:03.107Z</time></trkpt><trkpt lat="40.96335" lon="14.3582667"><ele>21.0</ele><time>2026-04-25T10:47:04.107Z</time></trkpt><trkpt lat="40.963415" lon="14.3582183"><ele>21.0</ele><time>2026-04-25T10:47:05.107Z</time></trkpt><trkpt lat="40.9634867" lon="14.35817"><ele>21.0</ele><time>2026-04-25T10:47:06.107Z</time></trkpt><trkpt lat="40.96356" lon="14.35812"><ele>21.0</ele><time>2026-04-25T10:47:07.107Z</time></trkpt><trkpt lat="40.96363" lon="14.35807"><ele>21.0</ele><time>2026-04-25T10:47:08.107Z</time></trkpt><trkpt lat="40.963695" lon="14.358025"><ele>21.0</ele><time>2026-04-25T10:47:09.108Z</time></trkpt><trkpt lat="40.9637833" lon="14.3579733"><ele>21.0</ele><time>2026-04-25T10:47:11.107Z</time></trkpt><trkpt lat="40.963765" lon="14.3578767"><ele>21.0</ele><time>2026-04-25T10:47:24.107Z</time></trkpt><trkpt lat="40.96369" lon="14.3579217"><ele>21.0</ele><time>2026-04-25T10:47:26.107Z</time></trkpt><trkpt lat="40.9635767" lon="14.3579983"><ele>21.0</ele><time>2026-04-25T10:47:28.106Z</time></trkpt><trkpt lat="40.96351" lon="14.358045"><ele>21.0</ele><time>2026-04-25T10:47:29.106Z</time></trkpt><trkpt lat="40.9634383" lon="14.3580933"><ele>21.0</ele><time>2026-04-25T10:47:30.106Z</time></trkpt><trkpt lat="40.9633683" lon="14.3581467"><ele>21.0</ele><time>2026-04-25T10:47:31.106Z</time></trkpt><trkpt lat="40.9632983" lon="14.3581917"><ele>21.0</ele><time>2026-04-25T10:47:32.106Z</time></trkpt><trkpt lat="40.9632317" lon="14.3582383"><ele>21.0</ele><time>2026-04-25T10:47:33.106Z</time></trkpt><trkpt lat="40.9631667" lon="14.358285"><ele>21.0</ele><time>2026-04-25T10:47:34.106Z</time></trkpt><trkpt lat="40.9630967" lon="14.358335"><ele>21.0</ele><time>2026-04-25T10:47:35.106Z</time></trkpt><trkpt lat="40.9630267" lon="14.3583883"><ele>21.0</ele><time>2026-04-25T10:47:36.106Z</time></trkpt><trkpt lat="40.9629483" lon="14.35844"><ele>21.0</ele><time>2026-04-25T10:47:37.106Z</time></trkpt><trkpt lat="40.9628783" lon="14.3584817"><ele>21.0</ele><time>2026-04-25T10:47:38.106Z</time></trkpt><trkpt lat="40.96281" lon="14.3585317"><ele>21.0</ele><time>2026-04-25T10:47:39.106Z</time></trkpt><trkpt lat="40.9627367" lon="14.358585"><ele>21.0</ele><time>2026-04-25T10:47:40.106Z</time></trkpt><trkpt lat="40.9626617" lon="14.35864"><ele>21.0</ele><time>2026-04-25T10:47:41.106Z</time></trkpt><trkpt lat="40.9625833" lon="14.3586883"><ele>21.0</ele><time>2026-04-25T10:47:42.107Z</time></trkpt><trkpt lat="40.962505" lon="14.35874"><ele>21.0</ele><time>2026-04-25T10:47:43.106Z</time></trkpt><trkpt lat="40.9624283" lon="14.3587933"><ele>21.166666666666668</ele><time>2026-04-25T10:47:44.106Z</time></trkpt><trkpt lat="40.9623483" lon="14.3588433"><ele>21.333333333333332</ele><time>2026-04-25T10:47:45.106Z</time></trkpt><trkpt lat="40.9622667" lon="14.3588933"><ele>21.5</ele><time>2026-04-25T10:47:46.106Z</time></trkpt><trkpt lat="40.9621967" lon="14.3589367"><ele>21.666666666666664</ele><time>2026-04-25T10:47:47.106Z</time></trkpt><trkpt lat="40.9621317" lon="14.3589717"><ele>21.833333333333332</ele><time>2026-04-25T10:47:48.106Z</time></trkpt><trkpt lat="40.9620717" lon="14.359"><ele>22.0</ele><time>2026-04-25T10:47:49.106Z</time></trkpt><trkpt lat="40.9619617" lon="14.3590467"><ele>22.0</ele><time>2026-04-25T10:47:51.106Z</time></trkpt><trkpt lat="40.9618833" lon="14.359025"><ele>22.0</ele><time>2026-04-25T10:47:53.106Z</time></trkpt><trkpt lat="40.961845" lon="14.358955"><ele>22.0</ele><time>2026-04-25T10:47:55.106Z</time></trkpt><trkpt lat="40.9618233" lon="14.3588667"><ele>22.0</ele><time>2026-04-25T10:47:57.106Z</time></trkpt><trkpt lat="40.9617217" lon="14.3588483"><ele>22.0</ele><time>2026-04-25T10:48:01.106Z</time></trkpt><trkpt lat="40.961635" lon="14.3588533"><ele>22.0</ele><time>2026-04-25T10:48:04.106Z</time></trkpt><trkpt lat="40.9615667" lon="14.3587617"><ele>22.666666666666664</ele><time>2026-04-25T10:48:07.106Z</time></trkpt><trkpt lat="40.9615317" lon="14.3586733"><ele>23.333333333333332</ele><time>2026-04-25T10:48:09.106Z</time></trkpt><trkpt lat="40.9614917" lon="14.3586033"><ele>24.0</ele><time>2026-04-25T10:48:11.106Z</time></trkpt><trkpt lat="40.961435" lon="14.358555"><ele>24.666666666666664</ele><time>2026-04-25T10:48:13.106Z</time></trkpt><trkpt lat="40.9613517" lon="14.35859"><ele>25.333333333333332</ele><time>2026-04-25T10:48:16.107Z</time></trkpt><trkpt lat="40.9612617" lon="14.3586483"><ele>26.0</ele><time>2026-04-25T10:48:18.106Z</time></trkpt><trkpt lat="40.9611417" lon="14.3587167"><ele>25.999999999999996</ele><time>2026-04-25T10:48:20.106Z</time></trkpt><trkpt lat="40.9610783" lon="14.3587533"><ele>26.0</ele><time>2026-04-25T10:48:21.107Z</time></trkpt><trkpt lat="40.9610117" lon="14.3587933"><ele>26.0</ele><time>2026-04-25T10:48:22.106Z</time></trkpt><trkpt lat="40.9609433" lon="14.3588333"><ele>26.0</ele><time>2026-04-25T10:48:23.106Z</time></trkpt><trkpt lat="40.96087" lon="14.358875"><ele>25.999999999999996</ele><time>2026-04-25T10:48:24.106Z</time></trkpt><trkpt lat="40.9607983" lon="14.3589183"><ele>26.0</ele><time>2026-04-25T10:48:25.106Z</time></trkpt><trkpt lat="40.960725" lon="14.3589617"><ele>26.166666666666664</ele><time>2026-04-25T10:48:26.106Z</time></trkpt><trkpt lat="40.9606533" lon="14.3590017"><ele>26.333333333333332</ele><time>2026-04-25T10:48:27.106Z</time></trkpt><trkpt lat="40.9605833" lon="14.3590417"><ele>26.5</ele><time>2026-04-25T10:48:28.106Z</time></trkpt><trkpt lat="40.9605117" lon="14.359085"><ele>26.666666666666664</ele><time>2026-04-25T10:48:29.106Z</time></trkpt><trkpt lat="40.9604367" lon="14.3591283"><ele>26.833333333333332</ele><time>2026-04-25T10:48:30.106Z</time></trkpt><trkpt lat="40.9603633" lon="14.359175"><ele>27.0</ele><time>2026-04-25T10:48:31.106Z</time></trkpt><trkpt lat="40.9602917" lon="14.3592183"><ele>27.0</ele><time>2026-04-25T10:48:32.106Z</time></trkpt><trkpt lat="40.9602183" lon="14.3592667"><ele>27.0</ele><time>2026-04-25T10:48:33.106Z</time></trkpt><trkpt lat="40.9601417" lon="14.359315"><ele>27.0</ele><time>2026-04-25T10:48:34.106Z</time></trkpt><trkpt lat="40.9600617" lon="14.3593633"><ele>27.0</ele><time>2026-04-25T10:48:35.106Z</time></trkpt><trkpt lat="40.9599767" lon="14.3594117"><ele>27.0</ele><time>2026-04-25T10:48:36.106Z</time></trkpt><trkpt lat="40.9598867" lon="14.3594667"><ele>27.0</ele><time>2026-04-25T10:48:37.106Z</time></trkpt><trkpt lat="40.95979" lon="14.3595183"><ele>27.0</ele><time>2026-04-25T10:48:38.106Z</time></trkpt><trkpt lat="40.9596983" lon="14.3595733"><ele>27.0</ele><time>2026-04-25T10:48:39.106Z</time></trkpt><trkpt lat="40.9596133" lon="14.3596183"><ele>27.0</ele><time>2026-04-25T10:48:40.106Z</time></trkpt><trkpt lat="40.9595433" lon="14.359655"><ele>27.0</ele><time>2026-04-25T10:48:41.106Z</time></trkpt><trkpt lat="40.9594733" lon="14.3596933"><ele>27.0</ele><time>2026-04-25T10:48:42.106Z</time></trkpt><trkpt lat="40.9593933" lon="14.35974"><ele>27.0</ele><time>2026-04-25T10:48:43.106Z</time></trkpt><trkpt lat="40.95931" lon="14.35979"><ele>27.0</ele><time>2026-04-25T10:48:44.106Z</time></trkpt><trkpt lat="40.9592267" lon="14.3598417"><ele>27.0</ele><time>2026-04-25T10:48:45.106Z</time></trkpt><trkpt lat="40.959145" lon="14.35989"><ele>27.0</ele><time>2026-04-25T10:48:46.106Z</time></trkpt><trkpt lat="40.9590617" lon="14.35994"><ele>27.0</ele><time>2026-04-25T10:48:47.106Z</time></trkpt><trkpt lat="40.9589767" lon="14.359985"><ele>27.0</ele><time>2026-04-25T10:48:48.107Z</time></trkpt><trkpt lat="40.9589033" lon="14.3600283"><ele>27.0</ele><time>2026-04-25T10:48:49.106Z</time></trkpt><trkpt lat="40.9588433" lon="14.360065"><ele>27.0</ele><time>2026-04-25T10:48:50.106Z</time></trkpt><trkpt lat="40.9587467" lon="14.3601333"><ele>27.0</ele><time>2026-04-25T10:48:52.106Z</time></trkpt><trkpt lat="40.9586883" lon="14.3601783"><ele>27.0</ele><time>2026-04-25T10:48:54.106Z</time></trkpt><trkpt lat="40.95862" lon="14.3601667"><ele>27.0</ele><time>2026-04-25T10:48:57.106Z</time></trkpt><trkpt lat="40.9585817" lon="14.3600817"><ele>27.0</ele><time>2026-04-25T10:48:59.106Z</time></trkpt><trkpt lat="40.958555" lon="14.3600017"><ele>27.0</ele><time>2026-04-25T10:49:00.106Z</time></trkpt><trkpt lat="40.9585183" lon="14.3598983"><ele>27.0</ele><time>2026-04-25T10:49:01.106Z</time></trkpt><trkpt lat="40.9584783" lon="14.3597733"><ele>27.000000000000004</ele><time>2026-04-25T10:49:02.106Z</time></trkpt><trkpt lat="40.9584317" lon="14.35964"><ele>27.000000000000004</ele><time>2026-04-25T10:49:03.106Z</time></trkpt><trkpt lat="40.9583883" lon="14.3595183"><ele>27.0</ele><time>2026-04-25T10:49:04.106Z</time></trkpt><trkpt lat="40.9583483" lon="14.35939"><ele>27.0</ele><time>2026-04-25T10:49:05.106Z</time></trkpt><trkpt lat="40.958305" lon="14.3592567"><ele>26.5</ele><time>2026-04-25T10:49:06.106Z</time></trkpt><trkpt lat="40.95825" lon="14.3591133"><ele>26.0</ele><time>2026-04-25T10:49:07.106Z</time></trkpt><trkpt lat="40.9581917" lon="14.3589683"><ele>25.5</ele><time>2026-04-25T10:49:08.106Z</time></trkpt><trkpt lat="40.9581267" lon="14.3588267"><ele>25.0</ele><time>2026-04-25T10:49:09.106Z</time></trkpt><trkpt lat="40.958045" lon="14.3586883"><ele>24.75</ele><time>2026-04-25T10:49:10.106Z</time></trkpt><trkpt lat="40.9579533" lon="14.3585483"><ele>24.5</ele><time>2026-04-25T10:49:11.106Z</time></trkpt><trkpt lat="40.9578517" lon="14.358405"><ele>24.25</ele><time>2026-04-25T10:49:12.106Z</time></trkpt><trkpt lat="40.9577533" lon="14.3582633"><ele>24.0</ele><time>2026-04-25T10:49:13.106Z</time></trkpt><trkpt lat="40.9576617" lon="14.3581217"><ele>24.0</ele><time>2026-04-25T10:49:14.106Z</time></trkpt><trkpt lat="40.957565" lon="14.357985"><ele>24.0</ele><time>2026-04-25T10:49:15.106Z</time></trkpt><trkpt lat="40.9574767" lon="14.3578467"><ele>24.0</ele><time>2026-04-25T10:49:16.106Z</time></trkpt><trkpt lat="40.9573967" lon="14.3577033"><ele>24.0</ele><time>2026-04-25T10:49:17.106Z</time></trkpt><trkpt lat="40.9573117" lon="14.3575583"><ele>24.0</ele><time>2026-04-25T10:49:18.107Z</time></trkpt><trkpt lat="40.957235" lon="14.3574067"><ele>24.0</ele><time>2026-04-25T10:49:19.106Z</time></trkpt><trkpt lat="40.95716" lon="14.3572483"><ele>24.0</ele><time>2026-04-25T10:49:20.106Z</time></trkpt><trkpt lat="40.9570917" lon="14.3570933"><ele>24.0</ele><time>2026-04-25T10:49:21.106Z</time></trkpt><trkpt lat="40.9570317" lon="14.3569383"><ele>24.0</ele><time>2026-04-25T10:49:22.106Z</time></trkpt><trkpt lat="40.9569767" lon="14.35678"><ele>24.0</ele><time>2026-04-25T10:49:23.106Z</time></trkpt><trkpt lat="40.9569317" lon="14.3566133"><ele>24.0</ele><time>2026-04-25T10:49:24.106Z</time></trkpt><trkpt lat="40.9568983" lon="14.3564383"><ele>24.0</ele><time>2026-04-25T10:49:25.106Z</time></trkpt><trkpt lat="40.956875" lon="14.3562433"><ele>24.0</ele><time>2026-04-25T10:49:26.106Z</time></trkpt><trkpt lat="40.9568633" lon="14.356045"><ele>24.0</ele><time>2026-04-25T10:49:27.106Z</time></trkpt><trkpt lat="40.9568667" lon="14.35584"><ele>24.0</ele><time>2026-04-25T10:49:28.106Z</time></trkpt><trkpt lat="40.9568733" lon="14.355625"><ele>23.666666666666668</ele><time>2026-04-25T10:49:29.106Z</time></trkpt><trkpt lat="40.9568867" lon="14.3554083"><ele>23.333333333333336</ele><time>2026-04-25T10:49:30.106Z</time></trkpt><trkpt lat="40.9569033" lon="14.3551833"><ele>23.0</ele><time>2026-04-25T10:49:31.106Z</time></trkpt><trkpt lat="40.9569183" lon="14.3549567"><ele>23.0</ele><time>2026-04-25T10:49:32.106Z</time></trkpt><trkpt lat="40.9569383" lon="14.3547267"><ele>23.0</ele><time>2026-04-25T10:49:33.106Z</time></trkpt><trkpt lat="40.9569567" lon="14.3544883"><ele>23.0</ele><time>2026-04-25T10:49:34.106Z</time></trkpt><trkpt lat="40.956975" lon="14.354255"><ele>23.0</ele><time>2026-04-25T10:49:35.106Z</time></trkpt><trkpt lat="40.956995" lon="14.3540167"><ele>23.0</ele><time>2026-04-25T10:49:36.106Z</time></trkpt><trkpt lat="40.9570117" lon="14.3537767"><ele>23.0</ele><time>2026-04-25T10:49:37.106Z</time></trkpt><trkpt lat="40.9570233" lon="14.3535333"><ele>23.0</ele><time>2026-04-25T10:49:38.106Z</time></trkpt><trkpt lat="40.9570333" lon="14.3532867"><ele>23.0</ele><time>2026-04-25T10:49:39.106Z</time></trkpt><trkpt lat="40.9570467" lon="14.3530383"><ele>23.0</ele><time>2026-04-25T10:49:40.106Z</time></trkpt><trkpt lat="40.9570583" lon="14.35278"><ele>23.0</ele><time>2026-04-25T10:49:41.106Z</time></trkpt><trkpt lat="40.9570717" lon="14.3525233"><ele>23.0</ele><time>2026-04-25T10:49:42.106Z</time></trkpt><trkpt lat="40.95708" lon="14.3522567"><ele>23.0</ele><time>2026-04-25T10:49:43.106Z</time></trkpt><trkpt lat="40.9570867" lon="14.35199"><ele>23.0</ele><time>2026-04-25T10:49:44.106Z</time></trkpt><trkpt lat="40.9570867" lon="14.3517233"><ele>23.0</ele><time>2026-04-25T10:49:45.106Z</time></trkpt><trkpt lat="40.9570783" lon="14.351475"><ele>23.0</ele><time>2026-04-25T10:49:46.106Z</time></trkpt><trkpt lat="40.9570683" lon="14.3512417"><ele>23.0</ele><time>2026-04-25T10:49:47.106Z</time></trkpt><trkpt lat="40.9570517" lon="14.35102"><ele>23.0</ele><time>2026-04-25T10:49:48.106Z</time></trkpt><trkpt lat="40.9570383" lon="14.3508083"><ele>23.0</ele><time>2026-04-25T10:49:49.106Z</time></trkpt><trkpt lat="40.9570267" lon="14.3505933"><ele>22.666666666666668</ele><time>2026-04-25T10:49:50.106Z</time></trkpt><trkpt lat="40.9570133" lon="14.3503883"><ele>22.333333333333332</ele><time>2026-04-25T10:49:51.106Z</time></trkpt><trkpt lat="40.9569883" lon="14.3501833"><ele>22.0</ele><time>2026-04-25T10:49:52.106Z</time></trkpt><trkpt lat="40.9569517" lon="14.3499817"><ele>22.0</ele><time>2026-04-25T10:49:53.106Z</time></trkpt><trkpt lat="40.9569" lon="14.3497767"><ele>22.0</ele><time>2026-04-25T10:49:54.106Z</time></trkpt><trkpt lat="40.956835" lon="14.34957"><ele>22.0</ele><time>2026-04-25T10:49:55.106Z</time></trkpt><trkpt lat="40.9567533" lon="14.349375"><ele>22.0</ele><time>2026-04-25T10:49:56.106Z</time></trkpt><trkpt lat="40.9566567" lon="14.3491967"><ele>22.0</ele><time>2026-04-25T10:49:57.106Z</time></trkpt><trkpt lat="40.9565483" lon="14.3490167"><ele>22.0</ele><time>2026-04-25T10:49:58.106Z</time></trkpt><trkpt lat="40.9564333" lon="14.3488517"><ele>22.0</ele><time>2026-04-25T10:49:59.107Z</time></trkpt><trkpt lat="40.9563083" lon="14.34868"><ele>22.0</ele><time>2026-04-25T10:50:00.106Z</time></trkpt><trkpt lat="40.9561817" lon="14.3485083"><ele>22.0</ele><time>2026-04-25T10:50:01.106Z</time></trkpt><trkpt lat="40.956045" lon="14.3483383"><ele>22.0</ele><time>2026-04-25T10:50:02.106Z</time></trkpt><trkpt lat="40.9559117" lon="14.3481567"><ele>22.0</ele><time>2026-04-25T10:50:03.107Z</time></trkpt><trkpt lat="40.9557733" lon="14.34797"><ele>22.0</ele><time>2026-04-25T10:50:04.106Z</time></trkpt><trkpt lat="40.955635" lon="14.3477817"><ele>22.0</ele><time>2026-04-25T10:50:05.106Z</time></trkpt><trkpt lat="40.9554983" lon="14.347585"><ele>22.0</ele><time>2026-04-25T10:50:06.106Z</time></trkpt><trkpt lat="40.9553617" lon="14.347385"><ele>22.0</ele><time>2026-04-25T10:50:07.106Z</time></trkpt><trkpt lat="40.9552317" lon="14.347175"><ele>22.0</ele><time>2026-04-25T10:50:08.106Z</time></trkpt><trkpt lat="40.9551083" lon="14.3469667"><ele>22.0</ele><time>2026-04-25T10:50:09.106Z</time></trkpt><trkpt lat="40.9549867" lon="14.34675"><ele>22.0</ele><time>2026-04-25T10:50:10.106Z</time></trkpt><trkpt lat="40.9548683" lon="14.3465283"><ele>22.0</ele><time>2026-04-25T10:50:11.106Z</time></trkpt><trkpt lat="40.9547517" lon="14.3463117"><ele>22.0</ele><time>2026-04-25T10:50:12.107Z</time></trkpt><trkpt lat="40.9546367" lon="14.3461033"><ele>22.0</ele><time>2026-04-25T10:50:13.106Z</time></trkpt><trkpt lat="40.9545367" lon="14.3459117"><ele>22.0</ele><time>2026-04-25T10:50:14.106Z</time></trkpt><trkpt lat="40.9544467" lon="14.345725"><ele>22.0</ele><time>2026-04-25T10:50:15.106Z</time></trkpt><trkpt lat="40.9543583" lon="14.3455283"><ele>22.0</ele><time>2026-04-25T10:50:16.106Z</time></trkpt><trkpt lat="40.9542733" lon="14.3453283"><ele>21.666666666666664</ele><time>2026-04-25T10:50:17.106Z</time></trkpt><trkpt lat="40.9542" lon="14.3451217"><ele>21.333333333333332</ele><time>2026-04-25T10:50:18.106Z</time></trkpt><trkpt lat="40.9541383" lon="14.3449083"><ele>21.0</ele><time>2026-04-25T10:50:19.106Z</time></trkpt><trkpt lat="40.954085" lon="14.3446833"><ele>21.0</ele><time>2026-04-25T10:50:20.106Z</time></trkpt><trkpt lat="40.9540333" lon="14.344465"><ele>21.0</ele><time>2026-04-25T10:50:21.106Z</time></trkpt><trkpt lat="40.95398" lon="14.34423"><ele>21.0</ele><time>2026-04-25T10:50:22.106Z</time></trkpt><trkpt lat="40.9539283" lon="14.3439833"><ele>21.333333333333332</ele><time>2026-04-25T10:50:23.106Z</time></trkpt><trkpt lat="40.9538817" lon="14.3437283"><ele>21.666666666666664</ele><time>2026-04-25T10:50:24.106Z</time></trkpt><trkpt lat="40.9538383" lon="14.3434617"><ele>22.0</ele><time>2026-04-25T10:50:25.106Z</time></trkpt><trkpt lat="40.9537967" lon="14.3431917"><ele>22.0</ele><time>2026-04-25T10:50:26.106Z</time></trkpt><trkpt lat="40.953755" lon="14.34294"><ele>22.0</ele><time>2026-04-25T10:50:27.106Z</time></trkpt><trkpt lat="40.9537217" lon="14.3427117"><ele>22.0</ele><time>2026-04-25T10:50:28.106Z</time></trkpt><trkpt lat="40.9536867" lon="14.3425033"><ele>22.0</ele><time>2026-04-25T10:50:29.106Z</time></trkpt><trkpt lat="40.953655" lon="14.3423233"><ele>22.0</ele><time>2026-04-25T10:50:30.106Z</time></trkpt><trkpt lat="40.9536283" lon="14.3421583"><ele>22.0</ele><time>2026-04-25T10:50:31.106Z</time></trkpt><trkpt lat="40.9536067" lon="14.3420083"><ele>22.0</ele><time>2026-04-25T10:50:32.106Z</time></trkpt><trkpt lat="40.9535883" lon="14.3418783"><ele>22.200000000000003</ele><time>2026-04-25T10:50:33.106Z</time></trkpt><trkpt lat="40.953575" lon="14.3417667"><ele>22.4</ele><time>2026-04-25T10:50:34.106Z</time></trkpt><trkpt lat="40.9535567" lon="14.3416483"><ele>22.6</ele><time>2026-04-25T10:50:35.106Z</time></trkpt><trkpt lat="40.9535433" lon="14.3415183"><ele>22.799999999999997</ele><time>2026-04-25T10:50:36.106Z</time></trkpt><trkpt lat="40.9535367" lon="14.3413617"><ele>23.0</ele><time>2026-04-25T10:50:37.106Z</time></trkpt><trkpt lat="40.9535417" lon="14.3411783"><ele>22.333333333333336</ele><time>2026-04-25T10:50:38.106Z</time></trkpt><trkpt lat="40.9535567" lon="14.3409683"><ele>21.666666666666668</ele><time>2026-04-25T10:50:39.106Z</time></trkpt><trkpt lat="40.9535717" lon="14.340745"><ele>21.0</ele><time>2026-04-25T10:50:40.106Z</time></trkpt><trkpt lat="40.9535883" lon="14.3405133"><ele>21.0</ele><time>2026-04-25T10:50:41.106Z</time></trkpt><trkpt lat="40.9536083" lon="14.3402783"><ele>21.0</ele><time>2026-04-25T10:50:42.106Z</time></trkpt><trkpt lat="40.9536233" lon="14.34002"><ele>21.0</ele><time>2026-04-25T10:50:43.106Z</time></trkpt><trkpt lat="40.953645" lon="14.3397583"><ele>20.666666666666668</ele><time>2026-04-25T10:50:44.106Z</time></trkpt><trkpt lat="40.9536633" lon="14.339485"><ele>20.333333333333336</ele><time>2026-04-25T10:50:45.106Z</time></trkpt><trkpt lat="40.9536817" lon="14.3392117"><ele>20.0</ele><time>2026-04-25T10:50:46.106Z</time></trkpt><trkpt lat="40.9537017" lon="14.338925"><ele>20.333333333333336</ele><time>2026-04-25T10:50:47.106Z</time></trkpt><trkpt lat="40.953725" lon="14.3386367"><ele>20.666666666666668</ele><time>2026-04-25T10:50:48.106Z</time></trkpt><trkpt lat="40.9537433" lon="14.3383417"><ele>21.0</ele><time>2026-04-25T10:50:49.107Z</time></trkpt><trkpt lat="40.9537633" lon="14.3380583"><ele>21.666666666666668</ele><time>2026-04-25T10:50:50.106Z</time></trkpt><trkpt lat="40.95378" lon="14.337795"><ele>22.333333333333336</ele><time>2026-04-25T10:50:51.106Z</time></trkpt><trkpt lat="40.9537983" lon="14.3375467"><ele>23.0</ele><time>2026-04-25T10:50:52.106Z</time></trkpt><trkpt lat="40.9538133" lon="14.3373117"><ele>23.0</ele><time>2026-04-25T10:50:53.106Z</time></trkpt><trkpt lat="40.953825" lon="14.3370983"><ele>23.0</ele><time>2026-04-25T10:50:54.107Z</time></trkpt><trkpt lat="40.95384" lon="14.3369117"><ele>23.0</ele><time>2026-04-25T10:50:55.106Z</time></trkpt><trkpt lat="40.9538517" lon="14.3367367"><ele>23.0</ele><time>2026-04-25T10:50:56.106Z</time></trkpt><trkpt lat="40.953865" lon="14.3365767"><ele>23.0</ele><time>2026-04-25T10:50:57.106Z</time></trkpt><trkpt lat="40.9538867" lon="14.3364433"><ele>23.0</ele><time>2026-04-25T10:50:58.106Z</time></trkpt><trkpt lat="40.9539183" lon="14.33634"><ele>23.0</ele><time>2026-04-25T10:50:59.106Z</time></trkpt><trkpt lat="40.9539733" lon="14.33627"><ele>23.0</ele><time>2026-04-25T10:51:00.106Z</time></trkpt><trkpt lat="40.9540317" lon="14.336225"><ele>23.0</ele><time>2026-04-25T10:51:01.106Z</time></trkpt><trkpt lat="40.954095" lon="14.336175"><ele>23.0</ele><time>2026-04-25T10:51:02.106Z</time></trkpt><trkpt lat="40.95414" lon="14.3361117"><ele>22.833333333333336</ele><time>2026-04-25T10:51:03.106Z</time></trkpt><trkpt lat="40.9541617" lon="14.33603"><ele>22.666666666666668</ele><time>2026-04-25T10:51:04.106Z</time></trkpt><trkpt lat="40.9541533" lon="14.335945"><ele>22.5</ele><time>2026-04-25T10:51:05.106Z</time></trkpt><trkpt lat="40.9541217" lon="14.335855"><ele>22.333333333333332</ele><time>2026-04-25T10:51:06.106Z</time></trkpt><trkpt lat="40.9540717" lon="14.3357667"><ele>22.166666666666664</ele><time>2026-04-25T10:51:07.106Z</time></trkpt><trkpt lat="40.9540233" lon="14.335655"><ele>22.0</ele><time>2026-04-25T10:51:08.106Z</time></trkpt><trkpt lat="40.9540083" lon="14.33551"><ele>22.0</ele><time>2026-04-25T10:51:09.106Z</time></trkpt><trkpt lat="40.954025" lon="14.33533"><ele>22.0</ele><time>2026-04-25T10:51:10.106Z</time></trkpt><trkpt lat="40.9540633" lon="14.3351117"><ele>22.0</ele><time>2026-04-25T10:51:11.106Z</time></trkpt><trkpt lat="40.9541167" lon="14.3348567"><ele>22.0</ele><time>2026-04-25T10:51:12.106Z</time></trkpt><trkpt lat="40.9541733" lon="14.3345783"><ele>22.0</ele><time>2026-04-25T10:51:13.107Z</time></trkpt><trkpt lat="40.9542333" lon="14.33426"><ele>21.5</ele><time>2026-04-25T10:51:14.106Z</time></trkpt><trkpt lat="40.9542983" lon="14.333925"><ele>21.0</ele><time>2026-04-25T10:51:15.106Z</time></trkpt><trkpt lat="40.95436" lon="14.3335883"><ele>21.0</ele><time>2026-04-25T10:51:16.107Z</time></trkpt><trkpt lat="40.9544217" lon="14.3332517"><ele>21.0</ele><time>2026-04-25T10:51:17.106Z</time></trkpt><trkpt lat="40.9544833" lon="14.332925"><ele>21.5</ele><time>2026-04-25T10:51:18.106Z</time></trkpt><trkpt lat="40.9545333" lon="14.3326183"><ele>22.0</ele><time>2026-04-25T10:51:19.106Z</time></trkpt><trkpt lat="40.95458" lon="14.3323217"><ele>22.0</ele><time>2026-04-25T10:51:20.106Z</time></trkpt><trkpt lat="40.95463" lon="14.3320283"><ele>22.0</ele><time>2026-04-25T10:51:21.106Z</time></trkpt><trkpt lat="40.9546817" lon="14.331745"><ele>22.0</ele><time>2026-04-25T10:51:22.106Z</time></trkpt><trkpt lat="40.9547267" lon="14.3314767"><ele>22.333333333333332</ele><time>2026-04-25T10:51:23.106Z</time></trkpt><trkpt lat="40.9547717" lon="14.3312133"><ele>22.666666666666668</ele><time>2026-04-25T10:51:24.106Z</time></trkpt><trkpt lat="40.9548233" lon="14.3309517"><ele>23.0</ele><time>2026-04-25T10:51:25.106Z</time></trkpt><trkpt lat="40.9548833" lon="14.3306967"><ele>22.333333333333336</ele><time>2026-04-25T10:51:26.106Z</time></trkpt><trkpt lat="40.9549483" lon="14.3304417"><ele>21.666666666666668</ele><time>2026-04-25T10:51:27.106Z</time></trkpt><trkpt lat="40.95501" lon="14.3302067"><ele>21.0</ele><time>2026-04-25T10:51:28.106Z</time></trkpt><trkpt lat="40.95506" lon="14.3300033"><ele>21.0</ele><time>2026-04-25T10:51:29.106Z</time></trkpt><trkpt lat="40.9550983" lon="14.3298067"><ele>21.0</ele><time>2026-04-25T10:51:30.106Z</time></trkpt><trkpt lat="40.9551167" lon="14.329615"><ele>21.0</ele><time>2026-04-25T10:51:31.106Z</time></trkpt><trkpt lat="40.95512" lon="14.3294167"><ele>21.0</ele><time>2026-04-25T10:51:32.106Z</time></trkpt><trkpt lat="40.9551067" lon="14.3291933"><ele>21.0</ele><time>2026-04-25T10:51:33.106Z</time></trkpt><trkpt lat="40.9550917" lon="14.3289567"><ele>21.0</ele><time>2026-04-25T10:51:34.106Z</time></trkpt><trkpt lat="40.9550783" lon="14.3287017"><ele>21.0</ele><time>2026-04-25T10:51:35.106Z</time></trkpt><trkpt lat="40.9550733" lon="14.3284517"><ele>21.666666666666668</ele><time>2026-04-25T10:51:36.106Z</time></trkpt><trkpt lat="40.9550817" lon="14.3282083"><ele>22.333333333333336</ele><time>2026-04-25T10:51:37.106Z</time></trkpt><trkpt lat="40.9550967" lon="14.3279617"><ele>23.0</ele><time>2026-04-25T10:51:38.106Z</time></trkpt><trkpt lat="40.9551167" lon="14.3276917"><ele>23.0</ele><time>2026-04-25T10:51:39.106Z</time></trkpt><trkpt lat="40.9551433" lon="14.3274217"><ele>23.0</ele><time>2026-04-25T10:51:40.107Z</time></trkpt><trkpt lat="40.9551617" lon="14.32717"><ele>23.0</ele><time>2026-04-25T10:51:41.106Z</time></trkpt><trkpt lat="40.9551817" lon="14.3269283"><ele>22.666666666666668</ele><time>2026-04-25T10:51:42.106Z</time></trkpt><trkpt lat="40.9551933" lon="14.326685"><ele>22.333333333333332</ele><time>2026-04-25T10:51:43.106Z</time></trkpt><trkpt lat="40.9552033" lon="14.326435"><ele>22.0</ele><time>2026-04-25T10:51:44.106Z</time></trkpt><trkpt lat="40.9552117" lon="14.3261683"><ele>22.0</ele><time>2026-04-25T10:51:45.106Z</time></trkpt><trkpt lat="40.955215" lon="14.3258883"><ele>22.0</ele><time>2026-04-25T10:51:46.106Z</time></trkpt><trkpt lat="40.95522" lon="14.3256283"><ele>22.0</ele><time>2026-04-25T10:51:47.106Z</time></trkpt><trkpt lat="40.9552267" lon="14.325385"><ele>22.333333333333332</ele><time>2026-04-25T10:51:48.106Z</time></trkpt><trkpt lat="40.9552333" lon="14.3251517"><ele>22.666666666666668</ele><time>2026-04-25T10:51:49.106Z</time></trkpt><trkpt lat="40.9552433" lon="14.324935"><ele>23.0</ele><time>2026-04-25T10:51:50.106Z</time></trkpt><trkpt lat="40.955255" lon="14.3247333"><ele>22.75</ele><time>2026-04-25T10:51:51.106Z</time></trkpt><trkpt lat="40.9552733" lon="14.3245633"><ele>22.5</ele><time>2026-04-25T10:51:52.106Z</time></trkpt><trkpt lat="40.9553017" lon="14.3244033"><ele>22.25</ele><time>2026-04-25T10:51:53.106Z</time></trkpt><trkpt lat="40.95534" lon="14.3242533"><ele>22.0</ele><time>2026-04-25T10:51:54.106Z</time></trkpt><trkpt lat="40.9553867" lon="14.3241033"><ele>22.0</ele><time>2026-04-25T10:51:55.106Z</time></trkpt><trkpt lat="40.9554433" lon="14.3239533"><ele>22.0</ele><time>2026-04-25T10:51:56.106Z</time></trkpt><trkpt lat="40.9555183" lon="14.3238033"><ele>22.0</ele><time>2026-04-25T10:51:57.106Z</time></trkpt><trkpt lat="40.9556067" lon="14.3236633"><ele>22.0</ele><time>2026-04-25T10:51:58.107Z</time></trkpt><trkpt lat="40.9557017" lon="14.32352"><ele>22.25</ele><time>2026-04-25T10:51:59.106Z</time></trkpt><trkpt lat="40.9557833" lon="14.323375"><ele>22.5</ele><time>2026-04-25T10:52:00.106Z</time></trkpt><trkpt lat="40.9558567" lon="14.3232283"><ele>22.75</ele><time>2026-04-25T10:52:01.106Z</time></trkpt><trkpt lat="40.9559133" lon="14.3230717"><ele>23.0</ele><time>2026-04-25T10:52:02.106Z</time></trkpt><trkpt lat="40.9559467" lon="14.3228967"><ele>24.0</ele><time>2026-04-25T10:52:03.107Z</time></trkpt><trkpt lat="40.9559817" lon="14.3226883"><ele>25.0</ele><time>2026-04-25T10:52:04.106Z</time></trkpt><trkpt lat="40.9560217" lon="14.32247"><ele>26.0</ele><time>2026-04-25T10:52:05.106Z</time></trkpt><trkpt lat="40.956055" lon="14.3222633"><ele>25.75</ele><time>2026-04-25T10:52:06.106Z</time></trkpt><trkpt lat="40.956085" lon="14.3220767"><ele>25.5</ele><time>2026-04-25T10:52:07.106Z</time></trkpt><trkpt lat="40.9561017" lon="14.3218967"><ele>25.25</ele><time>2026-04-25T10:52:08.106Z</time></trkpt><trkpt lat="40.9560983" lon="14.3217283"><ele>25.0</ele><time>2026-04-25T10:52:09.106Z</time></trkpt><trkpt lat="40.9560717" lon="14.3215583"><ele>25.0</ele><time>2026-04-25T10:52:10.106Z</time></trkpt><trkpt lat="40.9560217" lon="14.3213567"><ele>25.0</ele><time>2026-04-25T10:52:11.106Z</time></trkpt><trkpt lat="40.9559617" lon="14.3211417"><ele>25.0</ele><time>2026-04-25T10:52:12.106Z</time></trkpt><trkpt lat="40.9559017" lon="14.32091"><ele>24.666666666666668</ele><time>2026-04-25T10:52:13.106Z</time></trkpt><trkpt lat="40.9558383" lon="14.32068"><ele>24.333333333333336</ele><time>2026-04-25T10:52:14.106Z</time></trkpt><trkpt lat="40.9557733" lon="14.3204483"><ele>24.0</ele><time>2026-04-25T10:52:15.106Z</time></trkpt><trkpt lat="40.9557167" lon="14.3202217"><ele>23.666666666666668</ele><time>2026-04-25T10:52:16.106Z</time></trkpt><trkpt lat="40.9556617" lon="14.320005"><ele>23.333333333333336</ele><time>2026-04-25T10:52:17.106Z</time></trkpt><trkpt lat="40.95561" lon="14.31979"><ele>23.0</ele><time>2026-04-25T10:52:18.106Z</time></trkpt><trkpt lat="40.955565" lon="14.3195683"><ele>23.0</ele><time>2026-04-25T10:52:19.107Z</time></trkpt><trkpt lat="40.9555217" lon="14.3193383"><ele>23.0</ele><time>2026-04-25T10:52:20.106Z</time></trkpt><trkpt lat="40.9554867" lon="14.3191083"><ele>23.0</ele><time>2026-04-25T10:52:21.106Z</time></trkpt><trkpt lat="40.9554517" lon="14.31888"><ele>23.0</ele><time>2026-04-25T10:52:22.106Z</time></trkpt><trkpt lat="40.95543" lon="14.318655"><ele>23.0</ele><time>2026-04-25T10:52:23.106Z</time></trkpt><trkpt lat="40.9554133" lon="14.3184217"><ele>23.0</ele><time>2026-04-25T10:52:24.106Z</time></trkpt><trkpt lat="40.9554117" lon="14.3181817"><ele>23.0</ele><time>2026-04-25T10:52:25.107Z</time></trkpt><trkpt lat="40.9554083" lon="14.3179617"><ele>23.0</ele><time>2026-04-25T10:52:26.106Z</time></trkpt><trkpt lat="40.9554083" lon="14.3177567"><ele>23.0</ele><time>2026-04-25T10:52:27.106Z</time></trkpt><trkpt lat="40.9554067" lon="14.3175533"><ele>23.0</ele><time>2026-04-25T10:52:28.106Z</time></trkpt><trkpt lat="40.9554183" lon="14.3173517"><ele>23.0</ele><time>2026-04-25T10:52:29.106Z</time></trkpt><trkpt lat="40.95545" lon="14.3171533"><ele>23.0</ele><time>2026-04-25T10:52:30.106Z</time></trkpt><trkpt lat="40.9554917" lon="14.316955"><ele>23.0</ele><time>2026-04-25T10:52:31.106Z</time></trkpt><trkpt lat="40.955535" lon="14.31675"><ele>23.0</ele><time>2026-04-25T10:52:32.106Z</time></trkpt><trkpt lat="40.9555683" lon="14.31656"><ele>23.0</ele><time>2026-04-25T10:52:33.106Z</time></trkpt><trkpt lat="40.9556033" lon="14.3163783"><ele>23.5</ele><time>2026-04-25T10:52:34.106Z</time></trkpt><trkpt lat="40.955635" lon="14.3162067"><ele>24.0</ele><time>2026-04-25T10:52:35.106Z</time></trkpt><trkpt lat="40.9556583" lon="14.3160533"><ele>24.5</ele><time>2026-04-25T10:52:36.106Z</time></trkpt><trkpt lat="40.95568" lon="14.3159083"><ele>25.0</ele><time>2026-04-25T10:52:37.106Z</time></trkpt><trkpt lat="40.9556933" lon="14.315775"><ele>25.000000000000004</ele><time>2026-04-25T10:52:38.106Z</time></trkpt><trkpt lat="40.955705" lon="14.3156617"><ele>25.0</ele><time>2026-04-25T10:52:39.106Z</time></trkpt><trkpt lat="40.9557117" lon="14.3155617"><ele>25.0</ele><time>2026-04-25T10:52:40.106Z</time></trkpt><trkpt lat="40.9557217" lon="14.3154217"><ele>25.0</ele><time>2026-04-25T10:52:42.106Z</time></trkpt><trkpt lat="40.9557283" lon="14.3152967"><ele>25.000000000000004</ele><time>2026-04-25T10:52:44.106Z</time></trkpt><trkpt lat="40.9557283" lon="14.3152133"><ele>25.0</ele><time>2026-04-25T10:52:45.106Z</time></trkpt><trkpt lat="40.9557333" lon="14.3150683"><ele>25.0</ele><time>2026-04-25T10:52:47.106Z</time></trkpt><trkpt lat="40.95574" lon="14.314945"><ele>25.0</ele><time>2026-04-25T10:52:49.106Z</time></trkpt><trkpt lat="40.9557433" lon="14.314765"><ele>25.0</ele><time>2026-04-25T10:52:51.106Z</time></trkpt><trkpt lat="40.95575" lon="14.3146683"><ele>25.0</ele><time>2026-04-25T10:52:52.107Z</time></trkpt><trkpt lat="40.9557517" lon="14.314515"><ele>25.0</ele><time>2026-04-25T10:52:54.106Z</time></trkpt><trkpt lat="40.95576" lon="14.3144067"><ele>25.0</ele><time>2026-04-25T10:52:55.106Z</time></trkpt><trkpt lat="40.9557733" lon="14.3142683"><ele>25.0</ele><time>2026-04-25T10:52:56.106Z</time></trkpt><trkpt lat="40.955785" lon="14.3141217"><ele>25.0</ele><time>2026-04-25T10:52:57.106Z</time></trkpt><trkpt lat="40.9558033" lon="14.3139667"><ele>25.0</ele><time>2026-04-25T10:52:58.106Z</time></trkpt><trkpt lat="40.95583" lon="14.3138033"><ele>25.0</ele><time>2026-04-25T10:52:59.106Z</time></trkpt><trkpt lat="40.95587" lon="14.313635"><ele>25.0</ele><time>2026-04-25T10:53:00.106Z</time></trkpt><trkpt lat="40.9559083" lon="14.31347"><ele>25.0</ele><time>2026-04-25T10:53:01.106Z</time></trkpt><trkpt lat="40.9559467" lon="14.3132967"><ele>25.0</ele><time>2026-04-25T10:53:02.106Z</time></trkpt><trkpt lat="40.9559917" lon="14.31311"><ele>25.25</ele><time>2026-04-25T10:53:03.106Z</time></trkpt><trkpt lat="40.95604" lon="14.312925"><ele>25.5</ele><time>2026-04-25T10:53:04.106Z</time></trkpt><trkpt lat="40.95609" lon="14.3127383"><ele>25.75</ele><time>2026-04-25T10:53:05.107Z</time></trkpt><trkpt lat="40.9561267" lon="14.3125633"><ele>26.0</ele><time>2026-04-25T10:53:06.106Z</time></trkpt><trkpt lat="40.9561633" lon="14.3124033"><ele>26.0</ele><time>2026-04-25T10:53:07.106Z</time></trkpt><trkpt lat="40.9561767" lon="14.312235"><ele>26.0</ele><time>2026-04-25T10:53:08.106Z</time></trkpt><trkpt lat="40.9561783" lon="14.3120717"><ele>26.0</ele><time>2026-04-25T10:53:09.106Z</time></trkpt><trkpt lat="40.9561833" lon="14.31189"><ele>26.0</ele><time>2026-04-25T10:53:10.106Z</time></trkpt><trkpt lat="40.9561833" lon="14.3116917"><ele>26.0</ele><time>2026-04-25T10:53:11.106Z</time></trkpt><trkpt lat="40.9561867" lon="14.3114917"><ele>26.0</ele><time>2026-04-25T10:53:12.107Z</time></trkpt><trkpt lat="40.95619" lon="14.3113033"><ele>26.0</ele><time>2026-04-25T10:53:13.106Z</time></trkpt><trkpt lat="40.956195" lon="14.311125"><ele>26.0</ele><time>2026-04-25T10:53:14.106Z</time></trkpt><trkpt lat="40.9561983" lon="14.3109517"><ele>26.5</ele><time>2026-04-25T10:53:15.106Z</time></trkpt><trkpt lat="40.9562017" lon="14.3107783"><ele>27.0</ele><time>2026-04-25T10:53:16.106Z</time></trkpt><trkpt lat="40.956205" lon="14.3106233"><ele>27.5</ele><time>2026-04-25T10:53:17.106Z</time></trkpt><trkpt lat="40.956205" lon="14.31047"><ele>28.0</ele><time>2026-04-25T10:53:18.106Z</time></trkpt><trkpt lat="40.9562083" lon="14.3103"><ele>28.0</ele><time>2026-04-25T10:53:19.106Z</time></trkpt><trkpt lat="40.9562217" lon="14.3101367"><ele>27.999999999999996</ele><time>2026-04-25T10:53:20.106Z</time></trkpt><trkpt lat="40.95622" lon="14.3099883"><ele>27.999999999999996</ele><time>2026-04-25T10:53:21.106Z</time></trkpt><trkpt lat="40.95622" lon="14.3098467"><ele>28.0</ele><time>2026-04-25T10:53:22.107Z</time></trkpt><trkpt lat="40.9562233" lon="14.309725"><ele>28.0</ele><time>2026-04-25T10:53:23.107Z</time></trkpt><trkpt lat="40.95623" lon="14.3096267"><ele>27.5</ele><time>2026-04-25T10:53:24.106Z</time></trkpt><trkpt lat="40.956205" lon="14.30952"><ele>27.0</ele><time>2026-04-25T10:53:26.106Z</time></trkpt><trkpt lat="40.956045" lon="14.30949"><ele>26.5</ele><time>2026-04-25T10:53:28.106Z</time></trkpt><trkpt lat="40.9559067" lon="14.3095"><ele>26.0</ele><time>2026-04-25T10:53:29.106Z</time></trkpt><trkpt lat="40.9557517" lon="14.3095083"><ele>26.0</ele><time>2026-04-25T10:53:30.106Z</time></trkpt><trkpt lat="40.9556117" lon="14.3095133"><ele>26.0</ele><time>2026-04-25T10:53:31.107Z</time></trkpt><trkpt lat="40.95547" lon="14.3095083"><ele>26.0</ele><time>2026-04-25T10:53:32.106Z</time></trkpt><trkpt lat="40.9553367" lon="14.3095067"><ele>26.0</ele><time>2026-04-25T10:53:33.106Z</time></trkpt><trkpt lat="40.9552233" lon="14.3094933"><ele>26.0</ele><time>2026-04-25T10:53:34.106Z</time></trkpt><trkpt lat="40.9551233" lon="14.3094833"><ele>26.0</ele><time>2026-04-25T10:53:35.106Z</time></trkpt><trkpt lat="40.9550483" lon="14.30948"><ele>26.0</ele><time>2026-04-25T10:53:36.106Z</time></trkpt><trkpt lat="40.95498" lon="14.3094267"><ele>26.0</ele><time>2026-04-25T10:53:38.106Z</time></trkpt><trkpt lat="40.954975" lon="14.30928"><ele>26.0</ele><time>2026-04-25T10:53:40.106Z</time></trkpt><trkpt lat="40.9549933" lon="14.3091517"><ele>25.999999999999996</ele><time>2026-04-25T10:53:41.106Z</time></trkpt><trkpt lat="40.9550167" lon="14.3090183"><ele>26.0</ele><time>2026-04-25T10:53:42.107Z</time></trkpt><trkpt lat="40.95503" lon="14.3088917"><ele>26.0</ele><time>2026-04-25T10:53:43.106Z</time></trkpt><trkpt lat="40.95502" lon="14.3088033"><ele>26.0</ele><time>2026-04-25T10:53:44.106Z</time></trkpt><trkpt lat="40.9550417" lon="14.3087233"><ele>25.999999999999996</ele><time>2026-04-25T10:53:45.106Z</time></trkpt><trkpt lat="40.9550533" lon="14.308625"><ele>26.0</ele><time>2026-04-25T10:53:46.106Z</time></trkpt><trkpt lat="40.95506" lon="14.3085117"><ele>26.4</ele><time>2026-04-25T10:53:47.106Z</time></trkpt><trkpt lat="40.95507" lon="14.30838"><ele>26.8</ele><time>2026-04-25T10:53:48.106Z</time></trkpt><trkpt lat="40.9550767" lon="14.3082733"><ele>27.199999999999996</ele><time>2026-04-25T10:53:49.106Z</time></trkpt><trkpt lat="40.9550983" lon="14.3081367"><ele>27.599999999999998</ele><time>2026-04-25T10:53:51.106Z</time></trkpt><trkpt lat="40.9551067" lon="14.3079717"><ele>28.0</ele><time>2026-04-25T10:53:53.106Z</time></trkpt><trkpt lat="40.9551117" lon="14.3078633"><ele>28.000000000000004</ele><time>2026-04-25T10:53:54.106Z</time></trkpt><trkpt lat="40.9551183" lon="14.3077467"><ele>28.0</ele><time>2026-04-25T10:53:55.106Z</time></trkpt><trkpt lat="40.9551217" lon="14.3076383"><ele>28.0</ele><time>2026-04-25T10:53:56.106Z</time></trkpt><trkpt lat="40.9551283" lon="14.3075317"><ele>28.0</ele><time>2026-04-25T10:53:57.106Z</time></trkpt><trkpt lat="40.9551417" lon="14.3074433"><ele>28.000000000000004</ele><time>2026-04-25T10:53:58.106Z</time></trkpt><trkpt lat="40.9551517" lon="14.3073567"><ele>28.0</ele><time>2026-04-25T10:53:59.106Z</time></trkpt><trkpt lat="40.9551583" lon="14.3072683"><ele>27.833333333333336</ele><time>2026-04-25T10:54:00.106Z</time></trkpt><trkpt lat="40.95517" lon="14.30717"><ele>27.666666666666668</ele><time>2026-04-25T10:54:01.106Z</time></trkpt><trkpt lat="40.9551733" lon="14.30706"><ele>27.5</ele><time>2026-04-25T10:54:02.106Z</time></trkpt><trkpt lat="40.95518" lon="14.30695"><ele>27.333333333333336</ele><time>2026-04-25T10:54:03.106Z</time></trkpt><trkpt lat="40.9551917" lon="14.306835"><ele>27.166666666666668</ele><time>2026-04-25T10:54:04.106Z</time></trkpt><trkpt lat="40.9551967" lon="14.3067217"><ele>27.0</ele><time>2026-04-25T10:54:05.106Z</time></trkpt><trkpt lat="40.955215" lon="14.3066117"><ele>27.0</ele><time>2026-04-25T10:54:06.106Z</time></trkpt><trkpt lat="40.9552183" lon="14.3065267"><ele>27.0</ele><time>2026-04-25T10:54:07.106Z</time></trkpt><trkpt lat="40.9552383" lon="14.3064133"><ele>27.0</ele><time>2026-04-25T10:54:09.106Z</time></trkpt><trkpt lat="40.95525" lon="14.306315"><ele>27.0</ele><time>2026-04-25T10:54:12.106Z</time></trkpt><trkpt lat="40.955255" lon="14.3062217"><ele>27.0</ele><time>2026-04-25T10:54:13.106Z</time></trkpt><trkpt lat="40.95527" lon="14.3060883"><ele>27.0</ele><time>2026-04-25T10:54:14.106Z</time></trkpt><trkpt lat="40.9552783" lon="14.305935"><ele>26.75</ele><time>2026-04-25T10:54:15.107Z</time></trkpt><trkpt lat="40.955295" lon="14.3057767"><ele>26.5</ele><time>2026-04-25T10:54:16.106Z</time></trkpt><trkpt lat="40.9553067" lon="14.3056067"><ele>26.25</ele><time>2026-04-25T10:54:17.106Z</time></trkpt><trkpt lat="40.9553267" lon="14.3054233"><ele>26.0</ele><time>2026-04-25T10:54:18.106Z</time></trkpt><trkpt lat="40.95535" lon="14.3052367"><ele>26.4</ele><time>2026-04-25T10:54:19.106Z</time></trkpt><trkpt lat="40.95539" lon="14.3050717"><ele>26.8</ele><time>2026-04-25T10:54:20.106Z</time></trkpt><trkpt lat="40.955415" lon="14.30492"><ele>27.199999999999996</ele><time>2026-04-25T10:54:21.106Z</time></trkpt><trkpt lat="40.9554317" lon="14.3047817"><ele>27.599999999999998</ele><time>2026-04-25T10:54:22.106Z</time></trkpt><trkpt lat="40.9554467" lon="14.3046733"><ele>28.0</ele><time>2026-04-25T10:54:23.106Z</time></trkpt><trkpt lat="40.9554617" lon="14.3045867"><ele>28.000000000000004</ele><time>2026-04-25T10:54:24.107Z</time></trkpt><trkpt lat="40.95548" lon="14.3044867"><ele>28.0</ele><time>2026-04-25T10:54:26.106Z</time></trkpt><trkpt lat="40.95542" lon="14.3044117"><ele>28.0</ele><time>2026-04-25T10:54:31.106Z</time></trkpt><trkpt lat="40.9553583" lon="14.3043917"><ele>28.0</ele><time>2026-04-25T10:54:33.106Z</time></trkpt><trkpt lat="40.9552733" lon="14.30436"><ele>28.000000000000004</ele><time>2026-04-25T10:54:35.106Z</time></trkpt><trkpt lat="40.9551833" lon="14.3043333"><ele>28.0</ele><time>2026-04-25T10:54:37.106Z</time></trkpt><trkpt lat="40.9551133" lon="14.3043083"><ele>28.0</ele><time>2026-04-25T10:54:39.106Z</time></trkpt><trkpt lat="40.955035" lon="14.3042867"><ele>27.999999999999996</ele><time>2026-04-25T10:54:42.106Z</time></trkpt><trkpt lat="40.9549667" lon="14.3042567"><ele>27.999999999999996</ele><time>2026-04-25T10:54:44.106Z</time></trkpt><trkpt lat="40.95488" lon="14.30421"><ele>28.0</ele><time>2026-04-25T10:54:46.107Z</time></trkpt><trkpt lat="40.9547717" lon="14.3041717"><ele>28.0</ele><time>2026-04-25T10:54:48.106Z</time></trkpt><trkpt lat="40.9546733" lon="14.30413"><ele>28.0</ele><time>2026-04-25T10:54:50.106Z</time></trkpt><trkpt lat="40.9545667" lon="14.3041"><ele>27.999999999999996</ele><time>2026-04-25T10:54:52.107Z</time></trkpt><trkpt lat="40.9544667" lon="14.304065"><ele>27.999999999999996</ele><time>2026-04-25T10:54:54.106Z</time></trkpt><trkpt lat="40.9543567" lon="14.3040317"><ele>28.0</ele><time>2026-04-25T10:54:56.106Z</time></trkpt><trkpt lat="40.9542833" lon="14.3039667"><ele>28.0</ele><time>2026-04-25T10:54:58.106Z</time></trkpt><trkpt lat="40.95427" lon="14.3038617"><ele>29.0</ele><time>2026-04-25T10:55:01.106Z</time></trkpt><trkpt lat="40.9542583" lon="14.3037783"><ele>29.0</ele><time>2026-04-25T10:55:03.106Z</time></trkpt><trkpt lat="40.95424" lon="14.3036933"><ele>29.0</ele><time>2026-04-25T10:55:05.106Z</time></trkpt></trkseg></trk></gpx>